<?xml version="1.0" encoding="UTF-8" standalone="no" ?>
<gpx xmlns="http://www.topografix.com/GPX/1/1" xmlns:xsi="http://www.w3.org/2001/XMLSchema-instance" xsi:schemaLocation="http://www.topografix.com/GPX/1/1 http://www.topografix.com/GPX/1/1/gpx.xsd" version="1.1" creator="VisuGPX - https://www.visugpx.com">
  <metadata>
    <name>Clermont-Ferrand - Massat - Pau par François</name>
    <desc><![CDATA[Trajet effectué par François sur la "Diagonale du vide" en aout 2020]]></desc>
  </metadata>
  <trk>
    <name><![CDATA[route101]]></name>
    <trkseg>
      <trkpt lat="45.80009" lon="3.20371">
        <ele>375.9</ele>
        <time>2020-08-14T13:08:58Z</time>
      </trkpt>
      <trkpt lat="45.7992" lon="3.20438">
        <ele>373.8</ele>
        <time>2020-08-14T13:09:28Z</time>
      </trkpt>
      <trkpt lat="45.7984" lon="3.20499">
        <ele>372.7</ele>
        <time>2020-08-14T13:09:43Z</time>
      </trkpt>
      <trkpt lat="45.79763" lon="3.2061">
        <ele>373.1</ele>
        <time>2020-08-14T13:10:03Z</time>
      </trkpt>
      <trkpt lat="45.79717" lon="3.20738">
        <ele>373.4</ele>
        <time>2020-08-14T13:10:28Z</time>
      </trkpt>
      <trkpt lat="45.79673" lon="3.20855">
        <ele>372.4</ele>
        <time>2020-08-14T13:10:53Z</time>
      </trkpt>
      <trkpt lat="45.79627" lon="3.20984">
        <ele>371</ele>
        <time>2020-08-14T13:11:13Z</time>
      </trkpt>
      <trkpt lat="45.79583" lon="3.21103">
        <ele>370.6</ele>
        <time>2020-08-14T13:11:28Z</time>
      </trkpt>
      <trkpt lat="45.79539" lon="3.21231">
        <ele>370.6</ele>
        <time>2020-08-14T13:11:43Z</time>
      </trkpt>
      <trkpt lat="45.79503" lon="3.2137">
        <ele>370.8</ele>
        <time>2020-08-14T13:11:58Z</time>
      </trkpt>
      <trkpt lat="45.79479" lon="3.21508">
        <ele>370.6</ele>
        <time>2020-08-14T13:12:13Z</time>
      </trkpt>
      <trkpt lat="45.79465" lon="3.21672">
        <ele>369.9</ele>
        <time>2020-08-14T13:12:33Z</time>
      </trkpt>
      <trkpt lat="45.79447" lon="3.2182">
        <ele>369</ele>
        <time>2020-08-14T13:12:53Z</time>
      </trkpt>
      <trkpt lat="45.79432" lon="3.21957">
        <ele>368.9</ele>
        <time>2020-08-14T13:13:13Z</time>
      </trkpt>
      <trkpt lat="45.79414" lon="3.22098">
        <ele>369.3</ele>
        <time>2020-08-14T13:13:33Z</time>
      </trkpt>
      <trkpt lat="45.79388" lon="3.22232">
        <ele>369.6</ele>
        <time>2020-08-14T13:13:53Z</time>
      </trkpt>
      <trkpt lat="45.79366" lon="3.22357">
        <ele>370.1</ele>
        <time>2020-08-14T13:14:13Z</time>
      </trkpt>
      <trkpt lat="45.79335" lon="3.22504">
        <ele>370.7</ele>
        <time>2020-08-14T13:14:38Z</time>
      </trkpt>
      <trkpt lat="45.7932" lon="3.22641">
        <ele>371.2</ele>
        <time>2020-08-14T13:15:03Z</time>
      </trkpt>
      <trkpt lat="45.79256" lon="3.22744">
        <ele>373.3</ele>
        <time>2020-08-14T13:15:33Z</time>
      </trkpt>
      <trkpt lat="45.7932" lon="3.22847">
        <ele>378.8</ele>
        <time>2020-08-14T13:16:38Z</time>
      </trkpt>
      <trkpt lat="45.79402" lon="3.22942">
        <ele>380.6</ele>
        <time>2020-08-14T13:17:13Z</time>
      </trkpt>
      <trkpt lat="45.79475" lon="3.23029">
        <ele>382.4</ele>
        <time>2020-08-14T13:17:48Z</time>
      </trkpt>
      <trkpt lat="45.7955" lon="3.23129">
        <ele>383.6</ele>
        <time>2020-08-14T13:18:27Z</time>
      </trkpt>
      <trkpt lat="45.79583" lon="3.23262">
        <ele>384.8</ele>
        <time>2020-08-14T13:19:14Z</time>
      </trkpt>
      <trkpt lat="45.79615" lon="3.23386">
        <ele>385.5</ele>
        <time>2020-08-14T13:19:49Z</time>
      </trkpt>
      <trkpt lat="45.79657" lon="3.23533">
        <ele>386.4</ele>
        <time>2020-08-14T13:20:19Z</time>
      </trkpt>
      <trkpt lat="45.79701" lon="3.23685">
        <ele>386.1</ele>
        <time>2020-08-14T13:20:44Z</time>
      </trkpt>
      <trkpt lat="45.79751" lon="3.23849">
        <ele>385.9</ele>
        <time>2020-08-14T13:21:04Z</time>
      </trkpt>
      <trkpt lat="45.79794" lon="3.23991">
        <ele>384.7</ele>
        <time>2020-08-14T13:21:19Z</time>
      </trkpt>
      <trkpt lat="45.79833" lon="3.24125">
        <ele>384.3</ele>
        <time>2020-08-14T13:21:34Z</time>
      </trkpt>
      <trkpt lat="45.79866" lon="3.24248">
        <ele>384.3</ele>
        <time>2020-08-14T13:21:59Z</time>
      </trkpt>
      <trkpt lat="45.79907" lon="3.24387">
        <ele>385.2</ele>
        <time>2020-08-14T13:22:34Z</time>
      </trkpt>
      <trkpt lat="45.79918" lon="3.24544">
        <ele>389.4</ele>
        <time>2020-08-14T13:23:04Z</time>
      </trkpt>
      <trkpt lat="45.79927" lon="3.24675">
        <ele>391</ele>
        <time>2020-08-14T13:23:24Z</time>
      </trkpt>
      <trkpt lat="45.7994" lon="3.24828">
        <ele>392.1</ele>
        <time>2020-08-14T13:23:49Z</time>
      </trkpt>
      <trkpt lat="45.79957" lon="3.2498">
        <ele>391.7</ele>
        <time>2020-08-14T13:24:09Z</time>
      </trkpt>
      <trkpt lat="45.79975" lon="3.25138">
        <ele>391.3</ele>
        <time>2020-08-14T13:24:24Z</time>
      </trkpt>
      <trkpt lat="45.79939" lon="3.25313">
        <ele>390.5</ele>
        <time>2020-08-14T13:24:39Z</time>
      </trkpt>
      <trkpt lat="45.79913" lon="3.25494">
        <ele>388.1</ele>
        <time>2020-08-14T13:24:54Z</time>
      </trkpt>
      <trkpt lat="45.79882" lon="3.25672">
        <ele>385.3</ele>
        <time>2020-08-14T13:25:09Z</time>
      </trkpt>
      <trkpt lat="45.79844" lon="3.2583">
        <ele>382.3</ele>
        <time>2020-08-14T13:25:24Z</time>
      </trkpt>
      <trkpt lat="45.79748" lon="3.25851">
        <ele>380</ele>
        <time>2020-08-14T13:25:39Z</time>
      </trkpt>
      <trkpt lat="45.7964" lon="3.25846">
        <ele>378.5</ele>
        <time>2020-08-14T13:25:54Z</time>
      </trkpt>
      <trkpt lat="45.79533" lon="3.25843">
        <ele>375.9</ele>
        <time>2020-08-14T13:26:14Z</time>
      </trkpt>
      <trkpt lat="45.79442" lon="3.25836">
        <ele>372.1</ele>
        <time>2020-08-14T13:26:29Z</time>
      </trkpt>
      <trkpt lat="45.7936" lon="3.25921">
        <ele>369.9</ele>
        <time>2020-08-14T13:26:49Z</time>
      </trkpt>
      <trkpt lat="45.7929" lon="3.26022">
        <ele>370.3</ele>
        <time>2020-08-14T13:27:14Z</time>
      </trkpt>
      <trkpt lat="45.79219" lon="3.2612">
        <ele>370.4</ele>
        <time>2020-08-14T13:27:44Z</time>
      </trkpt>
      <trkpt lat="45.79155" lon="3.2621">
        <ele>371.1</ele>
        <time>2020-08-14T13:28:14Z</time>
      </trkpt>
      <trkpt lat="45.79094" lon="3.26303">
        <ele>371.4</ele>
        <time>2020-08-14T13:28:34Z</time>
      </trkpt>
      <trkpt lat="45.79025" lon="3.26399">
        <ele>370.9</ele>
        <time>2020-08-14T13:28:54Z</time>
      </trkpt>
      <trkpt lat="45.78954" lon="3.265">
        <ele>371.2</ele>
        <time>2020-08-14T13:29:14Z</time>
      </trkpt>
      <trkpt lat="45.78878" lon="3.26593">
        <ele>370.3</ele>
        <time>2020-08-14T13:29:34Z</time>
      </trkpt>
      <trkpt lat="45.7882" lon="3.26725">
        <ele>369.7</ele>
        <time>2020-08-14T13:30:04Z</time>
      </trkpt>
      <trkpt lat="45.78792" lon="3.26854">
        <ele>370.8</ele>
        <time>2020-08-14T13:30:24Z</time>
      </trkpt>
      <trkpt lat="45.78757" lon="3.26995">
        <ele>371.2</ele>
        <time>2020-08-14T13:30:54Z</time>
      </trkpt>
      <trkpt lat="45.78721" lon="3.27141">
        <ele>371.4</ele>
        <time>2020-08-14T13:31:24Z</time>
      </trkpt>
      <trkpt lat="45.78683" lon="3.27281">
        <ele>372.6</ele>
        <time>2020-08-14T13:31:49Z</time>
      </trkpt>
      <trkpt lat="45.78663" lon="3.27417">
        <ele>372.5</ele>
        <time>2020-08-14T13:32:09Z</time>
      </trkpt>
      <trkpt lat="45.78655" lon="3.27562">
        <ele>372.7</ele>
        <time>2020-08-14T13:32:24Z</time>
      </trkpt>
      <trkpt lat="45.78649" lon="3.27719">
        <ele>371.9</ele>
        <time>2020-08-14T13:32:39Z</time>
      </trkpt>
      <trkpt lat="45.78642" lon="3.27865">
        <ele>370.2</ele>
        <time>2020-08-14T13:32:54Z</time>
      </trkpt>
      <trkpt lat="45.78633" lon="3.27998">
        <ele>369.3</ele>
        <time>2020-08-14T13:33:09Z</time>
      </trkpt>
      <trkpt lat="45.78626" lon="3.28143">
        <ele>371.5</ele>
        <time>2020-08-14T13:33:29Z</time>
      </trkpt>
      <trkpt lat="45.78619" lon="3.28282">
        <ele>370.8</ele>
        <time>2020-08-14T13:33:49Z</time>
      </trkpt>
      <trkpt lat="45.78614" lon="3.28411">
        <ele>370</ele>
        <time>2020-08-14T13:34:09Z</time>
      </trkpt>
      <trkpt lat="45.78608" lon="3.28559">
        <ele>369.6</ele>
        <time>2020-08-14T13:34:34Z</time>
      </trkpt>
      <trkpt lat="45.78601" lon="3.28712">
        <ele>370.4</ele>
        <time>2020-08-14T13:34:59Z</time>
      </trkpt>
      <trkpt lat="45.7859" lon="3.2884">
        <ele>372.2</ele>
        <time>2020-08-14T13:35:24Z</time>
      </trkpt>
      <trkpt lat="45.78591" lon="3.28973">
        <ele>374.6</ele>
        <time>2020-08-14T13:35:59Z</time>
      </trkpt>
      <trkpt lat="45.78634" lon="3.29098">
        <ele>375.8</ele>
        <time>2020-08-14T13:36:49Z</time>
      </trkpt>
      <trkpt lat="45.78701" lon="3.29202">
        <ele>378.4</ele>
        <time>2020-08-14T13:37:41Z</time>
      </trkpt>
      <trkpt lat="45.78775" lon="3.29296">
        <ele>382.1</ele>
        <time>2020-08-14T13:38:21Z</time>
      </trkpt>
      <trkpt lat="45.78855" lon="3.29404">
        <ele>385.4</ele>
        <time>2020-08-14T13:38:51Z</time>
      </trkpt>
      <trkpt lat="45.78938" lon="3.2951">
        <ele>385.6</ele>
        <time>2020-08-14T13:39:16Z</time>
      </trkpt>
      <trkpt lat="45.79008" lon="3.29604">
        <ele>384.7</ele>
        <time>2020-08-14T13:39:36Z</time>
      </trkpt>
      <trkpt lat="45.79076" lon="3.29698">
        <ele>384.3</ele>
        <time>2020-08-14T13:39:51Z</time>
      </trkpt>
      <trkpt lat="45.79165" lon="3.29823">
        <ele>384.1</ele>
        <time>2020-08-14T13:40:06Z</time>
      </trkpt>
      <trkpt lat="45.79237" lon="3.29918">
        <ele>383.4</ele>
        <time>2020-08-14T13:40:16Z</time>
      </trkpt>
      <trkpt lat="45.7931" lon="3.30016">
        <ele>381.7</ele>
        <time>2020-08-14T13:40:26Z</time>
      </trkpt>
      <trkpt lat="45.79407" lon="3.30146">
        <ele>379.3</ele>
        <time>2020-08-14T13:40:41Z</time>
      </trkpt>
      <trkpt lat="45.79486" lon="3.30253">
        <ele>376.1</ele>
        <time>2020-08-14T13:40:56Z</time>
      </trkpt>
      <trkpt lat="45.7956" lon="3.30361">
        <ele>375.7</ele>
        <time>2020-08-14T13:41:16Z</time>
      </trkpt>
      <trkpt lat="45.79639" lon="3.30464">
        <ele>375</ele>
        <time>2020-08-14T13:41:46Z</time>
      </trkpt>
      <trkpt lat="45.79714" lon="3.30565">
        <ele>374.4</ele>
        <time>2020-08-14T13:42:15Z</time>
      </trkpt>
      <trkpt lat="45.79791" lon="3.30665">
        <ele>373.9</ele>
        <time>2020-08-14T13:42:45Z</time>
      </trkpt>
      <trkpt lat="45.79866" lon="3.3076">
        <ele>373.7</ele>
        <time>2020-08-14T13:43:15Z</time>
      </trkpt>
      <trkpt lat="45.79945" lon="3.30864">
        <ele>374.3</ele>
        <time>2020-08-14T13:43:45Z</time>
      </trkpt>
      <trkpt lat="45.80016" lon="3.30959">
        <ele>374.8</ele>
        <time>2020-08-14T13:44:15Z</time>
      </trkpt>
      <trkpt lat="45.80094" lon="3.31062">
        <ele>375.6</ele>
        <time>2020-08-14T13:44:50Z</time>
      </trkpt>
      <trkpt lat="45.80171" lon="3.31164">
        <ele>377.5</ele>
        <time>2020-08-14T13:45:20Z</time>
      </trkpt>
      <trkpt lat="45.80238" lon="3.31256">
        <ele>378.6</ele>
        <time>2020-08-14T13:45:45Z</time>
      </trkpt>
      <trkpt lat="45.80309" lon="3.31349">
        <ele>379.1</ele>
        <time>2020-08-14T13:46:15Z</time>
      </trkpt>
      <trkpt lat="45.80384" lon="3.31451">
        <ele>379.9</ele>
        <time>2020-08-14T13:46:55Z</time>
      </trkpt>
      <trkpt lat="45.80451" lon="3.31542">
        <ele>380.5</ele>
        <time>2020-08-14T13:47:35Z</time>
      </trkpt>
      <trkpt lat="45.80522" lon="3.31635">
        <ele>381.3</ele>
        <time>2020-08-14T13:48:10Z</time>
      </trkpt>
      <trkpt lat="45.80609" lon="3.31751">
        <ele>382.4</ele>
        <time>2020-08-14T13:48:35Z</time>
      </trkpt>
      <trkpt lat="45.8068" lon="3.31846">
        <ele>381.9</ele>
        <time>2020-08-14T13:48:50Z</time>
      </trkpt>
      <trkpt lat="45.80753" lon="3.3195">
        <ele>381.3</ele>
        <time>2020-08-14T13:49:05Z</time>
      </trkpt>
      <trkpt lat="45.80812" lon="3.32066">
        <ele>380</ele>
        <time>2020-08-14T13:49:20Z</time>
      </trkpt>
      <trkpt lat="45.80866" lon="3.32211">
        <ele>378</ele>
        <time>2020-08-14T13:49:35Z</time>
      </trkpt>
      <trkpt lat="45.80906" lon="3.32334">
        <ele>376.3</ele>
        <time>2020-08-14T13:49:45Z</time>
      </trkpt>
      <trkpt lat="45.8095" lon="3.32459">
        <ele>375.1</ele>
        <time>2020-08-14T13:49:55Z</time>
      </trkpt>
      <trkpt lat="45.80994" lon="3.3258">
        <ele>373.8</ele>
        <time>2020-08-14T13:50:05Z</time>
      </trkpt>
      <trkpt lat="45.81057" lon="3.32749">
        <ele>371.1</ele>
        <time>2020-08-14T13:50:20Z</time>
      </trkpt>
      <trkpt lat="45.81109" lon="3.32885">
        <ele>368.4</ele>
        <time>2020-08-14T13:50:35Z</time>
      </trkpt>
      <trkpt lat="45.81168" lon="3.3303">
        <ele>365.9</ele>
        <time>2020-08-14T13:50:55Z</time>
      </trkpt>
      <trkpt lat="45.81217" lon="3.33163">
        <ele>364.9</ele>
        <time>2020-08-14T13:51:15Z</time>
      </trkpt>
      <trkpt lat="45.81261" lon="3.33282">
        <ele>364</ele>
        <time>2020-08-14T13:51:35Z</time>
      </trkpt>
      <trkpt lat="45.81308" lon="3.3341">
        <ele>363.9</ele>
        <time>2020-08-14T13:52:00Z</time>
      </trkpt>
      <trkpt lat="45.8135" lon="3.33533">
        <ele>363.9</ele>
        <time>2020-08-14T13:52:25Z</time>
      </trkpt>
      <trkpt lat="45.81396" lon="3.33663">
        <ele>364.2</ele>
        <time>2020-08-14T13:52:55Z</time>
      </trkpt>
      <trkpt lat="45.81444" lon="3.33797">
        <ele>365.4</ele>
        <time>2020-08-14T13:53:25Z</time>
      </trkpt>
      <trkpt lat="45.81486" lon="3.33914">
        <ele>366.2</ele>
        <time>2020-08-14T13:53:45Z</time>
      </trkpt>
      <trkpt lat="45.81536" lon="3.34036">
        <ele>366.4</ele>
        <time>2020-08-14T13:54:05Z</time>
      </trkpt>
      <trkpt lat="45.81585" lon="3.34164">
        <ele>366.7</ele>
        <time>2020-08-14T13:54:31Z</time>
      </trkpt>
      <trkpt lat="45.81632" lon="3.34291">
        <ele>367.2</ele>
        <time>2020-08-14T13:54:56Z</time>
      </trkpt>
      <trkpt lat="45.8168" lon="3.34423">
        <ele>367.2</ele>
        <time>2020-08-14T13:55:21Z</time>
      </trkpt>
      <trkpt lat="45.81729" lon="3.34557">
        <ele>367.5</ele>
        <time>2020-08-14T13:55:46Z</time>
      </trkpt>
      <trkpt lat="45.81777" lon="3.34684">
        <ele>367.2</ele>
        <time>2020-08-14T13:56:11Z</time>
      </trkpt>
      <trkpt lat="45.81829" lon="3.34828">
        <ele>366.9</ele>
        <time>2020-08-14T13:56:36Z</time>
      </trkpt>
      <trkpt lat="45.81879" lon="3.34963">
        <ele>366.6</ele>
        <time>2020-08-14T13:56:56Z</time>
      </trkpt>
      <trkpt lat="45.8193" lon="3.35101">
        <ele>366.2</ele>
        <time>2020-08-14T13:57:16Z</time>
      </trkpt>
      <trkpt lat="45.81982" lon="3.35245">
        <ele>365.7</ele>
        <time>2020-08-14T13:57:41Z</time>
      </trkpt>
      <trkpt lat="45.82028" lon="3.35371">
        <ele>365.5</ele>
        <time>2020-08-14T13:58:01Z</time>
      </trkpt>
      <trkpt lat="45.82071" lon="3.3549">
        <ele>365.3</ele>
        <time>2020-08-14T13:58:21Z</time>
      </trkpt>
      <trkpt lat="45.82123" lon="3.35627">
        <ele>365.1</ele>
        <time>2020-08-14T13:58:46Z</time>
      </trkpt>
      <trkpt lat="45.82172" lon="3.35763">
        <ele>365</ele>
        <time>2020-08-14T13:59:11Z</time>
      </trkpt>
      <trkpt lat="45.82221" lon="3.35895">
        <ele>365</ele>
        <time>2020-08-14T13:59:36Z</time>
      </trkpt>
      <trkpt lat="45.82265" lon="3.36014">
        <ele>365.2</ele>
        <time>2020-08-14T14:00:01Z</time>
      </trkpt>
      <trkpt lat="45.82308" lon="3.36134">
        <ele>365.5</ele>
        <time>2020-08-14T14:00:26Z</time>
      </trkpt>
      <trkpt lat="45.82356" lon="3.36261">
        <ele>365.9</ele>
        <time>2020-08-14T14:00:51Z</time>
      </trkpt>
      <trkpt lat="45.82403" lon="3.36387">
        <ele>366.2</ele>
        <time>2020-08-14T14:01:16Z</time>
      </trkpt>
      <trkpt lat="45.82445" lon="3.36507">
        <ele>366.4</ele>
        <time>2020-08-14T14:01:41Z</time>
      </trkpt>
      <trkpt lat="45.82494" lon="3.36632">
        <ele>366.7</ele>
        <time>2020-08-14T14:02:06Z</time>
      </trkpt>
      <trkpt lat="45.82544" lon="3.36768">
        <ele>367.1</ele>
        <time>2020-08-14T14:02:36Z</time>
      </trkpt>
      <trkpt lat="45.8259" lon="3.36892">
        <ele>367.5</ele>
        <time>2020-08-14T14:03:06Z</time>
      </trkpt>
      <trkpt lat="45.82601" lon="3.37036">
        <ele>368.1</ele>
        <time>2020-08-14T14:03:41Z</time>
      </trkpt>
      <trkpt lat="45.82571" lon="3.3717">
        <ele>368.9</ele>
        <time>2020-08-14T14:04:16Z</time>
      </trkpt>
      <trkpt lat="45.82531" lon="3.37299">
        <ele>369.9</ele>
        <time>2020-08-14T14:05:02Z</time>
      </trkpt>
      <trkpt lat="45.82497" lon="3.3743">
        <ele>370.5</ele>
        <time>2020-08-14T14:05:53Z</time>
      </trkpt>
      <trkpt lat="45.82462" lon="3.37547">
        <ele>371.1</ele>
        <time>2020-08-14T14:06:32Z</time>
      </trkpt>
      <trkpt lat="45.82414" lon="3.37655">
        <ele>371.7</ele>
        <time>2020-08-14T14:07:02Z</time>
      </trkpt>
      <trkpt lat="45.82359" lon="3.37775">
        <ele>373.1</ele>
        <time>2020-08-14T14:07:27Z</time>
      </trkpt>
      <trkpt lat="45.82327" lon="3.37899">
        <ele>373.4</ele>
        <time>2020-08-14T14:07:47Z</time>
      </trkpt>
      <trkpt lat="45.82321" lon="3.38029">
        <ele>373.9</ele>
        <time>2020-08-14T14:08:12Z</time>
      </trkpt>
      <trkpt lat="45.82302" lon="3.38183">
        <ele>374.2</ele>
        <time>2020-08-14T14:19:26Z</time>
      </trkpt>
      <trkpt lat="45.82305" lon="3.38316">
        <ele>373.7</ele>
        <time>2020-08-14T14:19:51Z</time>
      </trkpt>
      <trkpt lat="45.82323" lon="3.38454">
        <ele>373.5</ele>
        <time>2020-08-14T14:20:16Z</time>
      </trkpt>
      <trkpt lat="45.82273" lon="3.38579">
        <ele>373.8</ele>
        <time>2020-08-14T14:21:23Z</time>
      </trkpt>
      <trkpt lat="45.82216" lon="3.38698">
        <ele>374.4</ele>
        <time>2020-08-14T14:21:43Z</time>
      </trkpt>
      <trkpt lat="45.82158" lon="3.38821">
        <ele>374.7</ele>
        <time>2020-08-14T14:22:03Z</time>
      </trkpt>
      <trkpt lat="45.82098" lon="3.38937">
        <ele>374.2</ele>
        <time>2020-08-14T14:22:23Z</time>
      </trkpt>
      <trkpt lat="45.82032" lon="3.39074">
        <ele>373.5</ele>
        <time>2020-08-14T14:22:43Z</time>
      </trkpt>
      <trkpt lat="45.81982" lon="3.3918">
        <ele>372.5</ele>
        <time>2020-08-14T14:22:58Z</time>
      </trkpt>
      <trkpt lat="45.81912" lon="3.39273">
        <ele>371.2</ele>
        <time>2020-08-14T14:23:18Z</time>
      </trkpt>
      <trkpt lat="45.82001" lon="3.39237">
        <ele>369.8</ele>
        <time>2020-08-14T14:24:03Z</time>
      </trkpt>
      <trkpt lat="45.81925" lon="3.39314">
        <ele>373.7</ele>
        <time>2020-08-14T14:25:10Z</time>
      </trkpt>
      <trkpt lat="45.81897" lon="3.39464">
        <ele>373.5</ele>
        <time>2020-08-14T14:25:30Z</time>
      </trkpt>
      <trkpt lat="45.81882" lon="3.39595">
        <ele>373.6</ele>
        <time>2020-08-14T14:25:45Z</time>
      </trkpt>
      <trkpt lat="45.81873" lon="3.39724">
        <ele>373.4</ele>
        <time>2020-08-14T14:26:00Z</time>
      </trkpt>
      <trkpt lat="45.81842" lon="3.39846">
        <ele>374.6</ele>
        <time>2020-08-14T14:26:35Z</time>
      </trkpt>
      <trkpt lat="45.81826" lon="3.39982">
        <ele>380.7</ele>
        <time>2020-08-14T14:27:00Z</time>
      </trkpt>
      <trkpt lat="45.81822" lon="3.40126">
        <ele>381.6</ele>
        <time>2020-08-14T14:27:25Z</time>
      </trkpt>
      <trkpt lat="45.81848" lon="3.40269">
        <ele>381.3</ele>
        <time>2020-08-14T14:27:50Z</time>
      </trkpt>
      <trkpt lat="45.81877" lon="3.40418">
        <ele>379.9</ele>
        <time>2020-08-14T14:28:10Z</time>
      </trkpt>
      <trkpt lat="45.81902" lon="3.40567">
        <ele>380.1</ele>
        <time>2020-08-14T14:28:30Z</time>
      </trkpt>
      <trkpt lat="45.81893" lon="3.40705">
        <ele>381.1</ele>
        <time>2020-08-14T14:28:50Z</time>
      </trkpt>
      <trkpt lat="45.81938" lon="3.40845">
        <ele>381.5</ele>
        <time>2020-08-14T14:29:20Z</time>
      </trkpt>
      <trkpt lat="45.81989" lon="3.40972">
        <ele>381.8</ele>
        <time>2020-08-14T14:29:45Z</time>
      </trkpt>
      <trkpt lat="45.81994" lon="3.41121">
        <ele>381.9</ele>
        <time>2020-08-14T14:30:15Z</time>
      </trkpt>
      <trkpt lat="45.81952" lon="3.41233">
        <ele>382.9</ele>
        <time>2020-08-14T14:30:39Z</time>
      </trkpt>
      <trkpt lat="45.81913" lon="3.41348">
        <ele>383.5</ele>
        <time>2020-08-14T14:31:04Z</time>
      </trkpt>
      <trkpt lat="45.81874" lon="3.41464">
        <ele>383.8</ele>
        <time>2020-08-14T14:31:34Z</time>
      </trkpt>
      <trkpt lat="45.8185" lon="3.41588">
        <ele>384.2</ele>
        <time>2020-08-14T14:31:59Z</time>
      </trkpt>
      <trkpt lat="45.81849" lon="3.41718">
        <ele>384.5</ele>
        <time>2020-08-14T14:32:24Z</time>
      </trkpt>
      <trkpt lat="45.81849" lon="3.41864">
        <ele>385</ele>
        <time>2020-08-14T14:32:59Z</time>
      </trkpt>
      <trkpt lat="45.8185" lon="3.41999">
        <ele>385.7</ele>
        <time>2020-08-14T14:33:34Z</time>
      </trkpt>
      <trkpt lat="45.81851" lon="3.42131">
        <ele>386.6</ele>
        <time>2020-08-14T14:34:16Z</time>
      </trkpt>
      <trkpt lat="45.81853" lon="3.42261">
        <ele>387.9</ele>
        <time>2020-08-14T14:35:04Z</time>
      </trkpt>
      <trkpt lat="45.819" lon="3.42383">
        <ele>388.9</ele>
        <time>2020-08-14T14:35:34Z</time>
      </trkpt>
      <trkpt lat="45.8192" lon="3.42524">
        <ele>390.1</ele>
        <time>2020-08-14T14:36:04Z</time>
      </trkpt>
      <trkpt lat="45.8194" lon="3.42669">
        <ele>391.3</ele>
        <time>2020-08-14T14:36:39Z</time>
      </trkpt>
      <trkpt lat="45.81966" lon="3.42818">
        <ele>392.5</ele>
        <time>2020-08-14T14:37:09Z</time>
      </trkpt>
      <trkpt lat="45.82008" lon="3.42961">
        <ele>395.3</ele>
        <time>2020-08-14T14:37:39Z</time>
      </trkpt>
      <trkpt lat="45.8205" lon="3.43087">
        <ele>396.2</ele>
        <time>2020-08-14T14:38:04Z</time>
      </trkpt>
      <trkpt lat="45.82094" lon="3.43209">
        <ele>396.9</ele>
        <time>2020-08-14T14:38:29Z</time>
      </trkpt>
      <trkpt lat="45.82156" lon="3.43353">
        <ele>399.2</ele>
        <time>2020-08-14T14:38:59Z</time>
      </trkpt>
      <trkpt lat="45.82221" lon="3.43488">
        <ele>399.8</ele>
        <time>2020-08-14T14:39:19Z</time>
      </trkpt>
      <trkpt lat="45.82294" lon="3.43618">
        <ele>400.4</ele>
        <time>2020-08-14T14:39:39Z</time>
      </trkpt>
      <trkpt lat="45.82264" lon="3.43757">
        <ele>401.3</ele>
        <time>2020-08-14T14:40:09Z</time>
      </trkpt>
      <trkpt lat="45.82217" lon="3.43882">
        <ele>402</ele>
        <time>2020-08-14T14:40:34Z</time>
      </trkpt>
      <trkpt lat="45.82138" lon="3.43941">
        <ele>402.7</ele>
        <time>2020-08-14T14:40:54Z</time>
      </trkpt>
      <trkpt lat="45.82034" lon="3.43974">
        <ele>404.7</ele>
        <time>2020-08-14T14:41:19Z</time>
      </trkpt>
      <trkpt lat="45.81934" lon="3.44017">
        <ele>406.7</ele>
        <time>2020-08-14T14:41:44Z</time>
      </trkpt>
      <trkpt lat="45.81872" lon="3.44107">
        <ele>407.3</ele>
        <time>2020-08-14T14:42:04Z</time>
      </trkpt>
      <trkpt lat="45.81811" lon="3.44216">
        <ele>407.8</ele>
        <time>2020-08-14T14:42:24Z</time>
      </trkpt>
      <trkpt lat="45.81822" lon="3.44355">
        <ele>408</ele>
        <time>2020-08-14T14:42:39Z</time>
      </trkpt>
      <trkpt lat="45.81827" lon="3.44486">
        <ele>407.9</ele>
        <time>2020-08-14T14:42:54Z</time>
      </trkpt>
      <trkpt lat="45.81856" lon="3.44621">
        <ele>414.4</ele>
        <time>2020-08-14T14:43:14Z</time>
      </trkpt>
      <trkpt lat="45.81807" lon="3.44738">
        <ele>414.9</ele>
        <time>2020-08-14T14:43:34Z</time>
      </trkpt>
      <trkpt lat="45.81718" lon="3.44825">
        <ele>412.5</ele>
        <time>2020-08-14T14:43:49Z</time>
      </trkpt>
      <trkpt lat="45.81745" lon="3.44984">
        <ele>412.9</ele>
        <time>2020-08-14T14:44:09Z</time>
      </trkpt>
      <trkpt lat="45.81779" lon="3.45107">
        <ele>410.9</ele>
        <time>2020-08-14T14:44:24Z</time>
      </trkpt>
      <trkpt lat="45.81826" lon="3.45226">
        <ele>411.6</ele>
        <time>2020-08-14T14:45:06Z</time>
      </trkpt>
      <trkpt lat="45.81872" lon="3.45345">
        <ele>414.3</ele>
        <time>2020-08-14T14:45:50Z</time>
      </trkpt>
      <trkpt lat="45.8194" lon="3.45475">
        <ele>414.3</ele>
        <time>2020-08-14T14:46:15Z</time>
      </trkpt>
      <trkpt lat="45.81992" lon="3.45592">
        <ele>414.4</ele>
        <time>2020-08-14T14:46:35Z</time>
      </trkpt>
      <trkpt lat="45.8204" lon="3.45721">
        <ele>414.6</ele>
        <time>2020-08-14T14:47:00Z</time>
      </trkpt>
      <trkpt lat="45.82095" lon="3.45852">
        <ele>414.7</ele>
        <time>2020-08-14T14:47:25Z</time>
      </trkpt>
      <trkpt lat="45.82149" lon="3.45968">
        <ele>414.3</ele>
        <time>2020-08-14T14:47:55Z</time>
      </trkpt>
      <trkpt lat="45.82192" lon="3.46107">
        <ele>414.1</ele>
        <time>2020-08-14T14:48:20Z</time>
      </trkpt>
      <trkpt lat="45.82197" lon="3.46244">
        <ele>414</ele>
        <time>2020-08-14T14:48:40Z</time>
      </trkpt>
      <trkpt lat="45.82226" lon="3.46375">
        <ele>414.1</ele>
        <time>2020-08-14T14:49:00Z</time>
      </trkpt>
      <trkpt lat="45.82261" lon="3.46525">
        <ele>414.1</ele>
        <time>2020-08-14T14:49:25Z</time>
      </trkpt>
      <trkpt lat="45.82289" lon="3.46683">
        <ele>413.9</ele>
        <time>2020-08-14T14:49:50Z</time>
      </trkpt>
      <trkpt lat="45.8233" lon="3.46813">
        <ele>413.6</ele>
        <time>2020-08-14T14:50:10Z</time>
      </trkpt>
      <trkpt lat="45.82389" lon="3.46938">
        <ele>413.5</ele>
        <time>2020-08-14T14:50:30Z</time>
      </trkpt>
      <trkpt lat="45.82412" lon="3.47078">
        <ele>413.3</ele>
        <time>2020-08-14T14:50:50Z</time>
      </trkpt>
      <trkpt lat="45.82472" lon="3.47189">
        <ele>413</ele>
        <time>2020-08-14T14:51:05Z</time>
      </trkpt>
      <trkpt lat="45.82558" lon="3.4729">
        <ele>412.4</ele>
        <time>2020-08-14T14:51:20Z</time>
      </trkpt>
      <trkpt lat="45.82628" lon="3.47405">
        <ele>411.7</ele>
        <time>2020-08-14T14:51:35Z</time>
      </trkpt>
      <trkpt lat="45.82705" lon="3.47495">
        <ele>410.9</ele>
        <time>2020-08-14T14:51:50Z</time>
      </trkpt>
      <trkpt lat="45.82807" lon="3.47578">
        <ele>409.4</ele>
        <time>2020-08-14T14:52:10Z</time>
      </trkpt>
      <trkpt lat="45.82899" lon="3.47635">
        <ele>410.5</ele>
        <time>2020-08-14T14:52:30Z</time>
      </trkpt>
      <trkpt lat="45.82976" lon="3.47725">
        <ele>410.6</ele>
        <time>2020-08-14T14:52:50Z</time>
      </trkpt>
      <trkpt lat="45.83031" lon="3.47836">
        <ele>409.2</ele>
        <time>2020-08-14T14:53:10Z</time>
      </trkpt>
      <trkpt lat="45.83013" lon="3.4801">
        <ele>406.5</ele>
        <time>2020-08-14T14:53:30Z</time>
      </trkpt>
      <trkpt lat="45.83002" lon="3.48188">
        <ele>405</ele>
        <time>2020-08-14T14:53:45Z</time>
      </trkpt>
      <trkpt lat="45.8303" lon="3.48316">
        <ele>403.9</ele>
        <time>2020-08-14T14:53:55Z</time>
      </trkpt>
      <trkpt lat="45.83114" lon="3.48444">
        <ele>401.5</ele>
        <time>2020-08-14T14:54:10Z</time>
      </trkpt>
      <trkpt lat="45.83212" lon="3.48523">
        <ele>397.7</ele>
        <time>2020-08-14T14:54:25Z</time>
      </trkpt>
      <trkpt lat="45.83326" lon="3.48605">
        <ele>397</ele>
        <time>2020-08-14T14:54:40Z</time>
      </trkpt>
      <trkpt lat="45.83424" lon="3.48718">
        <ele>395.5</ele>
        <time>2020-08-14T14:54:55Z</time>
      </trkpt>
      <trkpt lat="45.83532" lon="3.48805">
        <ele>394</ele>
        <time>2020-08-14T14:55:09Z</time>
      </trkpt>
      <trkpt lat="45.83609" lon="3.48938">
        <ele>386.8</ele>
        <time>2020-08-14T14:55:24Z</time>
      </trkpt>
      <trkpt lat="45.83655" lon="3.49081">
        <ele>383</ele>
        <time>2020-08-14T14:55:39Z</time>
      </trkpt>
      <trkpt lat="45.83685" lon="3.49216">
        <ele>379.1</ele>
        <time>2020-08-14T14:55:54Z</time>
      </trkpt>
      <trkpt lat="45.83724" lon="3.49374">
        <ele>372.6</ele>
        <time>2020-08-14T14:56:14Z</time>
      </trkpt>
      <trkpt lat="45.83758" lon="3.49518">
        <ele>369.4</ele>
        <time>2020-08-14T14:56:29Z</time>
      </trkpt>
      <trkpt lat="45.8379" lon="3.49645">
        <ele>366.6</ele>
        <time>2020-08-14T14:56:44Z</time>
      </trkpt>
      <trkpt lat="45.83828" lon="3.49772">
        <ele>363.7</ele>
        <time>2020-08-14T14:56:59Z</time>
      </trkpt>
      <trkpt lat="45.83857" lon="3.499">
        <ele>361.8</ele>
        <time>2020-08-14T14:57:24Z</time>
      </trkpt>
      <trkpt lat="45.83888" lon="3.50032">
        <ele>359.7</ele>
        <time>2020-08-14T14:57:54Z</time>
      </trkpt>
      <trkpt lat="45.83923" lon="3.50169">
        <ele>358.2</ele>
        <time>2020-08-14T14:58:24Z</time>
      </trkpt>
      <trkpt lat="45.83956" lon="3.50303">
        <ele>355.8</ele>
        <time>2020-08-14T14:58:44Z</time>
      </trkpt>
      <trkpt lat="45.83993" lon="3.50452">
        <ele>354.5</ele>
        <time>2020-08-14T14:59:04Z</time>
      </trkpt>
      <trkpt lat="45.84022" lon="3.50585">
        <ele>354.2</ele>
        <time>2020-08-14T14:59:24Z</time>
      </trkpt>
      <trkpt lat="45.84042" lon="3.50718">
        <ele>352.8</ele>
        <time>2020-08-14T14:59:55Z</time>
      </trkpt>
      <trkpt lat="45.84087" lon="3.50834">
        <ele>353.5</ele>
        <time>2020-08-14T15:00:15Z</time>
      </trkpt>
      <trkpt lat="45.84123" lon="3.50981">
        <ele>354.1</ele>
        <time>2020-08-14T15:00:40Z</time>
      </trkpt>
      <trkpt lat="45.84162" lon="3.51128">
        <ele>355.6</ele>
        <time>2020-08-14T15:01:05Z</time>
      </trkpt>
      <trkpt lat="45.842" lon="3.5128">
        <ele>355.4</ele>
        <time>2020-08-14T15:01:30Z</time>
      </trkpt>
      <trkpt lat="45.84232" lon="3.51405">
        <ele>355.5</ele>
        <time>2020-08-14T15:01:50Z</time>
      </trkpt>
      <trkpt lat="45.84267" lon="3.51542">
        <ele>355.7</ele>
        <time>2020-08-14T15:02:15Z</time>
      </trkpt>
      <trkpt lat="45.84314" lon="3.5167">
        <ele>355.2</ele>
        <time>2020-08-14T15:02:40Z</time>
      </trkpt>
      <trkpt lat="45.84366" lon="3.51805">
        <ele>355</ele>
        <time>2020-08-14T15:03:05Z</time>
      </trkpt>
      <trkpt lat="45.84416" lon="3.51939">
        <ele>354.9</ele>
        <time>2020-08-14T15:03:30Z</time>
      </trkpt>
      <trkpt lat="45.84456" lon="3.52062">
        <ele>354.7</ele>
        <time>2020-08-14T15:03:50Z</time>
      </trkpt>
      <trkpt lat="45.84499" lon="3.52195">
        <ele>354.4</ele>
        <time>2020-08-14T15:04:10Z</time>
      </trkpt>
      <trkpt lat="45.84538" lon="3.52319">
        <ele>354.1</ele>
        <time>2020-08-14T15:04:30Z</time>
      </trkpt>
      <trkpt lat="45.84585" lon="3.52467">
        <ele>353.8</ele>
        <time>2020-08-14T15:04:55Z</time>
      </trkpt>
      <trkpt lat="45.84624" lon="3.52589">
        <ele>353.7</ele>
        <time>2020-08-14T15:05:15Z</time>
      </trkpt>
      <trkpt lat="45.84665" lon="3.52723">
        <ele>353.8</ele>
        <time>2020-08-14T15:05:40Z</time>
      </trkpt>
      <trkpt lat="45.84709" lon="3.52864">
        <ele>354.2</ele>
        <time>2020-08-14T15:06:05Z</time>
      </trkpt>
      <trkpt lat="45.84753" lon="3.5301">
        <ele>354.4</ele>
        <time>2020-08-14T15:06:30Z</time>
      </trkpt>
      <trkpt lat="45.84795" lon="3.53154">
        <ele>354.6</ele>
        <time>2020-08-14T15:06:55Z</time>
      </trkpt>
      <trkpt lat="45.84838" lon="3.53295">
        <ele>354.9</ele>
        <time>2020-08-14T15:07:20Z</time>
      </trkpt>
      <trkpt lat="45.84878" lon="3.53435">
        <ele>355.1</ele>
        <time>2020-08-14T15:07:45Z</time>
      </trkpt>
      <trkpt lat="45.84918" lon="3.53565">
        <ele>355.2</ele>
        <time>2020-08-14T15:08:10Z</time>
      </trkpt>
      <trkpt lat="45.84961" lon="3.53704">
        <ele>355.3</ele>
        <time>2020-08-14T15:08:35Z</time>
      </trkpt>
      <trkpt lat="45.85" lon="3.53823">
        <ele>355.4</ele>
        <time>2020-08-14T15:09:00Z</time>
      </trkpt>
      <trkpt lat="45.85092" lon="3.53837">
        <ele>355.7</ele>
        <time>2020-08-14T15:09:30Z</time>
      </trkpt>
      <trkpt lat="45.85166" lon="3.53948">
        <ele>356.1</ele>
        <time>2020-08-14T15:10:00Z</time>
      </trkpt>
      <trkpt lat="45.85202" lon="3.54083">
        <ele>356.2</ele>
        <time>2020-08-14T15:10:25Z</time>
      </trkpt>
      <trkpt lat="45.85276" lon="3.54181">
        <ele>356.7</ele>
        <time>2020-08-14T15:11:20Z</time>
      </trkpt>
      <trkpt lat="45.8537" lon="3.54221">
        <ele>357.7</ele>
        <time>2020-08-14T15:12:30Z</time>
      </trkpt>
      <trkpt lat="45.85456" lon="3.54273">
        <ele>364.5</ele>
        <time>2020-08-14T15:17:38Z</time>
      </trkpt>
      <trkpt lat="45.85535" lon="3.54344">
        <ele>371</ele>
        <time>2020-08-14T15:19:54Z</time>
      </trkpt>
      <trkpt lat="45.85623" lon="3.54302">
        <ele>383.9</ele>
        <time>2020-08-14T15:23:20Z</time>
      </trkpt>
      <trkpt lat="45.85698" lon="3.54391">
        <ele>398.6</ele>
        <time>2020-08-14T15:25:24Z</time>
      </trkpt>
      <trkpt lat="45.85684" lon="3.54519">
        <ele>409.9</ele>
        <time>2020-08-14T15:26:41Z</time>
      </trkpt>
      <trkpt lat="45.85616" lon="3.54604">
        <ele>425.5</ele>
        <time>2020-08-14T15:27:57Z</time>
      </trkpt>
      <trkpt lat="45.85533" lon="3.54668">
        <ele>432.1</ele>
        <time>2020-08-14T15:28:42Z</time>
      </trkpt>
      <trkpt lat="45.85508" lon="3.54802">
        <ele>437.7</ele>
        <time>2020-08-14T15:29:22Z</time>
      </trkpt>
      <trkpt lat="45.85605" lon="3.54815">
        <ele>447.1</ele>
        <time>2020-08-14T15:30:47Z</time>
      </trkpt>
      <trkpt lat="45.85678" lon="3.54735">
        <ele>457.7</ele>
        <time>2020-08-14T15:33:46Z</time>
      </trkpt>
      <trkpt lat="45.85671" lon="3.54885">
        <ele>479.1</ele>
        <time>2020-08-14T15:38:08Z</time>
      </trkpt>
      <trkpt lat="45.85733" lon="3.54992">
        <ele>479.2</ele>
        <time>2020-08-14T15:39:02Z</time>
      </trkpt>
      <trkpt lat="45.85831" lon="3.54996">
        <ele>479.4</ele>
        <time>2020-08-14T15:39:42Z</time>
      </trkpt>
      <trkpt lat="45.85925" lon="3.54986">
        <ele>479.5</ele>
        <time>2020-08-14T15:40:17Z</time>
      </trkpt>
      <trkpt lat="45.8594" lon="3.55125">
        <ele>480.6</ele>
        <time>2020-08-14T15:41:28Z</time>
      </trkpt>
      <trkpt lat="45.85944" lon="3.55263">
        <ele>482.2</ele>
        <time>2020-08-14T15:42:19Z</time>
      </trkpt>
      <trkpt lat="45.85966" lon="3.55397">
        <ele>484.9</ele>
        <time>2020-08-14T15:43:18Z</time>
      </trkpt>
      <trkpt lat="45.86059" lon="3.55369">
        <ele>486.6</ele>
        <time>2020-08-14T15:44:09Z</time>
      </trkpt>
      <trkpt lat="45.86151" lon="3.55348">
        <ele>488.2</ele>
        <time>2020-08-14T15:44:54Z</time>
      </trkpt>
      <trkpt lat="45.8624" lon="3.55384">
        <ele>490</ele>
        <time>2020-08-14T15:45:41Z</time>
      </trkpt>
      <trkpt lat="45.8632" lon="3.55474">
        <ele>492.7</ele>
        <time>2020-08-14T15:46:33Z</time>
      </trkpt>
      <trkpt lat="45.86314" lon="3.55615">
        <ele>496.3</ele>
        <time>2020-08-14T15:47:28Z</time>
      </trkpt>
      <trkpt lat="45.86308" lon="3.55746">
        <ele>499.4</ele>
        <time>2020-08-14T15:48:15Z</time>
      </trkpt>
      <trkpt lat="45.86275" lon="3.55876">
        <ele>504.5</ele>
        <time>2020-08-14T15:49:15Z</time>
      </trkpt>
      <trkpt lat="45.86307" lon="3.56012">
        <ele>511.5</ele>
        <time>2020-08-14T15:50:16Z</time>
      </trkpt>
      <trkpt lat="45.86401" lon="3.56066">
        <ele>518.4</ele>
        <time>2020-08-14T15:51:13Z</time>
      </trkpt>
      <trkpt lat="45.86489" lon="3.56123">
        <ele>524.7</ele>
        <time>2020-08-14T15:52:13Z</time>
      </trkpt>
      <trkpt lat="45.86587" lon="3.5613">
        <ele>529.2</ele>
        <time>2020-08-14T15:53:07Z</time>
      </trkpt>
      <trkpt lat="45.86671" lon="3.56185">
        <ele>533.5</ele>
        <time>2020-08-14T15:54:02Z</time>
      </trkpt>
      <trkpt lat="45.8663" lon="3.56299">
        <ele>541.7</ele>
        <time>2020-08-14T15:55:50Z</time>
      </trkpt>
      <trkpt lat="45.86559" lon="3.56383">
        <ele>546.8</ele>
        <time>2020-08-14T15:56:49Z</time>
      </trkpt>
      <trkpt lat="45.86512" lon="3.56492">
        <ele>551.2</ele>
        <time>2020-08-14T15:57:43Z</time>
      </trkpt>
      <trkpt lat="45.86605" lon="3.56527">
        <ele>555.5</ele>
        <time>2020-08-14T15:58:52Z</time>
      </trkpt>
      <trkpt lat="45.86672" lon="3.56624">
        <ele>558.4</ele>
        <time>2020-08-14T15:59:55Z</time>
      </trkpt>
      <trkpt lat="45.86771" lon="3.56635">
        <ele>561.5</ele>
        <time>2020-08-14T16:00:53Z</time>
      </trkpt>
      <trkpt lat="45.86869" lon="3.56653">
        <ele>565.2</ele>
        <time>2020-08-14T16:01:57Z</time>
      </trkpt>
      <trkpt lat="45.86956" lon="3.56726">
        <ele>569.1</ele>
        <time>2020-08-14T16:02:55Z</time>
      </trkpt>
      <trkpt lat="45.87049" lon="3.56737">
        <ele>572.8</ele>
        <time>2020-08-14T16:03:49Z</time>
      </trkpt>
      <trkpt lat="45.87129" lon="3.56812">
        <ele>577</ele>
        <time>2020-08-14T16:04:48Z</time>
      </trkpt>
      <trkpt lat="45.87195" lon="3.56915">
        <ele>581.8</ele>
        <time>2020-08-14T16:05:50Z</time>
      </trkpt>
      <trkpt lat="45.87275" lon="3.57009">
        <ele>584.6</ele>
        <time>2020-08-14T16:06:31Z</time>
      </trkpt>
      <trkpt lat="45.87335" lon="3.57125">
        <ele>587.3</ele>
        <time>2020-08-14T16:07:11Z</time>
      </trkpt>
      <trkpt lat="45.87403" lon="3.57224">
        <ele>591.7</ele>
        <time>2020-08-14T16:08:03Z</time>
      </trkpt>
      <trkpt lat="45.87444" lon="3.57347">
        <ele>607</ele>
        <time>2020-08-14T16:14:00Z</time>
      </trkpt>
      <trkpt lat="45.87501" lon="3.57463">
        <ele>613</ele>
        <time>2020-08-14T16:14:53Z</time>
      </trkpt>
      <trkpt lat="45.87575" lon="3.5739">
        <ele>616.7</ele>
        <time>2020-08-14T16:15:55Z</time>
      </trkpt>
      <trkpt lat="45.87635" lon="3.57285">
        <ele>619.5</ele>
        <time>2020-08-14T16:16:53Z</time>
      </trkpt>
      <trkpt lat="45.87608" lon="3.57156">
        <ele>622.8</ele>
        <time>2020-08-14T16:17:51Z</time>
      </trkpt>
      <trkpt lat="45.87697" lon="3.57187">
        <ele>627.3</ele>
        <time>2020-08-14T16:19:03Z</time>
      </trkpt>
      <trkpt lat="45.87777" lon="3.5713">
        <ele>631.1</ele>
        <time>2020-08-14T16:20:11Z</time>
      </trkpt>
      <trkpt lat="45.87876" lon="3.57145">
        <ele>639.1</ele>
        <time>2020-08-14T16:21:29Z</time>
      </trkpt>
      <trkpt lat="45.87941" lon="3.57258">
        <ele>650.5</ele>
        <time>2020-08-14T16:22:36Z</time>
      </trkpt>
      <trkpt lat="45.87987" lon="3.57381">
        <ele>662.4</ele>
        <time>2020-08-14T16:23:22Z</time>
      </trkpt>
      <trkpt lat="45.88055" lon="3.57484">
        <ele>671.9</ele>
        <time>2020-08-14T16:24:08Z</time>
      </trkpt>
      <trkpt lat="45.88149" lon="3.57511">
        <ele>677.3</ele>
        <time>2020-08-14T16:24:53Z</time>
      </trkpt>
      <trkpt lat="45.88245" lon="3.57541">
        <ele>682</ele>
        <time>2020-08-14T16:25:58Z</time>
      </trkpt>
      <trkpt lat="45.88332" lon="3.57493">
        <ele>683.9</ele>
        <time>2020-08-14T16:26:45Z</time>
      </trkpt>
      <trkpt lat="45.88401" lon="3.57394">
        <ele>685.8</ele>
        <time>2020-08-14T16:27:44Z</time>
      </trkpt>
      <trkpt lat="45.88506" lon="3.57359">
        <ele>687</ele>
        <time>2020-08-14T16:28:04Z</time>
      </trkpt>
      <trkpt lat="45.88562" lon="3.57484">
        <ele>687.1</ele>
        <time>2020-08-14T16:28:19Z</time>
      </trkpt>
      <trkpt lat="45.88638" lon="3.57597">
        <ele>687.9</ele>
        <time>2020-08-14T16:28:39Z</time>
      </trkpt>
      <trkpt lat="45.88734" lon="3.57613">
        <ele>686.4</ele>
        <time>2020-08-14T16:28:54Z</time>
      </trkpt>
      <trkpt lat="45.88831" lon="3.57689">
        <ele>685.2</ele>
        <time>2020-08-14T16:29:14Z</time>
      </trkpt>
      <trkpt lat="45.88888" lon="3.57805">
        <ele>685.1</ele>
        <time>2020-08-14T16:29:34Z</time>
      </trkpt>
      <trkpt lat="45.88912" lon="3.57957">
        <ele>684.5</ele>
        <time>2020-08-14T16:29:59Z</time>
      </trkpt>
      <trkpt lat="45.88925" lon="3.58087">
        <ele>685.6</ele>
        <time>2020-08-14T16:30:24Z</time>
      </trkpt>
      <trkpt lat="45.88943" lon="3.58218">
        <ele>687.1</ele>
        <time>2020-08-14T16:30:49Z</time>
      </trkpt>
      <trkpt lat="45.89008" lon="3.58342">
        <ele>689.4</ele>
        <time>2020-08-14T16:31:19Z</time>
      </trkpt>
      <trkpt lat="45.89077" lon="3.58439">
        <ele>691.3</ele>
        <time>2020-08-14T16:31:44Z</time>
      </trkpt>
      <trkpt lat="45.89139" lon="3.58565">
        <ele>691.8</ele>
        <time>2020-08-14T16:32:14Z</time>
      </trkpt>
      <trkpt lat="45.89215" lon="3.58666">
        <ele>693.8</ele>
        <time>2020-08-14T16:32:43Z</time>
      </trkpt>
      <trkpt lat="45.89304" lon="3.58691">
        <ele>694.2</ele>
        <time>2020-08-14T16:33:03Z</time>
      </trkpt>
      <trkpt lat="45.89406" lon="3.58645">
        <ele>691.1</ele>
        <time>2020-08-14T16:33:28Z</time>
      </trkpt>
      <trkpt lat="45.89494" lon="3.58699">
        <ele>690.4</ele>
        <time>2020-08-14T16:33:53Z</time>
      </trkpt>
      <trkpt lat="45.8942" lon="3.58783">
        <ele>690.6</ele>
        <time>2020-08-14T16:34:39Z</time>
      </trkpt>
      <trkpt lat="45.89329" lon="3.58826">
        <ele>692.8</ele>
        <time>2020-08-14T16:35:40Z</time>
      </trkpt>
      <trkpt lat="45.89236" lon="3.58835">
        <ele>695.7</ele>
        <time>2020-08-14T16:36:28Z</time>
      </trkpt>
      <trkpt lat="45.89151" lon="3.58881">
        <ele>698.4</ele>
        <time>2020-08-14T16:37:18Z</time>
      </trkpt>
      <trkpt lat="45.89089" lon="3.58973">
        <ele>700.9</ele>
        <time>2020-08-14T16:38:11Z</time>
      </trkpt>
      <trkpt lat="45.89022" lon="3.59068">
        <ele>705.2</ele>
        <time>2020-08-14T16:40:36Z</time>
      </trkpt>
      <trkpt lat="45.88953" lon="3.59168">
        <ele>707.5</ele>
        <time>2020-08-14T16:41:31Z</time>
      </trkpt>
      <trkpt lat="45.88861" lon="3.59168">
        <ele>709.3</ele>
        <time>2020-08-14T16:42:13Z</time>
      </trkpt>
    </trkseg>
  </trk>
  <trk>
    <name><![CDATA[route102]]></name>
    <trkseg>
      <trkpt lat="45.8886" lon="3.59349">
        <ele>727.5</ele>
        <time>2020-08-15T04:14:49Z</time>
      </trkpt>
      <trkpt lat="45.88795" lon="3.5923">
        <ele>728.6</ele>
        <time>2020-08-15T04:15:58Z</time>
      </trkpt>
      <trkpt lat="45.8873" lon="3.59128">
        <ele>729</ele>
        <time>2020-08-15T04:17:06Z</time>
      </trkpt>
      <trkpt lat="45.88648" lon="3.5906">
        <ele>727.8</ele>
        <time>2020-08-15T04:17:26Z</time>
      </trkpt>
      <trkpt lat="45.88552" lon="3.59058">
        <ele>726.3</ele>
        <time>2020-08-15T04:17:41Z</time>
      </trkpt>
      <trkpt lat="45.88511" lon="3.59176">
        <ele>725.2</ele>
        <time>2020-08-15T04:18:15Z</time>
      </trkpt>
      <trkpt lat="45.88421" lon="3.59204">
        <ele>722.3</ele>
        <time>2020-08-15T04:18:30Z</time>
      </trkpt>
      <trkpt lat="45.884" lon="3.59367">
        <ele>716.9</ele>
        <time>2020-08-15T04:19:12Z</time>
      </trkpt>
      <trkpt lat="45.88337" lon="3.59476">
        <ele>712.1</ele>
        <time>2020-08-15T04:19:32Z</time>
      </trkpt>
      <trkpt lat="45.88257" lon="3.59536">
        <ele>690.9</ele>
        <time>2020-08-15T04:19:52Z</time>
      </trkpt>
      <trkpt lat="45.88298" lon="3.59684">
        <ele>688.1</ele>
        <time>2020-08-15T04:20:07Z</time>
      </trkpt>
      <trkpt lat="45.8832" lon="3.59815">
        <ele>685.6</ele>
        <time>2020-08-15T04:20:27Z</time>
      </trkpt>
      <trkpt lat="45.88295" lon="3.59988">
        <ele>668.9</ele>
        <time>2020-08-15T04:21:11Z</time>
      </trkpt>
      <trkpt lat="45.88185" lon="3.59994">
        <ele>667.6</ele>
        <time>2020-08-15T04:21:31Z</time>
      </trkpt>
      <trkpt lat="45.88081" lon="3.59964">
        <ele>664.5</ele>
        <time>2020-08-15T04:21:51Z</time>
      </trkpt>
      <trkpt lat="45.87982" lon="3.59954">
        <ele>662.6</ele>
        <time>2020-08-15T04:22:06Z</time>
      </trkpt>
      <trkpt lat="45.87871" lon="3.59981">
        <ele>657.9</ele>
        <time>2020-08-15T04:22:21Z</time>
      </trkpt>
      <trkpt lat="45.87758" lon="3.59964">
        <ele>650.1</ele>
        <time>2020-08-15T04:22:36Z</time>
      </trkpt>
      <trkpt lat="45.87646" lon="3.59907">
        <ele>644.8</ele>
        <time>2020-08-15T04:22:51Z</time>
      </trkpt>
      <trkpt lat="45.87547" lon="3.59891">
        <ele>640.7</ele>
        <time>2020-08-15T04:23:06Z</time>
      </trkpt>
      <trkpt lat="45.87431" lon="3.5988">
        <ele>638.3</ele>
        <time>2020-08-15T04:23:26Z</time>
      </trkpt>
      <trkpt lat="45.87346" lon="3.59949">
        <ele>636.6</ele>
        <time>2020-08-15T04:23:41Z</time>
      </trkpt>
      <trkpt lat="45.87308" lon="3.60067">
        <ele>634.7</ele>
        <time>2020-08-15T04:23:56Z</time>
      </trkpt>
      <trkpt lat="45.87264" lon="3.60179">
        <ele>632.7</ele>
        <time>2020-08-15T04:24:11Z</time>
      </trkpt>
      <trkpt lat="45.87188" lon="3.60252">
        <ele>629.3</ele>
        <time>2020-08-15T04:24:26Z</time>
      </trkpt>
      <trkpt lat="45.871" lon="3.6021">
        <ele>630.9</ele>
        <time>2020-08-15T04:25:02Z</time>
      </trkpt>
      <trkpt lat="45.87005" lon="3.60217">
        <ele>630.1</ele>
        <time>2020-08-15T04:25:22Z</time>
      </trkpt>
      <trkpt lat="45.86943" lon="3.60339">
        <ele>623.1</ele>
        <time>2020-08-15T04:27:29Z</time>
      </trkpt>
      <trkpt lat="45.86954" lon="3.6049">
        <ele>616.5</ele>
        <time>2020-08-15T04:28:23Z</time>
      </trkpt>
      <trkpt lat="45.8686" lon="3.60441">
        <ele>605.6</ele>
        <time>2020-08-15T04:29:10Z</time>
      </trkpt>
      <trkpt lat="45.86784" lon="3.60506">
        <ele>601.3</ele>
        <time>2020-08-15T04:29:45Z</time>
      </trkpt>
      <trkpt lat="45.86834" lon="3.60645">
        <ele>600.1</ele>
        <time>2020-08-15T04:30:10Z</time>
      </trkpt>
      <trkpt lat="45.86883" lon="3.60769">
        <ele>599</ele>
        <time>2020-08-15T04:30:35Z</time>
      </trkpt>
      <trkpt lat="45.86909" lon="3.60909">
        <ele>598</ele>
        <time>2020-08-15T04:31:04Z</time>
      </trkpt>
      <trkpt lat="45.86901" lon="3.61051">
        <ele>596.7</ele>
        <time>2020-08-15T04:31:39Z</time>
      </trkpt>
      <trkpt lat="45.8684" lon="3.61146">
        <ele>595.7</ele>
        <time>2020-08-15T04:32:28Z</time>
      </trkpt>
      <trkpt lat="45.86764" lon="3.61225">
        <ele>595.8</ele>
        <time>2020-08-15T04:33:16Z</time>
      </trkpt>
      <trkpt lat="45.867" lon="3.61332">
        <ele>597</ele>
        <time>2020-08-15T04:34:10Z</time>
      </trkpt>
      <trkpt lat="45.8662" lon="3.614">
        <ele>599.8</ele>
        <time>2020-08-15T04:35:07Z</time>
      </trkpt>
      <trkpt lat="45.86547" lon="3.61487">
        <ele>602.4</ele>
        <time>2020-08-15T04:36:01Z</time>
      </trkpt>
      <trkpt lat="45.86457" lon="3.61487">
        <ele>605.3</ele>
        <time>2020-08-15T04:36:59Z</time>
      </trkpt>
      <trkpt lat="45.86365" lon="3.61472">
        <ele>608.6</ele>
        <time>2020-08-15T04:37:35Z</time>
      </trkpt>
      <trkpt lat="45.8633" lon="3.61594">
        <ele>612.8</ele>
        <time>2020-08-15T04:38:16Z</time>
      </trkpt>
      <trkpt lat="45.86263" lon="3.61679">
        <ele>617</ele>
        <time>2020-08-15T04:39:04Z</time>
      </trkpt>
      <trkpt lat="45.86211" lon="3.61782">
        <ele>620.4</ele>
        <time>2020-08-15T04:39:58Z</time>
      </trkpt>
      <trkpt lat="45.86147" lon="3.61871">
        <ele>623</ele>
        <time>2020-08-15T04:40:48Z</time>
      </trkpt>
      <trkpt lat="45.86073" lon="3.61945">
        <ele>625.6</ele>
        <time>2020-08-15T04:41:33Z</time>
      </trkpt>
      <trkpt lat="45.86004" lon="3.62042">
        <ele>630.4</ele>
        <time>2020-08-15T04:42:36Z</time>
      </trkpt>
      <trkpt lat="45.8595" lon="3.62154">
        <ele>635.9</ele>
        <time>2020-08-15T04:43:49Z</time>
      </trkpt>
      <trkpt lat="45.85893" lon="3.62308">
        <ele>648.6</ele>
        <time>2020-08-15T04:45:47Z</time>
      </trkpt>
      <trkpt lat="45.85779" lon="3.62347">
        <ele>649.6</ele>
        <time>2020-08-15T04:45:57Z</time>
      </trkpt>
      <trkpt lat="45.85692" lon="3.62402">
        <ele>649.4</ele>
        <time>2020-08-15T04:46:07Z</time>
      </trkpt>
      <trkpt lat="45.85641" lon="3.62537">
        <ele>650.1</ele>
        <time>2020-08-15T04:46:27Z</time>
      </trkpt>
      <trkpt lat="45.85661" lon="3.62666">
        <ele>654.9</ele>
        <time>2020-08-15T04:47:33Z</time>
      </trkpt>
      <trkpt lat="45.857" lon="3.62791">
        <ele>663.6</ele>
        <time>2020-08-15T04:48:47Z</time>
      </trkpt>
      <trkpt lat="45.85733" lon="3.62917">
        <ele>674</ele>
        <time>2020-08-15T04:50:06Z</time>
      </trkpt>
      <trkpt lat="45.85733" lon="3.63049">
        <ele>682.2</ele>
        <time>2020-08-15T04:51:21Z</time>
      </trkpt>
      <trkpt lat="45.85749" lon="3.63182">
        <ele>688.4</ele>
        <time>2020-08-15T04:52:28Z</time>
      </trkpt>
      <trkpt lat="45.85775" lon="3.63319">
        <ele>696.4</ele>
        <time>2020-08-15T04:53:35Z</time>
      </trkpt>
      <trkpt lat="45.85797" lon="3.63448">
        <ele>702</ele>
        <time>2020-08-15T04:54:26Z</time>
      </trkpt>
      <trkpt lat="45.85727" lon="3.63536">
        <ele>707.3</ele>
        <time>2020-08-15T04:55:01Z</time>
      </trkpt>
      <trkpt lat="45.8562" lon="3.6356">
        <ele>709</ele>
        <time>2020-08-15T04:55:31Z</time>
      </trkpt>
      <trkpt lat="45.85527" lon="3.63507">
        <ele>709.4</ele>
        <time>2020-08-15T04:56:01Z</time>
      </trkpt>
      <trkpt lat="45.85433" lon="3.63517">
        <ele>710</ele>
        <time>2020-08-15T04:56:31Z</time>
      </trkpt>
      <trkpt lat="45.85332" lon="3.635">
        <ele>711.8</ele>
        <time>2020-08-15T04:57:20Z</time>
      </trkpt>
      <trkpt lat="45.85247" lon="3.63451">
        <ele>711.9</ele>
        <time>2020-08-15T04:57:45Z</time>
      </trkpt>
      <trkpt lat="45.85188" lon="3.63331">
        <ele>712.5</ele>
        <time>2020-08-15T04:58:15Z</time>
      </trkpt>
      <trkpt lat="45.85088" lon="3.63279">
        <ele>713</ele>
        <time>2020-08-15T04:58:39Z</time>
      </trkpt>
      <trkpt lat="45.85007" lon="3.63372">
        <ele>713.4</ele>
        <time>2020-08-15T04:59:09Z</time>
      </trkpt>
      <trkpt lat="45.84931" lon="3.63464">
        <ele>714.3</ele>
        <time>2020-08-15T04:59:39Z</time>
      </trkpt>
      <trkpt lat="45.84833" lon="3.63512">
        <ele>715.4</ele>
        <time>2020-08-15T05:00:09Z</time>
      </trkpt>
      <trkpt lat="45.8477" lon="3.63632">
        <ele>716.4</ele>
        <time>2020-08-15T05:00:39Z</time>
      </trkpt>
      <trkpt lat="45.84669" lon="3.63677">
        <ele>718.5</ele>
        <time>2020-08-15T05:01:09Z</time>
      </trkpt>
      <trkpt lat="45.84592" lon="3.63603">
        <ele>719.4</ele>
        <time>2020-08-15T05:01:34Z</time>
      </trkpt>
      <trkpt lat="45.84503" lon="3.63503">
        <ele>720.5</ele>
        <time>2020-08-15T05:02:09Z</time>
      </trkpt>
      <trkpt lat="45.84412" lon="3.6339">
        <ele>721.5</ele>
        <time>2020-08-15T05:02:29Z</time>
      </trkpt>
      <trkpt lat="45.8436" lon="3.635">
        <ele>722.1</ele>
        <time>2020-08-15T05:02:54Z</time>
      </trkpt>
      <trkpt lat="45.84279" lon="3.63557">
        <ele>728.4</ele>
        <time>2020-08-15T05:03:44Z</time>
      </trkpt>
      <trkpt lat="45.84186" lon="3.63558">
        <ele>733.1</ele>
        <time>2020-08-15T05:04:24Z</time>
      </trkpt>
      <trkpt lat="45.84094" lon="3.63526">
        <ele>736.5</ele>
        <time>2020-08-15T05:05:04Z</time>
      </trkpt>
      <trkpt lat="45.83993" lon="3.635">
        <ele>738.7</ele>
        <time>2020-08-15T05:05:39Z</time>
      </trkpt>
      <trkpt lat="45.839" lon="3.63507">
        <ele>740.3</ele>
        <time>2020-08-15T05:06:09Z</time>
      </trkpt>
      <trkpt lat="45.83808" lon="3.63503">
        <ele>742.6</ele>
        <time>2020-08-15T05:06:34Z</time>
      </trkpt>
      <trkpt lat="45.83726" lon="3.63583">
        <ele>743.6</ele>
        <time>2020-08-15T05:07:04Z</time>
      </trkpt>
      <trkpt lat="45.83644" lon="3.63638">
        <ele>745</ele>
        <time>2020-08-15T05:07:29Z</time>
      </trkpt>
      <trkpt lat="45.83537" lon="3.63645">
        <ele>744.8</ele>
        <time>2020-08-15T05:07:49Z</time>
      </trkpt>
      <trkpt lat="45.83438" lon="3.63685">
        <ele>744.5</ele>
        <time>2020-08-15T05:08:04Z</time>
      </trkpt>
      <trkpt lat="45.83338" lon="3.63716">
        <ele>743.9</ele>
        <time>2020-08-15T05:08:19Z</time>
      </trkpt>
      <trkpt lat="45.83236" lon="3.63622">
        <ele>742.5</ele>
        <time>2020-08-15T05:08:39Z</time>
      </trkpt>
      <trkpt lat="45.83198" lon="3.63491">
        <ele>740.9</ele>
        <time>2020-08-15T05:08:54Z</time>
      </trkpt>
      <trkpt lat="45.83149" lon="3.63346">
        <ele>738.4</ele>
        <time>2020-08-15T05:09:09Z</time>
      </trkpt>
      <trkpt lat="45.83055" lon="3.63226">
        <ele>735.8</ele>
        <time>2020-08-15T05:09:24Z</time>
      </trkpt>
      <trkpt lat="45.82969" lon="3.63162">
        <ele>735.1</ele>
        <time>2020-08-15T05:09:34Z</time>
      </trkpt>
      <trkpt lat="45.82878" lon="3.63187">
        <ele>733.6</ele>
        <time>2020-08-15T05:09:44Z</time>
      </trkpt>
      <trkpt lat="45.82779" lon="3.63196">
        <ele>729.6</ele>
        <time>2020-08-15T05:09:54Z</time>
      </trkpt>
      <trkpt lat="45.82686" lon="3.63169">
        <ele>724.6</ele>
        <time>2020-08-15T05:10:04Z</time>
      </trkpt>
      <trkpt lat="45.82617" lon="3.63068">
        <ele>719.8</ele>
        <time>2020-08-15T05:10:14Z</time>
      </trkpt>
      <trkpt lat="45.82554" lon="3.62955">
        <ele>716.3</ele>
        <time>2020-08-15T05:10:24Z</time>
      </trkpt>
      <trkpt lat="45.8246" lon="3.62913">
        <ele>711.9</ele>
        <time>2020-08-15T05:10:34Z</time>
      </trkpt>
      <trkpt lat="45.82347" lon="3.62994">
        <ele>701.8</ele>
        <time>2020-08-15T05:10:49Z</time>
      </trkpt>
      <trkpt lat="45.82231" lon="3.62932">
        <ele>697.1</ele>
        <time>2020-08-15T05:11:04Z</time>
      </trkpt>
      <trkpt lat="45.82268" lon="3.62812">
        <ele>694.1</ele>
        <time>2020-08-15T05:11:14Z</time>
      </trkpt>
      <trkpt lat="45.82348" lon="3.62698">
        <ele>679</ele>
        <time>2020-08-15T05:11:29Z</time>
      </trkpt>
      <trkpt lat="45.82336" lon="3.62559">
        <ele>666</ele>
        <time>2020-08-15T05:11:54Z</time>
      </trkpt>
      <trkpt lat="45.82226" lon="3.6248">
        <ele>658.5</ele>
        <time>2020-08-15T05:12:09Z</time>
      </trkpt>
      <trkpt lat="45.82131" lon="3.62369">
        <ele>651.8</ele>
        <time>2020-08-15T05:12:24Z</time>
      </trkpt>
      <trkpt lat="45.82049" lon="3.6231">
        <ele>648.6</ele>
        <time>2020-08-15T05:12:34Z</time>
      </trkpt>
      <trkpt lat="45.81972" lon="3.62207">
        <ele>641.8</ele>
        <time>2020-08-15T05:12:44Z</time>
      </trkpt>
      <trkpt lat="45.81882" lon="3.62156">
        <ele>635.4</ele>
        <time>2020-08-15T05:12:54Z</time>
      </trkpt>
      <trkpt lat="45.81792" lon="3.6208">
        <ele>632.8</ele>
        <time>2020-08-15T05:13:19Z</time>
      </trkpt>
      <trkpt lat="45.81687" lon="3.61969">
        <ele>623.2</ele>
        <time>2020-08-15T05:13:44Z</time>
      </trkpt>
      <trkpt lat="45.81615" lon="3.61805">
        <ele>619.4</ele>
        <time>2020-08-15T05:13:59Z</time>
      </trkpt>
      <trkpt lat="45.81567" lon="3.61688">
        <ele>617.5</ele>
        <time>2020-08-15T05:14:09Z</time>
      </trkpt>
      <trkpt lat="45.81508" lon="3.61582">
        <ele>616</ele>
        <time>2020-08-15T05:14:19Z</time>
      </trkpt>
      <trkpt lat="45.81425" lon="3.61496">
        <ele>611</ele>
        <time>2020-08-15T05:14:39Z</time>
      </trkpt>
      <trkpt lat="45.81368" lon="3.61381">
        <ele>604.9</ele>
        <time>2020-08-15T05:14:59Z</time>
      </trkpt>
      <trkpt lat="45.81275" lon="3.6129">
        <ele>601.6</ele>
        <time>2020-08-15T05:15:14Z</time>
      </trkpt>
      <trkpt lat="45.81157" lon="3.61183">
        <ele>599.4</ele>
        <time>2020-08-15T05:15:29Z</time>
      </trkpt>
      <trkpt lat="45.81069" lon="3.61083">
        <ele>595</ele>
        <time>2020-08-15T05:15:44Z</time>
      </trkpt>
      <trkpt lat="45.80991" lon="3.61008">
        <ele>589.2</ele>
        <time>2020-08-15T05:15:54Z</time>
      </trkpt>
      <trkpt lat="45.80877" lon="3.60978">
        <ele>579.8</ele>
        <time>2020-08-15T05:16:09Z</time>
      </trkpt>
      <trkpt lat="45.80792" lon="3.60889">
        <ele>574.6</ele>
        <time>2020-08-15T05:16:24Z</time>
      </trkpt>
      <trkpt lat="45.8071" lon="3.60817">
        <ele>572.9</ele>
        <time>2020-08-15T05:16:39Z</time>
      </trkpt>
      <trkpt lat="45.80629" lon="3.60755">
        <ele>572.4</ele>
        <time>2020-08-15T05:16:59Z</time>
      </trkpt>
      <trkpt lat="45.80526" lon="3.60713">
        <ele>566.9</ele>
        <time>2020-08-15T05:17:29Z</time>
      </trkpt>
      <trkpt lat="45.80429" lon="3.60704">
        <ele>563.9</ele>
        <time>2020-08-15T05:17:54Z</time>
      </trkpt>
      <trkpt lat="45.80344" lon="3.60624">
        <ele>562.8</ele>
        <time>2020-08-15T05:18:34Z</time>
      </trkpt>
      <trkpt lat="45.8026" lon="3.60675">
        <ele>564</ele>
        <time>2020-08-15T05:19:22Z</time>
      </trkpt>
      <trkpt lat="45.80174" lon="3.60733">
        <ele>566</ele>
        <time>2020-08-15T05:20:17Z</time>
      </trkpt>
      <trkpt lat="45.80077" lon="3.60709">
        <ele>568.1</ele>
        <time>2020-08-15T05:21:11Z</time>
      </trkpt>
      <trkpt lat="45.80068" lon="3.6084">
        <ele>574.1</ele>
        <time>2020-08-15T05:22:16Z</time>
      </trkpt>
      <trkpt lat="45.80034" lon="3.60974">
        <ele>576.8</ele>
        <time>2020-08-15T05:22:51Z</time>
      </trkpt>
      <trkpt lat="45.79959" lon="3.60884">
        <ele>580.2</ele>
        <time>2020-08-15T05:23:46Z</time>
      </trkpt>
      <trkpt lat="45.79881" lon="3.60806">
        <ele>583.2</ele>
        <time>2020-08-15T05:24:39Z</time>
      </trkpt>
      <trkpt lat="45.79786" lon="3.60776">
        <ele>586</ele>
        <time>2020-08-15T05:25:41Z</time>
      </trkpt>
      <trkpt lat="45.79695" lon="3.6071">
        <ele>588.4</ele>
        <time>2020-08-15T05:26:36Z</time>
      </trkpt>
      <trkpt lat="45.79595" lon="3.6071">
        <ele>590.5</ele>
        <time>2020-08-15T05:27:06Z</time>
      </trkpt>
      <trkpt lat="45.79484" lon="3.60721">
        <ele>592.8</ele>
        <time>2020-08-15T05:27:52Z</time>
      </trkpt>
      <trkpt lat="45.79376" lon="3.60639">
        <ele>592.9</ele>
        <time>2020-08-15T05:28:07Z</time>
      </trkpt>
      <trkpt lat="45.79261" lon="3.60576">
        <ele>593.4</ele>
        <time>2020-08-15T05:28:22Z</time>
      </trkpt>
      <trkpt lat="45.79169" lon="3.60543">
        <ele>594.4</ele>
        <time>2020-08-15T05:28:37Z</time>
      </trkpt>
      <trkpt lat="45.79064" lon="3.60557">
        <ele>594.2</ele>
        <time>2020-08-15T05:29:02Z</time>
      </trkpt>
      <trkpt lat="45.78962" lon="3.60534">
        <ele>594.5</ele>
        <time>2020-08-15T05:29:37Z</time>
      </trkpt>
      <trkpt lat="45.78865" lon="3.60493">
        <ele>596</ele>
        <time>2020-08-15T05:30:12Z</time>
      </trkpt>
      <trkpt lat="45.78734" lon="3.60459">
        <ele>596.8</ele>
        <time>2020-08-15T05:30:32Z</time>
      </trkpt>
      <trkpt lat="45.78681" lon="3.60316">
        <ele>595.9</ele>
        <time>2020-08-15T05:30:47Z</time>
      </trkpt>
      <trkpt lat="45.78647" lon="3.60158">
        <ele>595.7</ele>
        <time>2020-08-15T05:31:07Z</time>
      </trkpt>
      <trkpt lat="45.78621" lon="3.60029">
        <ele>597.9</ele>
        <time>2020-08-15T05:32:09Z</time>
      </trkpt>
      <trkpt lat="45.78517" lon="3.60052">
        <ele>593.2</ele>
        <time>2020-08-15T05:32:49Z</time>
      </trkpt>
      <trkpt lat="45.78402" lon="3.60048">
        <ele>589.3</ele>
        <time>2020-08-15T05:33:04Z</time>
      </trkpt>
      <trkpt lat="45.78323" lon="3.59947">
        <ele>582.2</ele>
        <time>2020-08-15T05:33:38Z</time>
      </trkpt>
      <trkpt lat="45.78196" lon="3.59898">
        <ele>574.6</ele>
        <time>2020-08-15T05:33:53Z</time>
      </trkpt>
      <trkpt lat="45.78074" lon="3.59825">
        <ele>570.8</ele>
        <time>2020-08-15T05:34:08Z</time>
      </trkpt>
      <trkpt lat="45.7794" lon="3.59836">
        <ele>563.8</ele>
        <time>2020-08-15T05:34:23Z</time>
      </trkpt>
      <trkpt lat="45.77858" lon="3.5974">
        <ele>557.2</ele>
        <time>2020-08-15T05:34:33Z</time>
      </trkpt>
      <trkpt lat="45.77745" lon="3.59713">
        <ele>551.2</ele>
        <time>2020-08-15T05:34:43Z</time>
      </trkpt>
      <trkpt lat="45.7764" lon="3.59719">
        <ele>545</ele>
        <time>2020-08-15T05:34:53Z</time>
      </trkpt>
      <trkpt lat="45.777" lon="3.59608">
        <ele>521</ele>
        <time>2020-08-15T05:35:47Z</time>
      </trkpt>
      <trkpt lat="45.77802" lon="3.59484">
        <ele>514.4</ele>
        <time>2020-08-15T05:36:02Z</time>
      </trkpt>
      <trkpt lat="45.77796" lon="3.59312">
        <ele>510.7</ele>
        <time>2020-08-15T05:36:17Z</time>
      </trkpt>
      <trkpt lat="45.77718" lon="3.59217">
        <ele>509.4</ele>
        <time>2020-08-15T05:36:54Z</time>
      </trkpt>
      <trkpt lat="45.77628" lon="3.59191">
        <ele>507.1</ele>
        <time>2020-08-15T05:37:14Z</time>
      </trkpt>
      <trkpt lat="45.77525" lon="3.59225">
        <ele>502.6</ele>
        <time>2020-08-15T05:37:34Z</time>
      </trkpt>
      <trkpt lat="45.77438" lon="3.5931">
        <ele>499.8</ele>
        <time>2020-08-15T05:37:54Z</time>
      </trkpt>
      <trkpt lat="45.7734" lon="3.59287">
        <ele>496.4</ele>
        <time>2020-08-15T05:38:19Z</time>
      </trkpt>
      <trkpt lat="45.77253" lon="3.59225">
        <ele>498.3</ele>
        <time>2020-08-15T05:38:44Z</time>
      </trkpt>
      <trkpt lat="45.77173" lon="3.59158">
        <ele>499</ele>
        <time>2020-08-15T05:39:09Z</time>
      </trkpt>
      <trkpt lat="45.77089" lon="3.59094">
        <ele>498.2</ele>
        <time>2020-08-15T05:39:34Z</time>
      </trkpt>
      <trkpt lat="45.77005" lon="3.5902">
        <ele>496.4</ele>
        <time>2020-08-15T05:39:59Z</time>
      </trkpt>
      <trkpt lat="45.76913" lon="3.58927">
        <ele>493.8</ele>
        <time>2020-08-15T05:40:24Z</time>
      </trkpt>
      <trkpt lat="45.76822" lon="3.58841">
        <ele>493.6</ele>
        <time>2020-08-15T05:40:49Z</time>
      </trkpt>
      <trkpt lat="45.7676" lon="3.58733">
        <ele>493.9</ele>
        <time>2020-08-15T05:41:19Z</time>
      </trkpt>
      <trkpt lat="45.76697" lon="3.58635">
        <ele>494.2</ele>
        <time>2020-08-15T05:41:54Z</time>
      </trkpt>
      <trkpt lat="45.76621" lon="3.58536">
        <ele>494</ele>
        <time>2020-08-15T05:42:39Z</time>
      </trkpt>
      <trkpt lat="45.76534" lon="3.58451">
        <ele>493.3</ele>
        <time>2020-08-15T05:43:09Z</time>
      </trkpt>
      <trkpt lat="45.76437" lon="3.58355">
        <ele>493.2</ele>
        <time>2020-08-15T05:43:29Z</time>
      </trkpt>
      <trkpt lat="45.76351" lon="3.58273">
        <ele>493.9</ele>
        <time>2020-08-15T05:43:49Z</time>
      </trkpt>
      <trkpt lat="45.76261" lon="3.58197">
        <ele>493.6</ele>
        <time>2020-08-15T05:44:24Z</time>
      </trkpt>
      <trkpt lat="45.76175" lon="3.58133">
        <ele>493.9</ele>
        <time>2020-08-15T05:44:59Z</time>
      </trkpt>
      <trkpt lat="45.76095" lon="3.58048">
        <ele>494.6</ele>
        <time>2020-08-15T05:45:29Z</time>
      </trkpt>
      <trkpt lat="45.76017" lon="3.57961">
        <ele>493.8</ele>
        <time>2020-08-15T05:45:49Z</time>
      </trkpt>
      <trkpt lat="45.75971" lon="3.57821">
        <ele>494.4</ele>
        <time>2020-08-15T05:46:14Z</time>
      </trkpt>
      <trkpt lat="45.75933" lon="3.57696">
        <ele>495.2</ele>
        <time>2020-08-15T05:46:54Z</time>
      </trkpt>
      <trkpt lat="45.75881" lon="3.57581">
        <ele>496.1</ele>
        <time>2020-08-15T05:47:29Z</time>
      </trkpt>
      <trkpt lat="45.75816" lon="3.57473">
        <ele>497.3</ele>
        <time>2020-08-15T05:48:04Z</time>
      </trkpt>
      <trkpt lat="45.75719" lon="3.57433">
        <ele>498.8</ele>
        <time>2020-08-15T05:48:39Z</time>
      </trkpt>
      <trkpt lat="45.75631" lon="3.57363">
        <ele>500.1</ele>
        <time>2020-08-15T05:49:09Z</time>
      </trkpt>
      <trkpt lat="45.75565" lon="3.57249">
        <ele>500.8</ele>
        <time>2020-08-15T05:49:44Z</time>
      </trkpt>
      <trkpt lat="45.75557" lon="3.57098">
        <ele>501.8</ele>
        <time>2020-08-15T05:50:09Z</time>
      </trkpt>
      <trkpt lat="45.75569" lon="3.5691">
        <ele>500.8</ele>
        <time>2020-08-15T05:50:24Z</time>
      </trkpt>
      <trkpt lat="45.75588" lon="3.56777">
        <ele>500.6</ele>
        <time>2020-08-15T05:50:34Z</time>
      </trkpt>
      <trkpt lat="45.75593" lon="3.56639">
        <ele>500</ele>
        <time>2020-08-15T05:50:44Z</time>
      </trkpt>
      <trkpt lat="45.75592" lon="3.56497">
        <ele>498.7</ele>
        <time>2020-08-15T05:50:54Z</time>
      </trkpt>
      <trkpt lat="45.75595" lon="3.56347">
        <ele>497</ele>
        <time>2020-08-15T05:51:04Z</time>
      </trkpt>
      <trkpt lat="45.75503" lon="3.56239">
        <ele>494.1</ele>
        <time>2020-08-15T05:51:19Z</time>
      </trkpt>
      <trkpt lat="45.75396" lon="3.56158">
        <ele>489.9</ele>
        <time>2020-08-15T05:51:34Z</time>
      </trkpt>
      <trkpt lat="45.75365" lon="3.56034">
        <ele>486</ele>
        <time>2020-08-15T05:51:44Z</time>
      </trkpt>
      <trkpt lat="45.75307" lon="3.55899">
        <ele>481.4</ele>
        <time>2020-08-15T05:51:54Z</time>
      </trkpt>
      <trkpt lat="45.75267" lon="3.55744">
        <ele>477.9</ele>
        <time>2020-08-15T05:52:04Z</time>
      </trkpt>
      <trkpt lat="45.75223" lon="3.55589">
        <ele>471.8</ele>
        <time>2020-08-15T05:52:14Z</time>
      </trkpt>
      <trkpt lat="45.75192" lon="3.55455">
        <ele>458.4</ele>
        <time>2020-08-15T05:52:24Z</time>
      </trkpt>
      <trkpt lat="45.75268" lon="3.5538">
        <ele>450.9</ele>
        <time>2020-08-15T05:52:34Z</time>
      </trkpt>
      <trkpt lat="45.75378" lon="3.55452">
        <ele>443.1</ele>
        <time>2020-08-15T05:52:49Z</time>
      </trkpt>
      <trkpt lat="45.75456" lon="3.55292">
        <ele>428.4</ele>
        <time>2020-08-15T05:53:04Z</time>
      </trkpt>
      <trkpt lat="45.75556" lon="3.55274">
        <ele>419.3</ele>
        <time>2020-08-15T05:53:14Z</time>
      </trkpt>
      <trkpt lat="45.75631" lon="3.55184">
        <ele>410.3</ele>
        <time>2020-08-15T05:53:24Z</time>
      </trkpt>
      <trkpt lat="45.75612" lon="3.55053">
        <ele>400.9</ele>
        <time>2020-08-15T05:53:39Z</time>
      </trkpt>
      <trkpt lat="45.75596" lon="3.5492">
        <ele>397.9</ele>
        <time>2020-08-15T05:53:54Z</time>
      </trkpt>
      <trkpt lat="45.75579" lon="3.54777">
        <ele>389.4</ele>
        <time>2020-08-15T05:55:07Z</time>
      </trkpt>
      <trkpt lat="45.75523" lon="3.54661">
        <ele>386.6</ele>
        <time>2020-08-15T05:55:44Z</time>
      </trkpt>
      <trkpt lat="45.75491" lon="3.54537">
        <ele>382.4</ele>
        <time>2020-08-15T05:56:48Z</time>
      </trkpt>
      <trkpt lat="45.75443" lon="3.54422">
        <ele>378.4</ele>
        <time>2020-08-15T05:57:18Z</time>
      </trkpt>
      <trkpt lat="45.75475" lon="3.54302">
        <ele>376.3</ele>
        <time>2020-08-15T05:58:03Z</time>
      </trkpt>
      <trkpt lat="45.75572" lon="3.54264">
        <ele>376.1</ele>
        <time>2020-08-15T05:58:33Z</time>
      </trkpt>
      <trkpt lat="45.7566" lon="3.54227">
        <ele>374.4</ele>
        <time>2020-08-15T05:59:04Z</time>
      </trkpt>
      <trkpt lat="45.75637" lon="3.54097">
        <ele>371.4</ele>
        <time>2020-08-15T06:16:23Z</time>
      </trkpt>
      <trkpt lat="45.75591" lon="3.53983">
        <ele>371</ele>
        <time>2020-08-15T06:16:58Z</time>
      </trkpt>
      <trkpt lat="45.75566" lon="3.53845">
        <ele>371.3</ele>
        <time>2020-08-15T06:17:50Z</time>
      </trkpt>
      <trkpt lat="45.7556" lon="3.53713">
        <ele>372</ele>
        <time>2020-08-15T06:18:25Z</time>
      </trkpt>
      <trkpt lat="45.75477" lon="3.53638">
        <ele>372.6</ele>
        <time>2020-08-15T06:19:00Z</time>
      </trkpt>
      <trkpt lat="45.75397" lon="3.53557">
        <ele>373.3</ele>
        <time>2020-08-15T06:19:40Z</time>
      </trkpt>
      <trkpt lat="45.75345" lon="3.53438">
        <ele>374.1</ele>
        <time>2020-08-15T06:20:27Z</time>
      </trkpt>
      <trkpt lat="45.75284" lon="3.5332">
        <ele>374.7</ele>
        <time>2020-08-15T06:20:57Z</time>
      </trkpt>
      <trkpt lat="45.75218" lon="3.53204">
        <ele>375.2</ele>
        <time>2020-08-15T06:21:26Z</time>
      </trkpt>
      <trkpt lat="45.75131" lon="3.53122">
        <ele>375.7</ele>
        <time>2020-08-15T06:21:56Z</time>
      </trkpt>
      <trkpt lat="45.75033" lon="3.53087">
        <ele>376.9</ele>
        <time>2020-08-15T06:22:21Z</time>
      </trkpt>
      <trkpt lat="45.74922" lon="3.53115">
        <ele>377.1</ele>
        <time>2020-08-15T06:22:41Z</time>
      </trkpt>
      <trkpt lat="45.7482" lon="3.53054">
        <ele>377.4</ele>
        <time>2020-08-15T06:23:01Z</time>
      </trkpt>
      <trkpt lat="45.7476" lon="3.52946">
        <ele>377.6</ele>
        <time>2020-08-15T06:23:21Z</time>
      </trkpt>
      <trkpt lat="45.74683" lon="3.52866">
        <ele>378.2</ele>
        <time>2020-08-15T06:23:46Z</time>
      </trkpt>
      <trkpt lat="45.74589" lon="3.52812">
        <ele>379</ele>
        <time>2020-08-15T06:24:21Z</time>
      </trkpt>
      <trkpt lat="45.74494" lon="3.52773">
        <ele>380.6</ele>
        <time>2020-08-15T06:25:01Z</time>
      </trkpt>
      <trkpt lat="45.74402" lon="3.52716">
        <ele>383.8</ele>
        <time>2020-08-15T06:25:46Z</time>
      </trkpt>
      <trkpt lat="45.74311" lon="3.52719">
        <ele>387</ele>
        <time>2020-08-15T06:26:31Z</time>
      </trkpt>
      <trkpt lat="45.74229" lon="3.52657">
        <ele>389.6</ele>
        <time>2020-08-15T06:27:16Z</time>
      </trkpt>
      <trkpt lat="45.74136" lon="3.52668">
        <ele>391.4</ele>
        <time>2020-08-15T06:27:51Z</time>
      </trkpt>
      <trkpt lat="45.74034" lon="3.52651">
        <ele>393.3</ele>
        <time>2020-08-15T06:28:26Z</time>
      </trkpt>
      <trkpt lat="45.73958" lon="3.52551">
        <ele>395</ele>
        <time>2020-08-15T06:29:01Z</time>
      </trkpt>
      <trkpt lat="45.73856" lon="3.52545">
        <ele>397.5</ele>
        <time>2020-08-15T06:29:36Z</time>
      </trkpt>
      <trkpt lat="45.73761" lon="3.52541">
        <ele>402.3</ele>
        <time>2020-08-15T06:30:11Z</time>
      </trkpt>
      <trkpt lat="45.73684" lon="3.5244">
        <ele>406.7</ele>
        <time>2020-08-15T06:30:46Z</time>
      </trkpt>
      <trkpt lat="45.73609" lon="3.52359">
        <ele>409.4</ele>
        <time>2020-08-15T06:31:16Z</time>
      </trkpt>
      <trkpt lat="45.73522" lon="3.52289">
        <ele>411.6</ele>
        <time>2020-08-15T06:31:46Z</time>
      </trkpt>
      <trkpt lat="45.73432" lon="3.5223">
        <ele>413.3</ele>
        <time>2020-08-15T06:32:16Z</time>
      </trkpt>
      <trkpt lat="45.73348" lon="3.52147">
        <ele>415</ele>
        <time>2020-08-15T06:32:51Z</time>
      </trkpt>
      <trkpt lat="45.73247" lon="3.52109">
        <ele>416.2</ele>
        <time>2020-08-15T06:33:21Z</time>
      </trkpt>
      <trkpt lat="45.73174" lon="3.52019">
        <ele>417.5</ele>
        <time>2020-08-15T06:33:51Z</time>
      </trkpt>
      <trkpt lat="45.73104" lon="3.51906">
        <ele>418.7</ele>
        <time>2020-08-15T06:34:21Z</time>
      </trkpt>
      <trkpt lat="45.73046" lon="3.51778">
        <ele>420.3</ele>
        <time>2020-08-15T06:34:56Z</time>
      </trkpt>
      <trkpt lat="45.72975" lon="3.51668">
        <ele>421.7</ele>
        <time>2020-08-15T06:35:31Z</time>
      </trkpt>
      <trkpt lat="45.72897" lon="3.51567">
        <ele>422.8</ele>
        <time>2020-08-15T06:36:01Z</time>
      </trkpt>
      <trkpt lat="45.72834" lon="3.51457">
        <ele>424</ele>
        <time>2020-08-15T06:36:31Z</time>
      </trkpt>
      <trkpt lat="45.72752" lon="3.51388">
        <ele>425.5</ele>
        <time>2020-08-15T06:37:06Z</time>
      </trkpt>
      <trkpt lat="45.72698" lon="3.5128">
        <ele>427.4</ele>
        <time>2020-08-15T06:37:46Z</time>
      </trkpt>
      <trkpt lat="45.72658" lon="3.51145">
        <ele>428.9</ele>
        <time>2020-08-15T06:38:21Z</time>
      </trkpt>
      <trkpt lat="45.72646" lon="3.50996">
        <ele>431.6</ele>
        <time>2020-08-15T06:38:51Z</time>
      </trkpt>
      <trkpt lat="45.72601" lon="3.50858">
        <ele>431.6</ele>
        <time>2020-08-15T06:39:16Z</time>
      </trkpt>
      <trkpt lat="45.72577" lon="3.50722">
        <ele>432.1</ele>
        <time>2020-08-15T06:39:36Z</time>
      </trkpt>
      <trkpt lat="45.72536" lon="3.50599">
        <ele>432.5</ele>
        <time>2020-08-15T06:40:16Z</time>
      </trkpt>
      <trkpt lat="45.72539" lon="3.50464">
        <ele>435.2</ele>
        <time>2020-08-15T06:41:19Z</time>
      </trkpt>
      <trkpt lat="45.72519" lon="3.50334">
        <ele>437.5</ele>
        <time>2020-08-15T06:42:09Z</time>
      </trkpt>
      <trkpt lat="45.72456" lon="3.50218">
        <ele>439.8</ele>
        <time>2020-08-15T06:42:54Z</time>
      </trkpt>
      <trkpt lat="45.72366" lon="3.5021">
        <ele>442.1</ele>
        <time>2020-08-15T06:43:34Z</time>
      </trkpt>
      <trkpt lat="45.72298" lon="3.5012">
        <ele>447.4</ele>
        <time>2020-08-15T06:44:35Z</time>
      </trkpt>
      <trkpt lat="45.72206" lon="3.50146">
        <ele>455.7</ele>
        <time>2020-08-15T06:45:21Z</time>
      </trkpt>
      <trkpt lat="45.72106" lon="3.50133">
        <ele>472.2</ele>
        <time>2020-08-15T06:46:17Z</time>
      </trkpt>
      <trkpt lat="45.72007" lon="3.50148">
        <ele>479.1</ele>
        <time>2020-08-15T06:46:57Z</time>
      </trkpt>
      <trkpt lat="45.71911" lon="3.5015">
        <ele>484.6</ele>
        <time>2020-08-15T06:47:42Z</time>
      </trkpt>
      <trkpt lat="45.71817" lon="3.50139">
        <ele>489.5</ele>
        <time>2020-08-15T06:48:29Z</time>
      </trkpt>
      <trkpt lat="45.71754" lon="3.50025">
        <ele>495.1</ele>
        <time>2020-08-15T06:49:21Z</time>
      </trkpt>
      <trkpt lat="45.71666" lon="3.49991">
        <ele>499.3</ele>
        <time>2020-08-15T06:50:11Z</time>
      </trkpt>
      <trkpt lat="45.71584" lon="3.49922">
        <ele>502.8</ele>
        <time>2020-08-15T06:50:58Z</time>
      </trkpt>
      <trkpt lat="45.71485" lon="3.49909">
        <ele>505.9</ele>
        <time>2020-08-15T06:51:43Z</time>
      </trkpt>
      <trkpt lat="45.71391" lon="3.49862">
        <ele>508.1</ele>
        <time>2020-08-15T06:52:28Z</time>
      </trkpt>
      <trkpt lat="45.71293" lon="3.49848">
        <ele>509.9</ele>
        <time>2020-08-15T06:53:13Z</time>
      </trkpt>
      <trkpt lat="45.71197" lon="3.49806">
        <ele>511.4</ele>
        <time>2020-08-15T06:53:58Z</time>
      </trkpt>
      <trkpt lat="45.71105" lon="3.49816">
        <ele>512.8</ele>
        <time>2020-08-15T06:54:38Z</time>
      </trkpt>
      <trkpt lat="45.71041" lon="3.49923">
        <ele>514.5</ele>
        <time>2020-08-15T06:55:18Z</time>
      </trkpt>
      <trkpt lat="45.70952" lon="3.49984">
        <ele>516.9</ele>
        <time>2020-08-15T06:55:48Z</time>
      </trkpt>
      <trkpt lat="45.70851" lon="3.49991">
        <ele>517.5</ele>
        <time>2020-08-15T06:56:23Z</time>
      </trkpt>
      <trkpt lat="45.70761" lon="3.50017">
        <ele>518.4</ele>
        <time>2020-08-15T06:57:03Z</time>
      </trkpt>
      <trkpt lat="45.7067" lon="3.50024">
        <ele>519.2</ele>
        <time>2020-08-15T06:57:33Z</time>
      </trkpt>
      <trkpt lat="45.70586" lon="3.49932">
        <ele>520.1</ele>
        <time>2020-08-15T06:58:03Z</time>
      </trkpt>
      <trkpt lat="45.705" lon="3.49877">
        <ele>522.4</ele>
        <time>2020-08-15T06:58:28Z</time>
      </trkpt>
      <trkpt lat="45.70401" lon="3.49821">
        <ele>523.4</ele>
        <time>2020-08-15T06:58:53Z</time>
      </trkpt>
      <trkpt lat="45.70311" lon="3.49769">
        <ele>524.3</ele>
        <time>2020-08-15T06:59:18Z</time>
      </trkpt>
      <trkpt lat="45.70242" lon="3.49676">
        <ele>525</ele>
        <time>2020-08-15T06:59:43Z</time>
      </trkpt>
      <trkpt lat="45.70171" lon="3.49573">
        <ele>525.7</ele>
        <time>2020-08-15T07:00:18Z</time>
      </trkpt>
      <trkpt lat="45.70082" lon="3.49512">
        <ele>528</ele>
        <time>2020-08-15T07:00:48Z</time>
      </trkpt>
      <trkpt lat="45.69963" lon="3.49492">
        <ele>528.8</ele>
        <time>2020-08-15T07:01:08Z</time>
      </trkpt>
      <trkpt lat="45.69868" lon="3.49452">
        <ele>528.9</ele>
        <time>2020-08-15T07:01:23Z</time>
      </trkpt>
      <trkpt lat="45.69773" lon="3.49428">
        <ele>528.7</ele>
        <time>2020-08-15T07:01:38Z</time>
      </trkpt>
      <trkpt lat="45.69676" lon="3.49399">
        <ele>529.2</ele>
        <time>2020-08-15T07:01:53Z</time>
      </trkpt>
      <trkpt lat="45.69576" lon="3.49394">
        <ele>532.1</ele>
        <time>2020-08-15T07:02:08Z</time>
      </trkpt>
      <trkpt lat="45.69474" lon="3.49358">
        <ele>532.4</ele>
        <time>2020-08-15T07:02:23Z</time>
      </trkpt>
      <trkpt lat="45.69369" lon="3.49279">
        <ele>529.7</ele>
        <time>2020-08-15T07:02:38Z</time>
      </trkpt>
      <trkpt lat="45.69264" lon="3.49244">
        <ele>526.6</ele>
        <time>2020-08-15T07:02:53Z</time>
      </trkpt>
      <trkpt lat="45.6915" lon="3.49199">
        <ele>519.6</ele>
        <time>2020-08-15T07:03:08Z</time>
      </trkpt>
      <trkpt lat="45.69047" lon="3.49186">
        <ele>516.9</ele>
        <time>2020-08-15T07:03:23Z</time>
      </trkpt>
      <trkpt lat="45.68941" lon="3.49254">
        <ele>515.1</ele>
        <time>2020-08-15T07:03:38Z</time>
      </trkpt>
      <trkpt lat="45.68861" lon="3.49327">
        <ele>513.8</ele>
        <time>2020-08-15T07:03:58Z</time>
      </trkpt>
      <trkpt lat="45.68749" lon="3.49342">
        <ele>511</ele>
        <time>2020-08-15T07:04:18Z</time>
      </trkpt>
      <trkpt lat="45.6866" lon="3.49247">
        <ele>506</ele>
        <time>2020-08-15T07:04:33Z</time>
      </trkpt>
      <trkpt lat="45.68704" lon="3.49089">
        <ele>500.5</ele>
        <time>2020-08-15T07:04:48Z</time>
      </trkpt>
      <trkpt lat="45.68645" lon="3.48934">
        <ele>497</ele>
        <time>2020-08-15T07:05:03Z</time>
      </trkpt>
      <trkpt lat="45.68586" lon="3.4883">
        <ele>495</ele>
        <time>2020-08-15T07:05:18Z</time>
      </trkpt>
      <trkpt lat="45.68514" lon="3.487">
        <ele>491.3</ele>
        <time>2020-08-15T07:05:38Z</time>
      </trkpt>
      <trkpt lat="45.68438" lon="3.4859">
        <ele>490.2</ele>
        <time>2020-08-15T07:05:58Z</time>
      </trkpt>
      <trkpt lat="45.68356" lon="3.48503">
        <ele>490.7</ele>
        <time>2020-08-15T07:06:38Z</time>
      </trkpt>
      <trkpt lat="45.68259" lon="3.4846">
        <ele>490.9</ele>
        <time>2020-08-15T07:07:28Z</time>
      </trkpt>
      <trkpt lat="45.68162" lon="3.48455">
        <ele>491.4</ele>
        <time>2020-08-15T07:08:13Z</time>
      </trkpt>
      <trkpt lat="45.68065" lon="3.48467">
        <ele>491.8</ele>
        <time>2020-08-15T07:08:53Z</time>
      </trkpt>
      <trkpt lat="45.67964" lon="3.48415">
        <ele>492.8</ele>
        <time>2020-08-15T07:09:28Z</time>
      </trkpt>
      <trkpt lat="45.67853" lon="3.48396">
        <ele>491.9</ele>
        <time>2020-08-15T07:09:53Z</time>
      </trkpt>
      <trkpt lat="45.67754" lon="3.48344">
        <ele>492.5</ele>
        <time>2020-08-15T07:10:18Z</time>
      </trkpt>
      <trkpt lat="45.67661" lon="3.48268">
        <ele>494.3</ele>
        <time>2020-08-15T07:10:53Z</time>
      </trkpt>
      <trkpt lat="45.67614" lon="3.48135">
        <ele>494.5</ele>
        <time>2020-08-15T07:11:23Z</time>
      </trkpt>
      <trkpt lat="45.67508" lon="3.48191">
        <ele>495.9</ele>
        <time>2020-08-15T07:11:59Z</time>
      </trkpt>
      <trkpt lat="45.6745" lon="3.48307">
        <ele>495.8</ele>
        <time>2020-08-15T07:12:19Z</time>
      </trkpt>
      <trkpt lat="45.67483" lon="3.48436">
        <ele>497.8</ele>
        <time>2020-08-15T07:13:37Z</time>
      </trkpt>
      <trkpt lat="45.67393" lon="3.48466">
        <ele>501.3</ele>
        <time>2020-08-15T07:14:48Z</time>
      </trkpt>
      <trkpt lat="45.67296" lon="3.48446">
        <ele>506.4</ele>
        <time>2020-08-15T07:15:50Z</time>
      </trkpt>
      <trkpt lat="45.67205" lon="3.48446">
        <ele>513.2</ele>
        <time>2020-08-15T07:16:53Z</time>
      </trkpt>
      <trkpt lat="45.67115" lon="3.48474">
        <ele>519</ele>
        <time>2020-08-15T07:17:55Z</time>
      </trkpt>
      <trkpt lat="45.67019" lon="3.48491">
        <ele>523.4</ele>
        <time>2020-08-15T07:19:00Z</time>
      </trkpt>
      <trkpt lat="45.66927" lon="3.4852">
        <ele>527.6</ele>
        <time>2020-08-15T07:20:08Z</time>
      </trkpt>
      <trkpt lat="45.66835" lon="3.48542">
        <ele>531.4</ele>
        <time>2020-08-15T07:20:59Z</time>
      </trkpt>
      <trkpt lat="45.6674" lon="3.4855">
        <ele>535.5</ele>
        <time>2020-08-15T07:21:56Z</time>
      </trkpt>
      <trkpt lat="45.66721" lon="3.48677">
        <ele>543.4</ele>
        <time>2020-08-15T07:23:37Z</time>
      </trkpt>
      <trkpt lat="45.66781" lon="3.48789">
        <ele>549.2</ele>
        <time>2020-08-15T07:24:32Z</time>
      </trkpt>
      <trkpt lat="45.66755" lon="3.48912">
        <ele>555.4</ele>
        <time>2020-08-15T07:25:17Z</time>
      </trkpt>
      <trkpt lat="45.66711" lon="3.49028">
        <ele>582.2</ele>
        <time>2020-08-15T07:37:14Z</time>
      </trkpt>
      <trkpt lat="45.66627" lon="3.49143">
        <ele>582.6</ele>
        <time>2020-08-15T07:37:34Z</time>
      </trkpt>
      <trkpt lat="45.6654" lon="3.49254">
        <ele>582.5</ele>
        <time>2020-08-15T07:37:54Z</time>
      </trkpt>
      <trkpt lat="45.66442" lon="3.4933">
        <ele>581.3</ele>
        <time>2020-08-15T07:38:09Z</time>
      </trkpt>
      <trkpt lat="45.66321" lon="3.49396">
        <ele>579.4</ele>
        <time>2020-08-15T07:38:24Z</time>
      </trkpt>
      <trkpt lat="45.66256" lon="3.49507">
        <ele>577.4</ele>
        <time>2020-08-15T07:38:34Z</time>
      </trkpt>
      <trkpt lat="45.66145" lon="3.49544">
        <ele>576.7</ele>
        <time>2020-08-15T07:38:49Z</time>
      </trkpt>
      <trkpt lat="45.66053" lon="3.49552">
        <ele>574</ele>
        <time>2020-08-15T07:39:09Z</time>
      </trkpt>
      <trkpt lat="45.65955" lon="3.49534">
        <ele>572.1</ele>
        <time>2020-08-15T07:39:57Z</time>
      </trkpt>
      <trkpt lat="45.65859" lon="3.49513">
        <ele>573.3</ele>
        <time>2020-08-15T07:40:58Z</time>
      </trkpt>
      <trkpt lat="45.65768" lon="3.49489">
        <ele>575.3</ele>
        <time>2020-08-15T07:41:54Z</time>
      </trkpt>
      <trkpt lat="45.65674" lon="3.49467">
        <ele>578.1</ele>
        <time>2020-08-15T07:42:53Z</time>
      </trkpt>
      <trkpt lat="45.65575" lon="3.49448">
        <ele>581.6</ele>
        <time>2020-08-15T07:43:54Z</time>
      </trkpt>
      <trkpt lat="45.65478" lon="3.49472">
        <ele>586</ele>
        <time>2020-08-15T07:44:55Z</time>
      </trkpt>
      <trkpt lat="45.65402" lon="3.49545">
        <ele>589.5</ele>
        <time>2020-08-15T07:45:48Z</time>
      </trkpt>
      <trkpt lat="45.65333" lon="3.49625">
        <ele>593.3</ele>
        <time>2020-08-15T07:46:42Z</time>
      </trkpt>
      <trkpt lat="45.65249" lon="3.49673">
        <ele>596.9</ele>
        <time>2020-08-15T07:47:37Z</time>
      </trkpt>
      <trkpt lat="45.65158" lon="3.49713">
        <ele>601.2</ele>
        <time>2020-08-15T07:48:42Z</time>
      </trkpt>
      <trkpt lat="45.65082" lon="3.49798">
        <ele>605.5</ele>
        <time>2020-08-15T07:49:48Z</time>
      </trkpt>
      <trkpt lat="45.65016" lon="3.49885">
        <ele>608.7</ele>
        <time>2020-08-15T07:50:42Z</time>
      </trkpt>
      <trkpt lat="45.64945" lon="3.4998">
        <ele>612</ele>
        <time>2020-08-15T07:51:43Z</time>
      </trkpt>
      <trkpt lat="45.64861" lon="3.50047">
        <ele>614.8</ele>
        <time>2020-08-15T07:52:32Z</time>
      </trkpt>
      <trkpt lat="45.64763" lon="3.50013">
        <ele>620.4</ele>
        <time>2020-08-15T07:53:29Z</time>
      </trkpt>
      <trkpt lat="45.64667" lon="3.50023">
        <ele>631.8</ele>
        <time>2020-08-15T07:54:32Z</time>
      </trkpt>
      <trkpt lat="45.64598" lon="3.50121">
        <ele>645.2</ele>
        <time>2020-08-15T07:55:37Z</time>
      </trkpt>
      <trkpt lat="45.6452" lon="3.50202">
        <ele>656.4</ele>
        <time>2020-08-15T07:56:37Z</time>
      </trkpt>
      <trkpt lat="45.64432" lon="3.50241">
        <ele>665.5</ele>
        <time>2020-08-15T07:57:31Z</time>
      </trkpt>
      <trkpt lat="45.64333" lon="3.50226">
        <ele>675.9</ele>
        <time>2020-08-15T07:58:39Z</time>
      </trkpt>
      <trkpt lat="45.64237" lon="3.50243">
        <ele>683.5</ele>
        <time>2020-08-15T07:59:42Z</time>
      </trkpt>
      <trkpt lat="45.64144" lon="3.50265">
        <ele>689.3</ele>
        <time>2020-08-15T08:00:40Z</time>
      </trkpt>
      <trkpt lat="45.64082" lon="3.50363">
        <ele>694.8</ele>
        <time>2020-08-15T08:01:42Z</time>
      </trkpt>
      <trkpt lat="45.64114" lon="3.50495">
        <ele>701</ele>
        <time>2020-08-15T08:02:45Z</time>
      </trkpt>
      <trkpt lat="45.64137" lon="3.50633">
        <ele>709.1</ele>
        <time>2020-08-15T08:03:47Z</time>
      </trkpt>
      <trkpt lat="45.64122" lon="3.50767">
        <ele>718</ele>
        <time>2020-08-15T08:04:52Z</time>
      </trkpt>
      <trkpt lat="45.64036" lon="3.5082">
        <ele>725.5</ele>
        <time>2020-08-15T08:05:57Z</time>
      </trkpt>
      <trkpt lat="45.63966" lon="3.50917">
        <ele>731.6</ele>
        <time>2020-08-15T08:07:07Z</time>
      </trkpt>
      <trkpt lat="45.63974" lon="3.51056">
        <ele>735.5</ele>
        <time>2020-08-15T08:08:04Z</time>
      </trkpt>
      <trkpt lat="45.64012" lon="3.51184">
        <ele>737.8</ele>
        <time>2020-08-15T08:08:44Z</time>
      </trkpt>
      <trkpt lat="45.64053" lon="3.51313">
        <ele>740.1</ele>
        <time>2020-08-15T08:09:32Z</time>
      </trkpt>
      <trkpt lat="45.64114" lon="3.51434">
        <ele>743.6</ele>
        <time>2020-08-15T08:10:25Z</time>
      </trkpt>
      <trkpt lat="45.64172" lon="3.51557">
        <ele>746.3</ele>
        <time>2020-08-15T08:10:50Z</time>
      </trkpt>
      <trkpt lat="45.6419" lon="3.51694">
        <ele>747.7</ele>
        <time>2020-08-15T08:11:43Z</time>
      </trkpt>
      <trkpt lat="45.64143" lon="3.51803">
        <ele>754.6</ele>
        <time>2020-08-15T08:12:49Z</time>
      </trkpt>
      <trkpt lat="45.64054" lon="3.51853">
        <ele>768</ele>
        <time>2020-08-15T08:13:57Z</time>
      </trkpt>
      <trkpt lat="45.63964" lon="3.51901">
        <ele>776.4</ele>
        <time>2020-08-15T08:15:02Z</time>
      </trkpt>
      <trkpt lat="45.63878" lon="3.51951">
        <ele>781.6</ele>
        <time>2020-08-15T08:15:56Z</time>
      </trkpt>
      <trkpt lat="45.63795" lon="3.51998">
        <ele>785.2</ele>
        <time>2020-08-15T08:16:50Z</time>
      </trkpt>
      <trkpt lat="45.63709" lon="3.52047">
        <ele>787.8</ele>
        <time>2020-08-15T08:17:38Z</time>
      </trkpt>
      <trkpt lat="45.63623" lon="3.52089">
        <ele>789.6</ele>
        <time>2020-08-15T08:18:18Z</time>
      </trkpt>
      <trkpt lat="45.63539" lon="3.5213">
        <ele>791</ele>
        <time>2020-08-15T08:18:58Z</time>
      </trkpt>
      <trkpt lat="45.63456" lon="3.52181">
        <ele>792.8</ele>
        <time>2020-08-15T08:19:48Z</time>
      </trkpt>
      <trkpt lat="45.6337" lon="3.52241">
        <ele>795.1</ele>
        <time>2020-08-15T08:20:47Z</time>
      </trkpt>
      <trkpt lat="45.63278" lon="3.52308">
        <ele>797.4</ele>
        <time>2020-08-15T08:21:22Z</time>
      </trkpt>
      <trkpt lat="45.63187" lon="3.52374">
        <ele>799.4</ele>
        <time>2020-08-15T08:21:47Z</time>
      </trkpt>
      <trkpt lat="45.63106" lon="3.5243">
        <ele>800</ele>
        <time>2020-08-15T08:22:24Z</time>
      </trkpt>
      <trkpt lat="45.63019" lon="3.52496">
        <ele>802.5</ele>
        <time>2020-08-15T08:23:12Z</time>
      </trkpt>
      <trkpt lat="45.62931" lon="3.52558">
        <ele>805.1</ele>
        <time>2020-08-15T08:23:47Z</time>
      </trkpt>
      <trkpt lat="45.62842" lon="3.52629">
        <ele>809.4</ele>
        <time>2020-08-15T08:24:17Z</time>
      </trkpt>
      <trkpt lat="45.62759" lon="3.52687">
        <ele>817.8</ele>
        <time>2020-08-15T08:24:42Z</time>
      </trkpt>
      <trkpt lat="45.62679" lon="3.52743">
        <ele>819.5</ele>
        <time>2020-08-15T08:25:07Z</time>
      </trkpt>
      <trkpt lat="45.62596" lon="3.52798">
        <ele>820.9</ele>
        <time>2020-08-15T08:25:32Z</time>
      </trkpt>
      <trkpt lat="45.62506" lon="3.52865">
        <ele>822.4</ele>
        <time>2020-08-15T08:26:02Z</time>
      </trkpt>
      <trkpt lat="45.62412" lon="3.52932">
        <ele>824.3</ele>
        <time>2020-08-15T08:26:27Z</time>
      </trkpt>
      <trkpt lat="45.62329" lon="3.52991">
        <ele>824.5</ele>
        <time>2020-08-15T08:26:42Z</time>
      </trkpt>
      <trkpt lat="45.6223" lon="3.53065">
        <ele>824.4</ele>
        <time>2020-08-15T08:26:57Z</time>
      </trkpt>
      <trkpt lat="45.62137" lon="3.5313">
        <ele>824.2</ele>
        <time>2020-08-15T08:27:12Z</time>
      </trkpt>
      <trkpt lat="45.62056" lon="3.53188">
        <ele>825</ele>
        <time>2020-08-15T08:27:37Z</time>
      </trkpt>
      <trkpt lat="45.61971" lon="3.53247">
        <ele>825.6</ele>
        <time>2020-08-15T08:28:22Z</time>
      </trkpt>
      <trkpt lat="45.61889" lon="3.53308">
        <ele>827.1</ele>
        <time>2020-08-15T08:29:07Z</time>
      </trkpt>
      <trkpt lat="45.61808" lon="3.53362">
        <ele>829.6</ele>
        <time>2020-08-15T08:29:42Z</time>
      </trkpt>
      <trkpt lat="45.6172" lon="3.53416">
        <ele>834.6</ele>
        <time>2020-08-15T08:30:31Z</time>
      </trkpt>
      <trkpt lat="45.61622" lon="3.53393">
        <ele>842.8</ele>
        <time>2020-08-15T08:31:32Z</time>
      </trkpt>
      <trkpt lat="45.61531" lon="3.53425">
        <ele>850.2</ele>
        <time>2020-08-15T08:32:29Z</time>
      </trkpt>
      <trkpt lat="45.61468" lon="3.53532">
        <ele>853.9</ele>
        <time>2020-08-15T08:33:09Z</time>
      </trkpt>
      <trkpt lat="45.61413" lon="3.53638">
        <ele>855.7</ele>
        <time>2020-08-15T08:33:39Z</time>
      </trkpt>
      <trkpt lat="45.61362" lon="3.53741">
        <ele>856.8</ele>
        <time>2020-08-15T08:34:09Z</time>
      </trkpt>
      <trkpt lat="45.6131" lon="3.53843">
        <ele>857.9</ele>
        <time>2020-08-15T08:34:44Z</time>
      </trkpt>
      <trkpt lat="45.6126" lon="3.5395">
        <ele>860.8</ele>
        <time>2020-08-15T08:35:38Z</time>
      </trkpt>
      <trkpt lat="45.61206" lon="3.54061">
        <ele>863.7</ele>
        <time>2020-08-15T08:36:28Z</time>
      </trkpt>
      <trkpt lat="45.61149" lon="3.54174">
        <ele>865.4</ele>
        <time>2020-08-15T08:36:58Z</time>
      </trkpt>
      <trkpt lat="45.61091" lon="3.54288">
        <ele>867.2</ele>
        <time>2020-08-15T08:37:33Z</time>
      </trkpt>
      <trkpt lat="45.61038" lon="3.54396">
        <ele>868.7</ele>
        <time>2020-08-15T08:38:08Z</time>
      </trkpt>
      <trkpt lat="45.60995" lon="3.54518">
        <ele>870.7</ele>
        <time>2020-08-15T08:38:55Z</time>
      </trkpt>
      <trkpt lat="45.60971" lon="3.54641">
        <ele>873</ele>
        <time>2020-08-15T08:39:45Z</time>
      </trkpt>
      <trkpt lat="45.60934" lon="3.54757">
        <ele>875.7</ele>
        <time>2020-08-15T08:40:37Z</time>
      </trkpt>
      <trkpt lat="45.60879" lon="3.5486">
        <ele>878</ele>
        <time>2020-08-15T08:41:23Z</time>
      </trkpt>
      <trkpt lat="45.60821" lon="3.54955">
        <ele>880.1</ele>
        <time>2020-08-15T08:42:04Z</time>
      </trkpt>
      <trkpt lat="45.60761" lon="3.55061">
        <ele>882.4</ele>
        <time>2020-08-15T08:42:49Z</time>
      </trkpt>
      <trkpt lat="45.60698" lon="3.55175">
        <ele>885.6</ele>
        <time>2020-08-15T08:43:19Z</time>
      </trkpt>
      <trkpt lat="45.60625" lon="3.55269">
        <ele>886.9</ele>
        <time>2020-08-15T08:43:44Z</time>
      </trkpt>
      <trkpt lat="45.60552" lon="3.55369">
        <ele>887.8</ele>
        <time>2020-08-15T08:44:19Z</time>
      </trkpt>
      <trkpt lat="45.60485" lon="3.55479">
        <ele>890.4</ele>
        <time>2020-08-15T08:44:50Z</time>
      </trkpt>
      <trkpt lat="45.60433" lon="3.55611">
        <ele>892.5</ele>
        <time>2020-08-15T08:45:15Z</time>
      </trkpt>
      <trkpt lat="45.60361" lon="3.55731">
        <ele>892.7</ele>
        <time>2020-08-15T08:45:30Z</time>
      </trkpt>
      <trkpt lat="45.60271" lon="3.55761">
        <ele>892.1</ele>
        <time>2020-08-15T08:45:40Z</time>
      </trkpt>
      <trkpt lat="45.60184" lon="3.55824">
        <ele>891.5</ele>
        <time>2020-08-15T08:45:50Z</time>
      </trkpt>
      <trkpt lat="45.60097" lon="3.55935">
        <ele>891.5</ele>
        <time>2020-08-15T08:46:05Z</time>
      </trkpt>
      <trkpt lat="45.60017" lon="3.56002">
        <ele>890.1</ele>
        <time>2020-08-15T08:46:25Z</time>
      </trkpt>
      <trkpt lat="45.59931" lon="3.55953">
        <ele>887.9</ele>
        <time>2020-08-15T08:46:40Z</time>
      </trkpt>
      <trkpt lat="45.59839" lon="3.55935">
        <ele>887.5</ele>
        <time>2020-08-15T08:46:55Z</time>
      </trkpt>
      <trkpt lat="45.59738" lon="3.55877">
        <ele>888</ele>
        <time>2020-08-15T08:47:20Z</time>
      </trkpt>
      <trkpt lat="45.59639" lon="3.55821">
        <ele>886.7</ele>
        <time>2020-08-15T08:47:45Z</time>
      </trkpt>
      <trkpt lat="45.59523" lon="3.5583">
        <ele>884.3</ele>
        <time>2020-08-15T08:48:05Z</time>
      </trkpt>
      <trkpt lat="45.59421" lon="3.55823">
        <ele>882.9</ele>
        <time>2020-08-15T08:48:20Z</time>
      </trkpt>
      <trkpt lat="45.59307" lon="3.55838">
        <ele>882.5</ele>
        <time>2020-08-15T08:48:35Z</time>
      </trkpt>
      <trkpt lat="45.59213" lon="3.55913">
        <ele>882.2</ele>
        <time>2020-08-15T08:48:55Z</time>
      </trkpt>
      <trkpt lat="45.59145" lon="3.56033">
        <ele>880.4</ele>
        <time>2020-08-15T08:49:15Z</time>
      </trkpt>
      <trkpt lat="45.59052" lon="3.56011">
        <ele>881.1</ele>
        <time>2020-08-15T08:49:45Z</time>
      </trkpt>
      <trkpt lat="45.58962" lon="3.55985">
        <ele>882.4</ele>
        <time>2020-08-15T08:50:35Z</time>
      </trkpt>
      <trkpt lat="45.58872" lon="3.5598">
        <ele>885.6</ele>
        <time>2020-08-15T08:51:31Z</time>
      </trkpt>
      <trkpt lat="45.58791" lon="3.56031">
        <ele>890.2</ele>
        <time>2020-08-15T08:52:19Z</time>
      </trkpt>
      <trkpt lat="45.58729" lon="3.56136">
        <ele>896.5</ele>
        <time>2020-08-15T08:53:29Z</time>
      </trkpt>
      <trkpt lat="45.58654" lon="3.5622">
        <ele>903.7</ele>
        <time>2020-08-15T08:54:42Z</time>
      </trkpt>
      <trkpt lat="45.58561" lon="3.56261">
        <ele>909.5</ele>
        <time>2020-08-15T08:55:43Z</time>
      </trkpt>
      <trkpt lat="45.58464" lon="3.56265">
        <ele>914.4</ele>
        <time>2020-08-15T08:56:42Z</time>
      </trkpt>
      <trkpt lat="45.58368" lon="3.56241">
        <ele>919.5</ele>
        <time>2020-08-15T08:57:50Z</time>
      </trkpt>
      <trkpt lat="45.58277" lon="3.56238">
        <ele>926</ele>
        <time>2020-08-15T08:59:03Z</time>
      </trkpt>
      <trkpt lat="45.58182" lon="3.56261">
        <ele>931.7</ele>
        <time>2020-08-15T09:00:16Z</time>
      </trkpt>
      <trkpt lat="45.58151" lon="3.56132">
        <ele>942</ele>
        <time>2020-08-15T09:01:33Z</time>
      </trkpt>
      <trkpt lat="45.58081" lon="3.56033">
        <ele>951.1</ele>
        <time>2020-08-15T09:02:37Z</time>
      </trkpt>
      <trkpt lat="45.58005" lon="3.55955">
        <ele>960</ele>
        <time>2020-08-15T09:03:49Z</time>
      </trkpt>
      <trkpt lat="45.57908" lon="3.55965">
        <ele>964</ele>
        <time>2020-08-15T09:04:47Z</time>
      </trkpt>
      <trkpt lat="45.57809" lon="3.55953">
        <ele>966.4</ele>
        <time>2020-08-15T09:05:12Z</time>
      </trkpt>
      <trkpt lat="45.57699" lon="3.55975">
        <ele>967.5</ele>
        <time>2020-08-15T09:05:37Z</time>
      </trkpt>
      <trkpt lat="45.57619" lon="3.56072">
        <ele>968.1</ele>
        <time>2020-08-15T09:05:52Z</time>
      </trkpt>
      <trkpt lat="45.57533" lon="3.56122">
        <ele>969.4</ele>
        <time>2020-08-15T09:06:12Z</time>
      </trkpt>
      <trkpt lat="45.57464" lon="3.55983">
        <ele>970.4</ele>
        <time>2020-08-15T09:06:42Z</time>
      </trkpt>
      <trkpt lat="45.57397" lon="3.5585">
        <ele>970.8</ele>
        <time>2020-08-15T09:07:02Z</time>
      </trkpt>
      <trkpt lat="45.5729" lon="3.55784">
        <ele>969.8</ele>
        <time>2020-08-15T09:07:22Z</time>
      </trkpt>
      <trkpt lat="45.57206" lon="3.55852">
        <ele>969.6</ele>
        <time>2020-08-15T09:07:42Z</time>
      </trkpt>
      <trkpt lat="45.57123" lon="3.55921">
        <ele>971.9</ele>
        <time>2020-08-15T09:08:42Z</time>
      </trkpt>
      <trkpt lat="45.57074" lon="3.56034">
        <ele>975.9</ele>
        <time>2020-08-15T09:09:49Z</time>
      </trkpt>
      <trkpt lat="45.56998" lon="3.56107">
        <ele>983.9</ele>
        <time>2020-08-15T09:11:14Z</time>
      </trkpt>
      <trkpt lat="45.56908" lon="3.56119">
        <ele>994.1</ele>
        <time>2020-08-15T09:12:29Z</time>
      </trkpt>
      <trkpt lat="45.56933" lon="3.56246">
        <ele>1004</ele>
        <time>2020-08-15T09:14:04Z</time>
      </trkpt>
      <trkpt lat="45.56981" lon="3.5636">
        <ele>1009.5</ele>
        <time>2020-08-15T09:15:13Z</time>
      </trkpt>
      <trkpt lat="45.57024" lon="3.5648">
        <ele>1013.6</ele>
        <time>2020-08-15T09:16:21Z</time>
      </trkpt>
      <trkpt lat="45.56959" lon="3.56573">
        <ele>1018.8</ele>
        <time>2020-08-15T09:17:38Z</time>
      </trkpt>
      <trkpt lat="45.56866" lon="3.56547">
        <ele>1024</ele>
        <time>2020-08-15T09:18:47Z</time>
      </trkpt>
      <trkpt lat="45.56775" lon="3.56573">
        <ele>1029.2</ele>
        <time>2020-08-15T09:19:59Z</time>
      </trkpt>
      <trkpt lat="45.56686" lon="3.56628">
        <ele>1034.8</ele>
        <time>2020-08-15T09:21:04Z</time>
      </trkpt>
      <trkpt lat="45.56595" lon="3.56669">
        <ele>1041.3</ele>
        <time>2020-08-15T09:22:15Z</time>
      </trkpt>
      <trkpt lat="45.56503" lon="3.56699">
        <ele>1049.9</ele>
        <time>2020-08-15T09:25:27Z</time>
      </trkpt>
      <trkpt lat="45.56411" lon="3.56743">
        <ele>1059.9</ele>
        <time>2020-08-15T09:29:21Z</time>
      </trkpt>
      <trkpt lat="45.56339" lon="3.56835">
        <ele>1065</ele>
        <time>2020-08-15T09:30:35Z</time>
      </trkpt>
      <trkpt lat="45.56288" lon="3.56938">
        <ele>1071.4</ele>
        <time>2020-08-15T09:31:37Z</time>
      </trkpt>
      <trkpt lat="45.56284" lon="3.57077">
        <ele>1079.2</ele>
        <time>2020-08-15T09:32:13Z</time>
      </trkpt>
      <trkpt lat="45.5623" lon="3.57186">
        <ele>1080.5</ele>
        <time>2020-08-15T09:32:33Z</time>
      </trkpt>
      <trkpt lat="45.56162" lon="3.57281">
        <ele>1081.9</ele>
        <time>2020-08-15T09:32:53Z</time>
      </trkpt>
      <trkpt lat="45.5609" lon="3.5736">
        <ele>1084.7</ele>
        <time>2020-08-15T09:33:41Z</time>
      </trkpt>
      <trkpt lat="45.55998" lon="3.5735">
        <ele>1087.4</ele>
        <time>2020-08-15T09:34:41Z</time>
      </trkpt>
      <trkpt lat="45.56051" lon="3.57228">
        <ele>1088.1</ele>
        <time>2020-08-15T09:35:06Z</time>
      </trkpt>
      <trkpt lat="45.56079" lon="3.571">
        <ele>1088.4</ele>
        <time>2020-08-15T09:35:36Z</time>
      </trkpt>
      <trkpt lat="45.55981" lon="3.5707">
        <ele>1088.9</ele>
        <time>2020-08-15T09:36:30Z</time>
      </trkpt>
      <trkpt lat="45.55883" lon="3.57069">
        <ele>1089.7</ele>
        <time>2020-08-15T09:37:21Z</time>
      </trkpt>
      <trkpt lat="45.55797" lon="3.57002">
        <ele>1090.7</ele>
        <time>2020-08-15T09:38:12Z</time>
      </trkpt>
      <trkpt lat="45.55729" lon="3.56903">
        <ele>1092</ele>
        <time>2020-08-15T09:39:03Z</time>
      </trkpt>
      <trkpt lat="45.55666" lon="3.56794">
        <ele>1093.9</ele>
        <time>2020-08-15T09:39:58Z</time>
      </trkpt>
      <trkpt lat="45.5559" lon="3.56701">
        <ele>1096.1</ele>
        <time>2020-08-15T09:40:44Z</time>
      </trkpt>
      <trkpt lat="45.55524" lon="3.56595">
        <ele>1098.7</ele>
        <time>2020-08-15T09:41:28Z</time>
      </trkpt>
      <trkpt lat="45.55518" lon="3.56452">
        <ele>1100.5</ele>
        <time>2020-08-15T09:42:03Z</time>
      </trkpt>
      <trkpt lat="45.55555" lon="3.5631">
        <ele>1101.7</ele>
        <time>2020-08-15T09:42:33Z</time>
      </trkpt>
      <trkpt lat="45.55456" lon="3.56289">
        <ele>1104.6</ele>
        <time>2020-08-15T09:44:10Z</time>
      </trkpt>
      <trkpt lat="45.55393" lon="3.56382">
        <ele>1106.3</ele>
        <time>2020-08-15T09:44:45Z</time>
      </trkpt>
      <trkpt lat="45.55292" lon="3.56358">
        <ele>1112.6</ele>
        <time>2020-08-15T09:46:15Z</time>
      </trkpt>
      <trkpt lat="45.55208" lon="3.56297">
        <ele>1114.3</ele>
        <time>2020-08-15T09:46:45Z</time>
      </trkpt>
      <trkpt lat="45.55128" lon="3.56224">
        <ele>1115</ele>
        <time>2020-08-15T09:47:10Z</time>
      </trkpt>
      <trkpt lat="45.55049" lon="3.56122">
        <ele>1115.3</ele>
        <time>2020-08-15T09:47:45Z</time>
      </trkpt>
      <trkpt lat="45.54986" lon="3.56016">
        <ele>1115.2</ele>
        <time>2020-08-15T09:48:20Z</time>
      </trkpt>
      <trkpt lat="45.54905" lon="3.55941">
        <ele>1115</ele>
        <time>2020-08-15T09:48:55Z</time>
      </trkpt>
      <trkpt lat="45.54818" lon="3.55891">
        <ele>1115.1</ele>
        <time>2020-08-15T09:49:19Z</time>
      </trkpt>
      <trkpt lat="45.54716" lon="3.55865">
        <ele>1115.6</ele>
        <time>2020-08-15T09:49:49Z</time>
      </trkpt>
      <trkpt lat="45.54623" lon="3.55816">
        <ele>1116.5</ele>
        <time>2020-08-15T09:50:24Z</time>
      </trkpt>
      <trkpt lat="45.54526" lon="3.55762">
        <ele>1117.8</ele>
        <time>2020-08-15T09:50:54Z</time>
      </trkpt>
      <trkpt lat="45.54442" lon="3.55708">
        <ele>1118.2</ele>
        <time>2020-08-15T09:51:24Z</time>
      </trkpt>
      <trkpt lat="45.54352" lon="3.55642">
        <ele>1118.2</ele>
        <time>2020-08-15T09:51:49Z</time>
      </trkpt>
      <trkpt lat="45.5425" lon="3.55606">
        <ele>1117.9</ele>
        <time>2020-08-15T09:52:14Z</time>
      </trkpt>
      <trkpt lat="45.54163" lon="3.55651">
        <ele>1117.6</ele>
        <time>2020-08-15T09:52:57Z</time>
      </trkpt>
      <trkpt lat="45.54246" lon="3.55606">
        <ele>1119.1</ele>
        <time>2020-08-15T09:56:57Z</time>
      </trkpt>
      <trkpt lat="45.54147" lon="3.55595">
        <ele>1125.1</ele>
        <time>2020-08-15T10:16:44Z</time>
      </trkpt>
      <trkpt lat="45.54097" lon="3.55707">
        <ele>1124.7</ele>
        <time>2020-08-15T10:17:31Z</time>
      </trkpt>
      <trkpt lat="45.54086" lon="3.55844">
        <ele>1124.3</ele>
        <time>2020-08-15T10:18:19Z</time>
      </trkpt>
      <trkpt lat="45.54091" lon="3.56005">
        <ele>1123.6</ele>
        <time>2020-08-15T10:18:49Z</time>
      </trkpt>
      <trkpt lat="45.54118" lon="3.56138">
        <ele>1123.4</ele>
        <time>2020-08-15T10:19:14Z</time>
      </trkpt>
      <trkpt lat="45.54136" lon="3.5627">
        <ele>1123.3</ele>
        <time>2020-08-15T10:19:39Z</time>
      </trkpt>
      <trkpt lat="45.54097" lon="3.56386">
        <ele>1123.2</ele>
        <time>2020-08-15T10:20:04Z</time>
      </trkpt>
      <trkpt lat="45.54009" lon="3.56443">
        <ele>1123.5</ele>
        <time>2020-08-15T10:20:34Z</time>
      </trkpt>
      <trkpt lat="45.53919" lon="3.56484">
        <ele>1123.9</ele>
        <time>2020-08-15T10:21:04Z</time>
      </trkpt>
      <trkpt lat="45.5383" lon="3.56517">
        <ele>1124.8</ele>
        <time>2020-08-15T10:21:39Z</time>
      </trkpt>
      <trkpt lat="45.53737" lon="3.56508">
        <ele>1126.4</ele>
        <time>2020-08-15T10:22:14Z</time>
      </trkpt>
      <trkpt lat="45.53632" lon="3.5655">
        <ele>1128.7</ele>
        <time>2020-08-15T10:22:49Z</time>
      </trkpt>
      <trkpt lat="45.53523" lon="3.56626">
        <ele>1130.3</ele>
        <time>2020-08-15T10:23:09Z</time>
      </trkpt>
      <trkpt lat="45.53429" lon="3.56686">
        <ele>1129.6</ele>
        <time>2020-08-15T10:23:24Z</time>
      </trkpt>
      <trkpt lat="45.53339" lon="3.5675">
        <ele>1128.6</ele>
        <time>2020-08-15T10:23:49Z</time>
      </trkpt>
      <trkpt lat="45.53251" lon="3.56789">
        <ele>1129</ele>
        <time>2020-08-15T10:24:24Z</time>
      </trkpt>
      <trkpt lat="45.53141" lon="3.56829">
        <ele>1130.4</ele>
        <time>2020-08-15T10:24:59Z</time>
      </trkpt>
      <trkpt lat="45.53024" lon="3.56872">
        <ele>1129.6</ele>
        <time>2020-08-15T10:25:14Z</time>
      </trkpt>
      <trkpt lat="45.52928" lon="3.5692">
        <ele>1125.8</ele>
        <time>2020-08-15T10:25:29Z</time>
      </trkpt>
      <trkpt lat="45.52828" lon="3.5699">
        <ele>1123.1</ele>
        <time>2020-08-15T10:25:44Z</time>
      </trkpt>
      <trkpt lat="45.52746" lon="3.57051">
        <ele>1122.5</ele>
        <time>2020-08-15T10:26:19Z</time>
      </trkpt>
      <trkpt lat="45.52649" lon="3.57071">
        <ele>1117.8</ele>
        <time>2020-08-15T10:26:39Z</time>
      </trkpt>
      <trkpt lat="45.52556" lon="3.57062">
        <ele>1117.1</ele>
        <time>2020-08-15T10:26:59Z</time>
      </trkpt>
      <trkpt lat="45.5248" lon="3.57146">
        <ele>1116.5</ele>
        <time>2020-08-15T10:27:14Z</time>
      </trkpt>
      <trkpt lat="45.52403" lon="3.57214">
        <ele>1115.7</ele>
        <time>2020-08-15T10:27:29Z</time>
      </trkpt>
      <trkpt lat="45.52326" lon="3.57285">
        <ele>1115.4</ele>
        <time>2020-08-15T10:27:54Z</time>
      </trkpt>
      <trkpt lat="45.52242" lon="3.57357">
        <ele>1113.2</ele>
        <time>2020-08-15T10:28:19Z</time>
      </trkpt>
      <trkpt lat="45.52139" lon="3.57387">
        <ele>1112.5</ele>
        <time>2020-08-15T10:28:39Z</time>
      </trkpt>
      <trkpt lat="45.5205" lon="3.5746">
        <ele>1110.6</ele>
        <time>2020-08-15T10:28:54Z</time>
      </trkpt>
      <trkpt lat="45.51963" lon="3.57534">
        <ele>1106.3</ele>
        <time>2020-08-15T10:29:14Z</time>
      </trkpt>
      <trkpt lat="45.51928" lon="3.57669">
        <ele>1103.8</ele>
        <time>2020-08-15T10:29:34Z</time>
      </trkpt>
      <trkpt lat="45.51941" lon="3.57834">
        <ele>1100.9</ele>
        <time>2020-08-15T10:29:54Z</time>
      </trkpt>
      <trkpt lat="45.51963" lon="3.57963">
        <ele>1097.7</ele>
        <time>2020-08-15T10:30:04Z</time>
      </trkpt>
      <trkpt lat="45.52004" lon="3.58132">
        <ele>1095.4</ele>
        <time>2020-08-15T10:30:19Z</time>
      </trkpt>
      <trkpt lat="45.52037" lon="3.5827">
        <ele>1091.1</ele>
        <time>2020-08-15T10:30:39Z</time>
      </trkpt>
      <trkpt lat="45.51974" lon="3.58402">
        <ele>1085.9</ele>
        <time>2020-08-15T10:30:54Z</time>
      </trkpt>
      <trkpt lat="45.51914" lon="3.58548">
        <ele>1081.8</ele>
        <time>2020-08-15T10:31:09Z</time>
      </trkpt>
      <trkpt lat="45.51854" lon="3.58666">
        <ele>1075.8</ele>
        <time>2020-08-15T10:31:24Z</time>
      </trkpt>
      <trkpt lat="45.51825" lon="3.58797">
        <ele>1072.3</ele>
        <time>2020-08-15T10:32:00Z</time>
      </trkpt>
      <trkpt lat="45.5173" lon="3.58843">
        <ele>1059.3</ele>
        <time>2020-08-15T11:45:53Z</time>
      </trkpt>
      <trkpt lat="45.51648" lon="3.58782">
        <ele>1058.8</ele>
        <time>2020-08-15T11:46:28Z</time>
      </trkpt>
      <trkpt lat="45.51545" lon="3.58815">
        <ele>1057.1</ele>
        <time>2020-08-15T11:46:48Z</time>
      </trkpt>
      <trkpt lat="45.51431" lon="3.58833">
        <ele>1052.8</ele>
        <time>2020-08-15T11:47:08Z</time>
      </trkpt>
      <trkpt lat="45.51306" lon="3.58862">
        <ele>1051.1</ele>
        <time>2020-08-15T11:47:23Z</time>
      </trkpt>
      <trkpt lat="45.51215" lon="3.58847">
        <ele>1051.2</ele>
        <time>2020-08-15T11:47:38Z</time>
      </trkpt>
      <trkpt lat="45.51122" lon="3.58846">
        <ele>1050.8</ele>
        <time>2020-08-15T11:48:20Z</time>
      </trkpt>
      <trkpt lat="45.51028" lon="3.58889">
        <ele>1050.6</ele>
        <time>2020-08-15T11:49:17Z</time>
      </trkpt>
      <trkpt lat="45.50946" lon="3.58812">
        <ele>1049.5</ele>
        <time>2020-08-15T11:50:08Z</time>
      </trkpt>
      <trkpt lat="45.50902" lon="3.58665">
        <ele>1047.4</ele>
        <time>2020-08-15T11:50:43Z</time>
      </trkpt>
      <trkpt lat="45.50815" lon="3.5859">
        <ele>1044.6</ele>
        <time>2020-08-15T11:50:58Z</time>
      </trkpt>
      <trkpt lat="45.50718" lon="3.58505">
        <ele>1043.9</ele>
        <time>2020-08-15T11:51:13Z</time>
      </trkpt>
      <trkpt lat="45.50602" lon="3.58445">
        <ele>1042</ele>
        <time>2020-08-15T11:51:28Z</time>
      </trkpt>
      <trkpt lat="45.50499" lon="3.58436">
        <ele>1042.3</ele>
        <time>2020-08-15T11:51:43Z</time>
      </trkpt>
      <trkpt lat="45.50416" lon="3.58484">
        <ele>1040.6</ele>
        <time>2020-08-15T11:52:19Z</time>
      </trkpt>
      <trkpt lat="45.50393" lon="3.58617">
        <ele>1041.5</ele>
        <time>2020-08-15T11:53:18Z</time>
      </trkpt>
      <trkpt lat="45.50403" lon="3.58756">
        <ele>1044.2</ele>
        <time>2020-08-15T11:54:17Z</time>
      </trkpt>
      <trkpt lat="45.50365" lon="3.58882">
        <ele>1047.1</ele>
        <time>2020-08-15T11:55:17Z</time>
      </trkpt>
      <trkpt lat="45.50266" lon="3.58881">
        <ele>1049.8</ele>
        <time>2020-08-15T11:56:09Z</time>
      </trkpt>
      <trkpt lat="45.50181" lon="3.58806">
        <ele>1051.4</ele>
        <time>2020-08-15T11:56:54Z</time>
      </trkpt>
      <trkpt lat="45.50131" lon="3.58689">
        <ele>1053.4</ele>
        <time>2020-08-15T11:57:47Z</time>
      </trkpt>
      <trkpt lat="45.50068" lon="3.58586">
        <ele>1055.8</ele>
        <time>2020-08-15T11:58:43Z</time>
      </trkpt>
      <trkpt lat="45.49976" lon="3.58535">
        <ele>1058</ele>
        <time>2020-08-15T11:59:37Z</time>
      </trkpt>
      <trkpt lat="45.49906" lon="3.58449">
        <ele>1059.9</ele>
        <time>2020-08-15T12:00:25Z</time>
      </trkpt>
      <trkpt lat="45.49811" lon="3.58427">
        <ele>1061.4</ele>
        <time>2020-08-15T12:01:00Z</time>
      </trkpt>
      <trkpt lat="45.49725" lon="3.58461">
        <ele>1062.8</ele>
        <time>2020-08-15T12:01:36Z</time>
      </trkpt>
      <trkpt lat="45.49622" lon="3.58504">
        <ele>1065</ele>
        <time>2020-08-15T12:02:16Z</time>
      </trkpt>
      <trkpt lat="45.49556" lon="3.58609">
        <ele>1065.8</ele>
        <time>2020-08-15T12:02:46Z</time>
      </trkpt>
      <trkpt lat="45.49495" lon="3.58709">
        <ele>1066.7</ele>
        <time>2020-08-15T12:03:16Z</time>
      </trkpt>
      <trkpt lat="45.49417" lon="3.58802">
        <ele>1068.9</ele>
        <time>2020-08-15T12:03:41Z</time>
      </trkpt>
      <trkpt lat="45.49323" lon="3.58852">
        <ele>1069.5</ele>
        <time>2020-08-15T12:03:56Z</time>
      </trkpt>
      <trkpt lat="45.49232" lon="3.58878">
        <ele>1070.9</ele>
        <time>2020-08-15T12:04:11Z</time>
      </trkpt>
      <trkpt lat="45.49134" lon="3.589">
        <ele>1074.9</ele>
        <time>2020-08-15T12:04:31Z</time>
      </trkpt>
      <trkpt lat="45.49053" lon="3.58835">
        <ele>1074.3</ele>
        <time>2020-08-15T12:05:02Z</time>
      </trkpt>
      <trkpt lat="45.48976" lon="3.58745">
        <ele>1082.3</ele>
        <time>2020-08-15T12:06:01Z</time>
      </trkpt>
      <trkpt lat="45.48903" lon="3.58661">
        <ele>1087.4</ele>
        <time>2020-08-15T12:06:47Z</time>
      </trkpt>
      <trkpt lat="45.48814" lon="3.58589">
        <ele>1091.6</ele>
        <time>2020-08-15T12:07:22Z</time>
      </trkpt>
      <trkpt lat="45.48722" lon="3.58521">
        <ele>1094.3</ele>
        <time>2020-08-15T12:07:47Z</time>
      </trkpt>
      <trkpt lat="45.48663" lon="3.58403">
        <ele>1094</ele>
        <time>2020-08-15T12:08:31Z</time>
      </trkpt>
      <trkpt lat="45.48635" lon="3.5827">
        <ele>1098.8</ele>
        <time>2020-08-15T12:09:29Z</time>
      </trkpt>
      <trkpt lat="45.48561" lon="3.58166">
        <ele>1101.8</ele>
        <time>2020-08-15T12:10:09Z</time>
      </trkpt>
      <trkpt lat="45.48474" lon="3.58099">
        <ele>1103.3</ele>
        <time>2020-08-15T12:10:44Z</time>
      </trkpt>
      <trkpt lat="45.48388" lon="3.58033">
        <ele>1104.3</ele>
        <time>2020-08-15T12:11:19Z</time>
      </trkpt>
      <trkpt lat="45.48295" lon="3.57957">
        <ele>1105.2</ele>
        <time>2020-08-15T12:11:54Z</time>
      </trkpt>
      <trkpt lat="45.48219" lon="3.57869">
        <ele>1106</ele>
        <time>2020-08-15T12:12:24Z</time>
      </trkpt>
      <trkpt lat="45.48156" lon="3.57763">
        <ele>1106.8</ele>
        <time>2020-08-15T12:13:04Z</time>
      </trkpt>
      <trkpt lat="45.4809" lon="3.57657">
        <ele>1107.9</ele>
        <time>2020-08-15T12:13:44Z</time>
      </trkpt>
      <trkpt lat="45.48028" lon="3.57557">
        <ele>1109.1</ele>
        <time>2020-08-15T12:14:19Z</time>
      </trkpt>
      <trkpt lat="45.47963" lon="3.5745">
        <ele>1110.9</ele>
        <time>2020-08-15T12:15:20Z</time>
      </trkpt>
      <trkpt lat="45.47907" lon="3.57339">
        <ele>1112.3</ele>
        <time>2020-08-15T12:16:01Z</time>
      </trkpt>
      <trkpt lat="45.47841" lon="3.5724">
        <ele>1114</ele>
        <time>2020-08-15T12:16:47Z</time>
      </trkpt>
      <trkpt lat="45.47766" lon="3.57149">
        <ele>1115.6</ele>
        <time>2020-08-15T12:17:32Z</time>
      </trkpt>
      <trkpt lat="45.47707" lon="3.57029">
        <ele>1116.8</ele>
        <time>2020-08-15T12:18:11Z</time>
      </trkpt>
      <trkpt lat="45.47662" lon="3.56914">
        <ele>1118</ele>
        <time>2020-08-15T12:18:46Z</time>
      </trkpt>
      <trkpt lat="45.47632" lon="3.56773">
        <ele>1119.6</ele>
        <time>2020-08-15T12:19:21Z</time>
      </trkpt>
      <trkpt lat="45.47615" lon="3.56629">
        <ele>1121.2</ele>
        <time>2020-08-15T12:19:56Z</time>
      </trkpt>
      <trkpt lat="45.47592" lon="3.56489">
        <ele>1125.2</ele>
        <time>2020-08-15T12:20:56Z</time>
      </trkpt>
      <trkpt lat="45.47533" lon="3.5638">
        <ele>1138.7</ele>
        <time>2020-08-15T12:26:17Z</time>
      </trkpt>
      <trkpt lat="45.47447" lon="3.56319">
        <ele>1143.3</ele>
        <time>2020-08-15T12:26:48Z</time>
      </trkpt>
      <trkpt lat="45.47351" lon="3.56308">
        <ele>1145</ele>
        <time>2020-08-15T12:27:03Z</time>
      </trkpt>
      <trkpt lat="45.47247" lon="3.56265">
        <ele>1144.8</ele>
        <time>2020-08-15T12:27:13Z</time>
      </trkpt>
      <trkpt lat="45.47134" lon="3.56159">
        <ele>1141.8</ele>
        <time>2020-08-15T12:27:23Z</time>
      </trkpt>
      <trkpt lat="45.47047" lon="3.5605">
        <ele>1138.9</ele>
        <time>2020-08-15T12:27:33Z</time>
      </trkpt>
      <trkpt lat="45.46963" lon="3.55903">
        <ele>1134.4</ele>
        <time>2020-08-15T12:27:48Z</time>
      </trkpt>
      <trkpt lat="45.46884" lon="3.55758">
        <ele>1130.3</ele>
        <time>2020-08-15T12:28:03Z</time>
      </trkpt>
      <trkpt lat="45.46812" lon="3.55614">
        <ele>1126.2</ele>
        <time>2020-08-15T12:28:18Z</time>
      </trkpt>
      <trkpt lat="45.46759" lon="3.5548">
        <ele>1122.8</ele>
        <time>2020-08-15T12:28:28Z</time>
      </trkpt>
      <trkpt lat="45.46683" lon="3.55332">
        <ele>1116.1</ele>
        <time>2020-08-15T12:28:38Z</time>
      </trkpt>
      <trkpt lat="45.46615" lon="3.55182">
        <ele>1112.1</ele>
        <time>2020-08-15T12:28:48Z</time>
      </trkpt>
      <trkpt lat="45.46532" lon="3.55093">
        <ele>1108</ele>
        <time>2020-08-15T12:28:58Z</time>
      </trkpt>
      <trkpt lat="45.46434" lon="3.55043">
        <ele>1103.8</ele>
        <time>2020-08-15T12:29:08Z</time>
      </trkpt>
      <trkpt lat="45.46346" lon="3.54973">
        <ele>1100.9</ele>
        <time>2020-08-15T12:29:23Z</time>
      </trkpt>
      <trkpt lat="45.46257" lon="3.5489">
        <ele>1093.9</ele>
        <time>2020-08-15T12:29:43Z</time>
      </trkpt>
      <trkpt lat="45.46202" lon="3.54757">
        <ele>1089.3</ele>
        <time>2020-08-15T12:29:58Z</time>
      </trkpt>
      <trkpt lat="45.46163" lon="3.54635">
        <ele>1087.3</ele>
        <time>2020-08-15T12:30:36Z</time>
      </trkpt>
      <trkpt lat="45.4611" lon="3.54527">
        <ele>1085.9</ele>
        <time>2020-08-15T12:31:26Z</time>
      </trkpt>
      <trkpt lat="45.46045" lon="3.54423">
        <ele>1078.4</ele>
        <time>2020-08-15T12:32:50Z</time>
      </trkpt>
      <trkpt lat="45.46038" lon="3.54282">
        <ele>1076.9</ele>
        <time>2020-08-15T12:33:20Z</time>
      </trkpt>
      <trkpt lat="45.45974" lon="3.54187">
        <ele>1077.4</ele>
        <time>2020-08-15T12:34:10Z</time>
      </trkpt>
      <trkpt lat="45.45905" lon="3.54087">
        <ele>1077.1</ele>
        <time>2020-08-15T12:35:03Z</time>
      </trkpt>
      <trkpt lat="45.45883" lon="3.53949">
        <ele>1077.5</ele>
        <time>2020-08-15T12:35:58Z</time>
      </trkpt>
      <trkpt lat="45.45931" lon="3.53833">
        <ele>1078.3</ele>
        <time>2020-08-15T12:36:56Z</time>
      </trkpt>
      <trkpt lat="45.4599" lon="3.53726">
        <ele>1079.6</ele>
        <time>2020-08-15T12:37:56Z</time>
      </trkpt>
      <trkpt lat="45.46059" lon="3.53645">
        <ele>1082.2</ele>
        <time>2020-08-15T12:39:02Z</time>
      </trkpt>
      <trkpt lat="45.46146" lon="3.53707">
        <ele>1085.8</ele>
        <time>2020-08-15T12:40:01Z</time>
      </trkpt>
      <trkpt lat="45.46239" lon="3.53664">
        <ele>1088.9</ele>
        <time>2020-08-15T12:40:58Z</time>
      </trkpt>
      <trkpt lat="45.46281" lon="3.53547">
        <ele>1091.9</ele>
        <time>2020-08-15T12:41:59Z</time>
      </trkpt>
      <trkpt lat="45.46304" lon="3.53417">
        <ele>1094.3</ele>
        <time>2020-08-15T12:42:35Z</time>
      </trkpt>
      <trkpt lat="45.46228" lon="3.53306">
        <ele>1095.7</ele>
        <time>2020-08-15T12:42:54Z</time>
      </trkpt>
      <trkpt lat="45.46163" lon="3.53149">
        <ele>1095.2</ele>
        <time>2020-08-15T12:43:09Z</time>
      </trkpt>
      <trkpt lat="45.46159" lon="3.52995">
        <ele>1095.1</ele>
        <time>2020-08-15T12:43:24Z</time>
      </trkpt>
      <trkpt lat="45.46072" lon="3.5289">
        <ele>1093.8</ele>
        <time>2020-08-15T12:45:42Z</time>
      </trkpt>
      <trkpt lat="45.45972" lon="3.52778">
        <ele>1092</ele>
        <time>2020-08-15T12:45:57Z</time>
      </trkpt>
      <trkpt lat="45.45887" lon="3.52627">
        <ele>1088</ele>
        <time>2020-08-15T12:46:12Z</time>
      </trkpt>
      <trkpt lat="45.45896" lon="3.5249">
        <ele>1083.9</ele>
        <time>2020-08-15T12:46:22Z</time>
      </trkpt>
      <trkpt lat="45.45898" lon="3.52356">
        <ele>1083.6</ele>
        <time>2020-08-15T12:46:32Z</time>
      </trkpt>
      <trkpt lat="45.45837" lon="3.52249">
        <ele>1081</ele>
        <time>2020-08-15T12:46:42Z</time>
      </trkpt>
      <trkpt lat="45.45796" lon="3.52089">
        <ele>1081.4</ele>
        <time>2020-08-15T12:46:57Z</time>
      </trkpt>
      <trkpt lat="45.45794" lon="3.51936">
        <ele>1076.2</ele>
        <time>2020-08-15T12:47:12Z</time>
      </trkpt>
      <trkpt lat="45.45775" lon="3.51767">
        <ele>1070.7</ele>
        <time>2020-08-15T12:47:27Z</time>
      </trkpt>
      <trkpt lat="45.45712" lon="3.51647">
        <ele>1071.1</ele>
        <time>2020-08-15T12:47:47Z</time>
      </trkpt>
      <trkpt lat="45.45616" lon="3.51606">
        <ele>1073.2</ele>
        <time>2020-08-15T12:48:32Z</time>
      </trkpt>
      <trkpt lat="45.45527" lon="3.51559">
        <ele>1073.2</ele>
        <time>2020-08-15T12:49:23Z</time>
      </trkpt>
      <trkpt lat="45.45523" lon="3.51412">
        <ele>1071.9</ele>
        <time>2020-08-15T12:49:59Z</time>
      </trkpt>
      <trkpt lat="45.45557" lon="3.51282">
        <ele>1070.7</ele>
        <time>2020-08-15T12:50:19Z</time>
      </trkpt>
      <trkpt lat="45.45551" lon="3.51131">
        <ele>1069.4</ele>
        <time>2020-08-15T12:50:39Z</time>
      </trkpt>
      <trkpt lat="45.45484" lon="3.51021">
        <ele>1070.4</ele>
        <time>2020-08-15T12:51:09Z</time>
      </trkpt>
      <trkpt lat="45.45398" lon="3.5095">
        <ele>1072.2</ele>
        <time>2020-08-15T12:52:03Z</time>
      </trkpt>
      <trkpt lat="45.45306" lon="3.50916">
        <ele>1074</ele>
        <time>2020-08-15T12:53:06Z</time>
      </trkpt>
      <trkpt lat="45.45228" lon="3.50839">
        <ele>1074.7</ele>
        <time>2020-08-15T12:53:56Z</time>
      </trkpt>
      <trkpt lat="45.4513" lon="3.50842">
        <ele>1076</ele>
        <time>2020-08-15T12:54:53Z</time>
      </trkpt>
      <trkpt lat="45.45048" lon="3.50784">
        <ele>1077.9</ele>
        <time>2020-08-15T12:55:40Z</time>
      </trkpt>
      <trkpt lat="45.44973" lon="3.50693">
        <ele>1079.9</ele>
        <time>2020-08-15T12:56:31Z</time>
      </trkpt>
      <trkpt lat="45.44909" lon="3.50577">
        <ele>1080.9</ele>
        <time>2020-08-15T12:57:11Z</time>
      </trkpt>
      <trkpt lat="45.4485" lon="3.50476">
        <ele>1082.4</ele>
        <time>2020-08-15T12:57:36Z</time>
      </trkpt>
      <trkpt lat="45.44749" lon="3.50383">
        <ele>1082.8</ele>
        <time>2020-08-15T12:57:56Z</time>
      </trkpt>
      <trkpt lat="45.44636" lon="3.50319">
        <ele>1083.1</ele>
        <time>2020-08-15T12:58:11Z</time>
      </trkpt>
      <trkpt lat="45.44544" lon="3.50282">
        <ele>1079.7</ele>
        <time>2020-08-15T12:58:21Z</time>
      </trkpt>
      <trkpt lat="45.44454" lon="3.50241">
        <ele>1078.9</ele>
        <time>2020-08-15T12:58:31Z</time>
      </trkpt>
      <trkpt lat="45.44351" lon="3.5025">
        <ele>1072</ele>
        <time>2020-08-15T12:58:41Z</time>
      </trkpt>
      <trkpt lat="45.44291" lon="3.50149">
        <ele>1072.3</ele>
        <time>2020-08-15T12:59:11Z</time>
      </trkpt>
      <trkpt lat="45.44324" lon="3.50029">
        <ele>1077.4</ele>
        <time>2020-08-15T12:59:52Z</time>
      </trkpt>
      <trkpt lat="45.44259" lon="3.49904">
        <ele>1085.3</ele>
        <time>2020-08-15T13:00:33Z</time>
      </trkpt>
      <trkpt lat="45.4419" lon="3.49799">
        <ele>1086.4</ele>
        <time>2020-08-15T13:00:48Z</time>
      </trkpt>
      <trkpt lat="45.4412" lon="3.49682">
        <ele>1082.6</ele>
        <time>2020-08-15T13:01:08Z</time>
      </trkpt>
      <trkpt lat="45.4402" lon="3.49639">
        <ele>1075</ele>
        <time>2020-08-15T13:01:23Z</time>
      </trkpt>
      <trkpt lat="45.43913" lon="3.49676">
        <ele>1071</ele>
        <time>2020-08-15T13:01:38Z</time>
      </trkpt>
      <trkpt lat="45.43867" lon="3.49531">
        <ele>1069.3</ele>
        <time>2020-08-15T13:01:53Z</time>
      </trkpt>
      <trkpt lat="45.43841" lon="3.49364">
        <ele>1067.9</ele>
        <time>2020-08-15T13:02:08Z</time>
      </trkpt>
      <trkpt lat="45.4383" lon="3.49197">
        <ele>1066.7</ele>
        <time>2020-08-15T13:02:23Z</time>
      </trkpt>
      <trkpt lat="45.43858" lon="3.49052">
        <ele>1065.4</ele>
        <time>2020-08-15T13:02:38Z</time>
      </trkpt>
      <trkpt lat="45.43893" lon="3.48926">
        <ele>1064.4</ele>
        <time>2020-08-15T13:03:24Z</time>
      </trkpt>
      <trkpt lat="45.43825" lon="3.48834">
        <ele>1062.3</ele>
        <time>2020-08-15T13:07:36Z</time>
      </trkpt>
      <trkpt lat="45.43751" lon="3.48969">
        <ele>1058.8</ele>
        <time>2020-08-15T13:07:51Z</time>
      </trkpt>
      <trkpt lat="45.43666" lon="3.49101">
        <ele>1056.1</ele>
        <time>2020-08-15T13:08:06Z</time>
      </trkpt>
      <trkpt lat="45.43628" lon="3.48953">
        <ele>1049.2</ele>
        <time>2020-08-15T13:08:21Z</time>
      </trkpt>
      <trkpt lat="45.43593" lon="3.48806">
        <ele>1045.4</ele>
        <time>2020-08-15T13:08:31Z</time>
      </trkpt>
      <trkpt lat="45.43628" lon="3.48654">
        <ele>1038.9</ele>
        <time>2020-08-15T13:08:41Z</time>
      </trkpt>
      <trkpt lat="45.43646" lon="3.48511">
        <ele>1030.3</ele>
        <time>2020-08-15T13:08:51Z</time>
      </trkpt>
      <trkpt lat="45.43612" lon="3.48344">
        <ele>1026.3</ele>
        <time>2020-08-15T13:09:01Z</time>
      </trkpt>
      <trkpt lat="45.43521" lon="3.48246">
        <ele>1019</ele>
        <time>2020-08-15T13:09:11Z</time>
      </trkpt>
      <trkpt lat="45.43507" lon="3.48098">
        <ele>1011.8</ele>
        <time>2020-08-15T13:09:21Z</time>
      </trkpt>
      <trkpt lat="45.4348" lon="3.47968">
        <ele>1005.7</ele>
        <time>2020-08-15T13:09:31Z</time>
      </trkpt>
      <trkpt lat="45.43417" lon="3.4786">
        <ele>1000.8</ele>
        <time>2020-08-15T13:10:01Z</time>
      </trkpt>
      <trkpt lat="45.43321" lon="3.47802">
        <ele>991.4</ele>
        <time>2020-08-15T13:10:41Z</time>
      </trkpt>
      <trkpt lat="45.43252" lon="3.47695">
        <ele>988</ele>
        <time>2020-08-15T13:11:11Z</time>
      </trkpt>
      <trkpt lat="45.43186" lon="3.476">
        <ele>987.8</ele>
        <time>2020-08-15T13:11:41Z</time>
      </trkpt>
      <trkpt lat="45.43155" lon="3.47461">
        <ele>985.5</ele>
        <time>2020-08-15T13:12:01Z</time>
      </trkpt>
      <trkpt lat="45.43119" lon="3.47326">
        <ele>982.9</ele>
        <time>2020-08-15T13:12:16Z</time>
      </trkpt>
      <trkpt lat="45.4307" lon="3.47177">
        <ele>981.2</ele>
        <time>2020-08-15T13:12:31Z</time>
      </trkpt>
      <trkpt lat="45.43" lon="3.47033">
        <ele>978.2</ele>
        <time>2020-08-15T13:12:46Z</time>
      </trkpt>
      <trkpt lat="45.42924" lon="3.46895">
        <ele>972.1</ele>
        <time>2020-08-15T13:13:01Z</time>
      </trkpt>
      <trkpt lat="45.42871" lon="3.46758">
        <ele>967.9</ele>
        <time>2020-08-15T13:13:11Z</time>
      </trkpt>
      <trkpt lat="45.42807" lon="3.46625">
        <ele>964.1</ele>
        <time>2020-08-15T13:13:21Z</time>
      </trkpt>
      <trkpt lat="45.42781" lon="3.46471">
        <ele>961.5</ele>
        <time>2020-08-15T13:13:31Z</time>
      </trkpt>
      <trkpt lat="45.42708" lon="3.46371">
        <ele>954.8</ele>
        <time>2020-08-15T13:13:41Z</time>
      </trkpt>
      <trkpt lat="45.42671" lon="3.4624">
        <ele>944.4</ele>
        <time>2020-08-15T13:13:51Z</time>
      </trkpt>
      <trkpt lat="45.4262" lon="3.46131">
        <ele>935.7</ele>
        <time>2020-08-15T13:14:01Z</time>
      </trkpt>
      <trkpt lat="45.42664" lon="3.45986">
        <ele>919.8</ele>
        <time>2020-08-15T13:14:11Z</time>
      </trkpt>
      <trkpt lat="45.42703" lon="3.45852">
        <ele>910.6</ele>
        <time>2020-08-15T13:14:21Z</time>
      </trkpt>
      <trkpt lat="45.42662" lon="3.45714">
        <ele>903</ele>
        <time>2020-08-15T13:14:31Z</time>
      </trkpt>
      <trkpt lat="45.42561" lon="3.45649">
        <ele>897.5</ele>
        <time>2020-08-15T13:14:41Z</time>
      </trkpt>
      <trkpt lat="45.4249" lon="3.45561">
        <ele>893.2</ele>
        <time>2020-08-15T13:14:51Z</time>
      </trkpt>
      <trkpt lat="45.42461" lon="3.45432">
        <ele>885.1</ele>
        <time>2020-08-15T13:15:01Z</time>
      </trkpt>
      <trkpt lat="45.42427" lon="3.45306">
        <ele>878.2</ele>
        <time>2020-08-15T13:15:11Z</time>
      </trkpt>
      <trkpt lat="45.42325" lon="3.45254">
        <ele>869.3</ele>
        <time>2020-08-15T13:15:26Z</time>
      </trkpt>
      <trkpt lat="45.42241" lon="3.45156">
        <ele>862.3</ele>
        <time>2020-08-15T13:15:41Z</time>
      </trkpt>
      <trkpt lat="45.4216" lon="3.45087">
        <ele>856.7</ele>
        <time>2020-08-15T13:15:51Z</time>
      </trkpt>
      <trkpt lat="45.42055" lon="3.45073">
        <ele>845.1</ele>
        <time>2020-08-15T13:16:06Z</time>
      </trkpt>
      <trkpt lat="45.42015" lon="3.44945">
        <ele>830.8</ele>
        <time>2020-08-15T13:16:41Z</time>
      </trkpt>
      <trkpt lat="45.41929" lon="3.44835">
        <ele>823.4</ele>
        <time>2020-08-15T13:17:01Z</time>
      </trkpt>
      <trkpt lat="45.41873" lon="3.4469">
        <ele>823.1</ele>
        <time>2020-08-15T13:17:21Z</time>
      </trkpt>
      <trkpt lat="45.41825" lon="3.44546">
        <ele>819.8</ele>
        <time>2020-08-15T13:17:36Z</time>
      </trkpt>
      <trkpt lat="45.41702" lon="3.44466">
        <ele>817.3</ele>
        <time>2020-08-15T13:17:51Z</time>
      </trkpt>
      <trkpt lat="45.41648" lon="3.44359">
        <ele>811.4</ele>
        <time>2020-08-15T13:18:01Z</time>
      </trkpt>
      <trkpt lat="45.41571" lon="3.44221">
        <ele>802.4</ele>
        <time>2020-08-15T13:18:16Z</time>
      </trkpt>
      <trkpt lat="45.41503" lon="3.44098">
        <ele>794.5</ele>
        <time>2020-08-15T13:18:31Z</time>
      </trkpt>
      <trkpt lat="45.41454" lon="3.43979">
        <ele>791.8</ele>
        <time>2020-08-15T13:18:56Z</time>
      </trkpt>
      <trkpt lat="45.41443" lon="3.43823">
        <ele>779.8</ele>
        <time>2020-08-15T13:19:26Z</time>
      </trkpt>
      <trkpt lat="45.41399" lon="3.43657">
        <ele>772.3</ele>
        <time>2020-08-15T13:19:42Z</time>
      </trkpt>
      <trkpt lat="45.41396" lon="3.43524">
        <ele>769.2</ele>
        <time>2020-08-15T13:19:57Z</time>
      </trkpt>
      <trkpt lat="45.41328" lon="3.43406">
        <ele>767.5</ele>
        <time>2020-08-15T13:20:27Z</time>
      </trkpt>
      <trkpt lat="45.41245" lon="3.43305">
        <ele>767.1</ele>
        <time>2020-08-15T13:20:57Z</time>
      </trkpt>
      <trkpt lat="45.41167" lon="3.4322">
        <ele>765.5</ele>
        <time>2020-08-15T13:21:22Z</time>
      </trkpt>
      <trkpt lat="45.41174" lon="3.43043">
        <ele>762.2</ele>
        <time>2020-08-15T13:21:42Z</time>
      </trkpt>
      <trkpt lat="45.41176" lon="3.42889">
        <ele>760.6</ele>
        <time>2020-08-15T13:21:57Z</time>
      </trkpt>
      <trkpt lat="45.41119" lon="3.42748">
        <ele>758.5</ele>
        <time>2020-08-15T13:22:12Z</time>
      </trkpt>
      <trkpt lat="45.41108" lon="3.42605">
        <ele>758.7</ele>
        <time>2020-08-15T13:22:27Z</time>
      </trkpt>
      <trkpt lat="45.41183" lon="3.42483">
        <ele>757.2</ele>
        <time>2020-08-15T13:22:42Z</time>
      </trkpt>
      <trkpt lat="45.41268" lon="3.4242">
        <ele>755.2</ele>
        <time>2020-08-15T13:22:57Z</time>
      </trkpt>
      <trkpt lat="45.4137" lon="3.42364">
        <ele>752.9</ele>
        <time>2020-08-15T13:23:17Z</time>
      </trkpt>
      <trkpt lat="45.41299" lon="3.42258">
        <ele>749.9</ele>
        <time>2020-08-15T13:24:14Z</time>
      </trkpt>
      <trkpt lat="45.41203" lon="3.42214">
        <ele>749.1</ele>
        <time>2020-08-15T13:24:34Z</time>
      </trkpt>
      <trkpt lat="45.41114" lon="3.42141">
        <ele>748.1</ele>
        <time>2020-08-15T13:24:54Z</time>
      </trkpt>
      <trkpt lat="45.41208" lon="3.42043">
        <ele>746.8</ele>
        <time>2020-08-15T13:25:14Z</time>
      </trkpt>
      <trkpt lat="45.41275" lon="3.4194">
        <ele>743.6</ele>
        <time>2020-08-15T13:25:29Z</time>
      </trkpt>
      <trkpt lat="45.41243" lon="3.41777">
        <ele>737</ele>
        <time>2020-08-15T13:25:49Z</time>
      </trkpt>
      <trkpt lat="45.41181" lon="3.41632">
        <ele>732.8</ele>
        <time>2020-08-15T13:26:04Z</time>
      </trkpt>
      <trkpt lat="45.41149" lon="3.41505">
        <ele>731.2</ele>
        <time>2020-08-15T13:26:19Z</time>
      </trkpt>
      <trkpt lat="45.41137" lon="3.41362">
        <ele>728.3</ele>
        <time>2020-08-15T13:27:06Z</time>
      </trkpt>
      <trkpt lat="45.41087" lon="3.41217">
        <ele>722.1</ele>
        <time>2020-08-15T13:27:36Z</time>
      </trkpt>
      <trkpt lat="45.4104" lon="3.41067">
        <ele>720.4</ele>
        <time>2020-08-15T13:27:51Z</time>
      </trkpt>
      <trkpt lat="45.41062" lon="3.40923">
        <ele>720.3</ele>
        <time>2020-08-15T13:28:11Z</time>
      </trkpt>
      <trkpt lat="45.41079" lon="3.40797">
        <ele>720</ele>
        <time>2020-08-15T13:28:46Z</time>
      </trkpt>
      <trkpt lat="45.41009" lon="3.40695">
        <ele>717.9</ele>
        <time>2020-08-15T13:29:16Z</time>
      </trkpt>
      <trkpt lat="45.40998" lon="3.4056">
        <ele>716.5</ele>
        <time>2020-08-15T13:29:36Z</time>
      </trkpt>
      <trkpt lat="45.40969" lon="3.40432">
        <ele>715.5</ele>
        <time>2020-08-15T13:29:56Z</time>
      </trkpt>
      <trkpt lat="45.40882" lon="3.40364">
        <ele>715.6</ele>
        <time>2020-08-15T13:35:41Z</time>
      </trkpt>
      <trkpt lat="45.40792" lon="3.403">
        <ele>715.7</ele>
        <time>2020-08-15T13:36:06Z</time>
      </trkpt>
      <trkpt lat="45.4071" lon="3.40219">
        <ele>714.9</ele>
        <time>2020-08-15T13:36:26Z</time>
      </trkpt>
      <trkpt lat="45.40662" lon="3.40095">
        <ele>713.8</ele>
        <time>2020-08-15T13:36:41Z</time>
      </trkpt>
      <trkpt lat="45.40618" lon="3.39922">
        <ele>712.5</ele>
        <time>2020-08-15T13:36:56Z</time>
      </trkpt>
      <trkpt lat="45.40621" lon="3.39784">
        <ele>711.2</ele>
        <time>2020-08-15T13:37:06Z</time>
      </trkpt>
      <trkpt lat="45.4069" lon="3.39678">
        <ele>711</ele>
        <time>2020-08-15T13:37:16Z</time>
      </trkpt>
      <trkpt lat="45.40746" lon="3.39526">
        <ele>710.2</ele>
        <time>2020-08-15T13:37:31Z</time>
      </trkpt>
      <trkpt lat="45.40808" lon="3.39414">
        <ele>707.9</ele>
        <time>2020-08-15T13:37:51Z</time>
      </trkpt>
      <trkpt lat="45.40809" lon="3.39277">
        <ele>703.2</ele>
        <time>2020-08-15T13:38:06Z</time>
      </trkpt>
      <trkpt lat="45.40724" lon="3.3921">
        <ele>694.5</ele>
        <time>2020-08-15T13:38:16Z</time>
      </trkpt>
      <trkpt lat="45.40741" lon="3.39038">
        <ele>688</ele>
        <time>2020-08-15T13:38:31Z</time>
      </trkpt>
      <trkpt lat="45.40791" lon="3.3891">
        <ele>684.2</ele>
        <time>2020-08-15T13:38:41Z</time>
      </trkpt>
      <trkpt lat="45.40684" lon="3.38789">
        <ele>674.4</ele>
        <time>2020-08-15T13:38:56Z</time>
      </trkpt>
      <trkpt lat="45.40635" lon="3.38635">
        <ele>664.3</ele>
        <time>2020-08-15T13:39:11Z</time>
      </trkpt>
      <trkpt lat="45.40613" lon="3.38486">
        <ele>653</ele>
        <time>2020-08-15T13:39:26Z</time>
      </trkpt>
      <trkpt lat="45.40505" lon="3.38399">
        <ele>642.5</ele>
        <time>2020-08-15T13:39:41Z</time>
      </trkpt>
      <trkpt lat="45.40421" lon="3.38269">
        <ele>631.1</ele>
        <time>2020-08-15T13:39:56Z</time>
      </trkpt>
      <trkpt lat="45.40309" lon="3.38189">
        <ele>617.7</ele>
        <time>2020-08-15T13:40:11Z</time>
      </trkpt>
      <trkpt lat="45.40216" lon="3.38137">
        <ele>605.8</ele>
        <time>2020-08-15T13:40:21Z</time>
      </trkpt>
      <trkpt lat="45.40148" lon="3.38038">
        <ele>598</ele>
        <time>2020-08-15T13:40:31Z</time>
      </trkpt>
      <trkpt lat="45.40098" lon="3.37925">
        <ele>591.2</ele>
        <time>2020-08-15T13:40:41Z</time>
      </trkpt>
      <trkpt lat="45.39997" lon="3.37952">
        <ele>579.3</ele>
        <time>2020-08-15T13:41:06Z</time>
      </trkpt>
      <trkpt lat="45.39909" lon="3.38026">
        <ele>571.4</ele>
        <time>2020-08-15T13:41:16Z</time>
      </trkpt>
      <trkpt lat="45.39803" lon="3.38017">
        <ele>561.1</ele>
        <time>2020-08-15T13:41:26Z</time>
      </trkpt>
      <trkpt lat="45.39724" lon="3.37947">
        <ele>555.2</ele>
        <time>2020-08-15T13:41:36Z</time>
      </trkpt>
      <trkpt lat="45.39628" lon="3.37882">
        <ele>546.1</ele>
        <time>2020-08-15T13:41:46Z</time>
      </trkpt>
      <trkpt lat="45.39547" lon="3.37818">
        <ele>540</ele>
        <time>2020-08-15T13:41:56Z</time>
      </trkpt>
      <trkpt lat="45.39474" lon="3.37726">
        <ele>533.6</ele>
        <time>2020-08-15T13:42:06Z</time>
      </trkpt>
      <trkpt lat="45.39483" lon="3.37582">
        <ele>524.4</ele>
        <time>2020-08-15T13:42:16Z</time>
      </trkpt>
      <trkpt lat="45.39419" lon="3.37472">
        <ele>516.6</ele>
        <time>2020-08-15T13:42:26Z</time>
      </trkpt>
      <trkpt lat="45.39349" lon="3.3737">
        <ele>503.5</ele>
        <time>2020-08-15T13:43:11Z</time>
      </trkpt>
      <trkpt lat="45.39299" lon="3.37241">
        <ele>492.1</ele>
        <time>2020-08-15T13:43:36Z</time>
      </trkpt>
      <trkpt lat="45.39227" lon="3.37113">
        <ele>486.4</ele>
        <time>2020-08-15T13:44:06Z</time>
      </trkpt>
      <trkpt lat="45.39187" lon="3.36982">
        <ele>483.8</ele>
        <time>2020-08-15T13:44:26Z</time>
      </trkpt>
      <trkpt lat="45.39149" lon="3.36829">
        <ele>480.6</ele>
        <time>2020-08-15T13:44:51Z</time>
      </trkpt>
      <trkpt lat="45.39094" lon="3.36722">
        <ele>477.2</ele>
        <time>2020-08-15T13:45:06Z</time>
      </trkpt>
      <trkpt lat="45.39062" lon="3.36577">
        <ele>473.7</ele>
        <time>2020-08-15T13:45:26Z</time>
      </trkpt>
      <trkpt lat="45.38984" lon="3.36452">
        <ele>470.8</ele>
        <time>2020-08-15T13:45:46Z</time>
      </trkpt>
      <trkpt lat="45.38907" lon="3.36357">
        <ele>468.2</ele>
        <time>2020-08-15T13:46:06Z</time>
      </trkpt>
      <trkpt lat="45.38833" lon="3.36268">
        <ele>465.5</ele>
        <time>2020-08-15T13:46:26Z</time>
      </trkpt>
      <trkpt lat="45.38751" lon="3.36197">
        <ele>466.1</ele>
        <time>2020-08-15T13:46:51Z</time>
      </trkpt>
      <trkpt lat="45.38686" lon="3.36053">
        <ele>465</ele>
        <time>2020-08-15T13:47:16Z</time>
      </trkpt>
      <trkpt lat="45.38641" lon="3.35899">
        <ele>463.2</ele>
        <time>2020-08-15T13:47:36Z</time>
      </trkpt>
      <trkpt lat="45.38598" lon="3.35753">
        <ele>462.9</ele>
        <time>2020-08-15T13:48:01Z</time>
      </trkpt>
      <trkpt lat="45.38558" lon="3.35626">
        <ele>462.2</ele>
        <time>2020-08-15T13:48:26Z</time>
      </trkpt>
      <trkpt lat="45.38462" lon="3.35638">
        <ele>460.3</ele>
        <time>2020-08-15T13:48:46Z</time>
      </trkpt>
      <trkpt lat="45.38345" lon="3.35606">
        <ele>459</ele>
        <time>2020-08-15T13:49:06Z</time>
      </trkpt>
      <trkpt lat="45.38235" lon="3.35578">
        <ele>457.6</ele>
        <time>2020-08-15T13:49:26Z</time>
      </trkpt>
      <trkpt lat="45.38137" lon="3.3554">
        <ele>458.1</ele>
        <time>2020-08-15T13:49:46Z</time>
      </trkpt>
      <trkpt lat="45.38044" lon="3.35508">
        <ele>459.3</ele>
        <time>2020-08-15T13:50:11Z</time>
      </trkpt>
      <trkpt lat="45.37943" lon="3.35493">
        <ele>460.6</ele>
        <time>2020-08-15T13:50:36Z</time>
      </trkpt>
      <trkpt lat="45.37849" lon="3.35497">
        <ele>460.5</ele>
        <time>2020-08-15T13:50:56Z</time>
      </trkpt>
      <trkpt lat="45.37765" lon="3.3555">
        <ele>460.3</ele>
        <time>2020-08-15T13:51:16Z</time>
      </trkpt>
      <trkpt lat="45.37661" lon="3.35568">
        <ele>459.3</ele>
        <time>2020-08-15T13:51:41Z</time>
      </trkpt>
      <trkpt lat="45.37574" lon="3.35489">
        <ele>458.8</ele>
        <time>2020-08-15T13:52:06Z</time>
      </trkpt>
      <trkpt lat="45.37506" lon="3.35372">
        <ele>457.3</ele>
        <time>2020-08-15T13:52:26Z</time>
      </trkpt>
      <trkpt lat="45.37472" lon="3.35243">
        <ele>457.7</ele>
        <time>2020-08-15T13:52:46Z</time>
      </trkpt>
      <trkpt lat="45.37454" lon="3.35101">
        <ele>458.8</ele>
        <time>2020-08-15T13:53:11Z</time>
      </trkpt>
      <trkpt lat="45.3745" lon="3.34972">
        <ele>459.5</ele>
        <time>2020-08-15T13:53:36Z</time>
      </trkpt>
      <trkpt lat="45.37404" lon="3.34852">
        <ele>460.4</ele>
        <time>2020-08-15T13:54:16Z</time>
      </trkpt>
      <trkpt lat="45.37387" lon="3.34714">
        <ele>461.3</ele>
        <time>2020-08-15T13:54:51Z</time>
      </trkpt>
      <trkpt lat="45.37298" lon="3.34634">
        <ele>460.3</ele>
        <time>2020-08-15T13:55:26Z</time>
      </trkpt>
      <trkpt lat="45.37211" lon="3.3467">
        <ele>458.6</ele>
        <time>2020-08-15T13:55:41Z</time>
      </trkpt>
      <trkpt lat="45.3711" lon="3.34702">
        <ele>457.3</ele>
        <time>2020-08-15T13:55:56Z</time>
      </trkpt>
      <trkpt lat="45.37014" lon="3.34739">
        <ele>456.5</ele>
        <time>2020-08-15T13:56:10Z</time>
      </trkpt>
      <trkpt lat="45.36927" lon="3.34784">
        <ele>456</ele>
        <time>2020-08-15T13:56:25Z</time>
      </trkpt>
      <trkpt lat="45.36827" lon="3.34858">
        <ele>455.9</ele>
        <time>2020-08-15T13:56:45Z</time>
      </trkpt>
      <trkpt lat="45.36736" lon="3.34927">
        <ele>455.6</ele>
        <time>2020-08-15T13:57:05Z</time>
      </trkpt>
      <trkpt lat="45.36656" lon="3.35004">
        <ele>455.2</ele>
        <time>2020-08-15T13:57:25Z</time>
      </trkpt>
      <trkpt lat="45.36574" lon="3.35069">
        <ele>455.1</ele>
        <time>2020-08-15T13:57:45Z</time>
      </trkpt>
      <trkpt lat="45.36486" lon="3.35107">
        <ele>455.4</ele>
        <time>2020-08-15T13:58:05Z</time>
      </trkpt>
      <trkpt lat="45.36386" lon="3.35155">
        <ele>455.7</ele>
        <time>2020-08-15T13:58:30Z</time>
      </trkpt>
      <trkpt lat="45.36285" lon="3.35211">
        <ele>456.8</ele>
        <time>2020-08-15T13:58:55Z</time>
      </trkpt>
      <trkpt lat="45.36181" lon="3.35264">
        <ele>456.4</ele>
        <time>2020-08-15T13:59:15Z</time>
      </trkpt>
      <trkpt lat="45.36084" lon="3.35319">
        <ele>456.3</ele>
        <time>2020-08-15T13:59:35Z</time>
      </trkpt>
      <trkpt lat="45.35992" lon="3.35368">
        <ele>456.4</ele>
        <time>2020-08-15T13:59:55Z</time>
      </trkpt>
      <trkpt lat="45.35899" lon="3.35401">
        <ele>456.4</ele>
        <time>2020-08-15T14:00:15Z</time>
      </trkpt>
      <trkpt lat="45.35809" lon="3.35447">
        <ele>456.5</ele>
        <time>2020-08-15T14:00:35Z</time>
      </trkpt>
      <trkpt lat="45.35725" lon="3.35511">
        <ele>456.6</ele>
        <time>2020-08-15T14:00:55Z</time>
      </trkpt>
      <trkpt lat="45.3563" lon="3.35551">
        <ele>456.9</ele>
        <time>2020-08-15T14:01:15Z</time>
      </trkpt>
      <trkpt lat="45.35535" lon="3.35597">
        <ele>457.4</ele>
        <time>2020-08-15T14:01:35Z</time>
      </trkpt>
      <trkpt lat="45.35444" lon="3.3565">
        <ele>458.1</ele>
        <time>2020-08-15T14:02:00Z</time>
      </trkpt>
      <trkpt lat="45.35358" lon="3.35687">
        <ele>458.6</ele>
        <time>2020-08-15T14:02:25Z</time>
      </trkpt>
      <trkpt lat="45.35258" lon="3.35731">
        <ele>459.1</ele>
        <time>2020-08-15T14:02:50Z</time>
      </trkpt>
      <trkpt lat="45.35173" lon="3.35782">
        <ele>458.6</ele>
        <time>2020-08-15T14:09:45Z</time>
      </trkpt>
      <trkpt lat="45.35083" lon="3.35846">
        <ele>457.8</ele>
        <time>2020-08-15T14:10:10Z</time>
      </trkpt>
      <trkpt lat="45.35037" lon="3.35964">
        <ele>457.5</ele>
        <time>2020-08-15T14:10:35Z</time>
      </trkpt>
      <trkpt lat="45.34974" lon="3.36077">
        <ele>457.4</ele>
        <time>2020-08-15T14:11:00Z</time>
      </trkpt>
      <trkpt lat="45.34883" lon="3.36161">
        <ele>457.4</ele>
        <time>2020-08-15T14:11:25Z</time>
      </trkpt>
      <trkpt lat="45.34801" lon="3.36211">
        <ele>457.4</ele>
        <time>2020-08-15T14:11:45Z</time>
      </trkpt>
      <trkpt lat="45.34717" lon="3.36313">
        <ele>457.5</ele>
        <time>2020-08-15T14:12:10Z</time>
      </trkpt>
      <trkpt lat="45.34642" lon="3.3638">
        <ele>457.6</ele>
        <time>2020-08-15T14:12:30Z</time>
      </trkpt>
      <trkpt lat="45.34562" lon="3.36442">
        <ele>457.7</ele>
        <time>2020-08-15T14:12:50Z</time>
      </trkpt>
      <trkpt lat="45.34481" lon="3.36496">
        <ele>457.8</ele>
        <time>2020-08-15T14:13:10Z</time>
      </trkpt>
      <trkpt lat="45.34395" lon="3.36584">
        <ele>458.2</ele>
        <time>2020-08-15T14:13:35Z</time>
      </trkpt>
      <trkpt lat="45.34326" lon="3.36706">
        <ele>458.7</ele>
        <time>2020-08-15T14:14:00Z</time>
      </trkpt>
      <trkpt lat="45.34264" lon="3.36799">
        <ele>458.8</ele>
        <time>2020-08-15T14:14:25Z</time>
      </trkpt>
      <trkpt lat="45.34183" lon="3.36873">
        <ele>458.8</ele>
        <time>2020-08-15T14:14:45Z</time>
      </trkpt>
      <trkpt lat="45.3411" lon="3.36971">
        <ele>458.8</ele>
        <time>2020-08-15T14:15:05Z</time>
      </trkpt>
      <trkpt lat="45.34037" lon="3.37057">
        <ele>458.9</ele>
        <time>2020-08-15T14:15:25Z</time>
      </trkpt>
      <trkpt lat="45.33948" lon="3.37099">
        <ele>458.9</ele>
        <time>2020-08-15T14:15:45Z</time>
      </trkpt>
      <trkpt lat="45.33856" lon="3.37138">
        <ele>458.8</ele>
        <time>2020-08-15T14:16:05Z</time>
      </trkpt>
      <trkpt lat="45.33762" lon="3.3717">
        <ele>458.8</ele>
        <time>2020-08-15T14:16:25Z</time>
      </trkpt>
      <trkpt lat="45.33663" lon="3.37169">
        <ele>459</ele>
        <time>2020-08-15T14:16:50Z</time>
      </trkpt>
      <trkpt lat="45.33623" lon="3.3705">
        <ele>459.2</ele>
        <time>2020-08-15T14:17:15Z</time>
      </trkpt>
      <trkpt lat="45.33607" lon="3.36908">
        <ele>459.3</ele>
        <time>2020-08-15T14:17:40Z</time>
      </trkpt>
      <trkpt lat="45.33577" lon="3.36782">
        <ele>459.6</ele>
        <time>2020-08-15T14:18:32Z</time>
      </trkpt>
      <trkpt lat="45.33576" lon="3.36649">
        <ele>460.5</ele>
        <time>2020-08-15T14:19:41Z</time>
      </trkpt>
    </trkseg>
  </trk>
  <trk>
    <name><![CDATA[route103]]></name>
    <trkseg>
      <trkpt lat="45.33508" lon="3.3652">
        <ele>474.1</ele>
        <time>2020-08-16T06:22:16Z</time>
      </trkpt>
      <trkpt lat="45.33417" lon="3.3653">
        <ele>472.8</ele>
        <time>2020-08-16T06:22:41Z</time>
      </trkpt>
      <trkpt lat="45.3333" lon="3.36565">
        <ele>472.2</ele>
        <time>2020-08-16T06:23:06Z</time>
      </trkpt>
      <trkpt lat="45.33239" lon="3.36604">
        <ele>472.1</ele>
        <time>2020-08-16T06:23:36Z</time>
      </trkpt>
      <trkpt lat="45.33153" lon="3.3664">
        <ele>472.2</ele>
        <time>2020-08-16T06:24:01Z</time>
      </trkpt>
      <trkpt lat="45.33067" lon="3.36677">
        <ele>472.1</ele>
        <time>2020-08-16T06:24:26Z</time>
      </trkpt>
      <trkpt lat="45.32976" lon="3.36715">
        <ele>471.8</ele>
        <time>2020-08-16T06:24:51Z</time>
      </trkpt>
      <trkpt lat="45.32876" lon="3.36758">
        <ele>471.9</ele>
        <time>2020-08-16T06:25:16Z</time>
      </trkpt>
      <trkpt lat="45.32781" lon="3.36796">
        <ele>472.1</ele>
        <time>2020-08-16T06:25:41Z</time>
      </trkpt>
      <trkpt lat="45.32686" lon="3.36838">
        <ele>472.1</ele>
        <time>2020-08-16T06:26:06Z</time>
      </trkpt>
      <trkpt lat="45.32589" lon="3.36879">
        <ele>472.4</ele>
        <time>2020-08-16T06:26:31Z</time>
      </trkpt>
      <trkpt lat="45.3249" lon="3.36921">
        <ele>472.6</ele>
        <time>2020-08-16T06:26:56Z</time>
      </trkpt>
      <trkpt lat="45.32391" lon="3.36962">
        <ele>472.9</ele>
        <time>2020-08-16T06:27:21Z</time>
      </trkpt>
      <trkpt lat="45.32295" lon="3.37003">
        <ele>473</ele>
        <time>2020-08-16T06:27:46Z</time>
      </trkpt>
      <trkpt lat="45.32208" lon="3.37037">
        <ele>473.2</ele>
        <time>2020-08-16T06:28:11Z</time>
      </trkpt>
      <trkpt lat="45.32118" lon="3.37076">
        <ele>473.7</ele>
        <time>2020-08-16T06:28:36Z</time>
      </trkpt>
      <trkpt lat="45.32105" lon="3.37221">
        <ele>473.4</ele>
        <time>2020-08-16T06:29:01Z</time>
      </trkpt>
      <trkpt lat="45.32024" lon="3.3728">
        <ele>472.8</ele>
        <time>2020-08-16T06:29:16Z</time>
      </trkpt>
      <trkpt lat="45.31938" lon="3.3734">
        <ele>472</ele>
        <time>2020-08-16T06:29:31Z</time>
      </trkpt>
      <trkpt lat="45.31882" lon="3.37477">
        <ele>470.9</ele>
        <time>2020-08-16T06:29:51Z</time>
      </trkpt>
      <trkpt lat="45.31841" lon="3.37615">
        <ele>469</ele>
        <time>2020-08-16T06:30:11Z</time>
      </trkpt>
      <trkpt lat="45.31805" lon="3.37752">
        <ele>468.5</ele>
        <time>2020-08-16T06:30:31Z</time>
      </trkpt>
      <trkpt lat="45.3177" lon="3.3788">
        <ele>467.7</ele>
        <time>2020-08-16T06:30:51Z</time>
      </trkpt>
      <trkpt lat="45.31735" lon="3.38007">
        <ele>467.6</ele>
        <time>2020-08-16T06:31:11Z</time>
      </trkpt>
      <trkpt lat="45.31699" lon="3.38134">
        <ele>467.8</ele>
        <time>2020-08-16T06:31:31Z</time>
      </trkpt>
      <trkpt lat="45.31665" lon="3.38257">
        <ele>467.6</ele>
        <time>2020-08-16T06:31:51Z</time>
      </trkpt>
      <trkpt lat="45.31633" lon="3.38376">
        <ele>467.1</ele>
        <time>2020-08-16T06:32:11Z</time>
      </trkpt>
      <trkpt lat="45.31594" lon="3.38519">
        <ele>466.9</ele>
        <time>2020-08-16T06:32:36Z</time>
      </trkpt>
      <trkpt lat="45.31555" lon="3.3866">
        <ele>466.9</ele>
        <time>2020-08-16T06:33:01Z</time>
      </trkpt>
      <trkpt lat="45.31513" lon="3.38798">
        <ele>467</ele>
        <time>2020-08-16T06:33:26Z</time>
      </trkpt>
      <trkpt lat="45.31457" lon="3.38929">
        <ele>467.1</ele>
        <time>2020-08-16T06:33:51Z</time>
      </trkpt>
      <trkpt lat="45.31392" lon="3.39043">
        <ele>467.6</ele>
        <time>2020-08-16T06:34:16Z</time>
      </trkpt>
      <trkpt lat="45.31324" lon="3.3914">
        <ele>467.8</ele>
        <time>2020-08-16T06:34:42Z</time>
      </trkpt>
      <trkpt lat="45.31247" lon="3.39224">
        <ele>468</ele>
        <time>2020-08-16T06:35:07Z</time>
      </trkpt>
      <trkpt lat="45.31166" lon="3.39292">
        <ele>468.1</ele>
        <time>2020-08-16T06:35:32Z</time>
      </trkpt>
      <trkpt lat="45.3108" lon="3.39346">
        <ele>468.1</ele>
        <time>2020-08-16T06:35:57Z</time>
      </trkpt>
      <trkpt lat="45.3099" lon="3.39386">
        <ele>467.9</ele>
        <time>2020-08-16T06:36:22Z</time>
      </trkpt>
      <trkpt lat="45.309" lon="3.39412">
        <ele>467.9</ele>
        <time>2020-08-16T06:36:47Z</time>
      </trkpt>
      <trkpt lat="45.30807" lon="3.39445">
        <ele>467.5</ele>
        <time>2020-08-16T06:37:12Z</time>
      </trkpt>
      <trkpt lat="45.30714" lon="3.3948">
        <ele>467.3</ele>
        <time>2020-08-16T06:37:37Z</time>
      </trkpt>
      <trkpt lat="45.30622" lon="3.39516">
        <ele>467.1</ele>
        <time>2020-08-16T06:38:02Z</time>
      </trkpt>
      <trkpt lat="45.30532" lon="3.39554">
        <ele>467.1</ele>
        <time>2020-08-16T06:38:27Z</time>
      </trkpt>
      <trkpt lat="45.30441" lon="3.39596">
        <ele>467</ele>
        <time>2020-08-16T06:38:52Z</time>
      </trkpt>
      <trkpt lat="45.30352" lon="3.39641">
        <ele>466.9</ele>
        <time>2020-08-16T06:39:17Z</time>
      </trkpt>
      <trkpt lat="45.30264" lon="3.39687">
        <ele>466.9</ele>
        <time>2020-08-16T06:39:42Z</time>
      </trkpt>
      <trkpt lat="45.30175" lon="3.39737">
        <ele>466.8</ele>
        <time>2020-08-16T06:40:07Z</time>
      </trkpt>
      <trkpt lat="45.30083" lon="3.39794">
        <ele>466.9</ele>
        <time>2020-08-16T06:40:32Z</time>
      </trkpt>
      <trkpt lat="45.29992" lon="3.3981">
        <ele>467.1</ele>
        <time>2020-08-16T06:40:57Z</time>
      </trkpt>
      <trkpt lat="45.30022" lon="3.39951">
        <ele>466.9</ele>
        <time>2020-08-16T06:41:32Z</time>
      </trkpt>
      <trkpt lat="45.30081" lon="3.40058">
        <ele>466.6</ele>
        <time>2020-08-16T06:41:52Z</time>
      </trkpt>
      <trkpt lat="45.30147" lon="3.40186">
        <ele>466.3</ele>
        <time>2020-08-16T06:42:17Z</time>
      </trkpt>
      <trkpt lat="45.30216" lon="3.40311">
        <ele>466.3</ele>
        <time>2020-08-16T06:42:42Z</time>
      </trkpt>
      <trkpt lat="45.30275" lon="3.40444">
        <ele>466.7</ele>
        <time>2020-08-16T06:43:07Z</time>
      </trkpt>
      <trkpt lat="45.30309" lon="3.4058">
        <ele>467</ele>
        <time>2020-08-16T06:43:47Z</time>
      </trkpt>
      <trkpt lat="45.30326" lon="3.40721">
        <ele>468.3</ele>
        <time>2020-08-16T06:44:17Z</time>
      </trkpt>
      <trkpt lat="45.30245" lon="3.40834">
        <ele>468.6</ele>
        <time>2020-08-16T06:44:37Z</time>
      </trkpt>
      <trkpt lat="45.30155" lon="3.4089">
        <ele>469.4</ele>
        <time>2020-08-16T06:44:57Z</time>
      </trkpt>
      <trkpt lat="45.30064" lon="3.40957">
        <ele>471.7</ele>
        <time>2020-08-16T06:45:22Z</time>
      </trkpt>
      <trkpt lat="45.29979" lon="3.41034">
        <ele>472.1</ele>
        <time>2020-08-16T06:45:47Z</time>
      </trkpt>
      <trkpt lat="45.29904" lon="3.41103">
        <ele>472.7</ele>
        <time>2020-08-16T06:46:12Z</time>
      </trkpt>
      <trkpt lat="45.29822" lon="3.41177">
        <ele>473.4</ele>
        <time>2020-08-16T06:46:42Z</time>
      </trkpt>
      <trkpt lat="45.29735" lon="3.41245">
        <ele>474.5</ele>
        <time>2020-08-16T06:47:12Z</time>
      </trkpt>
      <trkpt lat="45.29633" lon="3.41275">
        <ele>475.3</ele>
        <time>2020-08-16T06:48:23Z</time>
      </trkpt>
      <trkpt lat="45.29536" lon="3.41301">
        <ele>475.6</ele>
        <time>2020-08-16T06:48:48Z</time>
      </trkpt>
      <trkpt lat="45.29435" lon="3.41337">
        <ele>474.9</ele>
        <time>2020-08-16T06:49:13Z</time>
      </trkpt>
      <trkpt lat="45.29333" lon="3.41363">
        <ele>475</ele>
        <time>2020-08-16T06:49:38Z</time>
      </trkpt>
      <trkpt lat="45.29245" lon="3.41432">
        <ele>474.9</ele>
        <time>2020-08-16T06:50:03Z</time>
      </trkpt>
      <trkpt lat="45.29168" lon="3.41514">
        <ele>474.6</ele>
        <time>2020-08-16T06:50:28Z</time>
      </trkpt>
      <trkpt lat="45.29087" lon="3.416">
        <ele>474.3</ele>
        <time>2020-08-16T06:50:53Z</time>
      </trkpt>
      <trkpt lat="45.29009" lon="3.4167">
        <ele>474.1</ele>
        <time>2020-08-16T06:51:40Z</time>
      </trkpt>
      <trkpt lat="45.28934" lon="3.41766">
        <ele>474</ele>
        <time>2020-08-16T06:52:05Z</time>
      </trkpt>
      <trkpt lat="45.28857" lon="3.4183">
        <ele>474.3</ele>
        <time>2020-08-16T06:52:40Z</time>
      </trkpt>
      <trkpt lat="45.28841" lon="3.41962">
        <ele>475.3</ele>
        <time>2020-08-16T06:53:25Z</time>
      </trkpt>
      <trkpt lat="45.28859" lon="3.42102">
        <ele>476.5</ele>
        <time>2020-08-16T06:54:16Z</time>
      </trkpt>
      <trkpt lat="45.28883" lon="3.42241">
        <ele>477.6</ele>
        <time>2020-08-16T06:54:56Z</time>
      </trkpt>
      <trkpt lat="45.28881" lon="3.42389">
        <ele>478.5</ele>
        <time>2020-08-16T06:55:31Z</time>
      </trkpt>
      <trkpt lat="45.28832" lon="3.42505">
        <ele>479.8</ele>
        <time>2020-08-16T06:56:11Z</time>
      </trkpt>
      <trkpt lat="45.28754" lon="3.42566">
        <ele>481.6</ele>
        <time>2020-08-16T06:56:54Z</time>
      </trkpt>
      <trkpt lat="45.28674" lon="3.42642">
        <ele>484.6</ele>
        <time>2020-08-16T06:57:46Z</time>
      </trkpt>
      <trkpt lat="45.28592" lon="3.42696">
        <ele>487.2</ele>
        <time>2020-08-16T06:58:37Z</time>
      </trkpt>
      <trkpt lat="45.28492" lon="3.42726">
        <ele>489.5</ele>
        <time>2020-08-16T06:59:12Z</time>
      </trkpt>
      <trkpt lat="45.28412" lon="3.42805">
        <ele>491.8</ele>
        <time>2020-08-16T06:59:47Z</time>
      </trkpt>
      <trkpt lat="45.28362" lon="3.42916">
        <ele>493.3</ele>
        <time>2020-08-16T07:00:17Z</time>
      </trkpt>
      <trkpt lat="45.28312" lon="3.43022">
        <ele>494.6</ele>
        <time>2020-08-16T07:00:47Z</time>
      </trkpt>
      <trkpt lat="45.28268" lon="3.43133">
        <ele>495.8</ele>
        <time>2020-08-16T07:01:17Z</time>
      </trkpt>
      <trkpt lat="45.28224" lon="3.43264">
        <ele>500.5</ele>
        <time>2020-08-16T07:05:55Z</time>
      </trkpt>
      <trkpt lat="45.28184" lon="3.43383">
        <ele>502.2</ele>
        <time>2020-08-16T07:06:25Z</time>
      </trkpt>
      <trkpt lat="45.28144" lon="3.43505">
        <ele>504.1</ele>
        <time>2020-08-16T07:07:11Z</time>
      </trkpt>
      <trkpt lat="45.28102" lon="3.43624">
        <ele>505.8</ele>
        <time>2020-08-16T07:08:02Z</time>
      </trkpt>
      <trkpt lat="45.28048" lon="3.43739">
        <ele>507.3</ele>
        <time>2020-08-16T07:08:32Z</time>
      </trkpt>
      <trkpt lat="45.28004" lon="3.43851">
        <ele>508.4</ele>
        <time>2020-08-16T07:08:57Z</time>
      </trkpt>
      <trkpt lat="45.27963" lon="3.4398">
        <ele>509.5</ele>
        <time>2020-08-16T07:09:37Z</time>
      </trkpt>
      <trkpt lat="45.27919" lon="3.44097">
        <ele>511.1</ele>
        <time>2020-08-16T07:10:17Z</time>
      </trkpt>
      <trkpt lat="45.27861" lon="3.44203">
        <ele>512.4</ele>
        <time>2020-08-16T07:10:47Z</time>
      </trkpt>
      <trkpt lat="45.27778" lon="3.44287">
        <ele>513.8</ele>
        <time>2020-08-16T07:11:17Z</time>
      </trkpt>
      <trkpt lat="45.27697" lon="3.44368">
        <ele>515.1</ele>
        <time>2020-08-16T07:11:47Z</time>
      </trkpt>
      <trkpt lat="45.2761" lon="3.44406">
        <ele>516.4</ele>
        <time>2020-08-16T07:12:17Z</time>
      </trkpt>
      <trkpt lat="45.27536" lon="3.44507">
        <ele>519.6</ele>
        <time>2020-08-16T07:12:47Z</time>
      </trkpt>
      <trkpt lat="45.27485" lon="3.44641">
        <ele>520.6</ele>
        <time>2020-08-16T07:13:12Z</time>
      </trkpt>
      <trkpt lat="45.27461" lon="3.44766">
        <ele>520.9</ele>
        <time>2020-08-16T07:13:37Z</time>
      </trkpt>
      <trkpt lat="45.27457" lon="3.44896">
        <ele>521.7</ele>
        <time>2020-08-16T07:14:14Z</time>
      </trkpt>
      <trkpt lat="45.27433" lon="3.45031">
        <ele>524.3</ele>
        <time>2020-08-16T07:15:14Z</time>
      </trkpt>
      <trkpt lat="45.27396" lon="3.45152">
        <ele>526.9</ele>
        <time>2020-08-16T07:15:50Z</time>
      </trkpt>
      <trkpt lat="45.27356" lon="3.4527">
        <ele>529</ele>
        <time>2020-08-16T07:16:05Z</time>
      </trkpt>
      <trkpt lat="45.27282" lon="3.45414">
        <ele>529.5</ele>
        <time>2020-08-16T07:16:20Z</time>
      </trkpt>
      <trkpt lat="45.27221" lon="3.45552">
        <ele>530.7</ele>
        <time>2020-08-16T07:16:35Z</time>
      </trkpt>
      <trkpt lat="45.27172" lon="3.45665">
        <ele>531.3</ele>
        <time>2020-08-16T07:16:50Z</time>
      </trkpt>
      <trkpt lat="45.27111" lon="3.4577">
        <ele>532.2</ele>
        <time>2020-08-16T07:17:10Z</time>
      </trkpt>
      <trkpt lat="45.27046" lon="3.45855">
        <ele>531.6</ele>
        <time>2020-08-16T07:17:30Z</time>
      </trkpt>
      <trkpt lat="45.26973" lon="3.45931">
        <ele>531.6</ele>
        <time>2020-08-16T07:17:50Z</time>
      </trkpt>
      <trkpt lat="45.26907" lon="3.46018">
        <ele>531.2</ele>
        <time>2020-08-16T07:18:10Z</time>
      </trkpt>
      <trkpt lat="45.2684" lon="3.46134">
        <ele>530.4</ele>
        <time>2020-08-16T07:18:30Z</time>
      </trkpt>
      <trkpt lat="45.2679" lon="3.46257">
        <ele>529.3</ele>
        <time>2020-08-16T07:18:45Z</time>
      </trkpt>
      <trkpt lat="45.26734" lon="3.46397">
        <ele>528.1</ele>
        <time>2020-08-16T07:19:00Z</time>
      </trkpt>
      <trkpt lat="45.2669" lon="3.46523">
        <ele>527.1</ele>
        <time>2020-08-16T07:19:15Z</time>
      </trkpt>
      <trkpt lat="45.26658" lon="3.46644">
        <ele>525.9</ele>
        <time>2020-08-16T07:19:30Z</time>
      </trkpt>
      <trkpt lat="45.26663" lon="3.46797">
        <ele>524.9</ele>
        <time>2020-08-16T07:19:50Z</time>
      </trkpt>
      <trkpt lat="45.26665" lon="3.46939">
        <ele>524.6</ele>
        <time>2020-08-16T07:20:15Z</time>
      </trkpt>
      <trkpt lat="45.2667" lon="3.47074">
        <ele>524.8</ele>
        <time>2020-08-16T07:20:45Z</time>
      </trkpt>
      <trkpt lat="45.26648" lon="3.47228">
        <ele>523.8</ele>
        <time>2020-08-16T07:21:05Z</time>
      </trkpt>
      <trkpt lat="45.26629" lon="3.47359">
        <ele>523.6</ele>
        <time>2020-08-16T07:21:25Z</time>
      </trkpt>
      <trkpt lat="45.26628" lon="3.47489">
        <ele>523.4</ele>
        <time>2020-08-16T07:21:55Z</time>
      </trkpt>
      <trkpt lat="45.26646" lon="3.47623">
        <ele>523.2</ele>
        <time>2020-08-16T07:22:35Z</time>
      </trkpt>
      <trkpt lat="45.26677" lon="3.4777">
        <ele>523.7</ele>
        <time>2020-08-16T07:23:10Z</time>
      </trkpt>
      <trkpt lat="45.26696" lon="3.47909">
        <ele>524</ele>
        <time>2020-08-16T07:23:35Z</time>
      </trkpt>
      <trkpt lat="45.26644" lon="3.48019">
        <ele>524.6</ele>
        <time>2020-08-16T07:24:10Z</time>
      </trkpt>
      <trkpt lat="45.26569" lon="3.4813">
        <ele>526.4</ele>
        <time>2020-08-16T07:24:35Z</time>
      </trkpt>
      <trkpt lat="45.2651" lon="3.48228">
        <ele>526.8</ele>
        <time>2020-08-16T07:24:55Z</time>
      </trkpt>
      <trkpt lat="45.26471" lon="3.48357">
        <ele>526.9</ele>
        <time>2020-08-16T07:25:15Z</time>
      </trkpt>
      <trkpt lat="45.26421" lon="3.48479">
        <ele>527.1</ele>
        <time>2020-08-16T07:25:45Z</time>
      </trkpt>
      <trkpt lat="45.26381" lon="3.48598">
        <ele>527.8</ele>
        <time>2020-08-16T07:26:25Z</time>
      </trkpt>
      <trkpt lat="45.2632" lon="3.48693">
        <ele>528.8</ele>
        <time>2020-08-16T07:27:00Z</time>
      </trkpt>
      <trkpt lat="45.26226" lon="3.48719">
        <ele>530.5</ele>
        <time>2020-08-16T07:32:39Z</time>
      </trkpt>
      <trkpt lat="45.26137" lon="3.48791">
        <ele>531.3</ele>
        <time>2020-08-16T07:33:09Z</time>
      </trkpt>
      <trkpt lat="45.26076" lon="3.48894">
        <ele>532.4</ele>
        <time>2020-08-16T07:33:34Z</time>
      </trkpt>
      <trkpt lat="45.26019" lon="3.49003">
        <ele>532.7</ele>
        <time>2020-08-16T07:33:59Z</time>
      </trkpt>
      <trkpt lat="45.2599" lon="3.4913">
        <ele>532.8</ele>
        <time>2020-08-16T07:34:34Z</time>
      </trkpt>
      <trkpt lat="45.25954" lon="3.49274">
        <ele>533.3</ele>
        <time>2020-08-16T07:35:20Z</time>
      </trkpt>
      <trkpt lat="45.25915" lon="3.49391">
        <ele>533.9</ele>
        <time>2020-08-16T07:35:35Z</time>
      </trkpt>
      <trkpt lat="45.25898" lon="3.49549">
        <ele>533.4</ele>
        <time>2020-08-16T07:35:55Z</time>
      </trkpt>
      <trkpt lat="45.25915" lon="3.49686">
        <ele>535.2</ele>
        <time>2020-08-16T07:36:20Z</time>
      </trkpt>
      <trkpt lat="45.25907" lon="3.49843">
        <ele>535.6</ele>
        <time>2020-08-16T07:36:45Z</time>
      </trkpt>
      <trkpt lat="45.25921" lon="3.49971">
        <ele>535.3</ele>
        <time>2020-08-16T07:37:05Z</time>
      </trkpt>
      <trkpt lat="45.25947" lon="3.50113">
        <ele>535.6</ele>
        <time>2020-08-16T07:37:30Z</time>
      </trkpt>
      <trkpt lat="45.25956" lon="3.5025">
        <ele>536.1</ele>
        <time>2020-08-16T07:38:00Z</time>
      </trkpt>
      <trkpt lat="45.25946" lon="3.50378">
        <ele>536.4</ele>
        <time>2020-08-16T07:38:30Z</time>
      </trkpt>
      <trkpt lat="45.25892" lon="3.50483">
        <ele>537.5</ele>
        <time>2020-08-16T07:38:55Z</time>
      </trkpt>
      <trkpt lat="45.25831" lon="3.50597">
        <ele>538.6</ele>
        <time>2020-08-16T07:39:15Z</time>
      </trkpt>
      <trkpt lat="45.25766" lon="3.50705">
        <ele>539</ele>
        <time>2020-08-16T07:39:45Z</time>
      </trkpt>
      <trkpt lat="45.25677" lon="3.50726">
        <ele>539.7</ele>
        <time>2020-08-16T07:40:15Z</time>
      </trkpt>
      <trkpt lat="45.25592" lon="3.50646">
        <ele>541.1</ele>
        <time>2020-08-16T07:40:44Z</time>
      </trkpt>
      <trkpt lat="45.25507" lon="3.50581">
        <ele>543.9</ele>
        <time>2020-08-16T07:41:09Z</time>
      </trkpt>
      <trkpt lat="45.25404" lon="3.50617">
        <ele>544.4</ele>
        <time>2020-08-16T07:41:39Z</time>
      </trkpt>
      <trkpt lat="45.25338" lon="3.50709">
        <ele>545.1</ele>
        <time>2020-08-16T07:42:04Z</time>
      </trkpt>
      <trkpt lat="45.25267" lon="3.50789">
        <ele>546.5</ele>
        <time>2020-08-16T07:42:29Z</time>
      </trkpt>
      <trkpt lat="45.25179" lon="3.50846">
        <ele>547.5</ele>
        <time>2020-08-16T07:42:54Z</time>
      </trkpt>
      <trkpt lat="45.25113" lon="3.5093">
        <ele>547.9</ele>
        <time>2020-08-16T07:43:24Z</time>
      </trkpt>
      <trkpt lat="45.25089" lon="3.51064">
        <ele>549.2</ele>
        <time>2020-08-16T07:44:25Z</time>
      </trkpt>
      <trkpt lat="45.25039" lon="3.51168">
        <ele>550.4</ele>
        <time>2020-08-16T07:45:18Z</time>
      </trkpt>
      <trkpt lat="45.24975" lon="3.51267">
        <ele>551.6</ele>
        <time>2020-08-16T07:45:58Z</time>
      </trkpt>
      <trkpt lat="45.24932" lon="3.51391">
        <ele>553.3</ele>
        <time>2020-08-16T07:46:43Z</time>
      </trkpt>
      <trkpt lat="45.24858" lon="3.51477">
        <ele>555.5</ele>
        <time>2020-08-16T07:47:49Z</time>
      </trkpt>
      <trkpt lat="45.24764" lon="3.51518">
        <ele>557.9</ele>
        <time>2020-08-16T07:48:58Z</time>
      </trkpt>
      <trkpt lat="45.2468" lon="3.51587">
        <ele>560.2</ele>
        <time>2020-08-16T07:50:00Z</time>
      </trkpt>
      <trkpt lat="45.24597" lon="3.51666">
        <ele>562</ele>
        <time>2020-08-16T07:50:46Z</time>
      </trkpt>
      <trkpt lat="45.24521" lon="3.51732">
        <ele>563.3</ele>
        <time>2020-08-16T07:51:26Z</time>
      </trkpt>
      <trkpt lat="45.24446" lon="3.51814">
        <ele>564.6</ele>
        <time>2020-08-16T07:52:06Z</time>
      </trkpt>
      <trkpt lat="45.24366" lon="3.51906">
        <ele>565.7</ele>
        <time>2020-08-16T07:52:41Z</time>
      </trkpt>
      <trkpt lat="45.24286" lon="3.52002">
        <ele>567.5</ele>
        <time>2020-08-16T07:53:11Z</time>
      </trkpt>
      <trkpt lat="45.24203" lon="3.52073">
        <ele>568</ele>
        <time>2020-08-16T07:53:41Z</time>
      </trkpt>
      <trkpt lat="45.24104" lon="3.52083">
        <ele>569.6</ele>
        <time>2020-08-16T07:54:06Z</time>
      </trkpt>
      <trkpt lat="45.24012" lon="3.52144">
        <ele>570.7</ele>
        <time>2020-08-16T07:54:31Z</time>
      </trkpt>
      <trkpt lat="45.23924" lon="3.52191">
        <ele>571.5</ele>
        <time>2020-08-16T07:54:46Z</time>
      </trkpt>
      <trkpt lat="45.23816" lon="3.52218">
        <ele>572.3</ele>
        <time>2020-08-16T07:55:01Z</time>
      </trkpt>
      <trkpt lat="45.23719" lon="3.52245">
        <ele>573.3</ele>
        <time>2020-08-16T07:55:16Z</time>
      </trkpt>
      <trkpt lat="45.23626" lon="3.52266">
        <ele>574.5</ele>
        <time>2020-08-16T07:55:31Z</time>
      </trkpt>
      <trkpt lat="45.23533" lon="3.52266">
        <ele>576.5</ele>
        <time>2020-08-16T07:55:51Z</time>
      </trkpt>
      <trkpt lat="45.23431" lon="3.5227">
        <ele>577.4</ele>
        <time>2020-08-16T07:56:36Z</time>
      </trkpt>
      <trkpt lat="45.23325" lon="3.52256">
        <ele>577.9</ele>
        <time>2020-08-16T07:57:01Z</time>
      </trkpt>
      <trkpt lat="45.23238" lon="3.52197">
        <ele>578.8</ele>
        <time>2020-08-16T07:57:31Z</time>
      </trkpt>
      <trkpt lat="45.23148" lon="3.52141">
        <ele>580.8</ele>
        <time>2020-08-16T07:57:51Z</time>
      </trkpt>
      <trkpt lat="45.23029" lon="3.52116">
        <ele>579.8</ele>
        <time>2020-08-16T07:58:11Z</time>
      </trkpt>
      <trkpt lat="45.22914" lon="3.52103">
        <ele>579.7</ele>
        <time>2020-08-16T07:58:31Z</time>
      </trkpt>
      <trkpt lat="45.2281" lon="3.52096">
        <ele>577</ele>
        <time>2020-08-16T07:58:56Z</time>
      </trkpt>
      <trkpt lat="45.22717" lon="3.52098">
        <ele>576.3</ele>
        <time>2020-08-16T07:59:26Z</time>
      </trkpt>
      <trkpt lat="45.22618" lon="3.52081">
        <ele>576.7</ele>
        <time>2020-08-16T08:00:01Z</time>
      </trkpt>
      <trkpt lat="45.22525" lon="3.52055">
        <ele>579</ele>
        <time>2020-08-16T08:00:36Z</time>
      </trkpt>
      <trkpt lat="45.22432" lon="3.52021">
        <ele>581.8</ele>
        <time>2020-08-16T08:01:11Z</time>
      </trkpt>
      <trkpt lat="45.22343" lon="3.51994">
        <ele>583.2</ele>
        <time>2020-08-16T08:01:41Z</time>
      </trkpt>
      <trkpt lat="45.22245" lon="3.51975">
        <ele>583.9</ele>
        <time>2020-08-16T08:02:16Z</time>
      </trkpt>
      <trkpt lat="45.22152" lon="3.51978">
        <ele>585.2</ele>
        <time>2020-08-16T08:02:51Z</time>
      </trkpt>
      <trkpt lat="45.2205" lon="3.51914">
        <ele>586.4</ele>
        <time>2020-08-16T08:03:21Z</time>
      </trkpt>
      <trkpt lat="45.21947" lon="3.51823">
        <ele>585.4</ele>
        <time>2020-08-16T08:03:36Z</time>
      </trkpt>
      <trkpt lat="45.21855" lon="3.51769">
        <ele>584</ele>
        <time>2020-08-16T08:03:46Z</time>
      </trkpt>
      <trkpt lat="45.21733" lon="3.51725">
        <ele>582.1</ele>
        <time>2020-08-16T08:04:01Z</time>
      </trkpt>
      <trkpt lat="45.21643" lon="3.51691">
        <ele>579.2</ele>
        <time>2020-08-16T08:04:16Z</time>
      </trkpt>
      <trkpt lat="45.21545" lon="3.51657">
        <ele>577.1</ele>
        <time>2020-08-16T08:04:36Z</time>
      </trkpt>
      <trkpt lat="45.21454" lon="3.51625">
        <ele>576.3</ele>
        <time>2020-08-16T08:04:56Z</time>
      </trkpt>
      <trkpt lat="45.21352" lon="3.51594">
        <ele>576</ele>
        <time>2020-08-16T08:05:21Z</time>
      </trkpt>
      <trkpt lat="45.21259" lon="3.5158">
        <ele>575.9</ele>
        <time>2020-08-16T08:05:46Z</time>
      </trkpt>
      <trkpt lat="45.21204" lon="3.51458">
        <ele>574.9</ele>
        <time>2020-08-16T08:06:16Z</time>
      </trkpt>
      <trkpt lat="45.21177" lon="3.51299">
        <ele>574.2</ele>
        <time>2020-08-16T08:06:41Z</time>
      </trkpt>
      <trkpt lat="45.21112" lon="3.51182">
        <ele>573.1</ele>
        <time>2020-08-16T08:07:00Z</time>
      </trkpt>
      <trkpt lat="45.21031" lon="3.5112">
        <ele>573.2</ele>
        <time>2020-08-16T08:07:20Z</time>
      </trkpt>
      <trkpt lat="45.20937" lon="3.51068">
        <ele>573.9</ele>
        <time>2020-08-16T08:07:45Z</time>
      </trkpt>
      <trkpt lat="45.20857" lon="3.50969">
        <ele>573.9</ele>
        <time>2020-08-16T08:08:15Z</time>
      </trkpt>
      <trkpt lat="45.2078" lon="3.50871">
        <ele>574.1</ele>
        <time>2020-08-16T08:08:45Z</time>
      </trkpt>
      <trkpt lat="45.20694" lon="3.5081">
        <ele>574.6</ele>
        <time>2020-08-16T08:09:15Z</time>
      </trkpt>
      <trkpt lat="45.20607" lon="3.50747">
        <ele>575.4</ele>
        <time>2020-08-16T08:09:45Z</time>
      </trkpt>
      <trkpt lat="45.20525" lon="3.50687">
        <ele>576.2</ele>
        <time>2020-08-16T08:10:15Z</time>
      </trkpt>
      <trkpt lat="45.20433" lon="3.50635">
        <ele>577.5</ele>
        <time>2020-08-16T08:11:00Z</time>
      </trkpt>
      <trkpt lat="45.20345" lon="3.50591">
        <ele>578.5</ele>
        <time>2020-08-16T08:11:40Z</time>
      </trkpt>
      <trkpt lat="45.20228" lon="3.50589">
        <ele>580.4</ele>
        <time>2020-08-16T08:12:05Z</time>
      </trkpt>
      <trkpt lat="45.20131" lon="3.50565">
        <ele>580.1</ele>
        <time>2020-08-16T08:12:20Z</time>
      </trkpt>
      <trkpt lat="45.20071" lon="3.50437">
        <ele>580.8</ele>
        <time>2020-08-16T08:12:40Z</time>
      </trkpt>
      <trkpt lat="45.1998" lon="3.50397">
        <ele>581.3</ele>
        <time>2020-08-16T08:13:39Z</time>
      </trkpt>
      <trkpt lat="45.19905" lon="3.50463">
        <ele>581.1</ele>
        <time>2020-08-16T08:13:54Z</time>
      </trkpt>
      <trkpt lat="45.19819" lon="3.50529">
        <ele>582</ele>
        <time>2020-08-16T08:14:19Z</time>
      </trkpt>
      <trkpt lat="45.1974" lon="3.50608">
        <ele>583</ele>
        <time>2020-08-16T08:14:59Z</time>
      </trkpt>
      <trkpt lat="45.19652" lon="3.50656">
        <ele>585</ele>
        <time>2020-08-16T08:15:44Z</time>
      </trkpt>
      <trkpt lat="45.19558" lon="3.50704">
        <ele>586.9</ele>
        <time>2020-08-16T08:16:24Z</time>
      </trkpt>
      <trkpt lat="45.19474" lon="3.50747">
        <ele>589.6</ele>
        <time>2020-08-16T08:16:49Z</time>
      </trkpt>
      <trkpt lat="45.19386" lon="3.50793">
        <ele>590.6</ele>
        <time>2020-08-16T08:17:14Z</time>
      </trkpt>
      <trkpt lat="45.193" lon="3.50836">
        <ele>591.1</ele>
        <time>2020-08-16T08:17:39Z</time>
      </trkpt>
      <trkpt lat="45.19206" lon="3.50884">
        <ele>592.6</ele>
        <time>2020-08-16T08:18:14Z</time>
      </trkpt>
      <trkpt lat="45.1912" lon="3.5093">
        <ele>594</ele>
        <time>2020-08-16T08:18:44Z</time>
      </trkpt>
      <trkpt lat="45.19024" lon="3.50981">
        <ele>595.1</ele>
        <time>2020-08-16T08:19:14Z</time>
      </trkpt>
      <trkpt lat="45.18935" lon="3.51028">
        <ele>596.2</ele>
        <time>2020-08-16T08:19:45Z</time>
      </trkpt>
      <trkpt lat="45.18841" lon="3.51076">
        <ele>597</ele>
        <time>2020-08-16T08:20:15Z</time>
      </trkpt>
      <trkpt lat="45.18756" lon="3.51118">
        <ele>598.2</ele>
        <time>2020-08-16T08:20:40Z</time>
      </trkpt>
      <trkpt lat="45.18654" lon="3.51174">
        <ele>599</ele>
        <time>2020-08-16T08:21:05Z</time>
      </trkpt>
      <trkpt lat="45.18555" lon="3.51225">
        <ele>599.1</ele>
        <time>2020-08-16T08:21:30Z</time>
      </trkpt>
      <trkpt lat="45.18465" lon="3.51272">
        <ele>599.3</ele>
        <time>2020-08-16T08:22:05Z</time>
      </trkpt>
      <trkpt lat="45.18385" lon="3.51327">
        <ele>599.9</ele>
        <time>2020-08-16T08:22:58Z</time>
      </trkpt>
      <trkpt lat="45.18309" lon="3.51396">
        <ele>600.9</ele>
        <time>2020-08-16T08:23:57Z</time>
      </trkpt>
      <trkpt lat="45.18235" lon="3.51465">
        <ele>601.8</ele>
        <time>2020-08-16T08:24:53Z</time>
      </trkpt>
      <trkpt lat="45.18161" lon="3.51535">
        <ele>603.4</ele>
        <time>2020-08-16T08:25:50Z</time>
      </trkpt>
      <trkpt lat="45.18081" lon="3.51613">
        <ele>605.4</ele>
        <time>2020-08-16T08:26:50Z</time>
      </trkpt>
      <trkpt lat="45.18006" lon="3.51686">
        <ele>607.1</ele>
        <time>2020-08-16T08:27:43Z</time>
      </trkpt>
      <trkpt lat="45.1793" lon="3.51756">
        <ele>608.4</ele>
        <time>2020-08-16T08:28:29Z</time>
      </trkpt>
      <trkpt lat="45.17837" lon="3.51787">
        <ele>609.3</ele>
        <time>2020-08-16T08:29:04Z</time>
      </trkpt>
      <trkpt lat="45.17768" lon="3.51679">
        <ele>610.5</ele>
        <time>2020-08-16T08:29:39Z</time>
      </trkpt>
      <trkpt lat="45.17721" lon="3.51566">
        <ele>611.5</ele>
        <time>2020-08-16T08:30:09Z</time>
      </trkpt>
      <trkpt lat="45.1767" lon="3.51442">
        <ele>612.4</ele>
        <time>2020-08-16T08:30:39Z</time>
      </trkpt>
      <trkpt lat="45.17618" lon="3.51318">
        <ele>613.3</ele>
        <time>2020-08-16T08:31:09Z</time>
      </trkpt>
      <trkpt lat="45.17568" lon="3.51196">
        <ele>614.3</ele>
        <time>2020-08-16T08:31:39Z</time>
      </trkpt>
      <trkpt lat="45.17507" lon="3.51069">
        <ele>616.4</ele>
        <time>2020-08-16T08:32:09Z</time>
      </trkpt>
      <trkpt lat="45.1742" lon="3.50984">
        <ele>617.8</ele>
        <time>2020-08-16T08:32:33Z</time>
      </trkpt>
      <trkpt lat="45.17324" lon="3.50916">
        <ele>618.7</ele>
        <time>2020-08-16T08:32:58Z</time>
      </trkpt>
      <trkpt lat="45.1722" lon="3.50916">
        <ele>619.7</ele>
        <time>2020-08-16T08:33:23Z</time>
      </trkpt>
      <trkpt lat="45.17122" lon="3.50979">
        <ele>620.5</ele>
        <time>2020-08-16T08:33:48Z</time>
      </trkpt>
      <trkpt lat="45.17021" lon="3.50999">
        <ele>620.8</ele>
        <time>2020-08-16T08:34:18Z</time>
      </trkpt>
      <trkpt lat="45.16915" lon="3.51006">
        <ele>621.6</ele>
        <time>2020-08-16T08:34:53Z</time>
      </trkpt>
      <trkpt lat="45.16825" lon="3.50977">
        <ele>623.3</ele>
        <time>2020-08-16T08:35:13Z</time>
      </trkpt>
      <trkpt lat="45.16742" lon="3.50882">
        <ele>623</ele>
        <time>2020-08-16T08:35:28Z</time>
      </trkpt>
      <trkpt lat="45.16642" lon="3.5076">
        <ele>622.2</ele>
        <time>2020-08-16T08:35:43Z</time>
      </trkpt>
      <trkpt lat="45.16531" lon="3.50676">
        <ele>623.4</ele>
        <time>2020-08-16T08:35:58Z</time>
      </trkpt>
      <trkpt lat="45.16431" lon="3.50651">
        <ele>624.3</ele>
        <time>2020-08-16T08:36:23Z</time>
      </trkpt>
      <trkpt lat="45.16334" lon="3.50628">
        <ele>625.2</ele>
        <time>2020-08-16T08:37:03Z</time>
      </trkpt>
      <trkpt lat="45.16238" lon="3.50604">
        <ele>625.6</ele>
        <time>2020-08-16T08:37:33Z</time>
      </trkpt>
      <trkpt lat="45.16138" lon="3.50582">
        <ele>624.4</ele>
        <time>2020-08-16T08:37:58Z</time>
      </trkpt>
      <trkpt lat="45.16044" lon="3.50561">
        <ele>624.7</ele>
        <time>2020-08-16T08:38:28Z</time>
      </trkpt>
      <trkpt lat="45.15944" lon="3.50537">
        <ele>625.6</ele>
        <time>2020-08-16T08:39:03Z</time>
      </trkpt>
      <trkpt lat="45.15851" lon="3.50516">
        <ele>626.6</ele>
        <time>2020-08-16T08:39:33Z</time>
      </trkpt>
      <trkpt lat="45.15739" lon="3.50487">
        <ele>625.3</ele>
        <time>2020-08-16T08:39:53Z</time>
      </trkpt>
      <trkpt lat="45.15636" lon="3.50456">
        <ele>623.9</ele>
        <time>2020-08-16T08:40:08Z</time>
      </trkpt>
      <trkpt lat="45.15545" lon="3.50407">
        <ele>623.5</ele>
        <time>2020-08-16T08:40:23Z</time>
      </trkpt>
      <trkpt lat="45.15451" lon="3.50383">
        <ele>624</ele>
        <time>2020-08-16T08:40:43Z</time>
      </trkpt>
      <trkpt lat="45.15353" lon="3.50384">
        <ele>624.5</ele>
        <time>2020-08-16T08:41:18Z</time>
      </trkpt>
      <trkpt lat="45.15256" lon="3.50362">
        <ele>627</ele>
        <time>2020-08-16T08:42:11Z</time>
      </trkpt>
      <trkpt lat="45.15168" lon="3.50318">
        <ele>630</ele>
        <time>2020-08-16T08:43:05Z</time>
      </trkpt>
      <trkpt lat="45.15077" lon="3.50335">
        <ele>629</ele>
        <time>2020-08-16T08:43:25Z</time>
      </trkpt>
      <trkpt lat="45.14946" lon="3.50368">
        <ele>627.1</ele>
        <time>2020-08-16T08:43:40Z</time>
      </trkpt>
      <trkpt lat="45.14835" lon="3.50371">
        <ele>627.3</ele>
        <time>2020-08-16T08:43:55Z</time>
      </trkpt>
      <trkpt lat="45.14733" lon="3.50345">
        <ele>626.3</ele>
        <time>2020-08-16T08:44:10Z</time>
      </trkpt>
      <trkpt lat="45.1463" lon="3.50317">
        <ele>625.9</ele>
        <time>2020-08-16T08:44:35Z</time>
      </trkpt>
      <trkpt lat="45.14533" lon="3.50283">
        <ele>625.5</ele>
        <time>2020-08-16T08:45:10Z</time>
      </trkpt>
      <trkpt lat="45.14445" lon="3.50198">
        <ele>624.7</ele>
        <time>2020-08-16T08:45:40Z</time>
      </trkpt>
      <trkpt lat="45.14358" lon="3.50072">
        <ele>621.4</ele>
        <time>2020-08-16T08:46:00Z</time>
      </trkpt>
      <trkpt lat="45.1423" lon="3.49993">
        <ele>618.2</ele>
        <time>2020-08-16T08:46:15Z</time>
      </trkpt>
      <trkpt lat="45.14123" lon="3.49978">
        <ele>616.5</ele>
        <time>2020-08-16T08:46:25Z</time>
      </trkpt>
      <trkpt lat="45.14042" lon="3.49909">
        <ele>615.6</ele>
        <time>2020-08-16T08:46:35Z</time>
      </trkpt>
      <trkpt lat="45.13965" lon="3.49822">
        <ele>613.8</ele>
        <time>2020-08-16T08:46:50Z</time>
      </trkpt>
      <trkpt lat="45.13882" lon="3.49739">
        <ele>611.3</ele>
        <time>2020-08-16T08:47:15Z</time>
      </trkpt>
      <trkpt lat="45.13782" lon="3.49691">
        <ele>609.2</ele>
        <time>2020-08-16T08:47:45Z</time>
      </trkpt>
      <trkpt lat="45.13687" lon="3.49691">
        <ele>606.2</ele>
        <time>2020-08-16T08:48:05Z</time>
      </trkpt>
      <trkpt lat="45.13586" lon="3.49729">
        <ele>603.3</ele>
        <time>2020-08-16T08:48:20Z</time>
      </trkpt>
      <trkpt lat="45.13461" lon="3.49745">
        <ele>601</ele>
        <time>2020-08-16T08:48:35Z</time>
      </trkpt>
      <trkpt lat="45.1336" lon="3.49668">
        <ele>598.5</ele>
        <time>2020-08-16T08:48:50Z</time>
      </trkpt>
      <trkpt lat="45.13251" lon="3.49594">
        <ele>595.7</ele>
        <time>2020-08-16T08:49:05Z</time>
      </trkpt>
      <trkpt lat="45.13132" lon="3.49607">
        <ele>592.9</ele>
        <time>2020-08-16T08:49:20Z</time>
      </trkpt>
      <trkpt lat="45.1301" lon="3.49594">
        <ele>588.5</ele>
        <time>2020-08-16T08:49:35Z</time>
      </trkpt>
      <trkpt lat="45.12897" lon="3.49593">
        <ele>585</ele>
        <time>2020-08-16T08:49:50Z</time>
      </trkpt>
      <trkpt lat="45.1281" lon="3.49622">
        <ele>582</ele>
        <time>2020-08-16T08:50:05Z</time>
      </trkpt>
      <trkpt lat="45.12718" lon="3.49672">
        <ele>579.2</ele>
        <time>2020-08-16T08:50:25Z</time>
      </trkpt>
      <trkpt lat="45.12633" lon="3.49719">
        <ele>576.8</ele>
        <time>2020-08-16T08:50:45Z</time>
      </trkpt>
      <trkpt lat="45.12538" lon="3.49767">
        <ele>575.5</ele>
        <time>2020-08-16T08:51:10Z</time>
      </trkpt>
      <trkpt lat="45.12444" lon="3.49812">
        <ele>575</ele>
        <time>2020-08-16T08:51:40Z</time>
      </trkpt>
      <trkpt lat="45.12357" lon="3.49849">
        <ele>574.3</ele>
        <time>2020-08-16T08:52:10Z</time>
      </trkpt>
      <trkpt lat="45.12261" lon="3.49877">
        <ele>573</ele>
        <time>2020-08-16T08:52:40Z</time>
      </trkpt>
      <trkpt lat="45.12153" lon="3.49823">
        <ele>572.3</ele>
        <time>2020-08-16T08:53:05Z</time>
      </trkpt>
      <trkpt lat="45.12064" lon="3.49748">
        <ele>572</ele>
        <time>2020-08-16T08:53:25Z</time>
      </trkpt>
      <trkpt lat="45.1198" lon="3.49658">
        <ele>571.7</ele>
        <time>2020-08-16T08:53:45Z</time>
      </trkpt>
      <trkpt lat="45.1191" lon="3.49549">
        <ele>570.5</ele>
        <time>2020-08-16T08:54:05Z</time>
      </trkpt>
      <trkpt lat="45.11855" lon="3.4944">
        <ele>568.5</ele>
        <time>2020-08-16T08:54:20Z</time>
      </trkpt>
      <trkpt lat="45.1176" lon="3.49322">
        <ele>565.7</ele>
        <time>2020-08-16T08:54:35Z</time>
      </trkpt>
      <trkpt lat="45.11679" lon="3.49248">
        <ele>564</ele>
        <time>2020-08-16T08:54:45Z</time>
      </trkpt>
      <trkpt lat="45.1164" lon="3.49086">
        <ele>562.4</ele>
        <time>2020-08-16T08:55:00Z</time>
      </trkpt>
      <trkpt lat="45.11543" lon="3.49029">
        <ele>559.4</ele>
        <time>2020-08-16T08:55:20Z</time>
      </trkpt>
      <trkpt lat="45.11438" lon="3.49076">
        <ele>557.3</ele>
        <time>2020-08-16T08:55:40Z</time>
      </trkpt>
      <trkpt lat="45.1135" lon="3.49162">
        <ele>554</ele>
        <time>2020-08-16T08:56:00Z</time>
      </trkpt>
      <trkpt lat="45.11259" lon="3.49239">
        <ele>549.3</ele>
        <time>2020-08-16T08:56:25Z</time>
      </trkpt>
      <trkpt lat="45.11183" lon="3.49309">
        <ele>550.3</ele>
        <time>2020-08-16T08:56:45Z</time>
      </trkpt>
      <trkpt lat="45.11109" lon="3.49381">
        <ele>551.4</ele>
        <time>2020-08-16T08:57:04Z</time>
      </trkpt>
      <trkpt lat="45.11022" lon="3.49462">
        <ele>551.6</ele>
        <time>2020-08-16T08:57:29Z</time>
      </trkpt>
      <trkpt lat="45.10946" lon="3.49533">
        <ele>551.8</ele>
        <time>2020-08-16T08:57:54Z</time>
      </trkpt>
      <trkpt lat="45.10872" lon="3.49603">
        <ele>552.3</ele>
        <time>2020-08-16T08:58:19Z</time>
      </trkpt>
      <trkpt lat="45.10774" lon="3.49659">
        <ele>552.9</ele>
        <time>2020-08-16T08:58:49Z</time>
      </trkpt>
      <trkpt lat="45.10672" lon="3.4969">
        <ele>553.3</ele>
        <time>2020-08-16T08:59:19Z</time>
      </trkpt>
      <trkpt lat="45.10569" lon="3.49708">
        <ele>553.4</ele>
        <time>2020-08-16T08:59:49Z</time>
      </trkpt>
      <trkpt lat="45.10464" lon="3.49725">
        <ele>553.7</ele>
        <time>2020-08-16T09:00:19Z</time>
      </trkpt>
      <trkpt lat="45.1036" lon="3.49742">
        <ele>554</ele>
        <time>2020-08-16T09:00:49Z</time>
      </trkpt>
      <trkpt lat="45.10258" lon="3.49736">
        <ele>554.5</ele>
        <time>2020-08-16T09:01:19Z</time>
      </trkpt>
      <trkpt lat="45.10153" lon="3.49729">
        <ele>555.5</ele>
        <time>2020-08-16T09:01:49Z</time>
      </trkpt>
      <trkpt lat="45.10059" lon="3.4973">
        <ele>555.6</ele>
        <time>2020-08-16T09:02:09Z</time>
      </trkpt>
      <trkpt lat="45.09961" lon="3.49744">
        <ele>553.3</ele>
        <time>2020-08-16T09:19:31Z</time>
      </trkpt>
      <trkpt lat="45.09873" lon="3.49706">
        <ele>553</ele>
        <time>2020-08-16T09:20:01Z</time>
      </trkpt>
      <trkpt lat="45.09779" lon="3.49647">
        <ele>552.8</ele>
        <time>2020-08-16T09:20:36Z</time>
      </trkpt>
      <trkpt lat="45.09747" lon="3.4951">
        <ele>552.9</ele>
        <time>2020-08-16T09:21:16Z</time>
      </trkpt>
      <trkpt lat="45.09669" lon="3.49608">
        <ele>553</ele>
        <time>2020-08-16T09:21:40Z</time>
      </trkpt>
      <trkpt lat="45.09593" lon="3.49725">
        <ele>552.9</ele>
        <time>2020-08-16T09:22:00Z</time>
      </trkpt>
      <trkpt lat="45.09525" lon="3.4983">
        <ele>552.9</ele>
        <time>2020-08-16T09:22:20Z</time>
      </trkpt>
      <trkpt lat="45.09466" lon="3.49931">
        <ele>552.8</ele>
        <time>2020-08-16T09:22:40Z</time>
      </trkpt>
      <trkpt lat="45.09403" lon="3.50029">
        <ele>552.8</ele>
        <time>2020-08-16T09:23:00Z</time>
      </trkpt>
      <trkpt lat="45.09339" lon="3.50142">
        <ele>552.9</ele>
        <time>2020-08-16T09:23:25Z</time>
      </trkpt>
      <trkpt lat="45.09327" lon="3.5028">
        <ele>552.9</ele>
        <time>2020-08-16T09:23:50Z</time>
      </trkpt>
      <trkpt lat="45.09295" lon="3.50405">
        <ele>552.9</ele>
        <time>2020-08-16T09:24:10Z</time>
      </trkpt>
      <trkpt lat="45.09206" lon="3.5047">
        <ele>552.9</ele>
        <time>2020-08-16T09:24:30Z</time>
      </trkpt>
      <trkpt lat="45.09115" lon="3.50527">
        <ele>552.7</ele>
        <time>2020-08-16T09:24:50Z</time>
      </trkpt>
      <trkpt lat="45.09033" lon="3.50579">
        <ele>552.9</ele>
        <time>2020-08-16T09:25:20Z</time>
      </trkpt>
      <trkpt lat="45.08945" lon="3.50632">
        <ele>553.9</ele>
        <time>2020-08-16T09:26:09Z</time>
      </trkpt>
      <trkpt lat="45.08865" lon="3.50716">
        <ele>555</ele>
        <time>2020-08-16T09:26:58Z</time>
      </trkpt>
      <trkpt lat="45.08809" lon="3.50814">
        <ele>556.6</ele>
        <time>2020-08-16T09:27:45Z</time>
      </trkpt>
      <trkpt lat="45.08751" lon="3.50918">
        <ele>558.6</ele>
        <time>2020-08-16T09:28:25Z</time>
      </trkpt>
      <trkpt lat="45.08693" lon="3.51018">
        <ele>560.8</ele>
        <time>2020-08-16T09:29:00Z</time>
      </trkpt>
      <trkpt lat="45.08636" lon="3.51119">
        <ele>562.9</ele>
        <time>2020-08-16T09:29:35Z</time>
      </trkpt>
      <trkpt lat="45.08578" lon="3.5122">
        <ele>564.6</ele>
        <time>2020-08-16T09:30:05Z</time>
      </trkpt>
      <trkpt lat="45.08516" lon="3.51335">
        <ele>566.4</ele>
        <time>2020-08-16T09:30:35Z</time>
      </trkpt>
      <trkpt lat="45.0846" lon="3.51434">
        <ele>568.2</ele>
        <time>2020-08-16T09:31:05Z</time>
      </trkpt>
      <trkpt lat="45.08398" lon="3.51544">
        <ele>570.2</ele>
        <time>2020-08-16T09:31:40Z</time>
      </trkpt>
      <trkpt lat="45.08342" lon="3.51644">
        <ele>572</ele>
        <time>2020-08-16T09:32:10Z</time>
      </trkpt>
      <trkpt lat="45.08281" lon="3.51753">
        <ele>574.5</ele>
        <time>2020-08-16T09:32:50Z</time>
      </trkpt>
      <trkpt lat="45.08219" lon="3.51859">
        <ele>576.9</ele>
        <time>2020-08-16T09:33:30Z</time>
      </trkpt>
      <trkpt lat="45.08162" lon="3.51965">
        <ele>579.7</ele>
        <time>2020-08-16T09:34:18Z</time>
      </trkpt>
      <trkpt lat="45.08107" lon="3.52063">
        <ele>582.8</ele>
        <time>2020-08-16T09:35:08Z</time>
      </trkpt>
      <trkpt lat="45.08084" lon="3.52197">
        <ele>586.7</ele>
        <time>2020-08-16T09:36:05Z</time>
      </trkpt>
      <trkpt lat="45.08079" lon="3.52326">
        <ele>590.3</ele>
        <time>2020-08-16T09:36:59Z</time>
      </trkpt>
      <trkpt lat="45.08052" lon="3.52456">
        <ele>595.9</ele>
        <time>2020-08-16T09:37:31Z</time>
      </trkpt>
      <trkpt lat="45.07939" lon="3.52496">
        <ele>597</ele>
        <time>2020-08-16T09:37:46Z</time>
      </trkpt>
      <trkpt lat="45.07853" lon="3.52529">
        <ele>597.3</ele>
        <time>2020-08-16T09:37:56Z</time>
      </trkpt>
      <trkpt lat="45.07763" lon="3.52601">
        <ele>597.3</ele>
        <time>2020-08-16T09:38:06Z</time>
      </trkpt>
      <trkpt lat="45.07659" lon="3.52625">
        <ele>596.5</ele>
        <time>2020-08-16T09:38:16Z</time>
      </trkpt>
      <trkpt lat="45.07568" lon="3.52704">
        <ele>595.9</ele>
        <time>2020-08-16T09:38:26Z</time>
      </trkpt>
      <trkpt lat="45.07468" lon="3.52747">
        <ele>595.2</ele>
        <time>2020-08-16T09:38:36Z</time>
      </trkpt>
      <trkpt lat="45.07389" lon="3.52833">
        <ele>595.1</ele>
        <time>2020-08-16T09:38:46Z</time>
      </trkpt>
      <trkpt lat="45.0732" lon="3.52934">
        <ele>593</ele>
        <time>2020-08-16T09:38:56Z</time>
      </trkpt>
      <trkpt lat="45.07261" lon="3.53091">
        <ele>589.7</ele>
        <time>2020-08-16T09:39:11Z</time>
      </trkpt>
      <trkpt lat="45.07218" lon="3.53211">
        <ele>587.3</ele>
        <time>2020-08-16T09:39:26Z</time>
      </trkpt>
      <trkpt lat="45.07165" lon="3.53338">
        <ele>585.5</ele>
        <time>2020-08-16T09:39:56Z</time>
      </trkpt>
      <trkpt lat="45.07113" lon="3.53456">
        <ele>582.7</ele>
        <time>2020-08-16T09:40:31Z</time>
      </trkpt>
      <trkpt lat="45.07049" lon="3.53558">
        <ele>581.6</ele>
        <time>2020-08-16T09:41:06Z</time>
      </trkpt>
      <trkpt lat="45.06974" lon="3.53629">
        <ele>580.9</ele>
        <time>2020-08-16T09:41:31Z</time>
      </trkpt>
      <trkpt lat="45.06899" lon="3.53713">
        <ele>581.2</ele>
        <time>2020-08-16T09:41:56Z</time>
      </trkpt>
      <trkpt lat="45.06831" lon="3.53835">
        <ele>581.3</ele>
        <time>2020-08-16T09:42:21Z</time>
      </trkpt>
      <trkpt lat="45.06794" lon="3.53956">
        <ele>582.5</ele>
        <time>2020-08-16T09:42:41Z</time>
      </trkpt>
      <trkpt lat="45.06802" lon="3.54106">
        <ele>583.1</ele>
        <time>2020-08-16T09:43:11Z</time>
      </trkpt>
      <trkpt lat="45.06811" lon="3.54235">
        <ele>584.1</ele>
        <time>2020-08-16T09:43:36Z</time>
      </trkpt>
      <trkpt lat="45.0682" lon="3.54381">
        <ele>584</ele>
        <time>2020-08-16T09:44:06Z</time>
      </trkpt>
      <trkpt lat="45.06825" lon="3.54524">
        <ele>585.2</ele>
        <time>2020-08-16T09:44:41Z</time>
      </trkpt>
      <trkpt lat="45.06785" lon="3.54656">
        <ele>586.9</ele>
        <time>2020-08-16T09:45:21Z</time>
      </trkpt>
      <trkpt lat="45.06707" lon="3.54735">
        <ele>587.9</ele>
        <time>2020-08-16T09:45:51Z</time>
      </trkpt>
      <trkpt lat="45.06612" lon="3.54778">
        <ele>589.4</ele>
        <time>2020-08-16T09:46:20Z</time>
      </trkpt>
      <trkpt lat="45.06522" lon="3.54809">
        <ele>590.7</ele>
        <time>2020-08-16T09:47:09Z</time>
      </trkpt>
      <trkpt lat="45.06431" lon="3.54796">
        <ele>592.8</ele>
        <time>2020-08-16T09:47:56Z</time>
      </trkpt>
      <trkpt lat="45.06334" lon="3.54807">
        <ele>595.7</ele>
        <time>2020-08-16T09:48:53Z</time>
      </trkpt>
      <trkpt lat="45.06265" lon="3.54901">
        <ele>599</ele>
        <time>2020-08-16T09:49:50Z</time>
      </trkpt>
      <trkpt lat="45.06197" lon="3.55001">
        <ele>601.9</ele>
        <time>2020-08-16T09:50:49Z</time>
      </trkpt>
      <trkpt lat="45.06112" lon="3.5504">
        <ele>604.6</ele>
        <time>2020-08-16T09:51:42Z</time>
      </trkpt>
      <trkpt lat="45.06024" lon="3.55096">
        <ele>607.9</ele>
        <time>2020-08-16T09:52:43Z</time>
      </trkpt>
      <trkpt lat="45.06054" lon="3.55227">
        <ele>611.2</ele>
        <time>2020-08-16T09:53:53Z</time>
      </trkpt>
      <trkpt lat="45.06" lon="3.55341">
        <ele>614.3</ele>
        <time>2020-08-16T09:54:55Z</time>
      </trkpt>
      <trkpt lat="45.05944" lon="3.55449">
        <ele>616.7</ele>
        <time>2020-08-16T09:55:42Z</time>
      </trkpt>
      <trkpt lat="45.05908" lon="3.5557">
        <ele>619.5</ele>
        <time>2020-08-16T09:56:22Z</time>
      </trkpt>
      <trkpt lat="45.05842" lon="3.55668">
        <ele>622.8</ele>
        <time>2020-08-16T09:57:07Z</time>
      </trkpt>
      <trkpt lat="45.05749" lon="3.55628">
        <ele>626.4</ele>
        <time>2020-08-16T09:58:00Z</time>
      </trkpt>
      <trkpt lat="45.05655" lon="3.55624">
        <ele>629.2</ele>
        <time>2020-08-16T09:58:45Z</time>
      </trkpt>
      <trkpt lat="45.05569" lon="3.5556">
        <ele>633</ele>
        <time>2020-08-16T09:59:36Z</time>
      </trkpt>
      <trkpt lat="45.05541" lon="3.55435">
        <ele>638.6</ele>
        <time>2020-08-16T10:00:21Z</time>
      </trkpt>
      <trkpt lat="45.05468" lon="3.55347">
        <ele>643.8</ele>
        <time>2020-08-16T10:01:06Z</time>
      </trkpt>
      <trkpt lat="45.05379" lon="3.55371">
        <ele>649.4</ele>
        <time>2020-08-16T10:02:00Z</time>
      </trkpt>
      <trkpt lat="45.05289" lon="3.55388">
        <ele>690.5</ele>
        <time>2020-08-16T10:26:48Z</time>
      </trkpt>
      <trkpt lat="45.05255" lon="3.55264">
        <ele>691.9</ele>
        <time>2020-08-16T10:28:04Z</time>
      </trkpt>
      <trkpt lat="45.05172" lon="3.55188">
        <ele>693.5</ele>
        <time>2020-08-16T10:29:05Z</time>
      </trkpt>
      <trkpt lat="45.05154" lon="3.55049">
        <ele>697.2</ele>
        <time>2020-08-16T10:30:30Z</time>
      </trkpt>
      <trkpt lat="45.05116" lon="3.54929">
        <ele>706.3</ele>
        <time>2020-08-16T10:31:41Z</time>
      </trkpt>
      <trkpt lat="45.05048" lon="3.54829">
        <ele>716.6</ele>
        <time>2020-08-16T10:32:47Z</time>
      </trkpt>
      <trkpt lat="45.04956" lon="3.54774">
        <ele>726</ele>
        <time>2020-08-16T10:34:00Z</time>
      </trkpt>
      <trkpt lat="45.04935" lon="3.54648">
        <ele>732.7</ele>
        <time>2020-08-16T10:35:06Z</time>
      </trkpt>
      <trkpt lat="45.04861" lon="3.54552">
        <ele>738.6</ele>
        <time>2020-08-16T10:36:19Z</time>
      </trkpt>
      <trkpt lat="45.04784" lon="3.5447">
        <ele>746.3</ele>
        <time>2020-08-16T10:37:20Z</time>
      </trkpt>
      <trkpt lat="45.04701" lon="3.54403">
        <ele>758.4</ele>
        <time>2020-08-16T10:38:31Z</time>
      </trkpt>
      <trkpt lat="45.04708" lon="3.54268">
        <ele>768.4</ele>
        <time>2020-08-16T10:39:42Z</time>
      </trkpt>
      <trkpt lat="45.04669" lon="3.54138">
        <ele>775</ele>
        <time>2020-08-16T10:40:38Z</time>
      </trkpt>
      <trkpt lat="45.04582" lon="3.54078">
        <ele>780.7</ele>
        <time>2020-08-16T10:41:49Z</time>
      </trkpt>
      <trkpt lat="45.04486" lon="3.5411">
        <ele>784.2</ele>
        <time>2020-08-16T10:42:54Z</time>
      </trkpt>
      <trkpt lat="45.04387" lon="3.54098">
        <ele>788.5</ele>
        <time>2020-08-16T10:44:00Z</time>
      </trkpt>
      <trkpt lat="45.04291" lon="3.54091">
        <ele>792.1</ele>
        <time>2020-08-16T10:45:02Z</time>
      </trkpt>
      <trkpt lat="45.04215" lon="3.54174">
        <ele>797</ele>
        <time>2020-08-16T10:46:07Z</time>
      </trkpt>
      <trkpt lat="45.04121" lon="3.54177">
        <ele>806.8</ele>
        <time>2020-08-16T10:47:17Z</time>
      </trkpt>
      <trkpt lat="45.04023" lon="3.54186">
        <ele>814.5</ele>
        <time>2020-08-16T10:48:24Z</time>
      </trkpt>
      <trkpt lat="45.03927" lon="3.5416">
        <ele>822</ele>
        <time>2020-08-16T10:49:43Z</time>
      </trkpt>
      <trkpt lat="45.03867" lon="3.54051">
        <ele>827.7</ele>
        <time>2020-08-16T10:50:51Z</time>
      </trkpt>
      <trkpt lat="45.03777" lon="3.5404">
        <ele>833.3</ele>
        <time>2020-08-16T10:52:06Z</time>
      </trkpt>
      <trkpt lat="45.03683" lon="3.54019">
        <ele>841.5</ele>
        <time>2020-08-16T10:53:26Z</time>
      </trkpt>
      <trkpt lat="45.03619" lon="3.53917">
        <ele>854.5</ele>
        <time>2020-08-16T10:54:36Z</time>
      </trkpt>
      <trkpt lat="45.03531" lon="3.53863">
        <ele>867.3</ele>
        <time>2020-08-16T10:55:44Z</time>
      </trkpt>
      <trkpt lat="45.03451" lon="3.53924">
        <ele>877.2</ele>
        <time>2020-08-16T10:56:53Z</time>
      </trkpt>
      <trkpt lat="45.0341" lon="3.54045">
        <ele>884.1</ele>
        <time>2020-08-16T10:58:03Z</time>
      </trkpt>
      <trkpt lat="45.03334" lon="3.54109">
        <ele>890.9</ele>
        <time>2020-08-16T10:59:12Z</time>
      </trkpt>
      <trkpt lat="45.03246" lon="3.54139">
        <ele>895.9</ele>
        <time>2020-08-16T11:00:18Z</time>
      </trkpt>
      <trkpt lat="45.03178" lon="3.5423">
        <ele>899.9</ele>
        <time>2020-08-16T11:01:24Z</time>
      </trkpt>
      <trkpt lat="45.03105" lon="3.54132">
        <ele>907</ele>
        <time>2020-08-16T11:02:39Z</time>
      </trkpt>
      <trkpt lat="45.03015" lon="3.54125">
        <ele>915.9</ele>
        <time>2020-08-16T11:03:54Z</time>
      </trkpt>
      <trkpt lat="45.02922" lon="3.54142">
        <ele>925.2</ele>
        <time>2020-08-16T11:05:04Z</time>
      </trkpt>
      <trkpt lat="45.02852" lon="3.5422">
        <ele>932</ele>
        <time>2020-08-16T11:06:14Z</time>
      </trkpt>
      <trkpt lat="45.0281" lon="3.54343">
        <ele>937.7</ele>
        <time>2020-08-16T11:07:27Z</time>
      </trkpt>
      <trkpt lat="45.02722" lon="3.54382">
        <ele>942.1</ele>
        <time>2020-08-16T11:08:37Z</time>
      </trkpt>
      <trkpt lat="45.02629" lon="3.54398">
        <ele>946.3</ele>
        <time>2020-08-16T11:09:47Z</time>
      </trkpt>
      <trkpt lat="45.02534" lon="3.54404">
        <ele>952</ele>
        <time>2020-08-16T11:10:57Z</time>
      </trkpt>
      <trkpt lat="45.0245" lon="3.54347">
        <ele>960.9</ele>
        <time>2020-08-16T11:12:07Z</time>
      </trkpt>
      <trkpt lat="45.02371" lon="3.5426">
        <ele>968.8</ele>
        <time>2020-08-16T11:13:07Z</time>
      </trkpt>
      <trkpt lat="45.02278" lon="3.54232">
        <ele>977.7</ele>
        <time>2020-08-16T11:14:20Z</time>
      </trkpt>
      <trkpt lat="45.02181" lon="3.5422">
        <ele>986.7</ele>
        <time>2020-08-16T11:15:34Z</time>
      </trkpt>
      <trkpt lat="45.02086" lon="3.54203">
        <ele>997.1</ele>
        <time>2020-08-16T11:16:50Z</time>
      </trkpt>
      <trkpt lat="45.01992" lon="3.54201">
        <ele>1010.8</ele>
        <time>2020-08-16T11:19:51Z</time>
      </trkpt>
      <trkpt lat="45.01885" lon="3.54154">
        <ele>1020.7</ele>
        <time>2020-08-16T11:20:11Z</time>
      </trkpt>
      <trkpt lat="45.0176" lon="3.54149">
        <ele>1019.6</ele>
        <time>2020-08-16T11:20:26Z</time>
      </trkpt>
      <trkpt lat="45.01665" lon="3.54185">
        <ele>1018</ele>
        <time>2020-08-16T11:20:36Z</time>
      </trkpt>
      <trkpt lat="45.01561" lon="3.54189">
        <ele>1016.3</ele>
        <time>2020-08-16T11:20:46Z</time>
      </trkpt>
      <trkpt lat="45.01461" lon="3.54108">
        <ele>1014.2</ele>
        <time>2020-08-16T11:20:56Z</time>
      </trkpt>
      <trkpt lat="45.01355" lon="3.54048">
        <ele>1011.4</ele>
        <time>2020-08-16T11:21:06Z</time>
      </trkpt>
      <trkpt lat="45.01249" lon="3.54">
        <ele>1008.3</ele>
        <time>2020-08-16T11:21:16Z</time>
      </trkpt>
      <trkpt lat="45.01146" lon="3.54">
        <ele>1004.2</ele>
        <time>2020-08-16T11:21:26Z</time>
      </trkpt>
      <trkpt lat="45.01047" lon="3.54041">
        <ele>1000.1</ele>
        <time>2020-08-16T11:21:36Z</time>
      </trkpt>
      <trkpt lat="45.00941" lon="3.54024">
        <ele>997.3</ele>
        <time>2020-08-16T11:21:46Z</time>
      </trkpt>
      <trkpt lat="45.00839" lon="3.5397">
        <ele>995.2</ele>
        <time>2020-08-16T11:21:56Z</time>
      </trkpt>
      <trkpt lat="45.00748" lon="3.53975">
        <ele>991.7</ele>
        <time>2020-08-16T11:22:06Z</time>
      </trkpt>
      <trkpt lat="45.00661" lon="3.54016">
        <ele>987.6</ele>
        <time>2020-08-16T11:22:31Z</time>
      </trkpt>
      <trkpt lat="45.00575" lon="3.54052">
        <ele>980.4</ele>
        <time>2020-08-16T11:23:20Z</time>
      </trkpt>
      <trkpt lat="45.00488" lon="3.54097">
        <ele>977.2</ele>
        <time>2020-08-16T11:24:05Z</time>
      </trkpt>
      <trkpt lat="45.00393" lon="3.54082">
        <ele>976.9</ele>
        <time>2020-08-16T11:25:03Z</time>
      </trkpt>
      <trkpt lat="45.00295" lon="3.54067">
        <ele>979.8</ele>
        <time>2020-08-16T11:26:04Z</time>
      </trkpt>
      <trkpt lat="45.00196" lon="3.54081">
        <ele>982.9</ele>
        <time>2020-08-16T11:26:54Z</time>
      </trkpt>
      <trkpt lat="45.00107" lon="3.54111">
        <ele>986.2</ele>
        <time>2020-08-16T11:27:55Z</time>
      </trkpt>
      <trkpt lat="45.0001" lon="3.54138">
        <ele>991.3</ele>
        <time>2020-08-16T11:29:08Z</time>
      </trkpt>
      <trkpt lat="44.99916" lon="3.5417">
        <ele>996.2</ele>
        <time>2020-08-16T11:30:21Z</time>
      </trkpt>
      <trkpt lat="44.99826" lon="3.54225">
        <ele>999.4</ele>
        <time>2020-08-16T11:31:18Z</time>
      </trkpt>
      <trkpt lat="44.99732" lon="3.5422">
        <ele>1001</ele>
        <time>2020-08-16T11:32:05Z</time>
      </trkpt>
      <trkpt lat="44.99639" lon="3.54189">
        <ele>1003.1</ele>
        <time>2020-08-16T11:33:13Z</time>
      </trkpt>
      <trkpt lat="44.99542" lon="3.54164">
        <ele>1006.9</ele>
        <time>2020-08-16T11:34:19Z</time>
      </trkpt>
      <trkpt lat="44.99444" lon="3.54135">
        <ele>1011.1</ele>
        <time>2020-08-16T11:35:19Z</time>
      </trkpt>
      <trkpt lat="44.99351" lon="3.54105">
        <ele>1015.2</ele>
        <time>2020-08-16T11:35:39Z</time>
      </trkpt>
      <trkpt lat="44.99241" lon="3.54063">
        <ele>1015.6</ele>
        <time>2020-08-16T11:35:54Z</time>
      </trkpt>
      <trkpt lat="44.99138" lon="3.54031">
        <ele>1015.7</ele>
        <time>2020-08-16T11:36:09Z</time>
      </trkpt>
      <trkpt lat="44.99036" lon="3.53994">
        <ele>1015.6</ele>
        <time>2020-08-16T11:36:24Z</time>
      </trkpt>
      <trkpt lat="44.98938" lon="3.5396">
        <ele>1016.5</ele>
        <time>2020-08-16T11:36:39Z</time>
      </trkpt>
      <trkpt lat="44.9884" lon="3.53928">
        <ele>1017.5</ele>
        <time>2020-08-16T11:36:54Z</time>
      </trkpt>
      <trkpt lat="44.98746" lon="3.53898">
        <ele>1018.4</ele>
        <time>2020-08-16T11:37:09Z</time>
      </trkpt>
      <trkpt lat="44.98654" lon="3.53887">
        <ele>1020</ele>
        <time>2020-08-16T11:37:30Z</time>
      </trkpt>
      <trkpt lat="44.98543" lon="3.53922">
        <ele>1020.6</ele>
        <time>2020-08-16T11:37:50Z</time>
      </trkpt>
      <trkpt lat="44.9843" lon="3.53959">
        <ele>1020.1</ele>
        <time>2020-08-16T11:38:10Z</time>
      </trkpt>
      <trkpt lat="44.98342" lon="3.53987">
        <ele>1020.3</ele>
        <time>2020-08-16T11:38:25Z</time>
      </trkpt>
      <trkpt lat="44.98227" lon="3.54023">
        <ele>1020</ele>
        <time>2020-08-16T11:38:45Z</time>
      </trkpt>
      <trkpt lat="44.98134" lon="3.54046">
        <ele>1020.6</ele>
        <time>2020-08-16T11:39:05Z</time>
      </trkpt>
      <trkpt lat="44.98039" lon="3.5406">
        <ele>1019.8</ele>
        <time>2020-08-16T11:39:25Z</time>
      </trkpt>
      <trkpt lat="44.97923" lon="3.5406">
        <ele>1020</ele>
        <time>2020-08-16T11:39:45Z</time>
      </trkpt>
      <trkpt lat="44.97829" lon="3.54043">
        <ele>1020.5</ele>
        <time>2020-08-16T11:40:05Z</time>
      </trkpt>
      <trkpt lat="44.97722" lon="3.54031">
        <ele>1019.5</ele>
        <time>2020-08-16T11:40:25Z</time>
      </trkpt>
      <trkpt lat="44.97604" lon="3.54018">
        <ele>1018</ele>
        <time>2020-08-16T11:40:40Z</time>
      </trkpt>
      <trkpt lat="44.97502" lon="3.53998">
        <ele>1018.2</ele>
        <time>2020-08-16T11:40:55Z</time>
      </trkpt>
      <trkpt lat="44.97396" lon="3.53967">
        <ele>1016.8</ele>
        <time>2020-08-16T11:41:15Z</time>
      </trkpt>
      <trkpt lat="44.97305" lon="3.54001">
        <ele>1016.4</ele>
        <time>2020-08-16T11:41:35Z</time>
      </trkpt>
      <trkpt lat="44.97202" lon="3.54024">
        <ele>1015.6</ele>
        <time>2020-08-16T11:41:55Z</time>
      </trkpt>
      <trkpt lat="44.97108" lon="3.53965">
        <ele>1015.1</ele>
        <time>2020-08-16T11:42:10Z</time>
      </trkpt>
      <trkpt lat="44.96972" lon="3.53941">
        <ele>1015.2</ele>
        <time>2020-08-16T11:42:25Z</time>
      </trkpt>
      <trkpt lat="44.9686" lon="3.5398">
        <ele>1014.4</ele>
        <time>2020-08-16T11:42:40Z</time>
      </trkpt>
      <trkpt lat="44.96787" lon="3.54079">
        <ele>1006.7</ele>
        <time>2020-08-16T11:44:23Z</time>
      </trkpt>
      <trkpt lat="44.96692" lon="3.54154">
        <ele>1004.3</ele>
        <time>2020-08-16T11:44:38Z</time>
      </trkpt>
      <trkpt lat="44.96597" lon="3.54207">
        <ele>1003.6</ele>
        <time>2020-08-16T11:44:53Z</time>
      </trkpt>
      <trkpt lat="44.96505" lon="3.5428">
        <ele>1001.3</ele>
        <time>2020-08-16T11:45:13Z</time>
      </trkpt>
      <trkpt lat="44.96417" lon="3.54308">
        <ele>1000.2</ele>
        <time>2020-08-16T11:45:49Z</time>
      </trkpt>
      <trkpt lat="44.96387" lon="3.54433">
        <ele>999.7</ele>
        <time>2020-08-16T11:46:34Z</time>
      </trkpt>
      <trkpt lat="44.96294" lon="3.54474">
        <ele>1000.2</ele>
        <time>2020-08-16T11:47:33Z</time>
      </trkpt>
      <trkpt lat="44.96198" lon="3.54486">
        <ele>996.6</ele>
        <time>2020-08-16T11:48:34Z</time>
      </trkpt>
      <trkpt lat="44.96114" lon="3.54528">
        <ele>996.4</ele>
        <time>2020-08-16T11:49:31Z</time>
      </trkpt>
      <trkpt lat="44.96037" lon="3.54613">
        <ele>999.5</ele>
        <time>2020-08-16T11:50:33Z</time>
      </trkpt>
      <trkpt lat="44.96109" lon="3.54705">
        <ele>1002.4</ele>
        <time>2020-08-16T11:51:35Z</time>
      </trkpt>
      <trkpt lat="44.96088" lon="3.54835">
        <ele>1006.8</ele>
        <time>2020-08-16T11:52:57Z</time>
      </trkpt>
    </trkseg>
  </trk>
  <trk>
    <name><![CDATA[route104]]></name>
    <trkseg>
      <trkpt lat="44.96113" lon="3.54712">
        <ele>1028.7</ele>
        <time>2020-08-17T04:19:54Z</time>
      </trkpt>
      <trkpt lat="44.96034" lon="3.54627">
        <ele>1024</ele>
        <time>2020-08-17T04:20:46Z</time>
      </trkpt>
      <trkpt lat="44.95966" lon="3.54713">
        <ele>1029.5</ele>
        <time>2020-08-17T04:31:24Z</time>
      </trkpt>
      <trkpt lat="44.9595" lon="3.5485">
        <ele>1029.2</ele>
        <time>2020-08-17T04:31:54Z</time>
      </trkpt>
      <trkpt lat="44.95874" lon="3.54977">
        <ele>1027.5</ele>
        <time>2020-08-17T04:32:09Z</time>
      </trkpt>
      <trkpt lat="44.95806" lon="3.5509">
        <ele>1025</ele>
        <time>2020-08-17T04:32:24Z</time>
      </trkpt>
      <trkpt lat="44.95722" lon="3.55155">
        <ele>1024</ele>
        <time>2020-08-17T04:32:49Z</time>
      </trkpt>
      <trkpt lat="44.95632" lon="3.55191">
        <ele>1021.2</ele>
        <time>2020-08-17T04:33:30Z</time>
      </trkpt>
      <trkpt lat="44.95557" lon="3.55279">
        <ele>1019.3</ele>
        <time>2020-08-17T04:34:28Z</time>
      </trkpt>
      <trkpt lat="44.95486" lon="3.5537">
        <ele>1020</ele>
        <time>2020-08-17T04:35:36Z</time>
      </trkpt>
      <trkpt lat="44.95391" lon="3.55389">
        <ele>1021.5</ele>
        <time>2020-08-17T04:36:45Z</time>
      </trkpt>
      <trkpt lat="44.95315" lon="3.55462">
        <ele>1025</ele>
        <time>2020-08-17T04:38:02Z</time>
      </trkpt>
      <trkpt lat="44.9522" lon="3.55429">
        <ele>1027.6</ele>
        <time>2020-08-17T04:39:11Z</time>
      </trkpt>
      <trkpt lat="44.95153" lon="3.55327">
        <ele>1031.6</ele>
        <time>2020-08-17T04:40:29Z</time>
      </trkpt>
      <trkpt lat="44.95063" lon="3.55298">
        <ele>1036.2</ele>
        <time>2020-08-17T04:41:38Z</time>
      </trkpt>
      <trkpt lat="44.94967" lon="3.55308">
        <ele>1040.2</ele>
        <time>2020-08-17T04:42:40Z</time>
      </trkpt>
      <trkpt lat="44.94882" lon="3.55363">
        <ele>1044.7</ele>
        <time>2020-08-17T04:43:48Z</time>
      </trkpt>
      <trkpt lat="44.9483" lon="3.55478">
        <ele>1049.2</ele>
        <time>2020-08-17T04:44:54Z</time>
      </trkpt>
      <trkpt lat="44.94813" lon="3.55623">
        <ele>1052.6</ele>
        <time>2020-08-17T04:45:45Z</time>
      </trkpt>
      <trkpt lat="44.94782" lon="3.55746">
        <ele>1055.6</ele>
        <time>2020-08-17T04:46:26Z</time>
      </trkpt>
      <trkpt lat="44.94713" lon="3.55842">
        <ele>1060.8</ele>
        <time>2020-08-17T04:47:29Z</time>
      </trkpt>
      <trkpt lat="44.94676" lon="3.55967">
        <ele>1066.3</ele>
        <time>2020-08-17T04:48:39Z</time>
      </trkpt>
      <trkpt lat="44.94639" lon="3.5609">
        <ele>1071</ele>
        <time>2020-08-17T04:49:42Z</time>
      </trkpt>
      <trkpt lat="44.94567" lon="3.56179">
        <ele>1076.6</ele>
        <time>2020-08-17T04:50:57Z</time>
      </trkpt>
      <trkpt lat="44.945" lon="3.56276">
        <ele>1084.5</ele>
        <time>2020-08-17T04:52:09Z</time>
      </trkpt>
      <trkpt lat="44.94441" lon="3.56375">
        <ele>1094.7</ele>
        <time>2020-08-17T04:53:17Z</time>
      </trkpt>
      <trkpt lat="44.94393" lon="3.56481">
        <ele>1103.3</ele>
        <time>2020-08-17T04:54:16Z</time>
      </trkpt>
      <trkpt lat="44.94326" lon="3.56564">
        <ele>1108.9</ele>
        <time>2020-08-17T04:55:04Z</time>
      </trkpt>
      <trkpt lat="44.94259" lon="3.56667">
        <ele>1113.7</ele>
        <time>2020-08-17T04:55:51Z</time>
      </trkpt>
      <trkpt lat="44.94182" lon="3.56743">
        <ele>1117.9</ele>
        <time>2020-08-17T04:56:21Z</time>
      </trkpt>
      <trkpt lat="44.94106" lon="3.56814">
        <ele>1133.9</ele>
        <time>2020-08-17T05:04:23Z</time>
      </trkpt>
      <trkpt lat="44.94028" lon="3.56888">
        <ele>1140.6</ele>
        <time>2020-08-17T05:05:21Z</time>
      </trkpt>
      <trkpt lat="44.93952" lon="3.56955">
        <ele>1143.7</ele>
        <time>2020-08-17T05:06:07Z</time>
      </trkpt>
      <trkpt lat="44.93862" lon="3.56981">
        <ele>1145.8</ele>
        <time>2020-08-17T05:06:52Z</time>
      </trkpt>
      <trkpt lat="44.93769" lon="3.56989">
        <ele>1147.3</ele>
        <time>2020-08-17T05:07:32Z</time>
      </trkpt>
      <trkpt lat="44.93674" lon="3.57003">
        <ele>1148.5</ele>
        <time>2020-08-17T05:08:07Z</time>
      </trkpt>
      <trkpt lat="44.93576" lon="3.57018">
        <ele>1150.7</ele>
        <time>2020-08-17T05:08:42Z</time>
      </trkpt>
      <trkpt lat="44.93477" lon="3.56964">
        <ele>1150.8</ele>
        <time>2020-08-17T05:08:57Z</time>
      </trkpt>
      <trkpt lat="44.93377" lon="3.56841">
        <ele>1150.3</ele>
        <time>2020-08-17T05:09:12Z</time>
      </trkpt>
      <trkpt lat="44.9326" lon="3.56895">
        <ele>1148.2</ele>
        <time>2020-08-17T05:09:27Z</time>
      </trkpt>
      <trkpt lat="44.93188" lon="3.57019">
        <ele>1146.2</ele>
        <time>2020-08-17T05:09:37Z</time>
      </trkpt>
      <trkpt lat="44.93114" lon="3.57144">
        <ele>1143.9</ele>
        <time>2020-08-17T05:09:47Z</time>
      </trkpt>
      <trkpt lat="44.93038" lon="3.57267">
        <ele>1140.4</ele>
        <time>2020-08-17T05:09:57Z</time>
      </trkpt>
      <trkpt lat="44.92961" lon="3.57379">
        <ele>1137.3</ele>
        <time>2020-08-17T05:10:07Z</time>
      </trkpt>
      <trkpt lat="44.92843" lon="3.57305">
        <ele>1134.3</ele>
        <time>2020-08-17T05:10:22Z</time>
      </trkpt>
      <trkpt lat="44.92789" lon="3.57185">
        <ele>1130.8</ele>
        <time>2020-08-17T05:10:32Z</time>
      </trkpt>
      <trkpt lat="44.92698" lon="3.57198">
        <ele>1125.9</ele>
        <time>2020-08-17T05:10:42Z</time>
      </trkpt>
      <trkpt lat="44.92663" lon="3.57332">
        <ele>1119.8</ele>
        <time>2020-08-17T05:10:57Z</time>
      </trkpt>
      <trkpt lat="44.92647" lon="3.5746">
        <ele>1113.9</ele>
        <time>2020-08-17T05:11:47Z</time>
      </trkpt>
      <trkpt lat="44.92659" lon="3.57592">
        <ele>1105.9</ele>
        <time>2020-08-17T05:12:47Z</time>
      </trkpt>
      <trkpt lat="44.92628" lon="3.57719">
        <ele>1104</ele>
        <time>2020-08-17T05:14:01Z</time>
      </trkpt>
      <trkpt lat="44.92577" lon="3.57833">
        <ele>1106.6</ele>
        <time>2020-08-17T05:15:10Z</time>
      </trkpt>
      <trkpt lat="44.92551" lon="3.57959">
        <ele>1111.6</ele>
        <time>2020-08-17T05:16:17Z</time>
      </trkpt>
      <trkpt lat="44.92474" lon="3.58021">
        <ele>1117.2</ele>
        <time>2020-08-17T05:17:42Z</time>
      </trkpt>
      <trkpt lat="44.92396" lon="3.57944">
        <ele>1120.8</ele>
        <time>2020-08-17T05:19:01Z</time>
      </trkpt>
      <trkpt lat="44.92376" lon="3.58069">
        <ele>1124.8</ele>
        <time>2020-08-17T05:20:09Z</time>
      </trkpt>
      <trkpt lat="44.92365" lon="3.582">
        <ele>1128.7</ele>
        <time>2020-08-17T05:21:19Z</time>
      </trkpt>
      <trkpt lat="44.92315" lon="3.58304">
        <ele>1131.5</ele>
        <time>2020-08-17T05:22:14Z</time>
      </trkpt>
      <trkpt lat="44.92206" lon="3.58355">
        <ele>1134.3</ele>
        <time>2020-08-17T05:22:34Z</time>
      </trkpt>
      <trkpt lat="44.92109" lon="3.58444">
        <ele>1134.3</ele>
        <time>2020-08-17T05:22:49Z</time>
      </trkpt>
      <trkpt lat="44.9203" lon="3.58583">
        <ele>1134.7</ele>
        <time>2020-08-17T05:23:04Z</time>
      </trkpt>
      <trkpt lat="44.91954" lon="3.58655">
        <ele>1134.2</ele>
        <time>2020-08-17T05:23:14Z</time>
      </trkpt>
      <trkpt lat="44.91861" lon="3.58606">
        <ele>1132.8</ele>
        <time>2020-08-17T05:23:24Z</time>
      </trkpt>
      <trkpt lat="44.9177" lon="3.58588">
        <ele>1132</ele>
        <time>2020-08-17T05:23:34Z</time>
      </trkpt>
      <trkpt lat="44.91714" lon="3.58692">
        <ele>1130.9</ele>
        <time>2020-08-17T05:23:54Z</time>
      </trkpt>
      <trkpt lat="44.91689" lon="3.58815">
        <ele>1127.3</ele>
        <time>2020-08-17T05:24:34Z</time>
      </trkpt>
      <trkpt lat="44.91637" lon="3.58928">
        <ele>1121</ele>
        <time>2020-08-17T05:24:49Z</time>
      </trkpt>
      <trkpt lat="44.91591" lon="3.59044">
        <ele>1120</ele>
        <time>2020-08-17T05:25:04Z</time>
      </trkpt>
      <trkpt lat="44.91607" lon="3.59182">
        <ele>1118.7</ele>
        <time>2020-08-17T05:25:24Z</time>
      </trkpt>
      <trkpt lat="44.91643" lon="3.59327">
        <ele>1117.9</ele>
        <time>2020-08-17T05:25:39Z</time>
      </trkpt>
      <trkpt lat="44.91699" lon="3.59447">
        <ele>1116.4</ele>
        <time>2020-08-17T05:25:54Z</time>
      </trkpt>
      <trkpt lat="44.91782" lon="3.59545">
        <ele>1115.6</ele>
        <time>2020-08-17T05:26:09Z</time>
      </trkpt>
      <trkpt lat="44.91873" lon="3.59656">
        <ele>1115.1</ele>
        <time>2020-08-17T05:26:29Z</time>
      </trkpt>
      <trkpt lat="44.91932" lon="3.59756">
        <ele>1111.8</ele>
        <time>2020-08-17T05:26:44Z</time>
      </trkpt>
      <trkpt lat="44.92021" lon="3.5987">
        <ele>1110.5</ele>
        <time>2020-08-17T05:26:59Z</time>
      </trkpt>
      <trkpt lat="44.92053" lon="3.59992">
        <ele>1109.3</ele>
        <time>2020-08-17T05:27:09Z</time>
      </trkpt>
      <trkpt lat="44.92045" lon="3.60138">
        <ele>1108.4</ele>
        <time>2020-08-17T05:27:19Z</time>
      </trkpt>
      <trkpt lat="44.92074" lon="3.60294">
        <ele>1107.5</ele>
        <time>2020-08-17T05:27:29Z</time>
      </trkpt>
      <trkpt lat="44.92121" lon="3.60425">
        <ele>1100</ele>
        <time>2020-08-17T05:27:39Z</time>
      </trkpt>
      <trkpt lat="44.92089" lon="3.6057">
        <ele>1095.1</ele>
        <time>2020-08-17T05:27:49Z</time>
      </trkpt>
      <trkpt lat="44.92046" lon="3.60694">
        <ele>1088.5</ele>
        <time>2020-08-17T05:27:59Z</time>
      </trkpt>
      <trkpt lat="44.9209" lon="3.60871">
        <ele>1068.2</ele>
        <time>2020-08-17T05:28:14Z</time>
      </trkpt>
      <trkpt lat="44.92136" lon="3.61014">
        <ele>1062.5</ele>
        <time>2020-08-17T05:28:24Z</time>
      </trkpt>
      <trkpt lat="44.92173" lon="3.61146">
        <ele>1057.2</ele>
        <time>2020-08-17T05:28:34Z</time>
      </trkpt>
      <trkpt lat="44.92253" lon="3.61214">
        <ele>1050.7</ele>
        <time>2020-08-17T05:28:44Z</time>
      </trkpt>
      <trkpt lat="44.92321" lon="3.61305">
        <ele>1044.3</ele>
        <time>2020-08-17T05:28:54Z</time>
      </trkpt>
      <trkpt lat="44.92381" lon="3.61445">
        <ele>1033.6</ele>
        <time>2020-08-17T05:29:09Z</time>
      </trkpt>
      <trkpt lat="44.92332" lon="3.61589">
        <ele>1023.8</ele>
        <time>2020-08-17T05:29:24Z</time>
      </trkpt>
      <trkpt lat="44.92239" lon="3.61568">
        <ele>1019.4</ele>
        <time>2020-08-17T05:29:34Z</time>
      </trkpt>
      <trkpt lat="44.92137" lon="3.61546">
        <ele>1011.8</ele>
        <time>2020-08-17T05:29:44Z</time>
      </trkpt>
      <trkpt lat="44.92047" lon="3.61547">
        <ele>1005.6</ele>
        <time>2020-08-17T05:29:54Z</time>
      </trkpt>
      <trkpt lat="44.91921" lon="3.61571">
        <ele>995.3</ele>
        <time>2020-08-17T05:30:09Z</time>
      </trkpt>
      <trkpt lat="44.91835" lon="3.61625">
        <ele>972.5</ele>
        <time>2020-08-17T05:30:24Z</time>
      </trkpt>
      <trkpt lat="44.91824" lon="3.61775">
        <ele>959.8</ele>
        <time>2020-08-17T05:30:39Z</time>
      </trkpt>
      <trkpt lat="44.91762" lon="3.61882">
        <ele>946.6</ele>
        <time>2020-08-17T05:30:49Z</time>
      </trkpt>
      <trkpt lat="44.91747" lon="3.6204">
        <ele>945</ele>
        <time>2020-08-17T05:30:59Z</time>
      </trkpt>
      <trkpt lat="44.91649" lon="3.62122">
        <ele>949</ele>
        <time>2020-08-17T05:31:14Z</time>
      </trkpt>
      <trkpt lat="44.91542" lon="3.62123">
        <ele>950.5</ele>
        <time>2020-08-17T05:32:15Z</time>
      </trkpt>
      <trkpt lat="44.91516" lon="3.62266">
        <ele>931</ele>
        <time>2020-08-17T05:32:35Z</time>
      </trkpt>
      <trkpt lat="44.91571" lon="3.62415">
        <ele>923.4</ele>
        <time>2020-08-17T05:32:50Z</time>
      </trkpt>
      <trkpt lat="44.91588" lon="3.62562">
        <ele>917.7</ele>
        <time>2020-08-17T05:33:09Z</time>
      </trkpt>
      <trkpt lat="44.91527" lon="3.62661">
        <ele>910.7</ele>
        <time>2020-08-17T05:34:14Z</time>
      </trkpt>
      <trkpt lat="44.91472" lon="3.6276">
        <ele>907.4</ele>
        <time>2020-08-17T05:35:13Z</time>
      </trkpt>
      <trkpt lat="44.9142" lon="3.62872">
        <ele>907.4</ele>
        <time>2020-08-17T05:36:21Z</time>
      </trkpt>
      <trkpt lat="44.91429" lon="3.63009">
        <ele>910.2</ele>
        <time>2020-08-17T05:37:17Z</time>
      </trkpt>
      <trkpt lat="44.91431" lon="3.63149">
        <ele>913</ele>
        <time>2020-08-17T05:38:18Z</time>
      </trkpt>
      <trkpt lat="44.91503" lon="3.63235">
        <ele>915.6</ele>
        <time>2020-08-17T05:39:19Z</time>
      </trkpt>
      <trkpt lat="44.91592" lon="3.63276">
        <ele>917.4</ele>
        <time>2020-08-17T05:40:04Z</time>
      </trkpt>
      <trkpt lat="44.91681" lon="3.63304">
        <ele>920</ele>
        <time>2020-08-17T05:40:52Z</time>
      </trkpt>
      <trkpt lat="44.91748" lon="3.634">
        <ele>922.7</ele>
        <time>2020-08-17T05:41:37Z</time>
      </trkpt>
      <trkpt lat="44.91785" lon="3.63523">
        <ele>925.1</ele>
        <time>2020-08-17T05:42:26Z</time>
      </trkpt>
      <trkpt lat="44.91821" lon="3.63655">
        <ele>927.4</ele>
        <time>2020-08-17T05:43:18Z</time>
      </trkpt>
      <trkpt lat="44.91869" lon="3.63776">
        <ele>929.7</ele>
        <time>2020-08-17T05:44:10Z</time>
      </trkpt>
      <trkpt lat="44.91955" lon="3.6383">
        <ele>931.9</ele>
        <time>2020-08-17T05:45:00Z</time>
      </trkpt>
      <trkpt lat="44.92047" lon="3.63792">
        <ele>933.6</ele>
        <time>2020-08-17T05:45:45Z</time>
      </trkpt>
      <trkpt lat="44.92003" lon="3.63913">
        <ele>937.1</ele>
        <time>2020-08-17T05:47:00Z</time>
      </trkpt>
      <trkpt lat="44.92002" lon="3.64051">
        <ele>940.9</ele>
        <time>2020-08-17T05:48:09Z</time>
      </trkpt>
      <trkpt lat="44.92043" lon="3.64173">
        <ele>944.7</ele>
        <time>2020-08-17T05:49:19Z</time>
      </trkpt>
      <trkpt lat="44.92096" lon="3.64281">
        <ele>949.4</ele>
        <time>2020-08-17T05:50:20Z</time>
      </trkpt>
      <trkpt lat="44.92165" lon="3.64367">
        <ele>956.3</ele>
        <time>2020-08-17T05:51:19Z</time>
      </trkpt>
      <trkpt lat="44.92232" lon="3.64467">
        <ele>962.8</ele>
        <time>2020-08-17T05:52:20Z</time>
      </trkpt>
      <trkpt lat="44.92261" lon="3.64595">
        <ele>970.7</ele>
        <time>2020-08-17T05:53:24Z</time>
      </trkpt>
      <trkpt lat="44.92241" lon="3.64729">
        <ele>981.1</ele>
        <time>2020-08-17T05:54:27Z</time>
      </trkpt>
      <trkpt lat="44.92223" lon="3.64862">
        <ele>990.7</ele>
        <time>2020-08-17T05:55:29Z</time>
      </trkpt>
      <trkpt lat="44.92228" lon="3.65003">
        <ele>996.4</ele>
        <time>2020-08-17T05:56:32Z</time>
      </trkpt>
      <trkpt lat="44.92202" lon="3.65124">
        <ele>1002.4</ele>
        <time>2020-08-17T06:00:10Z</time>
      </trkpt>
      <trkpt lat="44.92202" lon="3.65276">
        <ele>1012.5</ele>
        <time>2020-08-17T06:06:55Z</time>
      </trkpt>
      <trkpt lat="44.92187" lon="3.65427">
        <ele>1012.4</ele>
        <time>2020-08-17T06:07:10Z</time>
      </trkpt>
      <trkpt lat="44.92183" lon="3.65555">
        <ele>1010.9</ele>
        <time>2020-08-17T06:07:20Z</time>
      </trkpt>
      <trkpt lat="44.92274" lon="3.65684">
        <ele>1007.4</ele>
        <time>2020-08-17T06:07:35Z</time>
      </trkpt>
      <trkpt lat="44.92368" lon="3.65774">
        <ele>1007.7</ele>
        <time>2020-08-17T06:07:45Z</time>
      </trkpt>
      <trkpt lat="44.92369" lon="3.65934">
        <ele>1003.7</ele>
        <time>2020-08-17T06:07:55Z</time>
      </trkpt>
      <trkpt lat="44.92322" lon="3.66073">
        <ele>998.3</ele>
        <time>2020-08-17T06:08:05Z</time>
      </trkpt>
      <trkpt lat="44.92294" lon="3.66229">
        <ele>982</ele>
        <time>2020-08-17T06:11:15Z</time>
      </trkpt>
      <trkpt lat="44.92292" lon="3.66377">
        <ele>975.8</ele>
        <time>2020-08-17T06:11:30Z</time>
      </trkpt>
      <trkpt lat="44.92376" lon="3.66443">
        <ele>971.9</ele>
        <time>2020-08-17T06:11:40Z</time>
      </trkpt>
      <trkpt lat="44.92416" lon="3.66581">
        <ele>967.3</ele>
        <time>2020-08-17T06:11:50Z</time>
      </trkpt>
      <trkpt lat="44.92535" lon="3.66685">
        <ele>961.3</ele>
        <time>2020-08-17T06:12:05Z</time>
      </trkpt>
      <trkpt lat="44.92552" lon="3.66836">
        <ele>952.8</ele>
        <time>2020-08-17T06:12:15Z</time>
      </trkpt>
      <trkpt lat="44.92606" lon="3.66948">
        <ele>944.8</ele>
        <time>2020-08-17T06:12:25Z</time>
      </trkpt>
      <trkpt lat="44.92702" lon="3.66917">
        <ele>938</ele>
        <time>2020-08-17T06:12:35Z</time>
      </trkpt>
      <trkpt lat="44.92814" lon="3.66851">
        <ele>929</ele>
        <time>2020-08-17T06:12:45Z</time>
      </trkpt>
      <trkpt lat="44.92919" lon="3.66868">
        <ele>918.1</ele>
        <time>2020-08-17T06:12:55Z</time>
      </trkpt>
      <trkpt lat="44.93009" lon="3.66964">
        <ele>910.8</ele>
        <time>2020-08-17T06:13:05Z</time>
      </trkpt>
      <trkpt lat="44.93087" lon="3.67088">
        <ele>904.8</ele>
        <time>2020-08-17T06:13:15Z</time>
      </trkpt>
      <trkpt lat="44.93119" lon="3.67228">
        <ele>899.3</ele>
        <time>2020-08-17T06:13:25Z</time>
      </trkpt>
      <trkpt lat="44.93031" lon="3.67316">
        <ele>887.5</ele>
        <time>2020-08-17T06:13:35Z</time>
      </trkpt>
      <trkpt lat="44.92933" lon="3.6735">
        <ele>879.9</ele>
        <time>2020-08-17T06:13:45Z</time>
      </trkpt>
      <trkpt lat="44.92956" lon="3.67521">
        <ele>866.2</ele>
        <time>2020-08-17T06:14:00Z</time>
      </trkpt>
      <trkpt lat="44.93009" lon="3.67654">
        <ele>860.5</ele>
        <time>2020-08-17T06:14:10Z</time>
      </trkpt>
      <trkpt lat="44.93042" lon="3.67836">
        <ele>850.6</ele>
        <time>2020-08-17T06:14:25Z</time>
      </trkpt>
      <trkpt lat="44.92934" lon="3.6791">
        <ele>833.8</ele>
        <time>2020-08-17T06:14:40Z</time>
      </trkpt>
      <trkpt lat="44.9283" lon="3.67884">
        <ele>827.9</ele>
        <time>2020-08-17T06:14:50Z</time>
      </trkpt>
      <trkpt lat="44.92728" lon="3.67819">
        <ele>822</ele>
        <time>2020-08-17T06:15:00Z</time>
      </trkpt>
      <trkpt lat="44.92623" lon="3.67752">
        <ele>812.8</ele>
        <time>2020-08-17T06:15:10Z</time>
      </trkpt>
      <trkpt lat="44.92522" lon="3.67676">
        <ele>803</ele>
        <time>2020-08-17T06:15:20Z</time>
      </trkpt>
      <trkpt lat="44.92434" lon="3.67618">
        <ele>796.6</ele>
        <time>2020-08-17T06:15:30Z</time>
      </trkpt>
      <trkpt lat="44.92328" lon="3.67531">
        <ele>779.2</ele>
        <time>2020-08-17T06:15:45Z</time>
      </trkpt>
      <trkpt lat="44.92243" lon="3.67454">
        <ele>772.5</ele>
        <time>2020-08-17T06:15:55Z</time>
      </trkpt>
      <trkpt lat="44.9217" lon="3.67354">
        <ele>766.9</ele>
        <time>2020-08-17T06:16:05Z</time>
      </trkpt>
      <trkpt lat="44.92096" lon="3.67242">
        <ele>761.1</ele>
        <time>2020-08-17T06:16:15Z</time>
      </trkpt>
      <trkpt lat="44.92028" lon="3.67144">
        <ele>755.6</ele>
        <time>2020-08-17T06:16:25Z</time>
      </trkpt>
      <trkpt lat="44.91936" lon="3.67191">
        <ele>746.1</ele>
        <time>2020-08-17T06:17:21Z</time>
      </trkpt>
      <trkpt lat="44.9189" lon="3.67299">
        <ele>734.5</ele>
        <time>2020-08-17T06:17:57Z</time>
      </trkpt>
      <trkpt lat="44.91972" lon="3.67379">
        <ele>729.2</ele>
        <time>2020-08-17T06:18:55Z</time>
      </trkpt>
      <trkpt lat="44.92011" lon="3.67498">
        <ele>727.7</ele>
        <time>2020-08-17T06:22:01Z</time>
      </trkpt>
      <trkpt lat="44.91916" lon="3.67526">
        <ele>727.9</ele>
        <time>2020-08-17T06:23:29Z</time>
      </trkpt>
      <trkpt lat="44.91823" lon="3.67487">
        <ele>729.6</ele>
        <time>2020-08-17T06:24:45Z</time>
      </trkpt>
      <trkpt lat="44.9173" lon="3.67477">
        <ele>732.2</ele>
        <time>2020-08-17T06:25:53Z</time>
      </trkpt>
      <trkpt lat="44.91645" lon="3.67538">
        <ele>735.3</ele>
        <time>2020-08-17T06:27:00Z</time>
      </trkpt>
      <trkpt lat="44.91577" lon="3.67637">
        <ele>738.6</ele>
        <time>2020-08-17T06:28:12Z</time>
      </trkpt>
      <trkpt lat="44.91514" lon="3.67738">
        <ele>742</ele>
        <time>2020-08-17T06:29:18Z</time>
      </trkpt>
      <trkpt lat="44.91452" lon="3.67836">
        <ele>746</ele>
        <time>2020-08-17T06:30:23Z</time>
      </trkpt>
      <trkpt lat="44.91406" lon="3.67955">
        <ele>750.1</ele>
        <time>2020-08-17T06:31:29Z</time>
      </trkpt>
      <trkpt lat="44.91392" lon="3.68081">
        <ele>756.6</ele>
        <time>2020-08-17T06:32:38Z</time>
      </trkpt>
      <trkpt lat="44.91486" lon="3.68088">
        <ele>766.1</ele>
        <time>2020-08-17T06:33:46Z</time>
      </trkpt>
      <trkpt lat="44.91574" lon="3.68146">
        <ele>775.9</ele>
        <time>2020-08-17T06:34:52Z</time>
      </trkpt>
      <trkpt lat="44.91663" lon="3.68214">
        <ele>786.7</ele>
        <time>2020-08-17T06:36:04Z</time>
      </trkpt>
      <trkpt lat="44.91756" lon="3.68224">
        <ele>798.4</ele>
        <time>2020-08-17T06:37:15Z</time>
      </trkpt>
      <trkpt lat="44.91846" lon="3.68208">
        <ele>809.7</ele>
        <time>2020-08-17T06:38:14Z</time>
      </trkpt>
      <trkpt lat="44.91772" lon="3.68297">
        <ele>830.7</ele>
        <time>2020-08-17T06:39:55Z</time>
      </trkpt>
      <trkpt lat="44.91709" lon="3.68389">
        <ele>838</ele>
        <time>2020-08-17T06:41:00Z</time>
      </trkpt>
      <trkpt lat="44.91631" lon="3.68448">
        <ele>842.8</ele>
        <time>2020-08-17T06:42:04Z</time>
      </trkpt>
      <trkpt lat="44.91542" lon="3.6849">
        <ele>848.1</ele>
        <time>2020-08-17T06:43:14Z</time>
      </trkpt>
      <trkpt lat="44.91505" lon="3.68613">
        <ele>854.8</ele>
        <time>2020-08-17T06:44:26Z</time>
      </trkpt>
      <trkpt lat="44.91545" lon="3.68738">
        <ele>862.7</ele>
        <time>2020-08-17T06:45:37Z</time>
      </trkpt>
      <trkpt lat="44.91487" lon="3.68837">
        <ele>869.1</ele>
        <time>2020-08-17T06:46:52Z</time>
      </trkpt>
      <trkpt lat="44.91405" lon="3.68894">
        <ele>874</ele>
        <time>2020-08-17T06:47:55Z</time>
      </trkpt>
      <trkpt lat="44.91369" lon="3.69024">
        <ele>889</ele>
        <time>2020-08-17T06:49:08Z</time>
      </trkpt>
      <trkpt lat="44.91444" lon="3.68947">
        <ele>906.1</ele>
        <time>2020-08-17T06:51:20Z</time>
      </trkpt>
      <trkpt lat="44.91539" lon="3.68937">
        <ele>910</ele>
        <time>2020-08-17T06:52:24Z</time>
      </trkpt>
      <trkpt lat="44.91632" lon="3.689">
        <ele>914.5</ele>
        <time>2020-08-17T06:53:38Z</time>
      </trkpt>
      <trkpt lat="44.91709" lon="3.68818">
        <ele>918.1</ele>
        <time>2020-08-17T06:54:44Z</time>
      </trkpt>
      <trkpt lat="44.91667" lon="3.68943">
        <ele>925.1</ele>
        <time>2020-08-17T06:56:10Z</time>
      </trkpt>
      <trkpt lat="44.91612" lon="3.69059">
        <ele>930.1</ele>
        <time>2020-08-17T06:57:22Z</time>
      </trkpt>
      <trkpt lat="44.91543" lon="3.69152">
        <ele>935.2</ele>
        <time>2020-08-17T06:58:28Z</time>
      </trkpt>
      <trkpt lat="44.91528" lon="3.69284">
        <ele>944.8</ele>
        <time>2020-08-17T06:59:47Z</time>
      </trkpt>
      <trkpt lat="44.91552" lon="3.69416">
        <ele>958.4</ele>
        <time>2020-08-17T07:00:57Z</time>
      </trkpt>
      <trkpt lat="44.91529" lon="3.69548">
        <ele>967.8</ele>
        <time>2020-08-17T07:02:08Z</time>
      </trkpt>
      <trkpt lat="44.91496" lon="3.69673">
        <ele>974</ele>
        <time>2020-08-17T07:03:18Z</time>
      </trkpt>
      <trkpt lat="44.91508" lon="3.69804">
        <ele>979.4</ele>
        <time>2020-08-17T07:04:35Z</time>
      </trkpt>
      <trkpt lat="44.91477" lon="3.69932">
        <ele>984.2</ele>
        <time>2020-08-17T07:05:44Z</time>
      </trkpt>
      <trkpt lat="44.91546" lon="3.70021">
        <ele>992.1</ele>
        <time>2020-08-17T07:06:53Z</time>
      </trkpt>
      <trkpt lat="44.91593" lon="3.70137">
        <ele>1011.4</ele>
        <time>2020-08-17T07:08:08Z</time>
      </trkpt>
      <trkpt lat="44.91629" lon="3.70263">
        <ele>1026.8</ele>
        <time>2020-08-17T07:09:21Z</time>
      </trkpt>
      <trkpt lat="44.91698" lon="3.70367">
        <ele>1040.6</ele>
        <time>2020-08-17T07:14:39Z</time>
      </trkpt>
      <trkpt lat="44.91742" lon="3.70487">
        <ele>1043.8</ele>
        <time>2020-08-17T07:15:45Z</time>
      </trkpt>
      <trkpt lat="44.91755" lon="3.70626">
        <ele>1047.2</ele>
        <time>2020-08-17T07:16:59Z</time>
      </trkpt>
      <trkpt lat="44.91814" lon="3.7073">
        <ele>1050.7</ele>
        <time>2020-08-17T07:18:06Z</time>
      </trkpt>
      <trkpt lat="44.91905" lon="3.70749">
        <ele>1053.9</ele>
        <time>2020-08-17T07:19:15Z</time>
      </trkpt>
      <trkpt lat="44.91996" lon="3.70733">
        <ele>1057.9</ele>
        <time>2020-08-17T07:20:25Z</time>
      </trkpt>
      <trkpt lat="44.92077" lon="3.70661">
        <ele>1063.5</ele>
        <time>2020-08-17T07:21:38Z</time>
      </trkpt>
      <trkpt lat="44.92143" lon="3.70755">
        <ele>1074.7</ele>
        <time>2020-08-17T07:23:04Z</time>
      </trkpt>
      <trkpt lat="44.92114" lon="3.70874">
        <ele>1088.8</ele>
        <time>2020-08-17T07:24:07Z</time>
      </trkpt>
      <trkpt lat="44.92154" lon="3.70996">
        <ele>1098.5</ele>
        <time>2020-08-17T07:25:14Z</time>
      </trkpt>
      <trkpt lat="44.92247" lon="3.70999">
        <ele>1103.8</ele>
        <time>2020-08-17T07:26:20Z</time>
      </trkpt>
      <trkpt lat="44.92336" lon="3.70951">
        <ele>1109</ele>
        <time>2020-08-17T07:27:26Z</time>
      </trkpt>
      <trkpt lat="44.92432" lon="3.70936">
        <ele>1113.5</ele>
        <time>2020-08-17T07:28:35Z</time>
      </trkpt>
      <trkpt lat="44.92504" lon="3.71019">
        <ele>1123.4</ele>
        <time>2020-08-17T07:34:18Z</time>
      </trkpt>
      <trkpt lat="44.92463" lon="3.71142">
        <ele>1128.4</ele>
        <time>2020-08-17T07:35:03Z</time>
      </trkpt>
      <trkpt lat="44.92453" lon="3.71272">
        <ele>1131.4</ele>
        <time>2020-08-17T07:35:43Z</time>
      </trkpt>
      <trkpt lat="44.92443" lon="3.71405">
        <ele>1133.9</ele>
        <time>2020-08-17T07:36:23Z</time>
      </trkpt>
      <trkpt lat="44.9243" lon="3.71541">
        <ele>1136.6</ele>
        <time>2020-08-17T07:37:08Z</time>
      </trkpt>
      <trkpt lat="44.92407" lon="3.71671">
        <ele>1138.7</ele>
        <time>2020-08-17T07:37:43Z</time>
      </trkpt>
      <trkpt lat="44.92386" lon="3.718">
        <ele>1140.5</ele>
        <time>2020-08-17T07:38:13Z</time>
      </trkpt>
      <trkpt lat="44.92365" lon="3.71934">
        <ele>1142.3</ele>
        <time>2020-08-17T07:38:43Z</time>
      </trkpt>
      <trkpt lat="44.92274" lon="3.72008">
        <ele>1146.3</ele>
        <time>2020-08-17T07:39:08Z</time>
      </trkpt>
      <trkpt lat="44.92184" lon="3.71997">
        <ele>1147.7</ele>
        <time>2020-08-17T07:39:33Z</time>
      </trkpt>
      <trkpt lat="44.92113" lon="3.72097">
        <ele>1152.2</ele>
        <time>2020-08-17T07:40:08Z</time>
      </trkpt>
      <trkpt lat="44.92068" lon="3.72206">
        <ele>1154.2</ele>
        <time>2020-08-17T07:40:38Z</time>
      </trkpt>
      <trkpt lat="44.92033" lon="3.72328">
        <ele>1159.4</ele>
        <time>2020-08-17T07:41:03Z</time>
      </trkpt>
      <trkpt lat="44.91986" lon="3.7244">
        <ele>1160.9</ele>
        <time>2020-08-17T07:41:28Z</time>
      </trkpt>
      <trkpt lat="44.91939" lon="3.72557">
        <ele>1162.2</ele>
        <time>2020-08-17T07:41:58Z</time>
      </trkpt>
      <trkpt lat="44.91917" lon="3.72688">
        <ele>1164.5</ele>
        <time>2020-08-17T07:42:33Z</time>
      </trkpt>
      <trkpt lat="44.91903" lon="3.72821">
        <ele>1167</ele>
        <time>2020-08-17T07:43:08Z</time>
      </trkpt>
      <trkpt lat="44.91863" lon="3.72942">
        <ele>1168.9</ele>
        <time>2020-08-17T07:43:43Z</time>
      </trkpt>
      <trkpt lat="44.91837" lon="3.73066">
        <ele>1170.4</ele>
        <time>2020-08-17T07:44:13Z</time>
      </trkpt>
      <trkpt lat="44.9183" lon="3.73204">
        <ele>1172.9</ele>
        <time>2020-08-17T07:45:07Z</time>
      </trkpt>
      <trkpt lat="44.91817" lon="3.73337">
        <ele>1175.5</ele>
        <time>2020-08-17T07:46:05Z</time>
      </trkpt>
      <trkpt lat="44.91793" lon="3.73464">
        <ele>1177.5</ele>
        <time>2020-08-17T07:46:50Z</time>
      </trkpt>
      <trkpt lat="44.91763" lon="3.73591">
        <ele>1179.3</ele>
        <time>2020-08-17T07:47:35Z</time>
      </trkpt>
      <trkpt lat="44.91712" lon="3.73711">
        <ele>1180.9</ele>
        <time>2020-08-17T07:48:15Z</time>
      </trkpt>
      <trkpt lat="44.91669" lon="3.73829">
        <ele>1183.8</ele>
        <time>2020-08-17T07:48:40Z</time>
      </trkpt>
      <trkpt lat="44.9164" lon="3.73977">
        <ele>1185</ele>
        <time>2020-08-17T07:49:05Z</time>
      </trkpt>
      <trkpt lat="44.91622" lon="3.74104">
        <ele>1185.7</ele>
        <time>2020-08-17T07:49:25Z</time>
      </trkpt>
      <trkpt lat="44.9167" lon="3.74237">
        <ele>1186.3</ele>
        <time>2020-08-17T07:49:45Z</time>
      </trkpt>
      <trkpt lat="44.9159" lon="3.74296">
        <ele>1187.5</ele>
        <time>2020-08-17T07:50:05Z</time>
      </trkpt>
      <trkpt lat="44.91514" lon="3.74381">
        <ele>1189.9</ele>
        <time>2020-08-17T07:51:08Z</time>
      </trkpt>
      <trkpt lat="44.91449" lon="3.74486">
        <ele>1193.6</ele>
        <time>2020-08-17T07:52:01Z</time>
      </trkpt>
      <trkpt lat="44.9138" lon="3.74594">
        <ele>1196.2</ele>
        <time>2020-08-17T07:52:36Z</time>
      </trkpt>
      <trkpt lat="44.91388" lon="3.74726">
        <ele>1199.9</ele>
        <time>2020-08-17T07:53:26Z</time>
      </trkpt>
      <trkpt lat="44.91467" lon="3.74809">
        <ele>1206.4</ele>
        <time>2020-08-17T07:54:36Z</time>
      </trkpt>
      <trkpt lat="44.91549" lon="3.74884">
        <ele>1212.8</ele>
        <time>2020-08-17T07:55:40Z</time>
      </trkpt>
      <trkpt lat="44.91625" lon="3.74965">
        <ele>1217.2</ele>
        <time>2020-08-17T07:56:45Z</time>
      </trkpt>
      <trkpt lat="44.91687" lon="3.75071">
        <ele>1221.1</ele>
        <time>2020-08-17T07:57:54Z</time>
      </trkpt>
      <trkpt lat="44.91689" lon="3.75202">
        <ele>1225</ele>
        <time>2020-08-17T07:59:03Z</time>
      </trkpt>
      <trkpt lat="44.9168" lon="3.75337">
        <ele>1228.8</ele>
        <time>2020-08-17T08:00:15Z</time>
      </trkpt>
      <trkpt lat="44.91684" lon="3.75469">
        <ele>1232.3</ele>
        <time>2020-08-17T08:01:27Z</time>
      </trkpt>
      <trkpt lat="44.91687" lon="3.75605">
        <ele>1237.2</ele>
        <time>2020-08-17T08:02:39Z</time>
      </trkpt>
      <trkpt lat="44.91678" lon="3.75738">
        <ele>1243</ele>
        <time>2020-08-17T08:03:49Z</time>
      </trkpt>
      <trkpt lat="44.91683" lon="3.75873">
        <ele>1249</ele>
        <time>2020-08-17T08:05:00Z</time>
      </trkpt>
      <trkpt lat="44.91732" lon="3.75991">
        <ele>1258.8</ele>
        <time>2020-08-17T08:06:09Z</time>
      </trkpt>
      <trkpt lat="44.91753" lon="3.76125">
        <ele>1265.9</ele>
        <time>2020-08-17T08:07:03Z</time>
      </trkpt>
      <trkpt lat="44.91771" lon="3.76261">
        <ele>1271.6</ele>
        <time>2020-08-17T08:07:53Z</time>
      </trkpt>
      <trkpt lat="44.91781" lon="3.764">
        <ele>1276.1</ele>
        <time>2020-08-17T08:08:43Z</time>
      </trkpt>
      <trkpt lat="44.91753" lon="3.76534">
        <ele>1280.1</ele>
        <time>2020-08-17T08:09:33Z</time>
      </trkpt>
      <trkpt lat="44.91758" lon="3.76662">
        <ele>1284.1</ele>
        <time>2020-08-17T08:10:24Z</time>
      </trkpt>
      <trkpt lat="44.9176" lon="3.76797">
        <ele>1294.3</ele>
        <time>2020-08-17T08:12:03Z</time>
      </trkpt>
      <trkpt lat="44.91819" lon="3.76931">
        <ele>1308.5</ele>
        <time>2020-08-17T08:13:25Z</time>
      </trkpt>
      <trkpt lat="44.91887" lon="3.77068">
        <ele>1308.9</ele>
        <time>2020-08-17T08:13:40Z</time>
      </trkpt>
      <trkpt lat="44.91912" lon="3.77196">
        <ele>1307.4</ele>
        <time>2020-08-17T08:13:50Z</time>
      </trkpt>
      <trkpt lat="44.91956" lon="3.7731">
        <ele>1306.4</ele>
        <time>2020-08-17T08:14:00Z</time>
      </trkpt>
      <trkpt lat="44.91993" lon="3.77454">
        <ele>1305.2</ele>
        <time>2020-08-17T08:14:15Z</time>
      </trkpt>
      <trkpt lat="44.9191" lon="3.77362">
        <ele>1306.4</ele>
        <time>2020-08-17T08:15:59Z</time>
      </trkpt>
      <trkpt lat="44.91812" lon="3.77311">
        <ele>1305.1</ele>
        <time>2020-08-17T08:16:24Z</time>
      </trkpt>
      <trkpt lat="44.91736" lon="3.77378">
        <ele>1302.5</ele>
        <time>2020-08-17T08:16:49Z</time>
      </trkpt>
      <trkpt lat="44.91653" lon="3.77471">
        <ele>1301.7</ele>
        <time>2020-08-17T08:17:14Z</time>
      </trkpt>
      <trkpt lat="44.91567" lon="3.77559">
        <ele>1297.9</ele>
        <time>2020-08-17T08:17:39Z</time>
      </trkpt>
      <trkpt lat="44.91525" lon="3.77689">
        <ele>1294.2</ele>
        <time>2020-08-17T08:18:04Z</time>
      </trkpt>
      <trkpt lat="44.91542" lon="3.77817">
        <ele>1293.8</ele>
        <time>2020-08-17T08:18:34Z</time>
      </trkpt>
      <trkpt lat="44.91554" lon="3.77947">
        <ele>1295</ele>
        <time>2020-08-17T08:19:04Z</time>
      </trkpt>
      <trkpt lat="44.91543" lon="3.78091">
        <ele>1296.6</ele>
        <time>2020-08-17T08:19:39Z</time>
      </trkpt>
      <trkpt lat="44.91518" lon="3.78252">
        <ele>1297.1</ele>
        <time>2020-08-17T08:20:03Z</time>
      </trkpt>
      <trkpt lat="44.91495" lon="3.78379">
        <ele>1296.1</ele>
        <time>2020-08-17T08:20:18Z</time>
      </trkpt>
      <trkpt lat="44.9148" lon="3.78509">
        <ele>1295.9</ele>
        <time>2020-08-17T08:20:38Z</time>
      </trkpt>
      <trkpt lat="44.91467" lon="3.78643">
        <ele>1295.9</ele>
        <time>2020-08-17T08:21:03Z</time>
      </trkpt>
      <trkpt lat="44.91439" lon="3.78767">
        <ele>1295.1</ele>
        <time>2020-08-17T08:21:23Z</time>
      </trkpt>
      <trkpt lat="44.91408" lon="3.78906">
        <ele>1290.6</ele>
        <time>2020-08-17T08:21:43Z</time>
      </trkpt>
      <trkpt lat="44.91371" lon="3.79036">
        <ele>1290</ele>
        <time>2020-08-17T08:22:18Z</time>
      </trkpt>
      <trkpt lat="44.91341" lon="3.79171">
        <ele>1291.4</ele>
        <time>2020-08-17T08:22:58Z</time>
      </trkpt>
      <trkpt lat="44.91307" lon="3.7929">
        <ele>1292.8</ele>
        <time>2020-08-17T08:23:33Z</time>
      </trkpt>
      <trkpt lat="44.91285" lon="3.79424">
        <ele>1296.5</ele>
        <time>2020-08-17T08:24:26Z</time>
      </trkpt>
      <trkpt lat="44.91249" lon="3.7956">
        <ele>1297.5</ele>
        <time>2020-08-17T08:24:51Z</time>
      </trkpt>
      <trkpt lat="44.91169" lon="3.7966">
        <ele>1297.8</ele>
        <time>2020-08-17T08:25:16Z</time>
      </trkpt>
      <trkpt lat="44.91083" lon="3.79766">
        <ele>1296.9</ele>
        <time>2020-08-17T08:25:36Z</time>
      </trkpt>
      <trkpt lat="44.90979" lon="3.79814">
        <ele>1296.5</ele>
        <time>2020-08-17T08:25:51Z</time>
      </trkpt>
      <trkpt lat="44.90895" lon="3.79944">
        <ele>1291.7</ele>
        <time>2020-08-17T08:29:29Z</time>
      </trkpt>
      <trkpt lat="44.90834" lon="3.80043">
        <ele>1290.1</ele>
        <time>2020-08-17T08:29:39Z</time>
      </trkpt>
      <trkpt lat="44.90764" lon="3.80185">
        <ele>1285.9</ele>
        <time>2020-08-17T08:29:54Z</time>
      </trkpt>
      <trkpt lat="44.90687" lon="3.80302">
        <ele>1282.1</ele>
        <time>2020-08-17T08:30:09Z</time>
      </trkpt>
      <trkpt lat="44.90653" lon="3.80476">
        <ele>1276</ele>
        <time>2020-08-17T08:30:24Z</time>
      </trkpt>
      <trkpt lat="44.90649" lon="3.80606">
        <ele>1271.7</ele>
        <time>2020-08-17T08:30:34Z</time>
      </trkpt>
      <trkpt lat="44.90566" lon="3.80687">
        <ele>1263.3</ele>
        <time>2020-08-17T08:30:59Z</time>
      </trkpt>
      <trkpt lat="44.90483" lon="3.80733">
        <ele>1264.1</ele>
        <time>2020-08-17T08:32:44Z</time>
      </trkpt>
      <trkpt lat="44.90389" lon="3.80762">
        <ele>1267</ele>
        <time>2020-08-17T08:35:14Z</time>
      </trkpt>
      <trkpt lat="44.90282" lon="3.80785">
        <ele>1266.7</ele>
        <time>2020-08-17T08:35:39Z</time>
      </trkpt>
      <trkpt lat="44.90175" lon="3.80788">
        <ele>1266.7</ele>
        <time>2020-08-17T08:36:04Z</time>
      </trkpt>
      <trkpt lat="44.90089" lon="3.80739">
        <ele>1266.2</ele>
        <time>2020-08-17T08:36:24Z</time>
      </trkpt>
      <trkpt lat="44.89998" lon="3.80683">
        <ele>1265.2</ele>
        <time>2020-08-17T08:36:49Z</time>
      </trkpt>
      <trkpt lat="44.89904" lon="3.80648">
        <ele>1264.3</ele>
        <time>2020-08-17T08:37:09Z</time>
      </trkpt>
      <trkpt lat="44.89816" lon="3.80613">
        <ele>1263.7</ele>
        <time>2020-08-17T08:37:29Z</time>
      </trkpt>
      <trkpt lat="44.89716" lon="3.80575">
        <ele>1263.4</ele>
        <time>2020-08-17T08:37:49Z</time>
      </trkpt>
      <trkpt lat="44.89614" lon="3.80522">
        <ele>1263.3</ele>
        <time>2020-08-17T08:38:14Z</time>
      </trkpt>
      <trkpt lat="44.89662" lon="3.80652">
        <ele>1262.2</ele>
        <time>2020-08-17T08:38:44Z</time>
      </trkpt>
      <trkpt lat="44.89697" lon="3.8078">
        <ele>1261</ele>
        <time>2020-08-17T08:38:59Z</time>
      </trkpt>
      <trkpt lat="44.89707" lon="3.80953">
        <ele>1259.1</ele>
        <time>2020-08-17T08:39:14Z</time>
      </trkpt>
      <trkpt lat="44.89741" lon="3.81082">
        <ele>1257.1</ele>
        <time>2020-08-17T08:39:24Z</time>
      </trkpt>
      <trkpt lat="44.89753" lon="3.81239">
        <ele>1254.7</ele>
        <time>2020-08-17T08:39:34Z</time>
      </trkpt>
      <trkpt lat="44.89768" lon="3.81404">
        <ele>1251.6</ele>
        <time>2020-08-17T08:39:44Z</time>
      </trkpt>
      <trkpt lat="44.89802" lon="3.81568">
        <ele>1247.3</ele>
        <time>2020-08-17T08:39:54Z</time>
      </trkpt>
      <trkpt lat="44.89849" lon="3.81722">
        <ele>1242.9</ele>
        <time>2020-08-17T08:40:04Z</time>
      </trkpt>
      <trkpt lat="44.89944" lon="3.81828">
        <ele>1237.9</ele>
        <time>2020-08-17T08:40:14Z</time>
      </trkpt>
      <trkpt lat="44.90049" lon="3.81902">
        <ele>1231.6</ele>
        <time>2020-08-17T08:40:24Z</time>
      </trkpt>
      <trkpt lat="44.90109" lon="3.8201">
        <ele>1225.8</ele>
        <time>2020-08-17T08:40:34Z</time>
      </trkpt>
      <trkpt lat="44.90175" lon="3.82169">
        <ele>1219.9</ele>
        <time>2020-08-17T08:40:49Z</time>
      </trkpt>
      <trkpt lat="44.90232" lon="3.82329">
        <ele>1213.5</ele>
        <time>2020-08-17T08:41:04Z</time>
      </trkpt>
      <trkpt lat="44.90215" lon="3.82517">
        <ele>1205.8</ele>
        <time>2020-08-17T08:41:19Z</time>
      </trkpt>
      <trkpt lat="44.90207" lon="3.8266">
        <ele>1201.8</ele>
        <time>2020-08-17T08:41:29Z</time>
      </trkpt>
      <trkpt lat="44.90198" lon="3.82795">
        <ele>1198.8</ele>
        <time>2020-08-17T08:41:39Z</time>
      </trkpt>
      <trkpt lat="44.90203" lon="3.82925">
        <ele>1194.8</ele>
        <time>2020-08-17T08:41:49Z</time>
      </trkpt>
      <trkpt lat="44.90194" lon="3.83057">
        <ele>1191.3</ele>
        <time>2020-08-17T08:41:59Z</time>
      </trkpt>
      <trkpt lat="44.90175" lon="3.83233">
        <ele>1185.4</ele>
        <time>2020-08-17T08:42:14Z</time>
      </trkpt>
      <trkpt lat="44.90113" lon="3.83348">
        <ele>1180.6</ele>
        <time>2020-08-17T08:42:29Z</time>
      </trkpt>
      <trkpt lat="44.90094" lon="3.83489">
        <ele>1175.6</ele>
        <time>2020-08-17T08:42:44Z</time>
      </trkpt>
      <trkpt lat="44.90063" lon="3.83652">
        <ele>1172.4</ele>
        <time>2020-08-17T08:42:59Z</time>
      </trkpt>
      <trkpt lat="44.9" lon="3.838">
        <ele>1169.4</ele>
        <time>2020-08-17T08:43:14Z</time>
      </trkpt>
      <trkpt lat="44.89956" lon="3.83942">
        <ele>1165.8</ele>
        <time>2020-08-17T08:43:29Z</time>
      </trkpt>
      <trkpt lat="44.89873" lon="3.84029">
        <ele>1162.2</ele>
        <time>2020-08-17T08:43:44Z</time>
      </trkpt>
      <trkpt lat="44.89766" lon="3.84079">
        <ele>1157</ele>
        <time>2020-08-17T08:44:04Z</time>
      </trkpt>
      <trkpt lat="44.89675" lon="3.84125">
        <ele>1153.8</ele>
        <time>2020-08-17T08:44:24Z</time>
      </trkpt>
      <trkpt lat="44.89587" lon="3.84219">
        <ele>1150.9</ele>
        <time>2020-08-17T08:44:44Z</time>
      </trkpt>
      <trkpt lat="44.89583" lon="3.84383">
        <ele>1147.1</ele>
        <time>2020-08-17T08:44:59Z</time>
      </trkpt>
      <trkpt lat="44.89566" lon="3.84556">
        <ele>1144.7</ele>
        <time>2020-08-17T08:45:14Z</time>
      </trkpt>
      <trkpt lat="44.89542" lon="3.84677">
        <ele>1142.3</ele>
        <time>2020-08-17T08:45:46Z</time>
      </trkpt>
      <trkpt lat="44.89464" lon="3.84751">
        <ele>1131.3</ele>
        <time>2020-08-17T08:49:42Z</time>
      </trkpt>
      <trkpt lat="44.89376" lon="3.84805">
        <ele>1128</ele>
        <time>2020-08-17T09:12:16Z</time>
      </trkpt>
      <trkpt lat="44.89319" lon="3.84903">
        <ele>1127.7</ele>
        <time>2020-08-17T09:14:22Z</time>
      </trkpt>
      <trkpt lat="44.89232" lon="3.84862">
        <ele>1127.4</ele>
        <time>2020-08-17T09:15:22Z</time>
      </trkpt>
      <trkpt lat="44.8914" lon="3.84829">
        <ele>1127.3</ele>
        <time>2020-08-17T09:15:57Z</time>
      </trkpt>
      <trkpt lat="44.89034" lon="3.84805">
        <ele>1127.2</ele>
        <time>2020-08-17T09:16:17Z</time>
      </trkpt>
      <trkpt lat="44.89095" lon="3.84908">
        <ele>1127</ele>
        <time>2020-08-17T09:18:12Z</time>
      </trkpt>
      <trkpt lat="44.89069" lon="3.85063">
        <ele>1125.1</ele>
        <time>2020-08-17T09:18:27Z</time>
      </trkpt>
      <trkpt lat="44.8904" lon="3.8523">
        <ele>1124.3</ele>
        <time>2020-08-17T09:18:42Z</time>
      </trkpt>
      <trkpt lat="44.8904" lon="3.85384">
        <ele>1122.5</ele>
        <time>2020-08-17T09:18:57Z</time>
      </trkpt>
      <trkpt lat="44.89091" lon="3.85517">
        <ele>1119.5</ele>
        <time>2020-08-17T09:19:12Z</time>
      </trkpt>
      <trkpt lat="44.89181" lon="3.85648">
        <ele>1115.7</ele>
        <time>2020-08-17T09:19:27Z</time>
      </trkpt>
      <trkpt lat="44.89183" lon="3.85784">
        <ele>1112.9</ele>
        <time>2020-08-17T09:19:37Z</time>
      </trkpt>
      <trkpt lat="44.8915" lon="3.85922">
        <ele>1109.5</ele>
        <time>2020-08-17T09:19:47Z</time>
      </trkpt>
      <trkpt lat="44.89103" lon="3.86047">
        <ele>1104.9</ele>
        <time>2020-08-17T09:19:57Z</time>
      </trkpt>
      <trkpt lat="44.89071" lon="3.86177">
        <ele>1101.9</ele>
        <time>2020-08-17T09:20:07Z</time>
      </trkpt>
      <trkpt lat="44.89064" lon="3.86319">
        <ele>1096.8</ele>
        <time>2020-08-17T09:20:17Z</time>
      </trkpt>
      <trkpt lat="44.89067" lon="3.86459">
        <ele>1094.8</ele>
        <time>2020-08-17T09:20:27Z</time>
      </trkpt>
      <trkpt lat="44.89059" lon="3.86619">
        <ele>1093.8</ele>
        <time>2020-08-17T09:20:42Z</time>
      </trkpt>
      <trkpt lat="44.89008" lon="3.86736">
        <ele>1087</ele>
        <time>2020-08-17T09:21:02Z</time>
      </trkpt>
      <trkpt lat="44.88886" lon="3.86738">
        <ele>1081.1</ele>
        <time>2020-08-17T09:21:22Z</time>
      </trkpt>
      <trkpt lat="44.88853" lon="3.8686">
        <ele>1079</ele>
        <time>2020-08-17T09:21:42Z</time>
      </trkpt>
      <trkpt lat="44.88899" lon="3.86989">
        <ele>1077.7</ele>
        <time>2020-08-17T09:22:17Z</time>
      </trkpt>
      <trkpt lat="44.88896" lon="3.87129">
        <ele>1077.3</ele>
        <time>2020-08-17T09:22:47Z</time>
      </trkpt>
      <trkpt lat="44.88905" lon="3.87265">
        <ele>1076.9</ele>
        <time>2020-08-17T09:23:07Z</time>
      </trkpt>
      <trkpt lat="44.88927" lon="3.87409">
        <ele>1076.7</ele>
        <time>2020-08-17T09:23:27Z</time>
      </trkpt>
      <trkpt lat="44.88923" lon="3.87562">
        <ele>1077.8</ele>
        <time>2020-08-17T09:23:53Z</time>
      </trkpt>
      <trkpt lat="44.88919" lon="3.87691">
        <ele>1078.6</ele>
        <time>2020-08-17T09:24:18Z</time>
      </trkpt>
      <trkpt lat="44.88891" lon="3.87821">
        <ele>1079.2</ele>
        <time>2020-08-17T09:24:38Z</time>
      </trkpt>
      <trkpt lat="44.88853" lon="3.87955">
        <ele>1079.7</ele>
        <time>2020-08-17T09:24:58Z</time>
      </trkpt>
      <trkpt lat="44.88804" lon="3.8808">
        <ele>1080.1</ele>
        <time>2020-08-17T09:25:18Z</time>
      </trkpt>
      <trkpt lat="44.88752" lon="3.88219">
        <ele>1079.9</ele>
        <time>2020-08-17T09:25:38Z</time>
      </trkpt>
      <trkpt lat="44.88713" lon="3.88335">
        <ele>1078.4</ele>
        <time>2020-08-17T09:25:48Z</time>
      </trkpt>
      <trkpt lat="44.8868" lon="3.8846">
        <ele>1078.5</ele>
        <time>2020-08-17T09:25:58Z</time>
      </trkpt>
      <trkpt lat="44.88681" lon="3.88593">
        <ele>1076.7</ele>
        <time>2020-08-17T09:26:08Z</time>
      </trkpt>
      <trkpt lat="44.88699" lon="3.88719">
        <ele>1074.5</ele>
        <time>2020-08-17T09:26:18Z</time>
      </trkpt>
      <trkpt lat="44.88699" lon="3.88847">
        <ele>1073.2</ele>
        <time>2020-08-17T09:26:28Z</time>
      </trkpt>
      <trkpt lat="44.88656" lon="3.88976">
        <ele>1066.6</ele>
        <time>2020-08-17T09:27:07Z</time>
      </trkpt>
      <trkpt lat="44.88684" lon="3.89157">
        <ele>1060.2</ele>
        <time>2020-08-17T09:27:22Z</time>
      </trkpt>
      <trkpt lat="44.88778" lon="3.89228">
        <ele>1054.8</ele>
        <time>2020-08-17T09:27:32Z</time>
      </trkpt>
      <trkpt lat="44.88873" lon="3.89323">
        <ele>1048.8</ele>
        <time>2020-08-17T09:27:42Z</time>
      </trkpt>
      <trkpt lat="44.88921" lon="3.89471">
        <ele>1042.5</ele>
        <time>2020-08-17T09:27:52Z</time>
      </trkpt>
      <trkpt lat="44.88962" lon="3.89633">
        <ele>1036.1</ele>
        <time>2020-08-17T09:28:02Z</time>
      </trkpt>
      <trkpt lat="44.88996" lon="3.89797">
        <ele>1026</ele>
        <time>2020-08-17T09:28:12Z</time>
      </trkpt>
      <trkpt lat="44.8902" lon="3.89959">
        <ele>1012.4</ele>
        <time>2020-08-17T09:28:22Z</time>
      </trkpt>
      <trkpt lat="44.89111" lon="3.8999">
        <ele>999.9</ele>
        <time>2020-08-17T09:28:32Z</time>
      </trkpt>
      <trkpt lat="44.89208" lon="3.89981">
        <ele>992.5</ele>
        <time>2020-08-17T09:28:42Z</time>
      </trkpt>
      <trkpt lat="44.89258" lon="3.90123">
        <ele>983.6</ele>
        <time>2020-08-17T09:28:52Z</time>
      </trkpt>
      <trkpt lat="44.89226" lon="3.90299">
        <ele>970.7</ele>
        <time>2020-08-17T09:29:02Z</time>
      </trkpt>
      <trkpt lat="44.89186" lon="3.90443">
        <ele>961.7</ele>
        <time>2020-08-17T09:29:12Z</time>
      </trkpt>
      <trkpt lat="44.89172" lon="3.90618">
        <ele>953.5</ele>
        <time>2020-08-17T09:29:22Z</time>
      </trkpt>
      <trkpt lat="44.89179" lon="3.90806">
        <ele>942.7</ele>
        <time>2020-08-17T09:29:32Z</time>
      </trkpt>
      <trkpt lat="44.89178" lon="3.90998">
        <ele>927</ele>
        <time>2020-08-17T09:29:42Z</time>
      </trkpt>
      <trkpt lat="44.89157" lon="3.91181">
        <ele>916.1</ele>
        <time>2020-08-17T09:29:52Z</time>
      </trkpt>
      <trkpt lat="44.89087" lon="3.91345">
        <ele>906.9</ele>
        <time>2020-08-17T09:30:02Z</time>
      </trkpt>
      <trkpt lat="44.8904" lon="3.91529">
        <ele>893.1</ele>
        <time>2020-08-17T09:30:12Z</time>
      </trkpt>
      <trkpt lat="44.89011" lon="3.91723">
        <ele>882</ele>
        <time>2020-08-17T09:30:22Z</time>
      </trkpt>
      <trkpt lat="44.88996" lon="3.91874">
        <ele>874.6</ele>
        <time>2020-08-17T09:30:32Z</time>
      </trkpt>
      <trkpt lat="44.88969" lon="3.9202">
        <ele>866</ele>
        <time>2020-08-17T09:30:42Z</time>
      </trkpt>
      <trkpt lat="44.88944" lon="3.92173">
        <ele>860.5</ele>
        <time>2020-08-17T09:30:52Z</time>
      </trkpt>
      <trkpt lat="44.88934" lon="3.9232">
        <ele>853.5</ele>
        <time>2020-08-17T09:32:09Z</time>
      </trkpt>
      <trkpt lat="44.88922" lon="3.9246">
        <ele>848.7</ele>
        <time>2020-08-17T09:32:39Z</time>
      </trkpt>
      <trkpt lat="44.88862" lon="3.92563">
        <ele>833.2</ele>
        <time>2020-08-17T09:36:46Z</time>
      </trkpt>
      <trkpt lat="44.88809" lon="3.92671">
        <ele>832</ele>
        <time>2020-08-17T09:37:22Z</time>
      </trkpt>
      <trkpt lat="44.8883" lon="3.928">
        <ele>831.8</ele>
        <time>2020-08-17T09:38:42Z</time>
      </trkpt>
      <trkpt lat="44.88927" lon="3.92818">
        <ele>833.1</ele>
        <time>2020-08-17T09:39:36Z</time>
      </trkpt>
      <trkpt lat="44.88997" lon="3.92735">
        <ele>835</ele>
        <time>2020-08-17T09:40:37Z</time>
      </trkpt>
      <trkpt lat="44.89078" lon="3.92663">
        <ele>837.8</ele>
        <time>2020-08-17T09:41:40Z</time>
      </trkpt>
      <trkpt lat="44.8915" lon="3.92577">
        <ele>840</ele>
        <time>2020-08-17T09:42:41Z</time>
      </trkpt>
      <trkpt lat="44.89197" lon="3.9246">
        <ele>843.3</ele>
        <time>2020-08-17T09:43:42Z</time>
      </trkpt>
      <trkpt lat="44.89264" lon="3.92363">
        <ele>847.1</ele>
        <time>2020-08-17T09:44:44Z</time>
      </trkpt>
      <trkpt lat="44.8933" lon="3.92264">
        <ele>849.8</ele>
        <time>2020-08-17T09:45:43Z</time>
      </trkpt>
      <trkpt lat="44.89412" lon="3.92335">
        <ele>865.2</ele>
        <time>2020-08-17T09:46:58Z</time>
      </trkpt>
      <trkpt lat="44.89489" lon="3.92418">
        <ele>876.3</ele>
        <time>2020-08-17T09:47:52Z</time>
      </trkpt>
      <trkpt lat="44.89573" lon="3.92495">
        <ele>885</ele>
        <time>2020-08-17T09:49:10Z</time>
      </trkpt>
      <trkpt lat="44.89659" lon="3.92456">
        <ele>890.8</ele>
        <time>2020-08-17T09:50:16Z</time>
      </trkpt>
      <trkpt lat="44.89716" lon="3.9235">
        <ele>894.6</ele>
        <time>2020-08-17T09:51:17Z</time>
      </trkpt>
      <trkpt lat="44.89762" lon="3.92243">
        <ele>898.1</ele>
        <time>2020-08-17T09:52:12Z</time>
      </trkpt>
      <trkpt lat="44.8985" lon="3.92211">
        <ele>903.9</ele>
        <time>2020-08-17T09:53:12Z</time>
      </trkpt>
      <trkpt lat="44.89945" lon="3.92189">
        <ele>913.7</ele>
        <time>2020-08-17T09:54:16Z</time>
      </trkpt>
      <trkpt lat="44.90023" lon="3.92112">
        <ele>924.5</ele>
        <time>2020-08-17T09:55:14Z</time>
      </trkpt>
      <trkpt lat="44.90111" lon="3.92173">
        <ele>935.8</ele>
        <time>2020-08-17T09:56:29Z</time>
      </trkpt>
      <trkpt lat="44.90111" lon="3.92303">
        <ele>942.7</ele>
        <time>2020-08-17T09:57:29Z</time>
      </trkpt>
      <trkpt lat="44.90052" lon="3.92406">
        <ele>950.2</ele>
        <time>2020-08-17T09:58:38Z</time>
      </trkpt>
      <trkpt lat="44.90054" lon="3.92541">
        <ele>961.3</ele>
        <time>2020-08-17T09:59:41Z</time>
      </trkpt>
      <trkpt lat="44.90098" lon="3.92658">
        <ele>970.7</ele>
        <time>2020-08-17T10:00:47Z</time>
      </trkpt>
      <trkpt lat="44.90189" lon="3.92719">
        <ele>975.6</ele>
        <time>2020-08-17T10:01:37Z</time>
      </trkpt>
      <trkpt lat="44.90276" lon="3.9279">
        <ele>979.5</ele>
        <time>2020-08-17T10:02:38Z</time>
      </trkpt>
      <trkpt lat="44.90343" lon="3.92889">
        <ele>982.4</ele>
        <time>2020-08-17T10:03:36Z</time>
      </trkpt>
      <trkpt lat="44.90408" lon="3.92982">
        <ele>985.1</ele>
        <time>2020-08-17T10:04:31Z</time>
      </trkpt>
      <trkpt lat="44.90453" lon="3.93109">
        <ele>989</ele>
        <time>2020-08-17T10:05:29Z</time>
      </trkpt>
      <trkpt lat="44.90436" lon="3.93242">
        <ele>996.1</ele>
        <time>2020-08-17T10:06:26Z</time>
      </trkpt>
      <trkpt lat="44.90473" lon="3.93373">
        <ele>1005.3</ele>
        <time>2020-08-17T10:07:23Z</time>
      </trkpt>
      <trkpt lat="44.90563" lon="3.93397">
        <ele>1020</ele>
        <time>2020-08-17T10:11:37Z</time>
      </trkpt>
      <trkpt lat="44.90658" lon="3.93419">
        <ele>1024.8</ele>
        <time>2020-08-17T10:12:22Z</time>
      </trkpt>
      <trkpt lat="44.9074" lon="3.93508">
        <ele>1027.8</ele>
        <time>2020-08-17T10:12:58Z</time>
      </trkpt>
      <trkpt lat="44.90835" lon="3.93589">
        <ele>1045.1</ele>
        <time>2020-08-17T10:31:38Z</time>
      </trkpt>
      <trkpt lat="44.90929" lon="3.93672">
        <ele>1045.4</ele>
        <time>2020-08-17T10:31:53Z</time>
      </trkpt>
      <trkpt lat="44.90999" lon="3.93804">
        <ele>1045.1</ele>
        <time>2020-08-17T10:32:08Z</time>
      </trkpt>
      <trkpt lat="44.91048" lon="3.93953">
        <ele>1044</ele>
        <time>2020-08-17T10:32:28Z</time>
      </trkpt>
      <trkpt lat="44.91123" lon="3.94035">
        <ele>1041.5</ele>
        <time>2020-08-17T10:32:43Z</time>
      </trkpt>
      <trkpt lat="44.91229" lon="3.94176">
        <ele>1038.8</ele>
        <time>2020-08-17T10:32:58Z</time>
      </trkpt>
      <trkpt lat="44.91315" lon="3.94283">
        <ele>1036.5</ele>
        <time>2020-08-17T10:33:08Z</time>
      </trkpt>
      <trkpt lat="44.91373" lon="3.94422">
        <ele>1034.7</ele>
        <time>2020-08-17T10:33:18Z</time>
      </trkpt>
      <trkpt lat="44.91459" lon="3.94525">
        <ele>1032.2</ele>
        <time>2020-08-17T10:33:28Z</time>
      </trkpt>
      <trkpt lat="44.91532" lon="3.94632">
        <ele>1030.1</ele>
        <time>2020-08-17T10:33:38Z</time>
      </trkpt>
      <trkpt lat="44.9155" lon="3.94785">
        <ele>1028.3</ele>
        <time>2020-08-17T10:33:53Z</time>
      </trkpt>
      <trkpt lat="44.91557" lon="3.94921">
        <ele>1026.3</ele>
        <time>2020-08-17T10:34:13Z</time>
      </trkpt>
      <trkpt lat="44.91517" lon="3.95037">
        <ele>1025.7</ele>
        <time>2020-08-17T10:34:38Z</time>
      </trkpt>
      <trkpt lat="44.91454" lon="3.95129">
        <ele>1025.1</ele>
        <time>2020-08-17T10:35:08Z</time>
      </trkpt>
      <trkpt lat="44.9137" lon="3.95196">
        <ele>1024.3</ele>
        <time>2020-08-17T10:35:38Z</time>
      </trkpt>
      <trkpt lat="44.9142" lon="3.95308">
        <ele>1022.1</ele>
        <time>2020-08-17T10:36:08Z</time>
      </trkpt>
      <trkpt lat="44.91515" lon="3.95291">
        <ele>1021.7</ele>
        <time>2020-08-17T10:36:53Z</time>
      </trkpt>
      <trkpt lat="44.91544" lon="3.95419">
        <ele>1022.9</ele>
        <time>2020-08-17T10:37:44Z</time>
      </trkpt>
      <trkpt lat="44.91572" lon="3.95545">
        <ele>1025.3</ele>
        <time>2020-08-17T10:38:34Z</time>
      </trkpt>
      <trkpt lat="44.9166" lon="3.95609">
        <ele>1028.1</ele>
        <time>2020-08-17T10:39:25Z</time>
      </trkpt>
      <trkpt lat="44.91742" lon="3.95692">
        <ele>1031.4</ele>
        <time>2020-08-17T10:40:15Z</time>
      </trkpt>
      <trkpt lat="44.91797" lon="3.95806">
        <ele>1034.1</ele>
        <time>2020-08-17T10:41:00Z</time>
      </trkpt>
      <trkpt lat="44.91846" lon="3.95917">
        <ele>1036.7</ele>
        <time>2020-08-17T10:41:40Z</time>
      </trkpt>
      <trkpt lat="44.91877" lon="3.96043">
        <ele>1039</ele>
        <time>2020-08-17T10:42:15Z</time>
      </trkpt>
      <trkpt lat="44.91919" lon="3.96161">
        <ele>1040.8</ele>
        <time>2020-08-17T10:42:45Z</time>
      </trkpt>
      <trkpt lat="44.91936" lon="3.96288">
        <ele>1042.4</ele>
        <time>2020-08-17T10:43:15Z</time>
      </trkpt>
      <trkpt lat="44.91976" lon="3.96405">
        <ele>1044.2</ele>
        <time>2020-08-17T10:43:45Z</time>
      </trkpt>
      <trkpt lat="44.92032" lon="3.96516">
        <ele>1045.2</ele>
        <time>2020-08-17T10:44:15Z</time>
      </trkpt>
      <trkpt lat="44.92103" lon="3.96612">
        <ele>1046.8</ele>
        <time>2020-08-17T10:44:55Z</time>
      </trkpt>
      <trkpt lat="44.92187" lon="3.96703">
        <ele>1049.5</ele>
        <time>2020-08-17T10:45:20Z</time>
      </trkpt>
      <trkpt lat="44.9221" lon="3.96831">
        <ele>1050.1</ele>
        <time>2020-08-17T10:45:35Z</time>
      </trkpt>
      <trkpt lat="44.92256" lon="3.96966">
        <ele>1050.9</ele>
        <time>2020-08-17T10:45:50Z</time>
      </trkpt>
      <trkpt lat="44.92349" lon="3.96995">
        <ele>1051.9</ele>
        <time>2020-08-17T10:46:05Z</time>
      </trkpt>
      <trkpt lat="44.9247" lon="3.96955">
        <ele>1052.2</ele>
        <time>2020-08-17T10:46:25Z</time>
      </trkpt>
      <trkpt lat="44.92573" lon="3.96967">
        <ele>1052.9</ele>
        <time>2020-08-17T10:46:40Z</time>
      </trkpt>
      <trkpt lat="44.92604" lon="3.97101">
        <ele>1053</ele>
        <time>2020-08-17T10:46:55Z</time>
      </trkpt>
      <trkpt lat="44.92628" lon="3.97238">
        <ele>1054</ele>
        <time>2020-08-17T10:47:10Z</time>
      </trkpt>
      <trkpt lat="44.92613" lon="3.97379">
        <ele>1054.1</ele>
        <time>2020-08-17T10:47:25Z</time>
      </trkpt>
      <trkpt lat="44.92546" lon="3.97515">
        <ele>1052.6</ele>
        <time>2020-08-17T10:47:45Z</time>
      </trkpt>
      <trkpt lat="44.92519" lon="3.97639">
        <ele>1052.5</ele>
        <time>2020-08-17T10:48:00Z</time>
      </trkpt>
      <trkpt lat="44.92603" lon="3.97786">
        <ele>1051</ele>
        <time>2020-08-17T10:48:15Z</time>
      </trkpt>
      <trkpt lat="44.92675" lon="3.9789">
        <ele>1049.3</ele>
        <time>2020-08-17T10:48:25Z</time>
      </trkpt>
      <trkpt lat="44.92754" lon="3.97985">
        <ele>1047.9</ele>
        <time>2020-08-17T10:48:35Z</time>
      </trkpt>
      <trkpt lat="44.92722" lon="3.98157">
        <ele>1044.5</ele>
        <time>2020-08-17T10:48:50Z</time>
      </trkpt>
      <trkpt lat="44.92671" lon="3.98292">
        <ele>1039.1</ele>
        <time>2020-08-17T10:49:00Z</time>
      </trkpt>
      <trkpt lat="44.92731" lon="3.98396">
        <ele>1031.7</ele>
        <time>2020-08-17T10:49:20Z</time>
      </trkpt>
      <trkpt lat="44.92852" lon="3.98345">
        <ele>1028.3</ele>
        <time>2020-08-17T10:49:35Z</time>
      </trkpt>
      <trkpt lat="44.92897" lon="3.98504">
        <ele>1021.4</ele>
        <time>2020-08-17T10:49:50Z</time>
      </trkpt>
      <trkpt lat="44.92832" lon="3.98602">
        <ele>1014.5</ele>
        <time>2020-08-17T10:50:00Z</time>
      </trkpt>
      <trkpt lat="44.92786" lon="3.98712">
        <ele>1007.9</ele>
        <time>2020-08-17T10:50:10Z</time>
      </trkpt>
      <trkpt lat="44.92724" lon="3.98865">
        <ele>997</ele>
        <time>2020-08-17T10:50:25Z</time>
      </trkpt>
      <trkpt lat="44.92659" lon="3.98999">
        <ele>988.9</ele>
        <time>2020-08-17T10:50:40Z</time>
      </trkpt>
      <trkpt lat="44.92628" lon="3.99126">
        <ele>986.2</ele>
        <time>2020-08-17T10:50:55Z</time>
      </trkpt>
      <trkpt lat="44.92619" lon="3.99258">
        <ele>981.9</ele>
        <time>2020-08-17T10:51:10Z</time>
      </trkpt>
      <trkpt lat="44.92596" lon="3.99397">
        <ele>976.8</ele>
        <time>2020-08-17T10:51:25Z</time>
      </trkpt>
      <trkpt lat="44.92637" lon="3.99517">
        <ele>974.9</ele>
        <time>2020-08-17T10:51:39Z</time>
      </trkpt>
      <trkpt lat="44.92711" lon="3.99631">
        <ele>973.5</ele>
        <time>2020-08-17T10:51:54Z</time>
      </trkpt>
      <trkpt lat="44.92776" lon="3.99786">
        <ele>971</ele>
        <time>2020-08-17T10:52:14Z</time>
      </trkpt>
      <trkpt lat="44.92799" lon="3.99953">
        <ele>967.6</ele>
        <time>2020-08-17T10:52:29Z</time>
      </trkpt>
      <trkpt lat="44.92669" lon="3.9996">
        <ele>964.7</ele>
        <time>2020-08-17T10:52:44Z</time>
      </trkpt>
      <trkpt lat="44.92706" lon="4.00094">
        <ele>958.3</ele>
        <time>2020-08-17T10:53:04Z</time>
      </trkpt>
      <trkpt lat="44.92741" lon="4.00268">
        <ele>954.3</ele>
        <time>2020-08-17T10:53:19Z</time>
      </trkpt>
      <trkpt lat="44.9269" lon="4.00404">
        <ele>949.1</ele>
        <time>2020-08-17T10:53:34Z</time>
      </trkpt>
      <trkpt lat="44.9263" lon="4.00532">
        <ele>941.3</ele>
        <time>2020-08-17T10:53:49Z</time>
      </trkpt>
      <trkpt lat="44.92605" lon="4.00721">
        <ele>934.9</ele>
        <time>2020-08-17T10:54:04Z</time>
      </trkpt>
      <trkpt lat="44.92687" lon="4.0078">
        <ele>932.4</ele>
        <time>2020-08-17T10:54:24Z</time>
      </trkpt>
      <trkpt lat="44.92757" lon="4.00699">
        <ele>924.6</ele>
        <time>2020-08-17T10:57:58Z</time>
      </trkpt>
      <trkpt lat="44.92826" lon="4.00604">
        <ele>925.4</ele>
        <time>2020-08-17T10:58:59Z</time>
      </trkpt>
      <trkpt lat="44.92891" lon="4.00504">
        <ele>928.6</ele>
        <time>2020-08-17T11:00:02Z</time>
      </trkpt>
      <trkpt lat="44.92934" lon="4.00383">
        <ele>931</ele>
        <time>2020-08-17T11:01:00Z</time>
      </trkpt>
      <trkpt lat="44.9302" lon="4.00326">
        <ele>934.1</ele>
        <time>2020-08-17T11:02:07Z</time>
      </trkpt>
      <trkpt lat="44.93099" lon="4.00245">
        <ele>937.2</ele>
        <time>2020-08-17T11:03:14Z</time>
      </trkpt>
      <trkpt lat="44.93174" lon="4.00163">
        <ele>940.7</ele>
        <time>2020-08-17T11:04:16Z</time>
      </trkpt>
      <trkpt lat="44.93239" lon="4.00064">
        <ele>944.1</ele>
        <time>2020-08-17T11:05:17Z</time>
      </trkpt>
      <trkpt lat="44.93309" lon="3.99981">
        <ele>946.9</ele>
        <time>2020-08-17T11:06:05Z</time>
      </trkpt>
      <trkpt lat="44.93379" lon="3.99893">
        <ele>950.5</ele>
        <time>2020-08-17T11:06:40Z</time>
      </trkpt>
      <trkpt lat="44.93455" lon="3.99806">
        <ele>952.9</ele>
        <time>2020-08-17T11:07:15Z</time>
      </trkpt>
      <trkpt lat="44.93511" lon="3.9969">
        <ele>954.6</ele>
        <time>2020-08-17T11:07:55Z</time>
      </trkpt>
      <trkpt lat="44.93532" lon="3.99566">
        <ele>958.5</ele>
        <time>2020-08-17T11:08:25Z</time>
      </trkpt>
      <trkpt lat="44.93585" lon="3.99444">
        <ele>958.8</ele>
        <time>2020-08-17T11:08:40Z</time>
      </trkpt>
      <trkpt lat="44.93626" lon="3.99305">
        <ele>956.7</ele>
        <time>2020-08-17T11:08:55Z</time>
      </trkpt>
      <trkpt lat="44.93633" lon="3.99153">
        <ele>957.9</ele>
        <time>2020-08-17T11:09:15Z</time>
      </trkpt>
      <trkpt lat="44.93647" lon="3.99015">
        <ele>953.2</ele>
        <time>2020-08-17T11:09:30Z</time>
      </trkpt>
      <trkpt lat="44.93691" lon="3.98883">
        <ele>948.7</ele>
        <time>2020-08-17T11:09:50Z</time>
      </trkpt>
      <trkpt lat="44.93723" lon="3.98713">
        <ele>928.6</ele>
        <time>2020-08-17T11:10:05Z</time>
      </trkpt>
      <trkpt lat="44.93692" lon="3.98578">
        <ele>914.9</ele>
        <time>2020-08-17T11:10:15Z</time>
      </trkpt>
      <trkpt lat="44.9365" lon="3.98436">
        <ele>900.8</ele>
        <time>2020-08-17T11:10:35Z</time>
      </trkpt>
      <trkpt lat="44.93566" lon="3.98375">
        <ele>897.1</ele>
        <time>2020-08-17T11:11:34Z</time>
      </trkpt>
    </trkseg>
  </trk>
  <trk>
    <name><![CDATA[route105]]></name>
    <trkseg>
      <trkpt lat="44.93173" lon="4.01731">
        <ele>991.4</ele>
        <time>2020-08-18T04:57:14Z</time>
      </trkpt>
      <trkpt lat="44.93156" lon="4.01857">
        <ele>990.3</ele>
        <time>2020-08-18T04:57:51Z</time>
      </trkpt>
      <trkpt lat="44.93114" lon="4.01992">
        <ele>989.6</ele>
        <time>2020-08-18T04:58:21Z</time>
      </trkpt>
      <trkpt lat="44.93121" lon="4.02134">
        <ele>989.6</ele>
        <time>2020-08-18T04:58:46Z</time>
      </trkpt>
      <trkpt lat="44.93142" lon="4.02268">
        <ele>989</ele>
        <time>2020-08-18T04:59:11Z</time>
      </trkpt>
      <trkpt lat="44.93163" lon="4.024">
        <ele>988.3</ele>
        <time>2020-08-18T04:59:36Z</time>
      </trkpt>
      <trkpt lat="44.93201" lon="4.02544">
        <ele>987.3</ele>
        <time>2020-08-18T05:00:06Z</time>
      </trkpt>
      <trkpt lat="44.93195" lon="4.02674">
        <ele>986.6</ele>
        <time>2020-08-18T05:00:31Z</time>
      </trkpt>
      <trkpt lat="44.93162" lon="4.02804">
        <ele>986.3</ele>
        <time>2020-08-18T05:00:56Z</time>
      </trkpt>
      <trkpt lat="44.93129" lon="4.02926">
        <ele>986</ele>
        <time>2020-08-18T05:01:21Z</time>
      </trkpt>
      <trkpt lat="44.93093" lon="4.03052">
        <ele>985.3</ele>
        <time>2020-08-18T05:01:46Z</time>
      </trkpt>
      <trkpt lat="44.93106" lon="4.03187">
        <ele>984.6</ele>
        <time>2020-08-18T05:02:11Z</time>
      </trkpt>
      <trkpt lat="44.93118" lon="4.03326">
        <ele>983.9</ele>
        <time>2020-08-18T05:02:36Z</time>
      </trkpt>
      <trkpt lat="44.93114" lon="4.03467">
        <ele>983.2</ele>
        <time>2020-08-18T05:03:01Z</time>
      </trkpt>
      <trkpt lat="44.93098" lon="4.03606">
        <ele>982.7</ele>
        <time>2020-08-18T05:03:26Z</time>
      </trkpt>
      <trkpt lat="44.93064" lon="4.03739">
        <ele>982.1</ele>
        <time>2020-08-18T05:03:51Z</time>
      </trkpt>
      <trkpt lat="44.93005" lon="4.03844">
        <ele>981.7</ele>
        <time>2020-08-18T05:04:15Z</time>
      </trkpt>
      <trkpt lat="44.92918" lon="4.03935">
        <ele>981.6</ele>
        <time>2020-08-18T05:04:40Z</time>
      </trkpt>
      <trkpt lat="44.92833" lon="4.04011">
        <ele>981.3</ele>
        <time>2020-08-18T05:05:05Z</time>
      </trkpt>
      <trkpt lat="44.92742" lon="4.04071">
        <ele>981.5</ele>
        <time>2020-08-18T05:05:40Z</time>
      </trkpt>
      <trkpt lat="44.92671" lon="4.04146">
        <ele>982</ele>
        <time>2020-08-18T05:06:15Z</time>
      </trkpt>
      <trkpt lat="44.92585" lon="4.04183">
        <ele>982.6</ele>
        <time>2020-08-18T05:06:50Z</time>
      </trkpt>
      <trkpt lat="44.92502" lon="4.04228">
        <ele>983.4</ele>
        <time>2020-08-18T05:07:30Z</time>
      </trkpt>
      <trkpt lat="44.92447" lon="4.0433">
        <ele>984.3</ele>
        <time>2020-08-18T05:08:10Z</time>
      </trkpt>
      <trkpt lat="44.92389" lon="4.04427">
        <ele>984.8</ele>
        <time>2020-08-18T05:08:45Z</time>
      </trkpt>
      <trkpt lat="44.92336" lon="4.04543">
        <ele>985.4</ele>
        <time>2020-08-18T05:09:25Z</time>
      </trkpt>
      <trkpt lat="44.92356" lon="4.04672">
        <ele>986.1</ele>
        <time>2020-08-18T05:10:05Z</time>
      </trkpt>
      <trkpt lat="44.92408" lon="4.04785">
        <ele>986.7</ele>
        <time>2020-08-18T05:10:52Z</time>
      </trkpt>
      <trkpt lat="44.92479" lon="4.04885">
        <ele>987.8</ele>
        <time>2020-08-18T05:11:49Z</time>
      </trkpt>
      <trkpt lat="44.92548" lon="4.04988">
        <ele>989.2</ele>
        <time>2020-08-18T05:12:50Z</time>
      </trkpt>
      <trkpt lat="44.92603" lon="4.05099">
        <ele>990.9</ele>
        <time>2020-08-18T05:13:51Z</time>
      </trkpt>
      <trkpt lat="44.92595" lon="4.05227">
        <ele>992.2</ele>
        <time>2020-08-18T05:14:37Z</time>
      </trkpt>
      <trkpt lat="44.92589" lon="4.05362">
        <ele>993.3</ele>
        <time>2020-08-18T05:15:23Z</time>
      </trkpt>
      <trkpt lat="44.92569" lon="4.05494">
        <ele>994.5</ele>
        <time>2020-08-18T05:16:08Z</time>
      </trkpt>
      <trkpt lat="44.92516" lon="4.05606">
        <ele>995.9</ele>
        <time>2020-08-18T05:16:53Z</time>
      </trkpt>
      <trkpt lat="44.92466" lon="4.05725">
        <ele>997.4</ele>
        <time>2020-08-18T05:17:39Z</time>
      </trkpt>
      <trkpt lat="44.9246" lon="4.05863">
        <ele>999.1</ele>
        <time>2020-08-18T05:18:24Z</time>
      </trkpt>
      <trkpt lat="44.92467" lon="4.05999">
        <ele>1001.6</ele>
        <time>2020-08-18T05:18:49Z</time>
      </trkpt>
      <trkpt lat="44.9253" lon="4.06133">
        <ele>1002.4</ele>
        <time>2020-08-18T05:19:14Z</time>
      </trkpt>
      <trkpt lat="44.92588" lon="4.06247">
        <ele>1003.1</ele>
        <time>2020-08-18T05:19:39Z</time>
      </trkpt>
      <trkpt lat="44.92646" lon="4.06371">
        <ele>1003.6</ele>
        <time>2020-08-18T05:20:09Z</time>
      </trkpt>
      <trkpt lat="44.92667" lon="4.06497">
        <ele>1006.2</ele>
        <time>2020-08-18T05:21:06Z</time>
      </trkpt>
      <trkpt lat="44.92672" lon="4.06634">
        <ele>1010.8</ele>
        <time>2020-08-18T05:22:17Z</time>
      </trkpt>
      <trkpt lat="44.92736" lon="4.06736">
        <ele>1015.9</ele>
        <time>2020-08-18T05:23:28Z</time>
      </trkpt>
      <trkpt lat="44.92767" lon="4.06864">
        <ele>1020.6</ele>
        <time>2020-08-18T05:24:40Z</time>
      </trkpt>
      <trkpt lat="44.92801" lon="4.06988">
        <ele>1027</ele>
        <time>2020-08-18T05:25:49Z</time>
      </trkpt>
      <trkpt lat="44.92806" lon="4.07123">
        <ele>1035</ele>
        <time>2020-08-18T05:26:59Z</time>
      </trkpt>
      <trkpt lat="44.92802" lon="4.07259">
        <ele>1041.8</ele>
        <time>2020-08-18T05:28:10Z</time>
      </trkpt>
      <trkpt lat="44.92796" lon="4.07394">
        <ele>1047.5</ele>
        <time>2020-08-18T05:29:20Z</time>
      </trkpt>
      <trkpt lat="44.92831" lon="4.07524">
        <ele>1053.8</ele>
        <time>2020-08-18T05:30:30Z</time>
      </trkpt>
      <trkpt lat="44.92836" lon="4.07668">
        <ele>1060.5</ele>
        <time>2020-08-18T05:31:23Z</time>
      </trkpt>
      <trkpt lat="44.92835" lon="4.07803">
        <ele>1066</ele>
        <time>2020-08-18T05:32:08Z</time>
      </trkpt>
      <trkpt lat="44.92821" lon="4.07948">
        <ele>1071.3</ele>
        <time>2020-08-18T05:32:52Z</time>
      </trkpt>
      <trkpt lat="44.92914" lon="4.08056">
        <ele>1077.2</ele>
        <time>2020-08-18T05:33:17Z</time>
      </trkpt>
      <trkpt lat="44.92899" lon="4.08196">
        <ele>1077.7</ele>
        <time>2020-08-18T05:33:32Z</time>
      </trkpt>
      <trkpt lat="44.92804" lon="4.08215">
        <ele>1078.8</ele>
        <time>2020-08-18T05:33:57Z</time>
      </trkpt>
      <trkpt lat="44.92746" lon="4.08316">
        <ele>1080.2</ele>
        <time>2020-08-18T05:34:58Z</time>
      </trkpt>
      <trkpt lat="44.92703" lon="4.08426">
        <ele>1082.7</ele>
        <time>2020-08-18T05:35:54Z</time>
      </trkpt>
      <trkpt lat="44.92668" lon="4.08553">
        <ele>1085.5</ele>
        <time>2020-08-18T05:36:55Z</time>
      </trkpt>
      <trkpt lat="44.92685" lon="4.08685">
        <ele>1089.7</ele>
        <time>2020-08-18T05:37:52Z</time>
      </trkpt>
      <trkpt lat="44.9269" lon="4.08813">
        <ele>1093.9</ele>
        <time>2020-08-18T05:38:40Z</time>
      </trkpt>
      <trkpt lat="44.92676" lon="4.08951">
        <ele>1098.3</ele>
        <time>2020-08-18T05:39:35Z</time>
      </trkpt>
      <trkpt lat="44.92667" lon="4.0908">
        <ele>1102.5</ele>
        <time>2020-08-18T05:40:24Z</time>
      </trkpt>
      <trkpt lat="44.92668" lon="4.09217">
        <ele>1106.4</ele>
        <time>2020-08-18T05:41:22Z</time>
      </trkpt>
      <trkpt lat="44.92653" lon="4.09342">
        <ele>1109.1</ele>
        <time>2020-08-18T05:42:14Z</time>
      </trkpt>
      <trkpt lat="44.92641" lon="4.09469">
        <ele>1111.7</ele>
        <time>2020-08-18T05:43:00Z</time>
      </trkpt>
      <trkpt lat="44.92622" lon="4.09605">
        <ele>1113.5</ele>
        <time>2020-08-18T05:43:40Z</time>
      </trkpt>
      <trkpt lat="44.926" lon="4.09742">
        <ele>1116.1</ele>
        <time>2020-08-18T05:44:25Z</time>
      </trkpt>
      <trkpt lat="44.92583" lon="4.09866">
        <ele>1118.5</ele>
        <time>2020-08-18T05:45:05Z</time>
      </trkpt>
      <trkpt lat="44.92568" lon="4.09994">
        <ele>1120.5</ele>
        <time>2020-08-18T05:45:40Z</time>
      </trkpt>
      <trkpt lat="44.92564" lon="4.10135">
        <ele>1122.5</ele>
        <time>2020-08-18T05:46:15Z</time>
      </trkpt>
      <trkpt lat="44.92554" lon="4.10265">
        <ele>1126</ele>
        <time>2020-08-18T05:47:00Z</time>
      </trkpt>
      <trkpt lat="44.92497" lon="4.10377">
        <ele>1130.2</ele>
        <time>2020-08-18T05:47:45Z</time>
      </trkpt>
      <trkpt lat="44.92432" lon="4.10482">
        <ele>1133.2</ele>
        <time>2020-08-18T05:48:20Z</time>
      </trkpt>
      <trkpt lat="44.92354" lon="4.10551">
        <ele>1136.6</ele>
        <time>2020-08-18T05:49:00Z</time>
      </trkpt>
      <trkpt lat="44.92266" lon="4.10601">
        <ele>1140.3</ele>
        <time>2020-08-18T05:49:45Z</time>
      </trkpt>
      <trkpt lat="44.92173" lon="4.10644">
        <ele>1144.8</ele>
        <time>2020-08-18T05:50:44Z</time>
      </trkpt>
      <trkpt lat="44.92107" lon="4.10743">
        <ele>1147.8</ele>
        <time>2020-08-18T05:51:47Z</time>
      </trkpt>
      <trkpt lat="44.92047" lon="4.10836">
        <ele>1150.4</ele>
        <time>2020-08-18T05:52:43Z</time>
      </trkpt>
      <trkpt lat="44.91998" lon="4.10945">
        <ele>1154</ele>
        <time>2020-08-18T05:53:39Z</time>
      </trkpt>
      <trkpt lat="44.91955" lon="4.11056">
        <ele>1157.6</ele>
        <time>2020-08-18T05:54:32Z</time>
      </trkpt>
      <trkpt lat="44.91889" lon="4.11163">
        <ele>1163</ele>
        <time>2020-08-18T05:54:57Z</time>
      </trkpt>
      <trkpt lat="44.91809" lon="4.11295">
        <ele>1163.6</ele>
        <time>2020-08-18T05:55:12Z</time>
      </trkpt>
      <trkpt lat="44.91705" lon="4.11352">
        <ele>1165.4</ele>
        <time>2020-08-18T05:55:27Z</time>
      </trkpt>
      <trkpt lat="44.91622" lon="4.11399">
        <ele>1173.1</ele>
        <time>2020-08-18T05:56:14Z</time>
      </trkpt>
      <trkpt lat="44.91534" lon="4.11452">
        <ele>1184.5</ele>
        <time>2020-08-18T05:57:25Z</time>
      </trkpt>
      <trkpt lat="44.91439" lon="4.11481">
        <ele>1192.1</ele>
        <time>2020-08-18T05:58:33Z</time>
      </trkpt>
      <trkpt lat="44.91352" lon="4.11538">
        <ele>1197.7</ele>
        <time>2020-08-18T05:59:41Z</time>
      </trkpt>
      <trkpt lat="44.91293" lon="4.1163">
        <ele>1203</ele>
        <time>2020-08-18T06:00:48Z</time>
      </trkpt>
      <trkpt lat="44.9125" lon="4.11739">
        <ele>1209.3</ele>
        <time>2020-08-18T06:01:52Z</time>
      </trkpt>
      <trkpt lat="44.91224" lon="4.11861">
        <ele>1213.7</ele>
        <time>2020-08-18T06:02:43Z</time>
      </trkpt>
      <trkpt lat="44.912" lon="4.11997">
        <ele>1217.9</ele>
        <time>2020-08-18T06:03:40Z</time>
      </trkpt>
      <trkpt lat="44.91159" lon="4.1212">
        <ele>1221.9</ele>
        <time>2020-08-18T06:04:48Z</time>
      </trkpt>
      <trkpt lat="44.91109" lon="4.12239">
        <ele>1225.2</ele>
        <time>2020-08-18T06:05:53Z</time>
      </trkpt>
      <trkpt lat="44.91057" lon="4.12354">
        <ele>1229.1</ele>
        <time>2020-08-18T06:07:02Z</time>
      </trkpt>
      <trkpt lat="44.90993" lon="4.12448">
        <ele>1232.1</ele>
        <time>2020-08-18T06:07:53Z</time>
      </trkpt>
      <trkpt lat="44.90924" lon="4.12542">
        <ele>1234.7</ele>
        <time>2020-08-18T06:08:39Z</time>
      </trkpt>
      <trkpt lat="44.90869" lon="4.12655">
        <ele>1237.7</ele>
        <time>2020-08-18T06:09:25Z</time>
      </trkpt>
      <trkpt lat="44.90836" lon="4.12773">
        <ele>1240.6</ele>
        <time>2020-08-18T06:10:14Z</time>
      </trkpt>
      <trkpt lat="44.90793" lon="4.12898">
        <ele>1244.4</ele>
        <time>2020-08-18T06:11:18Z</time>
      </trkpt>
      <trkpt lat="44.90764" lon="4.13025">
        <ele>1248.6</ele>
        <time>2020-08-18T06:12:17Z</time>
      </trkpt>
      <trkpt lat="44.90757" lon="4.13165">
        <ele>1254</ele>
        <time>2020-08-18T06:13:18Z</time>
      </trkpt>
      <trkpt lat="44.90735" lon="4.13301">
        <ele>1259.8</ele>
        <time>2020-08-18T06:14:11Z</time>
      </trkpt>
      <trkpt lat="44.90748" lon="4.13436">
        <ele>1266.3</ele>
        <time>2020-08-18T06:15:08Z</time>
      </trkpt>
      <trkpt lat="44.90749" lon="4.13565">
        <ele>1271.7</ele>
        <time>2020-08-18T06:16:00Z</time>
      </trkpt>
      <trkpt lat="44.90725" lon="4.13686">
        <ele>1276.5</ele>
        <time>2020-08-18T06:16:51Z</time>
      </trkpt>
      <trkpt lat="44.90692" lon="4.13808">
        <ele>1281.1</ele>
        <time>2020-08-18T06:17:43Z</time>
      </trkpt>
      <trkpt lat="44.90667" lon="4.13937">
        <ele>1285.3</ele>
        <time>2020-08-18T06:18:33Z</time>
      </trkpt>
      <trkpt lat="44.90627" lon="4.14062">
        <ele>1290.3</ele>
        <time>2020-08-18T06:19:30Z</time>
      </trkpt>
      <trkpt lat="44.90582" lon="4.14169">
        <ele>1295.7</ele>
        <time>2020-08-18T06:20:18Z</time>
      </trkpt>
      <trkpt lat="44.90544" lon="4.14284">
        <ele>1302.1</ele>
        <time>2020-08-18T06:21:07Z</time>
      </trkpt>
      <trkpt lat="44.90505" lon="4.14397">
        <ele>1306.5</ele>
        <time>2020-08-18T06:21:42Z</time>
      </trkpt>
      <trkpt lat="44.90473" lon="4.14525">
        <ele>1315.1</ele>
        <time>2020-08-18T06:22:54Z</time>
      </trkpt>
      <trkpt lat="44.90453" lon="4.1466">
        <ele>1324</ele>
        <time>2020-08-18T06:24:01Z</time>
      </trkpt>
      <trkpt lat="44.9046" lon="4.14798">
        <ele>1331.7</ele>
        <time>2020-08-18T06:25:10Z</time>
      </trkpt>
      <trkpt lat="44.90464" lon="4.14936">
        <ele>1338.3</ele>
        <time>2020-08-18T06:26:17Z</time>
      </trkpt>
      <trkpt lat="44.90449" lon="4.15071">
        <ele>1344.6</ele>
        <time>2020-08-18T06:27:23Z</time>
      </trkpt>
      <trkpt lat="44.90434" lon="4.15209">
        <ele>1350.3</ele>
        <time>2020-08-18T06:28:26Z</time>
      </trkpt>
      <trkpt lat="44.90415" lon="4.15345">
        <ele>1356.5</ele>
        <time>2020-08-18T06:29:42Z</time>
      </trkpt>
      <trkpt lat="44.90418" lon="4.15482">
        <ele>1381.8</ele>
        <time>2020-08-18T06:38:29Z</time>
      </trkpt>
      <trkpt lat="44.90379" lon="4.15601">
        <ele>1387</ele>
        <time>2020-08-18T06:39:49Z</time>
      </trkpt>
      <trkpt lat="44.90288" lon="4.15638">
        <ele>1389.4</ele>
        <time>2020-08-18T06:41:00Z</time>
      </trkpt>
      <trkpt lat="44.90338" lon="4.15754">
        <ele>1392.1</ele>
        <time>2020-08-18T07:01:02Z</time>
      </trkpt>
      <trkpt lat="44.90387" lon="4.15879">
        <ele>1392.1</ele>
        <time>2020-08-18T07:02:16Z</time>
      </trkpt>
      <trkpt lat="44.90385" lon="4.16009">
        <ele>1392.2</ele>
        <time>2020-08-18T07:02:56Z</time>
      </trkpt>
      <trkpt lat="44.9047" lon="4.15964">
        <ele>1392.3</ele>
        <time>2020-08-18T07:03:59Z</time>
      </trkpt>
      <trkpt lat="44.90534" lon="4.16069">
        <ele>1392.7</ele>
        <time>2020-08-18T07:05:29Z</time>
      </trkpt>
      <trkpt lat="44.90531" lon="4.16206">
        <ele>1393.4</ele>
        <time>2020-08-18T07:06:31Z</time>
      </trkpt>
      <trkpt lat="44.90527" lon="4.16344">
        <ele>1394.9</ele>
        <time>2020-08-18T07:07:38Z</time>
      </trkpt>
      <trkpt lat="44.90498" lon="4.16475">
        <ele>1396.5</ele>
        <time>2020-08-18T07:08:45Z</time>
      </trkpt>
      <trkpt lat="44.90472" lon="4.16601">
        <ele>1400.8</ele>
        <time>2020-08-18T07:09:53Z</time>
      </trkpt>
      <trkpt lat="44.90442" lon="4.16732">
        <ele>1405.8</ele>
        <time>2020-08-18T07:10:50Z</time>
      </trkpt>
      <trkpt lat="44.90408" lon="4.16856">
        <ele>1414</ele>
        <time>2020-08-18T07:11:58Z</time>
      </trkpt>
      <trkpt lat="44.90377" lon="4.16986">
        <ele>1427.8</ele>
        <time>2020-08-18T07:13:16Z</time>
      </trkpt>
      <trkpt lat="44.90341" lon="4.17109">
        <ele>1439.5</ele>
        <time>2020-08-18T07:14:24Z</time>
      </trkpt>
      <trkpt lat="44.90307" lon="4.17225">
        <ele>1446</ele>
        <time>2020-08-18T07:15:20Z</time>
      </trkpt>
      <trkpt lat="44.90267" lon="4.17348">
        <ele>1451.3</ele>
        <time>2020-08-18T07:16:16Z</time>
      </trkpt>
      <trkpt lat="44.90235" lon="4.17477">
        <ele>1457</ele>
        <time>2020-08-18T07:17:22Z</time>
      </trkpt>
      <trkpt lat="44.90199" lon="4.17602">
        <ele>1461.8</ele>
        <time>2020-08-18T07:18:24Z</time>
      </trkpt>
      <trkpt lat="44.90161" lon="4.17727">
        <ele>1466.5</ele>
        <time>2020-08-18T07:19:28Z</time>
      </trkpt>
      <trkpt lat="44.90125" lon="4.17854">
        <ele>1470.8</ele>
        <time>2020-08-18T07:20:31Z</time>
      </trkpt>
      <trkpt lat="44.90082" lon="4.17977">
        <ele>1476</ele>
        <time>2020-08-18T07:21:35Z</time>
      </trkpt>
      <trkpt lat="44.9003" lon="4.18092">
        <ele>1481.5</ele>
        <time>2020-08-18T07:22:39Z</time>
      </trkpt>
      <trkpt lat="44.8998" lon="4.18197">
        <ele>1486.5</ele>
        <time>2020-08-18T07:23:40Z</time>
      </trkpt>
      <trkpt lat="44.89934" lon="4.18317">
        <ele>1491.5</ele>
        <time>2020-08-18T07:24:43Z</time>
      </trkpt>
      <trkpt lat="44.89927" lon="4.18449">
        <ele>1504.9</ele>
        <time>2020-08-18T07:25:49Z</time>
      </trkpt>
      <trkpt lat="44.89964" lon="4.18583">
        <ele>1546</ele>
        <time>2020-08-18T07:33:41Z</time>
      </trkpt>
      <trkpt lat="44.90043" lon="4.18674">
        <ele>1547.4</ele>
        <time>2020-08-18T07:34:01Z</time>
      </trkpt>
      <trkpt lat="44.89916" lon="4.18667">
        <ele>1545.4</ele>
        <time>2020-08-18T07:34:21Z</time>
      </trkpt>
      <trkpt lat="44.89808" lon="4.18681">
        <ele>1544</ele>
        <time>2020-08-18T07:34:31Z</time>
      </trkpt>
      <trkpt lat="44.89705" lon="4.18633">
        <ele>1543.3</ele>
        <time>2020-08-18T07:34:41Z</time>
      </trkpt>
      <trkpt lat="44.89588" lon="4.18624">
        <ele>1541.4</ele>
        <time>2020-08-18T07:34:51Z</time>
      </trkpt>
      <trkpt lat="44.8947" lon="4.18591">
        <ele>1538.7</ele>
        <time>2020-08-18T07:35:01Z</time>
      </trkpt>
      <trkpt lat="44.89364" lon="4.18677">
        <ele>1535</ele>
        <time>2020-08-18T07:35:11Z</time>
      </trkpt>
      <trkpt lat="44.89269" lon="4.18715">
        <ele>1531.3</ele>
        <time>2020-08-18T07:35:21Z</time>
      </trkpt>
      <trkpt lat="44.89169" lon="4.1874">
        <ele>1517.7</ele>
        <time>2020-08-18T07:35:31Z</time>
      </trkpt>
      <trkpt lat="44.89092" lon="4.18858">
        <ele>1504.8</ele>
        <time>2020-08-18T07:35:41Z</time>
      </trkpt>
      <trkpt lat="44.89105" lon="4.1901">
        <ele>1500.4</ele>
        <time>2020-08-18T07:35:51Z</time>
      </trkpt>
      <trkpt lat="44.89149" lon="4.1916">
        <ele>1497.8</ele>
        <time>2020-08-18T07:36:01Z</time>
      </trkpt>
      <trkpt lat="44.8918" lon="4.19319">
        <ele>1493.8</ele>
        <time>2020-08-18T07:36:11Z</time>
      </trkpt>
      <trkpt lat="44.89209" lon="4.19446">
        <ele>1481.1</ele>
        <time>2020-08-18T07:36:21Z</time>
      </trkpt>
      <trkpt lat="44.89171" lon="4.19574">
        <ele>1471.1</ele>
        <time>2020-08-18T07:36:31Z</time>
      </trkpt>
      <trkpt lat="44.89111" lon="4.1969">
        <ele>1468.1</ele>
        <time>2020-08-18T07:36:41Z</time>
      </trkpt>
      <trkpt lat="44.8904" lon="4.19781">
        <ele>1466.4</ele>
        <time>2020-08-18T07:36:51Z</time>
      </trkpt>
      <trkpt lat="44.89012" lon="4.19923">
        <ele>1465.5</ele>
        <time>2020-08-18T07:37:01Z</time>
      </trkpt>
      <trkpt lat="44.89035" lon="4.20075">
        <ele>1448.7</ele>
        <time>2020-08-18T07:37:11Z</time>
      </trkpt>
      <trkpt lat="44.88978" lon="4.20235">
        <ele>1432.9</ele>
        <time>2020-08-18T07:37:26Z</time>
      </trkpt>
      <trkpt lat="44.8891" lon="4.20327">
        <ele>1426.8</ele>
        <time>2020-08-18T07:37:36Z</time>
      </trkpt>
      <trkpt lat="44.8883" lon="4.20454">
        <ele>1415.3</ele>
        <time>2020-08-18T07:37:46Z</time>
      </trkpt>
      <trkpt lat="44.88738" lon="4.20572">
        <ele>1397.3</ele>
        <time>2020-08-18T07:38:01Z</time>
      </trkpt>
      <trkpt lat="44.8864" lon="4.20628">
        <ele>1381.4</ele>
        <time>2020-08-18T07:38:16Z</time>
      </trkpt>
      <trkpt lat="44.88531" lon="4.20544">
        <ele>1367.6</ele>
        <time>2020-08-18T07:38:31Z</time>
      </trkpt>
      <trkpt lat="44.88421" lon="4.20609">
        <ele>1358.1</ele>
        <time>2020-08-18T07:38:46Z</time>
      </trkpt>
      <trkpt lat="44.88412" lon="4.2047">
        <ele>1350.7</ele>
        <time>2020-08-18T07:39:22Z</time>
      </trkpt>
      <trkpt lat="44.88374" lon="4.20347">
        <ele>1346.2</ele>
        <time>2020-08-18T07:40:24Z</time>
      </trkpt>
      <trkpt lat="44.88368" lon="4.20211">
        <ele>1344.8</ele>
        <time>2020-08-18T07:41:27Z</time>
      </trkpt>
      <trkpt lat="44.88418" lon="4.20096">
        <ele>1345.2</ele>
        <time>2020-08-18T07:42:14Z</time>
      </trkpt>
      <trkpt lat="44.88474" lon="4.19998">
        <ele>1347.3</ele>
        <time>2020-08-18T07:43:08Z</time>
      </trkpt>
      <trkpt lat="44.88421" lon="4.1989">
        <ele>1349.4</ele>
        <time>2020-08-18T07:44:09Z</time>
      </trkpt>
      <trkpt lat="44.88383" lon="4.19763">
        <ele>1351.2</ele>
        <time>2020-08-18T07:45:33Z</time>
      </trkpt>
      <trkpt lat="44.88378" lon="4.19617">
        <ele>1353.2</ele>
        <time>2020-08-18T07:46:28Z</time>
      </trkpt>
      <trkpt lat="44.88315" lon="4.19517">
        <ele>1354.6</ele>
        <time>2020-08-18T07:47:10Z</time>
      </trkpt>
      <trkpt lat="44.88287" lon="4.19382">
        <ele>1356.9</ele>
        <time>2020-08-18T07:48:10Z</time>
      </trkpt>
      <trkpt lat="44.88266" lon="4.19245">
        <ele>1358.9</ele>
        <time>2020-08-18T07:49:01Z</time>
      </trkpt>
      <trkpt lat="44.8827" lon="4.19118">
        <ele>1360.8</ele>
        <time>2020-08-18T07:49:44Z</time>
      </trkpt>
      <trkpt lat="44.88183" lon="4.19048">
        <ele>1362.5</ele>
        <time>2020-08-18T07:50:23Z</time>
      </trkpt>
      <trkpt lat="44.8814" lon="4.18922">
        <ele>1364.4</ele>
        <time>2020-08-18T07:51:05Z</time>
      </trkpt>
      <trkpt lat="44.88157" lon="4.18788">
        <ele>1366</ele>
        <time>2020-08-18T07:51:41Z</time>
      </trkpt>
      <trkpt lat="44.88101" lon="4.18684">
        <ele>1370.7</ele>
        <time>2020-08-18T07:53:05Z</time>
      </trkpt>
      <trkpt lat="44.88038" lon="4.18588">
        <ele>1379.8</ele>
        <time>2020-08-18T07:53:35Z</time>
      </trkpt>
      <trkpt lat="44.88053" lon="4.18444">
        <ele>1382.3</ele>
        <time>2020-08-18T07:54:10Z</time>
      </trkpt>
      <trkpt lat="44.87952" lon="4.18397">
        <ele>1386.4</ele>
        <time>2020-08-18T07:54:40Z</time>
      </trkpt>
      <trkpt lat="44.87875" lon="4.18463">
        <ele>1392.2</ele>
        <time>2020-08-18T07:55:22Z</time>
      </trkpt>
      <trkpt lat="44.87813" lon="4.18553">
        <ele>1400.4</ele>
        <time>2020-08-18T07:56:31Z</time>
      </trkpt>
      <trkpt lat="44.87787" lon="4.18422">
        <ele>1410.8</ele>
        <time>2020-08-18T07:58:21Z</time>
      </trkpt>
      <trkpt lat="44.87722" lon="4.18297">
        <ele>1416</ele>
        <time>2020-08-18T07:58:52Z</time>
      </trkpt>
      <trkpt lat="44.87663" lon="4.1819">
        <ele>1416.5</ele>
        <time>2020-08-18T07:59:12Z</time>
      </trkpt>
      <trkpt lat="44.87555" lon="4.18075">
        <ele>1416.3</ele>
        <time>2020-08-18T07:59:32Z</time>
      </trkpt>
      <trkpt lat="44.8747" lon="4.17988">
        <ele>1415.9</ele>
        <time>2020-08-18T07:59:42Z</time>
      </trkpt>
      <trkpt lat="44.87381" lon="4.17932">
        <ele>1415.9</ele>
        <time>2020-08-18T07:59:57Z</time>
      </trkpt>
      <trkpt lat="44.87463" lon="4.18046">
        <ele>1412.4</ele>
        <time>2020-08-18T08:00:22Z</time>
      </trkpt>
      <trkpt lat="44.87398" lon="4.18142">
        <ele>1414.6</ele>
        <time>2020-08-18T08:00:52Z</time>
      </trkpt>
      <trkpt lat="44.87326" lon="4.18214">
        <ele>1412.2</ele>
        <time>2020-08-18T08:01:46Z</time>
      </trkpt>
      <trkpt lat="44.87292" lon="4.18339">
        <ele>1414.7</ele>
        <time>2020-08-18T08:02:46Z</time>
      </trkpt>
      <trkpt lat="44.87224" lon="4.18432">
        <ele>1421.7</ele>
        <time>2020-08-18T08:04:02Z</time>
      </trkpt>
      <trkpt lat="44.87138" lon="4.18365">
        <ele>1428.8</ele>
        <time>2020-08-18T08:05:14Z</time>
      </trkpt>
      <trkpt lat="44.87063" lon="4.18282">
        <ele>1432.3</ele>
        <time>2020-08-18T08:06:15Z</time>
      </trkpt>
      <trkpt lat="44.87111" lon="4.18398">
        <ele>1438.6</ele>
        <time>2020-08-18T08:13:18Z</time>
      </trkpt>
      <trkpt lat="44.8715" lon="4.18524">
        <ele>1439.5</ele>
        <time>2020-08-18T08:14:13Z</time>
      </trkpt>
      <trkpt lat="44.8723" lon="4.18588">
        <ele>1440.8</ele>
        <time>2020-08-18T08:15:07Z</time>
      </trkpt>
      <trkpt lat="44.87329" lon="4.18594">
        <ele>1442.7</ele>
        <time>2020-08-18T08:16:02Z</time>
      </trkpt>
      <trkpt lat="44.87421" lon="4.1861">
        <ele>1444.5</ele>
        <time>2020-08-18T08:16:44Z</time>
      </trkpt>
      <trkpt lat="44.87519" lon="4.18683">
        <ele>1448.6</ele>
        <time>2020-08-18T08:17:14Z</time>
      </trkpt>
      <trkpt lat="44.87536" lon="4.18845">
        <ele>1449.6</ele>
        <time>2020-08-18T08:17:33Z</time>
      </trkpt>
      <trkpt lat="44.87472" lon="4.1897">
        <ele>1449</ele>
        <time>2020-08-18T08:17:48Z</time>
      </trkpt>
      <trkpt lat="44.87403" lon="4.19102">
        <ele>1450</ele>
        <time>2020-08-18T08:18:03Z</time>
      </trkpt>
      <trkpt lat="44.87377" lon="4.19269">
        <ele>1449.9</ele>
        <time>2020-08-18T08:18:18Z</time>
      </trkpt>
      <trkpt lat="44.87361" lon="4.19438">
        <ele>1449.8</ele>
        <time>2020-08-18T08:18:33Z</time>
      </trkpt>
      <trkpt lat="44.87349" lon="4.19587">
        <ele>1450.5</ele>
        <time>2020-08-18T08:18:48Z</time>
      </trkpt>
      <trkpt lat="44.87246" lon="4.19527">
        <ele>1448.6</ele>
        <time>2020-08-18T08:19:03Z</time>
      </trkpt>
      <trkpt lat="44.87153" lon="4.195">
        <ele>1448.4</ele>
        <time>2020-08-18T08:19:18Z</time>
      </trkpt>
      <trkpt lat="44.87061" lon="4.19515">
        <ele>1446.2</ele>
        <time>2020-08-18T08:19:38Z</time>
      </trkpt>
      <trkpt lat="44.86963" lon="4.1949">
        <ele>1447</ele>
        <time>2020-08-18T08:20:08Z</time>
      </trkpt>
      <trkpt lat="44.86875" lon="4.19448">
        <ele>1445.1</ele>
        <time>2020-08-18T08:20:43Z</time>
      </trkpt>
      <trkpt lat="44.86791" lon="4.19372">
        <ele>1443.7</ele>
        <time>2020-08-18T08:21:24Z</time>
      </trkpt>
      <trkpt lat="44.86685" lon="4.19382">
        <ele>1442.1</ele>
        <time>2020-08-18T08:21:49Z</time>
      </trkpt>
      <trkpt lat="44.86595" lon="4.19466">
        <ele>1442</ele>
        <time>2020-08-18T08:22:14Z</time>
      </trkpt>
      <trkpt lat="44.86518" lon="4.1954">
        <ele>1442.5</ele>
        <time>2020-08-18T08:22:29Z</time>
      </trkpt>
      <trkpt lat="44.86438" lon="4.19604">
        <ele>1442.8</ele>
        <time>2020-08-18T08:22:44Z</time>
      </trkpt>
      <trkpt lat="44.86356" lon="4.19659">
        <ele>1442.8</ele>
        <time>2020-08-18T08:22:59Z</time>
      </trkpt>
      <trkpt lat="44.86243" lon="4.19712">
        <ele>1443</ele>
        <time>2020-08-18T08:23:19Z</time>
      </trkpt>
      <trkpt lat="44.8615" lon="4.19747">
        <ele>1442.5</ele>
        <time>2020-08-18T08:23:34Z</time>
      </trkpt>
      <trkpt lat="44.86034" lon="4.19735">
        <ele>1441.3</ele>
        <time>2020-08-18T08:23:54Z</time>
      </trkpt>
      <trkpt lat="44.8593" lon="4.19784">
        <ele>1440.6</ele>
        <time>2020-08-18T08:24:14Z</time>
      </trkpt>
      <trkpt lat="44.85859" lon="4.19924">
        <ele>1437.7</ele>
        <time>2020-08-18T08:24:29Z</time>
      </trkpt>
      <trkpt lat="44.85731" lon="4.19904">
        <ele>1435.3</ele>
        <time>2020-08-18T08:24:44Z</time>
      </trkpt>
      <trkpt lat="44.85607" lon="4.19913">
        <ele>1431.8</ele>
        <time>2020-08-18T08:24:59Z</time>
      </trkpt>
      <trkpt lat="44.85539" lon="4.20007">
        <ele>1428.2</ele>
        <time>2020-08-18T08:25:09Z</time>
      </trkpt>
      <trkpt lat="44.85498" lon="4.20121">
        <ele>1425.1</ele>
        <time>2020-08-18T08:25:19Z</time>
      </trkpt>
      <trkpt lat="44.85487" lon="4.20247">
        <ele>1423.8</ele>
        <time>2020-08-18T08:25:29Z</time>
      </trkpt>
      <trkpt lat="44.85466" lon="4.20428">
        <ele>1420.9</ele>
        <time>2020-08-18T08:25:44Z</time>
      </trkpt>
      <trkpt lat="44.85394" lon="4.20544">
        <ele>1416.1</ele>
        <time>2020-08-18T08:25:59Z</time>
      </trkpt>
      <trkpt lat="44.85301" lon="4.2054">
        <ele>1413.5</ele>
        <time>2020-08-18T08:26:14Z</time>
      </trkpt>
      <trkpt lat="44.85193" lon="4.20505">
        <ele>1409.5</ele>
        <time>2020-08-18T08:26:29Z</time>
      </trkpt>
      <trkpt lat="44.851" lon="4.20455">
        <ele>1408.4</ele>
        <time>2020-08-18T08:26:54Z</time>
      </trkpt>
      <trkpt lat="44.85022" lon="4.20374">
        <ele>1410.5</ele>
        <time>2020-08-18T08:28:00Z</time>
      </trkpt>
      <trkpt lat="44.84926" lon="4.20373">
        <ele>1413</ele>
        <time>2020-08-18T08:29:01Z</time>
      </trkpt>
      <trkpt lat="44.84829" lon="4.20389">
        <ele>1417.1</ele>
        <time>2020-08-18T08:30:03Z</time>
      </trkpt>
      <trkpt lat="44.84763" lon="4.20483">
        <ele>1418.3</ele>
        <time>2020-08-18T08:31:04Z</time>
      </trkpt>
      <trkpt lat="44.84829" lon="4.20613">
        <ele>1422.3</ele>
        <time>2020-08-18T08:31:45Z</time>
      </trkpt>
      <trkpt lat="44.84796" lon="4.20742">
        <ele>1424.2</ele>
        <time>2020-08-18T08:32:20Z</time>
      </trkpt>
      <trkpt lat="44.84748" lon="4.20855">
        <ele>1426.7</ele>
        <time>2020-08-18T08:33:09Z</time>
      </trkpt>
      <trkpt lat="44.8473" lon="4.20993">
        <ele>1429.1</ele>
        <time>2020-08-18T08:33:59Z</time>
      </trkpt>
      <trkpt lat="44.84676" lon="4.21097">
        <ele>1431.8</ele>
        <time>2020-08-18T08:34:45Z</time>
      </trkpt>
      <trkpt lat="44.84588" lon="4.21158">
        <ele>1434.8</ele>
        <time>2020-08-18T08:35:35Z</time>
      </trkpt>
      <trkpt lat="44.84502" lon="4.21201">
        <ele>1437.4</ele>
        <time>2020-08-18T08:36:21Z</time>
      </trkpt>
      <trkpt lat="44.84423" lon="4.21281">
        <ele>1439.6</ele>
        <time>2020-08-18T08:37:13Z</time>
      </trkpt>
      <trkpt lat="44.84396" lon="4.21404">
        <ele>1440.9</ele>
        <time>2020-08-18T08:37:43Z</time>
      </trkpt>
      <trkpt lat="44.8436" lon="4.21518">
        <ele>1442.1</ele>
        <time>2020-08-18T08:38:08Z</time>
      </trkpt>
      <trkpt lat="44.84311" lon="4.21625">
        <ele>1445.3</ele>
        <time>2020-08-18T08:38:28Z</time>
      </trkpt>
      <trkpt lat="44.8423" lon="4.2171">
        <ele>1446.5</ele>
        <time>2020-08-18T08:38:53Z</time>
      </trkpt>
      <trkpt lat="44.84182" lon="4.21849">
        <ele>1447.8</ele>
        <time>2020-08-18T08:39:18Z</time>
      </trkpt>
      <trkpt lat="44.84162" lon="4.21996">
        <ele>1448.8</ele>
        <time>2020-08-18T08:39:43Z</time>
      </trkpt>
      <trkpt lat="44.84132" lon="4.22135">
        <ele>1449.1</ele>
        <time>2020-08-18T08:40:08Z</time>
      </trkpt>
      <trkpt lat="44.8409" lon="4.22016">
        <ele>1449.6</ele>
        <time>2020-08-18T08:40:53Z</time>
      </trkpt>
      <trkpt lat="44.8406" lon="4.2188">
        <ele>1449.2</ele>
        <time>2020-08-18T08:41:03Z</time>
      </trkpt>
      <trkpt lat="44.84063" lon="4.21723">
        <ele>1447.8</ele>
        <time>2020-08-18T08:41:13Z</time>
      </trkpt>
      <trkpt lat="44.84068" lon="4.21567">
        <ele>1444.4</ele>
        <time>2020-08-18T08:41:23Z</time>
      </trkpt>
      <trkpt lat="44.84051" lon="4.21433">
        <ele>1437.2</ele>
        <time>2020-08-18T08:41:33Z</time>
      </trkpt>
      <trkpt lat="44.8406" lon="4.21246">
        <ele>1435.4</ele>
        <time>2020-08-18T08:41:43Z</time>
      </trkpt>
      <trkpt lat="44.84061" lon="4.21084">
        <ele>1430.9</ele>
        <time>2020-08-18T08:41:53Z</time>
      </trkpt>
      <trkpt lat="44.83983" lon="4.20975">
        <ele>1424.8</ele>
        <time>2020-08-18T08:42:03Z</time>
      </trkpt>
      <trkpt lat="44.83873" lon="4.2092">
        <ele>1419.6</ele>
        <time>2020-08-18T08:42:13Z</time>
      </trkpt>
      <trkpt lat="44.83759" lon="4.2087">
        <ele>1415.9</ele>
        <time>2020-08-18T08:42:23Z</time>
      </trkpt>
      <trkpt lat="44.83705" lon="4.2075">
        <ele>1405.5</ele>
        <time>2020-08-18T08:42:33Z</time>
      </trkpt>
      <trkpt lat="44.83703" lon="4.20581">
        <ele>1394.8</ele>
        <time>2020-08-18T08:42:43Z</time>
      </trkpt>
      <trkpt lat="44.8366" lon="4.20427">
        <ele>1389.8</ele>
        <time>2020-08-18T08:42:53Z</time>
      </trkpt>
      <trkpt lat="44.83619" lon="4.20304">
        <ele>1376.6</ele>
        <time>2020-08-18T08:43:24Z</time>
      </trkpt>
      <trkpt lat="44.83633" lon="4.2017">
        <ele>1364</ele>
        <time>2020-08-18T08:43:39Z</time>
      </trkpt>
      <trkpt lat="44.83635" lon="4.20039">
        <ele>1355.4</ele>
        <time>2020-08-18T08:43:49Z</time>
      </trkpt>
      <trkpt lat="44.83539" lon="4.19992">
        <ele>1349</ele>
        <time>2020-08-18T08:43:59Z</time>
      </trkpt>
      <trkpt lat="44.83428" lon="4.19964">
        <ele>1337.3</ele>
        <time>2020-08-18T08:44:08Z</time>
      </trkpt>
      <trkpt lat="44.83312" lon="4.19931">
        <ele>1328.2</ele>
        <time>2020-08-18T08:44:18Z</time>
      </trkpt>
      <trkpt lat="44.83197" lon="4.19911">
        <ele>1317.4</ele>
        <time>2020-08-18T08:44:28Z</time>
      </trkpt>
      <trkpt lat="44.83155" lon="4.19755">
        <ele>1311.5</ele>
        <time>2020-08-18T08:44:43Z</time>
      </trkpt>
      <trkpt lat="44.83063" lon="4.19712">
        <ele>1308.5</ele>
        <time>2020-08-18T08:44:58Z</time>
      </trkpt>
      <trkpt lat="44.82967" lon="4.19661">
        <ele>1306.2</ele>
        <time>2020-08-18T08:45:13Z</time>
      </trkpt>
      <trkpt lat="44.82901" lon="4.19558">
        <ele>1304.1</ele>
        <time>2020-08-18T08:45:28Z</time>
      </trkpt>
      <trkpt lat="44.8284" lon="4.19437">
        <ele>1297.4</ele>
        <time>2020-08-18T08:45:48Z</time>
      </trkpt>
      <trkpt lat="44.82746" lon="4.1942">
        <ele>1298.2</ele>
        <time>2020-08-18T08:46:08Z</time>
      </trkpt>
      <trkpt lat="44.82657" lon="4.1946">
        <ele>1293.2</ele>
        <time>2020-08-18T08:46:23Z</time>
      </trkpt>
      <trkpt lat="44.82551" lon="4.1948">
        <ele>1286.3</ele>
        <time>2020-08-18T08:46:38Z</time>
      </trkpt>
      <trkpt lat="44.82461" lon="4.19449">
        <ele>1283.5</ele>
        <time>2020-08-18T08:46:53Z</time>
      </trkpt>
      <trkpt lat="44.8237" lon="4.19404">
        <ele>1285.5</ele>
        <time>2020-08-18T08:47:13Z</time>
      </trkpt>
      <trkpt lat="44.82279" lon="4.19386">
        <ele>1286.5</ele>
        <time>2020-08-18T08:47:43Z</time>
      </trkpt>
      <trkpt lat="44.82182" lon="4.19365">
        <ele>1286.8</ele>
        <time>2020-08-18T08:48:24Z</time>
      </trkpt>
      <trkpt lat="44.82089" lon="4.19349">
        <ele>1288</ele>
        <time>2020-08-18T08:49:12Z</time>
      </trkpt>
      <trkpt lat="44.81993" lon="4.19335">
        <ele>1290.1</ele>
        <time>2020-08-18T08:50:04Z</time>
      </trkpt>
      <trkpt lat="44.81896" lon="4.19334">
        <ele>1302.9</ele>
        <time>2020-08-18T08:51:45Z</time>
      </trkpt>
      <trkpt lat="44.81805" lon="4.19359">
        <ele>1305.7</ele>
        <time>2020-08-18T08:59:24Z</time>
      </trkpt>
      <trkpt lat="44.81698" lon="4.19348">
        <ele>1304.8</ele>
        <time>2020-08-18T08:59:44Z</time>
      </trkpt>
      <trkpt lat="44.81598" lon="4.19328">
        <ele>1304.5</ele>
        <time>2020-08-18T09:00:04Z</time>
      </trkpt>
      <trkpt lat="44.81508" lon="4.19291">
        <ele>1304.5</ele>
        <time>2020-08-18T09:00:24Z</time>
      </trkpt>
      <trkpt lat="44.81464" lon="4.19134">
        <ele>1303.5</ele>
        <time>2020-08-18T09:00:44Z</time>
      </trkpt>
      <trkpt lat="44.81369" lon="4.19063">
        <ele>1302.1</ele>
        <time>2020-08-18T09:00:59Z</time>
      </trkpt>
      <trkpt lat="44.81272" lon="4.1903">
        <ele>1300.8</ele>
        <time>2020-08-18T09:01:24Z</time>
      </trkpt>
      <trkpt lat="44.81174" lon="4.18986">
        <ele>1295.1</ele>
        <time>2020-08-18T09:01:44Z</time>
      </trkpt>
      <trkpt lat="44.81076" lon="4.1898">
        <ele>1292.4</ele>
        <time>2020-08-18T09:02:04Z</time>
      </trkpt>
      <trkpt lat="44.80975" lon="4.18988">
        <ele>1291.2</ele>
        <time>2020-08-18T09:02:24Z</time>
      </trkpt>
      <trkpt lat="44.80876" lon="4.18943">
        <ele>1288.2</ele>
        <time>2020-08-18T09:02:44Z</time>
      </trkpt>
      <trkpt lat="44.80912" lon="4.18789">
        <ele>1282.3</ele>
        <time>2020-08-18T09:02:59Z</time>
      </trkpt>
      <trkpt lat="44.80819" lon="4.1883">
        <ele>1277.8</ele>
        <time>2020-08-18T09:03:14Z</time>
      </trkpt>
      <trkpt lat="44.80706" lon="4.18832">
        <ele>1273</ele>
        <time>2020-08-18T09:03:24Z</time>
      </trkpt>
      <trkpt lat="44.80609" lon="4.18769">
        <ele>1273.1</ele>
        <time>2020-08-18T09:03:34Z</time>
      </trkpt>
      <trkpt lat="44.80512" lon="4.18712">
        <ele>1270.7</ele>
        <time>2020-08-18T09:03:44Z</time>
      </trkpt>
      <trkpt lat="44.80419" lon="4.18653">
        <ele>1267.7</ele>
        <time>2020-08-18T09:03:54Z</time>
      </trkpt>
      <trkpt lat="44.80325" lon="4.18566">
        <ele>1256.8</ele>
        <time>2020-08-18T09:04:09Z</time>
      </trkpt>
      <trkpt lat="44.80262" lon="4.1844">
        <ele>1250.4</ele>
        <time>2020-08-18T09:04:24Z</time>
      </trkpt>
      <trkpt lat="44.80166" lon="4.18395">
        <ele>1249.8</ele>
        <time>2020-08-18T09:04:39Z</time>
      </trkpt>
      <trkpt lat="44.80051" lon="4.18411">
        <ele>1245.8</ele>
        <time>2020-08-18T09:04:54Z</time>
      </trkpt>
      <trkpt lat="44.79931" lon="4.18429">
        <ele>1242.3</ele>
        <time>2020-08-18T09:05:09Z</time>
      </trkpt>
      <trkpt lat="44.79824" lon="4.18457">
        <ele>1239.3</ele>
        <time>2020-08-18T09:05:24Z</time>
      </trkpt>
      <trkpt lat="44.79726" lon="4.18493">
        <ele>1237.6</ele>
        <time>2020-08-18T09:05:39Z</time>
      </trkpt>
      <trkpt lat="44.79629" lon="4.18469">
        <ele>1236.2</ele>
        <time>2020-08-18T09:05:54Z</time>
      </trkpt>
      <trkpt lat="44.79529" lon="4.1847">
        <ele>1234.2</ele>
        <time>2020-08-18T09:06:09Z</time>
      </trkpt>
      <trkpt lat="44.79427" lon="4.18476">
        <ele>1230.1</ele>
        <time>2020-08-18T09:06:24Z</time>
      </trkpt>
      <trkpt lat="44.7934" lon="4.18424">
        <ele>1226.5</ele>
        <time>2020-08-18T09:06:39Z</time>
      </trkpt>
      <trkpt lat="44.79259" lon="4.18362">
        <ele>1223.8</ele>
        <time>2020-08-18T09:06:54Z</time>
      </trkpt>
      <trkpt lat="44.79151" lon="4.18319">
        <ele>1220.6</ele>
        <time>2020-08-18T09:07:14Z</time>
      </trkpt>
      <trkpt lat="44.7905" lon="4.18402">
        <ele>1218.6</ele>
        <time>2020-08-18T09:07:34Z</time>
      </trkpt>
      <trkpt lat="44.78977" lon="4.18523">
        <ele>1216</ele>
        <time>2020-08-18T09:07:49Z</time>
      </trkpt>
      <trkpt lat="44.78878" lon="4.18563">
        <ele>1215.2</ele>
        <time>2020-08-18T09:08:04Z</time>
      </trkpt>
      <trkpt lat="44.78774" lon="4.18502">
        <ele>1214.1</ele>
        <time>2020-08-18T09:08:24Z</time>
      </trkpt>
      <trkpt lat="44.7868" lon="4.18448">
        <ele>1211.9</ele>
        <time>2020-08-18T09:08:44Z</time>
      </trkpt>
      <trkpt lat="44.78595" lon="4.18488">
        <ele>1210.8</ele>
        <time>2020-08-18T09:08:59Z</time>
      </trkpt>
      <trkpt lat="44.78513" lon="4.1855">
        <ele>1210.3</ele>
        <time>2020-08-18T09:09:14Z</time>
      </trkpt>
      <trkpt lat="44.7843" lon="4.18614">
        <ele>1209</ele>
        <time>2020-08-18T09:09:29Z</time>
      </trkpt>
      <trkpt lat="44.78311" lon="4.18595">
        <ele>1207.6</ele>
        <time>2020-08-18T09:09:49Z</time>
      </trkpt>
      <trkpt lat="44.78217" lon="4.18571">
        <ele>1206.2</ele>
        <time>2020-08-18T09:10:03Z</time>
      </trkpt>
      <trkpt lat="44.78141" lon="4.18469">
        <ele>1205.2</ele>
        <time>2020-08-18T09:10:18Z</time>
      </trkpt>
      <trkpt lat="44.78069" lon="4.18362">
        <ele>1204.9</ele>
        <time>2020-08-18T09:10:33Z</time>
      </trkpt>
      <trkpt lat="44.78" lon="4.18258">
        <ele>1203.7</ele>
        <time>2020-08-18T09:10:48Z</time>
      </trkpt>
      <trkpt lat="44.77917" lon="4.18131">
        <ele>1203.3</ele>
        <time>2020-08-18T09:11:08Z</time>
      </trkpt>
      <trkpt lat="44.77866" lon="4.18004">
        <ele>1202.7</ele>
        <time>2020-08-18T09:11:28Z</time>
      </trkpt>
      <trkpt lat="44.77861" lon="4.17867">
        <ele>1201.8</ele>
        <time>2020-08-18T09:11:48Z</time>
      </trkpt>
      <trkpt lat="44.77895" lon="4.17749">
        <ele>1200.6</ele>
        <time>2020-08-18T09:12:08Z</time>
      </trkpt>
      <trkpt lat="44.77951" lon="4.17636">
        <ele>1200.1</ele>
        <time>2020-08-18T09:12:33Z</time>
      </trkpt>
      <trkpt lat="44.77854" lon="4.17577">
        <ele>1196.6</ele>
        <time>2020-08-18T09:12:53Z</time>
      </trkpt>
      <trkpt lat="44.77764" lon="4.1757">
        <ele>1195.3</ele>
        <time>2020-08-18T09:13:08Z</time>
      </trkpt>
      <trkpt lat="44.77655" lon="4.17548">
        <ele>1195.9</ele>
        <time>2020-08-18T09:13:28Z</time>
      </trkpt>
      <trkpt lat="44.77634" lon="4.17411">
        <ele>1195.2</ele>
        <time>2020-08-18T09:13:53Z</time>
      </trkpt>
      <trkpt lat="44.77597" lon="4.17279">
        <ele>1198.5</ele>
        <time>2020-08-18T09:14:59Z</time>
      </trkpt>
      <trkpt lat="44.775" lon="4.17241">
        <ele>1202.8</ele>
        <time>2020-08-18T09:15:36Z</time>
      </trkpt>
      <trkpt lat="44.77403" lon="4.17197">
        <ele>1204.4</ele>
        <time>2020-08-18T09:16:01Z</time>
      </trkpt>
      <trkpt lat="44.77313" lon="4.1717">
        <ele>1205</ele>
        <time>2020-08-18T09:16:26Z</time>
      </trkpt>
      <trkpt lat="44.77295" lon="4.17007">
        <ele>1202.8</ele>
        <time>2020-08-18T09:16:51Z</time>
      </trkpt>
      <trkpt lat="44.77235" lon="4.16876">
        <ele>1201.8</ele>
        <time>2020-08-18T09:17:06Z</time>
      </trkpt>
      <trkpt lat="44.77164" lon="4.16781">
        <ele>1200.2</ele>
        <time>2020-08-18T09:17:21Z</time>
      </trkpt>
      <trkpt lat="44.77058" lon="4.16774">
        <ele>1196.9</ele>
        <time>2020-08-18T09:17:41Z</time>
      </trkpt>
      <trkpt lat="44.76972" lon="4.1687">
        <ele>1192.8</ele>
        <time>2020-08-18T09:18:11Z</time>
      </trkpt>
      <trkpt lat="44.76882" lon="4.16799">
        <ele>1190.5</ele>
        <time>2020-08-18T09:18:26Z</time>
      </trkpt>
      <trkpt lat="44.76853" lon="4.1664">
        <ele>1185.5</ele>
        <time>2020-08-18T09:18:46Z</time>
      </trkpt>
      <trkpt lat="44.76789" lon="4.16539">
        <ele>1183.4</ele>
        <time>2020-08-18T09:19:01Z</time>
      </trkpt>
      <trkpt lat="44.76699" lon="4.16449">
        <ele>1181.8</ele>
        <time>2020-08-18T09:19:21Z</time>
      </trkpt>
      <trkpt lat="44.76634" lon="4.16339">
        <ele>1179.1</ele>
        <time>2020-08-18T09:19:41Z</time>
      </trkpt>
      <trkpt lat="44.76538" lon="4.16266">
        <ele>1176.6</ele>
        <time>2020-08-18T09:20:01Z</time>
      </trkpt>
      <trkpt lat="44.76439" lon="4.16228">
        <ele>1178</ele>
        <time>2020-08-18T09:20:21Z</time>
      </trkpt>
      <trkpt lat="44.76338" lon="4.16231">
        <ele>1177.6</ele>
        <time>2020-08-18T09:20:41Z</time>
      </trkpt>
      <trkpt lat="44.76249" lon="4.16251">
        <ele>1177.8</ele>
        <time>2020-08-18T09:21:01Z</time>
      </trkpt>
      <trkpt lat="44.7617" lon="4.16167">
        <ele>1177.6</ele>
        <time>2020-08-18T09:21:31Z</time>
      </trkpt>
      <trkpt lat="44.76108" lon="4.16059">
        <ele>1177.2</ele>
        <time>2020-08-18T09:22:18Z</time>
      </trkpt>
      <trkpt lat="44.76024" lon="4.15991">
        <ele>1177.8</ele>
        <time>2020-08-18T09:23:15Z</time>
      </trkpt>
      <trkpt lat="44.76004" lon="4.15859">
        <ele>1179.1</ele>
        <time>2020-08-18T09:24:14Z</time>
      </trkpt>
      <trkpt lat="44.75953" lon="4.1574">
        <ele>1181</ele>
        <time>2020-08-18T09:25:10Z</time>
      </trkpt>
      <trkpt lat="44.75985" lon="4.15616">
        <ele>1184.3</ele>
        <time>2020-08-18T09:26:26Z</time>
      </trkpt>
      <trkpt lat="44.76068" lon="4.15552">
        <ele>1186</ele>
        <time>2020-08-18T09:27:01Z</time>
      </trkpt>
      <trkpt lat="44.76141" lon="4.1548">
        <ele>1187.8</ele>
        <time>2020-08-18T09:27:36Z</time>
      </trkpt>
      <trkpt lat="44.76202" lon="4.15375">
        <ele>1189.9</ele>
        <time>2020-08-18T09:28:21Z</time>
      </trkpt>
      <trkpt lat="44.76182" lon="4.15246">
        <ele>1192.3</ele>
        <time>2020-08-18T09:29:15Z</time>
      </trkpt>
      <trkpt lat="44.76123" lon="4.15132">
        <ele>1193.6</ele>
        <time>2020-08-18T09:30:02Z</time>
      </trkpt>
      <trkpt lat="44.76112" lon="4.14998">
        <ele>1197.3</ele>
        <time>2020-08-18T09:31:05Z</time>
      </trkpt>
      <trkpt lat="44.76085" lon="4.14869">
        <ele>1204.3</ele>
        <time>2020-08-18T09:32:00Z</time>
      </trkpt>
      <trkpt lat="44.76008" lon="4.1479">
        <ele>1211.4</ele>
        <time>2020-08-18T09:32:52Z</time>
      </trkpt>
      <trkpt lat="44.75919" lon="4.14745">
        <ele>1216.5</ele>
        <time>2020-08-18T09:33:40Z</time>
      </trkpt>
      <trkpt lat="44.75855" lon="4.14635">
        <ele>1222.9</ele>
        <time>2020-08-18T09:34:40Z</time>
      </trkpt>
      <trkpt lat="44.75824" lon="4.14508">
        <ele>1228</ele>
        <time>2020-08-18T09:35:42Z</time>
      </trkpt>
      <trkpt lat="44.75902" lon="4.14425">
        <ele>1232.6</ele>
        <time>2020-08-18T09:36:29Z</time>
      </trkpt>
      <trkpt lat="44.75927" lon="4.14289">
        <ele>1237.7</ele>
        <time>2020-08-18T09:37:25Z</time>
      </trkpt>
      <trkpt lat="44.75933" lon="4.14152">
        <ele>1242.2</ele>
        <time>2020-08-18T09:38:19Z</time>
      </trkpt>
      <trkpt lat="44.75881" lon="4.14038">
        <ele>1245.9</ele>
        <time>2020-08-18T09:39:10Z</time>
      </trkpt>
      <trkpt lat="44.75786" lon="4.13995">
        <ele>1250.5</ele>
        <time>2020-08-18T09:40:06Z</time>
      </trkpt>
      <trkpt lat="44.75741" lon="4.13881">
        <ele>1254.9</ele>
        <time>2020-08-18T09:41:01Z</time>
      </trkpt>
      <trkpt lat="44.7574" lon="4.13742">
        <ele>1257.5</ele>
        <time>2020-08-18T09:41:55Z</time>
      </trkpt>
      <trkpt lat="44.75686" lon="4.13636">
        <ele>1260.6</ele>
        <time>2020-08-18T09:42:37Z</time>
      </trkpt>
      <trkpt lat="44.75594" lon="4.13609">
        <ele>1266</ele>
        <time>2020-08-18T09:43:26Z</time>
      </trkpt>
      <trkpt lat="44.75522" lon="4.13693">
        <ele>1275.2</ele>
        <time>2020-08-18T09:44:15Z</time>
      </trkpt>
      <trkpt lat="44.7545" lon="4.13592">
        <ele>1283.3</ele>
        <time>2020-08-18T09:45:14Z</time>
      </trkpt>
      <trkpt lat="44.75357" lon="4.1353">
        <ele>1289.5</ele>
        <time>2020-08-18T09:45:44Z</time>
      </trkpt>
      <trkpt lat="44.75258" lon="4.13513">
        <ele>1291.7</ele>
        <time>2020-08-18T09:46:09Z</time>
      </trkpt>
      <trkpt lat="44.75179" lon="4.13588">
        <ele>1292.6</ele>
        <time>2020-08-18T09:46:34Z</time>
      </trkpt>
      <trkpt lat="44.75097" lon="4.13673">
        <ele>1299.5</ele>
        <time>2020-08-18T11:25:21Z</time>
      </trkpt>
      <trkpt lat="44.75" lon="4.13694">
        <ele>1299.9</ele>
        <time>2020-08-18T11:25:46Z</time>
      </trkpt>
      <trkpt lat="44.74926" lon="4.13768">
        <ele>1300.3</ele>
        <time>2020-08-18T11:26:06Z</time>
      </trkpt>
      <trkpt lat="44.74828" lon="4.13766">
        <ele>1300.7</ele>
        <time>2020-08-18T11:26:36Z</time>
      </trkpt>
      <trkpt lat="44.7474" lon="4.1373">
        <ele>1301.6</ele>
        <time>2020-08-18T11:27:26Z</time>
      </trkpt>
      <trkpt lat="44.74642" lon="4.13732">
        <ele>1304</ele>
        <time>2020-08-18T11:28:27Z</time>
      </trkpt>
      <trkpt lat="44.74563" lon="4.13819">
        <ele>1306.7</ele>
        <time>2020-08-18T11:28:57Z</time>
      </trkpt>
      <trkpt lat="44.74471" lon="4.13861">
        <ele>1307.7</ele>
        <time>2020-08-18T11:29:17Z</time>
      </trkpt>
      <trkpt lat="44.74362" lon="4.13868">
        <ele>1308.3</ele>
        <time>2020-08-18T11:29:37Z</time>
      </trkpt>
      <trkpt lat="44.74265" lon="4.13928">
        <ele>1308.6</ele>
        <time>2020-08-18T11:29:52Z</time>
      </trkpt>
      <trkpt lat="44.74189" lon="4.13999">
        <ele>1309.1</ele>
        <time>2020-08-18T11:30:07Z</time>
      </trkpt>
      <trkpt lat="44.74123" lon="4.1409">
        <ele>1309.4</ele>
        <time>2020-08-18T11:30:22Z</time>
      </trkpt>
      <trkpt lat="44.74091" lon="4.14211">
        <ele>1309</ele>
        <time>2020-08-18T11:30:37Z</time>
      </trkpt>
      <trkpt lat="44.74062" lon="4.14062">
        <ele>1302.6</ele>
        <time>2020-08-18T11:31:12Z</time>
      </trkpt>
      <trkpt lat="44.74121" lon="4.1396">
        <ele>1298.8</ele>
        <time>2020-08-18T11:31:22Z</time>
      </trkpt>
      <trkpt lat="44.74192" lon="4.13865">
        <ele>1295.1</ele>
        <time>2020-08-18T11:31:32Z</time>
      </trkpt>
      <trkpt lat="44.74265" lon="4.13773">
        <ele>1292.4</ele>
        <time>2020-08-18T11:31:42Z</time>
      </trkpt>
      <trkpt lat="44.74337" lon="4.13697">
        <ele>1287.4</ele>
        <time>2020-08-18T11:31:52Z</time>
      </trkpt>
      <trkpt lat="44.74418" lon="4.13645">
        <ele>1288.5</ele>
        <time>2020-08-18T11:32:02Z</time>
      </trkpt>
      <trkpt lat="44.7447" lon="4.13544">
        <ele>1284.1</ele>
        <time>2020-08-18T11:32:12Z</time>
      </trkpt>
      <trkpt lat="44.74361" lon="4.13455">
        <ele>1277.8</ele>
        <time>2020-08-18T11:32:27Z</time>
      </trkpt>
      <trkpt lat="44.74308" lon="4.13294">
        <ele>1270.9</ele>
        <time>2020-08-18T11:32:42Z</time>
      </trkpt>
      <trkpt lat="44.74299" lon="4.13164">
        <ele>1265.4</ele>
        <time>2020-08-18T11:32:52Z</time>
      </trkpt>
      <trkpt lat="44.74303" lon="4.13035">
        <ele>1261.4</ele>
        <time>2020-08-18T11:33:02Z</time>
      </trkpt>
      <trkpt lat="44.74225" lon="4.12882">
        <ele>1255.1</ele>
        <time>2020-08-18T11:33:17Z</time>
      </trkpt>
      <trkpt lat="44.74139" lon="4.12794">
        <ele>1250.6</ele>
        <time>2020-08-18T11:34:02Z</time>
      </trkpt>
      <trkpt lat="44.74039" lon="4.12782">
        <ele>1246.5</ele>
        <time>2020-08-18T11:34:27Z</time>
      </trkpt>
      <trkpt lat="44.73954" lon="4.1272">
        <ele>1243</ele>
        <time>2020-08-18T11:34:47Z</time>
      </trkpt>
      <trkpt lat="44.73909" lon="4.12598">
        <ele>1239.6</ele>
        <time>2020-08-18T11:35:02Z</time>
      </trkpt>
      <trkpt lat="44.73855" lon="4.12474">
        <ele>1237.2</ele>
        <time>2020-08-18T11:35:17Z</time>
      </trkpt>
      <trkpt lat="44.73791" lon="4.12353">
        <ele>1235</ele>
        <time>2020-08-18T11:35:32Z</time>
      </trkpt>
      <trkpt lat="44.73712" lon="4.12241">
        <ele>1231.2</ele>
        <time>2020-08-18T11:35:47Z</time>
      </trkpt>
      <trkpt lat="44.73632" lon="4.12125">
        <ele>1228.1</ele>
        <time>2020-08-18T11:36:02Z</time>
      </trkpt>
      <trkpt lat="44.73634" lon="4.11973">
        <ele>1223.9</ele>
        <time>2020-08-18T11:36:17Z</time>
      </trkpt>
      <trkpt lat="44.73736" lon="4.11888">
        <ele>1219.1</ele>
        <time>2020-08-18T11:36:32Z</time>
      </trkpt>
      <trkpt lat="44.73833" lon="4.11795">
        <ele>1213.8</ele>
        <time>2020-08-18T11:36:47Z</time>
      </trkpt>
      <trkpt lat="44.73862" lon="4.1167">
        <ele>1210.4</ele>
        <time>2020-08-18T11:36:57Z</time>
      </trkpt>
      <trkpt lat="44.739" lon="4.11548">
        <ele>1208.1</ele>
        <time>2020-08-18T11:37:07Z</time>
      </trkpt>
      <trkpt lat="44.73946" lon="4.11434">
        <ele>1207.3</ele>
        <time>2020-08-18T11:37:17Z</time>
      </trkpt>
      <trkpt lat="44.74009" lon="4.11333">
        <ele>1203.2</ele>
        <time>2020-08-18T11:37:32Z</time>
      </trkpt>
      <trkpt lat="44.74071" lon="4.11195">
        <ele>1190.7</ele>
        <time>2020-08-18T11:37:47Z</time>
      </trkpt>
      <trkpt lat="44.74077" lon="4.11062">
        <ele>1180.5</ele>
        <time>2020-08-18T11:38:14Z</time>
      </trkpt>
      <trkpt lat="44.7404" lon="4.10925">
        <ele>1171.3</ele>
        <time>2020-08-18T11:38:29Z</time>
      </trkpt>
      <trkpt lat="44.74048" lon="4.10799">
        <ele>1167.4</ele>
        <time>2020-08-18T11:38:39Z</time>
      </trkpt>
      <trkpt lat="44.74073" lon="4.10669">
        <ele>1163.1</ele>
        <time>2020-08-18T11:38:49Z</time>
      </trkpt>
      <trkpt lat="44.7404" lon="4.10514">
        <ele>1158.5</ele>
        <time>2020-08-18T11:39:04Z</time>
      </trkpt>
      <trkpt lat="44.73986" lon="4.10404">
        <ele>1154.4</ele>
        <time>2020-08-18T11:39:24Z</time>
      </trkpt>
      <trkpt lat="44.73913" lon="4.10307">
        <ele>1149.8</ele>
        <time>2020-08-18T11:40:05Z</time>
      </trkpt>
      <trkpt lat="44.73837" lon="4.10228">
        <ele>1148.5</ele>
        <time>2020-08-18T11:40:45Z</time>
      </trkpt>
      <trkpt lat="44.73746" lon="4.10174">
        <ele>1155.9</ele>
        <time>2020-08-18T11:41:38Z</time>
      </trkpt>
      <trkpt lat="44.73656" lon="4.10122">
        <ele>1162.5</ele>
        <time>2020-08-18T11:42:19Z</time>
      </trkpt>
      <trkpt lat="44.73567" lon="4.1006">
        <ele>1163.4</ele>
        <time>2020-08-18T11:43:04Z</time>
      </trkpt>
      <trkpt lat="44.73544" lon="4.09926">
        <ele>1163.7</ele>
        <time>2020-08-18T11:43:53Z</time>
      </trkpt>
      <trkpt lat="44.7346" lon="4.09845">
        <ele>1164.2</ele>
        <time>2020-08-18T11:44:38Z</time>
      </trkpt>
      <trkpt lat="44.73378" lon="4.09769">
        <ele>1164.4</ele>
        <time>2020-08-18T11:45:23Z</time>
      </trkpt>
      <trkpt lat="44.73293" lon="4.09707">
        <ele>1165</ele>
        <time>2020-08-18T11:46:08Z</time>
      </trkpt>
      <trkpt lat="44.73208" lon="4.09649">
        <ele>1165.2</ele>
        <time>2020-08-18T11:46:53Z</time>
      </trkpt>
      <trkpt lat="44.7318" lon="4.09513">
        <ele>1165.6</ele>
        <time>2020-08-18T11:47:38Z</time>
      </trkpt>
      <trkpt lat="44.7318" lon="4.0938">
        <ele>1166</ele>
        <time>2020-08-18T11:48:13Z</time>
      </trkpt>
      <trkpt lat="44.73159" lon="4.09254">
        <ele>1166.3</ele>
        <time>2020-08-18T11:48:48Z</time>
      </trkpt>
      <trkpt lat="44.73107" lon="4.09137">
        <ele>1166.5</ele>
        <time>2020-08-18T11:49:23Z</time>
      </trkpt>
      <trkpt lat="44.73054" lon="4.09015">
        <ele>1166.7</ele>
        <time>2020-08-18T11:49:58Z</time>
      </trkpt>
      <trkpt lat="44.72975" lon="4.08939">
        <ele>1168.2</ele>
        <time>2020-08-18T11:54:14Z</time>
      </trkpt>
      <trkpt lat="44.72886" lon="4.08956">
        <ele>1169.5</ele>
        <time>2020-08-18T11:54:49Z</time>
      </trkpt>
      <trkpt lat="44.72795" lon="4.08923">
        <ele>1174.2</ele>
        <time>2020-08-18T11:57:23Z</time>
      </trkpt>
      <trkpt lat="44.72702" lon="4.08827">
        <ele>1175.8</ele>
        <time>2020-08-18T11:57:43Z</time>
      </trkpt>
      <trkpt lat="44.72618" lon="4.0873">
        <ele>1178.1</ele>
        <time>2020-08-18T11:58:08Z</time>
      </trkpt>
      <trkpt lat="44.72521" lon="4.08777">
        <ele>1179.1</ele>
        <time>2020-08-18T11:58:38Z</time>
      </trkpt>
      <trkpt lat="44.7243" lon="4.08786">
        <ele>1182</ele>
        <time>2020-08-18T11:59:03Z</time>
      </trkpt>
      <trkpt lat="44.7234" lon="4.08755">
        <ele>1185.2</ele>
        <time>2020-08-18T11:59:23Z</time>
      </trkpt>
      <trkpt lat="44.72414" lon="4.08684">
        <ele>1187.1</ele>
        <time>2020-08-18T12:00:22Z</time>
      </trkpt>
      <trkpt lat="44.72497" lon="4.08631">
        <ele>1190.7</ele>
        <time>2020-08-18T12:01:34Z</time>
      </trkpt>
      <trkpt lat="44.72431" lon="4.08533">
        <ele>1195.6</ele>
        <time>2020-08-18T12:02:40Z</time>
      </trkpt>
      <trkpt lat="44.72394" lon="4.08407">
        <ele>1199.7</ele>
        <time>2020-08-18T12:03:44Z</time>
      </trkpt>
      <trkpt lat="44.72343" lon="4.08285">
        <ele>1203.3</ele>
        <time>2020-08-18T12:04:51Z</time>
      </trkpt>
      <trkpt lat="44.7232" lon="4.08148">
        <ele>1209</ele>
        <time>2020-08-18T12:05:58Z</time>
      </trkpt>
      <trkpt lat="44.72226" lon="4.0812">
        <ele>1212.2</ele>
        <time>2020-08-18T12:07:03Z</time>
      </trkpt>
      <trkpt lat="44.72153" lon="4.08034">
        <ele>1215.1</ele>
        <time>2020-08-18T12:07:59Z</time>
      </trkpt>
      <trkpt lat="44.72064" lon="4.07988">
        <ele>1219.1</ele>
        <time>2020-08-18T12:08:58Z</time>
      </trkpt>
      <trkpt lat="44.71979" lon="4.07937">
        <ele>1228.8</ele>
        <time>2020-08-18T12:10:17Z</time>
      </trkpt>
      <trkpt lat="44.71917" lon="4.0783">
        <ele>1238</ele>
        <time>2020-08-18T12:11:16Z</time>
      </trkpt>
      <trkpt lat="44.71848" lon="4.07731">
        <ele>1245.8</ele>
        <time>2020-08-18T12:12:19Z</time>
      </trkpt>
      <trkpt lat="44.71759" lon="4.07747">
        <ele>1251.5</ele>
        <time>2020-08-18T12:13:28Z</time>
      </trkpt>
      <trkpt lat="44.71667" lon="4.07791">
        <ele>1253.3</ele>
        <time>2020-08-18T12:14:25Z</time>
      </trkpt>
      <trkpt lat="44.71659" lon="4.07664">
        <ele>1257.2</ele>
        <time>2020-08-18T12:16:07Z</time>
      </trkpt>
      <trkpt lat="44.71718" lon="4.07568">
        <ele>1261.3</ele>
        <time>2020-08-18T12:17:00Z</time>
      </trkpt>
      <trkpt lat="44.71725" lon="4.0743">
        <ele>1266.3</ele>
        <time>2020-08-18T12:18:01Z</time>
      </trkpt>
      <trkpt lat="44.71655" lon="4.07334">
        <ele>1272.3</ele>
        <time>2020-08-18T12:19:11Z</time>
      </trkpt>
      <trkpt lat="44.71565" lon="4.07315">
        <ele>1275.3</ele>
        <time>2020-08-18T12:19:56Z</time>
      </trkpt>
      <trkpt lat="44.71469" lon="4.07307">
        <ele>1278.9</ele>
        <time>2020-08-18T12:20:51Z</time>
      </trkpt>
      <trkpt lat="44.71409" lon="4.074">
        <ele>1282</ele>
        <time>2020-08-18T12:21:43Z</time>
      </trkpt>
      <trkpt lat="44.71334" lon="4.07313">
        <ele>1299.1</ele>
        <time>2020-08-18T12:23:27Z</time>
      </trkpt>
      <trkpt lat="44.71358" lon="4.0718">
        <ele>1311</ele>
        <time>2020-08-18T12:24:20Z</time>
      </trkpt>
      <trkpt lat="44.71381" lon="4.07052">
        <ele>1318.3</ele>
        <time>2020-08-18T12:25:11Z</time>
      </trkpt>
      <trkpt lat="44.7141" lon="4.06932">
        <ele>1322.6</ele>
        <time>2020-08-18T12:25:51Z</time>
      </trkpt>
      <trkpt lat="44.71389" lon="4.06803">
        <ele>1326.7</ele>
        <time>2020-08-18T12:27:18Z</time>
      </trkpt>
      <trkpt lat="44.71364" lon="4.06673">
        <ele>1328.7</ele>
        <time>2020-08-18T12:27:48Z</time>
      </trkpt>
      <trkpt lat="44.71335" lon="4.06538">
        <ele>1331.4</ele>
        <time>2020-08-18T12:28:36Z</time>
      </trkpt>
      <trkpt lat="44.71284" lon="4.06421">
        <ele>1333.8</ele>
        <time>2020-08-18T12:29:30Z</time>
      </trkpt>
      <trkpt lat="44.71202" lon="4.0636">
        <ele>1335.8</ele>
        <time>2020-08-18T12:30:15Z</time>
      </trkpt>
      <trkpt lat="44.71192" lon="4.06225">
        <ele>1337.9</ele>
        <time>2020-08-18T12:31:02Z</time>
      </trkpt>
      <trkpt lat="44.71187" lon="4.06096">
        <ele>1339.3</ele>
        <time>2020-08-18T12:31:42Z</time>
      </trkpt>
      <trkpt lat="44.71142" lon="4.05974">
        <ele>1340.8</ele>
        <time>2020-08-18T12:32:17Z</time>
      </trkpt>
      <trkpt lat="44.71136" lon="4.05842">
        <ele>1342.8</ele>
        <time>2020-08-18T12:32:57Z</time>
      </trkpt>
      <trkpt lat="44.71123" lon="4.05697">
        <ele>1344.4</ele>
        <time>2020-08-18T12:33:37Z</time>
      </trkpt>
      <trkpt lat="44.71037" lon="4.05649">
        <ele>1345.9</ele>
        <time>2020-08-18T12:34:16Z</time>
      </trkpt>
      <trkpt lat="44.70987" lon="4.0554">
        <ele>1347.8</ele>
        <time>2020-08-18T12:35:02Z</time>
      </trkpt>
      <trkpt lat="44.7093" lon="4.05431">
        <ele>1349.3</ele>
        <time>2020-08-18T12:35:48Z</time>
      </trkpt>
      <trkpt lat="44.70832" lon="4.05436">
        <ele>1351.3</ele>
        <time>2020-08-18T12:36:39Z</time>
      </trkpt>
      <trkpt lat="44.70732" lon="4.0541">
        <ele>1353.3</ele>
        <time>2020-08-18T12:37:28Z</time>
      </trkpt>
      <trkpt lat="44.70641" lon="4.05436">
        <ele>1355.6</ele>
        <time>2020-08-18T12:38:15Z</time>
      </trkpt>
      <trkpt lat="44.70553" lon="4.05372">
        <ele>1359.3</ele>
        <time>2020-08-18T12:39:16Z</time>
      </trkpt>
      <trkpt lat="44.70486" lon="4.0527">
        <ele>1363</ele>
        <time>2020-08-18T12:40:22Z</time>
      </trkpt>
      <trkpt lat="44.70393" lon="4.05274">
        <ele>1365</ele>
        <time>2020-08-18T12:41:09Z</time>
      </trkpt>
      <trkpt lat="44.70301" lon="4.05319">
        <ele>1367.4</ele>
        <time>2020-08-18T12:42:00Z</time>
      </trkpt>
      <trkpt lat="44.70203" lon="4.0533">
        <ele>1369.9</ele>
        <time>2020-08-18T12:42:54Z</time>
      </trkpt>
      <trkpt lat="44.70109" lon="4.05318">
        <ele>1373.6</ele>
        <time>2020-08-18T12:43:41Z</time>
      </trkpt>
      <trkpt lat="44.70023" lon="4.05272">
        <ele>1378.4</ele>
        <time>2020-08-18T12:44:27Z</time>
      </trkpt>
      <trkpt lat="44.69937" lon="4.05223">
        <ele>1382.4</ele>
        <time>2020-08-18T12:45:12Z</time>
      </trkpt>
      <trkpt lat="44.69862" lon="4.05132">
        <ele>1386.1</ele>
        <time>2020-08-18T12:46:03Z</time>
      </trkpt>
      <trkpt lat="44.69809" lon="4.05022">
        <ele>1389.3</ele>
        <time>2020-08-18T12:46:51Z</time>
      </trkpt>
      <trkpt lat="44.69732" lon="4.04931">
        <ele>1392.3</ele>
        <time>2020-08-18T12:47:36Z</time>
      </trkpt>
      <trkpt lat="44.6967" lon="4.04833">
        <ele>1394.7</ele>
        <time>2020-08-18T12:48:16Z</time>
      </trkpt>
      <trkpt lat="44.69609" lon="4.04695">
        <ele>1398.9</ele>
        <time>2020-08-18T12:49:22Z</time>
      </trkpt>
      <trkpt lat="44.69539" lon="4.0461">
        <ele>1398.8</ele>
        <time>2020-08-18T12:49:37Z</time>
      </trkpt>
      <trkpt lat="44.6949" lon="4.04476">
        <ele>1398.4</ele>
        <time>2020-08-18T12:49:52Z</time>
      </trkpt>
      <trkpt lat="44.69384" lon="4.04416">
        <ele>1395.9</ele>
        <time>2020-08-18T12:50:07Z</time>
      </trkpt>
      <trkpt lat="44.69346" lon="4.04293">
        <ele>1392.3</ele>
        <time>2020-08-18T12:50:22Z</time>
      </trkpt>
      <trkpt lat="44.69355" lon="4.04156">
        <ele>1389.6</ele>
        <time>2020-08-18T12:50:32Z</time>
      </trkpt>
      <trkpt lat="44.6935" lon="4.04016">
        <ele>1387.8</ele>
        <time>2020-08-18T12:50:42Z</time>
      </trkpt>
      <trkpt lat="44.69375" lon="4.03883">
        <ele>1386.7</ele>
        <time>2020-08-18T12:50:52Z</time>
      </trkpt>
      <trkpt lat="44.69384" lon="4.03754">
        <ele>1384.3</ele>
        <time>2020-08-18T12:51:02Z</time>
      </trkpt>
      <trkpt lat="44.69398" lon="4.03609">
        <ele>1382.6</ele>
        <time>2020-08-18T12:51:12Z</time>
      </trkpt>
      <trkpt lat="44.69444" lon="4.03467">
        <ele>1380.7</ele>
        <time>2020-08-18T12:51:22Z</time>
      </trkpt>
      <trkpt lat="44.69497" lon="4.03332">
        <ele>1379.7</ele>
        <time>2020-08-18T12:51:32Z</time>
      </trkpt>
      <trkpt lat="44.69613" lon="4.03337">
        <ele>1373.5</ele>
        <time>2020-08-18T12:51:47Z</time>
      </trkpt>
      <trkpt lat="44.69609" lon="4.03172">
        <ele>1360.5</ele>
        <time>2020-08-18T12:52:02Z</time>
      </trkpt>
      <trkpt lat="44.69617" lon="4.03046">
        <ele>1349.5</ele>
        <time>2020-08-18T12:52:12Z</time>
      </trkpt>
      <trkpt lat="44.69662" lon="4.02926">
        <ele>1355.9</ele>
        <time>2020-08-18T12:52:22Z</time>
      </trkpt>
      <trkpt lat="44.69704" lon="4.02809">
        <ele>1353.4</ele>
        <time>2020-08-18T12:52:32Z</time>
      </trkpt>
      <trkpt lat="44.69738" lon="4.02692">
        <ele>1348.9</ele>
        <time>2020-08-18T12:52:42Z</time>
      </trkpt>
      <trkpt lat="44.69792" lon="4.02545">
        <ele>1343.7</ele>
        <time>2020-08-18T12:52:57Z</time>
      </trkpt>
      <trkpt lat="44.69786" lon="4.02363">
        <ele>1339</ele>
        <time>2020-08-18T12:53:12Z</time>
      </trkpt>
      <trkpt lat="44.69755" lon="4.02233">
        <ele>1337.9</ele>
        <time>2020-08-18T12:53:22Z</time>
      </trkpt>
      <trkpt lat="44.69764" lon="4.02099">
        <ele>1337</ele>
        <time>2020-08-18T12:53:37Z</time>
      </trkpt>
      <trkpt lat="44.69662" lon="4.02136">
        <ele>1333.8</ele>
        <time>2020-08-18T12:54:52Z</time>
      </trkpt>
      <trkpt lat="44.69573" lon="4.02224">
        <ele>1333.4</ele>
        <time>2020-08-18T12:55:12Z</time>
      </trkpt>
      <trkpt lat="44.69487" lon="4.0218">
        <ele>1333.2</ele>
        <time>2020-08-18T12:56:24Z</time>
      </trkpt>
      <trkpt lat="44.69431" lon="4.02066">
        <ele>1332.3</ele>
        <time>2020-08-18T12:57:21Z</time>
      </trkpt>
      <trkpt lat="44.69353" lon="4.01979">
        <ele>1330.6</ele>
        <time>2020-08-18T12:58:06Z</time>
      </trkpt>
      <trkpt lat="44.69261" lon="4.01948">
        <ele>1330.5</ele>
        <time>2020-08-18T12:58:46Z</time>
      </trkpt>
      <trkpt lat="44.69174" lon="4.01981">
        <ele>1331</ele>
        <time>2020-08-18T12:59:16Z</time>
      </trkpt>
      <trkpt lat="44.69077" lon="4.02033">
        <ele>1331.2</ele>
        <time>2020-08-18T12:59:45Z</time>
      </trkpt>
      <trkpt lat="44.68984" lon="4.0207">
        <ele>1331.1</ele>
        <time>2020-08-18T13:00:31Z</time>
      </trkpt>
      <trkpt lat="44.68915" lon="4.02161">
        <ele>1331.1</ele>
        <time>2020-08-18T13:01:18Z</time>
      </trkpt>
      <trkpt lat="44.68889" lon="4.02286">
        <ele>1331.7</ele>
        <time>2020-08-18T13:01:53Z</time>
      </trkpt>
      <trkpt lat="44.68808" lon="4.02354">
        <ele>1334.2</ele>
        <time>2020-08-18T13:03:07Z</time>
      </trkpt>
      <trkpt lat="44.68717" lon="4.02358">
        <ele>1337.2</ele>
        <time>2020-08-18T13:04:15Z</time>
      </trkpt>
      <trkpt lat="44.6863" lon="4.02303">
        <ele>1340.9</ele>
        <time>2020-08-18T13:05:19Z</time>
      </trkpt>
      <trkpt lat="44.68555" lon="4.02221">
        <ele>1347.3</ele>
        <time>2020-08-18T13:06:28Z</time>
      </trkpt>
      <trkpt lat="44.6849" lon="4.02321">
        <ele>1358</ele>
        <time>2020-08-18T13:07:46Z</time>
      </trkpt>
      <trkpt lat="44.68406" lon="4.02367">
        <ele>1365</ele>
        <time>2020-08-18T13:08:49Z</time>
      </trkpt>
      <trkpt lat="44.68316" lon="4.02386">
        <ele>1368</ele>
        <time>2020-08-18T13:09:24Z</time>
      </trkpt>
      <trkpt lat="44.68233" lon="4.02331">
        <ele>1370.7</ele>
        <time>2020-08-18T13:09:54Z</time>
      </trkpt>
      <trkpt lat="44.6814" lon="4.02347">
        <ele>1377.2</ele>
        <time>2020-08-18T13:10:44Z</time>
      </trkpt>
      <trkpt lat="44.68054" lon="4.02397">
        <ele>1384</ele>
        <time>2020-08-18T13:11:39Z</time>
      </trkpt>
      <trkpt lat="44.67975" lon="4.02459">
        <ele>1389.9</ele>
        <time>2020-08-18T13:12:36Z</time>
      </trkpt>
      <trkpt lat="44.67888" lon="4.02512">
        <ele>1396.1</ele>
        <time>2020-08-18T13:13:49Z</time>
      </trkpt>
      <trkpt lat="44.678" lon="4.02572">
        <ele>1400.1</ele>
        <time>2020-08-18T13:14:47Z</time>
      </trkpt>
      <trkpt lat="44.67751" lon="4.02681">
        <ele>1403.6</ele>
        <time>2020-08-18T13:15:39Z</time>
      </trkpt>
      <trkpt lat="44.67661" lon="4.02705">
        <ele>1407.2</ele>
        <time>2020-08-18T13:16:48Z</time>
      </trkpt>
      <trkpt lat="44.67565" lon="4.02701">
        <ele>1411.9</ele>
        <time>2020-08-18T13:18:02Z</time>
      </trkpt>
      <trkpt lat="44.67469" lon="4.02692">
        <ele>1417.7</ele>
        <time>2020-08-18T13:19:10Z</time>
      </trkpt>
      <trkpt lat="44.67373" lon="4.02688">
        <ele>1425.1</ele>
        <time>2020-08-18T13:20:21Z</time>
      </trkpt>
      <trkpt lat="44.67275" lon="4.02663">
        <ele>1431.4</ele>
        <time>2020-08-18T13:21:16Z</time>
      </trkpt>
      <trkpt lat="44.67223" lon="4.02556">
        <ele>1452.8</ele>
        <time>2020-08-18T13:34:50Z</time>
      </trkpt>
      <trkpt lat="44.67174" lon="4.02411">
        <ele>1455.2</ele>
        <time>2020-08-18T13:35:10Z</time>
      </trkpt>
      <trkpt lat="44.67086" lon="4.02348">
        <ele>1455.3</ele>
        <time>2020-08-18T13:35:25Z</time>
      </trkpt>
      <trkpt lat="44.66992" lon="4.02388">
        <ele>1455.8</ele>
        <time>2020-08-18T13:35:55Z</time>
      </trkpt>
      <trkpt lat="44.66895" lon="4.0243">
        <ele>1454.8</ele>
        <time>2020-08-18T13:36:36Z</time>
      </trkpt>
      <trkpt lat="44.6681" lon="4.02473">
        <ele>1455.7</ele>
        <time>2020-08-18T13:37:17Z</time>
      </trkpt>
      <trkpt lat="44.66717" lon="4.02513">
        <ele>1459</ele>
        <time>2020-08-18T13:38:15Z</time>
      </trkpt>
      <trkpt lat="44.66622" lon="4.02537">
        <ele>1463.4</ele>
        <time>2020-08-18T13:38:45Z</time>
      </trkpt>
      <trkpt lat="44.66527" lon="4.02526">
        <ele>1462.1</ele>
        <time>2020-08-18T13:39:00Z</time>
      </trkpt>
      <trkpt lat="44.66411" lon="4.02539">
        <ele>1460.2</ele>
        <time>2020-08-18T13:39:15Z</time>
      </trkpt>
      <trkpt lat="44.6633" lon="4.0261">
        <ele>1458.8</ele>
        <time>2020-08-18T13:39:25Z</time>
      </trkpt>
      <trkpt lat="44.66236" lon="4.02642">
        <ele>1458</ele>
        <time>2020-08-18T13:39:35Z</time>
      </trkpt>
      <trkpt lat="44.66134" lon="4.02616">
        <ele>1456.2</ele>
        <time>2020-08-18T13:39:45Z</time>
      </trkpt>
      <trkpt lat="44.66025" lon="4.02586">
        <ele>1453.9</ele>
        <time>2020-08-18T13:39:55Z</time>
      </trkpt>
      <trkpt lat="44.65931" lon="4.02666">
        <ele>1455.7</ele>
        <time>2020-08-18T13:40:05Z</time>
      </trkpt>
      <trkpt lat="44.65886" lon="4.0279">
        <ele>1452.8</ele>
        <time>2020-08-18T13:40:20Z</time>
      </trkpt>
      <trkpt lat="44.65829" lon="4.02893">
        <ele>1449.6</ele>
        <time>2020-08-18T13:40:50Z</time>
      </trkpt>
      <trkpt lat="44.65732" lon="4.02921">
        <ele>1443.5</ele>
        <time>2020-08-18T13:41:30Z</time>
      </trkpt>
      <trkpt lat="44.65631" lon="4.02934">
        <ele>1441.1</ele>
        <time>2020-08-18T13:42:10Z</time>
      </trkpt>
      <trkpt lat="44.65536" lon="4.02947">
        <ele>1441.2</ele>
        <time>2020-08-18T13:42:45Z</time>
      </trkpt>
      <trkpt lat="44.65444" lon="4.02982">
        <ele>1441.9</ele>
        <time>2020-08-18T13:43:15Z</time>
      </trkpt>
      <trkpt lat="44.65352" lon="4.0302">
        <ele>1442.7</ele>
        <time>2020-08-18T13:43:50Z</time>
      </trkpt>
      <trkpt lat="44.65263" lon="4.0306">
        <ele>1443.3</ele>
        <time>2020-08-18T13:44:30Z</time>
      </trkpt>
      <trkpt lat="44.65191" lon="4.03138">
        <ele>1445.3</ele>
        <time>2020-08-18T13:45:25Z</time>
      </trkpt>
      <trkpt lat="44.65177" lon="4.03268">
        <ele>1448.2</ele>
        <time>2020-08-18T13:46:25Z</time>
      </trkpt>
      <trkpt lat="44.65183" lon="4.03398">
        <ele>1450.1</ele>
        <time>2020-08-18T13:47:17Z</time>
      </trkpt>
      <trkpt lat="44.6519" lon="4.03539">
        <ele>1450.8</ele>
        <time>2020-08-18T13:47:47Z</time>
      </trkpt>
      <trkpt lat="44.65194" lon="4.03668">
        <ele>1451.5</ele>
        <time>2020-08-18T13:48:17Z</time>
      </trkpt>
      <trkpt lat="44.65171" lon="4.03802">
        <ele>1452.5</ele>
        <time>2020-08-18T13:49:21Z</time>
      </trkpt>
      <trkpt lat="44.65135" lon="4.03929">
        <ele>1453.9</ele>
        <time>2020-08-18T13:50:21Z</time>
      </trkpt>
      <trkpt lat="44.6509" lon="4.04055">
        <ele>1455.2</ele>
        <time>2020-08-18T13:51:06Z</time>
      </trkpt>
      <trkpt lat="44.65045" lon="4.04166">
        <ele>1456.5</ele>
        <time>2020-08-18T13:51:46Z</time>
      </trkpt>
      <trkpt lat="44.65" lon="4.04281">
        <ele>1458.9</ele>
        <time>2020-08-18T13:54:04Z</time>
      </trkpt>
      <trkpt lat="44.6493" lon="4.04411">
        <ele>1462.6</ele>
        <time>2020-08-18T13:54:24Z</time>
      </trkpt>
      <trkpt lat="44.64832" lon="4.04482">
        <ele>1461.2</ele>
        <time>2020-08-18T13:54:34Z</time>
      </trkpt>
      <trkpt lat="44.64721" lon="4.0458">
        <ele>1459.4</ele>
        <time>2020-08-18T13:54:44Z</time>
      </trkpt>
      <trkpt lat="44.64612" lon="4.04678">
        <ele>1457</ele>
        <time>2020-08-18T13:54:54Z</time>
      </trkpt>
      <trkpt lat="44.64525" lon="4.04802">
        <ele>1453.2</ele>
        <time>2020-08-18T13:55:04Z</time>
      </trkpt>
      <trkpt lat="44.64428" lon="4.04903">
        <ele>1449.5</ele>
        <time>2020-08-18T13:55:14Z</time>
      </trkpt>
      <trkpt lat="44.64496" lon="4.04802">
        <ele>1440.5</ele>
        <time>2020-08-18T13:55:34Z</time>
      </trkpt>
      <trkpt lat="44.6453" lon="4.04661">
        <ele>1434.2</ele>
        <time>2020-08-18T13:55:44Z</time>
      </trkpt>
      <trkpt lat="44.64548" lon="4.04506">
        <ele>1428.7</ele>
        <time>2020-08-18T13:55:54Z</time>
      </trkpt>
      <trkpt lat="44.64581" lon="4.04357">
        <ele>1422</ele>
        <time>2020-08-18T13:56:04Z</time>
      </trkpt>
      <trkpt lat="44.64496" lon="4.04406">
        <ele>1416</ele>
        <time>2020-08-18T13:56:19Z</time>
      </trkpt>
      <trkpt lat="44.64443" lon="4.0455">
        <ele>1409.7</ele>
        <time>2020-08-18T13:56:29Z</time>
      </trkpt>
      <trkpt lat="44.6435" lon="4.04627">
        <ele>1398.8</ele>
        <time>2020-08-18T13:56:39Z</time>
      </trkpt>
      <trkpt lat="44.64244" lon="4.04704">
        <ele>1392.3</ele>
        <time>2020-08-18T13:56:49Z</time>
      </trkpt>
      <trkpt lat="44.6416" lon="4.04851">
        <ele>1377.4</ele>
        <time>2020-08-18T13:56:59Z</time>
      </trkpt>
      <trkpt lat="44.64084" lon="4.05006">
        <ele>1366.3</ele>
        <time>2020-08-18T13:57:09Z</time>
      </trkpt>
      <trkpt lat="44.64035" lon="4.05166">
        <ele>1355.3</ele>
        <time>2020-08-18T13:57:19Z</time>
      </trkpt>
      <trkpt lat="44.64016" lon="4.05338">
        <ele>1339.3</ele>
        <time>2020-08-18T13:57:29Z</time>
      </trkpt>
      <trkpt lat="44.63926" lon="4.05189">
        <ele>1321.7</ele>
        <time>2020-08-18T13:58:04Z</time>
      </trkpt>
      <trkpt lat="44.6386" lon="4.05075">
        <ele>1315.2</ele>
        <time>2020-08-18T13:58:19Z</time>
      </trkpt>
    </trkseg>
  </trk>
  <trk>
    <name><![CDATA[route106]]></name>
    <trkseg>
      <trkpt lat="44.93173" lon="4.01731">
        <ele>991.4</ele>
        <time>2020-08-18T04:57:14Z</time>
      </trkpt>
      <trkpt lat="44.93156" lon="4.01857">
        <ele>990.3</ele>
        <time>2020-08-18T04:57:51Z</time>
      </trkpt>
      <trkpt lat="44.93114" lon="4.01992">
        <ele>989.6</ele>
        <time>2020-08-18T04:58:21Z</time>
      </trkpt>
      <trkpt lat="44.93121" lon="4.02134">
        <ele>989.6</ele>
        <time>2020-08-18T04:58:46Z</time>
      </trkpt>
      <trkpt lat="44.93142" lon="4.02268">
        <ele>989</ele>
        <time>2020-08-18T04:59:11Z</time>
      </trkpt>
      <trkpt lat="44.93163" lon="4.024">
        <ele>988.3</ele>
        <time>2020-08-18T04:59:36Z</time>
      </trkpt>
      <trkpt lat="44.93201" lon="4.02544">
        <ele>987.3</ele>
        <time>2020-08-18T05:00:06Z</time>
      </trkpt>
      <trkpt lat="44.93195" lon="4.02674">
        <ele>986.6</ele>
        <time>2020-08-18T05:00:31Z</time>
      </trkpt>
      <trkpt lat="44.93162" lon="4.02804">
        <ele>986.3</ele>
        <time>2020-08-18T05:00:56Z</time>
      </trkpt>
      <trkpt lat="44.93129" lon="4.02926">
        <ele>986</ele>
        <time>2020-08-18T05:01:21Z</time>
      </trkpt>
      <trkpt lat="44.93093" lon="4.03052">
        <ele>985.3</ele>
        <time>2020-08-18T05:01:46Z</time>
      </trkpt>
      <trkpt lat="44.93106" lon="4.03187">
        <ele>984.6</ele>
        <time>2020-08-18T05:02:11Z</time>
      </trkpt>
      <trkpt lat="44.93118" lon="4.03326">
        <ele>983.9</ele>
        <time>2020-08-18T05:02:36Z</time>
      </trkpt>
      <trkpt lat="44.93114" lon="4.03467">
        <ele>983.2</ele>
        <time>2020-08-18T05:03:01Z</time>
      </trkpt>
      <trkpt lat="44.93098" lon="4.03606">
        <ele>982.7</ele>
        <time>2020-08-18T05:03:26Z</time>
      </trkpt>
      <trkpt lat="44.93064" lon="4.03739">
        <ele>982.1</ele>
        <time>2020-08-18T05:03:51Z</time>
      </trkpt>
      <trkpt lat="44.93005" lon="4.03844">
        <ele>981.7</ele>
        <time>2020-08-18T05:04:15Z</time>
      </trkpt>
      <trkpt lat="44.92918" lon="4.03935">
        <ele>981.6</ele>
        <time>2020-08-18T05:04:40Z</time>
      </trkpt>
      <trkpt lat="44.92833" lon="4.04011">
        <ele>981.3</ele>
        <time>2020-08-18T05:05:05Z</time>
      </trkpt>
      <trkpt lat="44.92742" lon="4.04071">
        <ele>981.5</ele>
        <time>2020-08-18T05:05:40Z</time>
      </trkpt>
      <trkpt lat="44.92671" lon="4.04146">
        <ele>982</ele>
        <time>2020-08-18T05:06:15Z</time>
      </trkpt>
      <trkpt lat="44.92585" lon="4.04183">
        <ele>982.6</ele>
        <time>2020-08-18T05:06:50Z</time>
      </trkpt>
      <trkpt lat="44.92502" lon="4.04228">
        <ele>983.4</ele>
        <time>2020-08-18T05:07:30Z</time>
      </trkpt>
      <trkpt lat="44.92447" lon="4.0433">
        <ele>984.3</ele>
        <time>2020-08-18T05:08:10Z</time>
      </trkpt>
      <trkpt lat="44.92389" lon="4.04427">
        <ele>984.8</ele>
        <time>2020-08-18T05:08:45Z</time>
      </trkpt>
      <trkpt lat="44.92336" lon="4.04543">
        <ele>985.4</ele>
        <time>2020-08-18T05:09:25Z</time>
      </trkpt>
      <trkpt lat="44.92356" lon="4.04672">
        <ele>986.1</ele>
        <time>2020-08-18T05:10:05Z</time>
      </trkpt>
      <trkpt lat="44.92408" lon="4.04785">
        <ele>986.7</ele>
        <time>2020-08-18T05:10:52Z</time>
      </trkpt>
      <trkpt lat="44.92479" lon="4.04885">
        <ele>987.8</ele>
        <time>2020-08-18T05:11:49Z</time>
      </trkpt>
      <trkpt lat="44.92548" lon="4.04988">
        <ele>989.2</ele>
        <time>2020-08-18T05:12:50Z</time>
      </trkpt>
      <trkpt lat="44.92603" lon="4.05099">
        <ele>990.9</ele>
        <time>2020-08-18T05:13:51Z</time>
      </trkpt>
      <trkpt lat="44.92595" lon="4.05227">
        <ele>992.2</ele>
        <time>2020-08-18T05:14:37Z</time>
      </trkpt>
      <trkpt lat="44.92589" lon="4.05362">
        <ele>993.3</ele>
        <time>2020-08-18T05:15:23Z</time>
      </trkpt>
      <trkpt lat="44.92569" lon="4.05494">
        <ele>994.5</ele>
        <time>2020-08-18T05:16:08Z</time>
      </trkpt>
      <trkpt lat="44.92516" lon="4.05606">
        <ele>995.9</ele>
        <time>2020-08-18T05:16:53Z</time>
      </trkpt>
      <trkpt lat="44.92466" lon="4.05725">
        <ele>997.4</ele>
        <time>2020-08-18T05:17:39Z</time>
      </trkpt>
      <trkpt lat="44.9246" lon="4.05863">
        <ele>999.1</ele>
        <time>2020-08-18T05:18:24Z</time>
      </trkpt>
      <trkpt lat="44.92467" lon="4.05999">
        <ele>1001.6</ele>
        <time>2020-08-18T05:18:49Z</time>
      </trkpt>
      <trkpt lat="44.9253" lon="4.06133">
        <ele>1002.4</ele>
        <time>2020-08-18T05:19:14Z</time>
      </trkpt>
      <trkpt lat="44.92588" lon="4.06247">
        <ele>1003.1</ele>
        <time>2020-08-18T05:19:39Z</time>
      </trkpt>
      <trkpt lat="44.92646" lon="4.06371">
        <ele>1003.6</ele>
        <time>2020-08-18T05:20:09Z</time>
      </trkpt>
      <trkpt lat="44.92667" lon="4.06497">
        <ele>1006.2</ele>
        <time>2020-08-18T05:21:06Z</time>
      </trkpt>
      <trkpt lat="44.92672" lon="4.06634">
        <ele>1010.8</ele>
        <time>2020-08-18T05:22:17Z</time>
      </trkpt>
      <trkpt lat="44.92736" lon="4.06736">
        <ele>1015.9</ele>
        <time>2020-08-18T05:23:28Z</time>
      </trkpt>
      <trkpt lat="44.92767" lon="4.06864">
        <ele>1020.6</ele>
        <time>2020-08-18T05:24:40Z</time>
      </trkpt>
      <trkpt lat="44.92801" lon="4.06988">
        <ele>1027</ele>
        <time>2020-08-18T05:25:49Z</time>
      </trkpt>
      <trkpt lat="44.92806" lon="4.07123">
        <ele>1035</ele>
        <time>2020-08-18T05:26:59Z</time>
      </trkpt>
      <trkpt lat="44.92802" lon="4.07259">
        <ele>1041.8</ele>
        <time>2020-08-18T05:28:10Z</time>
      </trkpt>
      <trkpt lat="44.92796" lon="4.07394">
        <ele>1047.5</ele>
        <time>2020-08-18T05:29:20Z</time>
      </trkpt>
      <trkpt lat="44.92831" lon="4.07524">
        <ele>1053.8</ele>
        <time>2020-08-18T05:30:30Z</time>
      </trkpt>
      <trkpt lat="44.92836" lon="4.07668">
        <ele>1060.5</ele>
        <time>2020-08-18T05:31:23Z</time>
      </trkpt>
      <trkpt lat="44.92835" lon="4.07803">
        <ele>1066</ele>
        <time>2020-08-18T05:32:08Z</time>
      </trkpt>
      <trkpt lat="44.92821" lon="4.07948">
        <ele>1071.3</ele>
        <time>2020-08-18T05:32:52Z</time>
      </trkpt>
      <trkpt lat="44.92914" lon="4.08056">
        <ele>1077.2</ele>
        <time>2020-08-18T05:33:17Z</time>
      </trkpt>
      <trkpt lat="44.92899" lon="4.08196">
        <ele>1077.7</ele>
        <time>2020-08-18T05:33:32Z</time>
      </trkpt>
      <trkpt lat="44.92804" lon="4.08215">
        <ele>1078.8</ele>
        <time>2020-08-18T05:33:57Z</time>
      </trkpt>
      <trkpt lat="44.92746" lon="4.08316">
        <ele>1080.2</ele>
        <time>2020-08-18T05:34:58Z</time>
      </trkpt>
      <trkpt lat="44.92703" lon="4.08426">
        <ele>1082.7</ele>
        <time>2020-08-18T05:35:54Z</time>
      </trkpt>
      <trkpt lat="44.92668" lon="4.08553">
        <ele>1085.5</ele>
        <time>2020-08-18T05:36:55Z</time>
      </trkpt>
      <trkpt lat="44.92685" lon="4.08685">
        <ele>1089.7</ele>
        <time>2020-08-18T05:37:52Z</time>
      </trkpt>
      <trkpt lat="44.9269" lon="4.08813">
        <ele>1093.9</ele>
        <time>2020-08-18T05:38:40Z</time>
      </trkpt>
      <trkpt lat="44.92676" lon="4.08951">
        <ele>1098.3</ele>
        <time>2020-08-18T05:39:35Z</time>
      </trkpt>
      <trkpt lat="44.92667" lon="4.0908">
        <ele>1102.5</ele>
        <time>2020-08-18T05:40:24Z</time>
      </trkpt>
      <trkpt lat="44.92668" lon="4.09217">
        <ele>1106.4</ele>
        <time>2020-08-18T05:41:22Z</time>
      </trkpt>
      <trkpt lat="44.92653" lon="4.09342">
        <ele>1109.1</ele>
        <time>2020-08-18T05:42:14Z</time>
      </trkpt>
      <trkpt lat="44.92641" lon="4.09469">
        <ele>1111.7</ele>
        <time>2020-08-18T05:43:00Z</time>
      </trkpt>
      <trkpt lat="44.92622" lon="4.09605">
        <ele>1113.5</ele>
        <time>2020-08-18T05:43:40Z</time>
      </trkpt>
      <trkpt lat="44.926" lon="4.09742">
        <ele>1116.1</ele>
        <time>2020-08-18T05:44:25Z</time>
      </trkpt>
      <trkpt lat="44.92583" lon="4.09866">
        <ele>1118.5</ele>
        <time>2020-08-18T05:45:05Z</time>
      </trkpt>
      <trkpt lat="44.92568" lon="4.09994">
        <ele>1120.5</ele>
        <time>2020-08-18T05:45:40Z</time>
      </trkpt>
      <trkpt lat="44.92564" lon="4.10135">
        <ele>1122.5</ele>
        <time>2020-08-18T05:46:15Z</time>
      </trkpt>
      <trkpt lat="44.92554" lon="4.10265">
        <ele>1126</ele>
        <time>2020-08-18T05:47:00Z</time>
      </trkpt>
      <trkpt lat="44.92497" lon="4.10377">
        <ele>1130.2</ele>
        <time>2020-08-18T05:47:45Z</time>
      </trkpt>
      <trkpt lat="44.92432" lon="4.10482">
        <ele>1133.2</ele>
        <time>2020-08-18T05:48:20Z</time>
      </trkpt>
      <trkpt lat="44.92354" lon="4.10551">
        <ele>1136.6</ele>
        <time>2020-08-18T05:49:00Z</time>
      </trkpt>
      <trkpt lat="44.92266" lon="4.10601">
        <ele>1140.3</ele>
        <time>2020-08-18T05:49:45Z</time>
      </trkpt>
      <trkpt lat="44.92173" lon="4.10644">
        <ele>1144.8</ele>
        <time>2020-08-18T05:50:44Z</time>
      </trkpt>
      <trkpt lat="44.92107" lon="4.10743">
        <ele>1147.8</ele>
        <time>2020-08-18T05:51:47Z</time>
      </trkpt>
      <trkpt lat="44.92047" lon="4.10836">
        <ele>1150.4</ele>
        <time>2020-08-18T05:52:43Z</time>
      </trkpt>
      <trkpt lat="44.91998" lon="4.10945">
        <ele>1154</ele>
        <time>2020-08-18T05:53:39Z</time>
      </trkpt>
      <trkpt lat="44.91955" lon="4.11056">
        <ele>1157.6</ele>
        <time>2020-08-18T05:54:32Z</time>
      </trkpt>
      <trkpt lat="44.91889" lon="4.11163">
        <ele>1163</ele>
        <time>2020-08-18T05:54:57Z</time>
      </trkpt>
      <trkpt lat="44.91809" lon="4.11295">
        <ele>1163.6</ele>
        <time>2020-08-18T05:55:12Z</time>
      </trkpt>
      <trkpt lat="44.91705" lon="4.11352">
        <ele>1165.4</ele>
        <time>2020-08-18T05:55:27Z</time>
      </trkpt>
      <trkpt lat="44.91622" lon="4.11399">
        <ele>1173.1</ele>
        <time>2020-08-18T05:56:14Z</time>
      </trkpt>
      <trkpt lat="44.91534" lon="4.11452">
        <ele>1184.5</ele>
        <time>2020-08-18T05:57:25Z</time>
      </trkpt>
      <trkpt lat="44.91439" lon="4.11481">
        <ele>1192.1</ele>
        <time>2020-08-18T05:58:33Z</time>
      </trkpt>
      <trkpt lat="44.91352" lon="4.11538">
        <ele>1197.7</ele>
        <time>2020-08-18T05:59:41Z</time>
      </trkpt>
      <trkpt lat="44.91293" lon="4.1163">
        <ele>1203</ele>
        <time>2020-08-18T06:00:48Z</time>
      </trkpt>
      <trkpt lat="44.9125" lon="4.11739">
        <ele>1209.3</ele>
        <time>2020-08-18T06:01:52Z</time>
      </trkpt>
      <trkpt lat="44.91224" lon="4.11861">
        <ele>1213.7</ele>
        <time>2020-08-18T06:02:43Z</time>
      </trkpt>
      <trkpt lat="44.912" lon="4.11997">
        <ele>1217.9</ele>
        <time>2020-08-18T06:03:40Z</time>
      </trkpt>
      <trkpt lat="44.91159" lon="4.1212">
        <ele>1221.9</ele>
        <time>2020-08-18T06:04:48Z</time>
      </trkpt>
      <trkpt lat="44.91109" lon="4.12239">
        <ele>1225.2</ele>
        <time>2020-08-18T06:05:53Z</time>
      </trkpt>
      <trkpt lat="44.91057" lon="4.12354">
        <ele>1229.1</ele>
        <time>2020-08-18T06:07:02Z</time>
      </trkpt>
      <trkpt lat="44.90993" lon="4.12448">
        <ele>1232.1</ele>
        <time>2020-08-18T06:07:53Z</time>
      </trkpt>
      <trkpt lat="44.90924" lon="4.12542">
        <ele>1234.7</ele>
        <time>2020-08-18T06:08:39Z</time>
      </trkpt>
      <trkpt lat="44.90869" lon="4.12655">
        <ele>1237.7</ele>
        <time>2020-08-18T06:09:25Z</time>
      </trkpt>
      <trkpt lat="44.90836" lon="4.12773">
        <ele>1240.6</ele>
        <time>2020-08-18T06:10:14Z</time>
      </trkpt>
      <trkpt lat="44.90793" lon="4.12898">
        <ele>1244.4</ele>
        <time>2020-08-18T06:11:18Z</time>
      </trkpt>
      <trkpt lat="44.90764" lon="4.13025">
        <ele>1248.6</ele>
        <time>2020-08-18T06:12:17Z</time>
      </trkpt>
      <trkpt lat="44.90757" lon="4.13165">
        <ele>1254</ele>
        <time>2020-08-18T06:13:18Z</time>
      </trkpt>
      <trkpt lat="44.90735" lon="4.13301">
        <ele>1259.8</ele>
        <time>2020-08-18T06:14:11Z</time>
      </trkpt>
      <trkpt lat="44.90748" lon="4.13436">
        <ele>1266.3</ele>
        <time>2020-08-18T06:15:08Z</time>
      </trkpt>
      <trkpt lat="44.90749" lon="4.13565">
        <ele>1271.7</ele>
        <time>2020-08-18T06:16:00Z</time>
      </trkpt>
      <trkpt lat="44.90725" lon="4.13686">
        <ele>1276.5</ele>
        <time>2020-08-18T06:16:51Z</time>
      </trkpt>
      <trkpt lat="44.90692" lon="4.13808">
        <ele>1281.1</ele>
        <time>2020-08-18T06:17:43Z</time>
      </trkpt>
      <trkpt lat="44.90667" lon="4.13937">
        <ele>1285.3</ele>
        <time>2020-08-18T06:18:33Z</time>
      </trkpt>
      <trkpt lat="44.90627" lon="4.14062">
        <ele>1290.3</ele>
        <time>2020-08-18T06:19:30Z</time>
      </trkpt>
      <trkpt lat="44.90582" lon="4.14169">
        <ele>1295.7</ele>
        <time>2020-08-18T06:20:18Z</time>
      </trkpt>
      <trkpt lat="44.90544" lon="4.14284">
        <ele>1302.1</ele>
        <time>2020-08-18T06:21:07Z</time>
      </trkpt>
      <trkpt lat="44.90505" lon="4.14397">
        <ele>1306.5</ele>
        <time>2020-08-18T06:21:42Z</time>
      </trkpt>
      <trkpt lat="44.90473" lon="4.14525">
        <ele>1315.1</ele>
        <time>2020-08-18T06:22:54Z</time>
      </trkpt>
      <trkpt lat="44.90453" lon="4.1466">
        <ele>1324</ele>
        <time>2020-08-18T06:24:01Z</time>
      </trkpt>
      <trkpt lat="44.9046" lon="4.14798">
        <ele>1331.7</ele>
        <time>2020-08-18T06:25:10Z</time>
      </trkpt>
      <trkpt lat="44.90464" lon="4.14936">
        <ele>1338.3</ele>
        <time>2020-08-18T06:26:17Z</time>
      </trkpt>
      <trkpt lat="44.90449" lon="4.15071">
        <ele>1344.6</ele>
        <time>2020-08-18T06:27:23Z</time>
      </trkpt>
      <trkpt lat="44.90434" lon="4.15209">
        <ele>1350.3</ele>
        <time>2020-08-18T06:28:26Z</time>
      </trkpt>
      <trkpt lat="44.90415" lon="4.15345">
        <ele>1356.5</ele>
        <time>2020-08-18T06:29:42Z</time>
      </trkpt>
      <trkpt lat="44.90418" lon="4.15482">
        <ele>1381.8</ele>
        <time>2020-08-18T06:38:29Z</time>
      </trkpt>
      <trkpt lat="44.90379" lon="4.15601">
        <ele>1387</ele>
        <time>2020-08-18T06:39:49Z</time>
      </trkpt>
      <trkpt lat="44.90288" lon="4.15638">
        <ele>1389.4</ele>
        <time>2020-08-18T06:41:00Z</time>
      </trkpt>
      <trkpt lat="44.90338" lon="4.15754">
        <ele>1392.1</ele>
        <time>2020-08-18T07:01:02Z</time>
      </trkpt>
      <trkpt lat="44.90387" lon="4.15879">
        <ele>1392.1</ele>
        <time>2020-08-18T07:02:16Z</time>
      </trkpt>
      <trkpt lat="44.90385" lon="4.16009">
        <ele>1392.2</ele>
        <time>2020-08-18T07:02:56Z</time>
      </trkpt>
      <trkpt lat="44.9047" lon="4.15964">
        <ele>1392.3</ele>
        <time>2020-08-18T07:03:59Z</time>
      </trkpt>
      <trkpt lat="44.90534" lon="4.16069">
        <ele>1392.7</ele>
        <time>2020-08-18T07:05:29Z</time>
      </trkpt>
      <trkpt lat="44.90531" lon="4.16206">
        <ele>1393.4</ele>
        <time>2020-08-18T07:06:31Z</time>
      </trkpt>
      <trkpt lat="44.90527" lon="4.16344">
        <ele>1394.9</ele>
        <time>2020-08-18T07:07:38Z</time>
      </trkpt>
      <trkpt lat="44.90498" lon="4.16475">
        <ele>1396.5</ele>
        <time>2020-08-18T07:08:45Z</time>
      </trkpt>
      <trkpt lat="44.90472" lon="4.16601">
        <ele>1400.8</ele>
        <time>2020-08-18T07:09:53Z</time>
      </trkpt>
      <trkpt lat="44.90442" lon="4.16732">
        <ele>1405.8</ele>
        <time>2020-08-18T07:10:50Z</time>
      </trkpt>
      <trkpt lat="44.90408" lon="4.16856">
        <ele>1414</ele>
        <time>2020-08-18T07:11:58Z</time>
      </trkpt>
      <trkpt lat="44.90377" lon="4.16986">
        <ele>1427.8</ele>
        <time>2020-08-18T07:13:16Z</time>
      </trkpt>
      <trkpt lat="44.90341" lon="4.17109">
        <ele>1439.5</ele>
        <time>2020-08-18T07:14:24Z</time>
      </trkpt>
      <trkpt lat="44.90307" lon="4.17225">
        <ele>1446</ele>
        <time>2020-08-18T07:15:20Z</time>
      </trkpt>
      <trkpt lat="44.90267" lon="4.17348">
        <ele>1451.3</ele>
        <time>2020-08-18T07:16:16Z</time>
      </trkpt>
      <trkpt lat="44.90235" lon="4.17477">
        <ele>1457</ele>
        <time>2020-08-18T07:17:22Z</time>
      </trkpt>
      <trkpt lat="44.90199" lon="4.17602">
        <ele>1461.8</ele>
        <time>2020-08-18T07:18:24Z</time>
      </trkpt>
      <trkpt lat="44.90161" lon="4.17727">
        <ele>1466.5</ele>
        <time>2020-08-18T07:19:28Z</time>
      </trkpt>
      <trkpt lat="44.90125" lon="4.17854">
        <ele>1470.8</ele>
        <time>2020-08-18T07:20:31Z</time>
      </trkpt>
      <trkpt lat="44.90082" lon="4.17977">
        <ele>1476</ele>
        <time>2020-08-18T07:21:35Z</time>
      </trkpt>
      <trkpt lat="44.9003" lon="4.18092">
        <ele>1481.5</ele>
        <time>2020-08-18T07:22:39Z</time>
      </trkpt>
      <trkpt lat="44.8998" lon="4.18197">
        <ele>1486.5</ele>
        <time>2020-08-18T07:23:40Z</time>
      </trkpt>
      <trkpt lat="44.89934" lon="4.18317">
        <ele>1491.5</ele>
        <time>2020-08-18T07:24:43Z</time>
      </trkpt>
      <trkpt lat="44.89927" lon="4.18449">
        <ele>1504.9</ele>
        <time>2020-08-18T07:25:49Z</time>
      </trkpt>
      <trkpt lat="44.89964" lon="4.18583">
        <ele>1546</ele>
        <time>2020-08-18T07:33:41Z</time>
      </trkpt>
      <trkpt lat="44.90043" lon="4.18674">
        <ele>1547.4</ele>
        <time>2020-08-18T07:34:01Z</time>
      </trkpt>
      <trkpt lat="44.89916" lon="4.18667">
        <ele>1545.4</ele>
        <time>2020-08-18T07:34:21Z</time>
      </trkpt>
      <trkpt lat="44.89808" lon="4.18681">
        <ele>1544</ele>
        <time>2020-08-18T07:34:31Z</time>
      </trkpt>
      <trkpt lat="44.89705" lon="4.18633">
        <ele>1543.3</ele>
        <time>2020-08-18T07:34:41Z</time>
      </trkpt>
      <trkpt lat="44.89588" lon="4.18624">
        <ele>1541.4</ele>
        <time>2020-08-18T07:34:51Z</time>
      </trkpt>
      <trkpt lat="44.8947" lon="4.18591">
        <ele>1538.7</ele>
        <time>2020-08-18T07:35:01Z</time>
      </trkpt>
      <trkpt lat="44.89364" lon="4.18677">
        <ele>1535</ele>
        <time>2020-08-18T07:35:11Z</time>
      </trkpt>
      <trkpt lat="44.89269" lon="4.18715">
        <ele>1531.3</ele>
        <time>2020-08-18T07:35:21Z</time>
      </trkpt>
      <trkpt lat="44.89169" lon="4.1874">
        <ele>1517.7</ele>
        <time>2020-08-18T07:35:31Z</time>
      </trkpt>
      <trkpt lat="44.89092" lon="4.18858">
        <ele>1504.8</ele>
        <time>2020-08-18T07:35:41Z</time>
      </trkpt>
      <trkpt lat="44.89105" lon="4.1901">
        <ele>1500.4</ele>
        <time>2020-08-18T07:35:51Z</time>
      </trkpt>
      <trkpt lat="44.89149" lon="4.1916">
        <ele>1497.8</ele>
        <time>2020-08-18T07:36:01Z</time>
      </trkpt>
      <trkpt lat="44.8918" lon="4.19319">
        <ele>1493.8</ele>
        <time>2020-08-18T07:36:11Z</time>
      </trkpt>
      <trkpt lat="44.89209" lon="4.19446">
        <ele>1481.1</ele>
        <time>2020-08-18T07:36:21Z</time>
      </trkpt>
      <trkpt lat="44.89171" lon="4.19574">
        <ele>1471.1</ele>
        <time>2020-08-18T07:36:31Z</time>
      </trkpt>
      <trkpt lat="44.89111" lon="4.1969">
        <ele>1468.1</ele>
        <time>2020-08-18T07:36:41Z</time>
      </trkpt>
      <trkpt lat="44.8904" lon="4.19781">
        <ele>1466.4</ele>
        <time>2020-08-18T07:36:51Z</time>
      </trkpt>
      <trkpt lat="44.89012" lon="4.19923">
        <ele>1465.5</ele>
        <time>2020-08-18T07:37:01Z</time>
      </trkpt>
      <trkpt lat="44.89035" lon="4.20075">
        <ele>1448.7</ele>
        <time>2020-08-18T07:37:11Z</time>
      </trkpt>
      <trkpt lat="44.88978" lon="4.20235">
        <ele>1432.9</ele>
        <time>2020-08-18T07:37:26Z</time>
      </trkpt>
      <trkpt lat="44.8891" lon="4.20327">
        <ele>1426.8</ele>
        <time>2020-08-18T07:37:36Z</time>
      </trkpt>
      <trkpt lat="44.8883" lon="4.20454">
        <ele>1415.3</ele>
        <time>2020-08-18T07:37:46Z</time>
      </trkpt>
      <trkpt lat="44.88738" lon="4.20572">
        <ele>1397.3</ele>
        <time>2020-08-18T07:38:01Z</time>
      </trkpt>
      <trkpt lat="44.8864" lon="4.20628">
        <ele>1381.4</ele>
        <time>2020-08-18T07:38:16Z</time>
      </trkpt>
      <trkpt lat="44.88531" lon="4.20544">
        <ele>1367.6</ele>
        <time>2020-08-18T07:38:31Z</time>
      </trkpt>
      <trkpt lat="44.88421" lon="4.20609">
        <ele>1358.1</ele>
        <time>2020-08-18T07:38:46Z</time>
      </trkpt>
      <trkpt lat="44.88412" lon="4.2047">
        <ele>1350.7</ele>
        <time>2020-08-18T07:39:22Z</time>
      </trkpt>
      <trkpt lat="44.88374" lon="4.20347">
        <ele>1346.2</ele>
        <time>2020-08-18T07:40:24Z</time>
      </trkpt>
      <trkpt lat="44.88368" lon="4.20211">
        <ele>1344.8</ele>
        <time>2020-08-18T07:41:27Z</time>
      </trkpt>
      <trkpt lat="44.88418" lon="4.20096">
        <ele>1345.2</ele>
        <time>2020-08-18T07:42:14Z</time>
      </trkpt>
      <trkpt lat="44.88474" lon="4.19998">
        <ele>1347.3</ele>
        <time>2020-08-18T07:43:08Z</time>
      </trkpt>
      <trkpt lat="44.88421" lon="4.1989">
        <ele>1349.4</ele>
        <time>2020-08-18T07:44:09Z</time>
      </trkpt>
      <trkpt lat="44.88383" lon="4.19763">
        <ele>1351.2</ele>
        <time>2020-08-18T07:45:33Z</time>
      </trkpt>
      <trkpt lat="44.88378" lon="4.19617">
        <ele>1353.2</ele>
        <time>2020-08-18T07:46:28Z</time>
      </trkpt>
      <trkpt lat="44.88315" lon="4.19517">
        <ele>1354.6</ele>
        <time>2020-08-18T07:47:10Z</time>
      </trkpt>
      <trkpt lat="44.88287" lon="4.19382">
        <ele>1356.9</ele>
        <time>2020-08-18T07:48:10Z</time>
      </trkpt>
      <trkpt lat="44.88266" lon="4.19245">
        <ele>1358.9</ele>
        <time>2020-08-18T07:49:01Z</time>
      </trkpt>
      <trkpt lat="44.8827" lon="4.19118">
        <ele>1360.8</ele>
        <time>2020-08-18T07:49:44Z</time>
      </trkpt>
      <trkpt lat="44.88183" lon="4.19048">
        <ele>1362.5</ele>
        <time>2020-08-18T07:50:23Z</time>
      </trkpt>
      <trkpt lat="44.8814" lon="4.18922">
        <ele>1364.4</ele>
        <time>2020-08-18T07:51:05Z</time>
      </trkpt>
      <trkpt lat="44.88157" lon="4.18788">
        <ele>1366</ele>
        <time>2020-08-18T07:51:41Z</time>
      </trkpt>
      <trkpt lat="44.88101" lon="4.18684">
        <ele>1370.7</ele>
        <time>2020-08-18T07:53:05Z</time>
      </trkpt>
      <trkpt lat="44.88038" lon="4.18588">
        <ele>1379.8</ele>
        <time>2020-08-18T07:53:35Z</time>
      </trkpt>
      <trkpt lat="44.88053" lon="4.18444">
        <ele>1382.3</ele>
        <time>2020-08-18T07:54:10Z</time>
      </trkpt>
      <trkpt lat="44.87952" lon="4.18397">
        <ele>1386.4</ele>
        <time>2020-08-18T07:54:40Z</time>
      </trkpt>
      <trkpt lat="44.87875" lon="4.18463">
        <ele>1392.2</ele>
        <time>2020-08-18T07:55:22Z</time>
      </trkpt>
      <trkpt lat="44.87813" lon="4.18553">
        <ele>1400.4</ele>
        <time>2020-08-18T07:56:31Z</time>
      </trkpt>
      <trkpt lat="44.87787" lon="4.18422">
        <ele>1410.8</ele>
        <time>2020-08-18T07:58:21Z</time>
      </trkpt>
      <trkpt lat="44.87722" lon="4.18297">
        <ele>1416</ele>
        <time>2020-08-18T07:58:52Z</time>
      </trkpt>
      <trkpt lat="44.87663" lon="4.1819">
        <ele>1416.5</ele>
        <time>2020-08-18T07:59:12Z</time>
      </trkpt>
      <trkpt lat="44.87555" lon="4.18075">
        <ele>1416.3</ele>
        <time>2020-08-18T07:59:32Z</time>
      </trkpt>
      <trkpt lat="44.8747" lon="4.17988">
        <ele>1415.9</ele>
        <time>2020-08-18T07:59:42Z</time>
      </trkpt>
      <trkpt lat="44.87381" lon="4.17932">
        <ele>1415.9</ele>
        <time>2020-08-18T07:59:57Z</time>
      </trkpt>
      <trkpt lat="44.87463" lon="4.18046">
        <ele>1412.4</ele>
        <time>2020-08-18T08:00:22Z</time>
      </trkpt>
      <trkpt lat="44.87398" lon="4.18142">
        <ele>1414.6</ele>
        <time>2020-08-18T08:00:52Z</time>
      </trkpt>
      <trkpt lat="44.87326" lon="4.18214">
        <ele>1412.2</ele>
        <time>2020-08-18T08:01:46Z</time>
      </trkpt>
      <trkpt lat="44.87292" lon="4.18339">
        <ele>1414.7</ele>
        <time>2020-08-18T08:02:46Z</time>
      </trkpt>
      <trkpt lat="44.87224" lon="4.18432">
        <ele>1421.7</ele>
        <time>2020-08-18T08:04:02Z</time>
      </trkpt>
      <trkpt lat="44.87138" lon="4.18365">
        <ele>1428.8</ele>
        <time>2020-08-18T08:05:14Z</time>
      </trkpt>
      <trkpt lat="44.87063" lon="4.18282">
        <ele>1432.3</ele>
        <time>2020-08-18T08:06:15Z</time>
      </trkpt>
      <trkpt lat="44.87111" lon="4.18398">
        <ele>1438.6</ele>
        <time>2020-08-18T08:13:18Z</time>
      </trkpt>
      <trkpt lat="44.8715" lon="4.18524">
        <ele>1439.5</ele>
        <time>2020-08-18T08:14:13Z</time>
      </trkpt>
      <trkpt lat="44.8723" lon="4.18588">
        <ele>1440.8</ele>
        <time>2020-08-18T08:15:07Z</time>
      </trkpt>
      <trkpt lat="44.87329" lon="4.18594">
        <ele>1442.7</ele>
        <time>2020-08-18T08:16:02Z</time>
      </trkpt>
      <trkpt lat="44.87421" lon="4.1861">
        <ele>1444.5</ele>
        <time>2020-08-18T08:16:44Z</time>
      </trkpt>
      <trkpt lat="44.87519" lon="4.18683">
        <ele>1448.6</ele>
        <time>2020-08-18T08:17:14Z</time>
      </trkpt>
      <trkpt lat="44.87536" lon="4.18845">
        <ele>1449.6</ele>
        <time>2020-08-18T08:17:33Z</time>
      </trkpt>
      <trkpt lat="44.87472" lon="4.1897">
        <ele>1449</ele>
        <time>2020-08-18T08:17:48Z</time>
      </trkpt>
      <trkpt lat="44.87403" lon="4.19102">
        <ele>1450</ele>
        <time>2020-08-18T08:18:03Z</time>
      </trkpt>
      <trkpt lat="44.87377" lon="4.19269">
        <ele>1449.9</ele>
        <time>2020-08-18T08:18:18Z</time>
      </trkpt>
      <trkpt lat="44.87361" lon="4.19438">
        <ele>1449.8</ele>
        <time>2020-08-18T08:18:33Z</time>
      </trkpt>
      <trkpt lat="44.87349" lon="4.19587">
        <ele>1450.5</ele>
        <time>2020-08-18T08:18:48Z</time>
      </trkpt>
      <trkpt lat="44.87246" lon="4.19527">
        <ele>1448.6</ele>
        <time>2020-08-18T08:19:03Z</time>
      </trkpt>
      <trkpt lat="44.87153" lon="4.195">
        <ele>1448.4</ele>
        <time>2020-08-18T08:19:18Z</time>
      </trkpt>
      <trkpt lat="44.87061" lon="4.19515">
        <ele>1446.2</ele>
        <time>2020-08-18T08:19:38Z</time>
      </trkpt>
      <trkpt lat="44.86963" lon="4.1949">
        <ele>1447</ele>
        <time>2020-08-18T08:20:08Z</time>
      </trkpt>
      <trkpt lat="44.86875" lon="4.19448">
        <ele>1445.1</ele>
        <time>2020-08-18T08:20:43Z</time>
      </trkpt>
      <trkpt lat="44.86791" lon="4.19372">
        <ele>1443.7</ele>
        <time>2020-08-18T08:21:24Z</time>
      </trkpt>
      <trkpt lat="44.86685" lon="4.19382">
        <ele>1442.1</ele>
        <time>2020-08-18T08:21:49Z</time>
      </trkpt>
      <trkpt lat="44.86595" lon="4.19466">
        <ele>1442</ele>
        <time>2020-08-18T08:22:14Z</time>
      </trkpt>
      <trkpt lat="44.86518" lon="4.1954">
        <ele>1442.5</ele>
        <time>2020-08-18T08:22:29Z</time>
      </trkpt>
      <trkpt lat="44.86438" lon="4.19604">
        <ele>1442.8</ele>
        <time>2020-08-18T08:22:44Z</time>
      </trkpt>
      <trkpt lat="44.86356" lon="4.19659">
        <ele>1442.8</ele>
        <time>2020-08-18T08:22:59Z</time>
      </trkpt>
      <trkpt lat="44.86243" lon="4.19712">
        <ele>1443</ele>
        <time>2020-08-18T08:23:19Z</time>
      </trkpt>
      <trkpt lat="44.8615" lon="4.19747">
        <ele>1442.5</ele>
        <time>2020-08-18T08:23:34Z</time>
      </trkpt>
      <trkpt lat="44.86034" lon="4.19735">
        <ele>1441.3</ele>
        <time>2020-08-18T08:23:54Z</time>
      </trkpt>
      <trkpt lat="44.8593" lon="4.19784">
        <ele>1440.6</ele>
        <time>2020-08-18T08:24:14Z</time>
      </trkpt>
      <trkpt lat="44.85859" lon="4.19924">
        <ele>1437.7</ele>
        <time>2020-08-18T08:24:29Z</time>
      </trkpt>
      <trkpt lat="44.85731" lon="4.19904">
        <ele>1435.3</ele>
        <time>2020-08-18T08:24:44Z</time>
      </trkpt>
      <trkpt lat="44.85607" lon="4.19913">
        <ele>1431.8</ele>
        <time>2020-08-18T08:24:59Z</time>
      </trkpt>
      <trkpt lat="44.85539" lon="4.20007">
        <ele>1428.2</ele>
        <time>2020-08-18T08:25:09Z</time>
      </trkpt>
      <trkpt lat="44.85498" lon="4.20121">
        <ele>1425.1</ele>
        <time>2020-08-18T08:25:19Z</time>
      </trkpt>
      <trkpt lat="44.85487" lon="4.20247">
        <ele>1423.8</ele>
        <time>2020-08-18T08:25:29Z</time>
      </trkpt>
      <trkpt lat="44.85466" lon="4.20428">
        <ele>1420.9</ele>
        <time>2020-08-18T08:25:44Z</time>
      </trkpt>
      <trkpt lat="44.85394" lon="4.20544">
        <ele>1416.1</ele>
        <time>2020-08-18T08:25:59Z</time>
      </trkpt>
      <trkpt lat="44.85301" lon="4.2054">
        <ele>1413.5</ele>
        <time>2020-08-18T08:26:14Z</time>
      </trkpt>
      <trkpt lat="44.85193" lon="4.20505">
        <ele>1409.5</ele>
        <time>2020-08-18T08:26:29Z</time>
      </trkpt>
      <trkpt lat="44.851" lon="4.20455">
        <ele>1408.4</ele>
        <time>2020-08-18T08:26:54Z</time>
      </trkpt>
      <trkpt lat="44.85022" lon="4.20374">
        <ele>1410.5</ele>
        <time>2020-08-18T08:28:00Z</time>
      </trkpt>
      <trkpt lat="44.84926" lon="4.20373">
        <ele>1413</ele>
        <time>2020-08-18T08:29:01Z</time>
      </trkpt>
      <trkpt lat="44.84829" lon="4.20389">
        <ele>1417.1</ele>
        <time>2020-08-18T08:30:03Z</time>
      </trkpt>
      <trkpt lat="44.84763" lon="4.20483">
        <ele>1418.3</ele>
        <time>2020-08-18T08:31:04Z</time>
      </trkpt>
      <trkpt lat="44.84829" lon="4.20613">
        <ele>1422.3</ele>
        <time>2020-08-18T08:31:45Z</time>
      </trkpt>
      <trkpt lat="44.84796" lon="4.20742">
        <ele>1424.2</ele>
        <time>2020-08-18T08:32:20Z</time>
      </trkpt>
      <trkpt lat="44.84748" lon="4.20855">
        <ele>1426.7</ele>
        <time>2020-08-18T08:33:09Z</time>
      </trkpt>
      <trkpt lat="44.8473" lon="4.20993">
        <ele>1429.1</ele>
        <time>2020-08-18T08:33:59Z</time>
      </trkpt>
      <trkpt lat="44.84676" lon="4.21097">
        <ele>1431.8</ele>
        <time>2020-08-18T08:34:45Z</time>
      </trkpt>
      <trkpt lat="44.84588" lon="4.21158">
        <ele>1434.8</ele>
        <time>2020-08-18T08:35:35Z</time>
      </trkpt>
      <trkpt lat="44.84502" lon="4.21201">
        <ele>1437.4</ele>
        <time>2020-08-18T08:36:21Z</time>
      </trkpt>
      <trkpt lat="44.84423" lon="4.21281">
        <ele>1439.6</ele>
        <time>2020-08-18T08:37:13Z</time>
      </trkpt>
      <trkpt lat="44.84396" lon="4.21404">
        <ele>1440.9</ele>
        <time>2020-08-18T08:37:43Z</time>
      </trkpt>
      <trkpt lat="44.8436" lon="4.21518">
        <ele>1442.1</ele>
        <time>2020-08-18T08:38:08Z</time>
      </trkpt>
      <trkpt lat="44.84311" lon="4.21625">
        <ele>1445.3</ele>
        <time>2020-08-18T08:38:28Z</time>
      </trkpt>
      <trkpt lat="44.8423" lon="4.2171">
        <ele>1446.5</ele>
        <time>2020-08-18T08:38:53Z</time>
      </trkpt>
      <trkpt lat="44.84182" lon="4.21849">
        <ele>1447.8</ele>
        <time>2020-08-18T08:39:18Z</time>
      </trkpt>
      <trkpt lat="44.84162" lon="4.21996">
        <ele>1448.8</ele>
        <time>2020-08-18T08:39:43Z</time>
      </trkpt>
      <trkpt lat="44.84132" lon="4.22135">
        <ele>1449.1</ele>
        <time>2020-08-18T08:40:08Z</time>
      </trkpt>
      <trkpt lat="44.8409" lon="4.22016">
        <ele>1449.6</ele>
        <time>2020-08-18T08:40:53Z</time>
      </trkpt>
      <trkpt lat="44.8406" lon="4.2188">
        <ele>1449.2</ele>
        <time>2020-08-18T08:41:03Z</time>
      </trkpt>
      <trkpt lat="44.84063" lon="4.21723">
        <ele>1447.8</ele>
        <time>2020-08-18T08:41:13Z</time>
      </trkpt>
      <trkpt lat="44.84068" lon="4.21567">
        <ele>1444.4</ele>
        <time>2020-08-18T08:41:23Z</time>
      </trkpt>
      <trkpt lat="44.84051" lon="4.21433">
        <ele>1437.2</ele>
        <time>2020-08-18T08:41:33Z</time>
      </trkpt>
      <trkpt lat="44.8406" lon="4.21246">
        <ele>1435.4</ele>
        <time>2020-08-18T08:41:43Z</time>
      </trkpt>
      <trkpt lat="44.84061" lon="4.21084">
        <ele>1430.9</ele>
        <time>2020-08-18T08:41:53Z</time>
      </trkpt>
      <trkpt lat="44.83983" lon="4.20975">
        <ele>1424.8</ele>
        <time>2020-08-18T08:42:03Z</time>
      </trkpt>
      <trkpt lat="44.83873" lon="4.2092">
        <ele>1419.6</ele>
        <time>2020-08-18T08:42:13Z</time>
      </trkpt>
      <trkpt lat="44.83759" lon="4.2087">
        <ele>1415.9</ele>
        <time>2020-08-18T08:42:23Z</time>
      </trkpt>
      <trkpt lat="44.83705" lon="4.2075">
        <ele>1405.5</ele>
        <time>2020-08-18T08:42:33Z</time>
      </trkpt>
      <trkpt lat="44.83703" lon="4.20581">
        <ele>1394.8</ele>
        <time>2020-08-18T08:42:43Z</time>
      </trkpt>
      <trkpt lat="44.8366" lon="4.20427">
        <ele>1389.8</ele>
        <time>2020-08-18T08:42:53Z</time>
      </trkpt>
      <trkpt lat="44.83619" lon="4.20304">
        <ele>1376.6</ele>
        <time>2020-08-18T08:43:24Z</time>
      </trkpt>
      <trkpt lat="44.83633" lon="4.2017">
        <ele>1364</ele>
        <time>2020-08-18T08:43:39Z</time>
      </trkpt>
      <trkpt lat="44.83635" lon="4.20039">
        <ele>1355.4</ele>
        <time>2020-08-18T08:43:49Z</time>
      </trkpt>
      <trkpt lat="44.83539" lon="4.19992">
        <ele>1349</ele>
        <time>2020-08-18T08:43:59Z</time>
      </trkpt>
      <trkpt lat="44.83428" lon="4.19964">
        <ele>1337.3</ele>
        <time>2020-08-18T08:44:08Z</time>
      </trkpt>
      <trkpt lat="44.83312" lon="4.19931">
        <ele>1328.2</ele>
        <time>2020-08-18T08:44:18Z</time>
      </trkpt>
      <trkpt lat="44.83197" lon="4.19911">
        <ele>1317.4</ele>
        <time>2020-08-18T08:44:28Z</time>
      </trkpt>
      <trkpt lat="44.83155" lon="4.19755">
        <ele>1311.5</ele>
        <time>2020-08-18T08:44:43Z</time>
      </trkpt>
      <trkpt lat="44.83063" lon="4.19712">
        <ele>1308.5</ele>
        <time>2020-08-18T08:44:58Z</time>
      </trkpt>
      <trkpt lat="44.82967" lon="4.19661">
        <ele>1306.2</ele>
        <time>2020-08-18T08:45:13Z</time>
      </trkpt>
      <trkpt lat="44.82901" lon="4.19558">
        <ele>1304.1</ele>
        <time>2020-08-18T08:45:28Z</time>
      </trkpt>
      <trkpt lat="44.8284" lon="4.19437">
        <ele>1297.4</ele>
        <time>2020-08-18T08:45:48Z</time>
      </trkpt>
      <trkpt lat="44.82746" lon="4.1942">
        <ele>1298.2</ele>
        <time>2020-08-18T08:46:08Z</time>
      </trkpt>
      <trkpt lat="44.82657" lon="4.1946">
        <ele>1293.2</ele>
        <time>2020-08-18T08:46:23Z</time>
      </trkpt>
      <trkpt lat="44.82551" lon="4.1948">
        <ele>1286.3</ele>
        <time>2020-08-18T08:46:38Z</time>
      </trkpt>
      <trkpt lat="44.82461" lon="4.19449">
        <ele>1283.5</ele>
        <time>2020-08-18T08:46:53Z</time>
      </trkpt>
      <trkpt lat="44.8237" lon="4.19404">
        <ele>1285.5</ele>
        <time>2020-08-18T08:47:13Z</time>
      </trkpt>
      <trkpt lat="44.82279" lon="4.19386">
        <ele>1286.5</ele>
        <time>2020-08-18T08:47:43Z</time>
      </trkpt>
      <trkpt lat="44.82182" lon="4.19365">
        <ele>1286.8</ele>
        <time>2020-08-18T08:48:24Z</time>
      </trkpt>
      <trkpt lat="44.82089" lon="4.19349">
        <ele>1288</ele>
        <time>2020-08-18T08:49:12Z</time>
      </trkpt>
      <trkpt lat="44.81993" lon="4.19335">
        <ele>1290.1</ele>
        <time>2020-08-18T08:50:04Z</time>
      </trkpt>
      <trkpt lat="44.81896" lon="4.19334">
        <ele>1302.9</ele>
        <time>2020-08-18T08:51:45Z</time>
      </trkpt>
      <trkpt lat="44.81805" lon="4.19359">
        <ele>1305.7</ele>
        <time>2020-08-18T08:59:24Z</time>
      </trkpt>
      <trkpt lat="44.81698" lon="4.19348">
        <ele>1304.8</ele>
        <time>2020-08-18T08:59:44Z</time>
      </trkpt>
      <trkpt lat="44.81598" lon="4.19328">
        <ele>1304.5</ele>
        <time>2020-08-18T09:00:04Z</time>
      </trkpt>
      <trkpt lat="44.81508" lon="4.19291">
        <ele>1304.5</ele>
        <time>2020-08-18T09:00:24Z</time>
      </trkpt>
      <trkpt lat="44.81464" lon="4.19134">
        <ele>1303.5</ele>
        <time>2020-08-18T09:00:44Z</time>
      </trkpt>
      <trkpt lat="44.81369" lon="4.19063">
        <ele>1302.1</ele>
        <time>2020-08-18T09:00:59Z</time>
      </trkpt>
      <trkpt lat="44.81272" lon="4.1903">
        <ele>1300.8</ele>
        <time>2020-08-18T09:01:24Z</time>
      </trkpt>
      <trkpt lat="44.81174" lon="4.18986">
        <ele>1295.1</ele>
        <time>2020-08-18T09:01:44Z</time>
      </trkpt>
      <trkpt lat="44.81076" lon="4.1898">
        <ele>1292.4</ele>
        <time>2020-08-18T09:02:04Z</time>
      </trkpt>
      <trkpt lat="44.80975" lon="4.18988">
        <ele>1291.2</ele>
        <time>2020-08-18T09:02:24Z</time>
      </trkpt>
      <trkpt lat="44.80876" lon="4.18943">
        <ele>1288.2</ele>
        <time>2020-08-18T09:02:44Z</time>
      </trkpt>
      <trkpt lat="44.80912" lon="4.18789">
        <ele>1282.3</ele>
        <time>2020-08-18T09:02:59Z</time>
      </trkpt>
      <trkpt lat="44.80819" lon="4.1883">
        <ele>1277.8</ele>
        <time>2020-08-18T09:03:14Z</time>
      </trkpt>
      <trkpt lat="44.80706" lon="4.18832">
        <ele>1273</ele>
        <time>2020-08-18T09:03:24Z</time>
      </trkpt>
      <trkpt lat="44.80609" lon="4.18769">
        <ele>1273.1</ele>
        <time>2020-08-18T09:03:34Z</time>
      </trkpt>
      <trkpt lat="44.80512" lon="4.18712">
        <ele>1270.7</ele>
        <time>2020-08-18T09:03:44Z</time>
      </trkpt>
      <trkpt lat="44.80419" lon="4.18653">
        <ele>1267.7</ele>
        <time>2020-08-18T09:03:54Z</time>
      </trkpt>
      <trkpt lat="44.80325" lon="4.18566">
        <ele>1256.8</ele>
        <time>2020-08-18T09:04:09Z</time>
      </trkpt>
      <trkpt lat="44.80262" lon="4.1844">
        <ele>1250.4</ele>
        <time>2020-08-18T09:04:24Z</time>
      </trkpt>
      <trkpt lat="44.80166" lon="4.18395">
        <ele>1249.8</ele>
        <time>2020-08-18T09:04:39Z</time>
      </trkpt>
      <trkpt lat="44.80051" lon="4.18411">
        <ele>1245.8</ele>
        <time>2020-08-18T09:04:54Z</time>
      </trkpt>
      <trkpt lat="44.79931" lon="4.18429">
        <ele>1242.3</ele>
        <time>2020-08-18T09:05:09Z</time>
      </trkpt>
      <trkpt lat="44.79824" lon="4.18457">
        <ele>1239.3</ele>
        <time>2020-08-18T09:05:24Z</time>
      </trkpt>
      <trkpt lat="44.79726" lon="4.18493">
        <ele>1237.6</ele>
        <time>2020-08-18T09:05:39Z</time>
      </trkpt>
      <trkpt lat="44.79629" lon="4.18469">
        <ele>1236.2</ele>
        <time>2020-08-18T09:05:54Z</time>
      </trkpt>
      <trkpt lat="44.79529" lon="4.1847">
        <ele>1234.2</ele>
        <time>2020-08-18T09:06:09Z</time>
      </trkpt>
      <trkpt lat="44.79427" lon="4.18476">
        <ele>1230.1</ele>
        <time>2020-08-18T09:06:24Z</time>
      </trkpt>
      <trkpt lat="44.7934" lon="4.18424">
        <ele>1226.5</ele>
        <time>2020-08-18T09:06:39Z</time>
      </trkpt>
      <trkpt lat="44.79259" lon="4.18362">
        <ele>1223.8</ele>
        <time>2020-08-18T09:06:54Z</time>
      </trkpt>
      <trkpt lat="44.79151" lon="4.18319">
        <ele>1220.6</ele>
        <time>2020-08-18T09:07:14Z</time>
      </trkpt>
      <trkpt lat="44.7905" lon="4.18402">
        <ele>1218.6</ele>
        <time>2020-08-18T09:07:34Z</time>
      </trkpt>
      <trkpt lat="44.78977" lon="4.18523">
        <ele>1216</ele>
        <time>2020-08-18T09:07:49Z</time>
      </trkpt>
      <trkpt lat="44.78878" lon="4.18563">
        <ele>1215.2</ele>
        <time>2020-08-18T09:08:04Z</time>
      </trkpt>
      <trkpt lat="44.78774" lon="4.18502">
        <ele>1214.1</ele>
        <time>2020-08-18T09:08:24Z</time>
      </trkpt>
      <trkpt lat="44.7868" lon="4.18448">
        <ele>1211.9</ele>
        <time>2020-08-18T09:08:44Z</time>
      </trkpt>
      <trkpt lat="44.78595" lon="4.18488">
        <ele>1210.8</ele>
        <time>2020-08-18T09:08:59Z</time>
      </trkpt>
      <trkpt lat="44.78513" lon="4.1855">
        <ele>1210.3</ele>
        <time>2020-08-18T09:09:14Z</time>
      </trkpt>
      <trkpt lat="44.7843" lon="4.18614">
        <ele>1209</ele>
        <time>2020-08-18T09:09:29Z</time>
      </trkpt>
      <trkpt lat="44.78311" lon="4.18595">
        <ele>1207.6</ele>
        <time>2020-08-18T09:09:49Z</time>
      </trkpt>
      <trkpt lat="44.78217" lon="4.18571">
        <ele>1206.2</ele>
        <time>2020-08-18T09:10:03Z</time>
      </trkpt>
      <trkpt lat="44.78141" lon="4.18469">
        <ele>1205.2</ele>
        <time>2020-08-18T09:10:18Z</time>
      </trkpt>
      <trkpt lat="44.78069" lon="4.18362">
        <ele>1204.9</ele>
        <time>2020-08-18T09:10:33Z</time>
      </trkpt>
      <trkpt lat="44.78" lon="4.18258">
        <ele>1203.7</ele>
        <time>2020-08-18T09:10:48Z</time>
      </trkpt>
      <trkpt lat="44.77917" lon="4.18131">
        <ele>1203.3</ele>
        <time>2020-08-18T09:11:08Z</time>
      </trkpt>
      <trkpt lat="44.77866" lon="4.18004">
        <ele>1202.7</ele>
        <time>2020-08-18T09:11:28Z</time>
      </trkpt>
      <trkpt lat="44.77861" lon="4.17867">
        <ele>1201.8</ele>
        <time>2020-08-18T09:11:48Z</time>
      </trkpt>
      <trkpt lat="44.77895" lon="4.17749">
        <ele>1200.6</ele>
        <time>2020-08-18T09:12:08Z</time>
      </trkpt>
      <trkpt lat="44.77951" lon="4.17636">
        <ele>1200.1</ele>
        <time>2020-08-18T09:12:33Z</time>
      </trkpt>
      <trkpt lat="44.77854" lon="4.17577">
        <ele>1196.6</ele>
        <time>2020-08-18T09:12:53Z</time>
      </trkpt>
      <trkpt lat="44.77764" lon="4.1757">
        <ele>1195.3</ele>
        <time>2020-08-18T09:13:08Z</time>
      </trkpt>
      <trkpt lat="44.77655" lon="4.17548">
        <ele>1195.9</ele>
        <time>2020-08-18T09:13:28Z</time>
      </trkpt>
      <trkpt lat="44.77634" lon="4.17411">
        <ele>1195.2</ele>
        <time>2020-08-18T09:13:53Z</time>
      </trkpt>
      <trkpt lat="44.77597" lon="4.17279">
        <ele>1198.5</ele>
        <time>2020-08-18T09:14:59Z</time>
      </trkpt>
      <trkpt lat="44.775" lon="4.17241">
        <ele>1202.8</ele>
        <time>2020-08-18T09:15:36Z</time>
      </trkpt>
      <trkpt lat="44.77403" lon="4.17197">
        <ele>1204.4</ele>
        <time>2020-08-18T09:16:01Z</time>
      </trkpt>
      <trkpt lat="44.77313" lon="4.1717">
        <ele>1205</ele>
        <time>2020-08-18T09:16:26Z</time>
      </trkpt>
      <trkpt lat="44.77295" lon="4.17007">
        <ele>1202.8</ele>
        <time>2020-08-18T09:16:51Z</time>
      </trkpt>
      <trkpt lat="44.77235" lon="4.16876">
        <ele>1201.8</ele>
        <time>2020-08-18T09:17:06Z</time>
      </trkpt>
      <trkpt lat="44.77164" lon="4.16781">
        <ele>1200.2</ele>
        <time>2020-08-18T09:17:21Z</time>
      </trkpt>
      <trkpt lat="44.77058" lon="4.16774">
        <ele>1196.9</ele>
        <time>2020-08-18T09:17:41Z</time>
      </trkpt>
      <trkpt lat="44.76972" lon="4.1687">
        <ele>1192.8</ele>
        <time>2020-08-18T09:18:11Z</time>
      </trkpt>
      <trkpt lat="44.76882" lon="4.16799">
        <ele>1190.5</ele>
        <time>2020-08-18T09:18:26Z</time>
      </trkpt>
      <trkpt lat="44.76853" lon="4.1664">
        <ele>1185.5</ele>
        <time>2020-08-18T09:18:46Z</time>
      </trkpt>
      <trkpt lat="44.76789" lon="4.16539">
        <ele>1183.4</ele>
        <time>2020-08-18T09:19:01Z</time>
      </trkpt>
      <trkpt lat="44.76699" lon="4.16449">
        <ele>1181.8</ele>
        <time>2020-08-18T09:19:21Z</time>
      </trkpt>
      <trkpt lat="44.76634" lon="4.16339">
        <ele>1179.1</ele>
        <time>2020-08-18T09:19:41Z</time>
      </trkpt>
      <trkpt lat="44.76538" lon="4.16266">
        <ele>1176.6</ele>
        <time>2020-08-18T09:20:01Z</time>
      </trkpt>
      <trkpt lat="44.76439" lon="4.16228">
        <ele>1178</ele>
        <time>2020-08-18T09:20:21Z</time>
      </trkpt>
      <trkpt lat="44.76338" lon="4.16231">
        <ele>1177.6</ele>
        <time>2020-08-18T09:20:41Z</time>
      </trkpt>
      <trkpt lat="44.76249" lon="4.16251">
        <ele>1177.8</ele>
        <time>2020-08-18T09:21:01Z</time>
      </trkpt>
      <trkpt lat="44.7617" lon="4.16167">
        <ele>1177.6</ele>
        <time>2020-08-18T09:21:31Z</time>
      </trkpt>
      <trkpt lat="44.76108" lon="4.16059">
        <ele>1177.2</ele>
        <time>2020-08-18T09:22:18Z</time>
      </trkpt>
      <trkpt lat="44.76024" lon="4.15991">
        <ele>1177.8</ele>
        <time>2020-08-18T09:23:15Z</time>
      </trkpt>
      <trkpt lat="44.76004" lon="4.15859">
        <ele>1179.1</ele>
        <time>2020-08-18T09:24:14Z</time>
      </trkpt>
      <trkpt lat="44.75953" lon="4.1574">
        <ele>1181</ele>
        <time>2020-08-18T09:25:10Z</time>
      </trkpt>
      <trkpt lat="44.75985" lon="4.15616">
        <ele>1184.3</ele>
        <time>2020-08-18T09:26:26Z</time>
      </trkpt>
      <trkpt lat="44.76068" lon="4.15552">
        <ele>1186</ele>
        <time>2020-08-18T09:27:01Z</time>
      </trkpt>
      <trkpt lat="44.76141" lon="4.1548">
        <ele>1187.8</ele>
        <time>2020-08-18T09:27:36Z</time>
      </trkpt>
      <trkpt lat="44.76202" lon="4.15375">
        <ele>1189.9</ele>
        <time>2020-08-18T09:28:21Z</time>
      </trkpt>
      <trkpt lat="44.76182" lon="4.15246">
        <ele>1192.3</ele>
        <time>2020-08-18T09:29:15Z</time>
      </trkpt>
      <trkpt lat="44.76123" lon="4.15132">
        <ele>1193.6</ele>
        <time>2020-08-18T09:30:02Z</time>
      </trkpt>
      <trkpt lat="44.76112" lon="4.14998">
        <ele>1197.3</ele>
        <time>2020-08-18T09:31:05Z</time>
      </trkpt>
      <trkpt lat="44.76085" lon="4.14869">
        <ele>1204.3</ele>
        <time>2020-08-18T09:32:00Z</time>
      </trkpt>
      <trkpt lat="44.76008" lon="4.1479">
        <ele>1211.4</ele>
        <time>2020-08-18T09:32:52Z</time>
      </trkpt>
      <trkpt lat="44.75919" lon="4.14745">
        <ele>1216.5</ele>
        <time>2020-08-18T09:33:40Z</time>
      </trkpt>
      <trkpt lat="44.75855" lon="4.14635">
        <ele>1222.9</ele>
        <time>2020-08-18T09:34:40Z</time>
      </trkpt>
      <trkpt lat="44.75824" lon="4.14508">
        <ele>1228</ele>
        <time>2020-08-18T09:35:42Z</time>
      </trkpt>
      <trkpt lat="44.75902" lon="4.14425">
        <ele>1232.6</ele>
        <time>2020-08-18T09:36:29Z</time>
      </trkpt>
      <trkpt lat="44.75927" lon="4.14289">
        <ele>1237.7</ele>
        <time>2020-08-18T09:37:25Z</time>
      </trkpt>
      <trkpt lat="44.75933" lon="4.14152">
        <ele>1242.2</ele>
        <time>2020-08-18T09:38:19Z</time>
      </trkpt>
      <trkpt lat="44.75881" lon="4.14038">
        <ele>1245.9</ele>
        <time>2020-08-18T09:39:10Z</time>
      </trkpt>
      <trkpt lat="44.75786" lon="4.13995">
        <ele>1250.5</ele>
        <time>2020-08-18T09:40:06Z</time>
      </trkpt>
      <trkpt lat="44.75741" lon="4.13881">
        <ele>1254.9</ele>
        <time>2020-08-18T09:41:01Z</time>
      </trkpt>
      <trkpt lat="44.7574" lon="4.13742">
        <ele>1257.5</ele>
        <time>2020-08-18T09:41:55Z</time>
      </trkpt>
      <trkpt lat="44.75686" lon="4.13636">
        <ele>1260.6</ele>
        <time>2020-08-18T09:42:37Z</time>
      </trkpt>
      <trkpt lat="44.75594" lon="4.13609">
        <ele>1266</ele>
        <time>2020-08-18T09:43:26Z</time>
      </trkpt>
      <trkpt lat="44.75522" lon="4.13693">
        <ele>1275.2</ele>
        <time>2020-08-18T09:44:15Z</time>
      </trkpt>
      <trkpt lat="44.7545" lon="4.13592">
        <ele>1283.3</ele>
        <time>2020-08-18T09:45:14Z</time>
      </trkpt>
      <trkpt lat="44.75357" lon="4.1353">
        <ele>1289.5</ele>
        <time>2020-08-18T09:45:44Z</time>
      </trkpt>
      <trkpt lat="44.75258" lon="4.13513">
        <ele>1291.7</ele>
        <time>2020-08-18T09:46:09Z</time>
      </trkpt>
      <trkpt lat="44.75179" lon="4.13588">
        <ele>1292.6</ele>
        <time>2020-08-18T09:46:34Z</time>
      </trkpt>
      <trkpt lat="44.75097" lon="4.13673">
        <ele>1299.5</ele>
        <time>2020-08-18T11:25:21Z</time>
      </trkpt>
      <trkpt lat="44.75" lon="4.13694">
        <ele>1299.9</ele>
        <time>2020-08-18T11:25:46Z</time>
      </trkpt>
      <trkpt lat="44.74926" lon="4.13768">
        <ele>1300.3</ele>
        <time>2020-08-18T11:26:06Z</time>
      </trkpt>
      <trkpt lat="44.74828" lon="4.13766">
        <ele>1300.7</ele>
        <time>2020-08-18T11:26:36Z</time>
      </trkpt>
      <trkpt lat="44.7474" lon="4.1373">
        <ele>1301.6</ele>
        <time>2020-08-18T11:27:26Z</time>
      </trkpt>
      <trkpt lat="44.74642" lon="4.13732">
        <ele>1304</ele>
        <time>2020-08-18T11:28:27Z</time>
      </trkpt>
      <trkpt lat="44.74563" lon="4.13819">
        <ele>1306.7</ele>
        <time>2020-08-18T11:28:57Z</time>
      </trkpt>
      <trkpt lat="44.74471" lon="4.13861">
        <ele>1307.7</ele>
        <time>2020-08-18T11:29:17Z</time>
      </trkpt>
      <trkpt lat="44.74362" lon="4.13868">
        <ele>1308.3</ele>
        <time>2020-08-18T11:29:37Z</time>
      </trkpt>
      <trkpt lat="44.74265" lon="4.13928">
        <ele>1308.6</ele>
        <time>2020-08-18T11:29:52Z</time>
      </trkpt>
      <trkpt lat="44.74189" lon="4.13999">
        <ele>1309.1</ele>
        <time>2020-08-18T11:30:07Z</time>
      </trkpt>
      <trkpt lat="44.74123" lon="4.1409">
        <ele>1309.4</ele>
        <time>2020-08-18T11:30:22Z</time>
      </trkpt>
      <trkpt lat="44.74091" lon="4.14211">
        <ele>1309</ele>
        <time>2020-08-18T11:30:37Z</time>
      </trkpt>
      <trkpt lat="44.74062" lon="4.14062">
        <ele>1302.6</ele>
        <time>2020-08-18T11:31:12Z</time>
      </trkpt>
      <trkpt lat="44.74121" lon="4.1396">
        <ele>1298.8</ele>
        <time>2020-08-18T11:31:22Z</time>
      </trkpt>
      <trkpt lat="44.74192" lon="4.13865">
        <ele>1295.1</ele>
        <time>2020-08-18T11:31:32Z</time>
      </trkpt>
      <trkpt lat="44.74265" lon="4.13773">
        <ele>1292.4</ele>
        <time>2020-08-18T11:31:42Z</time>
      </trkpt>
      <trkpt lat="44.74337" lon="4.13697">
        <ele>1287.4</ele>
        <time>2020-08-18T11:31:52Z</time>
      </trkpt>
      <trkpt lat="44.74418" lon="4.13645">
        <ele>1288.5</ele>
        <time>2020-08-18T11:32:02Z</time>
      </trkpt>
      <trkpt lat="44.7447" lon="4.13544">
        <ele>1284.1</ele>
        <time>2020-08-18T11:32:12Z</time>
      </trkpt>
      <trkpt lat="44.74361" lon="4.13455">
        <ele>1277.8</ele>
        <time>2020-08-18T11:32:27Z</time>
      </trkpt>
      <trkpt lat="44.74308" lon="4.13294">
        <ele>1270.9</ele>
        <time>2020-08-18T11:32:42Z</time>
      </trkpt>
      <trkpt lat="44.74299" lon="4.13164">
        <ele>1265.4</ele>
        <time>2020-08-18T11:32:52Z</time>
      </trkpt>
      <trkpt lat="44.74303" lon="4.13035">
        <ele>1261.4</ele>
        <time>2020-08-18T11:33:02Z</time>
      </trkpt>
      <trkpt lat="44.74225" lon="4.12882">
        <ele>1255.1</ele>
        <time>2020-08-18T11:33:17Z</time>
      </trkpt>
      <trkpt lat="44.74139" lon="4.12794">
        <ele>1250.6</ele>
        <time>2020-08-18T11:34:02Z</time>
      </trkpt>
      <trkpt lat="44.74039" lon="4.12782">
        <ele>1246.5</ele>
        <time>2020-08-18T11:34:27Z</time>
      </trkpt>
      <trkpt lat="44.73954" lon="4.1272">
        <ele>1243</ele>
        <time>2020-08-18T11:34:47Z</time>
      </trkpt>
      <trkpt lat="44.73909" lon="4.12598">
        <ele>1239.6</ele>
        <time>2020-08-18T11:35:02Z</time>
      </trkpt>
      <trkpt lat="44.73855" lon="4.12474">
        <ele>1237.2</ele>
        <time>2020-08-18T11:35:17Z</time>
      </trkpt>
      <trkpt lat="44.73791" lon="4.12353">
        <ele>1235</ele>
        <time>2020-08-18T11:35:32Z</time>
      </trkpt>
      <trkpt lat="44.73712" lon="4.12241">
        <ele>1231.2</ele>
        <time>2020-08-18T11:35:47Z</time>
      </trkpt>
      <trkpt lat="44.73632" lon="4.12125">
        <ele>1228.1</ele>
        <time>2020-08-18T11:36:02Z</time>
      </trkpt>
      <trkpt lat="44.73634" lon="4.11973">
        <ele>1223.9</ele>
        <time>2020-08-18T11:36:17Z</time>
      </trkpt>
      <trkpt lat="44.73736" lon="4.11888">
        <ele>1219.1</ele>
        <time>2020-08-18T11:36:32Z</time>
      </trkpt>
      <trkpt lat="44.73833" lon="4.11795">
        <ele>1213.8</ele>
        <time>2020-08-18T11:36:47Z</time>
      </trkpt>
      <trkpt lat="44.73862" lon="4.1167">
        <ele>1210.4</ele>
        <time>2020-08-18T11:36:57Z</time>
      </trkpt>
      <trkpt lat="44.739" lon="4.11548">
        <ele>1208.1</ele>
        <time>2020-08-18T11:37:07Z</time>
      </trkpt>
      <trkpt lat="44.73946" lon="4.11434">
        <ele>1207.3</ele>
        <time>2020-08-18T11:37:17Z</time>
      </trkpt>
      <trkpt lat="44.74009" lon="4.11333">
        <ele>1203.2</ele>
        <time>2020-08-18T11:37:32Z</time>
      </trkpt>
      <trkpt lat="44.74071" lon="4.11195">
        <ele>1190.7</ele>
        <time>2020-08-18T11:37:47Z</time>
      </trkpt>
      <trkpt lat="44.74077" lon="4.11062">
        <ele>1180.5</ele>
        <time>2020-08-18T11:38:14Z</time>
      </trkpt>
      <trkpt lat="44.7404" lon="4.10925">
        <ele>1171.3</ele>
        <time>2020-08-18T11:38:29Z</time>
      </trkpt>
      <trkpt lat="44.74048" lon="4.10799">
        <ele>1167.4</ele>
        <time>2020-08-18T11:38:39Z</time>
      </trkpt>
      <trkpt lat="44.74073" lon="4.10669">
        <ele>1163.1</ele>
        <time>2020-08-18T11:38:49Z</time>
      </trkpt>
      <trkpt lat="44.7404" lon="4.10514">
        <ele>1158.5</ele>
        <time>2020-08-18T11:39:04Z</time>
      </trkpt>
      <trkpt lat="44.73986" lon="4.10404">
        <ele>1154.4</ele>
        <time>2020-08-18T11:39:24Z</time>
      </trkpt>
      <trkpt lat="44.73913" lon="4.10307">
        <ele>1149.8</ele>
        <time>2020-08-18T11:40:05Z</time>
      </trkpt>
      <trkpt lat="44.73837" lon="4.10228">
        <ele>1148.5</ele>
        <time>2020-08-18T11:40:45Z</time>
      </trkpt>
      <trkpt lat="44.73746" lon="4.10174">
        <ele>1155.9</ele>
        <time>2020-08-18T11:41:38Z</time>
      </trkpt>
      <trkpt lat="44.73656" lon="4.10122">
        <ele>1162.5</ele>
        <time>2020-08-18T11:42:19Z</time>
      </trkpt>
      <trkpt lat="44.73567" lon="4.1006">
        <ele>1163.4</ele>
        <time>2020-08-18T11:43:04Z</time>
      </trkpt>
      <trkpt lat="44.73544" lon="4.09926">
        <ele>1163.7</ele>
        <time>2020-08-18T11:43:53Z</time>
      </trkpt>
      <trkpt lat="44.7346" lon="4.09845">
        <ele>1164.2</ele>
        <time>2020-08-18T11:44:38Z</time>
      </trkpt>
      <trkpt lat="44.73378" lon="4.09769">
        <ele>1164.4</ele>
        <time>2020-08-18T11:45:23Z</time>
      </trkpt>
      <trkpt lat="44.73293" lon="4.09707">
        <ele>1165</ele>
        <time>2020-08-18T11:46:08Z</time>
      </trkpt>
      <trkpt lat="44.73208" lon="4.09649">
        <ele>1165.2</ele>
        <time>2020-08-18T11:46:53Z</time>
      </trkpt>
      <trkpt lat="44.7318" lon="4.09513">
        <ele>1165.6</ele>
        <time>2020-08-18T11:47:38Z</time>
      </trkpt>
      <trkpt lat="44.7318" lon="4.0938">
        <ele>1166</ele>
        <time>2020-08-18T11:48:13Z</time>
      </trkpt>
      <trkpt lat="44.73159" lon="4.09254">
        <ele>1166.3</ele>
        <time>2020-08-18T11:48:48Z</time>
      </trkpt>
      <trkpt lat="44.73107" lon="4.09137">
        <ele>1166.5</ele>
        <time>2020-08-18T11:49:23Z</time>
      </trkpt>
      <trkpt lat="44.73054" lon="4.09015">
        <ele>1166.7</ele>
        <time>2020-08-18T11:49:58Z</time>
      </trkpt>
      <trkpt lat="44.72975" lon="4.08939">
        <ele>1168.2</ele>
        <time>2020-08-18T11:54:14Z</time>
      </trkpt>
      <trkpt lat="44.72886" lon="4.08956">
        <ele>1169.5</ele>
        <time>2020-08-18T11:54:49Z</time>
      </trkpt>
      <trkpt lat="44.72795" lon="4.08923">
        <ele>1174.2</ele>
        <time>2020-08-18T11:57:23Z</time>
      </trkpt>
      <trkpt lat="44.72702" lon="4.08827">
        <ele>1175.8</ele>
        <time>2020-08-18T11:57:43Z</time>
      </trkpt>
      <trkpt lat="44.72618" lon="4.0873">
        <ele>1178.1</ele>
        <time>2020-08-18T11:58:08Z</time>
      </trkpt>
      <trkpt lat="44.72521" lon="4.08777">
        <ele>1179.1</ele>
        <time>2020-08-18T11:58:38Z</time>
      </trkpt>
      <trkpt lat="44.7243" lon="4.08786">
        <ele>1182</ele>
        <time>2020-08-18T11:59:03Z</time>
      </trkpt>
      <trkpt lat="44.7234" lon="4.08755">
        <ele>1185.2</ele>
        <time>2020-08-18T11:59:23Z</time>
      </trkpt>
      <trkpt lat="44.72414" lon="4.08684">
        <ele>1187.1</ele>
        <time>2020-08-18T12:00:22Z</time>
      </trkpt>
      <trkpt lat="44.72497" lon="4.08631">
        <ele>1190.7</ele>
        <time>2020-08-18T12:01:34Z</time>
      </trkpt>
      <trkpt lat="44.72431" lon="4.08533">
        <ele>1195.6</ele>
        <time>2020-08-18T12:02:40Z</time>
      </trkpt>
      <trkpt lat="44.72394" lon="4.08407">
        <ele>1199.7</ele>
        <time>2020-08-18T12:03:44Z</time>
      </trkpt>
      <trkpt lat="44.72343" lon="4.08285">
        <ele>1203.3</ele>
        <time>2020-08-18T12:04:51Z</time>
      </trkpt>
      <trkpt lat="44.7232" lon="4.08148">
        <ele>1209</ele>
        <time>2020-08-18T12:05:58Z</time>
      </trkpt>
      <trkpt lat="44.72226" lon="4.0812">
        <ele>1212.2</ele>
        <time>2020-08-18T12:07:03Z</time>
      </trkpt>
      <trkpt lat="44.72153" lon="4.08034">
        <ele>1215.1</ele>
        <time>2020-08-18T12:07:59Z</time>
      </trkpt>
      <trkpt lat="44.72064" lon="4.07988">
        <ele>1219.1</ele>
        <time>2020-08-18T12:08:58Z</time>
      </trkpt>
      <trkpt lat="44.71979" lon="4.07937">
        <ele>1228.8</ele>
        <time>2020-08-18T12:10:17Z</time>
      </trkpt>
      <trkpt lat="44.71917" lon="4.0783">
        <ele>1238</ele>
        <time>2020-08-18T12:11:16Z</time>
      </trkpt>
      <trkpt lat="44.71848" lon="4.07731">
        <ele>1245.8</ele>
        <time>2020-08-18T12:12:19Z</time>
      </trkpt>
      <trkpt lat="44.71759" lon="4.07747">
        <ele>1251.5</ele>
        <time>2020-08-18T12:13:28Z</time>
      </trkpt>
      <trkpt lat="44.71667" lon="4.07791">
        <ele>1253.3</ele>
        <time>2020-08-18T12:14:25Z</time>
      </trkpt>
      <trkpt lat="44.71659" lon="4.07664">
        <ele>1257.2</ele>
        <time>2020-08-18T12:16:07Z</time>
      </trkpt>
      <trkpt lat="44.71718" lon="4.07568">
        <ele>1261.3</ele>
        <time>2020-08-18T12:17:00Z</time>
      </trkpt>
      <trkpt lat="44.71725" lon="4.0743">
        <ele>1266.3</ele>
        <time>2020-08-18T12:18:01Z</time>
      </trkpt>
      <trkpt lat="44.71655" lon="4.07334">
        <ele>1272.3</ele>
        <time>2020-08-18T12:19:11Z</time>
      </trkpt>
      <trkpt lat="44.71565" lon="4.07315">
        <ele>1275.3</ele>
        <time>2020-08-18T12:19:56Z</time>
      </trkpt>
      <trkpt lat="44.71469" lon="4.07307">
        <ele>1278.9</ele>
        <time>2020-08-18T12:20:51Z</time>
      </trkpt>
      <trkpt lat="44.71409" lon="4.074">
        <ele>1282</ele>
        <time>2020-08-18T12:21:43Z</time>
      </trkpt>
      <trkpt lat="44.71334" lon="4.07313">
        <ele>1299.1</ele>
        <time>2020-08-18T12:23:27Z</time>
      </trkpt>
      <trkpt lat="44.71358" lon="4.0718">
        <ele>1311</ele>
        <time>2020-08-18T12:24:20Z</time>
      </trkpt>
      <trkpt lat="44.71381" lon="4.07052">
        <ele>1318.3</ele>
        <time>2020-08-18T12:25:11Z</time>
      </trkpt>
      <trkpt lat="44.7141" lon="4.06932">
        <ele>1322.6</ele>
        <time>2020-08-18T12:25:51Z</time>
      </trkpt>
      <trkpt lat="44.71389" lon="4.06803">
        <ele>1326.7</ele>
        <time>2020-08-18T12:27:18Z</time>
      </trkpt>
      <trkpt lat="44.71364" lon="4.06673">
        <ele>1328.7</ele>
        <time>2020-08-18T12:27:48Z</time>
      </trkpt>
      <trkpt lat="44.71335" lon="4.06538">
        <ele>1331.4</ele>
        <time>2020-08-18T12:28:36Z</time>
      </trkpt>
      <trkpt lat="44.71284" lon="4.06421">
        <ele>1333.8</ele>
        <time>2020-08-18T12:29:30Z</time>
      </trkpt>
      <trkpt lat="44.71202" lon="4.0636">
        <ele>1335.8</ele>
        <time>2020-08-18T12:30:15Z</time>
      </trkpt>
      <trkpt lat="44.71192" lon="4.06225">
        <ele>1337.9</ele>
        <time>2020-08-18T12:31:02Z</time>
      </trkpt>
      <trkpt lat="44.71187" lon="4.06096">
        <ele>1339.3</ele>
        <time>2020-08-18T12:31:42Z</time>
      </trkpt>
      <trkpt lat="44.71142" lon="4.05974">
        <ele>1340.8</ele>
        <time>2020-08-18T12:32:17Z</time>
      </trkpt>
      <trkpt lat="44.71136" lon="4.05842">
        <ele>1342.8</ele>
        <time>2020-08-18T12:32:57Z</time>
      </trkpt>
      <trkpt lat="44.71123" lon="4.05697">
        <ele>1344.4</ele>
        <time>2020-08-18T12:33:37Z</time>
      </trkpt>
      <trkpt lat="44.71037" lon="4.05649">
        <ele>1345.9</ele>
        <time>2020-08-18T12:34:16Z</time>
      </trkpt>
      <trkpt lat="44.70987" lon="4.0554">
        <ele>1347.8</ele>
        <time>2020-08-18T12:35:02Z</time>
      </trkpt>
      <trkpt lat="44.7093" lon="4.05431">
        <ele>1349.3</ele>
        <time>2020-08-18T12:35:48Z</time>
      </trkpt>
      <trkpt lat="44.70832" lon="4.05436">
        <ele>1351.3</ele>
        <time>2020-08-18T12:36:39Z</time>
      </trkpt>
      <trkpt lat="44.70732" lon="4.0541">
        <ele>1353.3</ele>
        <time>2020-08-18T12:37:28Z</time>
      </trkpt>
      <trkpt lat="44.70641" lon="4.05436">
        <ele>1355.6</ele>
        <time>2020-08-18T12:38:15Z</time>
      </trkpt>
      <trkpt lat="44.70553" lon="4.05372">
        <ele>1359.3</ele>
        <time>2020-08-18T12:39:16Z</time>
      </trkpt>
      <trkpt lat="44.70486" lon="4.0527">
        <ele>1363</ele>
        <time>2020-08-18T12:40:22Z</time>
      </trkpt>
      <trkpt lat="44.70393" lon="4.05274">
        <ele>1365</ele>
        <time>2020-08-18T12:41:09Z</time>
      </trkpt>
      <trkpt lat="44.70301" lon="4.05319">
        <ele>1367.4</ele>
        <time>2020-08-18T12:42:00Z</time>
      </trkpt>
      <trkpt lat="44.70203" lon="4.0533">
        <ele>1369.9</ele>
        <time>2020-08-18T12:42:54Z</time>
      </trkpt>
      <trkpt lat="44.70109" lon="4.05318">
        <ele>1373.6</ele>
        <time>2020-08-18T12:43:41Z</time>
      </trkpt>
      <trkpt lat="44.70023" lon="4.05272">
        <ele>1378.4</ele>
        <time>2020-08-18T12:44:27Z</time>
      </trkpt>
      <trkpt lat="44.69937" lon="4.05223">
        <ele>1382.4</ele>
        <time>2020-08-18T12:45:12Z</time>
      </trkpt>
      <trkpt lat="44.69862" lon="4.05132">
        <ele>1386.1</ele>
        <time>2020-08-18T12:46:03Z</time>
      </trkpt>
      <trkpt lat="44.69809" lon="4.05022">
        <ele>1389.3</ele>
        <time>2020-08-18T12:46:51Z</time>
      </trkpt>
      <trkpt lat="44.69732" lon="4.04931">
        <ele>1392.3</ele>
        <time>2020-08-18T12:47:36Z</time>
      </trkpt>
      <trkpt lat="44.6967" lon="4.04833">
        <ele>1394.7</ele>
        <time>2020-08-18T12:48:16Z</time>
      </trkpt>
      <trkpt lat="44.69609" lon="4.04695">
        <ele>1398.9</ele>
        <time>2020-08-18T12:49:22Z</time>
      </trkpt>
      <trkpt lat="44.69539" lon="4.0461">
        <ele>1398.8</ele>
        <time>2020-08-18T12:49:37Z</time>
      </trkpt>
      <trkpt lat="44.6949" lon="4.04476">
        <ele>1398.4</ele>
        <time>2020-08-18T12:49:52Z</time>
      </trkpt>
      <trkpt lat="44.69384" lon="4.04416">
        <ele>1395.9</ele>
        <time>2020-08-18T12:50:07Z</time>
      </trkpt>
      <trkpt lat="44.69346" lon="4.04293">
        <ele>1392.3</ele>
        <time>2020-08-18T12:50:22Z</time>
      </trkpt>
      <trkpt lat="44.69355" lon="4.04156">
        <ele>1389.6</ele>
        <time>2020-08-18T12:50:32Z</time>
      </trkpt>
      <trkpt lat="44.6935" lon="4.04016">
        <ele>1387.8</ele>
        <time>2020-08-18T12:50:42Z</time>
      </trkpt>
      <trkpt lat="44.69375" lon="4.03883">
        <ele>1386.7</ele>
        <time>2020-08-18T12:50:52Z</time>
      </trkpt>
      <trkpt lat="44.69384" lon="4.03754">
        <ele>1384.3</ele>
        <time>2020-08-18T12:51:02Z</time>
      </trkpt>
      <trkpt lat="44.69398" lon="4.03609">
        <ele>1382.6</ele>
        <time>2020-08-18T12:51:12Z</time>
      </trkpt>
      <trkpt lat="44.69444" lon="4.03467">
        <ele>1380.7</ele>
        <time>2020-08-18T12:51:22Z</time>
      </trkpt>
      <trkpt lat="44.69497" lon="4.03332">
        <ele>1379.7</ele>
        <time>2020-08-18T12:51:32Z</time>
      </trkpt>
      <trkpt lat="44.69613" lon="4.03337">
        <ele>1373.5</ele>
        <time>2020-08-18T12:51:47Z</time>
      </trkpt>
      <trkpt lat="44.69609" lon="4.03172">
        <ele>1360.5</ele>
        <time>2020-08-18T12:52:02Z</time>
      </trkpt>
      <trkpt lat="44.69617" lon="4.03046">
        <ele>1349.5</ele>
        <time>2020-08-18T12:52:12Z</time>
      </trkpt>
      <trkpt lat="44.69662" lon="4.02926">
        <ele>1355.9</ele>
        <time>2020-08-18T12:52:22Z</time>
      </trkpt>
      <trkpt lat="44.69704" lon="4.02809">
        <ele>1353.4</ele>
        <time>2020-08-18T12:52:32Z</time>
      </trkpt>
      <trkpt lat="44.69738" lon="4.02692">
        <ele>1348.9</ele>
        <time>2020-08-18T12:52:42Z</time>
      </trkpt>
      <trkpt lat="44.69792" lon="4.02545">
        <ele>1343.7</ele>
        <time>2020-08-18T12:52:57Z</time>
      </trkpt>
      <trkpt lat="44.69786" lon="4.02363">
        <ele>1339</ele>
        <time>2020-08-18T12:53:12Z</time>
      </trkpt>
      <trkpt lat="44.69755" lon="4.02233">
        <ele>1337.9</ele>
        <time>2020-08-18T12:53:22Z</time>
      </trkpt>
      <trkpt lat="44.69764" lon="4.02099">
        <ele>1337</ele>
        <time>2020-08-18T12:53:37Z</time>
      </trkpt>
      <trkpt lat="44.69662" lon="4.02136">
        <ele>1333.8</ele>
        <time>2020-08-18T12:54:52Z</time>
      </trkpt>
      <trkpt lat="44.69573" lon="4.02224">
        <ele>1333.4</ele>
        <time>2020-08-18T12:55:12Z</time>
      </trkpt>
      <trkpt lat="44.69487" lon="4.0218">
        <ele>1333.2</ele>
        <time>2020-08-18T12:56:24Z</time>
      </trkpt>
      <trkpt lat="44.69431" lon="4.02066">
        <ele>1332.3</ele>
        <time>2020-08-18T12:57:21Z</time>
      </trkpt>
      <trkpt lat="44.69353" lon="4.01979">
        <ele>1330.6</ele>
        <time>2020-08-18T12:58:06Z</time>
      </trkpt>
      <trkpt lat="44.69261" lon="4.01948">
        <ele>1330.5</ele>
        <time>2020-08-18T12:58:46Z</time>
      </trkpt>
      <trkpt lat="44.69174" lon="4.01981">
        <ele>1331</ele>
        <time>2020-08-18T12:59:16Z</time>
      </trkpt>
      <trkpt lat="44.69077" lon="4.02033">
        <ele>1331.2</ele>
        <time>2020-08-18T12:59:45Z</time>
      </trkpt>
      <trkpt lat="44.68984" lon="4.0207">
        <ele>1331.1</ele>
        <time>2020-08-18T13:00:31Z</time>
      </trkpt>
      <trkpt lat="44.68915" lon="4.02161">
        <ele>1331.1</ele>
        <time>2020-08-18T13:01:18Z</time>
      </trkpt>
      <trkpt lat="44.68889" lon="4.02286">
        <ele>1331.7</ele>
        <time>2020-08-18T13:01:53Z</time>
      </trkpt>
      <trkpt lat="44.68808" lon="4.02354">
        <ele>1334.2</ele>
        <time>2020-08-18T13:03:07Z</time>
      </trkpt>
      <trkpt lat="44.68717" lon="4.02358">
        <ele>1337.2</ele>
        <time>2020-08-18T13:04:15Z</time>
      </trkpt>
      <trkpt lat="44.6863" lon="4.02303">
        <ele>1340.9</ele>
        <time>2020-08-18T13:05:19Z</time>
      </trkpt>
      <trkpt lat="44.68555" lon="4.02221">
        <ele>1347.3</ele>
        <time>2020-08-18T13:06:28Z</time>
      </trkpt>
      <trkpt lat="44.6849" lon="4.02321">
        <ele>1358</ele>
        <time>2020-08-18T13:07:46Z</time>
      </trkpt>
      <trkpt lat="44.68406" lon="4.02367">
        <ele>1365</ele>
        <time>2020-08-18T13:08:49Z</time>
      </trkpt>
      <trkpt lat="44.68316" lon="4.02386">
        <ele>1368</ele>
        <time>2020-08-18T13:09:24Z</time>
      </trkpt>
      <trkpt lat="44.68233" lon="4.02331">
        <ele>1370.7</ele>
        <time>2020-08-18T13:09:54Z</time>
      </trkpt>
      <trkpt lat="44.6814" lon="4.02347">
        <ele>1377.2</ele>
        <time>2020-08-18T13:10:44Z</time>
      </trkpt>
      <trkpt lat="44.68054" lon="4.02397">
        <ele>1384</ele>
        <time>2020-08-18T13:11:39Z</time>
      </trkpt>
      <trkpt lat="44.67975" lon="4.02459">
        <ele>1389.9</ele>
        <time>2020-08-18T13:12:36Z</time>
      </trkpt>
      <trkpt lat="44.67888" lon="4.02512">
        <ele>1396.1</ele>
        <time>2020-08-18T13:13:49Z</time>
      </trkpt>
      <trkpt lat="44.678" lon="4.02572">
        <ele>1400.1</ele>
        <time>2020-08-18T13:14:47Z</time>
      </trkpt>
      <trkpt lat="44.67751" lon="4.02681">
        <ele>1403.6</ele>
        <time>2020-08-18T13:15:39Z</time>
      </trkpt>
      <trkpt lat="44.67661" lon="4.02705">
        <ele>1407.2</ele>
        <time>2020-08-18T13:16:48Z</time>
      </trkpt>
      <trkpt lat="44.67565" lon="4.02701">
        <ele>1411.9</ele>
        <time>2020-08-18T13:18:02Z</time>
      </trkpt>
      <trkpt lat="44.67469" lon="4.02692">
        <ele>1417.7</ele>
        <time>2020-08-18T13:19:10Z</time>
      </trkpt>
      <trkpt lat="44.67373" lon="4.02688">
        <ele>1425.1</ele>
        <time>2020-08-18T13:20:21Z</time>
      </trkpt>
      <trkpt lat="44.67275" lon="4.02663">
        <ele>1431.4</ele>
        <time>2020-08-18T13:21:16Z</time>
      </trkpt>
      <trkpt lat="44.67223" lon="4.02556">
        <ele>1452.8</ele>
        <time>2020-08-18T13:34:50Z</time>
      </trkpt>
      <trkpt lat="44.67174" lon="4.02411">
        <ele>1455.2</ele>
        <time>2020-08-18T13:35:10Z</time>
      </trkpt>
      <trkpt lat="44.67086" lon="4.02348">
        <ele>1455.3</ele>
        <time>2020-08-18T13:35:25Z</time>
      </trkpt>
      <trkpt lat="44.66992" lon="4.02388">
        <ele>1455.8</ele>
        <time>2020-08-18T13:35:55Z</time>
      </trkpt>
      <trkpt lat="44.66895" lon="4.0243">
        <ele>1454.8</ele>
        <time>2020-08-18T13:36:36Z</time>
      </trkpt>
      <trkpt lat="44.6681" lon="4.02473">
        <ele>1455.7</ele>
        <time>2020-08-18T13:37:17Z</time>
      </trkpt>
      <trkpt lat="44.66717" lon="4.02513">
        <ele>1459</ele>
        <time>2020-08-18T13:38:15Z</time>
      </trkpt>
      <trkpt lat="44.66622" lon="4.02537">
        <ele>1463.4</ele>
        <time>2020-08-18T13:38:45Z</time>
      </trkpt>
      <trkpt lat="44.66527" lon="4.02526">
        <ele>1462.1</ele>
        <time>2020-08-18T13:39:00Z</time>
      </trkpt>
      <trkpt lat="44.66411" lon="4.02539">
        <ele>1460.2</ele>
        <time>2020-08-18T13:39:15Z</time>
      </trkpt>
      <trkpt lat="44.6633" lon="4.0261">
        <ele>1458.8</ele>
        <time>2020-08-18T13:39:25Z</time>
      </trkpt>
      <trkpt lat="44.66236" lon="4.02642">
        <ele>1458</ele>
        <time>2020-08-18T13:39:35Z</time>
      </trkpt>
      <trkpt lat="44.66134" lon="4.02616">
        <ele>1456.2</ele>
        <time>2020-08-18T13:39:45Z</time>
      </trkpt>
      <trkpt lat="44.66025" lon="4.02586">
        <ele>1453.9</ele>
        <time>2020-08-18T13:39:55Z</time>
      </trkpt>
      <trkpt lat="44.65931" lon="4.02666">
        <ele>1455.7</ele>
        <time>2020-08-18T13:40:05Z</time>
      </trkpt>
      <trkpt lat="44.65886" lon="4.0279">
        <ele>1452.8</ele>
        <time>2020-08-18T13:40:20Z</time>
      </trkpt>
      <trkpt lat="44.65829" lon="4.02893">
        <ele>1449.6</ele>
        <time>2020-08-18T13:40:50Z</time>
      </trkpt>
      <trkpt lat="44.65732" lon="4.02921">
        <ele>1443.5</ele>
        <time>2020-08-18T13:41:30Z</time>
      </trkpt>
      <trkpt lat="44.65631" lon="4.02934">
        <ele>1441.1</ele>
        <time>2020-08-18T13:42:10Z</time>
      </trkpt>
      <trkpt lat="44.65536" lon="4.02947">
        <ele>1441.2</ele>
        <time>2020-08-18T13:42:45Z</time>
      </trkpt>
      <trkpt lat="44.65444" lon="4.02982">
        <ele>1441.9</ele>
        <time>2020-08-18T13:43:15Z</time>
      </trkpt>
      <trkpt lat="44.65352" lon="4.0302">
        <ele>1442.7</ele>
        <time>2020-08-18T13:43:50Z</time>
      </trkpt>
      <trkpt lat="44.65263" lon="4.0306">
        <ele>1443.3</ele>
        <time>2020-08-18T13:44:30Z</time>
      </trkpt>
      <trkpt lat="44.65191" lon="4.03138">
        <ele>1445.3</ele>
        <time>2020-08-18T13:45:25Z</time>
      </trkpt>
      <trkpt lat="44.65177" lon="4.03268">
        <ele>1448.2</ele>
        <time>2020-08-18T13:46:25Z</time>
      </trkpt>
      <trkpt lat="44.65183" lon="4.03398">
        <ele>1450.1</ele>
        <time>2020-08-18T13:47:17Z</time>
      </trkpt>
      <trkpt lat="44.6519" lon="4.03539">
        <ele>1450.8</ele>
        <time>2020-08-18T13:47:47Z</time>
      </trkpt>
      <trkpt lat="44.65194" lon="4.03668">
        <ele>1451.5</ele>
        <time>2020-08-18T13:48:17Z</time>
      </trkpt>
      <trkpt lat="44.65171" lon="4.03802">
        <ele>1452.5</ele>
        <time>2020-08-18T13:49:21Z</time>
      </trkpt>
      <trkpt lat="44.65135" lon="4.03929">
        <ele>1453.9</ele>
        <time>2020-08-18T13:50:21Z</time>
      </trkpt>
      <trkpt lat="44.6509" lon="4.04055">
        <ele>1455.2</ele>
        <time>2020-08-18T13:51:06Z</time>
      </trkpt>
      <trkpt lat="44.65045" lon="4.04166">
        <ele>1456.5</ele>
        <time>2020-08-18T13:51:46Z</time>
      </trkpt>
      <trkpt lat="44.65" lon="4.04281">
        <ele>1458.9</ele>
        <time>2020-08-18T13:54:04Z</time>
      </trkpt>
      <trkpt lat="44.6493" lon="4.04411">
        <ele>1462.6</ele>
        <time>2020-08-18T13:54:24Z</time>
      </trkpt>
      <trkpt lat="44.64832" lon="4.04482">
        <ele>1461.2</ele>
        <time>2020-08-18T13:54:34Z</time>
      </trkpt>
      <trkpt lat="44.64721" lon="4.0458">
        <ele>1459.4</ele>
        <time>2020-08-18T13:54:44Z</time>
      </trkpt>
      <trkpt lat="44.64612" lon="4.04678">
        <ele>1457</ele>
        <time>2020-08-18T13:54:54Z</time>
      </trkpt>
      <trkpt lat="44.64525" lon="4.04802">
        <ele>1453.2</ele>
        <time>2020-08-18T13:55:04Z</time>
      </trkpt>
      <trkpt lat="44.64428" lon="4.04903">
        <ele>1449.5</ele>
        <time>2020-08-18T13:55:14Z</time>
      </trkpt>
      <trkpt lat="44.64496" lon="4.04802">
        <ele>1440.5</ele>
        <time>2020-08-18T13:55:34Z</time>
      </trkpt>
      <trkpt lat="44.6453" lon="4.04661">
        <ele>1434.2</ele>
        <time>2020-08-18T13:55:44Z</time>
      </trkpt>
      <trkpt lat="44.64548" lon="4.04506">
        <ele>1428.7</ele>
        <time>2020-08-18T13:55:54Z</time>
      </trkpt>
      <trkpt lat="44.64581" lon="4.04357">
        <ele>1422</ele>
        <time>2020-08-18T13:56:04Z</time>
      </trkpt>
      <trkpt lat="44.64496" lon="4.04406">
        <ele>1416</ele>
        <time>2020-08-18T13:56:19Z</time>
      </trkpt>
      <trkpt lat="44.64443" lon="4.0455">
        <ele>1409.7</ele>
        <time>2020-08-18T13:56:29Z</time>
      </trkpt>
      <trkpt lat="44.6435" lon="4.04627">
        <ele>1398.8</ele>
        <time>2020-08-18T13:56:39Z</time>
      </trkpt>
      <trkpt lat="44.64244" lon="4.04704">
        <ele>1392.3</ele>
        <time>2020-08-18T13:56:49Z</time>
      </trkpt>
      <trkpt lat="44.6416" lon="4.04851">
        <ele>1377.4</ele>
        <time>2020-08-18T13:56:59Z</time>
      </trkpt>
      <trkpt lat="44.64084" lon="4.05006">
        <ele>1366.3</ele>
        <time>2020-08-18T13:57:09Z</time>
      </trkpt>
      <trkpt lat="44.64035" lon="4.05166">
        <ele>1355.3</ele>
        <time>2020-08-18T13:57:19Z</time>
      </trkpt>
      <trkpt lat="44.64016" lon="4.05338">
        <ele>1339.3</ele>
        <time>2020-08-18T13:57:29Z</time>
      </trkpt>
      <trkpt lat="44.63926" lon="4.05189">
        <ele>1321.7</ele>
        <time>2020-08-18T13:58:04Z</time>
      </trkpt>
      <trkpt lat="44.6386" lon="4.05075">
        <ele>1315.2</ele>
        <time>2020-08-18T13:58:19Z</time>
      </trkpt>
    </trkseg>
  </trk>
  <trk>
    <name><![CDATA[route107]]></name>
    <trkseg>
      <trkpt lat="44.44018" lon="3.92657">
        <ele>657.3</ele>
        <time>2020-08-20T05:30:06Z</time>
      </trkpt>
      <trkpt lat="44.44053" lon="3.92782">
        <ele>655.6</ele>
        <time>2020-08-20T05:30:30Z</time>
      </trkpt>
      <trkpt lat="44.441" lon="3.92957">
        <ele>651.4</ele>
        <time>2020-08-20T05:30:45Z</time>
      </trkpt>
      <trkpt lat="44.44123" lon="3.9314">
        <ele>644.8</ele>
        <time>2020-08-20T05:31:00Z</time>
      </trkpt>
      <trkpt lat="44.44214" lon="3.93198">
        <ele>648.1</ele>
        <time>2020-08-20T05:36:12Z</time>
      </trkpt>
      <trkpt lat="44.44295" lon="3.93287">
        <ele>644.2</ele>
        <time>2020-08-20T05:36:32Z</time>
      </trkpt>
      <trkpt lat="44.44387" lon="3.93348">
        <ele>641.6</ele>
        <time>2020-08-20T05:36:52Z</time>
      </trkpt>
      <trkpt lat="44.44425" lon="3.93222">
        <ele>639.7</ele>
        <time>2020-08-20T05:37:12Z</time>
      </trkpt>
      <trkpt lat="44.44438" lon="3.93085">
        <ele>637.9</ele>
        <time>2020-08-20T05:37:37Z</time>
      </trkpt>
      <trkpt lat="44.44499" lon="3.92982">
        <ele>637.2</ele>
        <time>2020-08-20T05:38:38Z</time>
      </trkpt>
      <trkpt lat="44.44592" lon="3.92968">
        <ele>637.8</ele>
        <time>2020-08-20T05:39:43Z</time>
      </trkpt>
      <trkpt lat="44.44682" lon="3.93023">
        <ele>639</ele>
        <time>2020-08-20T05:40:50Z</time>
      </trkpt>
      <trkpt lat="44.44774" lon="3.93049">
        <ele>640.5</ele>
        <time>2020-08-20T05:41:52Z</time>
      </trkpt>
      <trkpt lat="44.44872" lon="3.93043">
        <ele>642.5</ele>
        <time>2020-08-20T05:42:52Z</time>
      </trkpt>
      <trkpt lat="44.44883" lon="3.92913">
        <ele>643.8</ele>
        <time>2020-08-20T05:43:27Z</time>
      </trkpt>
      <trkpt lat="44.4492" lon="3.92796">
        <ele>645</ele>
        <time>2020-08-20T05:43:57Z</time>
      </trkpt>
      <trkpt lat="44.44963" lon="3.92685">
        <ele>646.5</ele>
        <time>2020-08-20T05:44:27Z</time>
      </trkpt>
      <trkpt lat="44.45012" lon="3.92563">
        <ele>649.8</ele>
        <time>2020-08-20T05:44:57Z</time>
      </trkpt>
      <trkpt lat="44.45026" lon="3.92413">
        <ele>650.7</ele>
        <time>2020-08-20T05:45:17Z</time>
      </trkpt>
      <trkpt lat="44.45012" lon="3.92268">
        <ele>651.7</ele>
        <time>2020-08-20T05:45:37Z</time>
      </trkpt>
      <trkpt lat="44.44999" lon="3.92122">
        <ele>652.8</ele>
        <time>2020-08-20T05:46:02Z</time>
      </trkpt>
      <trkpt lat="44.44946" lon="3.92014">
        <ele>653.4</ele>
        <time>2020-08-20T05:46:27Z</time>
      </trkpt>
      <trkpt lat="44.44859" lon="3.91944">
        <ele>654</ele>
        <time>2020-08-20T05:46:57Z</time>
      </trkpt>
      <trkpt lat="44.44817" lon="3.91824">
        <ele>654.7</ele>
        <time>2020-08-20T05:47:27Z</time>
      </trkpt>
      <trkpt lat="44.44832" lon="3.91687">
        <ele>655.6</ele>
        <time>2020-08-20T05:47:57Z</time>
      </trkpt>
      <trkpt lat="44.44839" lon="3.91548">
        <ele>657.1</ele>
        <time>2020-08-20T05:48:27Z</time>
      </trkpt>
      <trkpt lat="44.44795" lon="3.91421">
        <ele>659.4</ele>
        <time>2020-08-20T05:48:57Z</time>
      </trkpt>
      <trkpt lat="44.44843" lon="3.91305">
        <ele>665</ele>
        <time>2020-08-20T05:49:22Z</time>
      </trkpt>
      <trkpt lat="44.44931" lon="3.9126">
        <ele>665.7</ele>
        <time>2020-08-20T05:49:37Z</time>
      </trkpt>
      <trkpt lat="44.45018" lon="3.91201">
        <ele>666.8</ele>
        <time>2020-08-20T05:49:52Z</time>
      </trkpt>
      <trkpt lat="44.45109" lon="3.91205">
        <ele>669.2</ele>
        <time>2020-08-20T05:50:07Z</time>
      </trkpt>
      <trkpt lat="44.4515" lon="3.91093">
        <ele>676.5</ele>
        <time>2020-08-20T05:50:27Z</time>
      </trkpt>
      <trkpt lat="44.45069" lon="3.9102">
        <ele>671.7</ele>
        <time>2020-08-20T05:50:47Z</time>
      </trkpt>
      <trkpt lat="44.45034" lon="3.90883">
        <ele>672.5</ele>
        <time>2020-08-20T05:51:17Z</time>
      </trkpt>
      <trkpt lat="44.44985" lon="3.90764">
        <ele>674.3</ele>
        <time>2020-08-20T05:51:47Z</time>
      </trkpt>
      <trkpt lat="44.44953" lon="3.90642">
        <ele>675.5</ele>
        <time>2020-08-20T05:52:17Z</time>
      </trkpt>
      <trkpt lat="44.45041" lon="3.90608">
        <ele>677.7</ele>
        <time>2020-08-20T05:52:42Z</time>
      </trkpt>
      <trkpt lat="44.45155" lon="3.90592">
        <ele>678</ele>
        <time>2020-08-20T05:53:02Z</time>
      </trkpt>
      <trkpt lat="44.45213" lon="3.90492">
        <ele>679.4</ele>
        <time>2020-08-20T05:53:22Z</time>
      </trkpt>
      <trkpt lat="44.45207" lon="3.90362">
        <ele>679.1</ele>
        <time>2020-08-20T05:53:47Z</time>
      </trkpt>
      <trkpt lat="44.45164" lon="3.90246">
        <ele>678.6</ele>
        <time>2020-08-20T05:54:07Z</time>
      </trkpt>
      <trkpt lat="44.45202" lon="3.90122">
        <ele>677.6</ele>
        <time>2020-08-20T05:54:22Z</time>
      </trkpt>
      <trkpt lat="44.45184" lon="3.89995">
        <ele>676.7</ele>
        <time>2020-08-20T05:54:37Z</time>
      </trkpt>
      <trkpt lat="44.45112" lon="3.89899">
        <ele>676</ele>
        <time>2020-08-20T05:55:02Z</time>
      </trkpt>
      <trkpt lat="44.45061" lon="3.89788">
        <ele>674.8</ele>
        <time>2020-08-20T05:55:37Z</time>
      </trkpt>
      <trkpt lat="44.45094" lon="3.89657">
        <ele>673.6</ele>
        <time>2020-08-20T05:56:17Z</time>
      </trkpt>
      <trkpt lat="44.45144" lon="3.89548">
        <ele>674.1</ele>
        <time>2020-08-20T05:56:52Z</time>
      </trkpt>
      <trkpt lat="44.45198" lon="3.89438">
        <ele>675.9</ele>
        <time>2020-08-20T05:57:27Z</time>
      </trkpt>
      <trkpt lat="44.45286" lon="3.89383">
        <ele>678.5</ele>
        <time>2020-08-20T05:58:02Z</time>
      </trkpt>
      <trkpt lat="44.45386" lon="3.8935">
        <ele>683.1</ele>
        <time>2020-08-20T05:58:37Z</time>
      </trkpt>
      <trkpt lat="44.45435" lon="3.89246">
        <ele>686.6</ele>
        <time>2020-08-20T05:59:07Z</time>
      </trkpt>
      <trkpt lat="44.45431" lon="3.89099">
        <ele>687.5</ele>
        <time>2020-08-20T05:59:42Z</time>
      </trkpt>
      <trkpt lat="44.45463" lon="3.8898">
        <ele>688.1</ele>
        <time>2020-08-20T06:00:12Z</time>
      </trkpt>
      <trkpt lat="44.45567" lon="3.88961">
        <ele>688.7</ele>
        <time>2020-08-20T06:00:42Z</time>
      </trkpt>
      <trkpt lat="44.45643" lon="3.89041">
        <ele>689.5</ele>
        <time>2020-08-20T06:01:22Z</time>
      </trkpt>
      <trkpt lat="44.45673" lon="3.89176">
        <ele>690.4</ele>
        <time>2020-08-20T06:02:07Z</time>
      </trkpt>
      <trkpt lat="44.4576" lon="3.89234">
        <ele>691.5</ele>
        <time>2020-08-20T06:02:47Z</time>
      </trkpt>
      <trkpt lat="44.45852" lon="3.89246">
        <ele>692.8</ele>
        <time>2020-08-20T06:03:22Z</time>
      </trkpt>
      <trkpt lat="44.45916" lon="3.89146">
        <ele>696</ele>
        <time>2020-08-20T06:03:57Z</time>
      </trkpt>
      <trkpt lat="44.45992" lon="3.89061">
        <ele>700</ele>
        <time>2020-08-20T06:04:32Z</time>
      </trkpt>
      <trkpt lat="44.46041" lon="3.88945">
        <ele>702.9</ele>
        <time>2020-08-20T06:05:07Z</time>
      </trkpt>
      <trkpt lat="44.46067" lon="3.88818">
        <ele>705.7</ele>
        <time>2020-08-20T06:05:47Z</time>
      </trkpt>
      <trkpt lat="44.46069" lon="3.88685">
        <ele>708.5</ele>
        <time>2020-08-20T06:06:32Z</time>
      </trkpt>
      <trkpt lat="44.46142" lon="3.88615">
        <ele>710.7</ele>
        <time>2020-08-20T06:07:17Z</time>
      </trkpt>
      <trkpt lat="44.46163" lon="3.8848">
        <ele>712.2</ele>
        <time>2020-08-20T06:07:52Z</time>
      </trkpt>
      <trkpt lat="44.46255" lon="3.88436">
        <ele>713.7</ele>
        <time>2020-08-20T06:08:32Z</time>
      </trkpt>
      <trkpt lat="44.46337" lon="3.88381">
        <ele>715.5</ele>
        <time>2020-08-20T06:09:12Z</time>
      </trkpt>
      <trkpt lat="44.46398" lon="3.88273">
        <ele>717.2</ele>
        <time>2020-08-20T06:09:52Z</time>
      </trkpt>
      <trkpt lat="44.46384" lon="3.88141">
        <ele>718.6</ele>
        <time>2020-08-20T06:10:27Z</time>
      </trkpt>
      <trkpt lat="44.46374" lon="3.8801">
        <ele>720.4</ele>
        <time>2020-08-20T06:11:07Z</time>
      </trkpt>
      <trkpt lat="44.46401" lon="3.87876">
        <ele>722.4</ele>
        <time>2020-08-20T06:11:47Z</time>
      </trkpt>
      <trkpt lat="44.46477" lon="3.87788">
        <ele>724.2</ele>
        <time>2020-08-20T06:12:27Z</time>
      </trkpt>
      <trkpt lat="44.46528" lon="3.87679">
        <ele>725.6</ele>
        <time>2020-08-20T06:13:02Z</time>
      </trkpt>
      <trkpt lat="44.46534" lon="3.87538">
        <ele>727.2</ele>
        <time>2020-08-20T06:13:42Z</time>
      </trkpt>
      <trkpt lat="44.46479" lon="3.87426">
        <ele>729.2</ele>
        <time>2020-08-20T06:14:22Z</time>
      </trkpt>
      <trkpt lat="44.46455" lon="3.87301">
        <ele>732</ele>
        <time>2020-08-20T06:15:12Z</time>
      </trkpt>
      <trkpt lat="44.46503" lon="3.87183">
        <ele>734</ele>
        <time>2020-08-20T06:15:52Z</time>
      </trkpt>
      <trkpt lat="44.46599" lon="3.8717">
        <ele>736.2</ele>
        <time>2020-08-20T06:16:41Z</time>
      </trkpt>
      <trkpt lat="44.46678" lon="3.8711">
        <ele>737.5</ele>
        <time>2020-08-20T06:17:11Z</time>
      </trkpt>
      <trkpt lat="44.46704" lon="3.86974">
        <ele>738.5</ele>
        <time>2020-08-20T06:17:41Z</time>
      </trkpt>
      <trkpt lat="44.46723" lon="3.86835">
        <ele>739.8</ele>
        <time>2020-08-20T06:18:16Z</time>
      </trkpt>
      <trkpt lat="44.46813" lon="3.86844">
        <ele>741.8</ele>
        <time>2020-08-20T06:18:46Z</time>
      </trkpt>
      <trkpt lat="44.46917" lon="3.86791">
        <ele>746.1</ele>
        <time>2020-08-20T06:19:11Z</time>
      </trkpt>
      <trkpt lat="44.47018" lon="3.86772">
        <ele>748.1</ele>
        <time>2020-08-20T06:19:36Z</time>
      </trkpt>
      <trkpt lat="44.47067" lon="3.86894">
        <ele>749.9</ele>
        <time>2020-08-20T06:20:01Z</time>
      </trkpt>
      <trkpt lat="44.47162" lon="3.86952">
        <ele>751.4</ele>
        <time>2020-08-20T06:20:26Z</time>
      </trkpt>
      <trkpt lat="44.4726" lon="3.87038">
        <ele>752.6</ele>
        <time>2020-08-20T06:20:51Z</time>
      </trkpt>
      <trkpt lat="44.47354" lon="3.87047">
        <ele>752.9</ele>
        <time>2020-08-20T06:21:11Z</time>
      </trkpt>
      <trkpt lat="44.47416" lon="3.86952">
        <ele>753.3</ele>
        <time>2020-08-20T06:21:41Z</time>
      </trkpt>
      <trkpt lat="44.47527" lon="3.86944">
        <ele>753.9</ele>
        <time>2020-08-20T06:22:06Z</time>
      </trkpt>
      <trkpt lat="44.47615" lon="3.86874">
        <ele>754.2</ele>
        <time>2020-08-20T06:22:31Z</time>
      </trkpt>
      <trkpt lat="44.47679" lon="3.86783">
        <ele>754.4</ele>
        <time>2020-08-20T06:22:51Z</time>
      </trkpt>
      <trkpt lat="44.47712" lon="3.86664">
        <ele>754.8</ele>
        <time>2020-08-20T06:23:11Z</time>
      </trkpt>
      <trkpt lat="44.47786" lon="3.86553">
        <ele>755.4</ele>
        <time>2020-08-20T06:23:36Z</time>
      </trkpt>
      <trkpt lat="44.47784" lon="3.86416">
        <ele>755.9</ele>
        <time>2020-08-20T06:24:01Z</time>
      </trkpt>
      <trkpt lat="44.47752" lon="3.8628">
        <ele>756.3</ele>
        <time>2020-08-20T06:24:36Z</time>
      </trkpt>
      <trkpt lat="44.47677" lon="3.862">
        <ele>757.2</ele>
        <time>2020-08-20T06:25:16Z</time>
      </trkpt>
      <trkpt lat="44.47579" lon="3.86222">
        <ele>758.3</ele>
        <time>2020-08-20T06:25:56Z</time>
      </trkpt>
      <trkpt lat="44.47488" lon="3.86275">
        <ele>759.4</ele>
        <time>2020-08-20T06:26:31Z</time>
      </trkpt>
      <trkpt lat="44.47437" lon="3.86149">
        <ele>760.9</ele>
        <time>2020-08-20T06:27:11Z</time>
      </trkpt>
      <trkpt lat="44.4739" lon="3.86031">
        <ele>762.1</ele>
        <time>2020-08-20T06:27:46Z</time>
      </trkpt>
      <trkpt lat="44.47361" lon="3.85904">
        <ele>763.3</ele>
        <time>2020-08-20T06:28:21Z</time>
      </trkpt>
      <trkpt lat="44.47267" lon="3.85858">
        <ele>766.7</ele>
        <time>2020-08-20T06:29:43Z</time>
      </trkpt>
      <trkpt lat="44.47167" lon="3.8586">
        <ele>769.1</ele>
        <time>2020-08-20T06:30:17Z</time>
      </trkpt>
      <trkpt lat="44.47072" lon="3.85855">
        <ele>772.9</ele>
        <time>2020-08-20T06:30:52Z</time>
      </trkpt>
      <trkpt lat="44.46972" lon="3.85832">
        <ele>777.4</ele>
        <time>2020-08-20T06:31:27Z</time>
      </trkpt>
      <trkpt lat="44.46967" lon="3.85703">
        <ele>782.3</ele>
        <time>2020-08-20T06:32:12Z</time>
      </trkpt>
      <trkpt lat="44.46998" lon="3.8557">
        <ele>785.5</ele>
        <time>2020-08-20T06:32:47Z</time>
      </trkpt>
      <trkpt lat="44.4699" lon="3.85425">
        <ele>789</ele>
        <time>2020-08-20T06:33:22Z</time>
      </trkpt>
      <trkpt lat="44.47029" lon="3.85296">
        <ele>792</ele>
        <time>2020-08-20T06:33:57Z</time>
      </trkpt>
      <trkpt lat="44.47121" lon="3.8524">
        <ele>794.9</ele>
        <time>2020-08-20T06:34:32Z</time>
      </trkpt>
      <trkpt lat="44.4719" lon="3.85148">
        <ele>797.4</ele>
        <time>2020-08-20T06:35:07Z</time>
      </trkpt>
      <trkpt lat="44.47176" lon="3.85005">
        <ele>799.6</ele>
        <time>2020-08-20T06:35:42Z</time>
      </trkpt>
      <trkpt lat="44.47096" lon="3.84927">
        <ele>802</ele>
        <time>2020-08-20T06:36:17Z</time>
      </trkpt>
      <trkpt lat="44.47063" lon="3.848">
        <ele>804.3</ele>
        <time>2020-08-20T06:36:52Z</time>
      </trkpt>
      <trkpt lat="44.4706" lon="3.84669">
        <ele>806.5</ele>
        <time>2020-08-20T06:37:32Z</time>
      </trkpt>
      <trkpt lat="44.47073" lon="3.84532">
        <ele>808.1</ele>
        <time>2020-08-20T06:38:07Z</time>
      </trkpt>
      <trkpt lat="44.47009" lon="3.84416">
        <ele>809.6</ele>
        <time>2020-08-20T06:38:42Z</time>
      </trkpt>
      <trkpt lat="44.47025" lon="3.84291">
        <ele>812</ele>
        <time>2020-08-20T06:39:32Z</time>
      </trkpt>
      <trkpt lat="44.47119" lon="3.84349">
        <ele>813.6</ele>
        <time>2020-08-20T06:40:12Z</time>
      </trkpt>
      <trkpt lat="44.47208" lon="3.84377">
        <ele>814.8</ele>
        <time>2020-08-20T06:40:42Z</time>
      </trkpt>
      <trkpt lat="44.47265" lon="3.84266">
        <ele>816.3</ele>
        <time>2020-08-20T06:41:17Z</time>
      </trkpt>
      <trkpt lat="44.47319" lon="3.84154">
        <ele>818.1</ele>
        <time>2020-08-20T06:41:57Z</time>
      </trkpt>
      <trkpt lat="44.47414" lon="3.84179">
        <ele>819.7</ele>
        <time>2020-08-20T06:42:32Z</time>
      </trkpt>
      <trkpt lat="44.47511" lon="3.84144">
        <ele>821.3</ele>
        <time>2020-08-20T06:43:07Z</time>
      </trkpt>
      <trkpt lat="44.4761" lon="3.84163">
        <ele>823</ele>
        <time>2020-08-20T06:43:43Z</time>
      </trkpt>
      <trkpt lat="44.47562" lon="3.84036">
        <ele>825.3</ele>
        <time>2020-08-20T06:44:28Z</time>
      </trkpt>
      <trkpt lat="44.47542" lon="3.83896">
        <ele>827.5</ele>
        <time>2020-08-20T06:45:08Z</time>
      </trkpt>
      <trkpt lat="44.47632" lon="3.83946">
        <ele>831.1</ele>
        <time>2020-08-20T06:46:23Z</time>
      </trkpt>
      <trkpt lat="44.47724" lon="3.83975">
        <ele>832.3</ele>
        <time>2020-08-20T06:46:58Z</time>
      </trkpt>
      <trkpt lat="44.47819" lon="3.83937">
        <ele>833.6</ele>
        <time>2020-08-20T06:47:33Z</time>
      </trkpt>
      <trkpt lat="44.47897" lon="3.84031">
        <ele>835.3</ele>
        <time>2020-08-20T06:48:13Z</time>
      </trkpt>
      <trkpt lat="44.47993" lon="3.84044">
        <ele>837.9</ele>
        <time>2020-08-20T06:48:48Z</time>
      </trkpt>
      <trkpt lat="44.48083" lon="3.84025">
        <ele>842.4</ele>
        <time>2020-08-20T06:49:23Z</time>
      </trkpt>
      <trkpt lat="44.48158" lon="3.83949">
        <ele>847.4</ele>
        <time>2020-08-20T06:49:58Z</time>
      </trkpt>
      <trkpt lat="44.48239" lon="3.83887">
        <ele>851.8</ele>
        <time>2020-08-20T06:50:33Z</time>
      </trkpt>
      <trkpt lat="44.48335" lon="3.83875">
        <ele>855.1</ele>
        <time>2020-08-20T06:51:08Z</time>
      </trkpt>
      <trkpt lat="44.4842" lon="3.83835">
        <ele>857.3</ele>
        <time>2020-08-20T06:51:38Z</time>
      </trkpt>
      <trkpt lat="44.48494" lon="3.83755">
        <ele>859.4</ele>
        <time>2020-08-20T06:52:13Z</time>
      </trkpt>
      <trkpt lat="44.48597" lon="3.83737">
        <ele>861.8</ele>
        <time>2020-08-20T06:52:48Z</time>
      </trkpt>
      <trkpt lat="44.48686" lon="3.83657">
        <ele>869.6</ele>
        <time>2020-08-20T06:53:13Z</time>
      </trkpt>
      <trkpt lat="44.48786" lon="3.83616">
        <ele>873.4</ele>
        <time>2020-08-20T06:53:38Z</time>
      </trkpt>
      <trkpt lat="44.48837" lon="3.83492">
        <ele>876</ele>
        <time>2020-08-20T06:54:03Z</time>
      </trkpt>
      <trkpt lat="44.48892" lon="3.83388">
        <ele>876.9</ele>
        <time>2020-08-20T06:54:23Z</time>
      </trkpt>
      <trkpt lat="44.4894" lon="3.83284">
        <ele>877</ele>
        <time>2020-08-20T06:54:48Z</time>
      </trkpt>
      <trkpt lat="44.4892" lon="3.83156">
        <ele>877.5</ele>
        <time>2020-08-20T06:55:18Z</time>
      </trkpt>
      <trkpt lat="44.48885" lon="3.83028">
        <ele>878.4</ele>
        <time>2020-08-20T06:55:48Z</time>
      </trkpt>
      <trkpt lat="44.48881" lon="3.82882">
        <ele>879.4</ele>
        <time>2020-08-20T06:56:18Z</time>
      </trkpt>
      <trkpt lat="44.48876" lon="3.82754">
        <ele>881.4</ele>
        <time>2020-08-20T06:56:42Z</time>
      </trkpt>
      <trkpt lat="44.48838" lon="3.82615">
        <ele>881.7</ele>
        <time>2020-08-20T06:57:12Z</time>
      </trkpt>
      <trkpt lat="44.48754" lon="3.82527">
        <ele>882.5</ele>
        <time>2020-08-20T06:57:47Z</time>
      </trkpt>
      <trkpt lat="44.48728" lon="3.8239">
        <ele>884</ele>
        <time>2020-08-20T06:58:32Z</time>
      </trkpt>
      <trkpt lat="44.48709" lon="3.8226">
        <ele>885.2</ele>
        <time>2020-08-20T06:59:02Z</time>
      </trkpt>
      <trkpt lat="44.48619" lon="3.82203">
        <ele>886.6</ele>
        <time>2020-08-20T06:59:37Z</time>
      </trkpt>
      <trkpt lat="44.48552" lon="3.82112">
        <ele>888.1</ele>
        <time>2020-08-20T07:00:17Z</time>
      </trkpt>
      <trkpt lat="44.48566" lon="3.81973">
        <ele>889</ele>
        <time>2020-08-20T07:00:47Z</time>
      </trkpt>
      <trkpt lat="44.48533" lon="3.81837">
        <ele>889.9</ele>
        <time>2020-08-20T07:01:17Z</time>
      </trkpt>
      <trkpt lat="44.48444" lon="3.81779">
        <ele>890.7</ele>
        <time>2020-08-20T07:01:47Z</time>
      </trkpt>
      <trkpt lat="44.48354" lon="3.8178">
        <ele>891.7</ele>
        <time>2020-08-20T07:02:12Z</time>
      </trkpt>
      <trkpt lat="44.48318" lon="3.81659">
        <ele>893.1</ele>
        <time>2020-08-20T07:02:42Z</time>
      </trkpt>
      <trkpt lat="44.48265" lon="3.81542">
        <ele>894.4</ele>
        <time>2020-08-20T07:03:12Z</time>
      </trkpt>
      <trkpt lat="44.48215" lon="3.8141">
        <ele>895.7</ele>
        <time>2020-08-20T07:03:42Z</time>
      </trkpt>
      <trkpt lat="44.48263" lon="3.81281">
        <ele>897.8</ele>
        <time>2020-08-20T07:04:12Z</time>
      </trkpt>
      <trkpt lat="44.48306" lon="3.8115">
        <ele>898.6</ele>
        <time>2020-08-20T07:04:42Z</time>
      </trkpt>
      <trkpt lat="44.48256" lon="3.81019">
        <ele>900</ele>
        <time>2020-08-20T07:05:12Z</time>
      </trkpt>
      <trkpt lat="44.48286" lon="3.80875">
        <ele>901</ele>
        <time>2020-08-20T07:05:47Z</time>
      </trkpt>
      <trkpt lat="44.48319" lon="3.80759">
        <ele>901.7</ele>
        <time>2020-08-20T07:06:12Z</time>
      </trkpt>
      <trkpt lat="44.48364" lon="3.80633">
        <ele>902.7</ele>
        <time>2020-08-20T07:06:42Z</time>
      </trkpt>
      <trkpt lat="44.48438" lon="3.8054">
        <ele>903.6</ele>
        <time>2020-08-20T07:07:12Z</time>
      </trkpt>
      <trkpt lat="44.48521" lon="3.80477">
        <ele>904.5</ele>
        <time>2020-08-20T07:07:42Z</time>
      </trkpt>
      <trkpt lat="44.48614" lon="3.8042">
        <ele>905.1</ele>
        <time>2020-08-20T07:08:12Z</time>
      </trkpt>
      <trkpt lat="44.48691" lon="3.80323">
        <ele>906</ele>
        <time>2020-08-20T07:08:42Z</time>
      </trkpt>
      <trkpt lat="44.48722" lon="3.80201">
        <ele>907.1</ele>
        <time>2020-08-20T07:09:12Z</time>
      </trkpt>
      <trkpt lat="44.48805" lon="3.80135">
        <ele>909.5</ele>
        <time>2020-08-20T07:10:15Z</time>
      </trkpt>
      <trkpt lat="44.4886" lon="3.80028">
        <ele>911.6</ele>
        <time>2020-08-20T07:11:08Z</time>
      </trkpt>
      <trkpt lat="44.48838" lon="3.79894">
        <ele>913.9</ele>
        <time>2020-08-20T07:12:04Z</time>
      </trkpt>
      <trkpt lat="44.4881" lon="3.79765">
        <ele>915.6</ele>
        <time>2020-08-20T07:12:50Z</time>
      </trkpt>
      <trkpt lat="44.48865" lon="3.79667">
        <ele>928.2</ele>
        <time>2020-08-20T07:19:43Z</time>
      </trkpt>
      <trkpt lat="44.489" lon="3.79545">
        <ele>930.6</ele>
        <time>2020-08-20T07:20:28Z</time>
      </trkpt>
      <trkpt lat="44.48859" lon="3.79419">
        <ele>932.3</ele>
        <time>2020-08-20T07:21:18Z</time>
      </trkpt>
      <trkpt lat="44.48864" lon="3.79284">
        <ele>933.8</ele>
        <time>2020-08-20T07:22:09Z</time>
      </trkpt>
      <trkpt lat="44.48835" lon="3.79161">
        <ele>935.3</ele>
        <time>2020-08-20T07:22:56Z</time>
      </trkpt>
      <trkpt lat="44.48778" lon="3.79053">
        <ele>936.9</ele>
        <time>2020-08-20T07:23:41Z</time>
      </trkpt>
      <trkpt lat="44.48832" lon="3.78954">
        <ele>939.1</ele>
        <time>2020-08-20T07:24:36Z</time>
      </trkpt>
      <trkpt lat="44.48874" lon="3.78845">
        <ele>940.8</ele>
        <time>2020-08-20T07:25:24Z</time>
      </trkpt>
      <trkpt lat="44.48855" lon="3.78712">
        <ele>942.2</ele>
        <time>2020-08-20T07:26:10Z</time>
      </trkpt>
      <trkpt lat="44.48916" lon="3.78615">
        <ele>943.6</ele>
        <time>2020-08-20T07:26:55Z</time>
      </trkpt>
      <trkpt lat="44.48994" lon="3.78535">
        <ele>945.5</ele>
        <time>2020-08-20T07:27:40Z</time>
      </trkpt>
      <trkpt lat="44.48952" lon="3.78419">
        <ele>948.6</ele>
        <time>2020-08-20T07:28:41Z</time>
      </trkpt>
      <trkpt lat="44.48871" lon="3.78471">
        <ele>953.8</ele>
        <time>2020-08-20T07:29:22Z</time>
      </trkpt>
      <trkpt lat="44.48776" lon="3.78483">
        <ele>971</ele>
        <time>2020-08-20T07:30:19Z</time>
      </trkpt>
      <trkpt lat="44.48691" lon="3.78407">
        <ele>984.1</ele>
        <time>2020-08-20T07:31:14Z</time>
      </trkpt>
      <trkpt lat="44.48612" lon="3.78326">
        <ele>992.1</ele>
        <time>2020-08-20T07:32:04Z</time>
      </trkpt>
      <trkpt lat="44.48546" lon="3.7822">
        <ele>997.6</ele>
        <time>2020-08-20T07:32:56Z</time>
      </trkpt>
      <trkpt lat="44.48451" lon="3.7821">
        <ele>1002</ele>
        <time>2020-08-20T07:33:47Z</time>
      </trkpt>
      <trkpt lat="44.4838" lon="3.78294">
        <ele>1005.8</ele>
        <time>2020-08-20T07:34:33Z</time>
      </trkpt>
      <trkpt lat="44.48289" lon="3.78286">
        <ele>1009.9</ele>
        <time>2020-08-20T07:35:29Z</time>
      </trkpt>
      <trkpt lat="44.48208" lon="3.78204">
        <ele>1013.2</ele>
        <time>2020-08-20T07:36:26Z</time>
      </trkpt>
      <trkpt lat="44.48114" lon="3.78164">
        <ele>1016.1</ele>
        <time>2020-08-20T07:37:19Z</time>
      </trkpt>
      <trkpt lat="44.48105" lon="3.78028">
        <ele>1018.7</ele>
        <time>2020-08-20T07:38:11Z</time>
      </trkpt>
      <trkpt lat="44.48139" lon="3.77901">
        <ele>1021.4</ele>
        <time>2020-08-20T07:39:05Z</time>
      </trkpt>
      <trkpt lat="44.48055" lon="3.77838">
        <ele>1024.5</ele>
        <time>2020-08-20T07:40:03Z</time>
      </trkpt>
      <trkpt lat="44.47985" lon="3.77914">
        <ele>1027.2</ele>
        <time>2020-08-20T07:40:49Z</time>
      </trkpt>
      <trkpt lat="44.47942" lon="3.78024">
        <ele>1030.6</ele>
        <time>2020-08-20T07:41:38Z</time>
      </trkpt>
      <trkpt lat="44.47844" lon="3.78021">
        <ele>1035.1</ele>
        <time>2020-08-20T07:42:39Z</time>
      </trkpt>
      <trkpt lat="44.47752" lon="3.77974">
        <ele>1038.7</ele>
        <time>2020-08-20T07:43:30Z</time>
      </trkpt>
      <trkpt lat="44.47737" lon="3.77842">
        <ele>1042.7</ele>
        <time>2020-08-20T07:44:28Z</time>
      </trkpt>
      <trkpt lat="44.47804" lon="3.77748">
        <ele>1046.3</ele>
        <time>2020-08-20T07:45:22Z</time>
      </trkpt>
      <trkpt lat="44.47844" lon="3.77635">
        <ele>1049</ele>
        <time>2020-08-20T07:46:10Z</time>
      </trkpt>
      <trkpt lat="44.47844" lon="3.77504">
        <ele>1051.3</ele>
        <time>2020-08-20T07:46:55Z</time>
      </trkpt>
      <trkpt lat="44.47849" lon="3.77369">
        <ele>1054.9</ele>
        <time>2020-08-20T07:47:40Z</time>
      </trkpt>
      <trkpt lat="44.47835" lon="3.7724">
        <ele>1059.3</ele>
        <time>2020-08-20T07:48:25Z</time>
      </trkpt>
      <trkpt lat="44.47744" lon="3.77186">
        <ele>1063.7</ele>
        <time>2020-08-20T07:49:09Z</time>
      </trkpt>
      <trkpt lat="44.47739" lon="3.7705">
        <ele>1069.5</ele>
        <time>2020-08-20T07:50:12Z</time>
      </trkpt>
      <trkpt lat="44.47711" lon="3.76914">
        <ele>1073.7</ele>
        <time>2020-08-20T07:51:08Z</time>
      </trkpt>
      <trkpt lat="44.47718" lon="3.76778">
        <ele>1077.2</ele>
        <time>2020-08-20T07:51:53Z</time>
      </trkpt>
      <trkpt lat="44.47653" lon="3.76676">
        <ele>1081.7</ele>
        <time>2020-08-20T07:52:51Z</time>
      </trkpt>
      <trkpt lat="44.47558" lon="3.76702">
        <ele>1085.6</ele>
        <time>2020-08-20T07:53:38Z</time>
      </trkpt>
      <trkpt lat="44.47501" lon="3.76591">
        <ele>1094.3</ele>
        <time>2020-08-20T07:54:33Z</time>
      </trkpt>
      <trkpt lat="44.47516" lon="3.76465">
        <ele>1101.8</ele>
        <time>2020-08-20T07:55:18Z</time>
      </trkpt>
      <trkpt lat="44.47549" lon="3.76348">
        <ele>1106.7</ele>
        <time>2020-08-20T07:56:03Z</time>
      </trkpt>
      <trkpt lat="44.47611" lon="3.76245">
        <ele>1109.9</ele>
        <time>2020-08-20T07:56:48Z</time>
      </trkpt>
      <trkpt lat="44.47691" lon="3.76176">
        <ele>1112.4</ele>
        <time>2020-08-20T07:57:33Z</time>
      </trkpt>
      <trkpt lat="44.47775" lon="3.76116">
        <ele>1115.1</ele>
        <time>2020-08-20T07:58:18Z</time>
      </trkpt>
      <trkpt lat="44.47857" lon="3.76049">
        <ele>1117.9</ele>
        <time>2020-08-20T07:59:03Z</time>
      </trkpt>
      <trkpt lat="44.47937" lon="3.75994">
        <ele>1120.6</ele>
        <time>2020-08-20T07:59:43Z</time>
      </trkpt>
      <trkpt lat="44.48028" lon="3.75963">
        <ele>1124.6</ele>
        <time>2020-08-20T08:00:30Z</time>
      </trkpt>
      <trkpt lat="44.48111" lon="3.75912">
        <ele>1135.1</ele>
        <time>2020-08-20T08:02:07Z</time>
      </trkpt>
      <trkpt lat="44.482" lon="3.75842">
        <ele>1136.5</ele>
        <time>2020-08-20T08:02:22Z</time>
      </trkpt>
      <trkpt lat="44.48295" lon="3.75732">
        <ele>1136.4</ele>
        <time>2020-08-20T08:02:37Z</time>
      </trkpt>
      <trkpt lat="44.4841" lon="3.75643">
        <ele>1135.8</ele>
        <time>2020-08-20T08:02:52Z</time>
      </trkpt>
      <trkpt lat="44.4849" lon="3.75587">
        <ele>1135.3</ele>
        <time>2020-08-20T08:03:02Z</time>
      </trkpt>
      <trkpt lat="44.48619" lon="3.75552">
        <ele>1134.6</ele>
        <time>2020-08-20T08:03:17Z</time>
      </trkpt>
      <trkpt lat="44.48745" lon="3.75526">
        <ele>1133.5</ele>
        <time>2020-08-20T08:03:32Z</time>
      </trkpt>
      <trkpt lat="44.48866" lon="3.75527">
        <ele>1132.2</ele>
        <time>2020-08-20T08:03:47Z</time>
      </trkpt>
      <trkpt lat="44.48982" lon="3.75502">
        <ele>1130.9</ele>
        <time>2020-08-20T08:04:02Z</time>
      </trkpt>
      <trkpt lat="44.49077" lon="3.75414">
        <ele>1129.4</ele>
        <time>2020-08-20T08:04:17Z</time>
      </trkpt>
      <trkpt lat="44.49139" lon="3.75319">
        <ele>1128.6</ele>
        <time>2020-08-20T08:04:32Z</time>
      </trkpt>
      <trkpt lat="44.49176" lon="3.75202">
        <ele>1128.4</ele>
        <time>2020-08-20T08:04:47Z</time>
      </trkpt>
      <trkpt lat="44.49214" lon="3.75072">
        <ele>1127</ele>
        <time>2020-08-20T08:05:02Z</time>
      </trkpt>
      <trkpt lat="44.49222" lon="3.7493">
        <ele>1126.2</ele>
        <time>2020-08-20T08:05:17Z</time>
      </trkpt>
      <trkpt lat="44.49198" lon="3.74785">
        <ele>1125.5</ele>
        <time>2020-08-20T08:05:32Z</time>
      </trkpt>
      <trkpt lat="44.4916" lon="3.74655">
        <ele>1124.5</ele>
        <time>2020-08-20T08:05:47Z</time>
      </trkpt>
      <trkpt lat="44.49089" lon="3.74547">
        <ele>1123</ele>
        <time>2020-08-20T08:06:02Z</time>
      </trkpt>
      <trkpt lat="44.49115" lon="3.74409">
        <ele>1121.6</ele>
        <time>2020-08-20T08:06:17Z</time>
      </trkpt>
      <trkpt lat="44.49135" lon="3.74269">
        <ele>1119.8</ele>
        <time>2020-08-20T08:06:32Z</time>
      </trkpt>
      <trkpt lat="44.49123" lon="3.74126">
        <ele>1118.3</ele>
        <time>2020-08-20T08:06:47Z</time>
      </trkpt>
      <trkpt lat="44.49053" lon="3.74021">
        <ele>1117</ele>
        <time>2020-08-20T08:07:07Z</time>
      </trkpt>
      <trkpt lat="44.48977" lon="3.73933">
        <ele>1113.5</ele>
        <time>2020-08-20T08:20:58Z</time>
      </trkpt>
      <trkpt lat="44.48904" lon="3.73834">
        <ele>1112.8</ele>
        <time>2020-08-20T08:21:23Z</time>
      </trkpt>
      <trkpt lat="44.48867" lon="3.73698">
        <ele>1112.5</ele>
        <time>2020-08-20T08:21:53Z</time>
      </trkpt>
      <trkpt lat="44.48803" lon="3.73586">
        <ele>1112.2</ele>
        <time>2020-08-20T08:22:13Z</time>
      </trkpt>
      <trkpt lat="44.48715" lon="3.73498">
        <ele>1111.9</ele>
        <time>2020-08-20T08:22:33Z</time>
      </trkpt>
      <trkpt lat="44.48626" lon="3.73444">
        <ele>1111.6</ele>
        <time>2020-08-20T08:22:53Z</time>
      </trkpt>
      <trkpt lat="44.48564" lon="3.73329">
        <ele>1111.7</ele>
        <time>2020-08-20T08:23:28Z</time>
      </trkpt>
      <trkpt lat="44.48484" lon="3.73249">
        <ele>1111.8</ele>
        <time>2020-08-20T08:24:27Z</time>
      </trkpt>
      <trkpt lat="44.48391" lon="3.73205">
        <ele>1112.3</ele>
        <time>2020-08-20T08:25:12Z</time>
      </trkpt>
      <trkpt lat="44.48301" lon="3.7316">
        <ele>1113.1</ele>
        <time>2020-08-20T08:25:52Z</time>
      </trkpt>
      <trkpt lat="44.48217" lon="3.7308">
        <ele>1114.1</ele>
        <time>2020-08-20T08:26:32Z</time>
      </trkpt>
      <trkpt lat="44.48126" lon="3.73012">
        <ele>1115.2</ele>
        <time>2020-08-20T08:27:12Z</time>
      </trkpt>
      <trkpt lat="44.48037" lon="3.72976">
        <ele>1116.1</ele>
        <time>2020-08-20T08:27:42Z</time>
      </trkpt>
      <trkpt lat="44.47936" lon="3.72931">
        <ele>1117.1</ele>
        <time>2020-08-20T08:28:12Z</time>
      </trkpt>
      <trkpt lat="44.47844" lon="3.72868">
        <ele>1118.3</ele>
        <time>2020-08-20T08:28:42Z</time>
      </trkpt>
      <trkpt lat="44.47761" lon="3.72808">
        <ele>1120.3</ele>
        <time>2020-08-20T08:29:07Z</time>
      </trkpt>
      <trkpt lat="44.47655" lon="3.72745">
        <ele>1121.7</ele>
        <time>2020-08-20T08:29:32Z</time>
      </trkpt>
      <trkpt lat="44.47546" lon="3.72755">
        <ele>1122.7</ele>
        <time>2020-08-20T08:29:52Z</time>
      </trkpt>
      <trkpt lat="44.47453" lon="3.72756">
        <ele>1123.7</ele>
        <time>2020-08-20T08:30:12Z</time>
      </trkpt>
      <trkpt lat="44.47357" lon="3.72709">
        <ele>1124.5</ele>
        <time>2020-08-20T08:30:37Z</time>
      </trkpt>
      <trkpt lat="44.47265" lon="3.72657">
        <ele>1125.1</ele>
        <time>2020-08-20T08:31:12Z</time>
      </trkpt>
      <trkpt lat="44.4718" lon="3.72716">
        <ele>1126.5</ele>
        <time>2020-08-20T08:31:52Z</time>
      </trkpt>
      <trkpt lat="44.47091" lon="3.72732">
        <ele>1129</ele>
        <time>2020-08-20T08:32:45Z</time>
      </trkpt>
      <trkpt lat="44.46994" lon="3.72702">
        <ele>1132.1</ele>
        <time>2020-08-20T08:33:41Z</time>
      </trkpt>
      <trkpt lat="44.46896" lon="3.72694">
        <ele>1136.8</ele>
        <time>2020-08-20T08:34:41Z</time>
      </trkpt>
      <trkpt lat="44.46799" lon="3.72702">
        <ele>1145.5</ele>
        <time>2020-08-20T08:35:40Z</time>
      </trkpt>
      <trkpt lat="44.467" lon="3.72711">
        <ele>1157.1</ele>
        <time>2020-08-20T08:36:37Z</time>
      </trkpt>
      <trkpt lat="44.46611" lon="3.72653">
        <ele>1166.7</ele>
        <time>2020-08-20T08:37:34Z</time>
      </trkpt>
      <trkpt lat="44.46523" lon="3.7261">
        <ele>1173.7</ele>
        <time>2020-08-20T08:38:27Z</time>
      </trkpt>
      <trkpt lat="44.46431" lon="3.72585">
        <ele>1182.1</ele>
        <time>2020-08-20T08:39:40Z</time>
      </trkpt>
      <trkpt lat="44.46343" lon="3.7254">
        <ele>1189.2</ele>
        <time>2020-08-20T08:40:42Z</time>
      </trkpt>
      <trkpt lat="44.46274" lon="3.72632">
        <ele>1196.7</ele>
        <time>2020-08-20T08:41:46Z</time>
      </trkpt>
      <trkpt lat="44.46205" lon="3.7271">
        <ele>1204.6</ele>
        <time>2020-08-20T08:42:36Z</time>
      </trkpt>
      <trkpt lat="44.46112" lon="3.72716">
        <ele>1215.9</ele>
        <time>2020-08-20T08:43:33Z</time>
      </trkpt>
      <trkpt lat="44.46016" lon="3.72741">
        <ele>1224.7</ele>
        <time>2020-08-20T08:44:34Z</time>
      </trkpt>
      <trkpt lat="44.45931" lon="3.72785">
        <ele>1231.3</ele>
        <time>2020-08-20T08:45:32Z</time>
      </trkpt>
      <trkpt lat="44.45889" lon="3.72901">
        <ele>1236.3</ele>
        <time>2020-08-20T08:46:31Z</time>
      </trkpt>
      <trkpt lat="44.45822" lon="3.72995">
        <ele>1240.7</ele>
        <time>2020-08-20T08:47:36Z</time>
      </trkpt>
      <trkpt lat="44.45791" lon="3.73124">
        <ele>1244.3</ele>
        <time>2020-08-20T08:48:40Z</time>
      </trkpt>
      <trkpt lat="44.45774" lon="3.73258">
        <ele>1247.6</ele>
        <time>2020-08-20T08:49:45Z</time>
      </trkpt>
      <trkpt lat="44.45757" lon="3.73391">
        <ele>1251.5</ele>
        <time>2020-08-20T08:50:53Z</time>
      </trkpt>
      <trkpt lat="44.45823" lon="3.73488">
        <ele>1255.2</ele>
        <time>2020-08-20T08:52:00Z</time>
      </trkpt>
      <trkpt lat="44.45734" lon="3.73506">
        <ele>1262.9</ele>
        <time>2020-08-20T08:53:12Z</time>
      </trkpt>
      <trkpt lat="44.45685" lon="3.7362">
        <ele>1273.1</ele>
        <time>2020-08-20T08:54:20Z</time>
      </trkpt>
      <trkpt lat="44.45695" lon="3.73752">
        <ele>1283.5</ele>
        <time>2020-08-20T08:55:22Z</time>
      </trkpt>
      <trkpt lat="44.45686" lon="3.73882">
        <ele>1294.1</ele>
        <time>2020-08-20T08:56:31Z</time>
      </trkpt>
      <trkpt lat="44.45693" lon="3.74019">
        <ele>1301.2</ele>
        <time>2020-08-20T08:57:40Z</time>
      </trkpt>
      <trkpt lat="44.4568" lon="3.74144">
        <ele>1305.7</ele>
        <time>2020-08-20T08:58:34Z</time>
      </trkpt>
      <trkpt lat="44.45596" lon="3.7407">
        <ele>1314.6</ele>
        <time>2020-08-20T09:00:20Z</time>
      </trkpt>
      <trkpt lat="44.45554" lon="3.73948">
        <ele>1324.4</ele>
        <time>2020-08-20T09:01:16Z</time>
      </trkpt>
      <trkpt lat="44.45493" lon="3.73842">
        <ele>1334.1</ele>
        <time>2020-08-20T09:02:16Z</time>
      </trkpt>
      <trkpt lat="44.45406" lon="3.73897">
        <ele>1342.7</ele>
        <time>2020-08-20T09:03:24Z</time>
      </trkpt>
      <trkpt lat="44.45316" lon="3.73937">
        <ele>1350.6</ele>
        <time>2020-08-20T09:04:31Z</time>
      </trkpt>
      <trkpt lat="44.45239" lon="3.74011">
        <ele>1359.4</ele>
        <time>2020-08-20T09:05:33Z</time>
      </trkpt>
      <trkpt lat="44.45162" lon="3.74094">
        <ele>1368.8</ele>
        <time>2020-08-20T09:06:35Z</time>
      </trkpt>
      <trkpt lat="44.45096" lon="3.7419">
        <ele>1378.5</ele>
        <time>2020-08-20T09:07:42Z</time>
      </trkpt>
      <trkpt lat="44.45108" lon="3.74321">
        <ele>1386.8</ele>
        <time>2020-08-20T09:08:47Z</time>
      </trkpt>
      <trkpt lat="44.45027" lon="3.74375">
        <ele>1400.1</ele>
        <time>2020-08-20T09:11:09Z</time>
      </trkpt>
      <trkpt lat="44.45083" lon="3.74487">
        <ele>1406</ele>
        <time>2020-08-20T09:12:13Z</time>
      </trkpt>
      <trkpt lat="44.45122" lon="3.74614">
        <ele>1412.2</ele>
        <time>2020-08-20T09:13:22Z</time>
      </trkpt>
      <trkpt lat="44.45172" lon="3.74724">
        <ele>1418</ele>
        <time>2020-08-20T09:14:24Z</time>
      </trkpt>
      <trkpt lat="44.45083" lon="3.74764">
        <ele>1425.7</ele>
        <time>2020-08-20T09:15:39Z</time>
      </trkpt>
      <trkpt lat="44.4499" lon="3.74735">
        <ele>1431.7</ele>
        <time>2020-08-20T09:16:40Z</time>
      </trkpt>
      <trkpt lat="44.44895" lon="3.74707">
        <ele>1439.2</ele>
        <time>2020-08-20T09:17:51Z</time>
      </trkpt>
      <trkpt lat="44.44798" lon="3.74691">
        <ele>1448.3</ele>
        <time>2020-08-20T09:19:02Z</time>
      </trkpt>
      <trkpt lat="44.44703" lon="3.74706">
        <ele>1459</ele>
        <time>2020-08-20T09:20:15Z</time>
      </trkpt>
      <trkpt lat="44.44619" lon="3.74767">
        <ele>1474.1</ele>
        <time>2020-08-20T09:21:36Z</time>
      </trkpt>
      <trkpt lat="44.44534" lon="3.74823">
        <ele>1490.7</ele>
        <time>2020-08-20T09:23:21Z</time>
      </trkpt>
      <trkpt lat="44.44449" lon="3.74878">
        <ele>1500.5</ele>
        <time>2020-08-20T09:25:09Z</time>
      </trkpt>
      <trkpt lat="44.44366" lon="3.74942">
        <ele>1507</ele>
        <time>2020-08-20T09:26:21Z</time>
      </trkpt>
      <trkpt lat="44.44292" lon="3.75027">
        <ele>1512.5</ele>
        <time>2020-08-20T09:27:27Z</time>
      </trkpt>
      <trkpt lat="44.44223" lon="3.75111">
        <ele>1516.9</ele>
        <time>2020-08-20T09:28:21Z</time>
      </trkpt>
      <trkpt lat="44.44141" lon="3.75163">
        <ele>1520</ele>
        <time>2020-08-20T09:29:02Z</time>
      </trkpt>
      <trkpt lat="44.44049" lon="3.75186">
        <ele>1523</ele>
        <time>2020-08-20T09:29:47Z</time>
      </trkpt>
      <trkpt lat="44.43956" lon="3.75179">
        <ele>1525.3</ele>
        <time>2020-08-20T09:30:27Z</time>
      </trkpt>
      <trkpt lat="44.43861" lon="3.75186">
        <ele>1527.1</ele>
        <time>2020-08-20T09:31:07Z</time>
      </trkpt>
      <trkpt lat="44.43779" lon="3.75235">
        <ele>1529.2</ele>
        <time>2020-08-20T09:31:53Z</time>
      </trkpt>
      <trkpt lat="44.43701" lon="3.75298">
        <ele>1531.5</ele>
        <time>2020-08-20T09:32:33Z</time>
      </trkpt>
      <trkpt lat="44.43607" lon="3.75317">
        <ele>1533.7</ele>
        <time>2020-08-20T09:33:18Z</time>
      </trkpt>
      <trkpt lat="44.43524" lon="3.75389">
        <ele>1535.6</ele>
        <time>2020-08-20T09:34:03Z</time>
      </trkpt>
      <trkpt lat="44.43458" lon="3.75485">
        <ele>1537.5</ele>
        <time>2020-08-20T09:34:43Z</time>
      </trkpt>
      <trkpt lat="44.43384" lon="3.75564">
        <ele>1539.6</ele>
        <time>2020-08-20T09:35:23Z</time>
      </trkpt>
      <trkpt lat="44.43353" lon="3.75695">
        <ele>1541.9</ele>
        <time>2020-08-20T09:36:08Z</time>
      </trkpt>
      <trkpt lat="44.43355" lon="3.75835">
        <ele>1543.2</ele>
        <time>2020-08-20T09:36:43Z</time>
      </trkpt>
      <trkpt lat="44.43312" lon="3.75961">
        <ele>1544.4</ele>
        <time>2020-08-20T09:37:23Z</time>
      </trkpt>
      <trkpt lat="44.43269" lon="3.76077">
        <ele>1545.5</ele>
        <time>2020-08-20T09:37:58Z</time>
      </trkpt>
      <trkpt lat="44.43252" lon="3.76208">
        <ele>1546.6</ele>
        <time>2020-08-20T09:38:33Z</time>
      </trkpt>
      <trkpt lat="44.43242" lon="3.76334">
        <ele>1547.4</ele>
        <time>2020-08-20T09:39:03Z</time>
      </trkpt>
      <trkpt lat="44.43172" lon="3.76423">
        <ele>1548.6</ele>
        <time>2020-08-20T09:39:38Z</time>
      </trkpt>
      <trkpt lat="44.43099" lon="3.76497">
        <ele>1550.1</ele>
        <time>2020-08-20T09:40:18Z</time>
      </trkpt>
      <trkpt lat="44.43006" lon="3.76509">
        <ele>1551.3</ele>
        <time>2020-08-20T09:41:05Z</time>
      </trkpt>
      <trkpt lat="44.42915" lon="3.76472">
        <ele>1552.4</ele>
        <time>2020-08-20T09:41:51Z</time>
      </trkpt>
      <trkpt lat="44.42822" lon="3.76459">
        <ele>1553.2</ele>
        <time>2020-08-20T09:42:31Z</time>
      </trkpt>
      <trkpt lat="44.42731" lon="3.76471">
        <ele>1553.8</ele>
        <time>2020-08-20T09:43:01Z</time>
      </trkpt>
      <trkpt lat="44.42649" lon="3.76531">
        <ele>1555.1</ele>
        <time>2020-08-20T09:43:48Z</time>
      </trkpt>
      <trkpt lat="44.42553" lon="3.76547">
        <ele>1557</ele>
        <time>2020-08-20T09:44:49Z</time>
      </trkpt>
      <trkpt lat="44.42482" lon="3.76632">
        <ele>1558.8</ele>
        <time>2020-08-20T09:45:48Z</time>
      </trkpt>
      <trkpt lat="44.42458" lon="3.76769">
        <ele>1560.2</ele>
        <time>2020-08-20T09:46:23Z</time>
      </trkpt>
      <trkpt lat="44.42402" lon="3.76871">
        <ele>1562.6</ele>
        <time>2020-08-20T09:47:03Z</time>
      </trkpt>
      <trkpt lat="44.42332" lon="3.76954">
        <ele>1580</ele>
        <time>2020-08-20T09:58:48Z</time>
      </trkpt>
      <trkpt lat="44.42248" lon="3.7701">
        <ele>1581.6</ele>
        <time>2020-08-20T09:59:18Z</time>
      </trkpt>
      <trkpt lat="44.42138" lon="3.77019">
        <ele>1582.2</ele>
        <time>2020-08-20T09:59:43Z</time>
      </trkpt>
      <trkpt lat="44.42027" lon="3.77029">
        <ele>1582.1</ele>
        <time>2020-08-20T10:00:03Z</time>
      </trkpt>
      <trkpt lat="44.41914" lon="3.77064">
        <ele>1582</ele>
        <time>2020-08-20T10:00:23Z</time>
      </trkpt>
      <trkpt lat="44.41826" lon="3.77112">
        <ele>1581.7</ele>
        <time>2020-08-20T10:00:38Z</time>
      </trkpt>
      <trkpt lat="44.41737" lon="3.77186">
        <ele>1579.9</ele>
        <time>2020-08-20T10:00:53Z</time>
      </trkpt>
      <trkpt lat="44.41631" lon="3.77239">
        <ele>1572.9</ele>
        <time>2020-08-20T10:01:08Z</time>
      </trkpt>
      <trkpt lat="44.41535" lon="3.77306">
        <ele>1568.6</ele>
        <time>2020-08-20T10:01:23Z</time>
      </trkpt>
      <trkpt lat="44.41442" lon="3.773">
        <ele>1563.8</ele>
        <time>2020-08-20T10:01:38Z</time>
      </trkpt>
      <trkpt lat="44.41347" lon="3.77172">
        <ele>1559.3</ele>
        <time>2020-08-20T10:01:53Z</time>
      </trkpt>
      <trkpt lat="44.41262" lon="3.77119">
        <ele>1554.7</ele>
        <time>2020-08-20T10:02:03Z</time>
      </trkpt>
      <trkpt lat="44.4117" lon="3.77132">
        <ele>1544.6</ele>
        <time>2020-08-20T10:02:13Z</time>
      </trkpt>
      <trkpt lat="44.41078" lon="3.77131">
        <ele>1535.5</ele>
        <time>2020-08-20T10:02:23Z</time>
      </trkpt>
      <trkpt lat="44.40957" lon="3.7707">
        <ele>1541.8</ele>
        <time>2020-08-20T10:02:38Z</time>
      </trkpt>
      <trkpt lat="44.40882" lon="3.76923">
        <ele>1534.1</ele>
        <time>2020-08-20T10:02:53Z</time>
      </trkpt>
      <trkpt lat="44.40858" lon="3.76796">
        <ele>1529.3</ele>
        <time>2020-08-20T10:03:03Z</time>
      </trkpt>
      <trkpt lat="44.40806" lon="3.76682">
        <ele>1526.2</ele>
        <time>2020-08-20T10:03:13Z</time>
      </trkpt>
      <trkpt lat="44.40719" lon="3.76611">
        <ele>1523</ele>
        <time>2020-08-20T10:03:23Z</time>
      </trkpt>
      <trkpt lat="44.40626" lon="3.7659">
        <ele>1519.5</ele>
        <time>2020-08-20T10:03:33Z</time>
      </trkpt>
      <trkpt lat="44.40621" lon="3.76456">
        <ele>1514.5</ele>
        <time>2020-08-20T10:03:48Z</time>
      </trkpt>
      <trkpt lat="44.40589" lon="3.76323">
        <ele>1508.2</ele>
        <time>2020-08-20T10:04:03Z</time>
      </trkpt>
      <trkpt lat="44.40494" lon="3.76304">
        <ele>1504</ele>
        <time>2020-08-20T10:04:13Z</time>
      </trkpt>
      <trkpt lat="44.40393" lon="3.76297">
        <ele>1499</ele>
        <time>2020-08-20T10:04:23Z</time>
      </trkpt>
      <trkpt lat="44.40321" lon="3.76194">
        <ele>1494</ele>
        <time>2020-08-20T10:04:33Z</time>
      </trkpt>
      <trkpt lat="44.40383" lon="3.76028">
        <ele>1483.1</ele>
        <time>2020-08-20T10:04:48Z</time>
      </trkpt>
      <trkpt lat="44.40477" lon="3.75922">
        <ele>1468.3</ele>
        <time>2020-08-20T10:05:03Z</time>
      </trkpt>
      <trkpt lat="44.40529" lon="3.75783">
        <ele>1460</ele>
        <time>2020-08-20T10:05:13Z</time>
      </trkpt>
      <trkpt lat="44.4062" lon="3.75702">
        <ele>1452.5</ele>
        <time>2020-08-20T10:05:23Z</time>
      </trkpt>
      <trkpt lat="44.40729" lon="3.75648">
        <ele>1437.3</ele>
        <time>2020-08-20T10:05:33Z</time>
      </trkpt>
      <trkpt lat="44.40795" lon="3.75539">
        <ele>1422.7</ele>
        <time>2020-08-20T10:05:43Z</time>
      </trkpt>
      <trkpt lat="44.40821" lon="3.75392">
        <ele>1415</ele>
        <time>2020-08-20T10:05:53Z</time>
      </trkpt>
      <trkpt lat="44.40857" lon="3.75239">
        <ele>1405.4</ele>
        <time>2020-08-20T10:06:03Z</time>
      </trkpt>
      <trkpt lat="44.40878" lon="3.7509">
        <ele>1399</ele>
        <time>2020-08-20T10:06:13Z</time>
      </trkpt>
      <trkpt lat="44.40764" lon="3.75063">
        <ele>1387.1</ele>
        <time>2020-08-20T10:06:28Z</time>
      </trkpt>
      <trkpt lat="44.40674" lon="3.75007">
        <ele>1381.3</ele>
        <time>2020-08-20T10:06:38Z</time>
      </trkpt>
      <trkpt lat="44.40618" lon="3.74887">
        <ele>1378.2</ele>
        <time>2020-08-20T10:06:48Z</time>
      </trkpt>
      <trkpt lat="44.40574" lon="3.74759">
        <ele>1370.2</ele>
        <time>2020-08-20T10:06:58Z</time>
      </trkpt>
      <trkpt lat="44.40586" lon="3.74626">
        <ele>1361.3</ele>
        <time>2020-08-20T10:07:08Z</time>
      </trkpt>
      <trkpt lat="44.40507" lon="3.74543">
        <ele>1345.1</ele>
        <time>2020-08-20T10:07:28Z</time>
      </trkpt>
      <trkpt lat="44.40436" lon="3.74461">
        <ele>1339</ele>
        <time>2020-08-20T10:07:38Z</time>
      </trkpt>
      <trkpt lat="44.40394" lon="3.74625">
        <ele>1318</ele>
        <time>2020-08-20T10:08:03Z</time>
      </trkpt>
      <trkpt lat="44.40339" lon="3.74783">
        <ele>1311.1</ele>
        <time>2020-08-20T10:08:18Z</time>
      </trkpt>
      <trkpt lat="44.40254" lon="3.74821">
        <ele>1301</ele>
        <time>2020-08-20T10:08:28Z</time>
      </trkpt>
      <trkpt lat="44.40174" lon="3.74874">
        <ele>1295.3</ele>
        <time>2020-08-20T10:08:38Z</time>
      </trkpt>
      <trkpt lat="44.40097" lon="3.74935">
        <ele>1289</ele>
        <time>2020-08-20T10:08:48Z</time>
      </trkpt>
      <trkpt lat="44.40007" lon="3.74945">
        <ele>1281.6</ele>
        <time>2020-08-20T10:08:58Z</time>
      </trkpt>
      <trkpt lat="44.39891" lon="3.75004">
        <ele>1275</ele>
        <time>2020-08-20T10:09:13Z</time>
      </trkpt>
      <trkpt lat="44.39838" lon="3.75145">
        <ele>1270.2</ele>
        <time>2020-08-20T10:09:28Z</time>
      </trkpt>
      <trkpt lat="44.39712" lon="3.75206">
        <ele>1264.8</ele>
        <time>2020-08-20T10:09:43Z</time>
      </trkpt>
      <trkpt lat="44.39593" lon="3.75121">
        <ele>1261</ele>
        <time>2020-08-20T10:09:58Z</time>
      </trkpt>
      <trkpt lat="44.39497" lon="3.7515">
        <ele>1259.4</ele>
        <time>2020-08-20T10:10:08Z</time>
      </trkpt>
      <trkpt lat="44.39405" lon="3.75192">
        <ele>1256.6</ele>
        <time>2020-08-20T10:10:18Z</time>
      </trkpt>
      <trkpt lat="44.39275" lon="3.75214">
        <ele>1243.8</ele>
        <time>2020-08-20T10:10:33Z</time>
      </trkpt>
      <trkpt lat="44.39205" lon="3.75124">
        <ele>1238.7</ele>
        <time>2020-08-20T10:10:43Z</time>
      </trkpt>
      <trkpt lat="44.39123" lon="3.75193">
        <ele>1234.9</ele>
        <time>2020-08-20T10:10:53Z</time>
      </trkpt>
      <trkpt lat="44.39043" lon="3.75287">
        <ele>1221.6</ele>
        <time>2020-08-20T10:11:03Z</time>
      </trkpt>
      <trkpt lat="44.38939" lon="3.7534">
        <ele>1214.6</ele>
        <time>2020-08-20T10:11:13Z</time>
      </trkpt>
      <trkpt lat="44.38804" lon="3.75331">
        <ele>1205.1</ele>
        <time>2020-08-20T10:11:28Z</time>
      </trkpt>
      <trkpt lat="44.38708" lon="3.75295">
        <ele>1199</ele>
        <time>2020-08-20T10:11:38Z</time>
      </trkpt>
      <trkpt lat="44.38597" lon="3.75315">
        <ele>1191.6</ele>
        <time>2020-08-20T10:11:48Z</time>
      </trkpt>
      <trkpt lat="44.38485" lon="3.75333">
        <ele>1178.5</ele>
        <time>2020-08-20T10:11:58Z</time>
      </trkpt>
      <trkpt lat="44.3839" lon="3.75372">
        <ele>1165.6</ele>
        <time>2020-08-20T10:12:08Z</time>
      </trkpt>
      <trkpt lat="44.38337" lon="3.75492">
        <ele>1154.7</ele>
        <time>2020-08-20T10:12:18Z</time>
      </trkpt>
      <trkpt lat="44.38281" lon="3.75357">
        <ele>1141</ele>
        <time>2020-08-20T10:12:48Z</time>
      </trkpt>
      <trkpt lat="44.38175" lon="3.75272">
        <ele>1122.8</ele>
        <time>2020-08-20T10:13:03Z</time>
      </trkpt>
      <trkpt lat="44.38081" lon="3.75285">
        <ele>1118.6</ele>
        <time>2020-08-20T10:13:13Z</time>
      </trkpt>
      <trkpt lat="44.3797" lon="3.75249">
        <ele>1114.6</ele>
        <time>2020-08-20T10:13:23Z</time>
      </trkpt>
      <trkpt lat="44.37859" lon="3.75225">
        <ele>1122.5</ele>
        <time>2020-08-20T10:13:33Z</time>
      </trkpt>
      <trkpt lat="44.37753" lon="3.75195">
        <ele>1124.2</ele>
        <time>2020-08-20T10:13:43Z</time>
      </trkpt>
      <trkpt lat="44.37641" lon="3.75191">
        <ele>1108.7</ele>
        <time>2020-08-20T10:13:53Z</time>
      </trkpt>
      <trkpt lat="44.37528" lon="3.75155">
        <ele>1093.8</ele>
        <time>2020-08-20T10:14:03Z</time>
      </trkpt>
      <trkpt lat="44.37421" lon="3.75133">
        <ele>1087.1</ele>
        <time>2020-08-20T10:14:13Z</time>
      </trkpt>
      <trkpt lat="44.37306" lon="3.7511">
        <ele>1078.7</ele>
        <time>2020-08-20T10:14:23Z</time>
      </trkpt>
      <trkpt lat="44.37195" lon="3.75083">
        <ele>1063.3</ele>
        <time>2020-08-20T10:14:33Z</time>
      </trkpt>
      <trkpt lat="44.37101" lon="3.74986">
        <ele>1053.7</ele>
        <time>2020-08-20T10:14:43Z</time>
      </trkpt>
      <trkpt lat="44.37015" lon="3.749">
        <ele>1044.3</ele>
        <time>2020-08-20T10:14:53Z</time>
      </trkpt>
      <trkpt lat="44.36903" lon="3.74865">
        <ele>1036.5</ele>
        <time>2020-08-20T10:15:03Z</time>
      </trkpt>
      <trkpt lat="44.36786" lon="3.74847">
        <ele>1029.2</ele>
        <time>2020-08-20T10:15:13Z</time>
      </trkpt>
      <trkpt lat="44.36712" lon="3.74725">
        <ele>1024.1</ele>
        <time>2020-08-20T10:15:23Z</time>
      </trkpt>
      <trkpt lat="44.36604" lon="3.74691">
        <ele>1014</ele>
        <time>2020-08-20T10:15:33Z</time>
      </trkpt>
      <trkpt lat="44.36503" lon="3.74653">
        <ele>1002.4</ele>
        <time>2020-08-20T10:15:43Z</time>
      </trkpt>
      <trkpt lat="44.36413" lon="3.74656">
        <ele>996.1</ele>
        <time>2020-08-20T10:15:53Z</time>
      </trkpt>
      <trkpt lat="44.36386" lon="3.74529">
        <ele>966.9</ele>
        <time>2020-08-20T10:18:21Z</time>
      </trkpt>
      <trkpt lat="44.36328" lon="3.74625">
        <ele>963.4</ele>
        <time>2020-08-20T10:18:36Z</time>
      </trkpt>
      <trkpt lat="44.36296" lon="3.74496">
        <ele>950.6</ele>
        <time>2020-08-20T10:19:30Z</time>
      </trkpt>
      <trkpt lat="44.3632" lon="3.74358">
        <ele>944.4</ele>
        <time>2020-08-20T10:19:55Z</time>
      </trkpt>
      <trkpt lat="44.36236" lon="3.74417">
        <ele>940.9</ele>
        <time>2020-08-20T10:20:30Z</time>
      </trkpt>
      <trkpt lat="44.36183" lon="3.74525">
        <ele>946.1</ele>
        <time>2020-08-20T10:22:29Z</time>
      </trkpt>
      <trkpt lat="44.36168" lon="3.74659">
        <ele>944.4</ele>
        <time>2020-08-20T10:23:30Z</time>
      </trkpt>
    </trkseg>
  </trk>
  <trk>
    <name><![CDATA[route108]]></name>
    <trkseg>
      <trkpt lat="44.36082" lon="3.74616">
        <ele>953.7</ele>
        <time>2020-08-21T06:04:56Z</time>
      </trkpt>
      <trkpt lat="44.35993" lon="3.74579">
        <ele>956.9</ele>
        <time>2020-08-21T06:06:10Z</time>
      </trkpt>
      <trkpt lat="44.35898" lon="3.7454">
        <ele>961.1</ele>
        <time>2020-08-21T06:07:20Z</time>
      </trkpt>
      <trkpt lat="44.35802" lon="3.74519">
        <ele>964.6</ele>
        <time>2020-08-21T06:08:24Z</time>
      </trkpt>
      <trkpt lat="44.35702" lon="3.74498">
        <ele>966.8</ele>
        <time>2020-08-21T06:09:05Z</time>
      </trkpt>
      <trkpt lat="44.35611" lon="3.7446">
        <ele>970.2</ele>
        <time>2020-08-21T06:09:54Z</time>
      </trkpt>
      <trkpt lat="44.35517" lon="3.74481">
        <ele>976</ele>
        <time>2020-08-21T06:10:58Z</time>
      </trkpt>
      <trkpt lat="44.35431" lon="3.74537">
        <ele>980</ele>
        <time>2020-08-21T06:11:46Z</time>
      </trkpt>
      <trkpt lat="44.35341" lon="3.74565">
        <ele>982.5</ele>
        <time>2020-08-21T06:12:21Z</time>
      </trkpt>
      <trkpt lat="44.35261" lon="3.74625">
        <ele>986.3</ele>
        <time>2020-08-21T06:13:06Z</time>
      </trkpt>
      <trkpt lat="44.35167" lon="3.74634">
        <ele>990.1</ele>
        <time>2020-08-21T06:13:55Z</time>
      </trkpt>
      <trkpt lat="44.3507" lon="3.74605">
        <ele>993.6</ele>
        <time>2020-08-21T06:14:52Z</time>
      </trkpt>
      <trkpt lat="44.34972" lon="3.74596">
        <ele>996.1</ele>
        <time>2020-08-21T06:15:38Z</time>
      </trkpt>
      <trkpt lat="44.34882" lon="3.74612">
        <ele>997.9</ele>
        <time>2020-08-21T06:16:08Z</time>
      </trkpt>
      <trkpt lat="44.34786" lon="3.74619">
        <ele>1000.6</ele>
        <time>2020-08-21T06:16:48Z</time>
      </trkpt>
      <trkpt lat="44.34696" lon="3.74599">
        <ele>1003.3</ele>
        <time>2020-08-21T06:17:28Z</time>
      </trkpt>
      <trkpt lat="44.3461" lon="3.74649">
        <ele>1005.5</ele>
        <time>2020-08-21T06:18:03Z</time>
      </trkpt>
      <trkpt lat="44.34519" lon="3.74702">
        <ele>1007.8</ele>
        <time>2020-08-21T06:18:38Z</time>
      </trkpt>
      <trkpt lat="44.34418" lon="3.74718">
        <ele>1010.6</ele>
        <time>2020-08-21T06:19:13Z</time>
      </trkpt>
      <trkpt lat="44.34323" lon="3.74717">
        <ele>1014.7</ele>
        <time>2020-08-21T06:19:53Z</time>
      </trkpt>
      <trkpt lat="44.34233" lon="3.74712">
        <ele>1018.9</ele>
        <time>2020-08-21T06:20:42Z</time>
      </trkpt>
      <trkpt lat="44.34142" lon="3.74715">
        <ele>1022.2</ele>
        <time>2020-08-21T06:21:30Z</time>
      </trkpt>
      <trkpt lat="44.3405" lon="3.74759">
        <ele>1026</ele>
        <time>2020-08-21T06:22:31Z</time>
      </trkpt>
      <trkpt lat="44.33976" lon="3.74835">
        <ele>1027.6</ele>
        <time>2020-08-21T06:23:06Z</time>
      </trkpt>
      <trkpt lat="44.33942" lon="3.7471">
        <ele>1030.9</ele>
        <time>2020-08-21T06:24:01Z</time>
      </trkpt>
      <trkpt lat="44.3395" lon="3.74574">
        <ele>1032.7</ele>
        <time>2020-08-21T06:24:36Z</time>
      </trkpt>
      <trkpt lat="44.33935" lon="3.74437">
        <ele>1035.5</ele>
        <time>2020-08-21T06:25:11Z</time>
      </trkpt>
      <trkpt lat="44.33841" lon="3.74448">
        <ele>1036.7</ele>
        <time>2020-08-21T06:25:41Z</time>
      </trkpt>
      <trkpt lat="44.33747" lon="3.74465">
        <ele>1038.9</ele>
        <time>2020-08-21T06:26:27Z</time>
      </trkpt>
      <trkpt lat="44.33663" lon="3.74523">
        <ele>1041.5</ele>
        <time>2020-08-21T06:27:15Z</time>
      </trkpt>
      <trkpt lat="44.33566" lon="3.74544">
        <ele>1044.4</ele>
        <time>2020-08-21T06:27:58Z</time>
      </trkpt>
      <trkpt lat="44.33476" lon="3.74573">
        <ele>1047.2</ele>
        <time>2020-08-21T06:28:38Z</time>
      </trkpt>
      <trkpt lat="44.33386" lon="3.74596">
        <ele>1048.9</ele>
        <time>2020-08-21T06:29:13Z</time>
      </trkpt>
      <trkpt lat="44.3329" lon="3.74581">
        <ele>1050.4</ele>
        <time>2020-08-21T06:29:48Z</time>
      </trkpt>
      <trkpt lat="44.33199" lon="3.74546">
        <ele>1052.5</ele>
        <time>2020-08-21T06:30:29Z</time>
      </trkpt>
      <trkpt lat="44.33128" lon="3.74461">
        <ele>1055.2</ele>
        <time>2020-08-21T06:31:15Z</time>
      </trkpt>
      <trkpt lat="44.33102" lon="3.74331">
        <ele>1057.5</ele>
        <time>2020-08-21T06:31:57Z</time>
      </trkpt>
      <trkpt lat="44.33014" lon="3.74257">
        <ele>1059.6</ele>
        <time>2020-08-21T06:32:37Z</time>
      </trkpt>
      <trkpt lat="44.33009" lon="3.74118">
        <ele>1062.5</ele>
        <time>2020-08-21T06:33:24Z</time>
      </trkpt>
      <trkpt lat="44.33025" lon="3.73978">
        <ele>1064.5</ele>
        <time>2020-08-21T06:34:04Z</time>
      </trkpt>
      <trkpt lat="44.33041" lon="3.73849">
        <ele>1066.2</ele>
        <time>2020-08-21T06:34:45Z</time>
      </trkpt>
      <trkpt lat="44.33103" lon="3.73744">
        <ele>1068.1</ele>
        <time>2020-08-21T06:35:26Z</time>
      </trkpt>
      <trkpt lat="44.33152" lon="3.73618">
        <ele>1069.3</ele>
        <time>2020-08-21T06:35:56Z</time>
      </trkpt>
      <trkpt lat="44.33188" lon="3.73501">
        <ele>1071.5</ele>
        <time>2020-08-21T06:36:45Z</time>
      </trkpt>
      <trkpt lat="44.33223" lon="3.73374">
        <ele>1073.7</ele>
        <time>2020-08-21T06:37:30Z</time>
      </trkpt>
      <trkpt lat="44.33216" lon="3.73243">
        <ele>1075.2</ele>
        <time>2020-08-21T06:38:05Z</time>
      </trkpt>
      <trkpt lat="44.3321" lon="3.7311">
        <ele>1077.2</ele>
        <time>2020-08-21T06:38:56Z</time>
      </trkpt>
      <trkpt lat="44.33255" lon="3.72993">
        <ele>1079.9</ele>
        <time>2020-08-21T06:39:50Z</time>
      </trkpt>
      <trkpt lat="44.3325" lon="3.72858">
        <ele>1083.4</ele>
        <time>2020-08-21T06:40:52Z</time>
      </trkpt>
      <trkpt lat="44.33301" lon="3.72746">
        <ele>1091.2</ele>
        <time>2020-08-21T06:41:50Z</time>
      </trkpt>
      <trkpt lat="44.33315" lon="3.72614">
        <ele>1098.2</ele>
        <time>2020-08-21T06:42:39Z</time>
      </trkpt>
      <trkpt lat="44.33322" lon="3.72487">
        <ele>1106.5</ele>
        <time>2020-08-21T06:43:25Z</time>
      </trkpt>
      <trkpt lat="44.33264" lon="3.72377">
        <ele>1114.2</ele>
        <time>2020-08-21T06:44:15Z</time>
      </trkpt>
      <trkpt lat="44.33175" lon="3.72297">
        <ele>1122.6</ele>
        <time>2020-08-21T06:44:50Z</time>
      </trkpt>
      <trkpt lat="44.33099" lon="3.72215">
        <ele>1124.3</ele>
        <time>2020-08-21T06:45:15Z</time>
      </trkpt>
      <trkpt lat="44.33017" lon="3.72143">
        <ele>1124.8</ele>
        <time>2020-08-21T06:45:40Z</time>
      </trkpt>
      <trkpt lat="44.33031" lon="3.72003">
        <ele>1125.1</ele>
        <time>2020-08-21T06:46:50Z</time>
      </trkpt>
      <trkpt lat="44.33026" lon="3.71867">
        <ele>1125.8</ele>
        <time>2020-08-21T06:47:15Z</time>
      </trkpt>
      <trkpt lat="44.32942" lon="3.71774">
        <ele>1125.8</ele>
        <time>2020-08-21T06:47:40Z</time>
      </trkpt>
      <trkpt lat="44.33014" lon="3.7168">
        <ele>1125.7</ele>
        <time>2020-08-21T06:48:05Z</time>
      </trkpt>
      <trkpt lat="44.33068" lon="3.7158">
        <ele>1125.8</ele>
        <time>2020-08-21T06:48:35Z</time>
      </trkpt>
      <trkpt lat="44.33079" lon="3.71448">
        <ele>1128.3</ele>
        <time>2020-08-21T06:49:22Z</time>
      </trkpt>
      <trkpt lat="44.33162" lon="3.71376">
        <ele>1131.5</ele>
        <time>2020-08-21T06:50:01Z</time>
      </trkpt>
      <trkpt lat="44.33209" lon="3.71266">
        <ele>1131.8</ele>
        <time>2020-08-21T06:50:46Z</time>
      </trkpt>
      <trkpt lat="44.33176" lon="3.71145">
        <ele>1133.2</ele>
        <time>2020-08-21T06:51:26Z</time>
      </trkpt>
      <trkpt lat="44.3315" lon="3.71019">
        <ele>1136.6</ele>
        <time>2020-08-21T06:52:08Z</time>
      </trkpt>
      <trkpt lat="44.33212" lon="3.70899">
        <ele>1140.1</ele>
        <time>2020-08-21T06:52:38Z</time>
      </trkpt>
      <trkpt lat="44.33241" lon="3.70781">
        <ele>1140.6</ele>
        <time>2020-08-21T06:53:03Z</time>
      </trkpt>
      <trkpt lat="44.33247" lon="3.70652">
        <ele>1141.6</ele>
        <time>2020-08-21T06:53:28Z</time>
      </trkpt>
      <trkpt lat="44.33156" lon="3.70596">
        <ele>1143.1</ele>
        <time>2020-08-21T06:54:13Z</time>
      </trkpt>
      <trkpt lat="44.33056" lon="3.70603">
        <ele>1143.5</ele>
        <time>2020-08-21T06:54:43Z</time>
      </trkpt>
      <trkpt lat="44.32999" lon="3.7049">
        <ele>1144.2</ele>
        <time>2020-08-21T06:55:13Z</time>
      </trkpt>
      <trkpt lat="44.32977" lon="3.70355">
        <ele>1144.9</ele>
        <time>2020-08-21T06:55:43Z</time>
      </trkpt>
      <trkpt lat="44.32885" lon="3.70276">
        <ele>1146</ele>
        <time>2020-08-21T06:56:13Z</time>
      </trkpt>
      <trkpt lat="44.32827" lon="3.70167">
        <ele>1146.8</ele>
        <time>2020-08-21T06:56:38Z</time>
      </trkpt>
      <trkpt lat="44.32716" lon="3.70164">
        <ele>1147.2</ele>
        <time>2020-08-21T06:57:03Z</time>
      </trkpt>
      <trkpt lat="44.32614" lon="3.70189">
        <ele>1147.8</ele>
        <time>2020-08-21T06:57:23Z</time>
      </trkpt>
      <trkpt lat="44.32542" lon="3.70278">
        <ele>1148</ele>
        <time>2020-08-21T06:57:43Z</time>
      </trkpt>
      <trkpt lat="44.32473" lon="3.7036">
        <ele>1148.4</ele>
        <time>2020-08-21T06:58:03Z</time>
      </trkpt>
      <trkpt lat="44.32429" lon="3.70239">
        <ele>1148.8</ele>
        <time>2020-08-21T06:58:43Z</time>
      </trkpt>
      <trkpt lat="44.32455" lon="3.7011">
        <ele>1148.6</ele>
        <time>2020-08-21T06:59:03Z</time>
      </trkpt>
      <trkpt lat="44.32489" lon="3.69985">
        <ele>1148.5</ele>
        <time>2020-08-21T06:59:23Z</time>
      </trkpt>
      <trkpt lat="44.32545" lon="3.69861">
        <ele>1148.7</ele>
        <time>2020-08-21T06:59:48Z</time>
      </trkpt>
      <trkpt lat="44.32612" lon="3.69743">
        <ele>1149</ele>
        <time>2020-08-21T07:00:08Z</time>
      </trkpt>
      <trkpt lat="44.32677" lon="3.69631">
        <ele>1149.2</ele>
        <time>2020-08-21T07:00:28Z</time>
      </trkpt>
      <trkpt lat="44.32722" lon="3.69491">
        <ele>1149</ele>
        <time>2020-08-21T07:00:48Z</time>
      </trkpt>
      <trkpt lat="44.32751" lon="3.69353">
        <ele>1148.4</ele>
        <time>2020-08-21T07:01:13Z</time>
      </trkpt>
      <trkpt lat="44.32783" lon="3.69205">
        <ele>1148.2</ele>
        <time>2020-08-21T07:01:38Z</time>
      </trkpt>
      <trkpt lat="44.32809" lon="3.69074">
        <ele>1147.7</ele>
        <time>2020-08-21T07:02:13Z</time>
      </trkpt>
      <trkpt lat="44.32865" lon="3.68959">
        <ele>1147.9</ele>
        <time>2020-08-21T07:02:48Z</time>
      </trkpt>
      <trkpt lat="44.32828" lon="3.68835">
        <ele>1147.4</ele>
        <time>2020-08-21T07:03:34Z</time>
      </trkpt>
      <trkpt lat="44.32721" lon="3.68865">
        <ele>1147.6</ele>
        <time>2020-08-21T07:03:54Z</time>
      </trkpt>
      <trkpt lat="44.32642" lon="3.68778">
        <ele>1147.5</ele>
        <time>2020-08-21T07:04:14Z</time>
      </trkpt>
      <trkpt lat="44.3258" lon="3.68631">
        <ele>1146.9</ele>
        <time>2020-08-21T07:04:34Z</time>
      </trkpt>
      <trkpt lat="44.32499" lon="3.68568">
        <ele>1131.6</ele>
        <time>2020-08-21T07:12:14Z</time>
      </trkpt>
      <trkpt lat="44.32432" lon="3.68475">
        <ele>1126.8</ele>
        <time>2020-08-21T07:12:29Z</time>
      </trkpt>
      <trkpt lat="44.32379" lon="3.68303">
        <ele>1123.7</ele>
        <time>2020-08-21T07:12:44Z</time>
      </trkpt>
      <trkpt lat="44.32357" lon="3.68165">
        <ele>1119.9</ele>
        <time>2020-08-21T07:12:54Z</time>
      </trkpt>
      <trkpt lat="44.32376" lon="3.67975">
        <ele>1110.2</ele>
        <time>2020-08-21T07:13:09Z</time>
      </trkpt>
      <trkpt lat="44.32388" lon="3.67837">
        <ele>1102.9</ele>
        <time>2020-08-21T07:13:19Z</time>
      </trkpt>
      <trkpt lat="44.32375" lon="3.67702">
        <ele>1094.7</ele>
        <time>2020-08-21T07:13:29Z</time>
      </trkpt>
      <trkpt lat="44.32348" lon="3.67569">
        <ele>1089.8</ele>
        <time>2020-08-21T07:13:39Z</time>
      </trkpt>
      <trkpt lat="44.32339" lon="3.67421">
        <ele>1086.7</ele>
        <time>2020-08-21T07:13:49Z</time>
      </trkpt>
      <trkpt lat="44.32306" lon="3.6726">
        <ele>1082.3</ele>
        <time>2020-08-21T07:13:59Z</time>
      </trkpt>
      <trkpt lat="44.32247" lon="3.67123">
        <ele>1072.1</ele>
        <time>2020-08-21T07:14:09Z</time>
      </trkpt>
      <trkpt lat="44.32154" lon="3.67033">
        <ele>1060.1</ele>
        <time>2020-08-21T07:14:19Z</time>
      </trkpt>
      <trkpt lat="44.32116" lon="3.66912">
        <ele>1047</ele>
        <time>2020-08-21T07:14:29Z</time>
      </trkpt>
      <trkpt lat="44.32109" lon="3.66782">
        <ele>1037.5</ele>
        <time>2020-08-21T07:14:39Z</time>
      </trkpt>
      <trkpt lat="44.32018" lon="3.66658">
        <ele>1031.5</ele>
        <time>2020-08-21T07:14:54Z</time>
      </trkpt>
      <trkpt lat="44.31991" lon="3.66535">
        <ele>1023.6</ele>
        <time>2020-08-21T07:15:04Z</time>
      </trkpt>
      <trkpt lat="44.31951" lon="3.66377">
        <ele>1004</ele>
        <time>2020-08-21T07:15:19Z</time>
      </trkpt>
      <trkpt lat="44.31959" lon="3.66219">
        <ele>993.8</ele>
        <time>2020-08-21T07:15:34Z</time>
      </trkpt>
      <trkpt lat="44.31956" lon="3.66076">
        <ele>983.3</ele>
        <time>2020-08-21T07:15:49Z</time>
      </trkpt>
      <trkpt lat="44.3185" lon="3.66071">
        <ele>969.1</ele>
        <time>2020-08-21T07:16:04Z</time>
      </trkpt>
      <trkpt lat="44.31776" lon="3.65935">
        <ele>954.6</ele>
        <time>2020-08-21T07:16:19Z</time>
      </trkpt>
      <trkpt lat="44.3167" lon="3.65928">
        <ele>939.3</ele>
        <time>2020-08-21T07:16:38Z</time>
      </trkpt>
      <trkpt lat="44.31543" lon="3.65969">
        <ele>928.4</ele>
        <time>2020-08-21T07:16:53Z</time>
      </trkpt>
      <trkpt lat="44.3145" lon="3.65937">
        <ele>920.6</ele>
        <time>2020-08-21T07:17:03Z</time>
      </trkpt>
      <trkpt lat="44.3132" lon="3.65867">
        <ele>908.6</ele>
        <time>2020-08-21T07:17:18Z</time>
      </trkpt>
      <trkpt lat="44.31291" lon="3.65706">
        <ele>898.7</ele>
        <time>2020-08-21T07:17:33Z</time>
      </trkpt>
      <trkpt lat="44.31223" lon="3.65839">
        <ele>877.1</ele>
        <time>2020-08-21T07:18:13Z</time>
      </trkpt>
      <trkpt lat="44.31274" lon="3.65957">
        <ele>872.7</ele>
        <time>2020-08-21T07:18:23Z</time>
      </trkpt>
      <trkpt lat="44.31335" lon="3.66136">
        <ele>862.1</ele>
        <time>2020-08-21T07:18:38Z</time>
      </trkpt>
      <trkpt lat="44.31425" lon="3.66258">
        <ele>848.6</ele>
        <time>2020-08-21T07:18:53Z</time>
      </trkpt>
      <trkpt lat="44.31315" lon="3.66257">
        <ele>827</ele>
        <time>2020-08-21T07:19:29Z</time>
      </trkpt>
      <trkpt lat="44.31232" lon="3.66181">
        <ele>819.5</ele>
        <time>2020-08-21T07:19:39Z</time>
      </trkpt>
      <trkpt lat="44.31134" lon="3.66116">
        <ele>812.6</ele>
        <time>2020-08-21T07:19:49Z</time>
      </trkpt>
      <trkpt lat="44.3105" lon="3.66063">
        <ele>806.3</ele>
        <time>2020-08-21T07:19:59Z</time>
      </trkpt>
      <trkpt lat="44.31043" lon="3.65936">
        <ele>799.6</ele>
        <time>2020-08-21T07:20:09Z</time>
      </trkpt>
      <trkpt lat="44.3103" lon="3.65792">
        <ele>789.4</ele>
        <time>2020-08-21T07:20:19Z</time>
      </trkpt>
      <trkpt lat="44.30992" lon="3.65929">
        <ele>761.2</ele>
        <time>2020-08-21T07:20:49Z</time>
      </trkpt>
      <trkpt lat="44.30954" lon="3.66074">
        <ele>752.1</ele>
        <time>2020-08-21T07:20:59Z</time>
      </trkpt>
      <trkpt lat="44.30968" lon="3.66238">
        <ele>745</ele>
        <time>2020-08-21T07:21:14Z</time>
      </trkpt>
      <trkpt lat="44.30873" lon="3.66145">
        <ele>719.4</ele>
        <time>2020-08-21T07:21:49Z</time>
      </trkpt>
      <trkpt lat="44.30918" lon="3.66303">
        <ele>704.1</ele>
        <time>2020-08-21T07:22:19Z</time>
      </trkpt>
      <trkpt lat="44.30827" lon="3.66273">
        <ele>692.4</ele>
        <time>2020-08-21T07:22:59Z</time>
      </trkpt>
      <trkpt lat="44.30731" lon="3.66201">
        <ele>691.7</ele>
        <time>2020-08-21T07:23:29Z</time>
      </trkpt>
      <trkpt lat="44.3068" lon="3.66089">
        <ele>689.5</ele>
        <time>2020-08-21T07:23:54Z</time>
      </trkpt>
      <trkpt lat="44.30606" lon="3.65982">
        <ele>689.1</ele>
        <time>2020-08-21T07:26:36Z</time>
      </trkpt>
      <trkpt lat="44.30501" lon="3.66058">
        <ele>685.7</ele>
        <time>2020-08-21T07:26:56Z</time>
      </trkpt>
      <trkpt lat="44.30433" lon="3.66156">
        <ele>682.8</ele>
        <time>2020-08-21T07:27:11Z</time>
      </trkpt>
      <trkpt lat="44.3037" lon="3.6625">
        <ele>682.2</ele>
        <time>2020-08-21T07:27:46Z</time>
      </trkpt>
      <trkpt lat="44.30309" lon="3.66377">
        <ele>685.2</ele>
        <time>2020-08-21T07:28:41Z</time>
      </trkpt>
      <trkpt lat="44.30208" lon="3.66472">
        <ele>685.6</ele>
        <time>2020-08-21T07:29:01Z</time>
      </trkpt>
      <trkpt lat="44.30112" lon="3.66408">
        <ele>682.4</ele>
        <time>2020-08-21T07:29:16Z</time>
      </trkpt>
      <trkpt lat="44.30053" lon="3.66287">
        <ele>672.3</ele>
        <time>2020-08-21T07:29:51Z</time>
      </trkpt>
      <trkpt lat="44.29947" lon="3.66272">
        <ele>671.8</ele>
        <time>2020-08-21T07:30:21Z</time>
      </trkpt>
      <trkpt lat="44.29864" lon="3.66332">
        <ele>674.7</ele>
        <time>2020-08-21T07:30:56Z</time>
      </trkpt>
      <trkpt lat="44.29786" lon="3.66416">
        <ele>678.8</ele>
        <time>2020-08-21T07:31:41Z</time>
      </trkpt>
      <trkpt lat="44.29725" lon="3.66505">
        <ele>681.5</ele>
        <time>2020-08-21T07:32:21Z</time>
      </trkpt>
      <trkpt lat="44.2969" lon="3.66624">
        <ele>683</ele>
        <time>2020-08-21T07:33:01Z</time>
      </trkpt>
      <trkpt lat="44.29662" lon="3.66753">
        <ele>683.3</ele>
        <time>2020-08-21T07:33:46Z</time>
      </trkpt>
      <trkpt lat="44.29651" lon="3.66622">
        <ele>687.5</ele>
        <time>2020-08-21T07:35:10Z</time>
      </trkpt>
      <trkpt lat="44.29662" lon="3.66488">
        <ele>689.8</ele>
        <time>2020-08-21T07:36:14Z</time>
      </trkpt>
      <trkpt lat="44.2971" lon="3.66377">
        <ele>692.9</ele>
        <time>2020-08-21T07:37:10Z</time>
      </trkpt>
      <trkpt lat="44.29624" lon="3.66437">
        <ele>702.5</ele>
        <time>2020-08-21T07:39:26Z</time>
      </trkpt>
      <trkpt lat="44.29565" lon="3.6653">
        <ele>707.4</ele>
        <time>2020-08-21T07:40:20Z</time>
      </trkpt>
      <trkpt lat="44.29515" lon="3.66634">
        <ele>715.1</ele>
        <time>2020-08-21T07:41:16Z</time>
      </trkpt>
      <trkpt lat="44.29521" lon="3.66507">
        <ele>751.8</ele>
        <time>2020-08-21T07:43:26Z</time>
      </trkpt>
      <trkpt lat="44.29566" lon="3.6639">
        <ele>763.2</ele>
        <time>2020-08-21T07:44:26Z</time>
      </trkpt>
      <trkpt lat="44.29556" lon="3.66258">
        <ele>771.5</ele>
        <time>2020-08-21T07:45:32Z</time>
      </trkpt>
      <trkpt lat="44.2953" lon="3.6638">
        <ele>776.4</ele>
        <time>2020-08-21T07:46:44Z</time>
      </trkpt>
      <trkpt lat="44.29455" lon="3.66464">
        <ele>779.1</ele>
        <time>2020-08-21T07:47:54Z</time>
      </trkpt>
      <trkpt lat="44.29373" lon="3.66515">
        <ele>782</ele>
        <time>2020-08-21T07:48:49Z</time>
      </trkpt>
      <trkpt lat="44.29282" lon="3.6656">
        <ele>789.2</ele>
        <time>2020-08-21T07:49:55Z</time>
      </trkpt>
      <trkpt lat="44.29331" lon="3.66451">
        <ele>809.5</ele>
        <time>2020-08-21T07:51:43Z</time>
      </trkpt>
      <trkpt lat="44.29382" lon="3.66349">
        <ele>821</ele>
        <time>2020-08-21T07:52:47Z</time>
      </trkpt>
      <trkpt lat="44.2935" lon="3.66225">
        <ele>829.2</ele>
        <time>2020-08-21T07:54:06Z</time>
      </trkpt>
      <trkpt lat="44.29276" lon="3.66133">
        <ele>833.4</ele>
        <time>2020-08-21T07:55:18Z</time>
      </trkpt>
      <trkpt lat="44.2922" lon="3.66022">
        <ele>837</ele>
        <time>2020-08-21T07:56:27Z</time>
      </trkpt>
      <trkpt lat="44.29143" lon="3.65942">
        <ele>841.7</ele>
        <time>2020-08-21T07:57:33Z</time>
      </trkpt>
      <trkpt lat="44.29051" lon="3.65928">
        <ele>852.2</ele>
        <time>2020-08-21T07:58:52Z</time>
      </trkpt>
      <trkpt lat="44.28958" lon="3.65918">
        <ele>863.8</ele>
        <time>2020-08-21T08:00:09Z</time>
      </trkpt>
      <trkpt lat="44.28872" lon="3.65972">
        <ele>871.4</ele>
        <time>2020-08-21T08:01:18Z</time>
      </trkpt>
      <trkpt lat="44.288" lon="3.66048">
        <ele>875.7</ele>
        <time>2020-08-21T08:02:14Z</time>
      </trkpt>
      <trkpt lat="44.28766" lon="3.66174">
        <ele>880.8</ele>
        <time>2020-08-21T08:03:22Z</time>
      </trkpt>
      <trkpt lat="44.28733" lon="3.663">
        <ele>885.8</ele>
        <time>2020-08-21T08:04:22Z</time>
      </trkpt>
      <trkpt lat="44.28643" lon="3.66346">
        <ele>894.2</ele>
        <time>2020-08-21T08:05:39Z</time>
      </trkpt>
      <trkpt lat="44.28601" lon="3.6646">
        <ele>903.3</ele>
        <time>2020-08-21T08:06:50Z</time>
      </trkpt>
      <trkpt lat="44.28553" lon="3.66568">
        <ele>908.8</ele>
        <time>2020-08-21T08:07:51Z</time>
      </trkpt>
      <trkpt lat="44.28585" lon="3.66691">
        <ele>917.2</ele>
        <time>2020-08-21T08:09:23Z</time>
      </trkpt>
      <trkpt lat="44.28542" lon="3.66814">
        <ele>921.9</ele>
        <time>2020-08-21T08:10:03Z</time>
      </trkpt>
      <trkpt lat="44.28502" lon="3.66935">
        <ele>924.9</ele>
        <time>2020-08-21T08:10:33Z</time>
      </trkpt>
      <trkpt lat="44.28447" lon="3.67036">
        <ele>925.9</ele>
        <time>2020-08-21T08:11:03Z</time>
      </trkpt>
      <trkpt lat="44.28369" lon="3.67133">
        <ele>927.6</ele>
        <time>2020-08-21T08:11:33Z</time>
      </trkpt>
      <trkpt lat="44.28289" lon="3.67219">
        <ele>930</ele>
        <time>2020-08-21T08:12:03Z</time>
      </trkpt>
      <trkpt lat="44.28187" lon="3.67258">
        <ele>931.6</ele>
        <time>2020-08-21T08:12:33Z</time>
      </trkpt>
      <trkpt lat="44.28103" lon="3.67303">
        <ele>932.4</ele>
        <time>2020-08-21T08:13:29Z</time>
      </trkpt>
      <trkpt lat="44.2802" lon="3.67363">
        <ele>933.3</ele>
        <time>2020-08-21T08:14:09Z</time>
      </trkpt>
      <trkpt lat="44.27924" lon="3.67363">
        <ele>934.7</ele>
        <time>2020-08-21T08:15:02Z</time>
      </trkpt>
      <trkpt lat="44.27834" lon="3.67286">
        <ele>938</ele>
        <time>2020-08-21T08:16:27Z</time>
      </trkpt>
      <trkpt lat="44.27791" lon="3.67158">
        <ele>941</ele>
        <time>2020-08-21T08:17:08Z</time>
      </trkpt>
      <trkpt lat="44.27741" lon="3.67033">
        <ele>947.9</ele>
        <time>2020-08-21T08:18:10Z</time>
      </trkpt>
      <trkpt lat="44.27699" lon="3.66909">
        <ele>956</ele>
        <time>2020-08-21T08:18:35Z</time>
      </trkpt>
      <trkpt lat="44.27654" lon="3.66772">
        <ele>959.3</ele>
        <time>2020-08-21T08:19:05Z</time>
      </trkpt>
      <trkpt lat="44.27581" lon="3.66683">
        <ele>961</ele>
        <time>2020-08-21T08:19:45Z</time>
      </trkpt>
      <trkpt lat="44.27509" lon="3.66597">
        <ele>964.1</ele>
        <time>2020-08-21T08:20:33Z</time>
      </trkpt>
      <trkpt lat="44.27435" lon="3.66503">
        <ele>969.1</ele>
        <time>2020-08-21T08:21:30Z</time>
      </trkpt>
      <trkpt lat="44.27358" lon="3.66428">
        <ele>973.3</ele>
        <time>2020-08-21T08:22:18Z</time>
      </trkpt>
      <trkpt lat="44.27305" lon="3.66319">
        <ele>977</ele>
        <time>2020-08-21T08:22:56Z</time>
      </trkpt>
      <trkpt lat="44.27222" lon="3.66254">
        <ele>979.9</ele>
        <time>2020-08-21T08:23:31Z</time>
      </trkpt>
      <trkpt lat="44.27149" lon="3.66152">
        <ele>982.7</ele>
        <time>2020-08-21T08:24:06Z</time>
      </trkpt>
      <trkpt lat="44.27075" lon="3.66074">
        <ele>985.3</ele>
        <time>2020-08-21T08:24:36Z</time>
      </trkpt>
      <trkpt lat="44.26992" lon="3.6602">
        <ele>987.3</ele>
        <time>2020-08-21T08:25:06Z</time>
      </trkpt>
      <trkpt lat="44.26976" lon="3.65895">
        <ele>989.4</ele>
        <time>2020-08-21T08:25:41Z</time>
      </trkpt>
      <trkpt lat="44.26893" lon="3.65803">
        <ele>991</ele>
        <time>2020-08-21T08:26:16Z</time>
      </trkpt>
      <trkpt lat="44.26855" lon="3.65685">
        <ele>992.2</ele>
        <time>2020-08-21T08:26:51Z</time>
      </trkpt>
      <trkpt lat="44.26843" lon="3.65556">
        <ele>993.5</ele>
        <time>2020-08-21T08:27:32Z</time>
      </trkpt>
      <trkpt lat="44.26768" lon="3.65464">
        <ele>995.3</ele>
        <time>2020-08-21T08:28:23Z</time>
      </trkpt>
      <trkpt lat="44.26686" lon="3.65377">
        <ele>996.9</ele>
        <time>2020-08-21T08:29:03Z</time>
      </trkpt>
      <trkpt lat="44.26597" lon="3.65336">
        <ele>998.6</ele>
        <time>2020-08-21T08:29:33Z</time>
      </trkpt>
      <trkpt lat="44.26481" lon="3.65305">
        <ele>1000.1</ele>
        <time>2020-08-21T08:29:53Z</time>
      </trkpt>
      <trkpt lat="44.26397" lon="3.65201">
        <ele>1000.8</ele>
        <time>2020-08-21T08:30:13Z</time>
      </trkpt>
      <trkpt lat="44.26306" lon="3.65164">
        <ele>1001.5</ele>
        <time>2020-08-21T08:30:48Z</time>
      </trkpt>
      <trkpt lat="44.2621" lon="3.65139">
        <ele>1000.5</ele>
        <time>2020-08-21T08:31:08Z</time>
      </trkpt>
      <trkpt lat="44.26114" lon="3.65115">
        <ele>1001.1</ele>
        <time>2020-08-21T08:31:43Z</time>
      </trkpt>
      <trkpt lat="44.26032" lon="3.65037">
        <ele>1004.3</ele>
        <time>2020-08-21T08:32:34Z</time>
      </trkpt>
      <trkpt lat="44.25937" lon="3.65038">
        <ele>1006.1</ele>
        <time>2020-08-21T08:33:19Z</time>
      </trkpt>
      <trkpt lat="44.25858" lon="3.64965">
        <ele>1010</ele>
        <time>2020-08-21T08:34:21Z</time>
      </trkpt>
      <trkpt lat="44.25767" lon="3.64934">
        <ele>1013.8</ele>
        <time>2020-08-21T08:35:10Z</time>
      </trkpt>
      <trkpt lat="44.25684" lon="3.64867">
        <ele>1014.9</ele>
        <time>2020-08-21T08:35:25Z</time>
      </trkpt>
      <trkpt lat="44.25556" lon="3.64816">
        <ele>1017</ele>
        <time>2020-08-21T08:36:08Z</time>
      </trkpt>
      <trkpt lat="44.25457" lon="3.64847">
        <ele>1014.1</ele>
        <time>2020-08-21T08:36:18Z</time>
      </trkpt>
      <trkpt lat="44.25352" lon="3.64845">
        <ele>1006.9</ele>
        <time>2020-08-21T08:36:28Z</time>
      </trkpt>
      <trkpt lat="44.25255" lon="3.64913">
        <ele>994.3</ele>
        <time>2020-08-21T08:36:38Z</time>
      </trkpt>
      <trkpt lat="44.2516" lon="3.65007">
        <ele>987</ele>
        <time>2020-08-21T08:36:48Z</time>
      </trkpt>
      <trkpt lat="44.25075" lon="3.65089">
        <ele>981.3</ele>
        <time>2020-08-21T08:36:58Z</time>
      </trkpt>
      <trkpt lat="44.24965" lon="3.65053">
        <ele>972.7</ele>
        <time>2020-08-21T08:37:13Z</time>
      </trkpt>
      <trkpt lat="44.24913" lon="3.65165">
        <ele>964.5</ele>
        <time>2020-08-21T08:37:57Z</time>
      </trkpt>
      <trkpt lat="44.2485" lon="3.65057">
        <ele>957.9</ele>
        <time>2020-08-21T08:39:56Z</time>
      </trkpt>
      <trkpt lat="44.24751" lon="3.65078">
        <ele>964.4</ele>
        <time>2020-08-21T08:46:29Z</time>
      </trkpt>
      <trkpt lat="44.24668" lon="3.65142">
        <ele>965.8</ele>
        <time>2020-08-21T08:47:09Z</time>
      </trkpt>
      <trkpt lat="44.24753" lon="3.65084">
        <ele>966.9</ele>
        <time>2020-08-21T08:49:33Z</time>
      </trkpt>
      <trkpt lat="44.2481" lon="3.64987">
        <ele>966.8</ele>
        <time>2020-08-21T08:49:53Z</time>
      </trkpt>
      <trkpt lat="44.24818" lon="3.64849">
        <ele>966.5</ele>
        <time>2020-08-21T08:50:33Z</time>
      </trkpt>
      <trkpt lat="44.24861" lon="3.6472">
        <ele>964.7</ele>
        <time>2020-08-21T08:51:08Z</time>
      </trkpt>
      <trkpt lat="44.24917" lon="3.64567">
        <ele>961.6</ele>
        <time>2020-08-21T08:51:23Z</time>
      </trkpt>
      <trkpt lat="44.24994" lon="3.64468">
        <ele>959.1</ele>
        <time>2020-08-21T08:51:33Z</time>
      </trkpt>
      <trkpt lat="44.25055" lon="3.64368">
        <ele>957.9</ele>
        <time>2020-08-21T08:51:43Z</time>
      </trkpt>
      <trkpt lat="44.25101" lon="3.6424">
        <ele>956.6</ele>
        <time>2020-08-21T08:51:58Z</time>
      </trkpt>
      <trkpt lat="44.25159" lon="3.64127">
        <ele>956.5</ele>
        <time>2020-08-21T08:52:18Z</time>
      </trkpt>
      <trkpt lat="44.25252" lon="3.64088">
        <ele>958.8</ele>
        <time>2020-08-21T08:53:21Z</time>
      </trkpt>
      <trkpt lat="44.2533" lon="3.64019">
        <ele>961.9</ele>
        <time>2020-08-21T08:54:07Z</time>
      </trkpt>
      <trkpt lat="44.2541" lon="3.63955">
        <ele>964.5</ele>
        <time>2020-08-21T08:54:42Z</time>
      </trkpt>
      <trkpt lat="44.25489" lon="3.63884">
        <ele>967.9</ele>
        <time>2020-08-21T08:55:07Z</time>
      </trkpt>
      <trkpt lat="44.25575" lon="3.6379">
        <ele>967.8</ele>
        <time>2020-08-21T08:55:27Z</time>
      </trkpt>
      <trkpt lat="44.25625" lon="3.63673">
        <ele>967.5</ele>
        <time>2020-08-21T08:55:47Z</time>
      </trkpt>
      <trkpt lat="44.25663" lon="3.63559">
        <ele>966.9</ele>
        <time>2020-08-21T08:56:12Z</time>
      </trkpt>
      <trkpt lat="44.25686" lon="3.63431">
        <ele>968.7</ele>
        <time>2020-08-21T08:56:51Z</time>
      </trkpt>
      <trkpt lat="44.25711" lon="3.63309">
        <ele>972</ele>
        <time>2020-08-21T08:57:47Z</time>
      </trkpt>
      <trkpt lat="44.25778" lon="3.63214">
        <ele>975.7</ele>
        <time>2020-08-21T08:58:46Z</time>
      </trkpt>
      <trkpt lat="44.25833" lon="3.631">
        <ele>980.2</ele>
        <time>2020-08-21T08:59:47Z</time>
      </trkpt>
      <trkpt lat="44.25906" lon="3.63014">
        <ele>987.4</ele>
        <time>2020-08-21T09:00:58Z</time>
      </trkpt>
      <trkpt lat="44.25981" lon="3.62933">
        <ele>994.4</ele>
        <time>2020-08-21T09:02:07Z</time>
      </trkpt>
      <trkpt lat="44.26029" lon="3.6282">
        <ele>999.5</ele>
        <time>2020-08-21T09:03:14Z</time>
      </trkpt>
      <trkpt lat="44.26046" lon="3.62695">
        <ele>1003.5</ele>
        <time>2020-08-21T09:04:07Z</time>
      </trkpt>
      <trkpt lat="44.26041" lon="3.62565">
        <ele>1006.3</ele>
        <time>2020-08-21T09:04:52Z</time>
      </trkpt>
      <trkpt lat="44.26031" lon="3.62436">
        <ele>1008.8</ele>
        <time>2020-08-21T09:05:39Z</time>
      </trkpt>
      <trkpt lat="44.26037" lon="3.62281">
        <ele>1013.8</ele>
        <time>2020-08-21T09:07:28Z</time>
      </trkpt>
      <trkpt lat="44.2595" lon="3.62216">
        <ele>1016.9</ele>
        <time>2020-08-21T09:08:31Z</time>
      </trkpt>
      <trkpt lat="44.25854" lon="3.62218">
        <ele>1026.5</ele>
        <time>2020-08-21T09:09:47Z</time>
      </trkpt>
      <trkpt lat="44.25757" lon="3.62242">
        <ele>1035.1</ele>
        <time>2020-08-21T09:10:55Z</time>
      </trkpt>
      <trkpt lat="44.25669" lon="3.62268">
        <ele>1041.4</ele>
        <time>2020-08-21T09:11:51Z</time>
      </trkpt>
      <trkpt lat="44.25575" lon="3.62291">
        <ele>1047.7</ele>
        <time>2020-08-21T09:12:47Z</time>
      </trkpt>
      <trkpt lat="44.25479" lon="3.62317">
        <ele>1052</ele>
        <time>2020-08-21T09:13:33Z</time>
      </trkpt>
      <trkpt lat="44.25387" lon="3.62343">
        <ele>1054.2</ele>
        <time>2020-08-21T09:14:08Z</time>
      </trkpt>
      <trkpt lat="44.25297" lon="3.62368">
        <ele>1055.9</ele>
        <time>2020-08-21T09:14:38Z</time>
      </trkpt>
      <trkpt lat="44.25197" lon="3.624">
        <ele>1057.8</ele>
        <time>2020-08-21T09:15:13Z</time>
      </trkpt>
      <trkpt lat="44.25108" lon="3.62447">
        <ele>1062</ele>
        <time>2020-08-21T09:15:38Z</time>
      </trkpt>
      <trkpt lat="44.2501" lon="3.62502">
        <ele>1063.3</ele>
        <time>2020-08-21T09:16:03Z</time>
      </trkpt>
      <trkpt lat="44.24919" lon="3.62559">
        <ele>1064.3</ele>
        <time>2020-08-21T09:16:28Z</time>
      </trkpt>
      <trkpt lat="44.2483" lon="3.62606">
        <ele>1065</ele>
        <time>2020-08-21T09:16:48Z</time>
      </trkpt>
      <trkpt lat="44.24723" lon="3.62524">
        <ele>1065.1</ele>
        <time>2020-08-21T09:17:08Z</time>
      </trkpt>
      <trkpt lat="44.24639" lon="3.62391">
        <ele>1064.3</ele>
        <time>2020-08-21T09:17:23Z</time>
      </trkpt>
      <trkpt lat="44.24577" lon="3.62295">
        <ele>1063</ele>
        <time>2020-08-21T09:17:33Z</time>
      </trkpt>
      <trkpt lat="44.24495" lon="3.62196">
        <ele>1061.2</ele>
        <time>2020-08-21T09:17:48Z</time>
      </trkpt>
      <trkpt lat="44.24406" lon="3.62137">
        <ele>1060.6</ele>
        <time>2020-08-21T09:18:18Z</time>
      </trkpt>
      <trkpt lat="44.24343" lon="3.62032">
        <ele>1060.5</ele>
        <time>2020-08-21T09:19:08Z</time>
      </trkpt>
      <trkpt lat="44.24281" lon="3.61918">
        <ele>1060.4</ele>
        <time>2020-08-21T09:19:53Z</time>
      </trkpt>
      <trkpt lat="44.24217" lon="3.61807">
        <ele>1061.9</ele>
        <time>2020-08-21T09:21:53Z</time>
      </trkpt>
      <trkpt lat="44.24149" lon="3.61705">
        <ele>1061.2</ele>
        <time>2020-08-21T09:22:13Z</time>
      </trkpt>
      <trkpt lat="44.24046" lon="3.61663">
        <ele>1060.4</ele>
        <time>2020-08-21T09:22:33Z</time>
      </trkpt>
      <trkpt lat="44.23943" lon="3.61681">
        <ele>1059.1</ele>
        <time>2020-08-21T09:22:53Z</time>
      </trkpt>
      <trkpt lat="44.23834" lon="3.61711">
        <ele>1058.4</ele>
        <time>2020-08-21T09:23:13Z</time>
      </trkpt>
      <trkpt lat="44.23734" lon="3.61706">
        <ele>1058.7</ele>
        <time>2020-08-21T09:23:43Z</time>
      </trkpt>
      <trkpt lat="44.23642" lon="3.61709">
        <ele>1059.6</ele>
        <time>2020-08-21T09:24:23Z</time>
      </trkpt>
      <trkpt lat="44.23549" lon="3.61737">
        <ele>1061.8</ele>
        <time>2020-08-21T09:25:03Z</time>
      </trkpt>
      <trkpt lat="44.23455" lon="3.61771">
        <ele>1065.3</ele>
        <time>2020-08-21T09:25:43Z</time>
      </trkpt>
      <trkpt lat="44.23344" lon="3.61825">
        <ele>1070.1</ele>
        <time>2020-08-21T09:26:08Z</time>
      </trkpt>
      <trkpt lat="44.23257" lon="3.61861">
        <ele>1070.2</ele>
        <time>2020-08-21T09:26:28Z</time>
      </trkpt>
      <trkpt lat="44.23161" lon="3.61894">
        <ele>1070.2</ele>
        <time>2020-08-21T09:27:03Z</time>
      </trkpt>
      <trkpt lat="44.23066" lon="3.61894">
        <ele>1071.9</ele>
        <time>2020-08-21T09:27:50Z</time>
      </trkpt>
      <trkpt lat="44.22968" lon="3.61885">
        <ele>1077.1</ele>
        <time>2020-08-21T09:28:53Z</time>
      </trkpt>
      <trkpt lat="44.22869" lon="3.61872">
        <ele>1082.1</ele>
        <time>2020-08-21T09:29:51Z</time>
      </trkpt>
      <trkpt lat="44.22777" lon="3.61858">
        <ele>1085.4</ele>
        <time>2020-08-21T09:30:40Z</time>
      </trkpt>
      <trkpt lat="44.22665" lon="3.61892">
        <ele>1088.5</ele>
        <time>2020-08-21T09:31:05Z</time>
      </trkpt>
      <trkpt lat="44.22571" lon="3.61925">
        <ele>1088.3</ele>
        <time>2020-08-21T09:31:20Z</time>
      </trkpt>
      <trkpt lat="44.22466" lon="3.61984">
        <ele>1087.6</ele>
        <time>2020-08-21T09:31:40Z</time>
      </trkpt>
      <trkpt lat="44.22379" lon="3.62036">
        <ele>1086.4</ele>
        <time>2020-08-21T09:31:55Z</time>
      </trkpt>
      <trkpt lat="44.22299" lon="3.62097">
        <ele>1085.3</ele>
        <time>2020-08-21T09:32:10Z</time>
      </trkpt>
      <trkpt lat="44.22218" lon="3.62163">
        <ele>1084.2</ele>
        <time>2020-08-21T09:32:25Z</time>
      </trkpt>
      <trkpt lat="44.22122" lon="3.62228">
        <ele>1083.9</ele>
        <time>2020-08-21T09:32:45Z</time>
      </trkpt>
      <trkpt lat="44.22024" lon="3.62295">
        <ele>1083</ele>
        <time>2020-08-21T09:33:10Z</time>
      </trkpt>
      <trkpt lat="44.21934" lon="3.62356">
        <ele>1081.5</ele>
        <time>2020-08-21T09:33:30Z</time>
      </trkpt>
      <trkpt lat="44.21852" lon="3.62405">
        <ele>1081.2</ele>
        <time>2020-08-21T09:33:51Z</time>
      </trkpt>
      <trkpt lat="44.21767" lon="3.62462">
        <ele>1080.9</ele>
        <time>2020-08-21T09:34:11Z</time>
      </trkpt>
      <trkpt lat="44.21684" lon="3.62518">
        <ele>1080.5</ele>
        <time>2020-08-21T09:34:31Z</time>
      </trkpt>
      <trkpt lat="44.2159" lon="3.62581">
        <ele>1079.9</ele>
        <time>2020-08-21T09:34:51Z</time>
      </trkpt>
      <trkpt lat="44.21507" lon="3.62637">
        <ele>1079.7</ele>
        <time>2020-08-21T09:35:11Z</time>
      </trkpt>
      <trkpt lat="44.21418" lon="3.62687">
        <ele>1080.3</ele>
        <time>2020-08-21T09:35:46Z</time>
      </trkpt>
      <trkpt lat="44.21329" lon="3.62736">
        <ele>1080.3</ele>
        <time>2020-08-21T09:36:11Z</time>
      </trkpt>
      <trkpt lat="44.21231" lon="3.62798">
        <ele>1078.9</ele>
        <time>2020-08-21T09:36:31Z</time>
      </trkpt>
      <trkpt lat="44.21148" lon="3.62884">
        <ele>1078.2</ele>
        <time>2020-08-21T09:36:51Z</time>
      </trkpt>
      <trkpt lat="44.21076" lon="3.62973">
        <ele>1078.9</ele>
        <time>2020-08-21T09:37:26Z</time>
      </trkpt>
      <trkpt lat="44.21012" lon="3.63076">
        <ele>1081.1</ele>
        <time>2020-08-21T09:38:19Z</time>
      </trkpt>
      <trkpt lat="44.20963" lon="3.63179">
        <ele>1082.7</ele>
        <time>2020-08-21T09:38:54Z</time>
      </trkpt>
      <trkpt lat="44.20907" lon="3.63278">
        <ele>1084.3</ele>
        <time>2020-08-21T09:39:19Z</time>
      </trkpt>
      <trkpt lat="44.20823" lon="3.63358">
        <ele>1085.4</ele>
        <time>2020-08-21T09:39:44Z</time>
      </trkpt>
      <trkpt lat="44.20725" lon="3.63406">
        <ele>1085.6</ele>
        <time>2020-08-21T09:40:09Z</time>
      </trkpt>
      <trkpt lat="44.20631" lon="3.6345">
        <ele>1085.7</ele>
        <time>2020-08-21T09:40:44Z</time>
      </trkpt>
      <trkpt lat="44.20571" lon="3.6355">
        <ele>1085.7</ele>
        <time>2020-08-21T09:41:14Z</time>
      </trkpt>
      <trkpt lat="44.20519" lon="3.63665">
        <ele>1085.4</ele>
        <time>2020-08-21T09:41:39Z</time>
      </trkpt>
      <trkpt lat="44.20462" lon="3.63786">
        <ele>1085.3</ele>
        <time>2020-08-21T09:42:09Z</time>
      </trkpt>
      <trkpt lat="44.20401" lon="3.63884">
        <ele>1085.2</ele>
        <time>2020-08-21T09:42:39Z</time>
      </trkpt>
      <trkpt lat="44.20334" lon="3.63966">
        <ele>1085.1</ele>
        <time>2020-08-21T09:43:04Z</time>
      </trkpt>
      <trkpt lat="44.20258" lon="3.6406">
        <ele>1084.9</ele>
        <time>2020-08-21T09:43:34Z</time>
      </trkpt>
      <trkpt lat="44.20166" lon="3.64105">
        <ele>1084.5</ele>
        <time>2020-08-21T09:43:59Z</time>
      </trkpt>
      <trkpt lat="44.20031" lon="3.64082">
        <ele>1082.9</ele>
        <time>2020-08-21T09:44:14Z</time>
      </trkpt>
      <trkpt lat="44.19922" lon="3.6409">
        <ele>1081.8</ele>
        <time>2020-08-21T09:44:24Z</time>
      </trkpt>
      <trkpt lat="44.19832" lon="3.64187">
        <ele>1081.6</ele>
        <time>2020-08-21T09:44:34Z</time>
      </trkpt>
      <trkpt lat="44.19746" lon="3.6414">
        <ele>1079.7</ele>
        <time>2020-08-21T09:44:44Z</time>
      </trkpt>
      <trkpt lat="44.19804" lon="3.63996">
        <ele>1076.7</ele>
        <time>2020-08-21T09:44:54Z</time>
      </trkpt>
      <trkpt lat="44.19819" lon="3.63824">
        <ele>1069.5</ele>
        <time>2020-08-21T09:45:04Z</time>
      </trkpt>
      <trkpt lat="44.19759" lon="3.6371">
        <ele>1050.4</ele>
        <time>2020-08-21T09:45:14Z</time>
      </trkpt>
      <trkpt lat="44.19773" lon="3.63851">
        <ele>1038.9</ele>
        <time>2020-08-21T09:45:29Z</time>
      </trkpt>
      <trkpt lat="44.19728" lon="3.63987">
        <ele>1036.7</ele>
        <time>2020-08-21T09:45:39Z</time>
      </trkpt>
      <trkpt lat="44.19669" lon="3.6412">
        <ele>1034.8</ele>
        <time>2020-08-21T09:45:49Z</time>
      </trkpt>
      <trkpt lat="44.19645" lon="3.64286">
        <ele>1028.9</ele>
        <time>2020-08-21T09:45:59Z</time>
      </trkpt>
      <trkpt lat="44.19613" lon="3.64472">
        <ele>1014.1</ele>
        <time>2020-08-21T09:46:08Z</time>
      </trkpt>
      <trkpt lat="44.1951" lon="3.64524">
        <ele>997.6</ele>
        <time>2020-08-21T09:46:18Z</time>
      </trkpt>
      <trkpt lat="44.19408" lon="3.64523">
        <ele>994.8</ele>
        <time>2020-08-21T09:46:28Z</time>
      </trkpt>
      <trkpt lat="44.19316" lon="3.645">
        <ele>984.9</ele>
        <time>2020-08-21T09:46:38Z</time>
      </trkpt>
      <trkpt lat="44.19237" lon="3.64583">
        <ele>985.3</ele>
        <time>2020-08-21T09:46:48Z</time>
      </trkpt>
      <trkpt lat="44.19183" lon="3.64687">
        <ele>982.8</ele>
        <time>2020-08-21T09:46:58Z</time>
      </trkpt>
      <trkpt lat="44.1929" lon="3.64707">
        <ele>970.9</ele>
        <time>2020-08-21T09:47:08Z</time>
      </trkpt>
      <trkpt lat="44.1939" lon="3.64812">
        <ele>954.1</ele>
        <time>2020-08-21T09:47:18Z</time>
      </trkpt>
      <trkpt lat="44.1949" lon="3.64917">
        <ele>936.1</ele>
        <time>2020-08-21T09:47:33Z</time>
      </trkpt>
      <trkpt lat="44.19377" lon="3.64869">
        <ele>916.7</ele>
        <time>2020-08-21T09:47:53Z</time>
      </trkpt>
      <trkpt lat="44.19439" lon="3.65044">
        <ele>899.7</ele>
        <time>2020-08-21T09:48:18Z</time>
      </trkpt>
      <trkpt lat="44.19495" lon="3.65176">
        <ele>888.5</ele>
        <time>2020-08-21T09:48:28Z</time>
      </trkpt>
      <trkpt lat="44.19515" lon="3.6531">
        <ele>885.6</ele>
        <time>2020-08-21T09:48:38Z</time>
      </trkpt>
      <trkpt lat="44.19516" lon="3.65441">
        <ele>849.6</ele>
        <time>2020-08-21T09:55:45Z</time>
      </trkpt>
      <trkpt lat="44.19483" lon="3.653">
        <ele>829.6</ele>
        <time>2020-08-21T11:35:12Z</time>
      </trkpt>
      <trkpt lat="44.19429" lon="3.65176">
        <ele>828</ele>
        <time>2020-08-21T11:35:42Z</time>
      </trkpt>
      <trkpt lat="44.19342" lon="3.65212">
        <ele>826.5</ele>
        <time>2020-08-21T11:36:22Z</time>
      </trkpt>
      <trkpt lat="44.19288" lon="3.65327">
        <ele>826.2</ele>
        <time>2020-08-21T11:36:42Z</time>
      </trkpt>
      <trkpt lat="44.1921" lon="3.65234">
        <ele>824.9</ele>
        <time>2020-08-21T11:37:02Z</time>
      </trkpt>
      <trkpt lat="44.19128" lon="3.65354">
        <ele>823</ele>
        <time>2020-08-21T11:37:17Z</time>
      </trkpt>
      <trkpt lat="44.19056" lon="3.65452">
        <ele>820</ele>
        <time>2020-08-21T11:37:27Z</time>
      </trkpt>
      <trkpt lat="44.18965" lon="3.65509">
        <ele>816.4</ele>
        <time>2020-08-21T11:37:37Z</time>
      </trkpt>
      <trkpt lat="44.18871" lon="3.65447">
        <ele>798.6</ele>
        <time>2020-08-21T11:38:02Z</time>
      </trkpt>
      <trkpt lat="44.18769" lon="3.65557">
        <ele>792.8</ele>
        <time>2020-08-21T11:38:22Z</time>
      </trkpt>
      <trkpt lat="44.18647" lon="3.65601">
        <ele>784.5</ele>
        <time>2020-08-21T11:38:37Z</time>
      </trkpt>
      <trkpt lat="44.18552" lon="3.65675">
        <ele>776.9</ele>
        <time>2020-08-21T11:38:52Z</time>
      </trkpt>
      <trkpt lat="44.18462" lon="3.65664">
        <ele>773.2</ele>
        <time>2020-08-21T11:39:02Z</time>
      </trkpt>
      <trkpt lat="44.18336" lon="3.65678">
        <ele>765.7</ele>
        <time>2020-08-21T11:39:17Z</time>
      </trkpt>
      <trkpt lat="44.18252" lon="3.65718">
        <ele>758.5</ele>
        <time>2020-08-21T11:39:27Z</time>
      </trkpt>
      <trkpt lat="44.18138" lon="3.65663">
        <ele>750.5</ele>
        <time>2020-08-21T11:39:42Z</time>
      </trkpt>
      <trkpt lat="44.18018" lon="3.65677">
        <ele>740</ele>
        <time>2020-08-21T11:39:57Z</time>
      </trkpt>
      <trkpt lat="44.17902" lon="3.65594">
        <ele>731.4</ele>
        <time>2020-08-21T11:40:12Z</time>
      </trkpt>
      <trkpt lat="44.17809" lon="3.65605">
        <ele>726.8</ele>
        <time>2020-08-21T11:40:22Z</time>
      </trkpt>
      <trkpt lat="44.17686" lon="3.65539">
        <ele>721.6</ele>
        <time>2020-08-21T11:40:37Z</time>
      </trkpt>
      <trkpt lat="44.17602" lon="3.65479">
        <ele>716.3</ele>
        <time>2020-08-21T11:40:47Z</time>
      </trkpt>
      <trkpt lat="44.17479" lon="3.65518">
        <ele>705</ele>
        <time>2020-08-21T11:41:01Z</time>
      </trkpt>
      <trkpt lat="44.17377" lon="3.65544">
        <ele>698.2</ele>
        <time>2020-08-21T11:41:11Z</time>
      </trkpt>
      <trkpt lat="44.17267" lon="3.6545">
        <ele>686.1</ele>
        <time>2020-08-21T11:41:26Z</time>
      </trkpt>
      <trkpt lat="44.17169" lon="3.65412">
        <ele>678.3</ele>
        <time>2020-08-21T11:41:36Z</time>
      </trkpt>
      <trkpt lat="44.17067" lon="3.65415">
        <ele>671.9</ele>
        <time>2020-08-21T11:41:46Z</time>
      </trkpt>
      <trkpt lat="44.17094" lon="3.65246">
        <ele>662.5</ele>
        <time>2020-08-21T11:42:01Z</time>
      </trkpt>
      <trkpt lat="44.17099" lon="3.65115">
        <ele>655.2</ele>
        <time>2020-08-21T11:42:11Z</time>
      </trkpt>
      <trkpt lat="44.1709" lon="3.64989">
        <ele>648.9</ele>
        <time>2020-08-21T11:42:21Z</time>
      </trkpt>
      <trkpt lat="44.17057" lon="3.64862">
        <ele>634.6</ele>
        <time>2020-08-21T11:43:01Z</time>
      </trkpt>
      <trkpt lat="44.17116" lon="3.6474">
        <ele>626.3</ele>
        <time>2020-08-21T11:43:16Z</time>
      </trkpt>
      <trkpt lat="44.17195" lon="3.64676">
        <ele>621.4</ele>
        <time>2020-08-21T11:43:26Z</time>
      </trkpt>
      <trkpt lat="44.17294" lon="3.64591">
        <ele>615.6</ele>
        <time>2020-08-21T11:43:41Z</time>
      </trkpt>
      <trkpt lat="44.17175" lon="3.64576">
        <ele>603.9</ele>
        <time>2020-08-21T11:44:21Z</time>
      </trkpt>
      <trkpt lat="44.17053" lon="3.64637">
        <ele>597.3</ele>
        <time>2020-08-21T11:44:36Z</time>
      </trkpt>
      <trkpt lat="44.16953" lon="3.64574">
        <ele>591.4</ele>
        <time>2020-08-21T11:44:51Z</time>
      </trkpt>
      <trkpt lat="44.16936" lon="3.64438">
        <ele>587.5</ele>
        <time>2020-08-21T11:45:40Z</time>
      </trkpt>
      <trkpt lat="44.16969" lon="3.64311">
        <ele>582.9</ele>
        <time>2020-08-21T11:51:21Z</time>
      </trkpt>
      <trkpt lat="44.16979" lon="3.64183">
        <ele>581.1</ele>
        <time>2020-08-21T11:53:07Z</time>
      </trkpt>
      <trkpt lat="44.16982" lon="3.64045">
        <ele>581.4</ele>
        <time>2020-08-21T11:54:10Z</time>
      </trkpt>
      <trkpt lat="44.17027" lon="3.63933">
        <ele>582.2</ele>
        <time>2020-08-21T11:55:15Z</time>
      </trkpt>
      <trkpt lat="44.1708" lon="3.63834">
        <ele>583</ele>
        <time>2020-08-21T11:56:12Z</time>
      </trkpt>
      <trkpt lat="44.17085" lon="3.637">
        <ele>584.5</ele>
        <time>2020-08-21T11:57:10Z</time>
      </trkpt>
      <trkpt lat="44.17128" lon="3.63586">
        <ele>587.2</ele>
        <time>2020-08-21T11:58:22Z</time>
      </trkpt>
      <trkpt lat="44.17136" lon="3.63454">
        <ele>589.6</ele>
        <time>2020-08-21T11:59:24Z</time>
      </trkpt>
      <trkpt lat="44.17146" lon="3.63325">
        <ele>593.1</ele>
        <time>2020-08-21T12:00:24Z</time>
      </trkpt>
      <trkpt lat="44.17216" lon="3.63249">
        <ele>601</ele>
        <time>2020-08-21T12:01:23Z</time>
      </trkpt>
      <trkpt lat="44.17261" lon="3.63134">
        <ele>607.4</ele>
        <time>2020-08-21T12:02:13Z</time>
      </trkpt>
      <trkpt lat="44.17302" lon="3.62993">
        <ele>615.2</ele>
        <time>2020-08-21T12:02:43Z</time>
      </trkpt>
      <trkpt lat="44.17388" lon="3.62913">
        <ele>617.9</ele>
        <time>2020-08-21T12:03:08Z</time>
      </trkpt>
      <trkpt lat="44.17428" lon="3.62791">
        <ele>620.5</ele>
        <time>2020-08-21T12:03:43Z</time>
      </trkpt>
      <trkpt lat="44.17492" lon="3.62705">
        <ele>624.4</ele>
        <time>2020-08-21T12:04:18Z</time>
      </trkpt>
      <trkpt lat="44.17589" lon="3.62706">
        <ele>629.8</ele>
        <time>2020-08-21T12:05:08Z</time>
      </trkpt>
      <trkpt lat="44.17669" lon="3.62651">
        <ele>634.1</ele>
        <time>2020-08-21T12:05:52Z</time>
      </trkpt>
      <trkpt lat="44.17596" lon="3.62565">
        <ele>645.8</ele>
        <time>2020-08-21T12:07:35Z</time>
      </trkpt>
      <trkpt lat="44.17498" lon="3.62543">
        <ele>657.8</ele>
        <time>2020-08-21T12:09:55Z</time>
      </trkpt>
      <trkpt lat="44.17421" lon="3.62464">
        <ele>663.4</ele>
        <time>2020-08-21T12:11:05Z</time>
      </trkpt>
      <trkpt lat="44.17338" lon="3.62398">
        <ele>668</ele>
        <time>2020-08-21T12:12:10Z</time>
      </trkpt>
      <trkpt lat="44.17244" lon="3.62394">
        <ele>672.8</ele>
        <time>2020-08-21T12:13:19Z</time>
      </trkpt>
      <trkpt lat="44.17246" lon="3.62525">
        <ele>683.7</ele>
        <time>2020-08-21T12:14:51Z</time>
      </trkpt>
      <trkpt lat="44.17197" lon="3.6264">
        <ele>692.9</ele>
        <time>2020-08-21T12:16:10Z</time>
      </trkpt>
      <trkpt lat="44.17107" lon="3.62681">
        <ele>699.1</ele>
        <time>2020-08-21T12:17:22Z</time>
      </trkpt>
      <trkpt lat="44.17164" lon="3.62573">
        <ele>722.7</ele>
        <time>2020-08-21T12:22:01Z</time>
      </trkpt>
      <trkpt lat="44.17143" lon="3.62448">
        <ele>728.5</ele>
        <time>2020-08-21T12:23:10Z</time>
      </trkpt>
      <trkpt lat="44.17112" lon="3.62571">
        <ele>736.6</ele>
        <time>2020-08-21T12:24:52Z</time>
      </trkpt>
      <trkpt lat="44.17027" lon="3.62624">
        <ele>750.4</ele>
        <time>2020-08-21T12:27:36Z</time>
      </trkpt>
      <trkpt lat="44.16939" lon="3.62566">
        <ele>766.5</ele>
        <time>2020-08-21T12:28:46Z</time>
      </trkpt>
      <trkpt lat="44.16848" lon="3.62513">
        <ele>777.9</ele>
        <time>2020-08-21T12:30:02Z</time>
      </trkpt>
      <trkpt lat="44.168" lon="3.62401">
        <ele>784.8</ele>
        <time>2020-08-21T12:31:09Z</time>
      </trkpt>
      <trkpt lat="44.16708" lon="3.62415">
        <ele>792</ele>
        <time>2020-08-21T12:32:38Z</time>
      </trkpt>
      <trkpt lat="44.16643" lon="3.62501">
        <ele>797.5</ele>
        <time>2020-08-21T12:33:43Z</time>
      </trkpt>
      <trkpt lat="44.16563" lon="3.62555">
        <ele>801.8</ele>
        <time>2020-08-21T12:34:40Z</time>
      </trkpt>
      <trkpt lat="44.16469" lon="3.62576">
        <ele>809.3</ele>
        <time>2020-08-21T12:35:50Z</time>
      </trkpt>
      <trkpt lat="44.16555" lon="3.62511">
        <ele>817.8</ele>
        <time>2020-08-21T12:37:08Z</time>
      </trkpt>
      <trkpt lat="44.16622" lon="3.62415">
        <ele>824</ele>
        <time>2020-08-21T12:38:05Z</time>
      </trkpt>
      <trkpt lat="44.16663" lon="3.62298">
        <ele>829.2</ele>
        <time>2020-08-21T12:39:01Z</time>
      </trkpt>
      <trkpt lat="44.16742" lon="3.62219">
        <ele>834.5</ele>
        <time>2020-08-21T12:39:54Z</time>
      </trkpt>
      <trkpt lat="44.16824" lon="3.62291">
        <ele>842.4</ele>
        <time>2020-08-21T12:40:51Z</time>
      </trkpt>
      <trkpt lat="44.1688" lon="3.62186">
        <ele>850.3</ele>
        <time>2020-08-21T12:41:54Z</time>
      </trkpt>
      <trkpt lat="44.16917" lon="3.62071">
        <ele>855</ele>
        <time>2020-08-21T12:42:43Z</time>
      </trkpt>
      <trkpt lat="44.16977" lon="3.61965">
        <ele>860.1</ele>
        <time>2020-08-21T12:43:41Z</time>
      </trkpt>
      <trkpt lat="44.17046" lon="3.61872">
        <ele>865.4</ele>
        <time>2020-08-21T12:44:43Z</time>
      </trkpt>
      <trkpt lat="44.17142" lon="3.6187">
        <ele>871</ele>
        <time>2020-08-21T12:45:56Z</time>
      </trkpt>
      <trkpt lat="44.1723" lon="3.61922">
        <ele>877.1</ele>
        <time>2020-08-21T12:46:51Z</time>
      </trkpt>
      <trkpt lat="44.17294" lon="3.61835">
        <ele>883</ele>
        <time>2020-08-21T12:47:47Z</time>
      </trkpt>
      <trkpt lat="44.17307" lon="3.61701">
        <ele>887.2</ele>
        <time>2020-08-21T12:48:46Z</time>
      </trkpt>
      <trkpt lat="44.17358" lon="3.61589">
        <ele>892.5</ele>
        <time>2020-08-21T12:50:04Z</time>
      </trkpt>
      <trkpt lat="44.17414" lon="3.61492">
        <ele>900</ele>
        <time>2020-08-21T12:51:14Z</time>
      </trkpt>
      <trkpt lat="44.17506" lon="3.61526">
        <ele>910.1</ele>
        <time>2020-08-21T12:52:15Z</time>
      </trkpt>
      <trkpt lat="44.17436" lon="3.61437">
        <ele>929.4</ele>
        <time>2020-08-21T12:55:31Z</time>
      </trkpt>
      <trkpt lat="44.1734" lon="3.61442">
        <ele>934</ele>
        <time>2020-08-21T12:56:36Z</time>
      </trkpt>
      <trkpt lat="44.1727" lon="3.61525">
        <ele>938.3</ele>
        <time>2020-08-21T12:57:42Z</time>
      </trkpt>
      <trkpt lat="44.17178" lon="3.61564">
        <ele>944.9</ele>
        <time>2020-08-21T12:59:01Z</time>
      </trkpt>
      <trkpt lat="44.17086" lon="3.61602">
        <ele>956.1</ele>
        <time>2020-08-21T13:01:36Z</time>
      </trkpt>
      <trkpt lat="44.16998" lon="3.61652">
        <ele>962.2</ele>
        <time>2020-08-21T13:02:47Z</time>
      </trkpt>
      <trkpt lat="44.16903" lon="3.61677">
        <ele>966.8</ele>
        <time>2020-08-21T13:03:56Z</time>
      </trkpt>
      <trkpt lat="44.16817" lon="3.61725">
        <ele>980.1</ele>
        <time>2020-08-21T13:08:12Z</time>
      </trkpt>
      <trkpt lat="44.16726" lon="3.61768">
        <ele>985.7</ele>
        <time>2020-08-21T13:09:23Z</time>
      </trkpt>
      <trkpt lat="44.16635" lon="3.61811">
        <ele>989</ele>
        <time>2020-08-21T13:10:31Z</time>
      </trkpt>
      <trkpt lat="44.16539" lon="3.61785">
        <ele>992.8</ele>
        <time>2020-08-21T13:11:48Z</time>
      </trkpt>
      <trkpt lat="44.16451" lon="3.61731">
        <ele>997.7</ele>
        <time>2020-08-21T13:12:57Z</time>
      </trkpt>
      <trkpt lat="44.1636" lon="3.61758">
        <ele>1005</ele>
        <time>2020-08-21T13:14:07Z</time>
      </trkpt>
      <trkpt lat="44.1627" lon="3.61727">
        <ele>1015.8</ele>
        <time>2020-08-21T13:15:53Z</time>
      </trkpt>
      <trkpt lat="44.16324" lon="3.61612">
        <ele>1023.2</ele>
        <time>2020-08-21T13:16:13Z</time>
      </trkpt>
      <trkpt lat="44.16392" lon="3.61503">
        <ele>1022.5</ele>
        <time>2020-08-21T13:16:28Z</time>
      </trkpt>
      <trkpt lat="44.16298" lon="3.61526">
        <ele>1020.1</ele>
        <time>2020-08-21T13:17:03Z</time>
      </trkpt>
      <trkpt lat="44.16205" lon="3.6144">
        <ele>1014.5</ele>
        <time>2020-08-21T13:17:18Z</time>
      </trkpt>
      <trkpt lat="44.16132" lon="3.61359">
        <ele>1010.2</ele>
        <time>2020-08-21T13:17:33Z</time>
      </trkpt>
      <trkpt lat="44.16016" lon="3.61314">
        <ele>1004.5</ele>
        <time>2020-08-21T13:18:56Z</time>
      </trkpt>
      <trkpt lat="44.15922" lon="3.61167">
        <ele>999.2</ele>
        <time>2020-08-21T13:19:11Z</time>
      </trkpt>
      <trkpt lat="44.15792" lon="3.61129">
        <ele>992.8</ele>
        <time>2020-08-21T13:19:26Z</time>
      </trkpt>
      <trkpt lat="44.15905" lon="3.61077">
        <ele>978.1</ele>
        <time>2020-08-21T13:20:10Z</time>
      </trkpt>
      <trkpt lat="44.15996" lon="3.61056">
        <ele>967.6</ele>
        <time>2020-08-21T13:20:25Z</time>
      </trkpt>
      <trkpt lat="44.15901" lon="3.61089">
        <ele>954.5</ele>
        <time>2020-08-21T13:22:41Z</time>
      </trkpt>
      <trkpt lat="44.15806" lon="3.61114">
        <ele>951.2</ele>
        <time>2020-08-21T13:23:51Z</time>
      </trkpt>
      <trkpt lat="44.15721" lon="3.61173">
        <ele>949.8</ele>
        <time>2020-08-21T13:24:57Z</time>
      </trkpt>
      <trkpt lat="44.1562" lon="3.61086">
        <ele>948.3</ele>
        <time>2020-08-21T13:25:17Z</time>
      </trkpt>
      <trkpt lat="44.15537" lon="3.60991">
        <ele>947.6</ele>
        <time>2020-08-21T13:25:32Z</time>
      </trkpt>
      <trkpt lat="44.1545" lon="3.61056">
        <ele>946.2</ele>
        <time>2020-08-21T13:25:52Z</time>
      </trkpt>
      <trkpt lat="44.15359" lon="3.61091">
        <ele>947.2</ele>
        <time>2020-08-21T13:26:17Z</time>
      </trkpt>
      <trkpt lat="44.15267" lon="3.61059">
        <ele>949</ele>
        <time>2020-08-21T13:27:37Z</time>
      </trkpt>
      <trkpt lat="44.1518" lon="3.60994">
        <ele>949.3</ele>
        <time>2020-08-21T13:28:52Z</time>
      </trkpt>
      <trkpt lat="44.15085" lon="3.6099">
        <ele>953.7</ele>
        <time>2020-08-21T13:30:01Z</time>
      </trkpt>
      <trkpt lat="44.15012" lon="3.61077">
        <ele>958.8</ele>
        <time>2020-08-21T13:31:04Z</time>
      </trkpt>
      <trkpt lat="44.14972" lon="3.61188">
        <ele>963.7</ele>
        <time>2020-08-21T13:32:01Z</time>
      </trkpt>
      <trkpt lat="44.14948" lon="3.61062">
        <ele>968.7</ele>
        <time>2020-08-21T13:33:30Z</time>
      </trkpt>
      <trkpt lat="44.14867" lon="3.61131">
        <ele>971.9</ele>
        <time>2020-08-21T13:34:05Z</time>
      </trkpt>
      <trkpt lat="44.14769" lon="3.61104">
        <ele>972.7</ele>
        <time>2020-08-21T13:34:30Z</time>
      </trkpt>
      <trkpt lat="44.1468" lon="3.61155">
        <ele>972.9</ele>
        <time>2020-08-21T13:34:55Z</time>
      </trkpt>
      <trkpt lat="44.14636" lon="3.61262">
        <ele>974.2</ele>
        <time>2020-08-21T13:35:51Z</time>
      </trkpt>
      <trkpt lat="44.1465" lon="3.61399">
        <ele>976.7</ele>
        <time>2020-08-21T13:37:00Z</time>
      </trkpt>
      <trkpt lat="44.14683" lon="3.6152">
        <ele>979.2</ele>
        <time>2020-08-21T13:38:00Z</time>
      </trkpt>
      <trkpt lat="44.14689" lon="3.61657">
        <ele>982</ele>
        <time>2020-08-21T13:39:03Z</time>
      </trkpt>
      <trkpt lat="44.14574" lon="3.6168">
        <ele>986.7</ele>
        <time>2020-08-21T13:39:55Z</time>
      </trkpt>
      <trkpt lat="44.14516" lon="3.6158">
        <ele>985.1</ele>
        <time>2020-08-21T13:40:10Z</time>
      </trkpt>
      <trkpt lat="44.14422" lon="3.61524">
        <ele>973.8</ele>
        <time>2020-08-21T13:40:25Z</time>
      </trkpt>
      <trkpt lat="44.14319" lon="3.61479">
        <ele>973.4</ele>
        <time>2020-08-21T13:40:45Z</time>
      </trkpt>
      <trkpt lat="44.14226" lon="3.61429">
        <ele>981.2</ele>
        <time>2020-08-21T13:41:26Z</time>
      </trkpt>
      <trkpt lat="44.14133" lon="3.6145">
        <ele>988.3</ele>
        <time>2020-08-21T13:42:22Z</time>
      </trkpt>
      <trkpt lat="44.14051" lon="3.61521">
        <ele>995.6</ele>
        <time>2020-08-21T13:43:23Z</time>
      </trkpt>
      <trkpt lat="44.13992" lon="3.61623">
        <ele>1000.3</ele>
        <time>2020-08-21T13:44:26Z</time>
      </trkpt>
      <trkpt lat="44.13896" lon="3.61615">
        <ele>1003</ele>
        <time>2020-08-21T13:45:25Z</time>
      </trkpt>
      <trkpt lat="44.13809" lon="3.61654">
        <ele>1004.1</ele>
        <time>2020-08-21T13:45:55Z</time>
      </trkpt>
      <trkpt lat="44.13709" lon="3.61644">
        <ele>1005.2</ele>
        <time>2020-08-21T13:46:15Z</time>
      </trkpt>
      <trkpt lat="44.13609" lon="3.61622">
        <ele>1005.2</ele>
        <time>2020-08-21T13:46:51Z</time>
      </trkpt>
      <trkpt lat="44.1352" lon="3.61668">
        <ele>1005.4</ele>
        <time>2020-08-21T13:47:31Z</time>
      </trkpt>
      <trkpt lat="44.13461" lon="3.61771">
        <ele>1006.4</ele>
        <time>2020-08-21T13:49:24Z</time>
      </trkpt>
      <trkpt lat="44.13398" lon="3.61857">
        <ele>1006.9</ele>
        <time>2020-08-21T13:49:54Z</time>
      </trkpt>
      <trkpt lat="44.13306" lon="3.61866">
        <ele>1007.6</ele>
        <time>2020-08-21T13:50:29Z</time>
      </trkpt>
      <trkpt lat="44.13207" lon="3.61886">
        <ele>1008.6</ele>
        <time>2020-08-21T13:51:15Z</time>
      </trkpt>
      <trkpt lat="44.13111" lon="3.61905">
        <ele>1009.3</ele>
        <time>2020-08-21T13:51:50Z</time>
      </trkpt>
      <trkpt lat="44.13014" lon="3.61916">
        <ele>1010.2</ele>
        <time>2020-08-21T13:52:30Z</time>
      </trkpt>
      <trkpt lat="44.12913" lon="3.61913">
        <ele>1010.8</ele>
        <time>2020-08-21T13:53:05Z</time>
      </trkpt>
      <trkpt lat="44.12816" lon="3.61942">
        <ele>1011.7</ele>
        <time>2020-08-21T13:53:45Z</time>
      </trkpt>
      <trkpt lat="44.1273" lon="3.61995">
        <ele>1012.9</ele>
        <time>2020-08-21T13:54:25Z</time>
      </trkpt>
      <trkpt lat="44.12644" lon="3.62056">
        <ele>1015.8</ele>
        <time>2020-08-21T13:55:30Z</time>
      </trkpt>
      <trkpt lat="44.12572" lon="3.62127">
        <ele>1018.8</ele>
        <time>2020-08-21T13:56:10Z</time>
      </trkpt>
      <trkpt lat="44.12483" lon="3.6217">
        <ele>1022.5</ele>
        <time>2020-08-21T13:57:04Z</time>
      </trkpt>
      <trkpt lat="44.12386" lon="3.62193">
        <ele>1027.3</ele>
        <time>2020-08-21T13:58:13Z</time>
      </trkpt>
      <trkpt lat="44.12296" lon="3.62231">
        <ele>1032.7</ele>
        <time>2020-08-21T13:59:20Z</time>
      </trkpt>
      <trkpt lat="44.12234" lon="3.62322">
        <ele>1040.2</ele>
        <time>2020-08-21T14:00:11Z</time>
      </trkpt>
      <trkpt lat="44.12218" lon="3.62457">
        <ele>1051.5</ele>
        <time>2020-08-21T14:01:23Z</time>
      </trkpt>
      <trkpt lat="44.1215" lon="3.62539">
        <ele>1059</ele>
        <time>2020-08-21T14:02:26Z</time>
      </trkpt>
      <trkpt lat="44.1223" lon="3.62605">
        <ele>1067.9</ele>
        <time>2020-08-21T14:03:38Z</time>
      </trkpt>
      <trkpt lat="44.12275" lon="3.62717">
        <ele>1075</ele>
        <time>2020-08-21T14:05:32Z</time>
      </trkpt>
      <trkpt lat="44.12306" lon="3.62842">
        <ele>1081.6</ele>
        <time>2020-08-21T14:07:06Z</time>
      </trkpt>
      <trkpt lat="44.12326" lon="3.62976">
        <ele>1091.1</ele>
        <time>2020-08-21T14:08:51Z</time>
      </trkpt>
      <trkpt lat="44.12348" lon="3.63107">
        <ele>1098.3</ele>
        <time>2020-08-21T14:10:21Z</time>
      </trkpt>
      <trkpt lat="44.1239" lon="3.63223">
        <ele>1102.2</ele>
        <time>2020-08-21T14:11:13Z</time>
      </trkpt>
      <trkpt lat="44.12438" lon="3.63345">
        <ele>1104.5</ele>
        <time>2020-08-21T14:12:04Z</time>
      </trkpt>
      <trkpt lat="44.12526" lon="3.63391">
        <ele>1106.5</ele>
        <time>2020-08-21T14:12:55Z</time>
      </trkpt>
    </trkseg>
  </trk>
  <trk>
    <name><![CDATA[route109]]></name>
    <trkseg>
      <trkpt lat="44.11841" lon="3.61471">
        <ele>1140.8</ele>
        <time>2020-08-22T06:32:22Z</time>
      </trkpt>
      <trkpt lat="44.11791" lon="3.61362">
        <ele>1139.5</ele>
        <time>2020-08-22T06:35:28Z</time>
      </trkpt>
      <trkpt lat="44.1175" lon="3.61245">
        <ele>1138.5</ele>
        <time>2020-08-22T06:37:09Z</time>
      </trkpt>
      <trkpt lat="44.11714" lon="3.61125">
        <ele>1139.1</ele>
        <time>2020-08-22T06:38:46Z</time>
      </trkpt>
      <trkpt lat="44.11671" lon="3.61008">
        <ele>1140.4</ele>
        <time>2020-08-22T06:41:08Z</time>
      </trkpt>
      <trkpt lat="44.11668" lon="3.60876">
        <ele>1142.6</ele>
        <time>2020-08-22T06:42:56Z</time>
      </trkpt>
      <trkpt lat="44.1166" lon="3.60749">
        <ele>1145.6</ele>
        <time>2020-08-22T06:44:36Z</time>
      </trkpt>
      <trkpt lat="44.11641" lon="3.60619">
        <ele>1150.6</ele>
        <time>2020-08-22T06:46:53Z</time>
      </trkpt>
      <trkpt lat="44.11639" lon="3.60489">
        <ele>1156.1</ele>
        <time>2020-08-22T06:49:11Z</time>
      </trkpt>
      <trkpt lat="44.11678" lon="3.60374">
        <ele>1161.7</ele>
        <time>2020-08-22T06:51:10Z</time>
      </trkpt>
      <trkpt lat="44.11734" lon="3.60267">
        <ele>1175.3</ele>
        <time>2020-08-22T06:53:31Z</time>
      </trkpt>
      <trkpt lat="44.11822" lon="3.60231">
        <ele>1201.2</ele>
        <time>2020-08-22T06:55:39Z</time>
      </trkpt>
      <trkpt lat="44.1189" lon="3.60332">
        <ele>1238.2</ele>
        <time>2020-08-22T06:59:31Z</time>
      </trkpt>
      <trkpt lat="44.11903" lon="3.60457">
        <ele>1245</ele>
        <time>2020-08-22T07:13:41Z</time>
      </trkpt>
      <trkpt lat="44.11978" lon="3.60545">
        <ele>1247.8</ele>
        <time>2020-08-22T07:21:48Z</time>
      </trkpt>
      <trkpt lat="44.12059" lon="3.60484">
        <ele>1260.2</ele>
        <time>2020-08-22T07:30:27Z</time>
      </trkpt>
      <trkpt lat="44.12099" lon="3.60364">
        <ele>1267.4</ele>
        <time>2020-08-22T07:33:35Z</time>
      </trkpt>
      <trkpt lat="44.12164" lon="3.60271">
        <ele>1273.4</ele>
        <time>2020-08-22T07:36:47Z</time>
      </trkpt>
      <trkpt lat="44.12078" lon="3.60212">
        <ele>1301.7</ele>
        <time>2020-08-22T07:43:24Z</time>
      </trkpt>
      <trkpt lat="44.12054" lon="3.60077">
        <ele>1329.1</ele>
        <time>2020-08-22T07:47:31Z</time>
      </trkpt>
      <trkpt lat="44.12057" lon="3.59949">
        <ele>1345.2</ele>
        <time>2020-08-22T07:51:24Z</time>
      </trkpt>
      <trkpt lat="44.11997" lon="3.59843">
        <ele>1354.7</ele>
        <time>2020-08-22T07:54:59Z</time>
      </trkpt>
      <trkpt lat="44.11908" lon="3.59814">
        <ele>1362.6</ele>
        <time>2020-08-22T07:57:59Z</time>
      </trkpt>
      <trkpt lat="44.1195" lon="3.59699">
        <ele>1382.8</ele>
        <time>2020-08-22T08:03:30Z</time>
      </trkpt>
      <trkpt lat="44.11928" lon="3.59567">
        <ele>1399.6</ele>
        <time>2020-08-22T08:06:59Z</time>
      </trkpt>
      <trkpt lat="44.11943" lon="3.59438">
        <ele>1417.3</ele>
        <time>2020-08-22T08:12:28Z</time>
      </trkpt>
      <trkpt lat="44.12037" lon="3.59394">
        <ele>1423.3</ele>
        <time>2020-08-22T08:13:34Z</time>
      </trkpt>
      <trkpt lat="44.12133" lon="3.59382">
        <ele>1427</ele>
        <time>2020-08-22T08:14:43Z</time>
      </trkpt>
      <trkpt lat="44.12216" lon="3.59322">
        <ele>1429.3</ele>
        <time>2020-08-22T08:15:40Z</time>
      </trkpt>
      <trkpt lat="44.1229" lon="3.59255">
        <ele>1432.8</ele>
        <time>2020-08-22T08:16:41Z</time>
      </trkpt>
      <trkpt lat="44.12207" lon="3.59193">
        <ele>1453.8</ele>
        <time>2020-08-22T08:21:19Z</time>
      </trkpt>
      <trkpt lat="44.12112" lon="3.59207">
        <ele>1463.1</ele>
        <time>2020-08-22T08:23:20Z</time>
      </trkpt>
      <trkpt lat="44.12018" lon="3.59213">
        <ele>1478.5</ele>
        <time>2020-08-22T08:26:06Z</time>
      </trkpt>
      <trkpt lat="44.12002" lon="3.59087">
        <ele>1509</ele>
        <time>2020-08-22T08:29:48Z</time>
      </trkpt>
      <trkpt lat="44.11961" lon="3.5897">
        <ele>1517.1</ele>
        <time>2020-08-22T08:31:31Z</time>
      </trkpt>
      <trkpt lat="44.1193" lon="3.58846">
        <ele>1539.9</ele>
        <time>2020-08-22T08:38:52Z</time>
      </trkpt>
      <trkpt lat="44.11949" lon="3.58724">
        <ele>1544.4</ele>
        <time>2020-08-22T08:39:42Z</time>
      </trkpt>
      <trkpt lat="44.11965" lon="3.58589">
        <ele>1545.9</ele>
        <time>2020-08-22T08:43:00Z</time>
      </trkpt>
      <trkpt lat="44.11986" lon="3.58458">
        <ele>1546.6</ele>
        <time>2020-08-22T08:43:30Z</time>
      </trkpt>
      <trkpt lat="44.12008" lon="3.58316">
        <ele>1547.6</ele>
        <time>2020-08-22T08:43:50Z</time>
      </trkpt>
      <trkpt lat="44.12024" lon="3.58156">
        <ele>1547.6</ele>
        <time>2020-08-22T08:44:10Z</time>
      </trkpt>
      <trkpt lat="44.12001" lon="3.58016">
        <ele>1546.8</ele>
        <time>2020-08-22T08:44:25Z</time>
      </trkpt>
      <trkpt lat="44.11935" lon="3.57902">
        <ele>1541.3</ele>
        <time>2020-08-22T08:47:19Z</time>
      </trkpt>
      <trkpt lat="44.11919" lon="3.57765">
        <ele>1535.5</ele>
        <time>2020-08-22T08:47:39Z</time>
      </trkpt>
      <trkpt lat="44.11915" lon="3.57611">
        <ele>1533.2</ele>
        <time>2020-08-22T08:47:59Z</time>
      </trkpt>
      <trkpt lat="44.1188" lon="3.5749">
        <ele>1531.2</ele>
        <time>2020-08-22T08:48:19Z</time>
      </trkpt>
      <trkpt lat="44.11803" lon="3.57363">
        <ele>1529</ele>
        <time>2020-08-22T08:48:39Z</time>
      </trkpt>
      <trkpt lat="44.11746" lon="3.57243">
        <ele>1526.5</ele>
        <time>2020-08-22T08:48:54Z</time>
      </trkpt>
      <trkpt lat="44.11698" lon="3.57117">
        <ele>1523.2</ele>
        <time>2020-08-22T08:49:09Z</time>
      </trkpt>
      <trkpt lat="44.11768" lon="3.56999">
        <ele>1517</ele>
        <time>2020-08-22T08:49:29Z</time>
      </trkpt>
      <trkpt lat="44.11847" lon="3.56896">
        <ele>1511.4</ele>
        <time>2020-08-22T08:49:44Z</time>
      </trkpt>
      <trkpt lat="44.11931" lon="3.56813">
        <ele>1505.8</ele>
        <time>2020-08-22T08:49:59Z</time>
      </trkpt>
      <trkpt lat="44.11994" lon="3.56701">
        <ele>1503.3</ele>
        <time>2020-08-22T08:50:14Z</time>
      </trkpt>
      <trkpt lat="44.12029" lon="3.56546">
        <ele>1498</ele>
        <time>2020-08-22T08:50:29Z</time>
      </trkpt>
      <trkpt lat="44.12075" lon="3.56415">
        <ele>1494.1</ele>
        <time>2020-08-22T08:50:44Z</time>
      </trkpt>
      <trkpt lat="44.11996" lon="3.5634">
        <ele>1491</ele>
        <time>2020-08-22T08:50:59Z</time>
      </trkpt>
      <trkpt lat="44.11939" lon="3.56214">
        <ele>1486.5</ele>
        <time>2020-08-22T08:51:14Z</time>
      </trkpt>
      <trkpt lat="44.11835" lon="3.56147">
        <ele>1481.6</ele>
        <time>2020-08-22T08:51:29Z</time>
      </trkpt>
      <trkpt lat="44.11798" lon="3.5599">
        <ele>1474.9</ele>
        <time>2020-08-22T08:51:44Z</time>
      </trkpt>
      <trkpt lat="44.11769" lon="3.55811">
        <ele>1468.3</ele>
        <time>2020-08-22T08:51:59Z</time>
      </trkpt>
      <trkpt lat="44.11704" lon="3.55703">
        <ele>1465.6</ele>
        <time>2020-08-22T08:53:20Z</time>
      </trkpt>
      <trkpt lat="44.11639" lon="3.55599">
        <ele>1460.9</ele>
        <time>2020-08-22T08:53:40Z</time>
      </trkpt>
      <trkpt lat="44.11586" lon="3.55455">
        <ele>1459</ele>
        <time>2020-08-22T08:53:55Z</time>
      </trkpt>
      <trkpt lat="44.11504" lon="3.55323">
        <ele>1453.2</ele>
        <time>2020-08-22T08:54:10Z</time>
      </trkpt>
      <trkpt lat="44.11427" lon="3.55212">
        <ele>1447.2</ele>
        <time>2020-08-22T08:54:25Z</time>
      </trkpt>
      <trkpt lat="44.11496" lon="3.55085">
        <ele>1439.8</ele>
        <time>2020-08-22T08:54:40Z</time>
      </trkpt>
      <trkpt lat="44.11426" lon="3.54957">
        <ele>1431</ele>
        <time>2020-08-22T08:55:05Z</time>
      </trkpt>
      <trkpt lat="44.11317" lon="3.54916">
        <ele>1425.1</ele>
        <time>2020-08-22T08:55:20Z</time>
      </trkpt>
      <trkpt lat="44.11197" lon="3.54868">
        <ele>1417.8</ele>
        <time>2020-08-22T08:55:35Z</time>
      </trkpt>
      <trkpt lat="44.1112" lon="3.54739">
        <ele>1414</ele>
        <time>2020-08-22T08:55:50Z</time>
      </trkpt>
      <trkpt lat="44.10998" lon="3.54707">
        <ele>1407.9</ele>
        <time>2020-08-22T08:56:05Z</time>
      </trkpt>
      <trkpt lat="44.10889" lon="3.54619">
        <ele>1400.6</ele>
        <time>2020-08-22T08:56:20Z</time>
      </trkpt>
      <trkpt lat="44.10761" lon="3.54627">
        <ele>1398.2</ele>
        <time>2020-08-22T08:56:35Z</time>
      </trkpt>
      <trkpt lat="44.10653" lon="3.5474">
        <ele>1389.8</ele>
        <time>2020-08-22T08:56:50Z</time>
      </trkpt>
      <trkpt lat="44.10543" lon="3.54662">
        <ele>1385.1</ele>
        <time>2020-08-22T08:57:15Z</time>
      </trkpt>
      <trkpt lat="44.10461" lon="3.54535">
        <ele>1378</ele>
        <time>2020-08-22T08:57:30Z</time>
      </trkpt>
      <trkpt lat="44.10394" lon="3.54384">
        <ele>1370.4</ele>
        <time>2020-08-22T08:57:45Z</time>
      </trkpt>
      <trkpt lat="44.10351" lon="3.5422">
        <ele>1367.1</ele>
        <time>2020-08-22T08:58:00Z</time>
      </trkpt>
      <trkpt lat="44.10249" lon="3.54199">
        <ele>1362</ele>
        <time>2020-08-22T08:58:20Z</time>
      </trkpt>
      <trkpt lat="44.10189" lon="3.54378">
        <ele>1355.1</ele>
        <time>2020-08-22T08:58:35Z</time>
      </trkpt>
      <trkpt lat="44.10119" lon="3.54502">
        <ele>1352.1</ele>
        <time>2020-08-22T08:58:45Z</time>
      </trkpt>
      <trkpt lat="44.10025" lon="3.54585">
        <ele>1346.5</ele>
        <time>2020-08-22T08:58:55Z</time>
      </trkpt>
      <trkpt lat="44.09926" lon="3.54651">
        <ele>1338.6</ele>
        <time>2020-08-22T08:59:05Z</time>
      </trkpt>
      <trkpt lat="44.09833" lon="3.54739">
        <ele>1333.3</ele>
        <time>2020-08-22T08:59:15Z</time>
      </trkpt>
      <trkpt lat="44.09756" lon="3.54842">
        <ele>1329.3</ele>
        <time>2020-08-22T08:59:25Z</time>
      </trkpt>
      <trkpt lat="44.09662" lon="3.54902">
        <ele>1323</ele>
        <time>2020-08-22T08:59:35Z</time>
      </trkpt>
      <trkpt lat="44.09561" lon="3.54915">
        <ele>1311.8</ele>
        <time>2020-08-22T08:59:45Z</time>
      </trkpt>
      <trkpt lat="44.09496" lon="3.54803">
        <ele>1310.6</ele>
        <time>2020-08-22T08:59:55Z</time>
      </trkpt>
      <trkpt lat="44.094" lon="3.54695">
        <ele>1307.2</ele>
        <time>2020-08-22T09:00:10Z</time>
      </trkpt>
      <trkpt lat="44.0929" lon="3.54674">
        <ele>1299.5</ele>
        <time>2020-08-22T09:00:30Z</time>
      </trkpt>
      <trkpt lat="44.09197" lon="3.54643">
        <ele>1292.6</ele>
        <time>2020-08-22T09:01:38Z</time>
      </trkpt>
      <trkpt lat="44.09151" lon="3.54525">
        <ele>1283.5</ele>
        <time>2020-08-22T09:02:03Z</time>
      </trkpt>
      <trkpt lat="44.091" lon="3.54418">
        <ele>1281.9</ele>
        <time>2020-08-22T09:02:23Z</time>
      </trkpt>
      <trkpt lat="44.09066" lon="3.54286">
        <ele>1279.4</ele>
        <time>2020-08-22T09:02:43Z</time>
      </trkpt>
      <trkpt lat="44.09066" lon="3.54134">
        <ele>1277.1</ele>
        <time>2020-08-22T09:03:03Z</time>
      </trkpt>
      <trkpt lat="44.09043" lon="3.53998">
        <ele>1274.6</ele>
        <time>2020-08-22T09:03:23Z</time>
      </trkpt>
      <trkpt lat="44.08982" lon="3.53882">
        <ele>1272.5</ele>
        <time>2020-08-22T09:03:43Z</time>
      </trkpt>
      <trkpt lat="44.08903" lon="3.53806">
        <ele>1270</ele>
        <time>2020-08-22T09:04:03Z</time>
      </trkpt>
      <trkpt lat="44.08807" lon="3.53767">
        <ele>1267.8</ele>
        <time>2020-08-22T09:04:23Z</time>
      </trkpt>
      <trkpt lat="44.08835" lon="3.53909">
        <ele>1263.8</ele>
        <time>2020-08-22T09:05:22Z</time>
      </trkpt>
      <trkpt lat="44.08729" lon="3.53929">
        <ele>1261.2</ele>
        <time>2020-08-22T09:05:37Z</time>
      </trkpt>
      <trkpt lat="44.08627" lon="3.53908">
        <ele>1253.1</ele>
        <time>2020-08-22T09:05:52Z</time>
      </trkpt>
      <trkpt lat="44.08523" lon="3.53838">
        <ele>1244</ele>
        <time>2020-08-22T09:06:07Z</time>
      </trkpt>
      <trkpt lat="44.08429" lon="3.53733">
        <ele>1233.7</ele>
        <time>2020-08-22T09:06:22Z</time>
      </trkpt>
      <trkpt lat="44.08364" lon="3.53844">
        <ele>1225.1</ele>
        <time>2020-08-22T09:06:37Z</time>
      </trkpt>
      <trkpt lat="44.08275" lon="3.53969">
        <ele>1222.1</ele>
        <time>2020-08-22T09:06:52Z</time>
      </trkpt>
      <trkpt lat="44.08172" lon="3.54014">
        <ele>1221.1</ele>
        <time>2020-08-22T09:07:07Z</time>
      </trkpt>
      <trkpt lat="44.08194" lon="3.5389">
        <ele>1216.4</ele>
        <time>2020-08-22T09:07:27Z</time>
      </trkpt>
      <trkpt lat="44.08194" lon="3.53758">
        <ele>1215.3</ele>
        <time>2020-08-22T09:08:07Z</time>
      </trkpt>
      <trkpt lat="44.08108" lon="3.53689">
        <ele>1215.4</ele>
        <time>2020-08-22T09:08:56Z</time>
      </trkpt>
      <trkpt lat="44.08019" lon="3.53652">
        <ele>1217.2</ele>
        <time>2020-08-22T09:09:36Z</time>
      </trkpt>
      <trkpt lat="44.07938" lon="3.53589">
        <ele>1217.7</ele>
        <time>2020-08-22T09:10:11Z</time>
      </trkpt>
      <trkpt lat="44.07877" lon="3.53473">
        <ele>1219.3</ele>
        <time>2020-08-22T09:10:56Z</time>
      </trkpt>
      <trkpt lat="44.07849" lon="3.5335">
        <ele>1225.2</ele>
        <time>2020-08-22T09:11:32Z</time>
      </trkpt>
      <trkpt lat="44.07808" lon="3.53232">
        <ele>1228.5</ele>
        <time>2020-08-22T09:12:07Z</time>
      </trkpt>
      <trkpt lat="44.07707" lon="3.53254">
        <ele>1229.2</ele>
        <time>2020-08-22T09:12:52Z</time>
      </trkpt>
      <trkpt lat="44.07627" lon="3.53308">
        <ele>1228.9</ele>
        <time>2020-08-22T09:13:22Z</time>
      </trkpt>
      <trkpt lat="44.07573" lon="3.53405">
        <ele>1228.8</ele>
        <time>2020-08-22T09:13:57Z</time>
      </trkpt>
      <trkpt lat="44.07477" lon="3.53397">
        <ele>1229.4</ele>
        <time>2020-08-22T09:14:42Z</time>
      </trkpt>
      <trkpt lat="44.07387" lon="3.53398">
        <ele>1229.9</ele>
        <time>2020-08-22T09:15:17Z</time>
      </trkpt>
      <trkpt lat="44.07329" lon="3.53509">
        <ele>1230.9</ele>
        <time>2020-08-22T09:15:47Z</time>
      </trkpt>
      <trkpt lat="44.07282" lon="3.53627">
        <ele>1231</ele>
        <time>2020-08-22T09:16:07Z</time>
      </trkpt>
      <trkpt lat="44.07262" lon="3.53763">
        <ele>1231</ele>
        <time>2020-08-22T09:16:27Z</time>
      </trkpt>
      <trkpt lat="44.07159" lon="3.5372">
        <ele>1230.8</ele>
        <time>2020-08-22T09:17:02Z</time>
      </trkpt>
      <trkpt lat="44.07067" lon="3.53767">
        <ele>1230.6</ele>
        <time>2020-08-22T09:17:22Z</time>
      </trkpt>
      <trkpt lat="44.0697" lon="3.53828">
        <ele>1230.3</ele>
        <time>2020-08-22T09:17:42Z</time>
      </trkpt>
      <trkpt lat="44.06879" lon="3.539">
        <ele>1229.7</ele>
        <time>2020-08-22T09:18:02Z</time>
      </trkpt>
      <trkpt lat="44.06928" lon="3.54023">
        <ele>1229.4</ele>
        <time>2020-08-22T09:18:22Z</time>
      </trkpt>
      <trkpt lat="44.06986" lon="3.54138">
        <ele>1229.5</ele>
        <time>2020-08-22T09:18:47Z</time>
      </trkpt>
      <trkpt lat="44.069" lon="3.54196">
        <ele>1231.6</ele>
        <time>2020-08-22T09:22:56Z</time>
      </trkpt>
      <trkpt lat="44.06837" lon="3.54303">
        <ele>1232</ele>
        <time>2020-08-22T09:23:16Z</time>
      </trkpt>
      <trkpt lat="44.06768" lon="3.54386">
        <ele>1232.1</ele>
        <time>2020-08-22T09:23:36Z</time>
      </trkpt>
      <trkpt lat="44.06776" lon="3.54248">
        <ele>1232</ele>
        <time>2020-08-22T09:24:16Z</time>
      </trkpt>
      <trkpt lat="44.06737" lon="3.5413">
        <ele>1231.8</ele>
        <time>2020-08-22T09:25:03Z</time>
      </trkpt>
      <trkpt lat="44.0665" lon="3.5409">
        <ele>1232.7</ele>
        <time>2020-08-22T09:25:48Z</time>
      </trkpt>
      <trkpt lat="44.0657" lon="3.54149">
        <ele>1234</ele>
        <time>2020-08-22T09:26:34Z</time>
      </trkpt>
      <trkpt lat="44.0648" lon="3.54184">
        <ele>1235</ele>
        <time>2020-08-22T09:27:22Z</time>
      </trkpt>
      <trkpt lat="44.0641" lon="3.54279">
        <ele>1236</ele>
        <time>2020-08-22T09:28:15Z</time>
      </trkpt>
      <trkpt lat="44.06347" lon="3.54369">
        <ele>1253.3</ele>
        <time>2020-08-22T10:14:21Z</time>
      </trkpt>
      <trkpt lat="44.06287" lon="3.54473">
        <ele>1253.7</ele>
        <time>2020-08-22T10:15:14Z</time>
      </trkpt>
      <trkpt lat="44.06231" lon="3.54581">
        <ele>1254.7</ele>
        <time>2020-08-22T10:16:09Z</time>
      </trkpt>
      <trkpt lat="44.06137" lon="3.54602">
        <ele>1255.9</ele>
        <time>2020-08-22T10:16:54Z</time>
      </trkpt>
      <trkpt lat="44.06052" lon="3.5454">
        <ele>1257.6</ele>
        <time>2020-08-22T10:17:47Z</time>
      </trkpt>
      <trkpt lat="44.05953" lon="3.54551">
        <ele>1259.2</ele>
        <time>2020-08-22T10:18:32Z</time>
      </trkpt>
      <trkpt lat="44.05874" lon="3.54633">
        <ele>1260.4</ele>
        <time>2020-08-22T10:19:17Z</time>
      </trkpt>
      <trkpt lat="44.05777" lon="3.54639">
        <ele>1262.6</ele>
        <time>2020-08-22T10:20:01Z</time>
      </trkpt>
      <trkpt lat="44.05678" lon="3.54648">
        <ele>1266.5</ele>
        <time>2020-08-22T10:20:46Z</time>
      </trkpt>
      <trkpt lat="44.05585" lon="3.54686">
        <ele>1270.5</ele>
        <time>2020-08-22T10:21:31Z</time>
      </trkpt>
      <trkpt lat="44.05497" lon="3.54727">
        <ele>1273.8</ele>
        <time>2020-08-22T10:22:16Z</time>
      </trkpt>
      <trkpt lat="44.05403" lon="3.54754">
        <ele>1278</ele>
        <time>2020-08-22T10:23:01Z</time>
      </trkpt>
      <trkpt lat="44.05408" lon="3.54881">
        <ele>1282.5</ele>
        <time>2020-08-22T10:23:26Z</time>
      </trkpt>
      <trkpt lat="44.05447" lon="3.55001">
        <ele>1285.7</ele>
        <time>2020-08-22T10:23:41Z</time>
      </trkpt>
      <trkpt lat="44.05359" lon="3.55026">
        <ele>1286.7</ele>
        <time>2020-08-22T10:23:56Z</time>
      </trkpt>
      <trkpt lat="44.0527" lon="3.55073">
        <ele>1287.2</ele>
        <time>2020-08-22T10:24:06Z</time>
      </trkpt>
      <trkpt lat="44.05189" lon="3.55144">
        <ele>1288.2</ele>
        <time>2020-08-22T10:24:16Z</time>
      </trkpt>
      <trkpt lat="44.05195" lon="3.55274">
        <ele>1286.4</ele>
        <time>2020-08-22T10:24:26Z</time>
      </trkpt>
      <trkpt lat="44.05109" lon="3.55316">
        <ele>1283.4</ele>
        <time>2020-08-22T10:24:36Z</time>
      </trkpt>
      <trkpt lat="44.05018" lon="3.55359">
        <ele>1283</ele>
        <time>2020-08-22T10:24:46Z</time>
      </trkpt>
      <trkpt lat="44.04949" lon="3.55447">
        <ele>1277.5</ele>
        <time>2020-08-22T10:24:56Z</time>
      </trkpt>
      <trkpt lat="44.04937" lon="3.55586">
        <ele>1273.7</ele>
        <time>2020-08-22T10:25:06Z</time>
      </trkpt>
      <trkpt lat="44.04866" lon="3.55671">
        <ele>1272.7</ele>
        <time>2020-08-22T10:25:16Z</time>
      </trkpt>
      <trkpt lat="44.04865" lon="3.55801">
        <ele>1266.8</ele>
        <time>2020-08-22T10:25:26Z</time>
      </trkpt>
      <trkpt lat="44.04762" lon="3.55747">
        <ele>1253.7</ele>
        <time>2020-08-22T10:25:41Z</time>
      </trkpt>
      <trkpt lat="44.04664" lon="3.5562">
        <ele>1243</ele>
        <time>2020-08-22T10:25:56Z</time>
      </trkpt>
      <trkpt lat="44.0455" lon="3.55644">
        <ele>1237.4</ele>
        <time>2020-08-22T10:26:11Z</time>
      </trkpt>
      <trkpt lat="44.04468" lon="3.55714">
        <ele>1237.2</ele>
        <time>2020-08-22T10:26:21Z</time>
      </trkpt>
      <trkpt lat="44.04393" lon="3.55797">
        <ele>1235.6</ele>
        <time>2020-08-22T10:26:31Z</time>
      </trkpt>
      <trkpt lat="44.04308" lon="3.55893">
        <ele>1226.8</ele>
        <time>2020-08-22T10:26:46Z</time>
      </trkpt>
      <trkpt lat="44.04189" lon="3.55984">
        <ele>1219.6</ele>
        <time>2020-08-22T10:27:01Z</time>
      </trkpt>
      <trkpt lat="44.04086" lon="3.56006">
        <ele>1215.6</ele>
        <time>2020-08-22T10:27:11Z</time>
      </trkpt>
      <trkpt lat="44.04078" lon="3.56149">
        <ele>1208</ele>
        <time>2020-08-22T10:27:21Z</time>
      </trkpt>
      <trkpt lat="44.0408" lon="3.56293">
        <ele>1199.3</ele>
        <time>2020-08-22T10:27:31Z</time>
      </trkpt>
      <trkpt lat="44.04103" lon="3.5643">
        <ele>1194.6</ele>
        <time>2020-08-22T10:27:41Z</time>
      </trkpt>
      <trkpt lat="44.04016" lon="3.56492">
        <ele>1191.1</ele>
        <time>2020-08-22T10:27:51Z</time>
      </trkpt>
      <trkpt lat="44.03962" lon="3.56605">
        <ele>1185.5</ele>
        <time>2020-08-22T10:28:01Z</time>
      </trkpt>
      <trkpt lat="44.0392" lon="3.5674">
        <ele>1177.1</ele>
        <time>2020-08-22T10:28:11Z</time>
      </trkpt>
      <trkpt lat="44.03811" lon="3.56798">
        <ele>1170.4</ele>
        <time>2020-08-22T10:28:26Z</time>
      </trkpt>
      <trkpt lat="44.03723" lon="3.5682">
        <ele>1165.5</ele>
        <time>2020-08-22T10:28:36Z</time>
      </trkpt>
      <trkpt lat="44.03633" lon="3.5682">
        <ele>1160</ele>
        <time>2020-08-22T10:28:46Z</time>
      </trkpt>
      <trkpt lat="44.03572" lon="3.5692">
        <ele>1155.9</ele>
        <time>2020-08-22T10:28:56Z</time>
      </trkpt>
      <trkpt lat="44.03539" lon="3.57046">
        <ele>1144.7</ele>
        <time>2020-08-22T10:29:06Z</time>
      </trkpt>
      <trkpt lat="44.03545" lon="3.57178">
        <ele>1139.1</ele>
        <time>2020-08-22T10:29:16Z</time>
      </trkpt>
      <trkpt lat="44.03478" lon="3.57258">
        <ele>1130.7</ele>
        <time>2020-08-22T10:29:26Z</time>
      </trkpt>
      <trkpt lat="44.03387" lon="3.57199">
        <ele>1124.4</ele>
        <time>2020-08-22T10:29:36Z</time>
      </trkpt>
      <trkpt lat="44.03288" lon="3.57145">
        <ele>1119.3</ele>
        <time>2020-08-22T10:29:46Z</time>
      </trkpt>
      <trkpt lat="44.03193" lon="3.57158">
        <ele>1117.2</ele>
        <time>2020-08-22T10:29:56Z</time>
      </trkpt>
      <trkpt lat="44.03136" lon="3.57275">
        <ele>1110.1</ele>
        <time>2020-08-22T10:30:06Z</time>
      </trkpt>
      <trkpt lat="44.03079" lon="3.57375">
        <ele>1101.9</ele>
        <time>2020-08-22T10:30:16Z</time>
      </trkpt>
      <trkpt lat="44.02981" lon="3.57376">
        <ele>1097</ele>
        <time>2020-08-22T10:30:26Z</time>
      </trkpt>
      <trkpt lat="44.02889" lon="3.57441">
        <ele>1091.3</ele>
        <time>2020-08-22T10:30:36Z</time>
      </trkpt>
      <trkpt lat="44.02792" lon="3.5747">
        <ele>1087.1</ele>
        <time>2020-08-22T10:30:46Z</time>
      </trkpt>
      <trkpt lat="44.02701" lon="3.57454">
        <ele>1082.9</ele>
        <time>2020-08-22T10:30:56Z</time>
      </trkpt>
      <trkpt lat="44.026" lon="3.57337">
        <ele>1078.3</ele>
        <time>2020-08-22T10:31:11Z</time>
      </trkpt>
      <trkpt lat="44.02513" lon="3.57278">
        <ele>1069.1</ele>
        <time>2020-08-22T10:31:21Z</time>
      </trkpt>
      <trkpt lat="44.02456" lon="3.57113">
        <ele>1062.1</ele>
        <time>2020-08-22T10:31:36Z</time>
      </trkpt>
      <trkpt lat="44.02512" lon="3.56984">
        <ele>1056.5</ele>
        <time>2020-08-22T10:31:51Z</time>
      </trkpt>
      <trkpt lat="44.02382" lon="3.56917">
        <ele>1040.4</ele>
        <time>2020-08-22T10:32:06Z</time>
      </trkpt>
      <trkpt lat="44.02298" lon="3.56778">
        <ele>1033.3</ele>
        <time>2020-08-22T10:32:21Z</time>
      </trkpt>
      <trkpt lat="44.0223" lon="3.5663">
        <ele>1031.7</ele>
        <time>2020-08-22T10:32:36Z</time>
      </trkpt>
      <trkpt lat="44.02162" lon="3.56543">
        <ele>1027.2</ele>
        <time>2020-08-22T10:32:46Z</time>
      </trkpt>
      <trkpt lat="44.02068" lon="3.56549">
        <ele>1025.7</ele>
        <time>2020-08-22T10:32:56Z</time>
      </trkpt>
      <trkpt lat="44.02059" lon="3.5668">
        <ele>1026.5</ele>
        <time>2020-08-22T10:33:06Z</time>
      </trkpt>
      <trkpt lat="44.02159" lon="3.56722">
        <ele>1024.5</ele>
        <time>2020-08-22T10:33:21Z</time>
      </trkpt>
      <trkpt lat="44.02172" lon="3.56878">
        <ele>1018.8</ele>
        <time>2020-08-22T10:33:36Z</time>
      </trkpt>
      <trkpt lat="44.02179" lon="3.57012">
        <ele>1017.6</ele>
        <time>2020-08-22T10:33:46Z</time>
      </trkpt>
      <trkpt lat="44.02176" lon="3.57147">
        <ele>1017.2</ele>
        <time>2020-08-22T10:33:56Z</time>
      </trkpt>
      <trkpt lat="44.02145" lon="3.57267">
        <ele>1015.8</ele>
        <time>2020-08-22T10:34:06Z</time>
      </trkpt>
      <trkpt lat="44.02099" lon="3.57377">
        <ele>1014.8</ele>
        <time>2020-08-22T10:34:16Z</time>
      </trkpt>
      <trkpt lat="44.02195" lon="3.57501">
        <ele>1001.7</ele>
        <time>2020-08-22T10:34:31Z</time>
      </trkpt>
      <trkpt lat="44.02296" lon="3.57632">
        <ele>993.2</ele>
        <time>2020-08-22T10:34:46Z</time>
      </trkpt>
      <trkpt lat="44.02284" lon="3.57759">
        <ele>984.6</ele>
        <time>2020-08-22T10:34:56Z</time>
      </trkpt>
      <trkpt lat="44.02241" lon="3.57886">
        <ele>981.4</ele>
        <time>2020-08-22T10:35:06Z</time>
      </trkpt>
      <trkpt lat="44.02237" lon="3.5803">
        <ele>979.7</ele>
        <time>2020-08-22T10:35:16Z</time>
      </trkpt>
      <trkpt lat="44.02295" lon="3.58144">
        <ele>973.4</ele>
        <time>2020-08-22T10:35:26Z</time>
      </trkpt>
      <trkpt lat="44.02374" lon="3.58224">
        <ele>965</ele>
        <time>2020-08-22T10:35:36Z</time>
      </trkpt>
      <trkpt lat="44.02453" lon="3.58143">
        <ele>946.7</ele>
        <time>2020-08-22T10:35:46Z</time>
      </trkpt>
      <trkpt lat="44.02521" lon="3.58058">
        <ele>936.9</ele>
        <time>2020-08-22T10:35:56Z</time>
      </trkpt>
      <trkpt lat="44.02596" lon="3.57984">
        <ele>928.2</ele>
        <time>2020-08-22T10:36:06Z</time>
      </trkpt>
      <trkpt lat="44.02687" lon="3.58038">
        <ele>921.5</ele>
        <time>2020-08-22T10:36:16Z</time>
      </trkpt>
      <trkpt lat="44.02762" lon="3.58135">
        <ele>917.5</ele>
        <time>2020-08-22T10:36:26Z</time>
      </trkpt>
      <trkpt lat="44.02858" lon="3.58191">
        <ele>912</ele>
        <time>2020-08-22T10:36:36Z</time>
      </trkpt>
      <trkpt lat="44.02953" lon="3.58187">
        <ele>908.1</ele>
        <time>2020-08-22T10:36:46Z</time>
      </trkpt>
      <trkpt lat="44.03068" lon="3.58097">
        <ele>899.4</ele>
        <time>2020-08-22T10:37:01Z</time>
      </trkpt>
      <trkpt lat="44.03157" lon="3.58043">
        <ele>891.3</ele>
        <time>2020-08-22T10:37:11Z</time>
      </trkpt>
      <trkpt lat="44.03236" lon="3.57965">
        <ele>885.7</ele>
        <time>2020-08-22T10:37:21Z</time>
      </trkpt>
      <trkpt lat="44.03273" lon="3.57838">
        <ele>877.6</ele>
        <time>2020-08-22T10:37:31Z</time>
      </trkpt>
      <trkpt lat="44.0336" lon="3.57928">
        <ele>867.3</ele>
        <time>2020-08-22T10:37:46Z</time>
      </trkpt>
      <trkpt lat="44.03405" lon="3.58053">
        <ele>862</ele>
        <time>2020-08-22T10:37:56Z</time>
      </trkpt>
      <trkpt lat="44.03469" lon="3.58163">
        <ele>858.5</ele>
        <time>2020-08-22T10:38:06Z</time>
      </trkpt>
      <trkpt lat="44.03503" lon="3.58294">
        <ele>849.7</ele>
        <time>2020-08-22T10:38:21Z</time>
      </trkpt>
      <trkpt lat="44.03427" lon="3.58362">
        <ele>843.4</ele>
        <time>2020-08-22T10:38:31Z</time>
      </trkpt>
      <trkpt lat="44.03406" lon="3.58506">
        <ele>837.1</ele>
        <time>2020-08-22T10:38:41Z</time>
      </trkpt>
      <trkpt lat="44.03482" lon="3.58587">
        <ele>831.9</ele>
        <time>2020-08-22T10:38:51Z</time>
      </trkpt>
      <trkpt lat="44.03564" lon="3.58664">
        <ele>828.1</ele>
        <time>2020-08-22T10:39:01Z</time>
      </trkpt>
      <trkpt lat="44.03696" lon="3.58662">
        <ele>820.2</ele>
        <time>2020-08-22T10:39:16Z</time>
      </trkpt>
      <trkpt lat="44.03784" lon="3.58747">
        <ele>813.3</ele>
        <time>2020-08-22T10:39:26Z</time>
      </trkpt>
      <trkpt lat="44.0388" lon="3.58815">
        <ele>807.8</ele>
        <time>2020-08-22T10:39:36Z</time>
      </trkpt>
      <trkpt lat="44.03978" lon="3.58858">
        <ele>803.9</ele>
        <time>2020-08-22T10:39:46Z</time>
      </trkpt>
      <trkpt lat="44.04073" lon="3.58876">
        <ele>797.7</ele>
        <time>2020-08-22T10:39:56Z</time>
      </trkpt>
      <trkpt lat="44.04168" lon="3.58876">
        <ele>792.8</ele>
        <time>2020-08-22T10:40:06Z</time>
      </trkpt>
      <trkpt lat="44.04259" lon="3.58879">
        <ele>786.7</ele>
        <time>2020-08-22T10:40:16Z</time>
      </trkpt>
      <trkpt lat="44.04213" lon="3.59023">
        <ele>772.8</ele>
        <time>2020-08-22T10:40:41Z</time>
      </trkpt>
      <trkpt lat="44.04114" lon="3.59055">
        <ele>770.3</ele>
        <time>2020-08-22T10:40:51Z</time>
      </trkpt>
      <trkpt lat="44.04024" lon="3.59128">
        <ele>765.9</ele>
        <time>2020-08-22T10:41:01Z</time>
      </trkpt>
      <trkpt lat="44.03932" lon="3.5917">
        <ele>762.3</ele>
        <time>2020-08-22T10:41:11Z</time>
      </trkpt>
      <trkpt lat="44.0383" lon="3.59157">
        <ele>759.6</ele>
        <time>2020-08-22T10:41:21Z</time>
      </trkpt>
      <trkpt lat="44.03703" lon="3.59133">
        <ele>752.3</ele>
        <time>2020-08-22T10:41:36Z</time>
      </trkpt>
      <trkpt lat="44.03611" lon="3.59136">
        <ele>747.2</ele>
        <time>2020-08-22T10:41:46Z</time>
      </trkpt>
      <trkpt lat="44.03508" lon="3.59156">
        <ele>742.7</ele>
        <time>2020-08-22T10:41:56Z</time>
      </trkpt>
      <trkpt lat="44.03401" lon="3.59192">
        <ele>734.6</ele>
        <time>2020-08-22T10:42:06Z</time>
      </trkpt>
      <trkpt lat="44.033" lon="3.59297">
        <ele>723.2</ele>
        <time>2020-08-22T10:42:21Z</time>
      </trkpt>
      <trkpt lat="44.03207" lon="3.59339">
        <ele>718</ele>
        <time>2020-08-22T10:42:31Z</time>
      </trkpt>
      <trkpt lat="44.0307" lon="3.59356">
        <ele>709.9</ele>
        <time>2020-08-22T10:42:46Z</time>
      </trkpt>
      <trkpt lat="44.0301" lon="3.59472">
        <ele>699.4</ele>
        <time>2020-08-22T10:42:56Z</time>
      </trkpt>
      <trkpt lat="44.02879" lon="3.59508">
        <ele>693.1</ele>
        <time>2020-08-22T10:43:11Z</time>
      </trkpt>
      <trkpt lat="44.02816" lon="3.59607">
        <ele>687.2</ele>
        <time>2020-08-22T10:43:21Z</time>
      </trkpt>
      <trkpt lat="44.02784" lon="3.59741">
        <ele>676.6</ele>
        <time>2020-08-22T10:43:31Z</time>
      </trkpt>
      <trkpt lat="44.02707" lon="3.59638">
        <ele>671.4</ele>
        <time>2020-08-22T10:43:46Z</time>
      </trkpt>
      <trkpt lat="44.02604" lon="3.59695">
        <ele>667.7</ele>
        <time>2020-08-22T10:44:01Z</time>
      </trkpt>
      <trkpt lat="44.02537" lon="3.59784">
        <ele>663.3</ele>
        <time>2020-08-22T10:44:11Z</time>
      </trkpt>
      <trkpt lat="44.02435" lon="3.59776">
        <ele>654.6</ele>
        <time>2020-08-22T10:45:46Z</time>
      </trkpt>
      <trkpt lat="44.02332" lon="3.59712">
        <ele>648.7</ele>
        <time>2020-08-22T10:46:01Z</time>
      </trkpt>
      <trkpt lat="44.02216" lon="3.59713">
        <ele>642.8</ele>
        <time>2020-08-22T10:46:16Z</time>
      </trkpt>
      <trkpt lat="44.02129" lon="3.59786">
        <ele>639.4</ele>
        <time>2020-08-22T10:46:26Z</time>
      </trkpt>
      <trkpt lat="44.02124" lon="3.59923">
        <ele>634.3</ele>
        <time>2020-08-22T10:46:36Z</time>
      </trkpt>
      <trkpt lat="44.02173" lon="3.60059">
        <ele>628.8</ele>
        <time>2020-08-22T10:46:46Z</time>
      </trkpt>
      <trkpt lat="44.02206" lon="3.60186">
        <ele>624.3</ele>
        <time>2020-08-22T10:46:56Z</time>
      </trkpt>
      <trkpt lat="44.02087" lon="3.60157">
        <ele>615.9</ele>
        <time>2020-08-22T10:47:11Z</time>
      </trkpt>
      <trkpt lat="44.01983" lon="3.60107">
        <ele>608.2</ele>
        <time>2020-08-22T10:47:26Z</time>
      </trkpt>
      <trkpt lat="44.01883" lon="3.60026">
        <ele>596.6</ele>
        <time>2020-08-22T10:47:46Z</time>
      </trkpt>
      <trkpt lat="44.01808" lon="3.59941">
        <ele>591.3</ele>
        <time>2020-08-22T10:47:56Z</time>
      </trkpt>
      <trkpt lat="44.01735" lon="3.59829">
        <ele>588.9</ele>
        <time>2020-08-22T10:48:06Z</time>
      </trkpt>
      <trkpt lat="44.0164" lon="3.59823">
        <ele>585.2</ele>
        <time>2020-08-22T10:48:16Z</time>
      </trkpt>
      <trkpt lat="44.01516" lon="3.59795">
        <ele>574.9</ele>
        <time>2020-08-22T10:48:31Z</time>
      </trkpt>
      <trkpt lat="44.01418" lon="3.59674">
        <ele>556.6</ele>
        <time>2020-08-22T10:48:46Z</time>
      </trkpt>
      <trkpt lat="44.01341" lon="3.59589">
        <ele>547.5</ele>
        <time>2020-08-22T10:48:56Z</time>
      </trkpt>
      <trkpt lat="44.01258" lon="3.59483">
        <ele>543.7</ele>
        <time>2020-08-22T10:49:06Z</time>
      </trkpt>
      <trkpt lat="44.01148" lon="3.59422">
        <ele>539.8</ele>
        <time>2020-08-22T10:49:16Z</time>
      </trkpt>
      <trkpt lat="44.0107" lon="3.59526">
        <ele>534.6</ele>
        <time>2020-08-22T10:49:26Z</time>
      </trkpt>
      <trkpt lat="44.00969" lon="3.5944">
        <ele>530.4</ele>
        <time>2020-08-22T10:49:41Z</time>
      </trkpt>
      <trkpt lat="44.00834" lon="3.594">
        <ele>523.8</ele>
        <time>2020-08-22T10:49:56Z</time>
      </trkpt>
      <trkpt lat="44.00742" lon="3.59363">
        <ele>518.1</ele>
        <time>2020-08-22T10:50:06Z</time>
      </trkpt>
      <trkpt lat="44.00705" lon="3.59476">
        <ele>510.1</ele>
        <time>2020-08-22T10:50:16Z</time>
      </trkpt>
      <trkpt lat="44.00605" lon="3.59448">
        <ele>498.6</ele>
        <time>2020-08-22T10:50:36Z</time>
      </trkpt>
      <trkpt lat="44.00602" lon="3.59264">
        <ele>492.8</ele>
        <time>2020-08-22T10:50:51Z</time>
      </trkpt>
      <trkpt lat="44.00491" lon="3.5921">
        <ele>487.3</ele>
        <time>2020-08-22T10:51:06Z</time>
      </trkpt>
      <trkpt lat="44.0036" lon="3.59178">
        <ele>480.9</ele>
        <time>2020-08-22T10:51:21Z</time>
      </trkpt>
      <trkpt lat="44.00287" lon="3.5909">
        <ele>478.3</ele>
        <time>2020-08-22T10:51:31Z</time>
      </trkpt>
      <trkpt lat="44.00191" lon="3.59026">
        <ele>474</ele>
        <time>2020-08-22T10:51:41Z</time>
      </trkpt>
      <trkpt lat="44.00103" lon="3.58994">
        <ele>465.5</ele>
        <time>2020-08-22T10:51:51Z</time>
      </trkpt>
      <trkpt lat="43.99992" lon="3.58914">
        <ele>458.2</ele>
        <time>2020-08-22T10:52:06Z</time>
      </trkpt>
      <trkpt lat="43.99863" lon="3.58901">
        <ele>451.8</ele>
        <time>2020-08-22T10:52:21Z</time>
      </trkpt>
      <trkpt lat="43.99774" lon="3.58947">
        <ele>447</ele>
        <time>2020-08-22T10:52:31Z</time>
      </trkpt>
      <trkpt lat="43.99684" lon="3.58971">
        <ele>443.9</ele>
        <time>2020-08-22T10:52:41Z</time>
      </trkpt>
      <trkpt lat="43.99593" lon="3.58969">
        <ele>440.3</ele>
        <time>2020-08-22T10:52:51Z</time>
      </trkpt>
      <trkpt lat="43.99505" lon="3.59">
        <ele>437.6</ele>
        <time>2020-08-22T10:53:01Z</time>
      </trkpt>
      <trkpt lat="43.99411" lon="3.58998">
        <ele>433.6</ele>
        <time>2020-08-22T10:53:11Z</time>
      </trkpt>
      <trkpt lat="43.99278" lon="3.5901">
        <ele>429</ele>
        <time>2020-08-22T10:53:26Z</time>
      </trkpt>
      <trkpt lat="43.99143" lon="3.5899">
        <ele>422.7</ele>
        <time>2020-08-22T10:53:41Z</time>
      </trkpt>
      <trkpt lat="43.9905" lon="3.58996">
        <ele>421.3</ele>
        <time>2020-08-22T10:53:51Z</time>
      </trkpt>
      <trkpt lat="43.98959" lon="3.58979">
        <ele>417.3</ele>
        <time>2020-08-22T10:54:01Z</time>
      </trkpt>
      <trkpt lat="43.98868" lon="3.58947">
        <ele>413.5</ele>
        <time>2020-08-22T10:54:11Z</time>
      </trkpt>
      <trkpt lat="43.98785" lon="3.58887">
        <ele>409.3</ele>
        <time>2020-08-22T10:54:21Z</time>
      </trkpt>
      <trkpt lat="43.9868" lon="3.58792">
        <ele>402.7</ele>
        <time>2020-08-22T10:54:36Z</time>
      </trkpt>
      <trkpt lat="43.98589" lon="3.58683">
        <ele>393.2</ele>
        <time>2020-08-22T10:54:51Z</time>
      </trkpt>
      <trkpt lat="43.98464" lon="3.5864">
        <ele>386.7</ele>
        <time>2020-08-22T10:55:06Z</time>
      </trkpt>
      <trkpt lat="43.98374" lon="3.58654">
        <ele>384.9</ele>
        <time>2020-08-22T10:55:16Z</time>
      </trkpt>
      <trkpt lat="43.98266" lon="3.58565">
        <ele>381.2</ele>
        <time>2020-08-22T10:55:31Z</time>
      </trkpt>
      <trkpt lat="43.98156" lon="3.585">
        <ele>376.1</ele>
        <time>2020-08-22T10:55:46Z</time>
      </trkpt>
      <trkpt lat="43.98085" lon="3.58587">
        <ele>372</ele>
        <time>2020-08-22T10:55:56Z</time>
      </trkpt>
      <trkpt lat="43.97999" lon="3.58645">
        <ele>364.4</ele>
        <time>2020-08-22T10:56:06Z</time>
      </trkpt>
      <trkpt lat="43.97923" lon="3.58714">
        <ele>358.2</ele>
        <time>2020-08-22T10:56:16Z</time>
      </trkpt>
      <trkpt lat="43.9786" lon="3.58806">
        <ele>353.1</ele>
        <time>2020-08-22T10:56:26Z</time>
      </trkpt>
      <trkpt lat="43.97792" lon="3.58885">
        <ele>337.2</ele>
        <time>2020-08-22T10:58:57Z</time>
      </trkpt>
      <trkpt lat="43.97697" lon="3.58972">
        <ele>322.9</ele>
        <time>2020-08-22T11:00:03Z</time>
      </trkpt>
      <trkpt lat="43.97598" lon="3.58989">
        <ele>321</ele>
        <time>2020-08-22T11:00:18Z</time>
      </trkpt>
      <trkpt lat="43.97556" lon="3.59112">
        <ele>319.8</ele>
        <time>2020-08-22T11:00:33Z</time>
      </trkpt>
      <trkpt lat="43.97468" lon="3.59205">
        <ele>313.6</ele>
        <time>2020-08-22T11:00:48Z</time>
      </trkpt>
      <trkpt lat="43.97504" lon="3.59331">
        <ele>306.2</ele>
        <time>2020-08-22T11:01:08Z</time>
      </trkpt>
      <trkpt lat="43.9761" lon="3.59391">
        <ele>305.9</ele>
        <time>2020-08-22T11:01:28Z</time>
      </trkpt>
      <trkpt lat="43.97717" lon="3.59428">
        <ele>306.2</ele>
        <time>2020-08-22T11:01:48Z</time>
      </trkpt>
      <trkpt lat="43.97814" lon="3.59472">
        <ele>304.3</ele>
        <time>2020-08-22T11:02:08Z</time>
      </trkpt>
      <trkpt lat="43.97907" lon="3.5952">
        <ele>301.9</ele>
        <time>2020-08-22T11:02:33Z</time>
      </trkpt>
      <trkpt lat="43.97992" lon="3.5957">
        <ele>298.8</ele>
        <time>2020-08-22T11:02:58Z</time>
      </trkpt>
      <trkpt lat="43.98076" lon="3.59644">
        <ele>296.7</ele>
        <time>2020-08-22T11:03:23Z</time>
      </trkpt>
      <trkpt lat="43.98142" lon="3.5974">
        <ele>295.1</ele>
        <time>2020-08-22T11:03:48Z</time>
      </trkpt>
      <trkpt lat="43.98204" lon="3.5984">
        <ele>294.3</ele>
        <time>2020-08-22T11:04:13Z</time>
      </trkpt>
      <trkpt lat="43.98274" lon="3.59937">
        <ele>293.6</ele>
        <time>2020-08-22T11:04:33Z</time>
      </trkpt>
      <trkpt lat="43.98339" lon="3.60056">
        <ele>292.6</ele>
        <time>2020-08-22T11:04:53Z</time>
      </trkpt>
      <trkpt lat="43.98405" lon="3.60146">
        <ele>292.2</ele>
        <time>2020-08-22T11:05:13Z</time>
      </trkpt>
      <trkpt lat="43.9848" lon="3.60232">
        <ele>291.9</ele>
        <time>2020-08-22T11:05:38Z</time>
      </trkpt>
      <trkpt lat="43.98577" lon="3.60279">
        <ele>291.4</ele>
        <time>2020-08-22T11:06:13Z</time>
      </trkpt>
      <trkpt lat="43.98673" lon="3.60305">
        <ele>290.9</ele>
        <time>2020-08-22T11:06:43Z</time>
      </trkpt>
      <trkpt lat="43.98764" lon="3.60323">
        <ele>290.2</ele>
        <time>2020-08-22T11:07:08Z</time>
      </trkpt>
      <trkpt lat="43.98862" lon="3.60375">
        <ele>289.8</ele>
        <time>2020-08-22T11:07:38Z</time>
      </trkpt>
      <trkpt lat="43.98951" lon="3.60429">
        <ele>289.2</ele>
        <time>2020-08-22T11:08:08Z</time>
      </trkpt>
      <trkpt lat="43.98952" lon="3.60558">
        <ele>287.9</ele>
        <time>2020-08-22T11:08:33Z</time>
      </trkpt>
      <trkpt lat="43.99014" lon="3.60664">
        <ele>287.8</ele>
        <time>2020-08-22T11:09:03Z</time>
      </trkpt>
      <trkpt lat="43.99105" lon="3.60675">
        <ele>284</ele>
        <time>2020-08-22T11:20:15Z</time>
      </trkpt>
      <trkpt lat="43.99202" lon="3.607">
        <ele>282.5</ele>
        <time>2020-08-22T11:21:51Z</time>
      </trkpt>
      <trkpt lat="43.99252" lon="3.60591">
        <ele>280.8</ele>
        <time>2020-08-22T11:23:11Z</time>
      </trkpt>
      <trkpt lat="43.99246" lon="3.60455">
        <ele>280.6</ele>
        <time>2020-08-22T11:24:05Z</time>
      </trkpt>
    </trkseg>
  </trk>
  <trk>
    <name><![CDATA[route110]]></name>
    <trkseg>
      <trkpt lat="43.99006" lon="3.60622">
        <ele>277</ele>
        <time>2020-08-23T06:28:51Z</time>
      </trkpt>
      <trkpt lat="43.98907" lon="3.60606">
        <ele>278.2</ele>
        <time>2020-08-23T06:32:45Z</time>
      </trkpt>
      <trkpt lat="43.98815" lon="3.6059">
        <ele>278.4</ele>
        <time>2020-08-23T06:34:26Z</time>
      </trkpt>
      <trkpt lat="43.98719" lon="3.60588">
        <ele>278.3</ele>
        <time>2020-08-23T06:34:56Z</time>
      </trkpt>
      <trkpt lat="43.98823" lon="3.60592">
        <ele>276.6</ele>
        <time>2020-08-23T06:36:35Z</time>
      </trkpt>
      <trkpt lat="43.98895" lon="3.607">
        <ele>275.9</ele>
        <time>2020-08-23T06:37:14Z</time>
      </trkpt>
      <trkpt lat="43.98806" lon="3.60642">
        <ele>275.4</ele>
        <time>2020-08-23T06:40:11Z</time>
      </trkpt>
      <trkpt lat="43.98704" lon="3.60665">
        <ele>275.1</ele>
        <time>2020-08-23T06:41:23Z</time>
      </trkpt>
      <trkpt lat="43.98611" lon="3.60686">
        <ele>275</ele>
        <time>2020-08-23T06:42:04Z</time>
      </trkpt>
      <trkpt lat="43.98513" lon="3.60661">
        <ele>275</ele>
        <time>2020-08-23T06:42:39Z</time>
      </trkpt>
      <trkpt lat="43.98417" lon="3.60633">
        <ele>275.2</ele>
        <time>2020-08-23T06:43:37Z</time>
      </trkpt>
      <trkpt lat="43.98333" lon="3.60562">
        <ele>275.3</ele>
        <time>2020-08-23T06:44:19Z</time>
      </trkpt>
      <trkpt lat="43.98252" lon="3.60485">
        <ele>275.8</ele>
        <time>2020-08-23T06:46:01Z</time>
      </trkpt>
      <trkpt lat="43.98187" lon="3.60393">
        <ele>276.6</ele>
        <time>2020-08-23T06:46:48Z</time>
      </trkpt>
      <trkpt lat="43.98256" lon="3.60304">
        <ele>278.3</ele>
        <time>2020-08-23T06:48:13Z</time>
      </trkpt>
      <trkpt lat="43.98346" lon="3.60267">
        <ele>278.5</ele>
        <time>2020-08-23T06:49:03Z</time>
      </trkpt>
      <trkpt lat="43.98267" lon="3.60184">
        <ele>278.9</ele>
        <time>2020-08-23T06:49:38Z</time>
      </trkpt>
      <trkpt lat="43.98191" lon="3.60112">
        <ele>279.3</ele>
        <time>2020-08-23T06:50:08Z</time>
      </trkpt>
      <trkpt lat="43.98111" lon="3.60037">
        <ele>279.8</ele>
        <time>2020-08-23T06:50:38Z</time>
      </trkpt>
      <trkpt lat="43.98023" lon="3.59962">
        <ele>280.4</ele>
        <time>2020-08-23T06:51:08Z</time>
      </trkpt>
      <trkpt lat="43.97934" lon="3.59891">
        <ele>281.2</ele>
        <time>2020-08-23T06:51:38Z</time>
      </trkpt>
      <trkpt lat="43.97842" lon="3.5988">
        <ele>283.3</ele>
        <time>2020-08-23T06:52:03Z</time>
      </trkpt>
      <trkpt lat="43.97753" lon="3.59937">
        <ele>283.7</ele>
        <time>2020-08-23T06:52:28Z</time>
      </trkpt>
      <trkpt lat="43.9768" lon="3.60006">
        <ele>284.1</ele>
        <time>2020-08-23T06:52:53Z</time>
      </trkpt>
      <trkpt lat="43.97587" lon="3.59955">
        <ele>284.7</ele>
        <time>2020-08-23T06:53:18Z</time>
      </trkpt>
      <trkpt lat="43.97494" lon="3.59994">
        <ele>285.1</ele>
        <time>2020-08-23T06:53:43Z</time>
      </trkpt>
      <trkpt lat="43.97405" lon="3.60027">
        <ele>285.6</ele>
        <time>2020-08-23T06:54:13Z</time>
      </trkpt>
      <trkpt lat="43.97311" lon="3.6001">
        <ele>286.7</ele>
        <time>2020-08-23T06:54:53Z</time>
      </trkpt>
      <trkpt lat="43.97216" lon="3.60015">
        <ele>288.6</ele>
        <time>2020-08-23T06:55:57Z</time>
      </trkpt>
      <trkpt lat="43.97113" lon="3.60048">
        <ele>290.5</ele>
        <time>2020-08-23T06:56:38Z</time>
      </trkpt>
      <trkpt lat="43.97021" lon="3.60099">
        <ele>292.3</ele>
        <time>2020-08-23T06:56:58Z</time>
      </trkpt>
      <trkpt lat="43.9693" lon="3.6014">
        <ele>293.3</ele>
        <time>2020-08-23T06:57:18Z</time>
      </trkpt>
      <trkpt lat="43.96847" lon="3.60195">
        <ele>294.1</ele>
        <time>2020-08-23T06:57:38Z</time>
      </trkpt>
      <trkpt lat="43.96748" lon="3.60216">
        <ele>294.9</ele>
        <time>2020-08-23T06:58:03Z</time>
      </trkpt>
      <trkpt lat="43.96659" lon="3.60241">
        <ele>296</ele>
        <time>2020-08-23T06:58:38Z</time>
      </trkpt>
      <trkpt lat="43.96567" lon="3.60265">
        <ele>297.7</ele>
        <time>2020-08-23T06:59:18Z</time>
      </trkpt>
      <trkpt lat="43.96472" lon="3.60302">
        <ele>299.8</ele>
        <time>2020-08-23T06:59:58Z</time>
      </trkpt>
      <trkpt lat="43.96383" lon="3.60277">
        <ele>302.2</ele>
        <time>2020-08-23T07:00:43Z</time>
      </trkpt>
      <trkpt lat="43.96285" lon="3.60298">
        <ele>305.3</ele>
        <time>2020-08-23T07:01:18Z</time>
      </trkpt>
      <trkpt lat="43.96188" lon="3.60274">
        <ele>307.6</ele>
        <time>2020-08-23T07:01:43Z</time>
      </trkpt>
      <trkpt lat="43.96102" lon="3.60223">
        <ele>309</ele>
        <time>2020-08-23T07:02:23Z</time>
      </trkpt>
      <trkpt lat="43.96009" lon="3.6018">
        <ele>313.9</ele>
        <time>2020-08-23T07:03:28Z</time>
      </trkpt>
      <trkpt lat="43.95912" lon="3.60172">
        <ele>322.1</ele>
        <time>2020-08-23T07:03:58Z</time>
      </trkpt>
      <trkpt lat="43.95822" lon="3.60095">
        <ele>325.4</ele>
        <time>2020-08-23T07:04:18Z</time>
      </trkpt>
      <trkpt lat="43.95746" lon="3.60019">
        <ele>327.3</ele>
        <time>2020-08-23T07:04:56Z</time>
      </trkpt>
      <trkpt lat="43.9567" lon="3.59931">
        <ele>331.3</ele>
        <time>2020-08-23T07:06:06Z</time>
      </trkpt>
      <trkpt lat="43.95573" lon="3.59933">
        <ele>335.4</ele>
        <time>2020-08-23T07:07:08Z</time>
      </trkpt>
      <trkpt lat="43.9548" lon="3.59929">
        <ele>339.6</ele>
        <time>2020-08-23T07:08:12Z</time>
      </trkpt>
      <trkpt lat="43.95441" lon="3.59812">
        <ele>344.7</ele>
        <time>2020-08-23T07:09:24Z</time>
      </trkpt>
      <trkpt lat="43.95381" lon="3.5991">
        <ele>349.7</ele>
        <time>2020-08-23T07:10:32Z</time>
      </trkpt>
      <trkpt lat="43.9529" lon="3.59885">
        <ele>354</ele>
        <time>2020-08-23T07:11:34Z</time>
      </trkpt>
      <trkpt lat="43.95211" lon="3.5982">
        <ele>357.7</ele>
        <time>2020-08-23T07:12:35Z</time>
      </trkpt>
      <trkpt lat="43.95134" lon="3.59738">
        <ele>362.6</ele>
        <time>2020-08-23T07:13:57Z</time>
      </trkpt>
      <trkpt lat="43.95043" lon="3.59718">
        <ele>372.2</ele>
        <time>2020-08-23T07:15:25Z</time>
      </trkpt>
      <trkpt lat="43.94965" lon="3.59629">
        <ele>391.4</ele>
        <time>2020-08-23T07:17:08Z</time>
      </trkpt>
      <trkpt lat="43.94873" lon="3.59649">
        <ele>398.8</ele>
        <time>2020-08-23T07:18:10Z</time>
      </trkpt>
      <trkpt lat="43.94808" lon="3.59551">
        <ele>407.9</ele>
        <time>2020-08-23T07:19:52Z</time>
      </trkpt>
      <trkpt lat="43.94733" lon="3.59475">
        <ele>412.3</ele>
        <time>2020-08-23T07:20:49Z</time>
      </trkpt>
      <trkpt lat="43.94675" lon="3.59371">
        <ele>417.2</ele>
        <time>2020-08-23T07:21:54Z</time>
      </trkpt>
      <trkpt lat="43.94581" lon="3.59329">
        <ele>422.6</ele>
        <time>2020-08-23T07:23:07Z</time>
      </trkpt>
      <trkpt lat="43.94485" lon="3.59332">
        <ele>430</ele>
        <time>2020-08-23T07:24:12Z</time>
      </trkpt>
      <trkpt lat="43.94394" lon="3.59337">
        <ele>448.7</ele>
        <time>2020-08-23T07:26:45Z</time>
      </trkpt>
      <trkpt lat="43.94354" lon="3.59452">
        <ele>454.3</ele>
        <time>2020-08-23T07:27:51Z</time>
      </trkpt>
      <trkpt lat="43.94283" lon="3.59526">
        <ele>458.8</ele>
        <time>2020-08-23T07:28:50Z</time>
      </trkpt>
      <trkpt lat="43.94191" lon="3.59571">
        <ele>466.2</ele>
        <time>2020-08-23T07:30:05Z</time>
      </trkpt>
      <trkpt lat="43.94127" lon="3.59473">
        <ele>474</ele>
        <time>2020-08-23T07:31:20Z</time>
      </trkpt>
      <trkpt lat="43.94038" lon="3.59426">
        <ele>483</ele>
        <time>2020-08-23T07:32:21Z</time>
      </trkpt>
      <trkpt lat="43.93945" lon="3.59424">
        <ele>492</ele>
        <time>2020-08-23T07:33:26Z</time>
      </trkpt>
      <trkpt lat="43.93848" lon="3.59438">
        <ele>499.4</ele>
        <time>2020-08-23T07:34:37Z</time>
      </trkpt>
      <trkpt lat="43.93761" lon="3.59374">
        <ele>516.8</ele>
        <time>2020-08-23T07:37:46Z</time>
      </trkpt>
      <trkpt lat="43.93715" lon="3.59256">
        <ele>525</ele>
        <time>2020-08-23T07:39:09Z</time>
      </trkpt>
      <trkpt lat="43.93626" lon="3.59207">
        <ele>534.2</ele>
        <time>2020-08-23T07:40:23Z</time>
      </trkpt>
      <trkpt lat="43.93536" lon="3.59158">
        <ele>542.3</ele>
        <time>2020-08-23T07:41:33Z</time>
      </trkpt>
      <trkpt lat="43.93439" lon="3.59145">
        <ele>549.7</ele>
        <time>2020-08-23T07:42:46Z</time>
      </trkpt>
      <trkpt lat="43.93345" lon="3.59134">
        <ele>555.8</ele>
        <time>2020-08-23T07:43:54Z</time>
      </trkpt>
      <trkpt lat="43.93279" lon="3.59216">
        <ele>559.2</ele>
        <time>2020-08-23T07:44:51Z</time>
      </trkpt>
      <trkpt lat="43.93192" lon="3.59157">
        <ele>578.3</ele>
        <time>2020-08-23T07:47:47Z</time>
      </trkpt>
      <trkpt lat="43.93099" lon="3.59151">
        <ele>589.2</ele>
        <time>2020-08-23T07:49:04Z</time>
      </trkpt>
      <trkpt lat="43.93016" lon="3.59215">
        <ele>595.3</ele>
        <time>2020-08-23T07:50:16Z</time>
      </trkpt>
      <trkpt lat="43.9294" lon="3.59292">
        <ele>601.4</ele>
        <time>2020-08-23T07:51:31Z</time>
      </trkpt>
      <trkpt lat="43.9287" lon="3.59382">
        <ele>611.8</ele>
        <time>2020-08-23T07:52:46Z</time>
      </trkpt>
      <trkpt lat="43.92782" lon="3.5941">
        <ele>621.8</ele>
        <time>2020-08-23T07:53:58Z</time>
      </trkpt>
      <trkpt lat="43.92708" lon="3.59326">
        <ele>630.4</ele>
        <time>2020-08-23T07:55:08Z</time>
      </trkpt>
      <trkpt lat="43.92645" lon="3.59225">
        <ele>645.1</ele>
        <time>2020-08-23T07:57:56Z</time>
      </trkpt>
      <trkpt lat="43.92585" lon="3.59108">
        <ele>673</ele>
        <time>2020-08-23T08:25:06Z</time>
      </trkpt>
      <trkpt lat="43.92517" lon="3.58996">
        <ele>672.6</ele>
        <time>2020-08-23T08:25:36Z</time>
      </trkpt>
      <trkpt lat="43.92463" lon="3.58878">
        <ele>672.5</ele>
        <time>2020-08-23T08:25:56Z</time>
      </trkpt>
      <trkpt lat="43.92451" lon="3.5875">
        <ele>672.2</ele>
        <time>2020-08-23T08:26:16Z</time>
      </trkpt>
      <trkpt lat="43.92446" lon="3.58571">
        <ele>670.7</ele>
        <time>2020-08-23T08:26:36Z</time>
      </trkpt>
      <trkpt lat="43.92425" lon="3.58409">
        <ele>669.5</ele>
        <time>2020-08-23T08:26:51Z</time>
      </trkpt>
      <trkpt lat="43.92393" lon="3.58254">
        <ele>668.7</ele>
        <time>2020-08-23T08:27:25Z</time>
      </trkpt>
      <trkpt lat="43.92366" lon="3.58101">
        <ele>667.3</ele>
        <time>2020-08-23T08:27:40Z</time>
      </trkpt>
      <trkpt lat="43.9235" lon="3.5797">
        <ele>666.4</ele>
        <time>2020-08-23T08:27:55Z</time>
      </trkpt>
      <trkpt lat="43.92319" lon="3.57835">
        <ele>664.8</ele>
        <time>2020-08-23T08:28:15Z</time>
      </trkpt>
      <trkpt lat="43.92282" lon="3.57718">
        <ele>664</ele>
        <time>2020-08-23T08:28:45Z</time>
      </trkpt>
      <trkpt lat="43.92258" lon="3.57565">
        <ele>661</ele>
        <time>2020-08-23T08:29:15Z</time>
      </trkpt>
      <trkpt lat="43.92277" lon="3.57405">
        <ele>657.9</ele>
        <time>2020-08-23T08:29:35Z</time>
      </trkpt>
      <trkpt lat="43.92293" lon="3.57258">
        <ele>657.1</ele>
        <time>2020-08-23T08:29:55Z</time>
      </trkpt>
      <trkpt lat="43.92299" lon="3.57122">
        <ele>656.5</ele>
        <time>2020-08-23T08:30:25Z</time>
      </trkpt>
      <trkpt lat="43.92332" lon="3.56994">
        <ele>656</ele>
        <time>2020-08-23T08:31:00Z</time>
      </trkpt>
      <trkpt lat="43.92372" lon="3.56865">
        <ele>655.7</ele>
        <time>2020-08-23T08:31:35Z</time>
      </trkpt>
      <trkpt lat="43.92391" lon="3.56739">
        <ele>654.8</ele>
        <time>2020-08-23T08:32:00Z</time>
      </trkpt>
      <trkpt lat="43.92407" lon="3.56617">
        <ele>655.4</ele>
        <time>2020-08-23T08:32:48Z</time>
      </trkpt>
      <trkpt lat="43.9237" lon="3.56494">
        <ele>656.4</ele>
        <time>2020-08-23T08:33:44Z</time>
      </trkpt>
      <trkpt lat="43.92362" lon="3.56367">
        <ele>657.7</ele>
        <time>2020-08-23T08:34:50Z</time>
      </trkpt>
      <trkpt lat="43.92413" lon="3.56252">
        <ele>659.9</ele>
        <time>2020-08-23T08:35:47Z</time>
      </trkpt>
      <trkpt lat="43.92445" lon="3.56123">
        <ele>662.8</ele>
        <time>2020-08-23T08:36:32Z</time>
      </trkpt>
      <trkpt lat="43.92469" lon="3.55987">
        <ele>663.7</ele>
        <time>2020-08-23T08:36:52Z</time>
      </trkpt>
      <trkpt lat="43.92499" lon="3.5585">
        <ele>663.9</ele>
        <time>2020-08-23T08:37:17Z</time>
      </trkpt>
      <trkpt lat="43.92524" lon="3.55724">
        <ele>664.4</ele>
        <time>2020-08-23T08:37:42Z</time>
      </trkpt>
      <trkpt lat="43.92549" lon="3.55598">
        <ele>664.6</ele>
        <time>2020-08-23T08:38:12Z</time>
      </trkpt>
      <trkpt lat="43.92577" lon="3.55462">
        <ele>665</ele>
        <time>2020-08-23T08:38:47Z</time>
      </trkpt>
      <trkpt lat="43.92602" lon="3.55338">
        <ele>665.9</ele>
        <time>2020-08-23T08:39:12Z</time>
      </trkpt>
      <trkpt lat="43.92628" lon="3.55215">
        <ele>666</ele>
        <time>2020-08-23T08:39:37Z</time>
      </trkpt>
      <trkpt lat="43.92655" lon="3.55065">
        <ele>666.6</ele>
        <time>2020-08-23T08:40:07Z</time>
      </trkpt>
      <trkpt lat="43.92674" lon="3.54944">
        <ele>667.1</ele>
        <time>2020-08-23T08:40:27Z</time>
      </trkpt>
      <trkpt lat="43.92696" lon="3.54817">
        <ele>667.3</ele>
        <time>2020-08-23T08:40:52Z</time>
      </trkpt>
      <trkpt lat="43.92728" lon="3.54694">
        <ele>667.5</ele>
        <time>2020-08-23T08:41:27Z</time>
      </trkpt>
      <trkpt lat="43.9276" lon="3.54578">
        <ele>667.8</ele>
        <time>2020-08-23T08:42:02Z</time>
      </trkpt>
      <trkpt lat="43.92791" lon="3.54461">
        <ele>668.2</ele>
        <time>2020-08-23T08:42:37Z</time>
      </trkpt>
      <trkpt lat="43.92813" lon="3.5433">
        <ele>668.6</ele>
        <time>2020-08-23T08:43:12Z</time>
      </trkpt>
      <trkpt lat="43.92823" lon="3.54199">
        <ele>669.3</ele>
        <time>2020-08-23T08:43:42Z</time>
      </trkpt>
      <trkpt lat="43.92799" lon="3.54073">
        <ele>671.5</ele>
        <time>2020-08-23T08:44:07Z</time>
      </trkpt>
      <trkpt lat="43.92773" lon="3.53939">
        <ele>672.3</ele>
        <time>2020-08-23T08:44:32Z</time>
      </trkpt>
      <trkpt lat="43.92764" lon="3.53813">
        <ele>672.5</ele>
        <time>2020-08-23T08:45:02Z</time>
      </trkpt>
      <trkpt lat="43.92757" lon="3.53685">
        <ele>673.2</ele>
        <time>2020-08-23T08:45:32Z</time>
      </trkpt>
      <trkpt lat="43.92706" lon="3.5354">
        <ele>674</ele>
        <time>2020-08-23T08:45:52Z</time>
      </trkpt>
      <trkpt lat="43.92662" lon="3.53427">
        <ele>674.4</ele>
        <time>2020-08-23T08:46:07Z</time>
      </trkpt>
      <trkpt lat="43.92617" lon="3.53316">
        <ele>674.2</ele>
        <time>2020-08-23T08:46:22Z</time>
      </trkpt>
      <trkpt lat="43.92564" lon="3.53182">
        <ele>674.2</ele>
        <time>2020-08-23T08:46:42Z</time>
      </trkpt>
      <trkpt lat="43.92507" lon="3.53043">
        <ele>674.6</ele>
        <time>2020-08-23T08:47:02Z</time>
      </trkpt>
      <trkpt lat="43.92453" lon="3.52904">
        <ele>673.1</ele>
        <time>2020-08-23T08:47:22Z</time>
      </trkpt>
      <trkpt lat="43.92401" lon="3.52786">
        <ele>673.4</ele>
        <time>2020-08-23T08:47:47Z</time>
      </trkpt>
      <trkpt lat="43.92351" lon="3.52662">
        <ele>674.4</ele>
        <time>2020-08-23T08:48:22Z</time>
      </trkpt>
      <trkpt lat="43.92313" lon="3.52541">
        <ele>676.9</ele>
        <time>2020-08-23T08:49:10Z</time>
      </trkpt>
      <trkpt lat="43.9231" lon="3.52399">
        <ele>679.4</ele>
        <time>2020-08-23T08:49:56Z</time>
      </trkpt>
      <trkpt lat="43.92254" lon="3.52245">
        <ele>677.8</ele>
        <time>2020-08-23T08:50:16Z</time>
      </trkpt>
      <trkpt lat="43.92195" lon="3.52136">
        <ele>677</ele>
        <time>2020-08-23T08:50:31Z</time>
      </trkpt>
      <trkpt lat="43.9213" lon="3.52019">
        <ele>676.9</ele>
        <time>2020-08-23T08:50:51Z</time>
      </trkpt>
      <trkpt lat="43.92051" lon="3.51933">
        <ele>678.1</ele>
        <time>2020-08-23T08:51:26Z</time>
      </trkpt>
      <trkpt lat="43.91965" lon="3.51889">
        <ele>678</ele>
        <time>2020-08-23T08:51:41Z</time>
      </trkpt>
      <trkpt lat="43.91872" lon="3.51841">
        <ele>677.5</ele>
        <time>2020-08-23T08:51:56Z</time>
      </trkpt>
      <trkpt lat="43.91782" lon="3.51801">
        <ele>678</ele>
        <time>2020-08-23T08:52:16Z</time>
      </trkpt>
      <trkpt lat="43.91695" lon="3.51763">
        <ele>678.1</ele>
        <time>2020-08-23T08:52:41Z</time>
      </trkpt>
      <trkpt lat="43.9159" lon="3.51729">
        <ele>678.4</ele>
        <time>2020-08-23T08:53:11Z</time>
      </trkpt>
      <trkpt lat="43.91501" lon="3.51702">
        <ele>678.9</ele>
        <time>2020-08-23T08:53:41Z</time>
      </trkpt>
      <trkpt lat="43.91442" lon="3.51599">
        <ele>680.2</ele>
        <time>2020-08-23T08:54:27Z</time>
      </trkpt>
      <trkpt lat="43.91389" lon="3.51482">
        <ele>682.5</ele>
        <time>2020-08-23T08:55:21Z</time>
      </trkpt>
      <trkpt lat="43.91325" lon="3.51377">
        <ele>685.7</ele>
        <time>2020-08-23T08:56:22Z</time>
      </trkpt>
      <trkpt lat="43.91237" lon="3.51305">
        <ele>692.1</ele>
        <time>2020-08-23T08:56:57Z</time>
      </trkpt>
      <trkpt lat="43.91145" lon="3.51335">
        <ele>694.3</ele>
        <time>2020-08-23T08:57:27Z</time>
      </trkpt>
      <trkpt lat="43.91067" lon="3.5144">
        <ele>694.1</ele>
        <time>2020-08-23T08:57:47Z</time>
      </trkpt>
      <trkpt lat="43.91005" lon="3.51537">
        <ele>693.7</ele>
        <time>2020-08-23T08:57:57Z</time>
      </trkpt>
      <trkpt lat="43.90937" lon="3.5169">
        <ele>693.4</ele>
        <time>2020-08-23T08:58:12Z</time>
      </trkpt>
      <trkpt lat="43.90855" lon="3.51799">
        <ele>693.2</ele>
        <time>2020-08-23T08:58:27Z</time>
      </trkpt>
      <trkpt lat="43.90775" lon="3.51857">
        <ele>692.5</ele>
        <time>2020-08-23T08:58:42Z</time>
      </trkpt>
      <trkpt lat="43.90686" lon="3.51811">
        <ele>691.9</ele>
        <time>2020-08-23T08:58:57Z</time>
      </trkpt>
      <trkpt lat="43.90604" lon="3.51733">
        <ele>692.1</ele>
        <time>2020-08-23T08:59:12Z</time>
      </trkpt>
      <trkpt lat="43.90521" lon="3.51672">
        <ele>691.8</ele>
        <time>2020-08-23T08:59:27Z</time>
      </trkpt>
      <trkpt lat="43.90424" lon="3.51657">
        <ele>691.3</ele>
        <time>2020-08-23T08:59:42Z</time>
      </trkpt>
      <trkpt lat="43.90325" lon="3.5166">
        <ele>690.5</ele>
        <time>2020-08-23T08:59:57Z</time>
      </trkpt>
      <trkpt lat="43.90328" lon="3.51529">
        <ele>690.6</ele>
        <time>2020-08-23T09:00:47Z</time>
      </trkpt>
      <trkpt lat="43.90281" lon="3.51636">
        <ele>686.4</ele>
        <time>2020-08-23T09:02:23Z</time>
      </trkpt>
      <trkpt lat="43.90192" lon="3.51659">
        <ele>686.3</ele>
        <time>2020-08-23T09:02:48Z</time>
      </trkpt>
      <trkpt lat="43.90089" lon="3.51671">
        <ele>684.1</ele>
        <time>2020-08-23T09:03:03Z</time>
      </trkpt>
      <trkpt lat="43.90008" lon="3.51609">
        <ele>683.2</ele>
        <time>2020-08-23T09:03:18Z</time>
      </trkpt>
      <trkpt lat="43.89965" lon="3.5149">
        <ele>684.4</ele>
        <time>2020-08-23T09:11:36Z</time>
      </trkpt>
      <trkpt lat="43.8994" lon="3.51355">
        <ele>662.3</ele>
        <time>2020-08-23T09:25:45Z</time>
      </trkpt>
      <trkpt lat="43.89924" lon="3.51493">
        <ele>657.1</ele>
        <time>2020-08-23T09:26:20Z</time>
      </trkpt>
      <trkpt lat="43.8991" lon="3.51365">
        <ele>652.2</ele>
        <time>2020-08-23T09:26:50Z</time>
      </trkpt>
      <trkpt lat="43.8994" lon="3.5122">
        <ele>636.5</ele>
        <time>2020-08-23T09:27:05Z</time>
      </trkpt>
      <trkpt lat="43.89899" lon="3.51054">
        <ele>613.6</ele>
        <time>2020-08-23T09:27:25Z</time>
      </trkpt>
      <trkpt lat="43.89867" lon="3.50926">
        <ele>613.7</ele>
        <time>2020-08-23T09:27:45Z</time>
      </trkpt>
      <trkpt lat="43.89926" lon="3.50832">
        <ele>611</ele>
        <time>2020-08-23T09:28:25Z</time>
      </trkpt>
      <trkpt lat="43.89988" lon="3.50736">
        <ele>606.4</ele>
        <time>2020-08-23T09:29:00Z</time>
      </trkpt>
      <trkpt lat="43.90056" lon="3.5065">
        <ele>600.8</ele>
        <time>2020-08-23T09:29:35Z</time>
      </trkpt>
      <trkpt lat="43.90062" lon="3.50511">
        <ele>596.1</ele>
        <time>2020-08-23T09:30:32Z</time>
      </trkpt>
      <trkpt lat="43.90069" lon="3.50376">
        <ele>600.9</ele>
        <time>2020-08-23T09:31:16Z</time>
      </trkpt>
      <trkpt lat="43.90047" lon="3.50252">
        <ele>601.5</ele>
        <time>2020-08-23T09:32:02Z</time>
      </trkpt>
      <trkpt lat="43.90037" lon="3.50116">
        <ele>597.6</ele>
        <time>2020-08-23T09:32:49Z</time>
      </trkpt>
      <trkpt lat="43.89958" lon="3.5005">
        <ele>595</ele>
        <time>2020-08-23T09:33:14Z</time>
      </trkpt>
      <trkpt lat="43.89892" lon="3.49951">
        <ele>595.4</ele>
        <time>2020-08-23T09:33:44Z</time>
      </trkpt>
      <trkpt lat="43.89814" lon="3.4986">
        <ele>595.6</ele>
        <time>2020-08-23T09:34:29Z</time>
      </trkpt>
      <trkpt lat="43.89818" lon="3.49717">
        <ele>596</ele>
        <time>2020-08-23T09:34:54Z</time>
      </trkpt>
      <trkpt lat="43.89897" lon="3.49595">
        <ele>594.1</ele>
        <time>2020-08-23T09:35:09Z</time>
      </trkpt>
      <trkpt lat="43.89981" lon="3.4948">
        <ele>591.9</ele>
        <time>2020-08-23T09:35:19Z</time>
      </trkpt>
      <trkpt lat="43.90041" lon="3.49339">
        <ele>589.4</ele>
        <time>2020-08-23T09:35:29Z</time>
      </trkpt>
      <trkpt lat="43.90055" lon="3.49199">
        <ele>583.1</ele>
        <time>2020-08-23T09:35:39Z</time>
      </trkpt>
      <trkpt lat="43.89987" lon="3.49319">
        <ele>568</ele>
        <time>2020-08-23T09:35:59Z</time>
      </trkpt>
      <trkpt lat="43.89903" lon="3.49427">
        <ele>562.4</ele>
        <time>2020-08-23T09:36:09Z</time>
      </trkpt>
      <trkpt lat="43.89795" lon="3.49472">
        <ele>552.5</ele>
        <time>2020-08-23T09:36:19Z</time>
      </trkpt>
      <trkpt lat="43.89698" lon="3.49417">
        <ele>541.6</ele>
        <time>2020-08-23T09:36:29Z</time>
      </trkpt>
      <trkpt lat="43.89644" lon="3.49517">
        <ele>529.3</ele>
        <time>2020-08-23T09:36:44Z</time>
      </trkpt>
      <trkpt lat="43.89574" lon="3.49609">
        <ele>520.7</ele>
        <time>2020-08-23T09:36:54Z</time>
      </trkpt>
      <trkpt lat="43.89517" lon="3.49784">
        <ele>511.9</ele>
        <time>2020-08-23T09:37:09Z</time>
      </trkpt>
      <trkpt lat="43.89428" lon="3.49802">
        <ele>504.7</ele>
        <time>2020-08-23T09:37:19Z</time>
      </trkpt>
      <trkpt lat="43.89335" lon="3.49733">
        <ele>499.2</ele>
        <time>2020-08-23T09:37:34Z</time>
      </trkpt>
      <trkpt lat="43.89313" lon="3.49593">
        <ele>494.1</ele>
        <time>2020-08-23T09:37:49Z</time>
      </trkpt>
      <trkpt lat="43.89259" lon="3.49475">
        <ele>482.1</ele>
        <time>2020-08-23T09:38:04Z</time>
      </trkpt>
      <trkpt lat="43.8914" lon="3.4953">
        <ele>471.1</ele>
        <time>2020-08-23T09:38:28Z</time>
      </trkpt>
      <trkpt lat="43.89195" lon="3.49637">
        <ele>460.9</ele>
        <time>2020-08-23T09:38:43Z</time>
      </trkpt>
      <trkpt lat="43.89254" lon="3.4974">
        <ele>454.3</ele>
        <time>2020-08-23T09:38:53Z</time>
      </trkpt>
      <trkpt lat="43.89256" lon="3.49873">
        <ele>450.9</ele>
        <time>2020-08-23T09:39:03Z</time>
      </trkpt>
      <trkpt lat="43.89225" lon="3.50006">
        <ele>447.7</ele>
        <time>2020-08-23T09:39:13Z</time>
      </trkpt>
      <trkpt lat="43.89182" lon="3.50134">
        <ele>444.4</ele>
        <time>2020-08-23T09:39:23Z</time>
      </trkpt>
      <trkpt lat="43.89173" lon="3.50265">
        <ele>440.1</ele>
        <time>2020-08-23T09:39:33Z</time>
      </trkpt>
      <trkpt lat="43.89277" lon="3.50247">
        <ele>426.2</ele>
        <time>2020-08-23T09:39:48Z</time>
      </trkpt>
      <trkpt lat="43.89373" lon="3.5025">
        <ele>415</ele>
        <time>2020-08-23T09:40:08Z</time>
      </trkpt>
      <trkpt lat="43.89462" lon="3.50312">
        <ele>407.6</ele>
        <time>2020-08-23T09:41:21Z</time>
      </trkpt>
      <trkpt lat="43.89515" lon="3.50419">
        <ele>407.1</ele>
        <time>2020-08-23T09:42:32Z</time>
      </trkpt>
      <trkpt lat="43.89461" lon="3.5052">
        <ele>414.8</ele>
        <time>2020-08-23T09:46:13Z</time>
      </trkpt>
      <trkpt lat="43.89456" lon="3.50653">
        <ele>420.8</ele>
        <time>2020-08-23T09:47:19Z</time>
      </trkpt>
      <trkpt lat="43.89367" lon="3.50691">
        <ele>434.4</ele>
        <time>2020-08-23T09:49:23Z</time>
      </trkpt>
      <trkpt lat="43.89271" lon="3.50676">
        <ele>446</ele>
        <time>2020-08-23T09:50:32Z</time>
      </trkpt>
      <trkpt lat="43.89172" lon="3.50676">
        <ele>454.4</ele>
        <time>2020-08-23T09:51:41Z</time>
      </trkpt>
      <trkpt lat="43.89075" lon="3.50689">
        <ele>461.2</ele>
        <time>2020-08-23T09:52:48Z</time>
      </trkpt>
      <trkpt lat="43.8898" lon="3.5072">
        <ele>469.5</ele>
        <time>2020-08-23T09:53:52Z</time>
      </trkpt>
      <trkpt lat="43.8891" lon="3.50805">
        <ele>478.7</ele>
        <time>2020-08-23T09:54:54Z</time>
      </trkpt>
      <trkpt lat="43.88893" lon="3.50932">
        <ele>488.3</ele>
        <time>2020-08-23T09:56:07Z</time>
      </trkpt>
      <trkpt lat="43.8889" lon="3.51066">
        <ele>504.9</ele>
        <time>2020-08-23T09:57:15Z</time>
      </trkpt>
      <trkpt lat="43.88936" lon="3.51187">
        <ele>516</ele>
        <time>2020-08-23T09:58:18Z</time>
      </trkpt>
      <trkpt lat="43.88854" lon="3.51257">
        <ele>523.8</ele>
        <time>2020-08-23T09:59:33Z</time>
      </trkpt>
      <trkpt lat="43.88758" lon="3.51254">
        <ele>528.6</ele>
        <time>2020-08-23T10:00:44Z</time>
      </trkpt>
      <trkpt lat="43.8868" lon="3.51328">
        <ele>533.9</ele>
        <time>2020-08-23T10:01:54Z</time>
      </trkpt>
      <trkpt lat="43.88593" lon="3.51373">
        <ele>545.3</ele>
        <time>2020-08-23T10:05:38Z</time>
      </trkpt>
      <trkpt lat="43.88525" lon="3.51459">
        <ele>563</ele>
        <time>2020-08-23T10:07:43Z</time>
      </trkpt>
      <trkpt lat="43.88439" lon="3.51496">
        <ele>574.6</ele>
        <time>2020-08-23T10:10:22Z</time>
      </trkpt>
      <trkpt lat="43.88343" lon="3.51516">
        <ele>579.5</ele>
        <time>2020-08-23T10:12:04Z</time>
      </trkpt>
      <trkpt lat="43.88427" lon="3.51459">
        <ele>607.5</ele>
        <time>2020-08-23T10:21:34Z</time>
      </trkpt>
      <trkpt lat="43.88509" lon="3.51389">
        <ele>610.5</ele>
        <time>2020-08-23T10:22:41Z</time>
      </trkpt>
      <trkpt lat="43.88572" lon="3.51287">
        <ele>614.9</ele>
        <time>2020-08-23T10:23:51Z</time>
      </trkpt>
      <trkpt lat="43.88609" lon="3.51175">
        <ele>619.2</ele>
        <time>2020-08-23T10:24:45Z</time>
      </trkpt>
      <trkpt lat="43.88657" lon="3.51069">
        <ele>622</ele>
        <time>2020-08-23T10:25:20Z</time>
      </trkpt>
      <trkpt lat="43.88708" lon="3.50969">
        <ele>625.6</ele>
        <time>2020-08-23T10:26:05Z</time>
      </trkpt>
      <trkpt lat="43.8875" lon="3.50859">
        <ele>654.8</ele>
        <time>2020-08-23T10:56:56Z</time>
      </trkpt>
      <trkpt lat="43.88691" lon="3.50735">
        <ele>656</ele>
        <time>2020-08-23T10:59:58Z</time>
      </trkpt>
      <trkpt lat="43.8864" lon="3.50614">
        <ele>656.3</ele>
        <time>2020-08-23T11:00:28Z</time>
      </trkpt>
      <trkpt lat="43.88583" lon="3.50507">
        <ele>656.6</ele>
        <time>2020-08-23T11:01:03Z</time>
      </trkpt>
      <trkpt lat="43.88469" lon="3.50502">
        <ele>656.9</ele>
        <time>2020-08-23T11:01:23Z</time>
      </trkpt>
      <trkpt lat="43.88367" lon="3.50465">
        <ele>656.5</ele>
        <time>2020-08-23T11:01:43Z</time>
      </trkpt>
      <trkpt lat="43.8827" lon="3.50425">
        <ele>656.9</ele>
        <time>2020-08-23T11:02:08Z</time>
      </trkpt>
      <trkpt lat="43.88183" lon="3.50355">
        <ele>659.4</ele>
        <time>2020-08-23T11:02:53Z</time>
      </trkpt>
      <trkpt lat="43.88092" lon="3.50279">
        <ele>662.1</ele>
        <time>2020-08-23T11:03:38Z</time>
      </trkpt>
      <trkpt lat="43.88025" lon="3.50154">
        <ele>663.6</ele>
        <time>2020-08-23T11:04:03Z</time>
      </trkpt>
      <trkpt lat="43.87948" lon="3.50065">
        <ele>665</ele>
        <time>2020-08-23T11:04:28Z</time>
      </trkpt>
      <trkpt lat="43.87853" lon="3.50064">
        <ele>665</ele>
        <time>2020-08-23T11:04:58Z</time>
      </trkpt>
      <trkpt lat="43.87765" lon="3.50087">
        <ele>665.5</ele>
        <time>2020-08-23T11:05:13Z</time>
      </trkpt>
      <trkpt lat="43.87659" lon="3.50085">
        <ele>664.5</ele>
        <time>2020-08-23T11:05:33Z</time>
      </trkpt>
      <trkpt lat="43.87559" lon="3.50089">
        <ele>662.9</ele>
        <time>2020-08-23T11:05:48Z</time>
      </trkpt>
      <trkpt lat="43.8745" lon="3.50094">
        <ele>662.3</ele>
        <time>2020-08-23T11:06:03Z</time>
      </trkpt>
      <trkpt lat="43.87358" lon="3.50092">
        <ele>662.4</ele>
        <time>2020-08-23T11:06:18Z</time>
      </trkpt>
      <trkpt lat="43.87256" lon="3.50081">
        <ele>661.6</ele>
        <time>2020-08-23T11:06:38Z</time>
      </trkpt>
      <trkpt lat="43.8716" lon="3.50078">
        <ele>661.4</ele>
        <time>2020-08-23T11:06:58Z</time>
      </trkpt>
      <trkpt lat="43.87062" lon="3.50112">
        <ele>662.1</ele>
        <time>2020-08-23T11:07:18Z</time>
      </trkpt>
      <trkpt lat="43.86978" lon="3.50168">
        <ele>663</ele>
        <time>2020-08-23T11:07:38Z</time>
      </trkpt>
      <trkpt lat="43.86904" lon="3.50243">
        <ele>663.2</ele>
        <time>2020-08-23T11:07:58Z</time>
      </trkpt>
      <trkpt lat="43.86811" lon="3.50275">
        <ele>663.3</ele>
        <time>2020-08-23T11:08:28Z</time>
      </trkpt>
      <trkpt lat="43.86723" lon="3.50243">
        <ele>663.4</ele>
        <time>2020-08-23T11:09:08Z</time>
      </trkpt>
      <trkpt lat="43.86627" lon="3.50266">
        <ele>664.3</ele>
        <time>2020-08-23T11:09:43Z</time>
      </trkpt>
      <trkpt lat="43.86523" lon="3.50321">
        <ele>665.4</ele>
        <time>2020-08-23T11:10:03Z</time>
      </trkpt>
      <trkpt lat="43.8644" lon="3.50397">
        <ele>664.1</ele>
        <time>2020-08-23T11:10:18Z</time>
      </trkpt>
      <trkpt lat="43.86363" lon="3.50469">
        <ele>662.8</ele>
        <time>2020-08-23T11:10:28Z</time>
      </trkpt>
      <trkpt lat="43.86255" lon="3.50452">
        <ele>661.5</ele>
        <time>2020-08-23T11:10:38Z</time>
      </trkpt>
      <trkpt lat="43.86141" lon="3.50442">
        <ele>659.1</ele>
        <time>2020-08-23T11:10:48Z</time>
      </trkpt>
      <trkpt lat="43.86028" lon="3.50424">
        <ele>656.1</ele>
        <time>2020-08-23T11:10:58Z</time>
      </trkpt>
      <trkpt lat="43.85922" lon="3.50443">
        <ele>654.2</ele>
        <time>2020-08-23T11:11:08Z</time>
      </trkpt>
      <trkpt lat="43.8583" lon="3.50443">
        <ele>652.4</ele>
        <time>2020-08-23T11:11:18Z</time>
      </trkpt>
      <trkpt lat="43.85707" lon="3.50479">
        <ele>652.4</ele>
        <time>2020-08-23T11:11:33Z</time>
      </trkpt>
      <trkpt lat="43.85626" lon="3.50551">
        <ele>651.6</ele>
        <time>2020-08-23T11:11:43Z</time>
      </trkpt>
      <trkpt lat="43.85558" lon="3.50649">
        <ele>650.2</ele>
        <time>2020-08-23T11:11:53Z</time>
      </trkpt>
      <trkpt lat="43.85489" lon="3.50735">
        <ele>649.4</ele>
        <time>2020-08-23T11:12:03Z</time>
      </trkpt>
      <trkpt lat="43.85376" lon="3.50805">
        <ele>648.6</ele>
        <time>2020-08-23T11:12:18Z</time>
      </trkpt>
      <trkpt lat="43.85269" lon="3.50875">
        <ele>646.6</ele>
        <time>2020-08-23T11:12:33Z</time>
      </trkpt>
      <trkpt lat="43.85172" lon="3.50904">
        <ele>645.9</ele>
        <time>2020-08-23T11:12:48Z</time>
      </trkpt>
      <trkpt lat="43.85101" lon="3.51007">
        <ele>645</ele>
        <time>2020-08-23T11:13:13Z</time>
      </trkpt>
      <trkpt lat="43.85101" lon="3.51136">
        <ele>644.6</ele>
        <time>2020-08-23T11:13:38Z</time>
      </trkpt>
      <trkpt lat="43.8506" lon="3.51254">
        <ele>644.3</ele>
        <time>2020-08-23T11:14:08Z</time>
      </trkpt>
      <trkpt lat="43.85005" lon="3.51355">
        <ele>643.7</ele>
        <time>2020-08-23T11:14:33Z</time>
      </trkpt>
      <trkpt lat="43.84936" lon="3.51444">
        <ele>643.8</ele>
        <time>2020-08-23T11:14:53Z</time>
      </trkpt>
      <trkpt lat="43.84865" lon="3.51544">
        <ele>643.4</ele>
        <time>2020-08-23T11:15:18Z</time>
      </trkpt>
      <trkpt lat="43.84826" lon="3.51656">
        <ele>644.8</ele>
        <time>2020-08-23T11:15:59Z</time>
      </trkpt>
      <trkpt lat="43.84855" lon="3.51784">
        <ele>647.9</ele>
        <time>2020-08-23T11:16:59Z</time>
      </trkpt>
      <trkpt lat="43.8481" lon="3.51894">
        <ele>650.5</ele>
        <time>2020-08-23T11:17:50Z</time>
      </trkpt>
      <trkpt lat="43.8469" lon="3.5187">
        <ele>651.3</ele>
        <time>2020-08-23T11:18:26Z</time>
      </trkpt>
      <trkpt lat="43.84594" lon="3.51874">
        <ele>647.4</ele>
        <time>2020-08-23T11:19:09Z</time>
      </trkpt>
      <trkpt lat="43.84494" lon="3.51836">
        <ele>642.4</ele>
        <time>2020-08-23T11:19:39Z</time>
      </trkpt>
      <trkpt lat="43.84412" lon="3.51733">
        <ele>638.1</ele>
        <time>2020-08-23T11:20:48Z</time>
      </trkpt>
      <trkpt lat="43.84331" lon="3.51633">
        <ele>634</ele>
        <time>2020-08-23T11:21:08Z</time>
      </trkpt>
      <trkpt lat="43.84263" lon="3.51546">
        <ele>632.1</ele>
        <time>2020-08-23T11:21:33Z</time>
      </trkpt>
      <trkpt lat="43.8425" lon="3.51417">
        <ele>631.6</ele>
        <time>2020-08-23T11:22:17Z</time>
      </trkpt>
      <trkpt lat="43.84314" lon="3.51311">
        <ele>630.2</ele>
        <time>2020-08-23T11:22:42Z</time>
      </trkpt>
      <trkpt lat="43.84376" lon="3.51218">
        <ele>629.6</ele>
        <time>2020-08-23T11:23:41Z</time>
      </trkpt>
      <trkpt lat="43.84356" lon="3.51068">
        <ele>628.5</ele>
        <time>2020-08-23T11:24:12Z</time>
      </trkpt>
      <trkpt lat="43.84335" lon="3.509">
        <ele>625.8</ele>
        <time>2020-08-23T11:24:32Z</time>
      </trkpt>
      <trkpt lat="43.84325" lon="3.50757">
        <ele>623.8</ele>
        <time>2020-08-23T11:24:47Z</time>
      </trkpt>
      <trkpt lat="43.84329" lon="3.50618">
        <ele>622.2</ele>
        <time>2020-08-23T11:25:02Z</time>
      </trkpt>
      <trkpt lat="43.84343" lon="3.50485">
        <ele>620.7</ele>
        <time>2020-08-23T11:25:17Z</time>
      </trkpt>
      <trkpt lat="43.84359" lon="3.50363">
        <ele>618.4</ele>
        <time>2020-08-23T11:25:32Z</time>
      </trkpt>
      <trkpt lat="43.84345" lon="3.50232">
        <ele>616.8</ele>
        <time>2020-08-23T11:25:52Z</time>
      </trkpt>
      <trkpt lat="43.84324" lon="3.50082">
        <ele>613.7</ele>
        <time>2020-08-23T11:26:17Z</time>
      </trkpt>
      <trkpt lat="43.84313" lon="3.49935">
        <ele>613.1</ele>
        <time>2020-08-23T11:26:42Z</time>
      </trkpt>
      <trkpt lat="43.84297" lon="3.49805">
        <ele>612.6</ele>
        <time>2020-08-23T11:27:12Z</time>
      </trkpt>
      <trkpt lat="43.84293" lon="3.49677">
        <ele>612</ele>
        <time>2020-08-23T11:27:32Z</time>
      </trkpt>
      <trkpt lat="43.84311" lon="3.49539">
        <ele>611.5</ele>
        <time>2020-08-23T11:27:57Z</time>
      </trkpt>
      <trkpt lat="43.84286" lon="3.49387">
        <ele>611</ele>
        <time>2020-08-23T11:28:22Z</time>
      </trkpt>
      <trkpt lat="43.84257" lon="3.49263">
        <ele>610.7</ele>
        <time>2020-08-23T11:28:47Z</time>
      </trkpt>
      <trkpt lat="43.84249" lon="3.49138">
        <ele>610.6</ele>
        <time>2020-08-23T11:29:17Z</time>
      </trkpt>
      <trkpt lat="43.84255" lon="3.49011">
        <ele>610.6</ele>
        <time>2020-08-23T11:29:52Z</time>
      </trkpt>
      <trkpt lat="43.84257" lon="3.48876">
        <ele>610.7</ele>
        <time>2020-08-23T11:30:27Z</time>
      </trkpt>
      <trkpt lat="43.84264" lon="3.48748">
        <ele>610.8</ele>
        <time>2020-08-23T11:31:13Z</time>
      </trkpt>
      <trkpt lat="43.84279" lon="3.48624">
        <ele>611.4</ele>
        <time>2020-08-23T11:32:11Z</time>
      </trkpt>
      <trkpt lat="43.843" lon="3.48503">
        <ele>626.4</ele>
        <time>2020-08-23T11:58:26Z</time>
      </trkpt>
      <trkpt lat="43.84219" lon="3.48425">
        <ele>627.9</ele>
        <time>2020-08-23T11:59:39Z</time>
      </trkpt>
      <trkpt lat="43.84147" lon="3.48337">
        <ele>628.8</ele>
        <time>2020-08-23T12:00:45Z</time>
      </trkpt>
      <trkpt lat="43.84055" lon="3.48307">
        <ele>630.2</ele>
        <time>2020-08-23T12:02:08Z</time>
      </trkpt>
      <trkpt lat="43.8403" lon="3.48178">
        <ele>632.6</ele>
        <time>2020-08-23T12:03:26Z</time>
      </trkpt>
      <trkpt lat="43.8402" lon="3.48047">
        <ele>639.2</ele>
        <time>2020-08-23T12:04:32Z</time>
      </trkpt>
      <trkpt lat="43.84024" lon="3.47909">
        <ele>650.3</ele>
        <time>2020-08-23T12:05:33Z</time>
      </trkpt>
      <trkpt lat="43.83998" lon="3.47776">
        <ele>654.4</ele>
        <time>2020-08-23T12:06:03Z</time>
      </trkpt>
      <trkpt lat="43.8397" lon="3.47646">
        <ele>659.1</ele>
        <time>2020-08-23T12:06:32Z</time>
      </trkpt>
      <trkpt lat="43.8396" lon="3.47497">
        <ele>662.9</ele>
        <time>2020-08-23T12:07:18Z</time>
      </trkpt>
      <trkpt lat="43.83939" lon="3.47362">
        <ele>665.2</ele>
        <time>2020-08-23T12:07:48Z</time>
      </trkpt>
      <trkpt lat="43.83917" lon="3.47237">
        <ele>666.4</ele>
        <time>2020-08-23T12:08:18Z</time>
      </trkpt>
      <trkpt lat="43.83869" lon="3.47106">
        <ele>667.9</ele>
        <time>2020-08-23T12:08:38Z</time>
      </trkpt>
      <trkpt lat="43.83816" lon="3.46982">
        <ele>668.4</ele>
        <time>2020-08-23T12:09:13Z</time>
      </trkpt>
      <trkpt lat="43.83803" lon="3.46845">
        <ele>669.8</ele>
        <time>2020-08-23T12:09:43Z</time>
      </trkpt>
      <trkpt lat="43.83809" lon="3.4672">
        <ele>671</ele>
        <time>2020-08-23T12:10:03Z</time>
      </trkpt>
      <trkpt lat="43.83816" lon="3.46584">
        <ele>671.5</ele>
        <time>2020-08-23T12:10:23Z</time>
      </trkpt>
      <trkpt lat="43.83828" lon="3.46438">
        <ele>672.3</ele>
        <time>2020-08-23T12:10:43Z</time>
      </trkpt>
      <trkpt lat="43.83842" lon="3.46289">
        <ele>674.2</ele>
        <time>2020-08-23T12:11:03Z</time>
      </trkpt>
      <trkpt lat="43.83845" lon="3.46153">
        <ele>675.6</ele>
        <time>2020-08-23T12:11:23Z</time>
      </trkpt>
      <trkpt lat="43.83854" lon="3.46017">
        <ele>676.8</ele>
        <time>2020-08-23T12:12:04Z</time>
      </trkpt>
      <trkpt lat="43.83883" lon="3.459">
        <ele>679.1</ele>
        <time>2020-08-23T12:13:01Z</time>
      </trkpt>
      <trkpt lat="43.83945" lon="3.45809">
        <ele>681.1</ele>
        <time>2020-08-23T12:13:36Z</time>
      </trkpt>
      <trkpt lat="43.84019" lon="3.45734">
        <ele>683</ele>
        <time>2020-08-23T12:14:22Z</time>
      </trkpt>
      <trkpt lat="43.84101" lon="3.45681">
        <ele>684.3</ele>
        <time>2020-08-23T12:15:14Z</time>
      </trkpt>
      <trkpt lat="43.84202" lon="3.45675">
        <ele>685.5</ele>
        <time>2020-08-23T12:16:03Z</time>
      </trkpt>
      <trkpt lat="43.84305" lon="3.45633">
        <ele>685.9</ele>
        <time>2020-08-23T12:16:23Z</time>
      </trkpt>
      <trkpt lat="43.84409" lon="3.45628">
        <ele>685.1</ele>
        <time>2020-08-23T12:16:38Z</time>
      </trkpt>
      <trkpt lat="43.84503" lon="3.45569">
        <ele>685.4</ele>
        <time>2020-08-23T12:16:53Z</time>
      </trkpt>
      <trkpt lat="43.84599" lon="3.45545">
        <ele>686.3</ele>
        <time>2020-08-23T12:17:13Z</time>
      </trkpt>
      <trkpt lat="43.84698" lon="3.45496">
        <ele>685.5</ele>
        <time>2020-08-23T12:17:33Z</time>
      </trkpt>
      <trkpt lat="43.84687" lon="3.4534">
        <ele>684.5</ele>
        <time>2020-08-23T12:17:58Z</time>
      </trkpt>
      <trkpt lat="43.84701" lon="3.45213">
        <ele>683.7</ele>
        <time>2020-08-23T12:18:23Z</time>
      </trkpt>
      <trkpt lat="43.84747" lon="3.45086">
        <ele>683.2</ele>
        <time>2020-08-23T12:18:58Z</time>
      </trkpt>
      <trkpt lat="43.84789" lon="3.4497">
        <ele>683</ele>
        <time>2020-08-23T12:19:38Z</time>
      </trkpt>
      <trkpt lat="43.8483" lon="3.4486">
        <ele>683.5</ele>
        <time>2020-08-23T12:20:34Z</time>
      </trkpt>
      <trkpt lat="43.84795" lon="3.44731">
        <ele>684.8</ele>
        <time>2020-08-23T12:21:28Z</time>
      </trkpt>
      <trkpt lat="43.84802" lon="3.44603">
        <ele>686.3</ele>
        <time>2020-08-23T12:22:13Z</time>
      </trkpt>
      <trkpt lat="43.84797" lon="3.44478">
        <ele>688.8</ele>
        <time>2020-08-23T12:23:19Z</time>
      </trkpt>
      <trkpt lat="43.84816" lon="3.44347">
        <ele>691.3</ele>
        <time>2020-08-23T12:24:29Z</time>
      </trkpt>
      <trkpt lat="43.84869" lon="3.44249">
        <ele>694.1</ele>
        <time>2020-08-23T12:25:25Z</time>
      </trkpt>
      <trkpt lat="43.84851" lon="3.44114">
        <ele>696.6</ele>
        <time>2020-08-23T12:26:07Z</time>
      </trkpt>
      <trkpt lat="43.84835" lon="3.43987">
        <ele>698.3</ele>
        <time>2020-08-23T12:26:37Z</time>
      </trkpt>
      <trkpt lat="43.84808" lon="3.43857">
        <ele>701.5</ele>
        <time>2020-08-23T12:27:07Z</time>
      </trkpt>
      <trkpt lat="43.84789" lon="3.43714">
        <ele>703.5</ele>
        <time>2020-08-23T12:27:32Z</time>
      </trkpt>
      <trkpt lat="43.84831" lon="3.436">
        <ele>704.2</ele>
        <time>2020-08-23T12:27:52Z</time>
      </trkpt>
      <trkpt lat="43.8478" lon="3.43481">
        <ele>704.6</ele>
        <time>2020-08-23T12:28:22Z</time>
      </trkpt>
      <trkpt lat="43.84713" lon="3.43381">
        <ele>705.7</ele>
        <time>2020-08-23T12:28:52Z</time>
      </trkpt>
      <trkpt lat="43.84733" lon="3.43255">
        <ele>707.1</ele>
        <time>2020-08-23T12:29:22Z</time>
      </trkpt>
      <trkpt lat="43.84767" lon="3.43136">
        <ele>708.7</ele>
        <time>2020-08-23T12:29:52Z</time>
      </trkpt>
      <trkpt lat="43.84791" lon="3.43011">
        <ele>710.2</ele>
        <time>2020-08-23T12:30:22Z</time>
      </trkpt>
      <trkpt lat="43.84807" lon="3.42875">
        <ele>711.6</ele>
        <time>2020-08-23T12:30:52Z</time>
      </trkpt>
      <trkpt lat="43.84836" lon="3.42752">
        <ele>714</ele>
        <time>2020-08-23T12:31:38Z</time>
      </trkpt>
      <trkpt lat="43.84849" lon="3.42616">
        <ele>717</ele>
        <time>2020-08-23T12:32:30Z</time>
      </trkpt>
      <trkpt lat="43.84873" lon="3.42489">
        <ele>719.2</ele>
        <time>2020-08-23T12:33:10Z</time>
      </trkpt>
      <trkpt lat="43.84871" lon="3.42359">
        <ele>721.5</ele>
        <time>2020-08-23T12:33:50Z</time>
      </trkpt>
      <trkpt lat="43.84939" lon="3.4226">
        <ele>723.2</ele>
        <time>2020-08-23T12:34:10Z</time>
      </trkpt>
      <trkpt lat="43.84978" lon="3.42142">
        <ele>723.4</ele>
        <time>2020-08-23T12:34:25Z</time>
      </trkpt>
      <trkpt lat="43.8502" lon="3.4202">
        <ele>724.3</ele>
        <time>2020-08-23T12:34:50Z</time>
      </trkpt>
      <trkpt lat="43.85061" lon="3.419">
        <ele>724.9</ele>
        <time>2020-08-23T12:35:30Z</time>
      </trkpt>
      <trkpt lat="43.85103" lon="3.41782">
        <ele>726.6</ele>
        <time>2020-08-23T12:36:15Z</time>
      </trkpt>
      <trkpt lat="43.85142" lon="3.41666">
        <ele>728.5</ele>
        <time>2020-08-23T12:37:00Z</time>
      </trkpt>
      <trkpt lat="43.85174" lon="3.41542">
        <ele>730.4</ele>
        <time>2020-08-23T12:37:45Z</time>
      </trkpt>
      <trkpt lat="43.85196" lon="3.41404">
        <ele>732.3</ele>
        <time>2020-08-23T12:38:25Z</time>
      </trkpt>
      <trkpt lat="43.85213" lon="3.4127">
        <ele>735</ele>
        <time>2020-08-23T12:39:05Z</time>
      </trkpt>
      <trkpt lat="43.85249" lon="3.41145">
        <ele>738.2</ele>
        <time>2020-08-23T12:39:50Z</time>
      </trkpt>
      <trkpt lat="43.85295" lon="3.41029">
        <ele>741.4</ele>
        <time>2020-08-23T12:40:42Z</time>
      </trkpt>
      <trkpt lat="43.85268" lon="3.40901">
        <ele>743.9</ele>
        <time>2020-08-23T12:41:32Z</time>
      </trkpt>
      <trkpt lat="43.85262" lon="3.40762">
        <ele>745.9</ele>
        <time>2020-08-23T12:42:17Z</time>
      </trkpt>
      <trkpt lat="43.85298" lon="3.40648">
        <ele>747.6</ele>
        <time>2020-08-23T12:42:57Z</time>
      </trkpt>
      <trkpt lat="43.85341" lon="3.4053">
        <ele>749.3</ele>
        <time>2020-08-23T12:43:38Z</time>
      </trkpt>
      <trkpt lat="43.85374" lon="3.40415">
        <ele>750.9</ele>
        <time>2020-08-23T12:44:18Z</time>
      </trkpt>
      <trkpt lat="43.85453" lon="3.40359">
        <ele>752.8</ele>
        <time>2020-08-23T12:45:08Z</time>
      </trkpt>
      <trkpt lat="43.85549" lon="3.4037">
        <ele>754.9</ele>
        <time>2020-08-23T12:45:59Z</time>
      </trkpt>
      <trkpt lat="43.85617" lon="3.40282">
        <ele>757.6</ele>
        <time>2020-08-23T12:47:02Z</time>
      </trkpt>
      <trkpt lat="43.85629" lon="3.40149">
        <ele>759.6</ele>
        <time>2020-08-23T12:47:56Z</time>
      </trkpt>
      <trkpt lat="43.85654" lon="3.40019">
        <ele>761</ele>
        <time>2020-08-23T12:48:49Z</time>
      </trkpt>
      <trkpt lat="43.85644" lon="3.39886">
        <ele>762.4</ele>
        <time>2020-08-23T12:49:44Z</time>
      </trkpt>
      <trkpt lat="43.85629" lon="3.3976">
        <ele>763.5</ele>
        <time>2020-08-23T12:50:24Z</time>
      </trkpt>
      <trkpt lat="43.8562" lon="3.3963">
        <ele>764.5</ele>
        <time>2020-08-23T12:51:10Z</time>
      </trkpt>
      <trkpt lat="43.85605" lon="3.39506">
        <ele>765.4</ele>
        <time>2020-08-23T12:51:55Z</time>
      </trkpt>
      <trkpt lat="43.85551" lon="3.39387">
        <ele>766.3</ele>
        <time>2020-08-23T12:52:35Z</time>
      </trkpt>
      <trkpt lat="43.85517" lon="3.39258">
        <ele>767.1</ele>
        <time>2020-08-23T12:53:15Z</time>
      </trkpt>
      <trkpt lat="43.85441" lon="3.39171">
        <ele>770.1</ele>
        <time>2020-08-23T12:54:09Z</time>
      </trkpt>
      <trkpt lat="43.85378" lon="3.39063">
        <ele>778.2</ele>
        <time>2020-08-23T12:55:10Z</time>
      </trkpt>
      <trkpt lat="43.85395" lon="3.38934">
        <ele>786.2</ele>
        <time>2020-08-23T12:56:10Z</time>
      </trkpt>
      <trkpt lat="43.85484" lon="3.38877">
        <ele>791.5</ele>
        <time>2020-08-23T12:57:04Z</time>
      </trkpt>
      <trkpt lat="43.85547" lon="3.38777">
        <ele>795</ele>
        <time>2020-08-23T12:57:44Z</time>
      </trkpt>
      <trkpt lat="43.8554" lon="3.38652">
        <ele>797.5</ele>
        <time>2020-08-23T12:58:54Z</time>
      </trkpt>
      <trkpt lat="43.85525" lon="3.38516">
        <ele>799.3</ele>
        <time>2020-08-23T13:01:12Z</time>
      </trkpt>
      <trkpt lat="43.85533" lon="3.38368">
        <ele>801.2</ele>
        <time>2020-08-23T13:02:44Z</time>
      </trkpt>
      <trkpt lat="43.85589" lon="3.38255">
        <ele>801.6</ele>
        <time>2020-08-23T13:03:09Z</time>
      </trkpt>
      <trkpt lat="43.85667" lon="3.38184">
        <ele>801.6</ele>
        <time>2020-08-23T13:03:57Z</time>
      </trkpt>
      <trkpt lat="43.85702" lon="3.38061">
        <ele>801.5</ele>
        <time>2020-08-23T13:04:52Z</time>
      </trkpt>
      <trkpt lat="43.85708" lon="3.37916">
        <ele>801.7</ele>
        <time>2020-08-23T13:05:36Z</time>
      </trkpt>
      <trkpt lat="43.85708" lon="3.37752">
        <ele>801.7</ele>
        <time>2020-08-23T13:05:56Z</time>
      </trkpt>
      <trkpt lat="43.85685" lon="3.37581">
        <ele>800.9</ele>
        <time>2020-08-23T13:06:11Z</time>
      </trkpt>
      <trkpt lat="43.85667" lon="3.37425">
        <ele>800.5</ele>
        <time>2020-08-23T13:06:26Z</time>
      </trkpt>
      <trkpt lat="43.8562" lon="3.37289">
        <ele>799.8</ele>
        <time>2020-08-23T13:06:41Z</time>
      </trkpt>
      <trkpt lat="43.85575" lon="3.37143">
        <ele>798.6</ele>
        <time>2020-08-23T13:06:56Z</time>
      </trkpt>
      <trkpt lat="43.85553" lon="3.37005">
        <ele>798</ele>
        <time>2020-08-23T13:07:11Z</time>
      </trkpt>
      <trkpt lat="43.85527" lon="3.36872">
        <ele>796.8</ele>
        <time>2020-08-23T13:07:31Z</time>
      </trkpt>
      <trkpt lat="43.85472" lon="3.3674">
        <ele>795</ele>
        <time>2020-08-23T13:07:51Z</time>
      </trkpt>
      <trkpt lat="43.85413" lon="3.36634">
        <ele>793.7</ele>
        <time>2020-08-23T13:08:06Z</time>
      </trkpt>
      <trkpt lat="43.8535" lon="3.36504">
        <ele>792.8</ele>
        <time>2020-08-23T13:08:21Z</time>
      </trkpt>
      <trkpt lat="43.853" lon="3.3639">
        <ele>793</ele>
        <time>2020-08-23T13:08:36Z</time>
      </trkpt>
      <trkpt lat="43.85236" lon="3.36263">
        <ele>792.9</ele>
        <time>2020-08-23T13:09:01Z</time>
      </trkpt>
      <trkpt lat="43.85157" lon="3.36177">
        <ele>794.1</ele>
        <time>2020-08-23T13:09:39Z</time>
      </trkpt>
      <trkpt lat="43.85109" lon="3.36063">
        <ele>797.2</ele>
        <time>2020-08-23T13:17:34Z</time>
      </trkpt>
      <trkpt lat="43.8507" lon="3.35912">
        <ele>796.3</ele>
        <time>2020-08-23T13:17:59Z</time>
      </trkpt>
      <trkpt lat="43.85051" lon="3.35775">
        <ele>796.2</ele>
        <time>2020-08-23T13:18:14Z</time>
      </trkpt>
      <trkpt lat="43.85078" lon="3.35651">
        <ele>796.3</ele>
        <time>2020-08-23T13:18:29Z</time>
      </trkpt>
      <trkpt lat="43.85122" lon="3.35506">
        <ele>796.1</ele>
        <time>2020-08-23T13:18:49Z</time>
      </trkpt>
      <trkpt lat="43.85162" lon="3.35395">
        <ele>795.8</ele>
        <time>2020-08-23T13:19:04Z</time>
      </trkpt>
      <trkpt lat="43.85205" lon="3.35263">
        <ele>796.2</ele>
        <time>2020-08-23T13:19:24Z</time>
      </trkpt>
      <trkpt lat="43.85247" lon="3.35137">
        <ele>795.9</ele>
        <time>2020-08-23T13:19:54Z</time>
      </trkpt>
      <trkpt lat="43.8529" lon="3.35028">
        <ele>797.6</ele>
        <time>2020-08-23T13:20:43Z</time>
      </trkpt>
      <trkpt lat="43.85327" lon="3.34912">
        <ele>798.5</ele>
        <time>2020-08-23T13:21:33Z</time>
      </trkpt>
      <trkpt lat="43.85366" lon="3.3478">
        <ele>798.3</ele>
        <time>2020-08-23T13:22:08Z</time>
      </trkpt>
      <trkpt lat="43.85392" lon="3.34646">
        <ele>798.6</ele>
        <time>2020-08-23T13:22:38Z</time>
      </trkpt>
      <trkpt lat="43.85417" lon="3.34521">
        <ele>800.1</ele>
        <time>2020-08-23T13:23:18Z</time>
      </trkpt>
      <trkpt lat="43.85442" lon="3.34394">
        <ele>801.8</ele>
        <time>2020-08-23T13:24:00Z</time>
      </trkpt>
      <trkpt lat="43.85469" lon="3.34269">
        <ele>802.5</ele>
        <time>2020-08-23T13:24:25Z</time>
      </trkpt>
      <trkpt lat="43.85495" lon="3.34142">
        <ele>802.1</ele>
        <time>2020-08-23T13:25:05Z</time>
      </trkpt>
      <trkpt lat="43.85518" lon="3.34018">
        <ele>800.4</ele>
        <time>2020-08-23T13:25:30Z</time>
      </trkpt>
      <trkpt lat="43.85543" lon="3.33885">
        <ele>799.6</ele>
        <time>2020-08-23T13:25:55Z</time>
      </trkpt>
      <trkpt lat="43.85569" lon="3.33753">
        <ele>799.3</ele>
        <time>2020-08-23T13:26:25Z</time>
      </trkpt>
      <trkpt lat="43.85594" lon="3.33617">
        <ele>798.8</ele>
        <time>2020-08-23T13:26:55Z</time>
      </trkpt>
      <trkpt lat="43.85618" lon="3.33486">
        <ele>798.2</ele>
        <time>2020-08-23T13:27:25Z</time>
      </trkpt>
      <trkpt lat="43.85643" lon="3.33349">
        <ele>797.5</ele>
        <time>2020-08-23T13:28:00Z</time>
      </trkpt>
      <trkpt lat="43.85667" lon="3.33226">
        <ele>797</ele>
        <time>2020-08-23T13:28:35Z</time>
      </trkpt>
      <trkpt lat="43.85695" lon="3.33104">
        <ele>796.7</ele>
        <time>2020-08-23T13:29:10Z</time>
      </trkpt>
      <trkpt lat="43.85734" lon="3.32958">
        <ele>796.5</ele>
        <time>2020-08-23T13:29:35Z</time>
      </trkpt>
      <trkpt lat="43.85773" lon="3.32802">
        <ele>796.4</ele>
        <time>2020-08-23T13:29:55Z</time>
      </trkpt>
      <trkpt lat="43.85804" lon="3.32684">
        <ele>796.1</ele>
        <time>2020-08-23T13:30:10Z</time>
      </trkpt>
      <trkpt lat="43.8585" lon="3.3254">
        <ele>795.6</ele>
        <time>2020-08-23T13:30:30Z</time>
      </trkpt>
      <trkpt lat="43.85926" lon="3.32446">
        <ele>796</ele>
        <time>2020-08-23T13:30:55Z</time>
      </trkpt>
      <trkpt lat="43.8601" lon="3.32336">
        <ele>793.1</ele>
        <time>2020-08-23T13:31:20Z</time>
      </trkpt>
      <trkpt lat="43.86089" lon="3.32237">
        <ele>790.3</ele>
        <time>2020-08-23T13:31:40Z</time>
      </trkpt>
      <trkpt lat="43.86149" lon="3.32147">
        <ele>790.4</ele>
        <time>2020-08-23T13:32:10Z</time>
      </trkpt>
      <trkpt lat="43.86196" lon="3.32039">
        <ele>791.7</ele>
        <time>2020-08-23T13:34:47Z</time>
      </trkpt>
      <trkpt lat="43.8626" lon="3.31939">
        <ele>791.8</ele>
        <time>2020-08-23T13:35:32Z</time>
      </trkpt>
      <trkpt lat="43.86338" lon="3.31871">
        <ele>792</ele>
        <time>2020-08-23T13:36:17Z</time>
      </trkpt>
    </trkseg>
  </trk>
  <trk>
    <name><![CDATA[route111]]></name>
    <trkseg>
      <trkpt lat="43.864" lon="3.31783">
        <ele>804.5</ele>
        <time>2020-08-24T07:35:13Z</time>
      </trkpt>
      <trkpt lat="43.86454" lon="3.31666">
        <ele>803.8</ele>
        <time>2020-08-24T07:35:38Z</time>
      </trkpt>
      <trkpt lat="43.86546" lon="3.31622">
        <ele>798.9</ele>
        <time>2020-08-24T07:46:24Z</time>
      </trkpt>
      <trkpt lat="43.86656" lon="3.31585">
        <ele>798.5</ele>
        <time>2020-08-24T07:46:44Z</time>
      </trkpt>
      <trkpt lat="43.86748" lon="3.31551">
        <ele>797.6</ele>
        <time>2020-08-24T07:46:59Z</time>
      </trkpt>
      <trkpt lat="43.86844" lon="3.31518">
        <ele>797.6</ele>
        <time>2020-08-24T07:47:19Z</time>
      </trkpt>
      <trkpt lat="43.86932" lon="3.31465">
        <ele>797.5</ele>
        <time>2020-08-24T07:47:44Z</time>
      </trkpt>
      <trkpt lat="43.8702" lon="3.31408">
        <ele>796.6</ele>
        <time>2020-08-24T07:48:24Z</time>
      </trkpt>
      <trkpt lat="43.87102" lon="3.31355">
        <ele>793.9</ele>
        <time>2020-08-24T07:49:15Z</time>
      </trkpt>
      <trkpt lat="43.87194" lon="3.31312">
        <ele>791.7</ele>
        <time>2020-08-24T07:50:02Z</time>
      </trkpt>
      <trkpt lat="43.87284" lon="3.31344">
        <ele>791</ele>
        <time>2020-08-24T07:50:47Z</time>
      </trkpt>
      <trkpt lat="43.87375" lon="3.31383">
        <ele>791.6</ele>
        <time>2020-08-24T07:51:39Z</time>
      </trkpt>
      <trkpt lat="43.87465" lon="3.31378">
        <ele>793</ele>
        <time>2020-08-24T07:52:24Z</time>
      </trkpt>
      <trkpt lat="43.8755" lon="3.31332">
        <ele>794.1</ele>
        <time>2020-08-24T07:53:14Z</time>
      </trkpt>
      <trkpt lat="43.87637" lon="3.31297">
        <ele>795.2</ele>
        <time>2020-08-24T07:53:59Z</time>
      </trkpt>
      <trkpt lat="43.8773" lon="3.31269">
        <ele>796.3</ele>
        <time>2020-08-24T07:54:44Z</time>
      </trkpt>
      <trkpt lat="43.87824" lon="3.31235">
        <ele>797.2</ele>
        <time>2020-08-24T07:55:24Z</time>
      </trkpt>
      <trkpt lat="43.87919" lon="3.31192">
        <ele>798.1</ele>
        <time>2020-08-24T07:56:04Z</time>
      </trkpt>
      <trkpt lat="43.88009" lon="3.3115">
        <ele>799</ele>
        <time>2020-08-24T07:56:49Z</time>
      </trkpt>
      <trkpt lat="43.88093" lon="3.31107">
        <ele>799.9</ele>
        <time>2020-08-24T07:57:38Z</time>
      </trkpt>
      <trkpt lat="43.88177" lon="3.31032">
        <ele>801.1</ele>
        <time>2020-08-24T07:59:00Z</time>
      </trkpt>
      <trkpt lat="43.88258" lon="3.30976">
        <ele>802.1</ele>
        <time>2020-08-24T07:59:35Z</time>
      </trkpt>
      <trkpt lat="43.88365" lon="3.30954">
        <ele>803.4</ele>
        <time>2020-08-24T08:00:00Z</time>
      </trkpt>
      <trkpt lat="43.88456" lon="3.30929">
        <ele>803.7</ele>
        <time>2020-08-24T08:00:35Z</time>
      </trkpt>
      <trkpt lat="43.88549" lon="3.30904">
        <ele>804.5</ele>
        <time>2020-08-24T08:01:21Z</time>
      </trkpt>
      <trkpt lat="43.88638" lon="3.3089">
        <ele>805.6</ele>
        <time>2020-08-24T08:02:18Z</time>
      </trkpt>
      <trkpt lat="43.88736" lon="3.30905">
        <ele>807</ele>
        <time>2020-08-24T08:03:18Z</time>
      </trkpt>
      <trkpt lat="43.88831" lon="3.30943">
        <ele>808.5</ele>
        <time>2020-08-24T08:04:15Z</time>
      </trkpt>
      <trkpt lat="43.88923" lon="3.30978">
        <ele>810.1</ele>
        <time>2020-08-24T08:05:06Z</time>
      </trkpt>
      <trkpt lat="43.89018" lon="3.31022">
        <ele>811.3</ele>
        <time>2020-08-24T08:05:46Z</time>
      </trkpt>
      <trkpt lat="43.89115" lon="3.31063">
        <ele>812.5</ele>
        <time>2020-08-24T08:06:21Z</time>
      </trkpt>
      <trkpt lat="43.89205" lon="3.31072">
        <ele>814.6</ele>
        <time>2020-08-24T08:07:13Z</time>
      </trkpt>
      <trkpt lat="43.89303" lon="3.31056">
        <ele>817.4</ele>
        <time>2020-08-24T08:08:14Z</time>
      </trkpt>
      <trkpt lat="43.89392" lon="3.31001">
        <ele>820.4</ele>
        <time>2020-08-24T08:09:20Z</time>
      </trkpt>
      <trkpt lat="43.89482" lon="3.30959">
        <ele>822.7</ele>
        <time>2020-08-24T08:10:10Z</time>
      </trkpt>
      <trkpt lat="43.89583" lon="3.30979">
        <ele>825.6</ele>
        <time>2020-08-24T08:10:35Z</time>
      </trkpt>
      <trkpt lat="43.89693" lon="3.31018">
        <ele>826</ele>
        <time>2020-08-24T08:10:55Z</time>
      </trkpt>
      <trkpt lat="43.89811" lon="3.31064">
        <ele>826</ele>
        <time>2020-08-24T08:11:10Z</time>
      </trkpt>
      <trkpt lat="43.89908" lon="3.311">
        <ele>826.6</ele>
        <time>2020-08-24T08:11:30Z</time>
      </trkpt>
      <trkpt lat="43.9" lon="3.31095">
        <ele>827</ele>
        <time>2020-08-24T08:12:00Z</time>
      </trkpt>
      <trkpt lat="43.90085" lon="3.31051">
        <ele>828.5</ele>
        <time>2020-08-24T08:12:35Z</time>
      </trkpt>
      <trkpt lat="43.90169" lon="3.31005">
        <ele>829.2</ele>
        <time>2020-08-24T08:13:10Z</time>
      </trkpt>
      <trkpt lat="43.90255" lon="3.30958">
        <ele>830</ele>
        <time>2020-08-24T08:13:50Z</time>
      </trkpt>
      <trkpt lat="43.90345" lon="3.30933">
        <ele>831.2</ele>
        <time>2020-08-24T08:14:30Z</time>
      </trkpt>
      <trkpt lat="43.90437" lon="3.30937">
        <ele>832.6</ele>
        <time>2020-08-24T08:15:05Z</time>
      </trkpt>
      <trkpt lat="43.9054" lon="3.30979">
        <ele>833.7</ele>
        <time>2020-08-24T08:15:30Z</time>
      </trkpt>
      <trkpt lat="43.90635" lon="3.31032">
        <ele>832.5</ele>
        <time>2020-08-24T08:15:50Z</time>
      </trkpt>
      <trkpt lat="43.90747" lon="3.31092">
        <ele>830.8</ele>
        <time>2020-08-24T08:16:10Z</time>
      </trkpt>
      <trkpt lat="43.90836" lon="3.31134">
        <ele>830.1</ele>
        <time>2020-08-24T08:16:55Z</time>
      </trkpt>
      <trkpt lat="43.90945" lon="3.31148">
        <ele>828.7</ele>
        <time>2020-08-24T08:17:20Z</time>
      </trkpt>
      <trkpt lat="43.90995" lon="3.31258">
        <ele>827.3</ele>
        <time>2020-08-24T08:17:50Z</time>
      </trkpt>
      <trkpt lat="43.91074" lon="3.31356">
        <ele>826.6</ele>
        <time>2020-08-24T08:19:05Z</time>
      </trkpt>
      <trkpt lat="43.91169" lon="3.31406">
        <ele>825</ele>
        <time>2020-08-24T08:19:41Z</time>
      </trkpt>
      <trkpt lat="43.91234" lon="3.31517">
        <ele>824.9</ele>
        <time>2020-08-24T08:20:16Z</time>
      </trkpt>
      <trkpt lat="43.91288" lon="3.31622">
        <ele>824.8</ele>
        <time>2020-08-24T08:20:46Z</time>
      </trkpt>
      <trkpt lat="43.91255" lon="3.3174">
        <ele>823.6</ele>
        <time>2020-08-24T08:26:43Z</time>
      </trkpt>
      <trkpt lat="43.91283" lon="3.31616">
        <ele>829.4</ele>
        <time>2020-08-24T08:50:35Z</time>
      </trkpt>
      <trkpt lat="43.91225" lon="3.31505">
        <ele>829.4</ele>
        <time>2020-08-24T08:51:10Z</time>
      </trkpt>
      <trkpt lat="43.91159" lon="3.31394">
        <ele>829.3</ele>
        <time>2020-08-24T08:51:45Z</time>
      </trkpt>
      <trkpt lat="43.91086" lon="3.31302">
        <ele>828.8</ele>
        <time>2020-08-24T08:52:10Z</time>
      </trkpt>
      <trkpt lat="43.91012" lon="3.31209">
        <ele>828.4</ele>
        <time>2020-08-24T08:53:05Z</time>
      </trkpt>
      <trkpt lat="43.91077" lon="3.31108">
        <ele>828.1</ele>
        <time>2020-08-24T08:54:00Z</time>
      </trkpt>
      <trkpt lat="43.91176" lon="3.31082">
        <ele>827.9</ele>
        <time>2020-08-24T08:54:29Z</time>
      </trkpt>
      <trkpt lat="43.91274" lon="3.3108">
        <ele>827.7</ele>
        <time>2020-08-24T08:54:59Z</time>
      </trkpt>
      <trkpt lat="43.91363" lon="3.31107">
        <ele>827.5</ele>
        <time>2020-08-24T08:55:24Z</time>
      </trkpt>
      <trkpt lat="43.91407" lon="3.30993">
        <ele>826.8</ele>
        <time>2020-08-24T08:55:54Z</time>
      </trkpt>
      <trkpt lat="43.91447" lon="3.30859">
        <ele>826.5</ele>
        <time>2020-08-24T08:56:24Z</time>
      </trkpt>
      <trkpt lat="43.91485" lon="3.30732">
        <ele>826.4</ele>
        <time>2020-08-24T08:56:54Z</time>
      </trkpt>
      <trkpt lat="43.9149" lon="3.30595">
        <ele>826.3</ele>
        <time>2020-08-24T08:57:24Z</time>
      </trkpt>
      <trkpt lat="43.91522" lon="3.3048">
        <ele>826.3</ele>
        <time>2020-08-24T08:57:59Z</time>
      </trkpt>
      <trkpt lat="43.91546" lon="3.3035">
        <ele>826.6</ele>
        <time>2020-08-24T08:58:57Z</time>
      </trkpt>
      <trkpt lat="43.91507" lon="3.30229">
        <ele>827.4</ele>
        <time>2020-08-24T08:59:53Z</time>
      </trkpt>
      <trkpt lat="43.91437" lon="3.30129">
        <ele>828.5</ele>
        <time>2020-08-24T09:00:43Z</time>
      </trkpt>
      <trkpt lat="43.91342" lon="3.30089">
        <ele>829.4</ele>
        <time>2020-08-24T09:01:28Z</time>
      </trkpt>
      <trkpt lat="43.91288" lon="3.29979">
        <ele>830.5</ele>
        <time>2020-08-24T09:02:13Z</time>
      </trkpt>
      <trkpt lat="43.91201" lon="3.29911">
        <ele>831.5</ele>
        <time>2020-08-24T09:02:53Z</time>
      </trkpt>
      <trkpt lat="43.91127" lon="3.29826">
        <ele>832.4</ele>
        <time>2020-08-24T09:03:23Z</time>
      </trkpt>
      <trkpt lat="43.91092" lon="3.29701">
        <ele>833.2</ele>
        <time>2020-08-24T09:03:53Z</time>
      </trkpt>
      <trkpt lat="43.91005" lon="3.29609">
        <ele>835</ele>
        <time>2020-08-24T09:04:23Z</time>
      </trkpt>
      <trkpt lat="43.90953" lon="3.29497">
        <ele>837</ele>
        <time>2020-08-24T09:04:48Z</time>
      </trkpt>
      <trkpt lat="43.90919" lon="3.29378">
        <ele>838.3</ele>
        <time>2020-08-24T09:05:13Z</time>
      </trkpt>
      <trkpt lat="43.9085" lon="3.2928">
        <ele>839.3</ele>
        <time>2020-08-24T09:05:38Z</time>
      </trkpt>
      <trkpt lat="43.90782" lon="3.29171">
        <ele>841</ele>
        <time>2020-08-24T09:06:03Z</time>
      </trkpt>
      <trkpt lat="43.9071" lon="3.29049">
        <ele>842.3</ele>
        <time>2020-08-24T09:06:28Z</time>
      </trkpt>
      <trkpt lat="43.90631" lon="3.28982">
        <ele>842.8</ele>
        <time>2020-08-24T09:06:43Z</time>
      </trkpt>
      <trkpt lat="43.90556" lon="3.28855">
        <ele>842.1</ele>
        <time>2020-08-24T09:06:58Z</time>
      </trkpt>
      <trkpt lat="43.90515" lon="3.28723">
        <ele>841.5</ele>
        <time>2020-08-24T09:07:13Z</time>
      </trkpt>
      <trkpt lat="43.90501" lon="3.28579">
        <ele>840.2</ele>
        <time>2020-08-24T09:07:28Z</time>
      </trkpt>
      <trkpt lat="43.90428" lon="3.28471">
        <ele>838.3</ele>
        <time>2020-08-24T09:07:43Z</time>
      </trkpt>
      <trkpt lat="43.90346" lon="3.2837">
        <ele>837.2</ele>
        <time>2020-08-24T09:08:03Z</time>
      </trkpt>
      <trkpt lat="43.9024" lon="3.28331">
        <ele>836</ele>
        <time>2020-08-24T09:08:23Z</time>
      </trkpt>
      <trkpt lat="43.90171" lon="3.28213">
        <ele>836.1</ele>
        <time>2020-08-24T09:08:43Z</time>
      </trkpt>
      <trkpt lat="43.9008" lon="3.28136">
        <ele>835.5</ele>
        <time>2020-08-24T09:09:03Z</time>
      </trkpt>
      <trkpt lat="43.89978" lon="3.28145">
        <ele>832.8</ele>
        <time>2020-08-24T09:09:18Z</time>
      </trkpt>
      <trkpt lat="43.89903" lon="3.28035">
        <ele>832.9</ele>
        <time>2020-08-24T09:09:33Z</time>
      </trkpt>
      <trkpt lat="43.89857" lon="3.27904">
        <ele>831.6</ele>
        <time>2020-08-24T09:09:53Z</time>
      </trkpt>
      <trkpt lat="43.89769" lon="3.27784">
        <ele>828.8</ele>
        <time>2020-08-24T09:10:08Z</time>
      </trkpt>
      <trkpt lat="43.89762" lon="3.27634">
        <ele>827.9</ele>
        <time>2020-08-24T09:10:23Z</time>
      </trkpt>
      <trkpt lat="43.89835" lon="3.27551">
        <ele>826.4</ele>
        <time>2020-08-24T09:10:58Z</time>
      </trkpt>
      <trkpt lat="43.8987" lon="3.27431">
        <ele>821.7</ele>
        <time>2020-08-24T09:12:16Z</time>
      </trkpt>
      <trkpt lat="43.89853" lon="3.27267">
        <ele>818.1</ele>
        <time>2020-08-24T09:12:31Z</time>
      </trkpt>
      <trkpt lat="43.89787" lon="3.27157">
        <ele>817.2</ele>
        <time>2020-08-24T09:12:46Z</time>
      </trkpt>
      <trkpt lat="43.89766" lon="3.27022">
        <ele>816.2</ele>
        <time>2020-08-24T09:13:11Z</time>
      </trkpt>
      <trkpt lat="43.89807" lon="3.26905">
        <ele>818.8</ele>
        <time>2020-08-24T09:13:59Z</time>
      </trkpt>
      <trkpt lat="43.89794" lon="3.2677">
        <ele>820.7</ele>
        <time>2020-08-24T09:14:55Z</time>
      </trkpt>
      <trkpt lat="43.89758" lon="3.26646">
        <ele>822.9</ele>
        <time>2020-08-24T09:15:46Z</time>
      </trkpt>
      <trkpt lat="43.89718" lon="3.26519">
        <ele>825.5</ele>
        <time>2020-08-24T09:16:38Z</time>
      </trkpt>
      <trkpt lat="43.89713" lon="3.2639">
        <ele>827.4</ele>
        <time>2020-08-24T09:17:13Z</time>
      </trkpt>
      <trkpt lat="43.89687" lon="3.26261">
        <ele>829</ele>
        <time>2020-08-24T09:17:43Z</time>
      </trkpt>
      <trkpt lat="43.89639" lon="3.26144">
        <ele>830.4</ele>
        <time>2020-08-24T09:18:13Z</time>
      </trkpt>
      <trkpt lat="43.89592" lon="3.26017">
        <ele>831.8</ele>
        <time>2020-08-24T09:18:43Z</time>
      </trkpt>
      <trkpt lat="43.89523" lon="3.25911">
        <ele>834.3</ele>
        <time>2020-08-24T09:19:13Z</time>
      </trkpt>
      <trkpt lat="43.89505" lon="3.25766">
        <ele>835.8</ele>
        <time>2020-08-24T09:19:42Z</time>
      </trkpt>
      <trkpt lat="43.89488" lon="3.2563">
        <ele>836</ele>
        <time>2020-08-24T09:20:02Z</time>
      </trkpt>
      <trkpt lat="43.8944" lon="3.25507">
        <ele>835.5</ele>
        <time>2020-08-24T09:20:17Z</time>
      </trkpt>
      <trkpt lat="43.89413" lon="3.25354">
        <ele>834.6</ele>
        <time>2020-08-24T09:20:32Z</time>
      </trkpt>
      <trkpt lat="43.89386" lon="3.25203">
        <ele>831.5</ele>
        <time>2020-08-24T09:20:47Z</time>
      </trkpt>
      <trkpt lat="43.89338" lon="3.25052">
        <ele>828.9</ele>
        <time>2020-08-24T09:21:02Z</time>
      </trkpt>
      <trkpt lat="43.89297" lon="3.24898">
        <ele>828</ele>
        <time>2020-08-24T09:21:17Z</time>
      </trkpt>
      <trkpt lat="43.89246" lon="3.24743">
        <ele>827.3</ele>
        <time>2020-08-24T09:21:32Z</time>
      </trkpt>
      <trkpt lat="43.89156" lon="3.24658">
        <ele>824.6</ele>
        <time>2020-08-24T09:21:47Z</time>
      </trkpt>
      <trkpt lat="43.89049" lon="3.24637">
        <ele>819</ele>
        <time>2020-08-24T09:22:02Z</time>
      </trkpt>
      <trkpt lat="43.89003" lon="3.24496">
        <ele>812.8</ele>
        <time>2020-08-24T09:22:17Z</time>
      </trkpt>
      <trkpt lat="43.88918" lon="3.24429">
        <ele>813.7</ele>
        <time>2020-08-24T09:22:57Z</time>
      </trkpt>
      <trkpt lat="43.88825" lon="3.24395">
        <ele>813</ele>
        <time>2020-08-24T09:24:07Z</time>
      </trkpt>
      <trkpt lat="43.88748" lon="3.24321">
        <ele>812.1</ele>
        <time>2020-08-24T09:25:14Z</time>
      </trkpt>
      <trkpt lat="43.88681" lon="3.24228">
        <ele>813.1</ele>
        <time>2020-08-24T09:26:14Z</time>
      </trkpt>
      <trkpt lat="43.88594" lon="3.24157">
        <ele>814.4</ele>
        <time>2020-08-24T09:26:54Z</time>
      </trkpt>
      <trkpt lat="43.88538" lon="3.2404">
        <ele>816.6</ele>
        <time>2020-08-24T09:27:37Z</time>
      </trkpt>
      <trkpt lat="43.88471" lon="3.23951">
        <ele>819</ele>
        <time>2020-08-24T09:28:27Z</time>
      </trkpt>
      <trkpt lat="43.88409" lon="3.23849">
        <ele>823.5</ele>
        <time>2020-08-24T09:28:57Z</time>
      </trkpt>
      <trkpt lat="43.88363" lon="3.23728">
        <ele>824.1</ele>
        <time>2020-08-24T09:29:40Z</time>
      </trkpt>
      <trkpt lat="43.88347" lon="3.23596">
        <ele>826.3</ele>
        <time>2020-08-24T09:30:46Z</time>
      </trkpt>
      <trkpt lat="43.88364" lon="3.23468">
        <ele>827.9</ele>
        <time>2020-08-24T09:31:26Z</time>
      </trkpt>
      <trkpt lat="43.88412" lon="3.23351">
        <ele>830.5</ele>
        <time>2020-08-24T09:32:01Z</time>
      </trkpt>
      <trkpt lat="43.88505" lon="3.233">
        <ele>831.8</ele>
        <time>2020-08-24T09:32:26Z</time>
      </trkpt>
      <trkpt lat="43.88589" lon="3.23237">
        <ele>831.6</ele>
        <time>2020-08-24T09:32:41Z</time>
      </trkpt>
      <trkpt lat="43.88645" lon="3.23142">
        <ele>831.2</ele>
        <time>2020-08-24T10:13:30Z</time>
      </trkpt>
      <trkpt lat="43.8866" lon="3.22997">
        <ele>830.6</ele>
        <time>2020-08-24T10:13:50Z</time>
      </trkpt>
      <trkpt lat="43.88673" lon="3.22863">
        <ele>830</ele>
        <time>2020-08-24T10:14:05Z</time>
      </trkpt>
      <trkpt lat="43.88673" lon="3.22721">
        <ele>831</ele>
        <time>2020-08-24T10:14:25Z</time>
      </trkpt>
      <trkpt lat="43.88642" lon="3.22584">
        <ele>830.4</ele>
        <time>2020-08-24T10:15:00Z</time>
      </trkpt>
      <trkpt lat="43.88605" lon="3.22466">
        <ele>826.5</ele>
        <time>2020-08-24T10:15:20Z</time>
      </trkpt>
      <trkpt lat="43.88565" lon="3.22348">
        <ele>824.8</ele>
        <time>2020-08-24T10:15:35Z</time>
      </trkpt>
      <trkpt lat="43.88516" lon="3.22202">
        <ele>823.6</ele>
        <time>2020-08-24T10:15:55Z</time>
      </trkpt>
      <trkpt lat="43.88529" lon="3.2207">
        <ele>822.6</ele>
        <time>2020-08-24T10:16:20Z</time>
      </trkpt>
      <trkpt lat="43.88629" lon="3.2201">
        <ele>817.5</ele>
        <time>2020-08-24T10:16:45Z</time>
      </trkpt>
      <trkpt lat="43.88702" lon="3.21877">
        <ele>812</ele>
        <time>2020-08-24T10:17:00Z</time>
      </trkpt>
      <trkpt lat="43.88746" lon="3.21758">
        <ele>809.2</ele>
        <time>2020-08-24T10:17:10Z</time>
      </trkpt>
      <trkpt lat="43.88799" lon="3.2163">
        <ele>806.9</ele>
        <time>2020-08-24T10:17:20Z</time>
      </trkpt>
      <trkpt lat="43.88852" lon="3.21522">
        <ele>802.3</ele>
        <time>2020-08-24T10:17:30Z</time>
      </trkpt>
      <trkpt lat="43.88804" lon="3.21392">
        <ele>765.9</ele>
        <time>2020-08-24T10:18:05Z</time>
      </trkpt>
      <trkpt lat="43.88754" lon="3.21265">
        <ele>754.9</ele>
        <time>2020-08-24T10:18:30Z</time>
      </trkpt>
      <trkpt lat="43.88762" lon="3.21097">
        <ele>744.9</ele>
        <time>2020-08-24T10:18:50Z</time>
      </trkpt>
      <trkpt lat="43.88779" lon="3.20963">
        <ele>741.7</ele>
        <time>2020-08-24T10:19:10Z</time>
      </trkpt>
      <trkpt lat="43.88795" lon="3.20839">
        <ele>739.8</ele>
        <time>2020-08-24T10:20:08Z</time>
      </trkpt>
      <trkpt lat="43.88804" lon="3.20705">
        <ele>741.8</ele>
        <time>2020-08-24T10:21:33Z</time>
      </trkpt>
      <trkpt lat="43.88895" lon="3.20607">
        <ele>744.4</ele>
        <time>2020-08-24T10:21:58Z</time>
      </trkpt>
      <trkpt lat="43.88971" lon="3.20503">
        <ele>742.8</ele>
        <time>2020-08-24T10:22:13Z</time>
      </trkpt>
      <trkpt lat="43.89084" lon="3.20459">
        <ele>742.2</ele>
        <time>2020-08-24T10:22:33Z</time>
      </trkpt>
      <trkpt lat="43.89182" lon="3.20485">
        <ele>740</ele>
        <time>2020-08-24T10:22:48Z</time>
      </trkpt>
      <trkpt lat="43.89263" lon="3.20356">
        <ele>732</ele>
        <time>2020-08-24T10:23:03Z</time>
      </trkpt>
      <trkpt lat="43.89392" lon="3.20393">
        <ele>725</ele>
        <time>2020-08-24T10:23:18Z</time>
      </trkpt>
      <trkpt lat="43.89479" lon="3.20491">
        <ele>716.4</ele>
        <time>2020-08-24T10:23:28Z</time>
      </trkpt>
      <trkpt lat="43.89576" lon="3.20613">
        <ele>707.5</ele>
        <time>2020-08-24T10:23:38Z</time>
      </trkpt>
      <trkpt lat="43.89666" lon="3.20747">
        <ele>700.7</ele>
        <time>2020-08-24T10:23:48Z</time>
      </trkpt>
      <trkpt lat="43.89733" lon="3.20657">
        <ele>699.4</ele>
        <time>2020-08-24T10:24:18Z</time>
      </trkpt>
      <trkpt lat="43.89715" lon="3.20524">
        <ele>688.2</ele>
        <time>2020-08-24T10:24:48Z</time>
      </trkpt>
      <trkpt lat="43.89693" lon="3.20354">
        <ele>682.3</ele>
        <time>2020-08-24T10:25:03Z</time>
      </trkpt>
      <trkpt lat="43.89701" lon="3.20223">
        <ele>678.6</ele>
        <time>2020-08-24T10:25:13Z</time>
      </trkpt>
      <trkpt lat="43.89729" lon="3.20102">
        <ele>676.1</ele>
        <time>2020-08-24T10:25:28Z</time>
      </trkpt>
      <trkpt lat="43.89716" lon="3.19952">
        <ele>671.5</ele>
        <time>2020-08-24T10:25:48Z</time>
      </trkpt>
      <trkpt lat="43.89693" lon="3.19822">
        <ele>668.3</ele>
        <time>2020-08-24T10:26:03Z</time>
      </trkpt>
      <trkpt lat="43.89655" lon="3.19704">
        <ele>666.9</ele>
        <time>2020-08-24T10:26:28Z</time>
      </trkpt>
      <trkpt lat="43.89617" lon="3.19567">
        <ele>664.1</ele>
        <time>2020-08-24T10:26:58Z</time>
      </trkpt>
      <trkpt lat="43.89598" lon="3.19431">
        <ele>662.8</ele>
        <time>2020-08-24T10:27:38Z</time>
      </trkpt>
      <trkpt lat="43.8957" lon="3.19303">
        <ele>662.3</ele>
        <time>2020-08-24T10:28:13Z</time>
      </trkpt>
      <trkpt lat="43.89527" lon="3.19178">
        <ele>661.6</ele>
        <time>2020-08-24T10:28:48Z</time>
      </trkpt>
      <trkpt lat="43.89516" lon="3.19046">
        <ele>659.2</ele>
        <time>2020-08-24T10:29:13Z</time>
      </trkpt>
      <trkpt lat="43.89532" lon="3.18911">
        <ele>658.2</ele>
        <time>2020-08-24T10:29:28Z</time>
      </trkpt>
      <trkpt lat="43.89562" lon="3.18793">
        <ele>658.4</ele>
        <time>2020-08-24T10:29:58Z</time>
      </trkpt>
      <trkpt lat="43.89609" lon="3.18678">
        <ele>658.7</ele>
        <time>2020-08-24T10:30:38Z</time>
      </trkpt>
      <trkpt lat="43.89666" lon="3.18574">
        <ele>657.4</ele>
        <time>2020-08-24T10:30:58Z</time>
      </trkpt>
      <trkpt lat="43.89744" lon="3.18482">
        <ele>655.2</ele>
        <time>2020-08-24T10:31:13Z</time>
      </trkpt>
      <trkpt lat="43.89815" lon="3.18401">
        <ele>655.7</ele>
        <time>2020-08-24T10:31:33Z</time>
      </trkpt>
      <trkpt lat="43.89863" lon="3.18292">
        <ele>655.5</ele>
        <time>2020-08-24T10:32:08Z</time>
      </trkpt>
      <trkpt lat="43.89904" lon="3.18162">
        <ele>653.8</ele>
        <time>2020-08-24T10:32:33Z</time>
      </trkpt>
      <trkpt lat="43.89942" lon="3.18043">
        <ele>652.4</ele>
        <time>2020-08-24T10:32:53Z</time>
      </trkpt>
      <trkpt lat="43.90018" lon="3.1798">
        <ele>655.8</ele>
        <time>2020-08-24T10:34:02Z</time>
      </trkpt>
      <trkpt lat="43.90114" lon="3.17986">
        <ele>662.1</ele>
        <time>2020-08-24T10:35:15Z</time>
      </trkpt>
      <trkpt lat="43.90045" lon="3.17894">
        <ele>671.9</ele>
        <time>2020-08-24T10:36:45Z</time>
      </trkpt>
      <trkpt lat="43.89953" lon="3.17828">
        <ele>679</ele>
        <time>2020-08-24T10:38:05Z</time>
      </trkpt>
      <trkpt lat="43.89863" lon="3.17843">
        <ele>679</ele>
        <time>2020-08-24T10:38:20Z</time>
      </trkpt>
      <trkpt lat="43.89793" lon="3.17737">
        <ele>678.9</ele>
        <time>2020-08-24T10:38:35Z</time>
      </trkpt>
      <trkpt lat="43.89759" lon="3.17614">
        <ele>678.9</ele>
        <time>2020-08-24T10:38:50Z</time>
      </trkpt>
      <trkpt lat="43.89748" lon="3.17468">
        <ele>679.9</ele>
        <time>2020-08-24T10:39:10Z</time>
      </trkpt>
      <trkpt lat="43.89705" lon="3.17332">
        <ele>678.7</ele>
        <time>2020-08-24T10:39:30Z</time>
      </trkpt>
      <trkpt lat="43.89598" lon="3.17252">
        <ele>677.3</ele>
        <time>2020-08-24T10:39:50Z</time>
      </trkpt>
      <trkpt lat="43.89565" lon="3.17098">
        <ele>674</ele>
        <time>2020-08-24T10:40:05Z</time>
      </trkpt>
      <trkpt lat="43.89521" lon="3.16983">
        <ele>672.2</ele>
        <time>2020-08-24T10:40:15Z</time>
      </trkpt>
      <trkpt lat="43.89403" lon="3.16918">
        <ele>668.8</ele>
        <time>2020-08-24T10:40:30Z</time>
      </trkpt>
      <trkpt lat="43.89309" lon="3.16898">
        <ele>666.1</ele>
        <time>2020-08-24T10:40:40Z</time>
      </trkpt>
      <trkpt lat="43.89238" lon="3.16751">
        <ele>662.2</ele>
        <time>2020-08-24T10:40:55Z</time>
      </trkpt>
      <trkpt lat="43.89234" lon="3.16612">
        <ele>659.5</ele>
        <time>2020-08-24T10:41:05Z</time>
      </trkpt>
      <trkpt lat="43.89191" lon="3.16469">
        <ele>656.5</ele>
        <time>2020-08-24T10:41:15Z</time>
      </trkpt>
      <trkpt lat="43.89175" lon="3.16344">
        <ele>653.4</ele>
        <time>2020-08-24T10:41:25Z</time>
      </trkpt>
      <trkpt lat="43.89101" lon="3.16233">
        <ele>647.6</ele>
        <time>2020-08-24T10:41:40Z</time>
      </trkpt>
      <trkpt lat="43.89072" lon="3.16108">
        <ele>639.7</ele>
        <time>2020-08-24T10:41:55Z</time>
      </trkpt>
      <trkpt lat="43.89083" lon="3.15944">
        <ele>631.4</ele>
        <time>2020-08-24T10:42:10Z</time>
      </trkpt>
      <trkpt lat="43.89081" lon="3.15769">
        <ele>626.2</ele>
        <time>2020-08-24T10:42:25Z</time>
      </trkpt>
      <trkpt lat="43.89061" lon="3.15594">
        <ele>624</ele>
        <time>2020-08-24T10:42:40Z</time>
      </trkpt>
      <trkpt lat="43.89042" lon="3.15465">
        <ele>621.6</ele>
        <time>2020-08-24T10:42:50Z</time>
      </trkpt>
      <trkpt lat="43.89" lon="3.15323">
        <ele>616.5</ele>
        <time>2020-08-24T10:43:05Z</time>
      </trkpt>
      <trkpt lat="43.88935" lon="3.15218">
        <ele>614.1</ele>
        <time>2020-08-24T10:43:30Z</time>
      </trkpt>
      <trkpt lat="43.88852" lon="3.15116">
        <ele>605.7</ele>
        <time>2020-08-24T10:43:55Z</time>
      </trkpt>
      <trkpt lat="43.88777" lon="3.15027">
        <ele>602</ele>
        <time>2020-08-24T10:44:10Z</time>
      </trkpt>
      <trkpt lat="43.88673" lon="3.14957">
        <ele>595</ele>
        <time>2020-08-24T10:44:25Z</time>
      </trkpt>
      <trkpt lat="43.88583" lon="3.14922">
        <ele>588.6</ele>
        <time>2020-08-24T10:44:35Z</time>
      </trkpt>
      <trkpt lat="43.8846" lon="3.14879">
        <ele>582.4</ele>
        <time>2020-08-24T10:44:50Z</time>
      </trkpt>
      <trkpt lat="43.8836" lon="3.14817">
        <ele>573.5</ele>
        <time>2020-08-24T10:45:10Z</time>
      </trkpt>
      <trkpt lat="43.8829" lon="3.14722">
        <ele>568</ele>
        <time>2020-08-24T10:45:35Z</time>
      </trkpt>
      <trkpt lat="43.88321" lon="3.14586">
        <ele>564.7</ele>
        <time>2020-08-24T10:45:55Z</time>
      </trkpt>
      <trkpt lat="43.88319" lon="3.14443">
        <ele>562.2</ele>
        <time>2020-08-24T10:46:15Z</time>
      </trkpt>
      <trkpt lat="43.88248" lon="3.14322">
        <ele>559.6</ele>
        <time>2020-08-24T10:46:35Z</time>
      </trkpt>
      <trkpt lat="43.88218" lon="3.14191">
        <ele>557.2</ele>
        <time>2020-08-24T10:46:55Z</time>
      </trkpt>
      <trkpt lat="43.88239" lon="3.14033">
        <ele>556.8</ele>
        <time>2020-08-24T10:47:15Z</time>
      </trkpt>
      <trkpt lat="43.88275" lon="3.13897">
        <ele>555.1</ele>
        <time>2020-08-24T10:47:35Z</time>
      </trkpt>
      <trkpt lat="43.88302" lon="3.13758">
        <ele>552.8</ele>
        <time>2020-08-24T10:47:55Z</time>
      </trkpt>
      <trkpt lat="43.88268" lon="3.13611">
        <ele>550.9</ele>
        <time>2020-08-24T10:48:15Z</time>
      </trkpt>
      <trkpt lat="43.88208" lon="3.13513">
        <ele>548.8</ele>
        <time>2020-08-24T10:48:30Z</time>
      </trkpt>
      <trkpt lat="43.88117" lon="3.13415">
        <ele>546.4</ele>
        <time>2020-08-24T10:48:50Z</time>
      </trkpt>
      <trkpt lat="43.88024" lon="3.13388">
        <ele>543.3</ele>
        <time>2020-08-24T10:49:05Z</time>
      </trkpt>
      <trkpt lat="43.87928" lon="3.13383">
        <ele>541</ele>
        <time>2020-08-24T10:49:20Z</time>
      </trkpt>
      <trkpt lat="43.87837" lon="3.13347">
        <ele>537.2</ele>
        <time>2020-08-24T10:49:35Z</time>
      </trkpt>
      <trkpt lat="43.87735" lon="3.13261">
        <ele>530.2</ele>
        <time>2020-08-24T10:49:55Z</time>
      </trkpt>
      <trkpt lat="43.87675" lon="3.13149">
        <ele>536.9</ele>
        <time>2020-08-24T10:50:15Z</time>
      </trkpt>
      <trkpt lat="43.87617" lon="3.1305">
        <ele>542.7</ele>
        <time>2020-08-24T10:50:35Z</time>
      </trkpt>
      <trkpt lat="43.87576" lon="3.12934">
        <ele>545.2</ele>
        <time>2020-08-24T10:51:00Z</time>
      </trkpt>
      <trkpt lat="43.876" lon="3.12782">
        <ele>541.3</ele>
        <time>2020-08-24T10:51:25Z</time>
      </trkpt>
      <trkpt lat="43.87626" lon="3.12655">
        <ele>540.7</ele>
        <time>2020-08-24T10:51:45Z</time>
      </trkpt>
      <trkpt lat="43.8765" lon="3.12511">
        <ele>538.2</ele>
        <time>2020-08-24T10:52:10Z</time>
      </trkpt>
      <trkpt lat="43.87648" lon="3.12361">
        <ele>535.3</ele>
        <time>2020-08-24T10:52:35Z</time>
      </trkpt>
      <trkpt lat="43.87615" lon="3.12233">
        <ele>534.3</ele>
        <time>2020-08-24T10:53:00Z</time>
      </trkpt>
      <trkpt lat="43.87563" lon="3.12104">
        <ele>532.3</ele>
        <time>2020-08-24T10:53:48Z</time>
      </trkpt>
      <trkpt lat="43.8749" lon="3.12008">
        <ele>529.7</ele>
        <time>2020-08-24T10:54:13Z</time>
      </trkpt>
      <trkpt lat="43.87419" lon="3.119">
        <ele>528.3</ele>
        <time>2020-08-24T10:54:38Z</time>
      </trkpt>
      <trkpt lat="43.87347" lon="3.11785">
        <ele>527.8</ele>
        <time>2020-08-24T10:55:03Z</time>
      </trkpt>
      <trkpt lat="43.87267" lon="3.11673">
        <ele>526.7</ele>
        <time>2020-08-24T10:55:28Z</time>
      </trkpt>
      <trkpt lat="43.87232" lon="3.11554">
        <ele>525.9</ele>
        <time>2020-08-24T10:55:48Z</time>
      </trkpt>
      <trkpt lat="43.87259" lon="3.11425">
        <ele>525.4</ele>
        <time>2020-08-24T10:56:13Z</time>
      </trkpt>
      <trkpt lat="43.87294" lon="3.11307">
        <ele>525.6</ele>
        <time>2020-08-24T10:56:38Z</time>
      </trkpt>
      <trkpt lat="43.87233" lon="3.11212">
        <ele>526</ele>
        <time>2020-08-24T10:57:03Z</time>
      </trkpt>
      <trkpt lat="43.87181" lon="3.11106">
        <ele>526.2</ele>
        <time>2020-08-24T10:57:28Z</time>
      </trkpt>
      <trkpt lat="43.87142" lon="3.10979">
        <ele>526</ele>
        <time>2020-08-24T10:57:53Z</time>
      </trkpt>
      <trkpt lat="43.87094" lon="3.1086">
        <ele>526.3</ele>
        <time>2020-08-24T10:58:13Z</time>
      </trkpt>
      <trkpt lat="43.87052" lon="3.10714">
        <ele>526.3</ele>
        <time>2020-08-24T10:58:33Z</time>
      </trkpt>
      <trkpt lat="43.86996" lon="3.10576">
        <ele>526</ele>
        <time>2020-08-24T10:58:52Z</time>
      </trkpt>
      <trkpt lat="43.87006" lon="3.10419">
        <ele>525.4</ele>
        <time>2020-08-24T10:59:12Z</time>
      </trkpt>
      <trkpt lat="43.86966" lon="3.10304">
        <ele>525</ele>
        <time>2020-08-24T10:59:27Z</time>
      </trkpt>
      <trkpt lat="43.86907" lon="3.10157">
        <ele>524.2</ele>
        <time>2020-08-24T10:59:47Z</time>
      </trkpt>
      <trkpt lat="43.86904" lon="3.10007">
        <ele>522.7</ele>
        <time>2020-08-24T11:00:07Z</time>
      </trkpt>
      <trkpt lat="43.86897" lon="3.0987">
        <ele>521.1</ele>
        <time>2020-08-24T11:00:27Z</time>
      </trkpt>
      <trkpt lat="43.86922" lon="3.09716">
        <ele>519.3</ele>
        <time>2020-08-24T11:00:52Z</time>
      </trkpt>
      <trkpt lat="43.86928" lon="3.09581">
        <ele>519.4</ele>
        <time>2020-08-24T11:01:12Z</time>
      </trkpt>
      <trkpt lat="43.86943" lon="3.09455">
        <ele>519.4</ele>
        <time>2020-08-24T11:01:32Z</time>
      </trkpt>
      <trkpt lat="43.8696" lon="3.0933">
        <ele>519.5</ele>
        <time>2020-08-24T11:01:52Z</time>
      </trkpt>
      <trkpt lat="43.86972" lon="3.0918">
        <ele>516.8</ele>
        <time>2020-08-24T11:02:17Z</time>
      </trkpt>
      <trkpt lat="43.86959" lon="3.09029">
        <ele>515.8</ele>
        <time>2020-08-24T11:02:42Z</time>
      </trkpt>
      <trkpt lat="43.86927" lon="3.08879">
        <ele>515.9</ele>
        <time>2020-08-24T11:03:02Z</time>
      </trkpt>
      <trkpt lat="43.86891" lon="3.0876">
        <ele>516</ele>
        <time>2020-08-24T11:03:17Z</time>
      </trkpt>
      <trkpt lat="43.86858" lon="3.08613">
        <ele>513.5</ele>
        <time>2020-08-24T11:03:37Z</time>
      </trkpt>
      <trkpt lat="43.86838" lon="3.08466">
        <ele>511.3</ele>
        <time>2020-08-24T11:03:57Z</time>
      </trkpt>
      <trkpt lat="43.86803" lon="3.08332">
        <ele>511.6</ele>
        <time>2020-08-24T11:04:17Z</time>
      </trkpt>
      <trkpt lat="43.86789" lon="3.08186">
        <ele>510.9</ele>
        <time>2020-08-24T11:04:42Z</time>
      </trkpt>
      <trkpt lat="43.86765" lon="3.08046">
        <ele>512.7</ele>
        <time>2020-08-24T11:05:07Z</time>
      </trkpt>
      <trkpt lat="43.8673" lon="3.07913">
        <ele>511.2</ele>
        <time>2020-08-24T11:05:32Z</time>
      </trkpt>
      <trkpt lat="43.86688" lon="3.07793">
        <ele>509.1</ele>
        <time>2020-08-24T11:05:57Z</time>
      </trkpt>
      <trkpt lat="43.86622" lon="3.07682">
        <ele>511.6</ele>
        <time>2020-08-24T11:08:03Z</time>
      </trkpt>
      <trkpt lat="43.86589" lon="3.07557">
        <ele>511.7</ele>
        <time>2020-08-24T11:08:33Z</time>
      </trkpt>
      <trkpt lat="43.86619" lon="3.07434">
        <ele>510.7</ele>
        <time>2020-08-24T11:08:53Z</time>
      </trkpt>
      <trkpt lat="43.86665" lon="3.07298">
        <ele>510</ele>
        <time>2020-08-24T11:09:13Z</time>
      </trkpt>
      <trkpt lat="43.86695" lon="3.07153">
        <ele>509</ele>
        <time>2020-08-24T11:09:33Z</time>
      </trkpt>
      <trkpt lat="43.86705" lon="3.07014">
        <ele>507.6</ele>
        <time>2020-08-24T11:09:53Z</time>
      </trkpt>
      <trkpt lat="43.86705" lon="3.06877">
        <ele>506.1</ele>
        <time>2020-08-24T11:10:13Z</time>
      </trkpt>
      <trkpt lat="43.86658" lon="3.06757">
        <ele>505.1</ele>
        <time>2020-08-24T11:10:33Z</time>
      </trkpt>
      <trkpt lat="43.86631" lon="3.06623">
        <ele>504.2</ele>
        <time>2020-08-24T11:10:53Z</time>
      </trkpt>
      <trkpt lat="43.86623" lon="3.06486">
        <ele>503.4</ele>
        <time>2020-08-24T11:11:13Z</time>
      </trkpt>
      <trkpt lat="43.8661" lon="3.06336">
        <ele>502.9</ele>
        <time>2020-08-24T11:11:33Z</time>
      </trkpt>
      <trkpt lat="43.86645" lon="3.06209">
        <ele>502.1</ele>
        <time>2020-08-24T11:11:53Z</time>
      </trkpt>
      <trkpt lat="43.86698" lon="3.06097">
        <ele>501.9</ele>
        <time>2020-08-24T11:12:18Z</time>
      </trkpt>
      <trkpt lat="43.86755" lon="3.05982">
        <ele>501.4</ele>
        <time>2020-08-24T11:12:48Z</time>
      </trkpt>
      <trkpt lat="43.86803" lon="3.05861">
        <ele>499.9</ele>
        <time>2020-08-24T11:13:13Z</time>
      </trkpt>
      <trkpt lat="43.86837" lon="3.05733">
        <ele>498.9</ele>
        <time>2020-08-24T11:13:33Z</time>
      </trkpt>
      <trkpt lat="43.86825" lon="3.05585">
        <ele>497.2</ele>
        <time>2020-08-24T11:13:58Z</time>
      </trkpt>
      <trkpt lat="43.86863" lon="3.0546">
        <ele>496.3</ele>
        <time>2020-08-24T11:14:18Z</time>
      </trkpt>
      <trkpt lat="43.86877" lon="3.05312">
        <ele>495.6</ele>
        <time>2020-08-24T11:14:38Z</time>
      </trkpt>
      <trkpt lat="43.86877" lon="3.05169">
        <ele>494.8</ele>
        <time>2020-08-24T11:14:58Z</time>
      </trkpt>
      <trkpt lat="43.86906" lon="3.05026">
        <ele>494.2</ele>
        <time>2020-08-24T11:15:23Z</time>
      </trkpt>
      <trkpt lat="43.86902" lon="3.04882">
        <ele>493.8</ele>
        <time>2020-08-24T11:15:48Z</time>
      </trkpt>
      <trkpt lat="43.86941" lon="3.04758">
        <ele>493.6</ele>
        <time>2020-08-24T11:16:18Z</time>
      </trkpt>
      <trkpt lat="43.86997" lon="3.04637">
        <ele>493.2</ele>
        <time>2020-08-24T11:16:48Z</time>
      </trkpt>
      <trkpt lat="43.87068" lon="3.04538">
        <ele>492.9</ele>
        <time>2020-08-24T11:17:18Z</time>
      </trkpt>
      <trkpt lat="43.87145" lon="3.04439">
        <ele>492</ele>
        <time>2020-08-24T11:17:43Z</time>
      </trkpt>
      <trkpt lat="43.87177" lon="3.04284">
        <ele>491.4</ele>
        <time>2020-08-24T11:18:03Z</time>
      </trkpt>
      <trkpt lat="43.87157" lon="3.04122">
        <ele>490.6</ele>
        <time>2020-08-24T11:18:23Z</time>
      </trkpt>
      <trkpt lat="43.87102" lon="3.03972">
        <ele>490.2</ele>
        <time>2020-08-24T11:18:43Z</time>
      </trkpt>
      <trkpt lat="43.87042" lon="3.0387">
        <ele>488.8</ele>
        <time>2020-08-24T11:18:58Z</time>
      </trkpt>
      <trkpt lat="43.86967" lon="3.03763">
        <ele>485.1</ele>
        <time>2020-08-24T11:19:18Z</time>
      </trkpt>
      <trkpt lat="43.86896" lon="3.03646">
        <ele>483.6</ele>
        <time>2020-08-24T11:19:43Z</time>
      </trkpt>
      <trkpt lat="43.8696" lon="3.03555">
        <ele>482.1</ele>
        <time>2020-08-24T11:20:08Z</time>
      </trkpt>
      <trkpt lat="43.87049" lon="3.03499">
        <ele>481.6</ele>
        <time>2020-08-24T11:20:33Z</time>
      </trkpt>
      <trkpt lat="43.87124" lon="3.03417">
        <ele>481</ele>
        <time>2020-08-24T11:20:58Z</time>
      </trkpt>
      <trkpt lat="43.87177" lon="3.03316">
        <ele>480.9</ele>
        <time>2020-08-24T11:21:23Z</time>
      </trkpt>
      <trkpt lat="43.87212" lon="3.03196">
        <ele>482</ele>
        <time>2020-08-24T11:21:48Z</time>
      </trkpt>
      <trkpt lat="43.87292" lon="3.03088">
        <ele>482.9</ele>
        <time>2020-08-24T11:22:13Z</time>
      </trkpt>
      <trkpt lat="43.87279" lon="3.02947">
        <ele>481</ele>
        <time>2020-08-24T11:22:33Z</time>
      </trkpt>
      <trkpt lat="43.87267" lon="3.02796">
        <ele>479.9</ele>
        <time>2020-08-24T11:22:58Z</time>
      </trkpt>
      <trkpt lat="43.8731" lon="3.02687">
        <ele>481.4</ele>
        <time>2020-08-24T11:23:18Z</time>
      </trkpt>
      <trkpt lat="43.8737" lon="3.02572">
        <ele>482.3</ele>
        <time>2020-08-24T11:23:37Z</time>
      </trkpt>
      <trkpt lat="43.87429" lon="3.02454">
        <ele>480.7</ele>
        <time>2020-08-24T11:23:57Z</time>
      </trkpt>
      <trkpt lat="43.87501" lon="3.02344">
        <ele>477.9</ele>
        <time>2020-08-24T11:24:17Z</time>
      </trkpt>
      <trkpt lat="43.87555" lon="3.02244">
        <ele>475.3</ele>
        <time>2020-08-24T11:24:32Z</time>
      </trkpt>
      <trkpt lat="43.87628" lon="3.0214">
        <ele>475</ele>
        <time>2020-08-24T11:24:52Z</time>
      </trkpt>
      <trkpt lat="43.87714" lon="3.02053">
        <ele>475.2</ele>
        <time>2020-08-24T11:25:12Z</time>
      </trkpt>
      <trkpt lat="43.87811" lon="3.02016">
        <ele>475.1</ele>
        <time>2020-08-24T11:25:32Z</time>
      </trkpt>
      <trkpt lat="43.87902" lon="3.01983">
        <ele>475.1</ele>
        <time>2020-08-24T11:25:52Z</time>
      </trkpt>
      <trkpt lat="43.87977" lon="3.019">
        <ele>474.5</ele>
        <time>2020-08-24T11:26:12Z</time>
      </trkpt>
      <trkpt lat="43.88032" lon="3.01789">
        <ele>474.2</ele>
        <time>2020-08-24T11:26:32Z</time>
      </trkpt>
      <trkpt lat="43.88075" lon="3.01658">
        <ele>473.8</ele>
        <time>2020-08-24T11:26:57Z</time>
      </trkpt>
      <trkpt lat="43.88087" lon="3.01514">
        <ele>473.3</ele>
        <time>2020-08-24T11:27:22Z</time>
      </trkpt>
      <trkpt lat="43.88068" lon="3.0138">
        <ele>473.1</ele>
        <time>2020-08-24T11:27:47Z</time>
      </trkpt>
      <trkpt lat="43.88045" lon="3.01258">
        <ele>473</ele>
        <time>2020-08-24T11:28:12Z</time>
      </trkpt>
      <trkpt lat="43.88011" lon="3.01125">
        <ele>473</ele>
        <time>2020-08-24T11:28:42Z</time>
      </trkpt>
      <trkpt lat="43.8798" lon="3.01005">
        <ele>472.9</ele>
        <time>2020-08-24T11:29:12Z</time>
      </trkpt>
      <trkpt lat="43.87958" lon="3.00862">
        <ele>472.6</ele>
        <time>2020-08-24T11:29:47Z</time>
      </trkpt>
      <trkpt lat="43.87942" lon="3.00731">
        <ele>473</ele>
        <time>2020-08-24T11:33:09Z</time>
      </trkpt>
      <trkpt lat="43.87914" lon="3.00603">
        <ele>472.9</ele>
        <time>2020-08-24T11:33:39Z</time>
      </trkpt>
      <trkpt lat="43.87905" lon="3.00474">
        <ele>472.5</ele>
        <time>2020-08-24T11:34:04Z</time>
      </trkpt>
      <trkpt lat="43.8793" lon="3.00337">
        <ele>472.4</ele>
        <time>2020-08-24T11:34:29Z</time>
      </trkpt>
      <trkpt lat="43.87987" lon="3.00235">
        <ele>472.2</ele>
        <time>2020-08-24T11:34:49Z</time>
      </trkpt>
      <trkpt lat="43.87998" lon="3.00085">
        <ele>471.3</ele>
        <time>2020-08-24T11:35:14Z</time>
      </trkpt>
      <trkpt lat="43.88031" lon="2.99938">
        <ele>471</ele>
        <time>2020-08-24T11:35:39Z</time>
      </trkpt>
      <trkpt lat="43.88026" lon="2.99794">
        <ele>469.9</ele>
        <time>2020-08-24T11:36:00Z</time>
      </trkpt>
      <trkpt lat="43.88005" lon="2.9966">
        <ele>468.8</ele>
        <time>2020-08-24T11:36:20Z</time>
      </trkpt>
      <trkpt lat="43.88007" lon="2.99507">
        <ele>467.6</ele>
        <time>2020-08-24T11:36:45Z</time>
      </trkpt>
      <trkpt lat="43.88016" lon="2.99376">
        <ele>466.7</ele>
        <time>2020-08-24T11:37:10Z</time>
      </trkpt>
      <trkpt lat="43.88033" lon="2.99239">
        <ele>465.6</ele>
        <time>2020-08-24T11:37:35Z</time>
      </trkpt>
      <trkpt lat="43.88087" lon="2.99118">
        <ele>465.5</ele>
        <time>2020-08-24T11:38:05Z</time>
      </trkpt>
      <trkpt lat="43.88128" lon="2.98994">
        <ele>465.6</ele>
        <time>2020-08-24T11:38:40Z</time>
      </trkpt>
      <trkpt lat="43.8802" lon="2.98995">
        <ele>465.1</ele>
        <time>2020-08-24T11:39:19Z</time>
      </trkpt>
      <trkpt lat="43.87917" lon="2.9898">
        <ele>463.7</ele>
        <time>2020-08-24T11:39:34Z</time>
      </trkpt>
      <trkpt lat="43.8786" lon="2.99077">
        <ele>462.3</ele>
        <time>2020-08-24T11:39:54Z</time>
      </trkpt>
      <trkpt lat="43.87789" lon="2.99183">
        <ele>461.5</ele>
        <time>2020-08-24T11:40:19Z</time>
      </trkpt>
      <trkpt lat="43.87722" lon="2.99266">
        <ele>462.4</ele>
        <time>2020-08-24T11:40:54Z</time>
      </trkpt>
      <trkpt lat="43.87667" lon="2.99365">
        <ele>462.9</ele>
        <time>2020-08-24T11:41:29Z</time>
      </trkpt>
      <trkpt lat="43.87631" lon="2.99482">
        <ele>462.8</ele>
        <time>2020-08-24T11:42:11Z</time>
      </trkpt>
      <trkpt lat="43.87604" lon="2.99604">
        <ele>464.6</ele>
        <time>2020-08-24T11:43:07Z</time>
      </trkpt>
      <trkpt lat="43.8751" lon="2.99611">
        <ele>469.1</ele>
        <time>2020-08-24T11:44:09Z</time>
      </trkpt>
      <trkpt lat="43.87416" lon="2.99577">
        <ele>471.9</ele>
        <time>2020-08-24T11:45:08Z</time>
      </trkpt>
      <trkpt lat="43.87326" lon="2.9957">
        <ele>474.2</ele>
        <time>2020-08-24T11:46:03Z</time>
      </trkpt>
      <trkpt lat="43.8725" lon="2.99488">
        <ele>477</ele>
        <time>2020-08-24T11:47:02Z</time>
      </trkpt>
      <trkpt lat="43.87158" lon="2.99438">
        <ele>480.1</ele>
        <time>2020-08-24T11:47:59Z</time>
      </trkpt>
      <trkpt lat="43.87063" lon="2.99398">
        <ele>483.7</ele>
        <time>2020-08-24T11:48:58Z</time>
      </trkpt>
      <trkpt lat="43.86997" lon="2.99299">
        <ele>487.1</ele>
        <time>2020-08-24T11:49:59Z</time>
      </trkpt>
      <trkpt lat="43.86978" lon="2.9917">
        <ele>490.4</ele>
        <time>2020-08-24T11:51:01Z</time>
      </trkpt>
      <trkpt lat="43.86985" lon="2.99043">
        <ele>495.5</ele>
        <time>2020-08-24T11:52:29Z</time>
      </trkpt>
      <trkpt lat="43.87041" lon="2.98946">
        <ele>498.6</ele>
        <time>2020-08-24T11:53:23Z</time>
      </trkpt>
      <trkpt lat="43.87104" lon="2.99049">
        <ele>515.1</ele>
        <time>2020-08-24T11:55:11Z</time>
      </trkpt>
      <trkpt lat="43.87124" lon="2.98918">
        <ele>538.8</ele>
        <time>2020-08-24T12:00:44Z</time>
      </trkpt>
      <trkpt lat="43.87102" lon="2.98784">
        <ele>543.8</ele>
        <time>2020-08-24T12:01:43Z</time>
      </trkpt>
      <trkpt lat="43.87048" lon="2.98677">
        <ele>546.5</ele>
        <time>2020-08-24T12:02:44Z</time>
      </trkpt>
      <trkpt lat="43.87029" lon="2.98551">
        <ele>548.2</ele>
        <time>2020-08-24T12:03:42Z</time>
      </trkpt>
      <trkpt lat="43.87064" lon="2.9843">
        <ele>550.6</ele>
        <time>2020-08-24T12:04:52Z</time>
      </trkpt>
      <trkpt lat="43.86966" lon="2.98405">
        <ele>556.9</ele>
        <time>2020-08-24T12:05:53Z</time>
      </trkpt>
      <trkpt lat="43.86869" lon="2.98401">
        <ele>562.5</ele>
        <time>2020-08-24T12:06:53Z</time>
      </trkpt>
      <trkpt lat="43.86809" lon="2.98301">
        <ele>568.8</ele>
        <time>2020-08-24T12:08:01Z</time>
      </trkpt>
      <trkpt lat="43.86731" lon="2.9822">
        <ele>576.3</ele>
        <time>2020-08-24T12:09:11Z</time>
      </trkpt>
      <trkpt lat="43.86653" lon="2.98146">
        <ele>583</ele>
        <time>2020-08-24T12:10:08Z</time>
      </trkpt>
      <trkpt lat="43.86561" lon="2.98106">
        <ele>589.6</ele>
        <time>2020-08-24T12:11:12Z</time>
      </trkpt>
      <trkpt lat="43.86503" lon="2.98003">
        <ele>597</ele>
        <time>2020-08-24T12:12:16Z</time>
      </trkpt>
      <trkpt lat="43.8643" lon="2.9792">
        <ele>604.2</ele>
        <time>2020-08-24T12:13:21Z</time>
      </trkpt>
      <trkpt lat="43.86347" lon="2.97841">
        <ele>609.1</ele>
        <time>2020-08-24T12:14:13Z</time>
      </trkpt>
      <trkpt lat="43.86281" lon="2.97743">
        <ele>614.6</ele>
        <time>2020-08-24T12:15:12Z</time>
      </trkpt>
      <trkpt lat="43.86236" lon="2.9762">
        <ele>619.8</ele>
        <time>2020-08-24T12:15:42Z</time>
      </trkpt>
      <trkpt lat="43.86245" lon="2.97466">
        <ele>621.1</ele>
        <time>2020-08-24T12:16:07Z</time>
      </trkpt>
      <trkpt lat="43.86235" lon="2.97317">
        <ele>621.9</ele>
        <time>2020-08-24T12:16:27Z</time>
      </trkpt>
      <trkpt lat="43.86124" lon="2.97311">
        <ele>622.5</ele>
        <time>2020-08-24T12:16:47Z</time>
      </trkpt>
      <trkpt lat="43.86055" lon="2.97196">
        <ele>623</ele>
        <time>2020-08-24T12:17:07Z</time>
      </trkpt>
      <trkpt lat="43.86064" lon="2.97053">
        <ele>623.5</ele>
        <time>2020-08-24T12:17:27Z</time>
      </trkpt>
      <trkpt lat="43.85976" lon="2.97002">
        <ele>623.3</ele>
        <time>2020-08-24T12:17:47Z</time>
      </trkpt>
      <trkpt lat="43.85973" lon="2.96868">
        <ele>623.8</ele>
        <time>2020-08-24T12:18:12Z</time>
      </trkpt>
      <trkpt lat="43.85865" lon="2.96886">
        <ele>624.1</ele>
        <time>2020-08-24T12:18:37Z</time>
      </trkpt>
      <trkpt lat="43.85783" lon="2.9681">
        <ele>624.8</ele>
        <time>2020-08-24T12:19:07Z</time>
      </trkpt>
      <trkpt lat="43.85753" lon="2.96672">
        <ele>624.7</ele>
        <time>2020-08-24T12:19:32Z</time>
      </trkpt>
      <trkpt lat="43.85683" lon="2.96577">
        <ele>624.4</ele>
        <time>2020-08-24T12:19:52Z</time>
      </trkpt>
      <trkpt lat="43.85586" lon="2.96645">
        <ele>624</ele>
        <time>2020-08-24T12:20:12Z</time>
      </trkpt>
      <trkpt lat="43.85492" lon="2.96732">
        <ele>622.8</ele>
        <time>2020-08-24T12:20:27Z</time>
      </trkpt>
      <trkpt lat="43.85426" lon="2.96876">
        <ele>622.9</ele>
        <time>2020-08-24T12:20:42Z</time>
      </trkpt>
      <trkpt lat="43.85341" lon="2.96946">
        <ele>621.9</ele>
        <time>2020-08-24T12:20:57Z</time>
      </trkpt>
      <trkpt lat="43.85289" lon="2.96832">
        <ele>619.3</ele>
        <time>2020-08-24T12:21:12Z</time>
      </trkpt>
      <trkpt lat="43.85251" lon="2.9669">
        <ele>617.6</ele>
        <time>2020-08-24T12:21:27Z</time>
      </trkpt>
      <trkpt lat="43.85127" lon="2.96681">
        <ele>614.8</ele>
        <time>2020-08-24T12:21:42Z</time>
      </trkpt>
      <trkpt lat="43.85037" lon="2.96791">
        <ele>608.7</ele>
        <time>2020-08-24T12:21:57Z</time>
      </trkpt>
      <trkpt lat="43.84933" lon="2.96864">
        <ele>603.2</ele>
        <time>2020-08-24T12:22:12Z</time>
      </trkpt>
      <trkpt lat="43.84799" lon="2.96867">
        <ele>597.9</ele>
        <time>2020-08-24T12:22:27Z</time>
      </trkpt>
      <trkpt lat="43.84709" lon="2.96858">
        <ele>591.2</ele>
        <time>2020-08-24T12:22:37Z</time>
      </trkpt>
      <trkpt lat="43.84582" lon="2.96818">
        <ele>587.8</ele>
        <time>2020-08-24T12:22:52Z</time>
      </trkpt>
      <trkpt lat="43.84462" lon="2.96886">
        <ele>574.5</ele>
        <time>2020-08-24T12:23:07Z</time>
      </trkpt>
      <trkpt lat="43.84388" lon="2.96962">
        <ele>566.1</ele>
        <time>2020-08-24T12:23:17Z</time>
      </trkpt>
      <trkpt lat="43.84296" lon="2.96931">
        <ele>560.8</ele>
        <time>2020-08-24T12:23:27Z</time>
      </trkpt>
      <trkpt lat="43.84201" lon="2.96874">
        <ele>556.1</ele>
        <time>2020-08-24T12:23:37Z</time>
      </trkpt>
      <trkpt lat="43.84091" lon="2.9688">
        <ele>543.6</ele>
        <time>2020-08-24T12:23:52Z</time>
      </trkpt>
      <trkpt lat="43.83996" lon="2.96849">
        <ele>539.5</ele>
        <time>2020-08-24T12:24:17Z</time>
      </trkpt>
      <trkpt lat="43.83912" lon="2.96893">
        <ele>536.9</ele>
        <time>2020-08-24T12:25:12Z</time>
      </trkpt>
      <trkpt lat="43.83818" lon="2.96916">
        <ele>535.3</ele>
        <time>2020-08-24T12:25:59Z</time>
      </trkpt>
      <trkpt lat="43.83737" lon="2.96836">
        <ele>531.2</ele>
        <time>2020-08-24T12:56:18Z</time>
      </trkpt>
      <trkpt lat="43.83661" lon="2.9675">
        <ele>530.3</ele>
        <time>2020-08-24T12:56:33Z</time>
      </trkpt>
      <trkpt lat="43.83596" lon="2.96636">
        <ele>529</ele>
        <time>2020-08-24T12:56:53Z</time>
      </trkpt>
      <trkpt lat="43.8352" lon="2.96532">
        <ele>525.3</ele>
        <time>2020-08-24T12:57:13Z</time>
      </trkpt>
      <trkpt lat="43.83466" lon="2.96417">
        <ele>521.3</ele>
        <time>2020-08-24T12:57:33Z</time>
      </trkpt>
      <trkpt lat="43.83487" lon="2.96289">
        <ele>520.5</ele>
        <time>2020-08-24T12:57:58Z</time>
      </trkpt>
      <trkpt lat="43.83478" lon="2.96157">
        <ele>521.9</ele>
        <time>2020-08-24T12:58:48Z</time>
      </trkpt>
      <trkpt lat="43.83426" lon="2.96009">
        <ele>522.2</ele>
        <time>2020-08-24T12:59:13Z</time>
      </trkpt>
      <trkpt lat="43.8338" lon="2.95893">
        <ele>521.2</ele>
        <time>2020-08-24T12:59:33Z</time>
      </trkpt>
    </trkseg>
  </trk>
  <trk>
    <name><![CDATA[route112]]></name>
    <trkseg>
      <trkpt lat="43.83805" lon="2.96934">
        <ele>526.2</ele>
        <time>2020-08-25T05:06:00Z</time>
      </trkpt>
      <trkpt lat="43.83735" lon="2.96837">
        <ele>532.5</ele>
        <time>2020-08-25T05:08:38Z</time>
      </trkpt>
      <trkpt lat="43.83644" lon="2.9672">
        <ele>527.4</ele>
        <time>2020-08-25T05:08:53Z</time>
      </trkpt>
      <trkpt lat="43.83571" lon="2.9661">
        <ele>528.2</ele>
        <time>2020-08-25T05:09:08Z</time>
      </trkpt>
      <trkpt lat="43.83503" lon="2.96508">
        <ele>530.4</ele>
        <time>2020-08-25T05:09:23Z</time>
      </trkpt>
      <trkpt lat="43.83481" lon="2.96363">
        <ele>523.1</ele>
        <time>2020-08-25T05:09:43Z</time>
      </trkpt>
      <trkpt lat="43.83492" lon="2.96229">
        <ele>521.4</ele>
        <time>2020-08-25T05:10:19Z</time>
      </trkpt>
      <trkpt lat="43.83458" lon="2.96095">
        <ele>520.2</ele>
        <time>2020-08-25T05:10:54Z</time>
      </trkpt>
      <trkpt lat="43.83415" lon="2.95971">
        <ele>518.7</ele>
        <time>2020-08-25T05:11:09Z</time>
      </trkpt>
      <trkpt lat="43.83354" lon="2.9583">
        <ele>515.3</ele>
        <time>2020-08-25T05:11:24Z</time>
      </trkpt>
      <trkpt lat="43.83297" lon="2.95705">
        <ele>512.8</ele>
        <time>2020-08-25T05:11:44Z</time>
      </trkpt>
      <trkpt lat="43.83218" lon="2.95612">
        <ele>513</ele>
        <time>2020-08-25T05:12:04Z</time>
      </trkpt>
      <trkpt lat="43.83124" lon="2.95593">
        <ele>508.7</ele>
        <time>2020-08-25T05:12:24Z</time>
      </trkpt>
      <trkpt lat="43.83027" lon="2.95536">
        <ele>507</ele>
        <time>2020-08-25T05:12:49Z</time>
      </trkpt>
      <trkpt lat="43.82931" lon="2.95495">
        <ele>506.9</ele>
        <time>2020-08-25T05:13:14Z</time>
      </trkpt>
      <trkpt lat="43.82835" lon="2.95452">
        <ele>505.4</ele>
        <time>2020-08-25T05:13:39Z</time>
      </trkpt>
      <trkpt lat="43.82736" lon="2.95411">
        <ele>504.5</ele>
        <time>2020-08-25T05:14:04Z</time>
      </trkpt>
      <trkpt lat="43.82647" lon="2.95374">
        <ele>503.1</ele>
        <time>2020-08-25T05:14:19Z</time>
      </trkpt>
      <trkpt lat="43.82587" lon="2.95274">
        <ele>499.8</ele>
        <time>2020-08-25T05:14:34Z</time>
      </trkpt>
      <trkpt lat="43.82646" lon="2.95174">
        <ele>499.1</ele>
        <time>2020-08-25T05:15:09Z</time>
      </trkpt>
      <trkpt lat="43.82711" lon="2.95074">
        <ele>498.4</ele>
        <time>2020-08-25T05:16:06Z</time>
      </trkpt>
      <trkpt lat="43.82777" lon="2.94984">
        <ele>494.6</ele>
        <time>2020-08-25T05:16:54Z</time>
      </trkpt>
      <trkpt lat="43.82817" lon="2.94867">
        <ele>496.1</ele>
        <time>2020-08-25T05:17:47Z</time>
      </trkpt>
      <trkpt lat="43.82849" lon="2.94739">
        <ele>498.3</ele>
        <time>2020-08-25T05:18:38Z</time>
      </trkpt>
      <trkpt lat="43.82912" lon="2.94651">
        <ele>498.5</ele>
        <time>2020-08-25T05:19:25Z</time>
      </trkpt>
      <trkpt lat="43.82938" lon="2.94528">
        <ele>499.7</ele>
        <time>2020-08-25T05:20:15Z</time>
      </trkpt>
      <trkpt lat="43.83006" lon="2.9443">
        <ele>500.8</ele>
        <time>2020-08-25T05:20:55Z</time>
      </trkpt>
      <trkpt lat="43.83067" lon="2.94326">
        <ele>501.1</ele>
        <time>2020-08-25T05:21:25Z</time>
      </trkpt>
      <trkpt lat="43.83149" lon="2.94235">
        <ele>501.2</ele>
        <time>2020-08-25T05:21:55Z</time>
      </trkpt>
      <trkpt lat="43.83246" lon="2.94225">
        <ele>501.6</ele>
        <time>2020-08-25T05:22:25Z</time>
      </trkpt>
      <trkpt lat="43.83342" lon="2.94228">
        <ele>502.4</ele>
        <time>2020-08-25T05:23:05Z</time>
      </trkpt>
      <trkpt lat="43.83433" lon="2.94235">
        <ele>504.1</ele>
        <time>2020-08-25T05:23:52Z</time>
      </trkpt>
      <trkpt lat="43.83528" lon="2.94194">
        <ele>505.9</ele>
        <time>2020-08-25T05:24:37Z</time>
      </trkpt>
      <trkpt lat="43.83619" lon="2.94166">
        <ele>507.8</ele>
        <time>2020-08-25T05:25:22Z</time>
      </trkpt>
      <trkpt lat="43.8371" lon="2.94174">
        <ele>509.6</ele>
        <time>2020-08-25T05:26:07Z</time>
      </trkpt>
      <trkpt lat="43.83791" lon="2.94233">
        <ele>511.2</ele>
        <time>2020-08-25T05:26:52Z</time>
      </trkpt>
      <trkpt lat="43.83879" lon="2.94284">
        <ele>513</ele>
        <time>2020-08-25T05:27:42Z</time>
      </trkpt>
      <trkpt lat="43.83966" lon="2.94252">
        <ele>514.3</ele>
        <time>2020-08-25T05:28:17Z</time>
      </trkpt>
      <trkpt lat="43.83983" lon="2.94118">
        <ele>516.5</ele>
        <time>2020-08-25T05:28:37Z</time>
      </trkpt>
      <trkpt lat="43.83995" lon="2.93946">
        <ele>517.1</ele>
        <time>2020-08-25T05:28:57Z</time>
      </trkpt>
      <trkpt lat="43.84023" lon="2.9382">
        <ele>519.2</ele>
        <time>2020-08-25T05:29:12Z</time>
      </trkpt>
      <trkpt lat="43.83913" lon="2.93808">
        <ele>520.4</ele>
        <time>2020-08-25T05:29:27Z</time>
      </trkpt>
      <trkpt lat="43.83898" lon="2.93639">
        <ele>523.1</ele>
        <time>2020-08-25T05:29:42Z</time>
      </trkpt>
      <trkpt lat="43.83833" lon="2.93485">
        <ele>524.2</ele>
        <time>2020-08-25T05:29:57Z</time>
      </trkpt>
      <trkpt lat="43.8384" lon="2.93321">
        <ele>523.4</ele>
        <time>2020-08-25T05:30:12Z</time>
      </trkpt>
      <trkpt lat="43.83821" lon="2.93161">
        <ele>519.9</ele>
        <time>2020-08-25T05:30:32Z</time>
      </trkpt>
      <trkpt lat="43.83808" lon="2.92996">
        <ele>515.5</ele>
        <time>2020-08-25T05:30:47Z</time>
      </trkpt>
      <trkpt lat="43.83816" lon="2.92825">
        <ele>511.5</ele>
        <time>2020-08-25T05:31:02Z</time>
      </trkpt>
      <trkpt lat="43.83883" lon="2.92734">
        <ele>506.2</ele>
        <time>2020-08-25T05:31:17Z</time>
      </trkpt>
      <trkpt lat="43.838" lon="2.92644">
        <ele>501</ele>
        <time>2020-08-25T05:31:32Z</time>
      </trkpt>
      <trkpt lat="43.838" lon="2.92471">
        <ele>495.2</ele>
        <time>2020-08-25T05:31:47Z</time>
      </trkpt>
      <trkpt lat="43.83835" lon="2.92317">
        <ele>490.7</ele>
        <time>2020-08-25T05:32:02Z</time>
      </trkpt>
      <trkpt lat="43.83857" lon="2.92197">
        <ele>486.6</ele>
        <time>2020-08-25T05:32:12Z</time>
      </trkpt>
      <trkpt lat="43.83848" lon="2.92032">
        <ele>481.1</ele>
        <time>2020-08-25T05:32:27Z</time>
      </trkpt>
      <trkpt lat="43.83757" lon="2.91928">
        <ele>478.1</ele>
        <time>2020-08-25T05:32:47Z</time>
      </trkpt>
      <trkpt lat="43.83715" lon="2.91811">
        <ele>472.4</ele>
        <time>2020-08-25T05:33:07Z</time>
      </trkpt>
      <trkpt lat="43.83656" lon="2.91689">
        <ele>467.6</ele>
        <time>2020-08-25T05:33:27Z</time>
      </trkpt>
      <trkpt lat="43.83607" lon="2.91569">
        <ele>466.3</ele>
        <time>2020-08-25T05:33:47Z</time>
      </trkpt>
      <trkpt lat="43.83555" lon="2.91435">
        <ele>464.2</ele>
        <time>2020-08-25T05:34:07Z</time>
      </trkpt>
      <trkpt lat="43.83503" lon="2.913">
        <ele>462.2</ele>
        <time>2020-08-25T05:34:27Z</time>
      </trkpt>
      <trkpt lat="43.83454" lon="2.91162">
        <ele>459.9</ele>
        <time>2020-08-25T05:34:47Z</time>
      </trkpt>
      <trkpt lat="43.83449" lon="2.91005">
        <ele>457.3</ele>
        <time>2020-08-25T05:35:07Z</time>
      </trkpt>
      <trkpt lat="43.83426" lon="2.90854">
        <ele>454.9</ele>
        <time>2020-08-25T05:35:27Z</time>
      </trkpt>
      <trkpt lat="43.83381" lon="2.9072">
        <ele>453</ele>
        <time>2020-08-25T05:35:47Z</time>
      </trkpt>
      <trkpt lat="43.83316" lon="2.90594">
        <ele>452.1</ele>
        <time>2020-08-25T05:36:07Z</time>
      </trkpt>
      <trkpt lat="43.83269" lon="2.90481">
        <ele>451.6</ele>
        <time>2020-08-25T05:36:27Z</time>
      </trkpt>
      <trkpt lat="43.83222" lon="2.90343">
        <ele>450.5</ele>
        <time>2020-08-25T05:36:47Z</time>
      </trkpt>
      <trkpt lat="43.83185" lon="2.90219">
        <ele>449.2</ele>
        <time>2020-08-25T05:37:07Z</time>
      </trkpt>
      <trkpt lat="43.83148" lon="2.90101">
        <ele>448.3</ele>
        <time>2020-08-25T05:37:27Z</time>
      </trkpt>
      <trkpt lat="43.83066" lon="2.90036">
        <ele>447.9</ele>
        <time>2020-08-25T05:37:47Z</time>
      </trkpt>
      <trkpt lat="43.83003" lon="2.89934">
        <ele>447.7</ele>
        <time>2020-08-25T05:38:12Z</time>
      </trkpt>
      <trkpt lat="43.82939" lon="2.89821">
        <ele>447.6</ele>
        <time>2020-08-25T05:38:42Z</time>
      </trkpt>
      <trkpt lat="43.82863" lon="2.89735">
        <ele>447.6</ele>
        <time>2020-08-25T05:39:12Z</time>
      </trkpt>
      <trkpt lat="43.82781" lon="2.89639">
        <ele>447.8</ele>
        <time>2020-08-25T05:39:42Z</time>
      </trkpt>
      <trkpt lat="43.82748" lon="2.89503">
        <ele>447.8</ele>
        <time>2020-08-25T05:40:12Z</time>
      </trkpt>
      <trkpt lat="43.82678" lon="2.89418">
        <ele>447.6</ele>
        <time>2020-08-25T05:40:37Z</time>
      </trkpt>
      <trkpt lat="43.82602" lon="2.8933">
        <ele>447.5</ele>
        <time>2020-08-25T05:41:02Z</time>
      </trkpt>
      <trkpt lat="43.82524" lon="2.89229">
        <ele>447.4</ele>
        <time>2020-08-25T05:41:32Z</time>
      </trkpt>
      <trkpt lat="43.82468" lon="2.89111">
        <ele>447.3</ele>
        <time>2020-08-25T05:42:02Z</time>
      </trkpt>
      <trkpt lat="43.82414" lon="2.89002">
        <ele>447.1</ele>
        <time>2020-08-25T05:42:32Z</time>
      </trkpt>
      <trkpt lat="43.8238" lon="2.88873">
        <ele>447.1</ele>
        <time>2020-08-25T05:43:07Z</time>
      </trkpt>
      <trkpt lat="43.82421" lon="2.88747">
        <ele>447.2</ele>
        <time>2020-08-25T05:43:37Z</time>
      </trkpt>
      <trkpt lat="43.8242" lon="2.88617">
        <ele>448.1</ele>
        <time>2020-08-25T05:44:02Z</time>
      </trkpt>
      <trkpt lat="43.82391" lon="2.8848">
        <ele>448.6</ele>
        <time>2020-08-25T05:44:27Z</time>
      </trkpt>
      <trkpt lat="43.82356" lon="2.88332">
        <ele>448.6</ele>
        <time>2020-08-25T05:44:52Z</time>
      </trkpt>
      <trkpt lat="43.82332" lon="2.88165">
        <ele>448.4</ele>
        <time>2020-08-25T05:45:12Z</time>
      </trkpt>
      <trkpt lat="43.82266" lon="2.88077">
        <ele>447.6</ele>
        <time>2020-08-25T05:45:27Z</time>
      </trkpt>
      <trkpt lat="43.8216" lon="2.8803">
        <ele>445.6</ele>
        <time>2020-08-25T05:45:42Z</time>
      </trkpt>
      <trkpt lat="43.82085" lon="2.87947">
        <ele>443.1</ele>
        <time>2020-08-25T05:46:02Z</time>
      </trkpt>
      <trkpt lat="43.81994" lon="2.87901">
        <ele>439.4</ele>
        <time>2020-08-25T05:47:08Z</time>
      </trkpt>
      <trkpt lat="43.81902" lon="2.87867">
        <ele>439.4</ele>
        <time>2020-08-25T05:47:43Z</time>
      </trkpt>
      <trkpt lat="43.81811" lon="2.87844">
        <ele>440.8</ele>
        <time>2020-08-25T05:48:28Z</time>
      </trkpt>
      <trkpt lat="43.81716" lon="2.87855">
        <ele>445.1</ele>
        <time>2020-08-25T05:49:30Z</time>
      </trkpt>
      <trkpt lat="43.81621" lon="2.87848">
        <ele>449.3</ele>
        <time>2020-08-25T05:50:34Z</time>
      </trkpt>
      <trkpt lat="43.81525" lon="2.87836">
        <ele>454</ele>
        <time>2020-08-25T05:51:41Z</time>
      </trkpt>
      <trkpt lat="43.81433" lon="2.8787">
        <ele>458.7</ele>
        <time>2020-08-25T05:52:43Z</time>
      </trkpt>
      <trkpt lat="43.8134" lon="2.87893">
        <ele>463.9</ele>
        <time>2020-08-25T05:53:47Z</time>
      </trkpt>
      <trkpt lat="43.81243" lon="2.87915">
        <ele>468.7</ele>
        <time>2020-08-25T05:54:53Z</time>
      </trkpt>
      <trkpt lat="43.81171" lon="2.87827">
        <ele>478.5</ele>
        <time>2020-08-25T05:59:48Z</time>
      </trkpt>
      <trkpt lat="43.81114" lon="2.87723">
        <ele>481.1</ele>
        <time>2020-08-25T06:00:56Z</time>
      </trkpt>
      <trkpt lat="43.81066" lon="2.87608">
        <ele>482.4</ele>
        <time>2020-08-25T06:02:05Z</time>
      </trkpt>
      <trkpt lat="43.80998" lon="2.87517">
        <ele>483.8</ele>
        <time>2020-08-25T06:03:09Z</time>
      </trkpt>
      <trkpt lat="43.8109" lon="2.87553">
        <ele>497.7</ele>
        <time>2020-08-25T06:06:00Z</time>
      </trkpt>
      <trkpt lat="43.81169" lon="2.87634">
        <ele>503.9</ele>
        <time>2020-08-25T06:07:06Z</time>
      </trkpt>
      <trkpt lat="43.81243" lon="2.87721">
        <ele>509.4</ele>
        <time>2020-08-25T06:08:10Z</time>
      </trkpt>
      <trkpt lat="43.81199" lon="2.87604">
        <ele>514.9</ele>
        <time>2020-08-25T06:09:32Z</time>
      </trkpt>
      <trkpt lat="43.81145" lon="2.87494">
        <ele>519.4</ele>
        <time>2020-08-25T06:10:40Z</time>
      </trkpt>
      <trkpt lat="43.81079" lon="2.87396">
        <ele>530.2</ele>
        <time>2020-08-25T06:11:46Z</time>
      </trkpt>
      <trkpt lat="43.81" lon="2.87324">
        <ele>541.6</ele>
        <time>2020-08-25T06:12:51Z</time>
      </trkpt>
      <trkpt lat="43.80923" lon="2.87253">
        <ele>554.8</ele>
        <time>2020-08-25T06:13:58Z</time>
      </trkpt>
      <trkpt lat="43.80847" lon="2.87174">
        <ele>564</ele>
        <time>2020-08-25T06:15:04Z</time>
      </trkpt>
      <trkpt lat="43.80771" lon="2.87088">
        <ele>572.1</ele>
        <time>2020-08-25T06:16:13Z</time>
      </trkpt>
      <trkpt lat="43.80687" lon="2.87015">
        <ele>578.3</ele>
        <time>2020-08-25T06:17:23Z</time>
      </trkpt>
      <trkpt lat="43.80785" lon="2.87015">
        <ele>586</ele>
        <time>2020-08-25T06:18:54Z</time>
      </trkpt>
      <trkpt lat="43.8088" lon="2.87044">
        <ele>592.1</ele>
        <time>2020-08-25T06:20:01Z</time>
      </trkpt>
      <trkpt lat="43.80972" lon="2.87081">
        <ele>598.4</ele>
        <time>2020-08-25T06:21:06Z</time>
      </trkpt>
      <trkpt lat="43.81065" lon="2.8711">
        <ele>607.5</ele>
        <time>2020-08-25T06:22:14Z</time>
      </trkpt>
      <trkpt lat="43.81156" lon="2.87137">
        <ele>614.7</ele>
        <time>2020-08-25T06:23:15Z</time>
      </trkpt>
      <trkpt lat="43.81107" lon="2.8702">
        <ele>627</ele>
        <time>2020-08-25T06:26:03Z</time>
      </trkpt>
      <trkpt lat="43.81028" lon="2.86947">
        <ele>639</ele>
        <time>2020-08-25T06:27:08Z</time>
      </trkpt>
      <trkpt lat="43.80962" lon="2.86851">
        <ele>648.5</ele>
        <time>2020-08-25T06:28:12Z</time>
      </trkpt>
      <trkpt lat="43.80913" lon="2.86732">
        <ele>655.7</ele>
        <time>2020-08-25T06:29:19Z</time>
      </trkpt>
      <trkpt lat="43.80859" lon="2.86621">
        <ele>661.7</ele>
        <time>2020-08-25T06:30:26Z</time>
      </trkpt>
      <trkpt lat="43.80787" lon="2.86527">
        <ele>668.4</ele>
        <time>2020-08-25T06:31:34Z</time>
      </trkpt>
      <trkpt lat="43.80691" lon="2.8649">
        <ele>675.6</ele>
        <time>2020-08-25T06:32:38Z</time>
      </trkpt>
      <trkpt lat="43.80595" lon="2.86467">
        <ele>683.7</ele>
        <time>2020-08-25T06:33:38Z</time>
      </trkpt>
      <trkpt lat="43.80504" lon="2.86425">
        <ele>690.8</ele>
        <time>2020-08-25T06:34:37Z</time>
      </trkpt>
      <trkpt lat="43.8041" lon="2.86451">
        <ele>698.9</ele>
        <time>2020-08-25T06:35:34Z</time>
      </trkpt>
      <trkpt lat="43.80335" lon="2.86519">
        <ele>706.8</ele>
        <time>2020-08-25T06:36:28Z</time>
      </trkpt>
      <trkpt lat="43.80278" lon="2.86628">
        <ele>714.7</ele>
        <time>2020-08-25T06:37:22Z</time>
      </trkpt>
      <trkpt lat="43.80223" lon="2.8674">
        <ele>725</ele>
        <time>2020-08-25T06:38:24Z</time>
      </trkpt>
      <trkpt lat="43.80147" lon="2.86824">
        <ele>731.7</ele>
        <time>2020-08-25T06:39:21Z</time>
      </trkpt>
      <trkpt lat="43.80094" lon="2.86924">
        <ele>737.8</ele>
        <time>2020-08-25T06:40:22Z</time>
      </trkpt>
      <trkpt lat="43.80025" lon="2.86823">
        <ele>751.9</ele>
        <time>2020-08-25T06:42:57Z</time>
      </trkpt>
      <trkpt lat="43.79966" lon="2.86725">
        <ele>751.9</ele>
        <time>2020-08-25T06:43:12Z</time>
      </trkpt>
      <trkpt lat="43.79921" lon="2.86613">
        <ele>750.4</ele>
        <time>2020-08-25T06:43:27Z</time>
      </trkpt>
      <trkpt lat="43.79936" lon="2.86468">
        <ele>749.2</ele>
        <time>2020-08-25T06:43:42Z</time>
      </trkpt>
      <trkpt lat="43.79843" lon="2.86516">
        <ele>747.7</ele>
        <time>2020-08-25T06:43:57Z</time>
      </trkpt>
      <trkpt lat="43.79741" lon="2.86499">
        <ele>740.8</ele>
        <time>2020-08-25T06:44:12Z</time>
      </trkpt>
      <trkpt lat="43.79696" lon="2.86387">
        <ele>737.2</ele>
        <time>2020-08-25T06:44:27Z</time>
      </trkpt>
      <trkpt lat="43.79591" lon="2.86405">
        <ele>735.8</ele>
        <time>2020-08-25T06:44:42Z</time>
      </trkpt>
      <trkpt lat="43.79481" lon="2.86348">
        <ele>726.3</ele>
        <time>2020-08-25T06:44:57Z</time>
      </trkpt>
      <trkpt lat="43.79404" lon="2.86443">
        <ele>728.1</ele>
        <time>2020-08-25T06:45:12Z</time>
      </trkpt>
      <trkpt lat="43.79293" lon="2.86524">
        <ele>725.9</ele>
        <time>2020-08-25T06:45:27Z</time>
      </trkpt>
      <trkpt lat="43.79197" lon="2.8661">
        <ele>719.9</ele>
        <time>2020-08-25T06:45:42Z</time>
      </trkpt>
      <trkpt lat="43.79111" lon="2.86727">
        <ele>715</ele>
        <time>2020-08-25T06:45:57Z</time>
      </trkpt>
      <trkpt lat="43.79005" lon="2.86655">
        <ele>710.1</ele>
        <time>2020-08-25T06:46:12Z</time>
      </trkpt>
      <trkpt lat="43.78974" lon="2.86502">
        <ele>705.2</ele>
        <time>2020-08-25T06:46:27Z</time>
      </trkpt>
      <trkpt lat="43.78983" lon="2.86334">
        <ele>699.6</ele>
        <time>2020-08-25T06:46:42Z</time>
      </trkpt>
      <trkpt lat="43.78969" lon="2.8616">
        <ele>694.2</ele>
        <time>2020-08-25T06:46:57Z</time>
      </trkpt>
      <trkpt lat="43.78926" lon="2.86005">
        <ele>687.3</ele>
        <time>2020-08-25T06:47:12Z</time>
      </trkpt>
      <trkpt lat="43.78857" lon="2.8588">
        <ele>680.7</ele>
        <time>2020-08-25T06:47:27Z</time>
      </trkpt>
      <trkpt lat="43.78781" lon="2.85781">
        <ele>673.2</ele>
        <time>2020-08-25T06:47:42Z</time>
      </trkpt>
      <trkpt lat="43.78845" lon="2.85651">
        <ele>671.8</ele>
        <time>2020-08-25T06:48:02Z</time>
      </trkpt>
      <trkpt lat="43.78801" lon="2.85538">
        <ele>671.2</ele>
        <time>2020-08-25T06:48:32Z</time>
      </trkpt>
      <trkpt lat="43.78754" lon="2.85426">
        <ele>671</ele>
        <time>2020-08-25T06:49:07Z</time>
      </trkpt>
      <trkpt lat="43.78703" lon="2.85305">
        <ele>671.3</ele>
        <time>2020-08-25T06:49:37Z</time>
      </trkpt>
      <trkpt lat="43.78611" lon="2.85285">
        <ele>671</ele>
        <time>2020-08-25T06:50:22Z</time>
      </trkpt>
      <trkpt lat="43.78704" lon="2.85274">
        <ele>673.4</ele>
        <time>2020-08-25T06:54:06Z</time>
      </trkpt>
      <trkpt lat="43.78795" lon="2.85308">
        <ele>672.7</ele>
        <time>2020-08-25T06:55:10Z</time>
      </trkpt>
      <trkpt lat="43.78759" lon="2.8519">
        <ele>676.2</ele>
        <time>2020-08-25T06:57:12Z</time>
      </trkpt>
      <trkpt lat="43.78677" lon="2.85121">
        <ele>678</ele>
        <time>2020-08-25T06:58:20Z</time>
      </trkpt>
      <trkpt lat="43.78629" lon="2.8501">
        <ele>681.9</ele>
        <time>2020-08-25T06:59:41Z</time>
      </trkpt>
      <trkpt lat="43.78617" lon="2.8488">
        <ele>686.2</ele>
        <time>2020-08-25T07:00:43Z</time>
      </trkpt>
      <trkpt lat="43.78591" lon="2.8475">
        <ele>691.4</ele>
        <time>2020-08-25T07:01:46Z</time>
      </trkpt>
      <trkpt lat="43.78537" lon="2.84637">
        <ele>696.4</ele>
        <time>2020-08-25T07:02:45Z</time>
      </trkpt>
      <trkpt lat="43.78475" lon="2.84537">
        <ele>701.2</ele>
        <time>2020-08-25T07:03:44Z</time>
      </trkpt>
      <trkpt lat="43.78392" lon="2.84484">
        <ele>705.6</ele>
        <time>2020-08-25T07:04:45Z</time>
      </trkpt>
      <trkpt lat="43.78334" lon="2.84381">
        <ele>710.7</ele>
        <time>2020-08-25T07:05:48Z</time>
      </trkpt>
      <trkpt lat="43.78258" lon="2.84304">
        <ele>717.4</ele>
        <time>2020-08-25T07:06:55Z</time>
      </trkpt>
      <trkpt lat="43.78172" lon="2.84246">
        <ele>723.9</ele>
        <time>2020-08-25T07:08:00Z</time>
      </trkpt>
      <trkpt lat="43.78079" lon="2.84213">
        <ele>729.9</ele>
        <time>2020-08-25T07:09:07Z</time>
      </trkpt>
      <trkpt lat="43.78" lon="2.84143">
        <ele>735.1</ele>
        <time>2020-08-25T07:10:10Z</time>
      </trkpt>
      <trkpt lat="43.77949" lon="2.84028">
        <ele>741.4</ele>
        <time>2020-08-25T07:11:16Z</time>
      </trkpt>
      <trkpt lat="43.7791" lon="2.83909">
        <ele>750.5</ele>
        <time>2020-08-25T07:12:19Z</time>
      </trkpt>
      <trkpt lat="43.77882" lon="2.83781">
        <ele>759.9</ele>
        <time>2020-08-25T07:13:25Z</time>
      </trkpt>
      <trkpt lat="43.77834" lon="2.83663">
        <ele>768</ele>
        <time>2020-08-25T07:14:35Z</time>
      </trkpt>
      <trkpt lat="43.7779" lon="2.83526">
        <ele>784.4</ele>
        <time>2020-08-25T07:19:10Z</time>
      </trkpt>
      <trkpt lat="43.77758" lon="2.83371">
        <ele>786.4</ele>
        <time>2020-08-25T07:19:25Z</time>
      </trkpt>
      <trkpt lat="43.77701" lon="2.83229">
        <ele>787.6</ele>
        <time>2020-08-25T07:19:40Z</time>
      </trkpt>
      <trkpt lat="43.7779" lon="2.83209">
        <ele>788.5</ele>
        <time>2020-08-25T07:20:33Z</time>
      </trkpt>
      <trkpt lat="43.77874" lon="2.83277">
        <ele>791.5</ele>
        <time>2020-08-25T07:21:45Z</time>
      </trkpt>
      <trkpt lat="43.77957" lon="2.83348">
        <ele>796.4</ele>
        <time>2020-08-25T07:22:57Z</time>
      </trkpt>
      <trkpt lat="43.77962" lon="2.83223">
        <ele>814.9</ele>
        <time>2020-08-25T07:26:04Z</time>
      </trkpt>
      <trkpt lat="43.7791" lon="2.83114">
        <ele>819.6</ele>
        <time>2020-08-25T07:27:09Z</time>
      </trkpt>
      <trkpt lat="43.7784" lon="2.83032">
        <ele>821.9</ele>
        <time>2020-08-25T07:27:49Z</time>
      </trkpt>
      <trkpt lat="43.77773" lon="2.82945">
        <ele>825</ele>
        <time>2020-08-25T07:28:14Z</time>
      </trkpt>
      <trkpt lat="43.77705" lon="2.8286">
        <ele>825.7</ele>
        <time>2020-08-25T07:28:34Z</time>
      </trkpt>
      <trkpt lat="43.77627" lon="2.82775">
        <ele>827.4</ele>
        <time>2020-08-25T07:29:39Z</time>
      </trkpt>
      <trkpt lat="43.77664" lon="2.82645">
        <ele>829.6</ele>
        <time>2020-08-25T07:30:28Z</time>
      </trkpt>
      <trkpt lat="43.77676" lon="2.8251">
        <ele>833.2</ele>
        <time>2020-08-25T07:30:53Z</time>
      </trkpt>
      <trkpt lat="43.7771" lon="2.82375">
        <ele>834.1</ele>
        <time>2020-08-25T07:31:13Z</time>
      </trkpt>
      <trkpt lat="43.77718" lon="2.8224">
        <ele>834.7</ele>
        <time>2020-08-25T07:31:43Z</time>
      </trkpt>
      <trkpt lat="43.77783" lon="2.82144">
        <ele>836</ele>
        <time>2020-08-25T07:32:36Z</time>
      </trkpt>
      <trkpt lat="43.77805" lon="2.8202">
        <ele>837.6</ele>
        <time>2020-08-25T07:33:16Z</time>
      </trkpt>
      <trkpt lat="43.77787" lon="2.81879">
        <ele>840.2</ele>
        <time>2020-08-25T07:33:56Z</time>
      </trkpt>
      <trkpt lat="43.77788" lon="2.81732">
        <ele>841.3</ele>
        <time>2020-08-25T07:34:11Z</time>
      </trkpt>
      <trkpt lat="43.77755" lon="2.816">
        <ele>840.1</ele>
        <time>2020-08-25T07:34:21Z</time>
      </trkpt>
      <trkpt lat="43.77713" lon="2.8147">
        <ele>839.1</ele>
        <time>2020-08-25T07:34:31Z</time>
      </trkpt>
      <trkpt lat="43.77783" lon="2.81385">
        <ele>835.1</ele>
        <time>2020-08-25T07:34:46Z</time>
      </trkpt>
      <trkpt lat="43.77705" lon="2.81293">
        <ele>830.9</ele>
        <time>2020-08-25T07:35:06Z</time>
      </trkpt>
      <trkpt lat="43.77758" lon="2.8119">
        <ele>824.1</ele>
        <time>2020-08-25T07:35:26Z</time>
      </trkpt>
      <trkpt lat="43.77877" lon="2.8127">
        <ele>818.6</ele>
        <time>2020-08-25T07:35:41Z</time>
      </trkpt>
      <trkpt lat="43.77874" lon="2.81099">
        <ele>804.3</ele>
        <time>2020-08-25T07:36:16Z</time>
      </trkpt>
      <trkpt lat="43.77867" lon="2.80942">
        <ele>793.5</ele>
        <time>2020-08-25T07:36:31Z</time>
      </trkpt>
      <trkpt lat="43.7789" lon="2.80817">
        <ele>786.8</ele>
        <time>2020-08-25T07:36:51Z</time>
      </trkpt>
      <trkpt lat="43.77882" lon="2.80686">
        <ele>790.6</ele>
        <time>2020-08-25T07:37:53Z</time>
      </trkpt>
      <trkpt lat="43.77846" lon="2.80567">
        <ele>794</ele>
        <time>2020-08-25T07:39:10Z</time>
      </trkpt>
      <trkpt lat="43.77787" lon="2.80462">
        <ele>795</ele>
        <time>2020-08-25T07:39:40Z</time>
      </trkpt>
      <trkpt lat="43.77707" lon="2.80384">
        <ele>796.6</ele>
        <time>2020-08-25T07:40:47Z</time>
      </trkpt>
      <trkpt lat="43.77693" lon="2.80258">
        <ele>802.3</ele>
        <time>2020-08-25T07:42:08Z</time>
      </trkpt>
      <trkpt lat="43.77744" lon="2.80145">
        <ele>805.5</ele>
        <time>2020-08-25T07:43:06Z</time>
      </trkpt>
      <trkpt lat="43.77792" lon="2.8004">
        <ele>807.2</ele>
        <time>2020-08-25T07:43:47Z</time>
      </trkpt>
      <trkpt lat="43.77858" lon="2.79946">
        <ele>810</ele>
        <time>2020-08-25T07:44:55Z</time>
      </trkpt>
      <trkpt lat="43.7795" lon="2.79951">
        <ele>812.9</ele>
        <time>2020-08-25T07:46:00Z</time>
      </trkpt>
      <trkpt lat="43.78042" lon="2.79985">
        <ele>816.2</ele>
        <time>2020-08-25T07:47:12Z</time>
      </trkpt>
      <trkpt lat="43.78136" lon="2.7995">
        <ele>819.2</ele>
        <time>2020-08-25T07:48:17Z</time>
      </trkpt>
      <trkpt lat="43.78215" lon="2.79892">
        <ele>821.3</ele>
        <time>2020-08-25T07:49:16Z</time>
      </trkpt>
      <trkpt lat="43.78304" lon="2.7984">
        <ele>823.5</ele>
        <time>2020-08-25T07:50:23Z</time>
      </trkpt>
      <trkpt lat="43.78395" lon="2.79807">
        <ele>830.5</ele>
        <time>2020-08-25T07:51:39Z</time>
      </trkpt>
      <trkpt lat="43.7842" lon="2.79676">
        <ele>844.2</ele>
        <time>2020-08-25T07:52:30Z</time>
      </trkpt>
      <trkpt lat="43.78415" lon="2.79534">
        <ele>852.7</ele>
        <time>2020-08-25T07:53:10Z</time>
      </trkpt>
      <trkpt lat="43.78413" lon="2.79399">
        <ele>860.5</ele>
        <time>2020-08-25T07:54:13Z</time>
      </trkpt>
      <trkpt lat="43.78416" lon="2.79271">
        <ele>866.9</ele>
        <time>2020-08-25T07:55:23Z</time>
      </trkpt>
      <trkpt lat="43.784" lon="2.79132">
        <ele>871.7</ele>
        <time>2020-08-25T07:56:21Z</time>
      </trkpt>
      <trkpt lat="43.78395" lon="2.78996">
        <ele>873.9</ele>
        <time>2020-08-25T07:56:51Z</time>
      </trkpt>
      <trkpt lat="43.78361" lon="2.78868">
        <ele>877.7</ele>
        <time>2020-08-25T07:57:27Z</time>
      </trkpt>
      <trkpt lat="43.78315" lon="2.78745">
        <ele>879.5</ele>
        <time>2020-08-25T07:57:52Z</time>
      </trkpt>
      <trkpt lat="43.78252" lon="2.78649">
        <ele>880.2</ele>
        <time>2020-08-25T07:58:27Z</time>
      </trkpt>
      <trkpt lat="43.78158" lon="2.78618">
        <ele>881</ele>
        <time>2020-08-25T07:59:02Z</time>
      </trkpt>
      <trkpt lat="43.78056" lon="2.78571">
        <ele>884.4</ele>
        <time>2020-08-25T08:01:56Z</time>
      </trkpt>
      <trkpt lat="43.7798" lon="2.78447">
        <ele>884.4</ele>
        <time>2020-08-25T08:02:11Z</time>
      </trkpt>
      <trkpt lat="43.77874" lon="2.78436">
        <ele>881.2</ele>
        <time>2020-08-25T08:02:26Z</time>
      </trkpt>
      <trkpt lat="43.77807" lon="2.78577">
        <ele>877.3</ele>
        <time>2020-08-25T08:02:36Z</time>
      </trkpt>
      <trkpt lat="43.77729" lon="2.7871">
        <ele>877.8</ele>
        <time>2020-08-25T08:02:46Z</time>
      </trkpt>
      <trkpt lat="43.77631" lon="2.78725">
        <ele>877.2</ele>
        <time>2020-08-25T08:02:56Z</time>
      </trkpt>
      <trkpt lat="43.77501" lon="2.78743">
        <ele>869.4</ele>
        <time>2020-08-25T08:03:11Z</time>
      </trkpt>
      <trkpt lat="43.77425" lon="2.78856">
        <ele>861.7</ele>
        <time>2020-08-25T08:03:21Z</time>
      </trkpt>
      <trkpt lat="43.77322" lon="2.78838">
        <ele>852.7</ele>
        <time>2020-08-25T08:03:31Z</time>
      </trkpt>
      <trkpt lat="43.77225" lon="2.78852">
        <ele>838.2</ele>
        <time>2020-08-25T08:03:41Z</time>
      </trkpt>
      <trkpt lat="43.77193" lon="2.78727">
        <ele>830</ele>
        <time>2020-08-25T08:03:51Z</time>
      </trkpt>
      <trkpt lat="43.772" lon="2.78569">
        <ele>816.1</ele>
        <time>2020-08-25T08:04:01Z</time>
      </trkpt>
      <trkpt lat="43.77213" lon="2.78433">
        <ele>804.7</ele>
        <time>2020-08-25T08:04:11Z</time>
      </trkpt>
      <trkpt lat="43.77128" lon="2.78344">
        <ele>797.4</ele>
        <time>2020-08-25T08:04:21Z</time>
      </trkpt>
      <trkpt lat="43.77054" lon="2.78259">
        <ele>786.5</ele>
        <time>2020-08-25T08:04:31Z</time>
      </trkpt>
      <trkpt lat="43.77013" lon="2.78137">
        <ele>763.1</ele>
        <time>2020-08-25T08:05:32Z</time>
      </trkpt>
      <trkpt lat="43.76953" lon="2.78012">
        <ele>758.4</ele>
        <time>2020-08-25T08:05:42Z</time>
      </trkpt>
      <trkpt lat="43.76949" lon="2.77848">
        <ele>749.6</ele>
        <time>2020-08-25T08:05:57Z</time>
      </trkpt>
      <trkpt lat="43.77037" lon="2.77825">
        <ele>738.7</ele>
        <time>2020-08-25T08:06:07Z</time>
      </trkpt>
      <trkpt lat="43.76977" lon="2.77709">
        <ele>727.4</ele>
        <time>2020-08-25T08:06:27Z</time>
      </trkpt>
      <trkpt lat="43.76857" lon="2.77708">
        <ele>716.6</ele>
        <time>2020-08-25T08:06:42Z</time>
      </trkpt>
      <trkpt lat="43.76752" lon="2.77749">
        <ele>708.1</ele>
        <time>2020-08-25T08:06:52Z</time>
      </trkpt>
      <trkpt lat="43.76663" lon="2.77792">
        <ele>701.6</ele>
        <time>2020-08-25T08:07:02Z</time>
      </trkpt>
      <trkpt lat="43.76615" lon="2.77619">
        <ele>697.1</ele>
        <time>2020-08-25T08:07:17Z</time>
      </trkpt>
      <trkpt lat="43.76545" lon="2.77506">
        <ele>690.5</ele>
        <time>2020-08-25T08:07:27Z</time>
      </trkpt>
      <trkpt lat="43.76443" lon="2.77482">
        <ele>678.2</ele>
        <time>2020-08-25T08:07:37Z</time>
      </trkpt>
      <trkpt lat="43.76407" lon="2.77358">
        <ele>669</ele>
        <time>2020-08-25T08:07:47Z</time>
      </trkpt>
      <trkpt lat="43.76395" lon="2.772">
        <ele>661.3</ele>
        <time>2020-08-25T08:07:57Z</time>
      </trkpt>
      <trkpt lat="43.76306" lon="2.77119">
        <ele>647.9</ele>
        <time>2020-08-25T08:08:12Z</time>
      </trkpt>
      <trkpt lat="43.76278" lon="2.76988">
        <ele>636</ele>
        <time>2020-08-25T08:09:00Z</time>
      </trkpt>
      <trkpt lat="43.76256" lon="2.76865">
        <ele>626.5</ele>
        <time>2020-08-25T08:09:46Z</time>
      </trkpt>
      <trkpt lat="43.762" lon="2.76761">
        <ele>624.7</ele>
        <time>2020-08-25T08:10:34Z</time>
      </trkpt>
      <trkpt lat="43.76151" lon="2.76642">
        <ele>625.1</ele>
        <time>2020-08-25T08:11:36Z</time>
      </trkpt>
      <trkpt lat="43.76101" lon="2.76524">
        <ele>627.3</ele>
        <time>2020-08-25T08:12:41Z</time>
      </trkpt>
      <trkpt lat="43.76041" lon="2.76419">
        <ele>631.4</ele>
        <time>2020-08-25T08:13:40Z</time>
      </trkpt>
      <trkpt lat="43.7597" lon="2.76499">
        <ele>635.7</ele>
        <time>2020-08-25T08:14:59Z</time>
      </trkpt>
      <trkpt lat="43.75886" lon="2.76604">
        <ele>635</ele>
        <time>2020-08-25T08:15:14Z</time>
      </trkpt>
      <trkpt lat="43.75807" lon="2.7666">
        <ele>630.5</ele>
        <time>2020-08-25T08:15:43Z</time>
      </trkpt>
      <trkpt lat="43.75733" lon="2.76741">
        <ele>626.1</ele>
        <time>2020-08-25T08:15:58Z</time>
      </trkpt>
      <trkpt lat="43.75651" lon="2.76659">
        <ele>623</ele>
        <time>2020-08-25T08:16:23Z</time>
      </trkpt>
      <trkpt lat="43.75617" lon="2.76524">
        <ele>619.8</ele>
        <time>2020-08-25T08:16:48Z</time>
      </trkpt>
      <trkpt lat="43.75712" lon="2.76523">
        <ele>621.7</ele>
        <time>2020-08-25T08:17:33Z</time>
      </trkpt>
      <trkpt lat="43.75793" lon="2.76472">
        <ele>623.4</ele>
        <time>2020-08-25T08:18:28Z</time>
      </trkpt>
      <trkpt lat="43.75838" lon="2.76356">
        <ele>626.7</ele>
        <time>2020-08-25T08:19:29Z</time>
      </trkpt>
      <trkpt lat="43.75838" lon="2.76224">
        <ele>630.6</ele>
        <time>2020-08-25T08:20:29Z</time>
      </trkpt>
      <trkpt lat="43.75804" lon="2.76343">
        <ele>641.2</ele>
        <time>2020-08-25T08:22:44Z</time>
      </trkpt>
      <trkpt lat="43.75739" lon="2.76438">
        <ele>646.7</ele>
        <time>2020-08-25T08:23:52Z</time>
      </trkpt>
      <trkpt lat="43.75661" lon="2.76368">
        <ele>649.6</ele>
        <time>2020-08-25T08:24:56Z</time>
      </trkpt>
      <trkpt lat="43.75567" lon="2.76339">
        <ele>651.9</ele>
        <time>2020-08-25T08:26:00Z</time>
      </trkpt>
      <trkpt lat="43.75472" lon="2.76316">
        <ele>654.2</ele>
        <time>2020-08-25T08:27:03Z</time>
      </trkpt>
      <trkpt lat="43.75382" lon="2.7629">
        <ele>657.8</ele>
        <time>2020-08-25T08:28:10Z</time>
      </trkpt>
      <trkpt lat="43.75292" lon="2.76252">
        <ele>662</ele>
        <time>2020-08-25T08:29:17Z</time>
      </trkpt>
      <trkpt lat="43.75198" lon="2.76242">
        <ele>667.4</ele>
        <time>2020-08-25T08:30:17Z</time>
      </trkpt>
      <trkpt lat="43.75104" lon="2.76274">
        <ele>678.2</ele>
        <time>2020-08-25T08:31:23Z</time>
      </trkpt>
      <trkpt lat="43.75021" lon="2.76211">
        <ele>687.1</ele>
        <time>2020-08-25T08:32:27Z</time>
      </trkpt>
      <trkpt lat="43.74937" lon="2.76155">
        <ele>693</ele>
        <time>2020-08-25T08:33:30Z</time>
      </trkpt>
      <trkpt lat="43.74881" lon="2.76043">
        <ele>698</ele>
        <time>2020-08-25T08:34:37Z</time>
      </trkpt>
      <trkpt lat="43.74792" lon="2.75999">
        <ele>703.3</ele>
        <time>2020-08-25T08:36:11Z</time>
      </trkpt>
      <trkpt lat="43.74718" lon="2.76084">
        <ele>711.7</ele>
        <time>2020-08-25T08:37:24Z</time>
      </trkpt>
      <trkpt lat="43.74623" lon="2.76096">
        <ele>725.9</ele>
        <time>2020-08-25T08:38:34Z</time>
      </trkpt>
      <trkpt lat="43.74547" lon="2.76024">
        <ele>749.2</ele>
        <time>2020-08-25T08:47:21Z</time>
      </trkpt>
      <trkpt lat="43.74476" lon="2.75935">
        <ele>754.2</ele>
        <time>2020-08-25T08:48:32Z</time>
      </trkpt>
      <trkpt lat="43.7449" lon="2.75805">
        <ele>757.5</ele>
        <time>2020-08-25T08:49:44Z</time>
      </trkpt>
      <trkpt lat="43.74509" lon="2.75683">
        <ele>759.9</ele>
        <time>2020-08-25T08:50:39Z</time>
      </trkpt>
      <trkpt lat="43.74443" lon="2.75583">
        <ele>763</ele>
        <time>2020-08-25T08:51:44Z</time>
      </trkpt>
      <trkpt lat="43.74351" lon="2.75543">
        <ele>766.3</ele>
        <time>2020-08-25T08:52:50Z</time>
      </trkpt>
      <trkpt lat="43.74284" lon="2.75444">
        <ele>770.7</ele>
        <time>2020-08-25T08:54:02Z</time>
      </trkpt>
      <trkpt lat="43.742" lon="2.75393">
        <ele>775.1</ele>
        <time>2020-08-25T08:55:05Z</time>
      </trkpt>
      <trkpt lat="43.74117" lon="2.75324">
        <ele>780.7</ele>
        <time>2020-08-25T08:56:20Z</time>
      </trkpt>
      <trkpt lat="43.74039" lon="2.75241">
        <ele>786.9</ele>
        <time>2020-08-25T08:57:24Z</time>
      </trkpt>
      <trkpt lat="43.73943" lon="2.75222">
        <ele>798.1</ele>
        <time>2020-08-25T08:58:29Z</time>
      </trkpt>
      <trkpt lat="43.73848" lon="2.75216">
        <ele>808.5</ele>
        <time>2020-08-25T08:59:39Z</time>
      </trkpt>
      <trkpt lat="43.73759" lon="2.75184">
        <ele>821.7</ele>
        <time>2020-08-25T09:01:00Z</time>
      </trkpt>
      <trkpt lat="43.73675" lon="2.7512">
        <ele>834.1</ele>
        <time>2020-08-25T09:02:16Z</time>
      </trkpt>
      <trkpt lat="43.73581" lon="2.75086">
        <ele>845.1</ele>
        <time>2020-08-25T09:03:37Z</time>
      </trkpt>
      <trkpt lat="43.7354" lon="2.74958">
        <ele>854.2</ele>
        <time>2020-08-25T09:04:58Z</time>
      </trkpt>
      <trkpt lat="43.73557" lon="2.74822">
        <ele>859.8</ele>
        <time>2020-08-25T09:06:02Z</time>
      </trkpt>
      <trkpt lat="43.73587" lon="2.74705">
        <ele>864.7</ele>
        <time>2020-08-25T09:06:59Z</time>
      </trkpt>
      <trkpt lat="43.73604" lon="2.74572">
        <ele>869.8</ele>
        <time>2020-08-25T09:08:05Z</time>
      </trkpt>
      <trkpt lat="43.73582" lon="2.7445">
        <ele>873.8</ele>
        <time>2020-08-25T09:09:17Z</time>
      </trkpt>
      <trkpt lat="43.73519" lon="2.74546">
        <ele>880.6</ele>
        <time>2020-08-25T09:10:35Z</time>
      </trkpt>
      <trkpt lat="43.7343" lon="2.74566">
        <ele>891.8</ele>
        <time>2020-08-25T09:12:02Z</time>
      </trkpt>
      <trkpt lat="43.73383" lon="2.74447">
        <ele>901.1</ele>
        <time>2020-08-25T09:13:13Z</time>
      </trkpt>
      <trkpt lat="43.73324" lon="2.74339">
        <ele>909.3</ele>
        <time>2020-08-25T09:14:21Z</time>
      </trkpt>
      <trkpt lat="43.73278" lon="2.74219">
        <ele>914.5</ele>
        <time>2020-08-25T09:15:23Z</time>
      </trkpt>
      <trkpt lat="43.73181" lon="2.74216">
        <ele>921</ele>
        <time>2020-08-25T09:16:32Z</time>
      </trkpt>
      <trkpt lat="43.73084" lon="2.74234">
        <ele>928.9</ele>
        <time>2020-08-25T09:17:43Z</time>
      </trkpt>
      <trkpt lat="43.7299" lon="2.74229">
        <ele>936.6</ele>
        <time>2020-08-25T09:18:57Z</time>
      </trkpt>
      <trkpt lat="43.72968" lon="2.74097">
        <ele>940.7</ele>
        <time>2020-08-25T09:20:06Z</time>
      </trkpt>
      <trkpt lat="43.72922" lon="2.73975">
        <ele>943.9</ele>
        <time>2020-08-25T09:21:10Z</time>
      </trkpt>
      <trkpt lat="43.72852" lon="2.73868">
        <ele>946</ele>
        <time>2020-08-25T09:21:48Z</time>
      </trkpt>
      <trkpt lat="43.72762" lon="2.73813">
        <ele>947.7</ele>
        <time>2020-08-25T09:21:58Z</time>
      </trkpt>
      <trkpt lat="43.72642" lon="2.73799">
        <ele>946.1</ele>
        <time>2020-08-25T09:22:13Z</time>
      </trkpt>
      <trkpt lat="43.72511" lon="2.73785">
        <ele>947.1</ele>
        <time>2020-08-25T09:22:28Z</time>
      </trkpt>
      <trkpt lat="43.72384" lon="2.73737">
        <ele>949.1</ele>
        <time>2020-08-25T09:22:43Z</time>
      </trkpt>
      <trkpt lat="43.72289" lon="2.73622">
        <ele>947.8</ele>
        <time>2020-08-25T09:22:58Z</time>
      </trkpt>
      <trkpt lat="43.72202" lon="2.73514">
        <ele>946.5</ele>
        <time>2020-08-25T09:23:13Z</time>
      </trkpt>
      <trkpt lat="43.72124" lon="2.73391">
        <ele>943.9</ele>
        <time>2020-08-25T09:23:28Z</time>
      </trkpt>
      <trkpt lat="43.72013" lon="2.73403">
        <ele>937.2</ele>
        <time>2020-08-25T09:23:48Z</time>
      </trkpt>
      <trkpt lat="43.71937" lon="2.73484">
        <ele>936.3</ele>
        <time>2020-08-25T09:24:03Z</time>
      </trkpt>
      <trkpt lat="43.71872" lon="2.73571">
        <ele>934.3</ele>
        <time>2020-08-25T09:24:17Z</time>
      </trkpt>
      <trkpt lat="43.71821" lon="2.73679">
        <ele>932.7</ele>
        <time>2020-08-25T09:24:32Z</time>
      </trkpt>
      <trkpt lat="43.71706" lon="2.73693">
        <ele>927.9</ele>
        <time>2020-08-25T09:24:47Z</time>
      </trkpt>
      <trkpt lat="43.71616" lon="2.73706">
        <ele>926.3</ele>
        <time>2020-08-25T09:24:57Z</time>
      </trkpt>
      <trkpt lat="43.71533" lon="2.73796">
        <ele>923.4</ele>
        <time>2020-08-25T09:25:12Z</time>
      </trkpt>
      <trkpt lat="43.71457" lon="2.73694">
        <ele>915.1</ele>
        <time>2020-08-25T09:25:47Z</time>
      </trkpt>
      <trkpt lat="43.71438" lon="2.73563">
        <ele>912.4</ele>
        <time>2020-08-25T09:26:35Z</time>
      </trkpt>
      <trkpt lat="43.71423" lon="2.73425">
        <ele>911</ele>
        <time>2020-08-25T09:27:15Z</time>
      </trkpt>
      <trkpt lat="43.71398" lon="2.73274">
        <ele>909.3</ele>
        <time>2020-08-25T09:27:40Z</time>
      </trkpt>
      <trkpt lat="43.71378" lon="2.73131">
        <ele>908.9</ele>
        <time>2020-08-25T09:28:00Z</time>
      </trkpt>
      <trkpt lat="43.71361" lon="2.73006">
        <ele>908.5</ele>
        <time>2020-08-25T09:28:30Z</time>
      </trkpt>
      <trkpt lat="43.71343" lon="2.72882">
        <ele>909.2</ele>
        <time>2020-08-25T09:29:18Z</time>
      </trkpt>
      <trkpt lat="43.71326" lon="2.72758">
        <ele>911.9</ele>
        <time>2020-08-25T09:30:11Z</time>
      </trkpt>
      <trkpt lat="43.71311" lon="2.72634">
        <ele>914.3</ele>
        <time>2020-08-25T09:33:05Z</time>
      </trkpt>
      <trkpt lat="43.71295" lon="2.725">
        <ele>915.5</ele>
        <time>2020-08-25T09:34:01Z</time>
      </trkpt>
      <trkpt lat="43.71281" lon="2.72372">
        <ele>916.1</ele>
        <time>2020-08-25T09:34:46Z</time>
      </trkpt>
      <trkpt lat="43.71268" lon="2.7224">
        <ele>916.8</ele>
        <time>2020-08-25T09:35:37Z</time>
      </trkpt>
      <trkpt lat="43.71249" lon="2.72108">
        <ele>917.8</ele>
        <time>2020-08-25T09:36:27Z</time>
      </trkpt>
      <trkpt lat="43.71217" lon="2.71984">
        <ele>918.9</ele>
        <time>2020-08-25T09:37:13Z</time>
      </trkpt>
      <trkpt lat="43.71198" lon="2.71833">
        <ele>921.6</ele>
        <time>2020-08-25T09:37:58Z</time>
      </trkpt>
      <trkpt lat="43.71207" lon="2.71673">
        <ele>922.7</ele>
        <time>2020-08-25T09:38:18Z</time>
      </trkpt>
      <trkpt lat="43.71217" lon="2.71516">
        <ele>924.3</ele>
        <time>2020-08-25T09:38:38Z</time>
      </trkpt>
      <trkpt lat="43.71234" lon="2.71367">
        <ele>924.3</ele>
        <time>2020-08-25T09:38:58Z</time>
      </trkpt>
      <trkpt lat="43.71233" lon="2.71219">
        <ele>925.3</ele>
        <time>2020-08-25T09:39:18Z</time>
      </trkpt>
      <trkpt lat="43.71209" lon="2.71076">
        <ele>924.8</ele>
        <time>2020-08-25T09:39:38Z</time>
      </trkpt>
      <trkpt lat="43.71168" lon="2.70957">
        <ele>922.1</ele>
        <time>2020-08-25T09:39:53Z</time>
      </trkpt>
      <trkpt lat="43.71165" lon="2.70792">
        <ele>919.2</ele>
        <time>2020-08-25T09:40:08Z</time>
      </trkpt>
      <trkpt lat="43.7118" lon="2.70668">
        <ele>917.1</ele>
        <time>2020-08-25T09:40:18Z</time>
      </trkpt>
      <trkpt lat="43.71193" lon="2.70534">
        <ele>913.5</ele>
        <time>2020-08-25T09:40:28Z</time>
      </trkpt>
      <trkpt lat="43.71195" lon="2.70382">
        <ele>910.3</ele>
        <time>2020-08-25T09:40:38Z</time>
      </trkpt>
      <trkpt lat="43.71195" lon="2.70234">
        <ele>907.5</ele>
        <time>2020-08-25T09:40:48Z</time>
      </trkpt>
      <trkpt lat="43.71176" lon="2.70094">
        <ele>904.4</ele>
        <time>2020-08-25T09:40:58Z</time>
      </trkpt>
      <trkpt lat="43.71133" lon="2.69965">
        <ele>900.4</ele>
        <time>2020-08-25T09:41:08Z</time>
      </trkpt>
      <trkpt lat="43.71056" lon="2.69894">
        <ele>893.2</ele>
        <time>2020-08-25T09:41:18Z</time>
      </trkpt>
      <trkpt lat="43.70959" lon="2.69891">
        <ele>887.5</ele>
        <time>2020-08-25T09:41:28Z</time>
      </trkpt>
      <trkpt lat="43.70877" lon="2.69948">
        <ele>883.1</ele>
        <time>2020-08-25T09:41:38Z</time>
      </trkpt>
      <trkpt lat="43.70827" lon="2.7006">
        <ele>877.2</ele>
        <time>2020-08-25T09:41:48Z</time>
      </trkpt>
      <trkpt lat="43.70786" lon="2.69939">
        <ele>869.4</ele>
        <time>2020-08-25T09:43:03Z</time>
      </trkpt>
      <trkpt lat="43.70791" lon="2.6979">
        <ele>863.6</ele>
        <time>2020-08-25T09:43:28Z</time>
      </trkpt>
      <trkpt lat="43.70756" lon="2.69656">
        <ele>861.4</ele>
        <time>2020-08-25T09:43:58Z</time>
      </trkpt>
      <trkpt lat="43.70717" lon="2.69519">
        <ele>858.6</ele>
        <time>2020-08-25T09:45:20Z</time>
      </trkpt>
      <trkpt lat="43.70681" lon="2.69378">
        <ele>854.4</ele>
        <time>2020-08-25T09:45:50Z</time>
      </trkpt>
      <trkpt lat="43.70669" lon="2.6924">
        <ele>854.1</ele>
        <time>2020-08-25T09:46:25Z</time>
      </trkpt>
      <trkpt lat="43.70719" lon="2.69132">
        <ele>840.2</ele>
        <time>2020-08-25T10:55:05Z</time>
      </trkpt>
      <trkpt lat="43.70728" lon="2.69002">
        <ele>842.5</ele>
        <time>2020-08-25T10:55:52Z</time>
      </trkpt>
      <trkpt lat="43.70685" lon="2.68888">
        <ele>847.1</ele>
        <time>2020-08-25T10:57:24Z</time>
      </trkpt>
      <trkpt lat="43.70685" lon="2.68753">
        <ele>849.2</ele>
        <time>2020-08-25T10:58:18Z</time>
      </trkpt>
      <trkpt lat="43.70636" lon="2.68644">
        <ele>851.1</ele>
        <time>2020-08-25T10:59:04Z</time>
      </trkpt>
      <trkpt lat="43.70573" lon="2.68732">
        <ele>853.1</ele>
        <time>2020-08-25T10:59:54Z</time>
      </trkpt>
      <trkpt lat="43.70536" lon="2.68851">
        <ele>854.6</ele>
        <time>2020-08-25T11:00:39Z</time>
      </trkpt>
      <trkpt lat="43.70448" lon="2.68786">
        <ele>858</ele>
        <time>2020-08-25T11:01:56Z</time>
      </trkpt>
      <trkpt lat="43.70383" lon="2.68683">
        <ele>861.6</ele>
        <time>2020-08-25T11:03:03Z</time>
      </trkpt>
      <trkpt lat="43.70318" lon="2.68584">
        <ele>865.8</ele>
        <time>2020-08-25T11:04:05Z</time>
      </trkpt>
      <trkpt lat="43.70253" lon="2.68484">
        <ele>870.8</ele>
        <time>2020-08-25T11:05:08Z</time>
      </trkpt>
      <trkpt lat="43.70205" lon="2.6837">
        <ele>876</ele>
        <time>2020-08-25T11:06:11Z</time>
      </trkpt>
      <trkpt lat="43.70164" lon="2.68248">
        <ele>881.9</ele>
        <time>2020-08-25T11:07:20Z</time>
      </trkpt>
      <trkpt lat="43.70127" lon="2.68122">
        <ele>887.5</ele>
        <time>2020-08-25T11:08:20Z</time>
      </trkpt>
      <trkpt lat="43.70096" lon="2.67992">
        <ele>894.4</ele>
        <time>2020-08-25T11:09:22Z</time>
      </trkpt>
      <trkpt lat="43.70062" lon="2.67871">
        <ele>900.8</ele>
        <time>2020-08-25T11:10:25Z</time>
      </trkpt>
      <trkpt lat="43.69984" lon="2.67947">
        <ele>907.8</ele>
        <time>2020-08-25T11:11:38Z</time>
      </trkpt>
      <trkpt lat="43.69955" lon="2.68073">
        <ele>913.4</ele>
        <time>2020-08-25T11:12:44Z</time>
      </trkpt>
      <trkpt lat="43.69936" lon="2.68204">
        <ele>918.6</ele>
        <time>2020-08-25T11:13:47Z</time>
      </trkpt>
      <trkpt lat="43.69908" lon="2.68331">
        <ele>924.3</ele>
        <time>2020-08-25T11:14:50Z</time>
      </trkpt>
      <trkpt lat="43.69881" lon="2.68461">
        <ele>930.8</ele>
        <time>2020-08-25T11:15:54Z</time>
      </trkpt>
      <trkpt lat="43.6984" lon="2.6858">
        <ele>937.1</ele>
        <time>2020-08-25T11:16:57Z</time>
      </trkpt>
      <trkpt lat="43.6975" lon="2.68598">
        <ele>943.5</ele>
        <time>2020-08-25T11:18:02Z</time>
      </trkpt>
      <trkpt lat="43.69685" lon="2.68502">
        <ele>951</ele>
        <time>2020-08-25T11:19:07Z</time>
      </trkpt>
      <trkpt lat="43.69629" lon="2.68391">
        <ele>959.3</ele>
        <time>2020-08-25T11:20:10Z</time>
      </trkpt>
      <trkpt lat="43.696" lon="2.68263">
        <ele>967.5</ele>
        <time>2020-08-25T11:21:14Z</time>
      </trkpt>
      <trkpt lat="43.69585" lon="2.68132">
        <ele>975.4</ele>
        <time>2020-08-25T11:22:20Z</time>
      </trkpt>
      <trkpt lat="43.69546" lon="2.68009">
        <ele>982.5</ele>
        <time>2020-08-25T11:23:26Z</time>
      </trkpt>
      <trkpt lat="43.6951" lon="2.67889">
        <ele>988.9</ele>
        <time>2020-08-25T11:24:26Z</time>
      </trkpt>
      <trkpt lat="43.69486" lon="2.67761">
        <ele>996.2</ele>
        <time>2020-08-25T11:25:31Z</time>
      </trkpt>
      <trkpt lat="43.69429" lon="2.67652">
        <ele>1003.8</ele>
        <time>2020-08-25T11:26:36Z</time>
      </trkpt>
      <trkpt lat="43.69364" lon="2.67549">
        <ele>1010</ele>
        <time>2020-08-25T11:27:39Z</time>
      </trkpt>
      <trkpt lat="43.69288" lon="2.67467">
        <ele>1014.7</ele>
        <time>2020-08-25T11:28:35Z</time>
      </trkpt>
      <trkpt lat="43.69209" lon="2.67388">
        <ele>1019.5</ele>
        <time>2020-08-25T11:29:37Z</time>
      </trkpt>
      <trkpt lat="43.69179" lon="2.67265">
        <ele>1025.3</ele>
        <time>2020-08-25T11:31:03Z</time>
      </trkpt>
      <trkpt lat="43.69157" lon="2.67115">
        <ele>1035</ele>
        <time>2020-08-25T11:31:52Z</time>
      </trkpt>
      <trkpt lat="43.69107" lon="2.66985">
        <ele>1037.5</ele>
        <time>2020-08-25T11:32:17Z</time>
      </trkpt>
      <trkpt lat="43.6908" lon="2.66859">
        <ele>1039.1</ele>
        <time>2020-08-25T11:32:37Z</time>
      </trkpt>
      <trkpt lat="43.6909" lon="2.66709">
        <ele>1040.2</ele>
        <time>2020-08-25T11:33:02Z</time>
      </trkpt>
      <trkpt lat="43.69046" lon="2.66586">
        <ele>1041</ele>
        <time>2020-08-25T11:33:27Z</time>
      </trkpt>
      <trkpt lat="43.68977" lon="2.66486">
        <ele>1041.6</ele>
        <time>2020-08-25T11:33:57Z</time>
      </trkpt>
      <trkpt lat="43.68977" lon="2.66352">
        <ele>1042.9</ele>
        <time>2020-08-25T11:34:27Z</time>
      </trkpt>
      <trkpt lat="43.6893" lon="2.66238">
        <ele>1044.5</ele>
        <time>2020-08-25T11:34:57Z</time>
      </trkpt>
      <trkpt lat="43.68871" lon="2.66128">
        <ele>1046</ele>
        <time>2020-08-25T11:35:27Z</time>
      </trkpt>
      <trkpt lat="43.68841" lon="2.66002">
        <ele>1047.5</ele>
        <time>2020-08-25T11:36:02Z</time>
      </trkpt>
      <trkpt lat="43.68769" lon="2.65912">
        <ele>1049</ele>
        <time>2020-08-25T11:36:37Z</time>
      </trkpt>
      <trkpt lat="43.68682" lon="2.65842">
        <ele>1050.5</ele>
        <time>2020-08-25T11:37:17Z</time>
      </trkpt>
      <trkpt lat="43.68592" lon="2.65867">
        <ele>1051.8</ele>
        <time>2020-08-25T11:37:52Z</time>
      </trkpt>
      <trkpt lat="43.68507" lon="2.65926">
        <ele>1053.2</ele>
        <time>2020-08-25T11:38:27Z</time>
      </trkpt>
      <trkpt lat="43.68408" lon="2.65901">
        <ele>1054.8</ele>
        <time>2020-08-25T11:39:07Z</time>
      </trkpt>
      <trkpt lat="43.68315" lon="2.65876">
        <ele>1056.5</ele>
        <time>2020-08-25T11:39:42Z</time>
      </trkpt>
      <trkpt lat="43.68225" lon="2.65804">
        <ele>1060</ele>
        <time>2020-08-25T11:40:17Z</time>
      </trkpt>
      <trkpt lat="43.6815" lon="2.65699">
        <ele>1061</ele>
        <time>2020-08-25T11:40:37Z</time>
      </trkpt>
      <trkpt lat="43.68082" lon="2.65612">
        <ele>1061.2</ele>
        <time>2020-08-25T11:40:52Z</time>
      </trkpt>
      <trkpt lat="43.67981" lon="2.65634">
        <ele>1060.9</ele>
        <time>2020-08-25T11:41:07Z</time>
      </trkpt>
      <trkpt lat="43.67883" lon="2.65701">
        <ele>1060.5</ele>
        <time>2020-08-25T11:41:22Z</time>
      </trkpt>
      <trkpt lat="43.67768" lon="2.65668">
        <ele>1058.6</ele>
        <time>2020-08-25T11:41:37Z</time>
      </trkpt>
      <trkpt lat="43.67738" lon="2.65541">
        <ele>1057.8</ele>
        <time>2020-08-25T11:41:52Z</time>
      </trkpt>
      <trkpt lat="43.67739" lon="2.65381">
        <ele>1057.9</ele>
        <time>2020-08-25T11:42:07Z</time>
      </trkpt>
      <trkpt lat="43.67653" lon="2.65255">
        <ele>1053.3</ele>
        <time>2020-08-25T11:42:22Z</time>
      </trkpt>
      <trkpt lat="43.67554" lon="2.65161">
        <ele>1047.2</ele>
        <time>2020-08-25T11:42:37Z</time>
      </trkpt>
      <trkpt lat="43.67425" lon="2.65127">
        <ele>1039.1</ele>
        <time>2020-08-25T11:42:52Z</time>
      </trkpt>
      <trkpt lat="43.67293" lon="2.65066">
        <ele>1033.7</ele>
        <time>2020-08-25T11:43:07Z</time>
      </trkpt>
      <trkpt lat="43.67202" lon="2.65033">
        <ele>1027.7</ele>
        <time>2020-08-25T11:43:17Z</time>
      </trkpt>
      <trkpt lat="43.67068" lon="2.65032">
        <ele>1023.4</ele>
        <time>2020-08-25T11:43:32Z</time>
      </trkpt>
      <trkpt lat="43.66977" lon="2.65067">
        <ele>1019.3</ele>
        <time>2020-08-25T11:43:42Z</time>
      </trkpt>
      <trkpt lat="43.66886" lon="2.65026">
        <ele>1015.3</ele>
        <time>2020-08-25T11:43:52Z</time>
      </trkpt>
      <trkpt lat="43.66828" lon="2.6491">
        <ele>1011.4</ele>
        <time>2020-08-25T11:44:02Z</time>
      </trkpt>
      <trkpt lat="43.66799" lon="2.64785">
        <ele>1007</ele>
        <time>2020-08-25T11:44:12Z</time>
      </trkpt>
      <trkpt lat="43.66735" lon="2.64693">
        <ele>1004.4</ele>
        <time>2020-08-25T11:44:27Z</time>
      </trkpt>
      <trkpt lat="43.66635" lon="2.64678">
        <ele>1003.4</ele>
        <time>2020-08-25T11:44:57Z</time>
      </trkpt>
      <trkpt lat="43.66591" lon="2.64789">
        <ele>1002.9</ele>
        <time>2020-08-25T11:45:27Z</time>
      </trkpt>
      <trkpt lat="43.6652" lon="2.64863">
        <ele>1002.4</ele>
        <time>2020-08-25T11:46:07Z</time>
      </trkpt>
      <trkpt lat="43.66436" lon="2.64784">
        <ele>1004</ele>
        <time>2020-08-25T11:47:09Z</time>
      </trkpt>
      <trkpt lat="43.6634" lon="2.64802">
        <ele>1004.9</ele>
        <time>2020-08-25T11:47:56Z</time>
      </trkpt>
      <trkpt lat="43.66249" lon="2.64793">
        <ele>1005.5</ele>
        <time>2020-08-25T11:48:36Z</time>
      </trkpt>
      <trkpt lat="43.66196" lon="2.64687">
        <ele>1006.1</ele>
        <time>2020-08-25T11:49:21Z</time>
      </trkpt>
      <trkpt lat="43.66212" lon="2.64556">
        <ele>1006.8</ele>
        <time>2020-08-25T11:50:07Z</time>
      </trkpt>
      <trkpt lat="43.66222" lon="2.64419">
        <ele>1008.3</ele>
        <time>2020-08-25T11:51:01Z</time>
      </trkpt>
      <trkpt lat="43.6614" lon="2.64354">
        <ele>1010.2</ele>
        <time>2020-08-25T11:51:53Z</time>
      </trkpt>
      <trkpt lat="43.66053" lon="2.64316">
        <ele>1011.5</ele>
        <time>2020-08-25T11:52:33Z</time>
      </trkpt>
      <trkpt lat="43.6596" lon="2.64333">
        <ele>1013.1</ele>
        <time>2020-08-25T11:53:12Z</time>
      </trkpt>
      <trkpt lat="43.6587" lon="2.64338">
        <ele>1014.5</ele>
        <time>2020-08-25T11:53:47Z</time>
      </trkpt>
      <trkpt lat="43.65788" lon="2.6428">
        <ele>1016.8</ele>
        <time>2020-08-25T11:54:33Z</time>
      </trkpt>
      <trkpt lat="43.657" lon="2.6421">
        <ele>1019.3</ele>
        <time>2020-08-25T11:55:21Z</time>
      </trkpt>
      <trkpt lat="43.65604" lon="2.64243">
        <ele>1021.3</ele>
        <time>2020-08-25T11:56:06Z</time>
      </trkpt>
      <trkpt lat="43.65508" lon="2.6427">
        <ele>1024</ele>
        <time>2020-08-25T11:56:51Z</time>
      </trkpt>
      <trkpt lat="43.65413" lon="2.64265">
        <ele>1027.5</ele>
        <time>2020-08-25T11:57:31Z</time>
      </trkpt>
      <trkpt lat="43.65312" lon="2.64273">
        <ele>1031.7</ele>
        <time>2020-08-25T11:58:11Z</time>
      </trkpt>
      <trkpt lat="43.65235" lon="2.64201">
        <ele>1035.8</ele>
        <time>2020-08-25T11:58:52Z</time>
      </trkpt>
      <trkpt lat="43.65161" lon="2.64103">
        <ele>1039.1</ele>
        <time>2020-08-25T11:59:27Z</time>
      </trkpt>
      <trkpt lat="43.65085" lon="2.6401">
        <ele>1041.9</ele>
        <time>2020-08-25T12:00:02Z</time>
      </trkpt>
      <trkpt lat="43.65021" lon="2.6391">
        <ele>1044.4</ele>
        <time>2020-08-25T12:00:37Z</time>
      </trkpt>
      <trkpt lat="43.64987" lon="2.63779">
        <ele>1046.5</ele>
        <time>2020-08-25T12:01:12Z</time>
      </trkpt>
      <trkpt lat="43.6497" lon="2.63656">
        <ele>1047.9</ele>
        <time>2020-08-25T12:01:42Z</time>
      </trkpt>
      <trkpt lat="43.6489" lon="2.63574">
        <ele>1050.2</ele>
        <time>2020-08-25T12:02:17Z</time>
      </trkpt>
      <trkpt lat="43.64797" lon="2.63558">
        <ele>1054.7</ele>
        <time>2020-08-25T12:02:37Z</time>
      </trkpt>
      <trkpt lat="43.64693" lon="2.63497">
        <ele>1056.5</ele>
        <time>2020-08-25T12:02:57Z</time>
      </trkpt>
      <trkpt lat="43.64619" lon="2.6342">
        <ele>1057.3</ele>
        <time>2020-08-25T12:03:12Z</time>
      </trkpt>
      <trkpt lat="43.64535" lon="2.63347">
        <ele>1057.1</ele>
        <time>2020-08-25T12:03:27Z</time>
      </trkpt>
      <trkpt lat="43.64456" lon="2.63282">
        <ele>1057.4</ele>
        <time>2020-08-25T12:03:42Z</time>
      </trkpt>
      <trkpt lat="43.64379" lon="2.63212">
        <ele>1058.5</ele>
        <time>2020-08-25T12:04:12Z</time>
      </trkpt>
      <trkpt lat="43.64274" lon="2.63184">
        <ele>1062.6</ele>
        <time>2020-08-25T12:04:47Z</time>
      </trkpt>
      <trkpt lat="43.64181" lon="2.63179">
        <ele>1062.7</ele>
        <time>2020-08-25T12:05:12Z</time>
      </trkpt>
      <trkpt lat="43.64072" lon="2.63148">
        <ele>1063</ele>
        <time>2020-08-25T12:05:42Z</time>
      </trkpt>
      <trkpt lat="43.63981" lon="2.63113">
        <ele>1061.2</ele>
        <time>2020-08-25T12:05:57Z</time>
      </trkpt>
      <trkpt lat="43.63888" lon="2.63018">
        <ele>1058.4</ele>
        <time>2020-08-25T12:06:12Z</time>
      </trkpt>
      <trkpt lat="43.63772" lon="2.62937">
        <ele>1054</ele>
        <time>2020-08-25T12:06:27Z</time>
      </trkpt>
      <trkpt lat="43.63655" lon="2.62856">
        <ele>1047.4</ele>
        <time>2020-08-25T12:06:37Z</time>
      </trkpt>
      <trkpt lat="43.63564" lon="2.62794">
        <ele>1042.1</ele>
        <time>2020-08-25T12:06:47Z</time>
      </trkpt>
      <trkpt lat="43.63482" lon="2.62696">
        <ele>1035.4</ele>
        <time>2020-08-25T12:06:57Z</time>
      </trkpt>
      <trkpt lat="43.6338" lon="2.62622">
        <ele>1028.1</ele>
        <time>2020-08-25T12:07:07Z</time>
      </trkpt>
      <trkpt lat="43.63291" lon="2.62524">
        <ele>1004.5</ele>
        <time>2020-08-25T12:07:22Z</time>
      </trkpt>
      <trkpt lat="43.63226" lon="2.62406">
        <ele>995.4</ele>
        <time>2020-08-25T12:07:32Z</time>
      </trkpt>
      <trkpt lat="43.63148" lon="2.62308">
        <ele>988.4</ele>
        <time>2020-08-25T12:07:42Z</time>
      </trkpt>
      <trkpt lat="43.63062" lon="2.62207">
        <ele>978.4</ele>
        <time>2020-08-25T12:07:52Z</time>
      </trkpt>
      <trkpt lat="43.62956" lon="2.62134">
        <ele>972.6</ele>
        <time>2020-08-25T12:08:02Z</time>
      </trkpt>
      <trkpt lat="43.62847" lon="2.62066">
        <ele>963.3</ele>
        <time>2020-08-25T12:08:12Z</time>
      </trkpt>
      <trkpt lat="43.62747" lon="2.61949">
        <ele>953.1</ele>
        <time>2020-08-25T12:08:22Z</time>
      </trkpt>
      <trkpt lat="43.62661" lon="2.61785">
        <ele>943.5</ele>
        <time>2020-08-25T12:08:32Z</time>
      </trkpt>
      <trkpt lat="43.62583" lon="2.61707">
        <ele>936.3</ele>
        <time>2020-08-25T12:08:42Z</time>
      </trkpt>
      <trkpt lat="43.62503" lon="2.61544">
        <ele>919.7</ele>
        <time>2020-08-25T12:08:57Z</time>
      </trkpt>
      <trkpt lat="43.62496" lon="2.61408">
        <ele>922.6</ele>
        <time>2020-08-25T12:09:07Z</time>
      </trkpt>
      <trkpt lat="43.62462" lon="2.61263">
        <ele>904.9</ele>
        <time>2020-08-25T12:09:27Z</time>
      </trkpt>
      <trkpt lat="43.62444" lon="2.61095">
        <ele>908</ele>
        <time>2020-08-25T12:10:32Z</time>
      </trkpt>
      <trkpt lat="43.62439" lon="2.60961">
        <ele>900.6</ele>
        <time>2020-08-25T12:10:47Z</time>
      </trkpt>
      <trkpt lat="43.62344" lon="2.60872">
        <ele>886.9</ele>
        <time>2020-08-25T12:11:07Z</time>
      </trkpt>
      <trkpt lat="43.62255" lon="2.60788">
        <ele>880.8</ele>
        <time>2020-08-25T12:11:17Z</time>
      </trkpt>
      <trkpt lat="43.62165" lon="2.60735">
        <ele>872.1</ele>
        <time>2020-08-25T12:11:27Z</time>
      </trkpt>
      <trkpt lat="43.62081" lon="2.6067">
        <ele>861.5</ele>
        <time>2020-08-25T12:11:37Z</time>
      </trkpt>
      <trkpt lat="43.61988" lon="2.60619">
        <ele>856.6</ele>
        <time>2020-08-25T12:11:52Z</time>
      </trkpt>
      <trkpt lat="43.61881" lon="2.60567">
        <ele>854.3</ele>
        <time>2020-08-25T12:12:22Z</time>
      </trkpt>
      <trkpt lat="43.61771" lon="2.60583">
        <ele>854.1</ele>
        <time>2020-08-25T12:12:42Z</time>
      </trkpt>
      <trkpt lat="43.61681" lon="2.60505">
        <ele>846.8</ele>
        <time>2020-08-25T12:13:02Z</time>
      </trkpt>
      <trkpt lat="43.61594" lon="2.60344">
        <ele>841.9</ele>
        <time>2020-08-25T12:13:17Z</time>
      </trkpt>
      <trkpt lat="43.61488" lon="2.60311">
        <ele>835.9</ele>
        <time>2020-08-25T12:13:32Z</time>
      </trkpt>
      <trkpt lat="43.61375" lon="2.60246">
        <ele>830.1</ele>
        <time>2020-08-25T12:13:47Z</time>
      </trkpt>
      <trkpt lat="43.61275" lon="2.60168">
        <ele>820.5</ele>
        <time>2020-08-25T12:14:02Z</time>
      </trkpt>
      <trkpt lat="43.61188" lon="2.60123">
        <ele>822.4</ele>
        <time>2020-08-25T12:14:12Z</time>
      </trkpt>
      <trkpt lat="43.61102" lon="2.60028">
        <ele>821.6</ele>
        <time>2020-08-25T12:14:27Z</time>
      </trkpt>
      <trkpt lat="43.61018" lon="2.59954">
        <ele>816.5</ele>
        <time>2020-08-25T12:14:47Z</time>
      </trkpt>
      <trkpt lat="43.60923" lon="2.59898">
        <ele>808.2</ele>
        <time>2020-08-25T12:15:07Z</time>
      </trkpt>
      <trkpt lat="43.60831" lon="2.59894">
        <ele>807.2</ele>
        <time>2020-08-25T12:15:27Z</time>
      </trkpt>
      <trkpt lat="43.60735" lon="2.59888">
        <ele>806.7</ele>
        <time>2020-08-25T12:15:47Z</time>
      </trkpt>
      <trkpt lat="43.60638" lon="2.59897">
        <ele>805</ele>
        <time>2020-08-25T12:16:07Z</time>
      </trkpt>
      <trkpt lat="43.60518" lon="2.59909">
        <ele>802</ele>
        <time>2020-08-25T12:16:22Z</time>
      </trkpt>
      <trkpt lat="43.6042" lon="2.59951">
        <ele>799</ele>
        <time>2020-08-25T12:16:37Z</time>
      </trkpt>
      <trkpt lat="43.60288" lon="2.59944">
        <ele>791.2</ele>
        <time>2020-08-25T12:16:52Z</time>
      </trkpt>
      <trkpt lat="43.60187" lon="2.59899">
        <ele>786.5</ele>
        <time>2020-08-25T12:17:02Z</time>
      </trkpt>
      <trkpt lat="43.60065" lon="2.59905">
        <ele>782.8</ele>
        <time>2020-08-25T12:17:12Z</time>
      </trkpt>
      <trkpt lat="43.59962" lon="2.5984">
        <ele>778.1</ele>
        <time>2020-08-25T12:17:22Z</time>
      </trkpt>
      <trkpt lat="43.59883" lon="2.59754">
        <ele>767.5</ele>
        <time>2020-08-25T12:17:32Z</time>
      </trkpt>
      <trkpt lat="43.59792" lon="2.59795">
        <ele>762.2</ele>
        <time>2020-08-25T12:17:41Z</time>
      </trkpt>
      <trkpt lat="43.59735" lon="2.59926">
        <ele>751.4</ele>
        <time>2020-08-25T12:17:56Z</time>
      </trkpt>
      <trkpt lat="43.59635" lon="2.60012">
        <ele>743.4</ele>
        <time>2020-08-25T12:18:11Z</time>
      </trkpt>
      <trkpt lat="43.59555" lon="2.59895">
        <ele>737.1</ele>
        <time>2020-08-25T12:18:26Z</time>
      </trkpt>
      <trkpt lat="43.59562" lon="2.59746">
        <ele>739.9</ele>
        <time>2020-08-25T12:18:41Z</time>
      </trkpt>
      <trkpt lat="43.59528" lon="2.59618">
        <ele>731.5</ele>
        <time>2020-08-25T12:19:01Z</time>
      </trkpt>
      <trkpt lat="43.59479" lon="2.59498">
        <ele>723.9</ele>
        <time>2020-08-25T12:19:26Z</time>
      </trkpt>
      <trkpt lat="43.59383" lon="2.59481">
        <ele>722.4</ele>
        <time>2020-08-25T12:19:56Z</time>
      </trkpt>
      <trkpt lat="43.59371" lon="2.59352">
        <ele>723</ele>
        <time>2020-08-25T12:20:36Z</time>
      </trkpt>
      <trkpt lat="43.59325" lon="2.59235">
        <ele>724.5</ele>
        <time>2020-08-25T12:21:26Z</time>
      </trkpt>
      <trkpt lat="43.59229" lon="2.59243">
        <ele>726.3</ele>
        <time>2020-08-25T12:22:07Z</time>
      </trkpt>
      <trkpt lat="43.59138" lon="2.59266">
        <ele>729</ele>
        <time>2020-08-25T12:22:52Z</time>
      </trkpt>
      <trkpt lat="43.59105" lon="2.59385">
        <ele>731</ele>
        <time>2020-08-25T12:23:33Z</time>
      </trkpt>
      <trkpt lat="43.59089" lon="2.59513">
        <ele>732.7</ele>
        <time>2020-08-25T12:24:13Z</time>
      </trkpt>
      <trkpt lat="43.59061" lon="2.59647">
        <ele>734.5</ele>
        <time>2020-08-25T12:24:48Z</time>
      </trkpt>
      <trkpt lat="43.59032" lon="2.59769">
        <ele>736.3</ele>
        <time>2020-08-25T12:25:18Z</time>
      </trkpt>
      <trkpt lat="43.59069" lon="2.59912">
        <ele>738.4</ele>
        <time>2020-08-25T12:26:28Z</time>
      </trkpt>
      <trkpt lat="43.58997" lon="2.59832">
        <ele>742</ele>
        <time>2020-08-25T12:27:48Z</time>
      </trkpt>
      <trkpt lat="43.58999" lon="2.59695">
        <ele>745.6</ele>
        <time>2020-08-25T12:28:38Z</time>
      </trkpt>
      <trkpt lat="43.59014" lon="2.59567">
        <ele>748.8</ele>
        <time>2020-08-25T12:29:27Z</time>
      </trkpt>
      <trkpt lat="43.59021" lon="2.59443">
        <ele>751.5</ele>
        <time>2020-08-25T12:30:13Z</time>
      </trkpt>
      <trkpt lat="43.59008" lon="2.59317">
        <ele>757.1</ele>
        <time>2020-08-25T12:31:07Z</time>
      </trkpt>
      <trkpt lat="43.58986" lon="2.59183">
        <ele>767.3</ele>
        <time>2020-08-25T12:31:58Z</time>
      </trkpt>
      <trkpt lat="43.58916" lon="2.5909">
        <ele>772.7</ele>
        <time>2020-08-25T12:32:43Z</time>
      </trkpt>
      <trkpt lat="43.58832" lon="2.59156">
        <ele>774.7</ele>
        <time>2020-08-25T12:33:34Z</time>
      </trkpt>
      <trkpt lat="43.58789" lon="2.59038">
        <ele>776.5</ele>
        <time>2020-08-25T12:34:31Z</time>
      </trkpt>
      <trkpt lat="43.5871" lon="2.59113">
        <ele>778.2</ele>
        <time>2020-08-25T12:35:32Z</time>
      </trkpt>
      <trkpt lat="43.58623" lon="2.59075">
        <ele>780.7</ele>
        <time>2020-08-25T12:36:34Z</time>
      </trkpt>
      <trkpt lat="43.5854" lon="2.59016">
        <ele>784</ele>
        <time>2020-08-25T12:37:21Z</time>
      </trkpt>
      <trkpt lat="43.58578" lon="2.58886">
        <ele>786.9</ele>
        <time>2020-08-25T12:38:06Z</time>
      </trkpt>
      <trkpt lat="43.58553" lon="2.58752">
        <ele>789</ele>
        <time>2020-08-25T12:38:41Z</time>
      </trkpt>
      <trkpt lat="43.58532" lon="2.58617">
        <ele>791.3</ele>
        <time>2020-08-25T12:39:21Z</time>
      </trkpt>
      <trkpt lat="43.58526" lon="2.58485">
        <ele>794</ele>
        <time>2020-08-25T12:40:06Z</time>
      </trkpt>
      <trkpt lat="43.58478" lon="2.58367">
        <ele>796.1</ele>
        <time>2020-08-25T12:40:52Z</time>
      </trkpt>
      <trkpt lat="43.58393" lon="2.58305">
        <ele>798.1</ele>
        <time>2020-08-25T12:41:42Z</time>
      </trkpt>
      <trkpt lat="43.58368" lon="2.58176">
        <ele>810.3</ele>
        <time>2020-08-25T12:43:02Z</time>
      </trkpt>
      <trkpt lat="43.58363" lon="2.58042">
        <ele>819.7</ele>
        <time>2020-08-25T12:43:59Z</time>
      </trkpt>
      <trkpt lat="43.58331" lon="2.57916">
        <ele>827</ele>
        <time>2020-08-25T12:44:56Z</time>
      </trkpt>
      <trkpt lat="43.58287" lon="2.57794">
        <ele>831.3</ele>
        <time>2020-08-25T12:45:55Z</time>
      </trkpt>
      <trkpt lat="43.58211" lon="2.57714">
        <ele>833.8</ele>
        <time>2020-08-25T12:46:53Z</time>
      </trkpt>
      <trkpt lat="43.58151" lon="2.57618">
        <ele>839.5</ele>
        <time>2020-08-25T12:48:00Z</time>
      </trkpt>
      <trkpt lat="43.58062" lon="2.57652">
        <ele>842.4</ele>
        <time>2020-08-25T12:48:49Z</time>
      </trkpt>
      <trkpt lat="43.58068" lon="2.57522">
        <ele>847.2</ele>
        <time>2020-08-25T12:49:45Z</time>
      </trkpt>
      <trkpt lat="43.5808" lon="2.57397">
        <ele>850.9</ele>
        <time>2020-08-25T12:50:25Z</time>
      </trkpt>
      <trkpt lat="43.58001" lon="2.57325">
        <ele>855</ele>
        <time>2020-08-25T12:51:16Z</time>
      </trkpt>
      <trkpt lat="43.57903" lon="2.57324">
        <ele>858.5</ele>
        <time>2020-08-25T12:52:13Z</time>
      </trkpt>
      <trkpt lat="43.5779" lon="2.57319">
        <ele>861.1</ele>
        <time>2020-08-25T12:52:54Z</time>
      </trkpt>
      <trkpt lat="43.57665" lon="2.57295">
        <ele>861</ele>
        <time>2020-08-25T12:53:09Z</time>
      </trkpt>
      <trkpt lat="43.57559" lon="2.57272">
        <ele>860.1</ele>
        <time>2020-08-25T12:53:19Z</time>
      </trkpt>
      <trkpt lat="43.57462" lon="2.57249">
        <ele>859.6</ele>
        <time>2020-08-25T12:53:29Z</time>
      </trkpt>
      <trkpt lat="43.57353" lon="2.5719">
        <ele>856.1</ele>
        <time>2020-08-25T12:53:44Z</time>
      </trkpt>
      <trkpt lat="43.57252" lon="2.57138">
        <ele>854.3</ele>
        <time>2020-08-25T12:53:59Z</time>
      </trkpt>
      <trkpt lat="43.57145" lon="2.57211">
        <ele>853.5</ele>
        <time>2020-08-25T12:54:14Z</time>
      </trkpt>
      <trkpt lat="43.5703" lon="2.57245">
        <ele>849.4</ele>
        <time>2020-08-25T12:54:29Z</time>
      </trkpt>
      <trkpt lat="43.56973" lon="2.57142">
        <ele>847.6</ele>
        <time>2020-08-25T12:54:44Z</time>
      </trkpt>
      <trkpt lat="43.56866" lon="2.57037">
        <ele>842.8</ele>
        <time>2020-08-25T12:54:59Z</time>
      </trkpt>
      <trkpt lat="43.56778" lon="2.56912">
        <ele>838.8</ele>
        <time>2020-08-25T12:55:14Z</time>
      </trkpt>
      <trkpt lat="43.56716" lon="2.56781">
        <ele>835.5</ele>
        <time>2020-08-25T12:55:29Z</time>
      </trkpt>
      <trkpt lat="43.56764" lon="2.56635">
        <ele>831.5</ele>
        <time>2020-08-25T12:55:44Z</time>
      </trkpt>
      <trkpt lat="43.5668" lon="2.56573">
        <ele>825.6</ele>
        <time>2020-08-25T12:55:59Z</time>
      </trkpt>
      <trkpt lat="43.56573" lon="2.56513">
        <ele>822.1</ele>
        <time>2020-08-25T12:56:14Z</time>
      </trkpt>
      <trkpt lat="43.56502" lon="2.56432">
        <ele>818.6</ele>
        <time>2020-08-25T12:56:29Z</time>
      </trkpt>
      <trkpt lat="43.56421" lon="2.56354">
        <ele>816.3</ele>
        <time>2020-08-25T12:56:54Z</time>
      </trkpt>
      <trkpt lat="43.56354" lon="2.56254">
        <ele>813.6</ele>
        <time>2020-08-25T12:57:24Z</time>
      </trkpt>
      <trkpt lat="43.56335" lon="2.56113">
        <ele>811.3</ele>
        <time>2020-08-25T12:57:44Z</time>
      </trkpt>
      <trkpt lat="43.56343" lon="2.55966">
        <ele>808.3</ele>
        <time>2020-08-25T12:58:35Z</time>
      </trkpt>
      <trkpt lat="43.56361" lon="2.55843">
        <ele>805.5</ele>
        <time>2020-08-25T12:58:55Z</time>
      </trkpt>
      <trkpt lat="43.56443" lon="2.55787">
        <ele>802.3</ele>
        <time>2020-08-25T12:59:10Z</time>
      </trkpt>
      <trkpt lat="43.56548" lon="2.55694">
        <ele>796.5</ele>
        <time>2020-08-25T12:59:25Z</time>
      </trkpt>
      <trkpt lat="43.56582" lon="2.55543">
        <ele>795.7</ele>
        <time>2020-08-25T12:59:40Z</time>
      </trkpt>
      <trkpt lat="43.56603" lon="2.55423">
        <ele>793.8</ele>
        <time>2020-08-25T13:00:27Z</time>
      </trkpt>
      <trkpt lat="43.56664" lon="2.55324">
        <ele>794.2</ele>
        <time>2020-08-25T13:01:32Z</time>
      </trkpt>
      <trkpt lat="43.56746" lon="2.55266">
        <ele>796.7</ele>
        <time>2020-08-25T13:02:26Z</time>
      </trkpt>
      <trkpt lat="43.56768" lon="2.55141">
        <ele>798.4</ele>
        <time>2020-08-25T13:03:19Z</time>
      </trkpt>
      <trkpt lat="43.56748" lon="2.5501">
        <ele>800.9</ele>
        <time>2020-08-25T13:04:15Z</time>
      </trkpt>
      <trkpt lat="43.56694" lon="2.54905">
        <ele>804.9</ele>
        <time>2020-08-25T13:05:01Z</time>
      </trkpt>
      <trkpt lat="43.56661" lon="2.54773">
        <ele>807</ele>
        <time>2020-08-25T13:05:36Z</time>
      </trkpt>
      <trkpt lat="43.56684" lon="2.54626">
        <ele>810.4</ele>
        <time>2020-08-25T13:07:42Z</time>
      </trkpt>
      <trkpt lat="43.56715" lon="2.54496">
        <ele>810</ele>
        <time>2020-08-25T13:07:57Z</time>
      </trkpt>
      <trkpt lat="43.56663" lon="2.54378">
        <ele>810.7</ele>
        <time>2020-08-25T13:08:22Z</time>
      </trkpt>
      <trkpt lat="43.56608" lon="2.54273">
        <ele>810.2</ele>
        <time>2020-08-25T13:08:47Z</time>
      </trkpt>
      <trkpt lat="43.56522" lon="2.54212">
        <ele>808.3</ele>
        <time>2020-08-25T13:09:07Z</time>
      </trkpt>
      <trkpt lat="43.56421" lon="2.5419">
        <ele>808.7</ele>
        <time>2020-08-25T13:09:27Z</time>
      </trkpt>
      <trkpt lat="43.5631" lon="2.54199">
        <ele>811.1</ele>
        <time>2020-08-25T13:09:59Z</time>
      </trkpt>
      <trkpt lat="43.56325" lon="2.54069">
        <ele>809.1</ele>
        <time>2020-08-25T13:10:19Z</time>
      </trkpt>
      <trkpt lat="43.56318" lon="2.53885">
        <ele>806.8</ele>
        <time>2020-08-25T13:10:39Z</time>
      </trkpt>
      <trkpt lat="43.56317" lon="2.53725">
        <ele>804.2</ele>
        <time>2020-08-25T13:10:54Z</time>
      </trkpt>
      <trkpt lat="43.56245" lon="2.53622">
        <ele>805.5</ele>
        <time>2020-08-25T13:11:14Z</time>
      </trkpt>
      <trkpt lat="43.56279" lon="2.53496">
        <ele>807.3</ele>
        <time>2020-08-25T13:12:36Z</time>
      </trkpt>
      <trkpt lat="43.56336" lon="2.53401">
        <ele>808.9</ele>
        <time>2020-08-25T13:13:20Z</time>
      </trkpt>
      <trkpt lat="43.56359" lon="2.53274">
        <ele>810.6</ele>
        <time>2020-08-25T13:13:45Z</time>
      </trkpt>
      <trkpt lat="43.56348" lon="2.53119">
        <ele>810.4</ele>
        <time>2020-08-25T13:14:05Z</time>
      </trkpt>
      <trkpt lat="43.56356" lon="2.52959">
        <ele>809.7</ele>
        <time>2020-08-25T13:14:30Z</time>
      </trkpt>
      <trkpt lat="43.56352" lon="2.52832">
        <ele>808.6</ele>
        <time>2020-08-25T13:14:45Z</time>
      </trkpt>
      <trkpt lat="43.56385" lon="2.52717">
        <ele>807.6</ele>
        <time>2020-08-25T13:15:00Z</time>
      </trkpt>
      <trkpt lat="43.56416" lon="2.52576">
        <ele>803.9</ele>
        <time>2020-08-25T13:15:15Z</time>
      </trkpt>
      <trkpt lat="43.56359" lon="2.52477">
        <ele>804.2</ele>
        <time>2020-08-25T13:16:38Z</time>
      </trkpt>
      <trkpt lat="43.56281" lon="2.52405">
        <ele>803.4</ele>
        <time>2020-08-25T13:17:03Z</time>
      </trkpt>
      <trkpt lat="43.56232" lon="2.52259">
        <ele>800.7</ele>
        <time>2020-08-25T13:17:23Z</time>
      </trkpt>
      <trkpt lat="43.56263" lon="2.52127">
        <ele>796.1</ele>
        <time>2020-08-25T13:17:38Z</time>
      </trkpt>
      <trkpt lat="43.56325" lon="2.51984">
        <ele>788.9</ele>
        <time>2020-08-25T13:17:58Z</time>
      </trkpt>
      <trkpt lat="43.56374" lon="2.51847">
        <ele>782.2</ele>
        <time>2020-08-25T13:18:13Z</time>
      </trkpt>
      <trkpt lat="43.5636" lon="2.51692">
        <ele>778.1</ele>
        <time>2020-08-25T13:18:28Z</time>
      </trkpt>
      <trkpt lat="43.56299" lon="2.51555">
        <ele>773.5</ele>
        <time>2020-08-25T13:18:43Z</time>
      </trkpt>
      <trkpt lat="43.56276" lon="2.51431">
        <ele>767.5</ele>
        <time>2020-08-25T13:18:53Z</time>
      </trkpt>
      <trkpt lat="43.56205" lon="2.51284">
        <ele>758.2</ele>
        <time>2020-08-25T13:19:08Z</time>
      </trkpt>
      <trkpt lat="43.56189" lon="2.51155">
        <ele>761.1</ele>
        <time>2020-08-25T13:19:33Z</time>
      </trkpt>
      <trkpt lat="43.56148" lon="2.51031">
        <ele>763.8</ele>
        <time>2020-08-25T13:20:41Z</time>
      </trkpt>
      <trkpt lat="43.56053" lon="2.51059">
        <ele>768.4</ele>
        <time>2020-08-25T13:21:47Z</time>
      </trkpt>
      <trkpt lat="43.55949" lon="2.51034">
        <ele>767.4</ele>
        <time>2020-08-25T13:22:17Z</time>
      </trkpt>
      <trkpt lat="43.55893" lon="2.5091">
        <ele>767</ele>
        <time>2020-08-25T13:22:47Z</time>
      </trkpt>
      <trkpt lat="43.55808" lon="2.50824">
        <ele>766.1</ele>
        <time>2020-08-25T13:23:17Z</time>
      </trkpt>
      <trkpt lat="43.55756" lon="2.5069">
        <ele>767.9</ele>
        <time>2020-08-25T13:23:47Z</time>
      </trkpt>
      <trkpt lat="43.55753" lon="2.50561">
        <ele>774</ele>
        <time>2020-08-25T13:24:07Z</time>
      </trkpt>
      <trkpt lat="43.55699" lon="2.50455">
        <ele>770</ele>
        <time>2020-08-25T13:24:32Z</time>
      </trkpt>
      <trkpt lat="43.55702" lon="2.50295">
        <ele>766.5</ele>
        <time>2020-08-25T13:24:57Z</time>
      </trkpt>
      <trkpt lat="43.55624" lon="2.50199">
        <ele>764.2</ele>
        <time>2020-08-25T13:25:17Z</time>
      </trkpt>
      <trkpt lat="43.55532" lon="2.50167">
        <ele>762.2</ele>
        <time>2020-08-25T13:25:47Z</time>
      </trkpt>
      <trkpt lat="43.55434" lon="2.50191">
        <ele>761.7</ele>
        <time>2020-08-25T13:26:17Z</time>
      </trkpt>
      <trkpt lat="43.55353" lon="2.50259">
        <ele>761.8</ele>
        <time>2020-08-25T13:26:57Z</time>
      </trkpt>
      <trkpt lat="43.55284" lon="2.50336">
        <ele>762.2</ele>
        <time>2020-08-25T13:27:43Z</time>
      </trkpt>
      <trkpt lat="43.55198" lon="2.50416">
        <ele>762.5</ele>
        <time>2020-08-25T13:28:23Z</time>
      </trkpt>
      <trkpt lat="43.55106" lon="2.5043">
        <ele>762.8</ele>
        <time>2020-08-25T13:28:53Z</time>
      </trkpt>
      <trkpt lat="43.55031" lon="2.50358">
        <ele>763.4</ele>
        <time>2020-08-25T13:29:23Z</time>
      </trkpt>
      <trkpt lat="43.54968" lon="2.50468">
        <ele>764</ele>
        <time>2020-08-25T13:29:53Z</time>
      </trkpt>
      <trkpt lat="43.54895" lon="2.50369">
        <ele>765</ele>
        <time>2020-08-25T13:30:28Z</time>
      </trkpt>
      <trkpt lat="43.54803" lon="2.50342">
        <ele>766.6</ele>
        <time>2020-08-25T13:31:08Z</time>
      </trkpt>
      <trkpt lat="43.54839" lon="2.50223">
        <ele>768.2</ele>
        <time>2020-08-25T13:31:53Z</time>
      </trkpt>
      <trkpt lat="43.54838" lon="2.50095">
        <ele>769.7</ele>
        <time>2020-08-25T13:32:47Z</time>
      </trkpt>
      <trkpt lat="43.54924" lon="2.50009">
        <ele>770.8</ele>
        <time>2020-08-25T13:33:22Z</time>
      </trkpt>
      <trkpt lat="43.54997" lon="2.49899">
        <ele>771.8</ele>
        <time>2020-08-25T13:33:47Z</time>
      </trkpt>
      <trkpt lat="43.5505" lon="2.49761">
        <ele>773.8</ele>
        <time>2020-08-25T13:34:12Z</time>
      </trkpt>
      <trkpt lat="43.55084" lon="2.49634">
        <ele>775.3</ele>
        <time>2020-08-25T13:34:32Z</time>
      </trkpt>
      <trkpt lat="43.54975" lon="2.49583">
        <ele>776.1</ele>
        <time>2020-08-25T13:35:12Z</time>
      </trkpt>
      <trkpt lat="43.54913" lon="2.49481">
        <ele>776.5</ele>
        <time>2020-08-25T13:35:32Z</time>
      </trkpt>
      <trkpt lat="43.54815" lon="2.49495">
        <ele>776.6</ele>
        <time>2020-08-25T13:35:57Z</time>
      </trkpt>
      <trkpt lat="43.54744" lon="2.49606">
        <ele>776.7</ele>
        <time>2020-08-25T13:36:22Z</time>
      </trkpt>
      <trkpt lat="43.54649" lon="2.49654">
        <ele>776.7</ele>
        <time>2020-08-25T13:36:52Z</time>
      </trkpt>
      <trkpt lat="43.54563" lon="2.49612">
        <ele>774.9</ele>
        <time>2020-08-25T13:44:34Z</time>
      </trkpt>
      <trkpt lat="43.54474" lon="2.49579">
        <ele>774.7</ele>
        <time>2020-08-25T13:45:04Z</time>
      </trkpt>
      <trkpt lat="43.54433" lon="2.49411">
        <ele>775.1</ele>
        <time>2020-08-25T13:45:29Z</time>
      </trkpt>
      <trkpt lat="43.5443" lon="2.4927">
        <ele>774.6</ele>
        <time>2020-08-25T13:45:44Z</time>
      </trkpt>
      <trkpt lat="43.54344" lon="2.49196">
        <ele>767.5</ele>
        <time>2020-08-25T13:46:04Z</time>
      </trkpt>
      <trkpt lat="43.5431" lon="2.4907">
        <ele>764.8</ele>
        <time>2020-08-25T13:46:19Z</time>
      </trkpt>
      <trkpt lat="43.54265" lon="2.4894">
        <ele>767</ele>
        <time>2020-08-25T13:46:39Z</time>
      </trkpt>
      <trkpt lat="43.54285" lon="2.48806">
        <ele>767.2</ele>
        <time>2020-08-25T13:47:04Z</time>
      </trkpt>
      <trkpt lat="43.54318" lon="2.48652">
        <ele>765.1</ele>
        <time>2020-08-25T13:47:24Z</time>
      </trkpt>
      <trkpt lat="43.54339" lon="2.48483">
        <ele>761.4</ele>
        <time>2020-08-25T13:47:44Z</time>
      </trkpt>
      <trkpt lat="43.54399" lon="2.48387">
        <ele>757.5</ele>
        <time>2020-08-25T13:47:59Z</time>
      </trkpt>
      <trkpt lat="43.54343" lon="2.48286">
        <ele>754.7</ele>
        <time>2020-08-25T13:49:15Z</time>
      </trkpt>
      <trkpt lat="43.54266" lon="2.48216">
        <ele>755.2</ele>
        <time>2020-08-25T13:50:02Z</time>
      </trkpt>
      <trkpt lat="43.54174" lon="2.48199">
        <ele>756.6</ele>
        <time>2020-08-25T13:50:48Z</time>
      </trkpt>
      <trkpt lat="43.5407" lon="2.48212">
        <ele>757.8</ele>
        <time>2020-08-25T13:51:13Z</time>
      </trkpt>
      <trkpt lat="43.54041" lon="2.48079">
        <ele>757.4</ele>
        <time>2020-08-25T13:51:28Z</time>
      </trkpt>
      <trkpt lat="43.53995" lon="2.47961">
        <ele>757.1</ele>
        <time>2020-08-25T13:51:43Z</time>
      </trkpt>
      <trkpt lat="43.53983" lon="2.47823">
        <ele>757.6</ele>
        <time>2020-08-25T13:52:29Z</time>
      </trkpt>
      <trkpt lat="43.53989" lon="2.47681">
        <ele>761.6</ele>
        <time>2020-08-25T13:53:30Z</time>
      </trkpt>
      <trkpt lat="43.54006" lon="2.47546">
        <ele>763.2</ele>
        <time>2020-08-25T13:54:00Z</time>
      </trkpt>
      <trkpt lat="43.54026" lon="2.47421">
        <ele>763.8</ele>
        <time>2020-08-25T13:54:30Z</time>
      </trkpt>
      <trkpt lat="43.53963" lon="2.47294">
        <ele>767.4</ele>
        <time>2020-08-25T13:55:00Z</time>
      </trkpt>
      <trkpt lat="43.53874" lon="2.47224">
        <ele>765.8</ele>
        <time>2020-08-25T13:55:20Z</time>
      </trkpt>
      <trkpt lat="43.53801" lon="2.47106">
        <ele>765.1</ele>
        <time>2020-08-25T13:55:40Z</time>
      </trkpt>
      <trkpt lat="43.53696" lon="2.47111">
        <ele>760.9</ele>
        <time>2020-08-25T13:55:55Z</time>
      </trkpt>
      <trkpt lat="43.53596" lon="2.47084">
        <ele>758</ele>
        <time>2020-08-25T13:56:10Z</time>
      </trkpt>
      <trkpt lat="43.53539" lon="2.46982">
        <ele>753.1</ele>
        <time>2020-08-25T13:56:24Z</time>
      </trkpt>
      <trkpt lat="43.53485" lon="2.4711">
        <ele>746.4</ele>
        <time>2020-08-25T13:56:39Z</time>
      </trkpt>
      <trkpt lat="43.53398" lon="2.47158">
        <ele>738.8</ele>
        <time>2020-08-25T13:56:54Z</time>
      </trkpt>
      <trkpt lat="43.53288" lon="2.47195">
        <ele>729</ele>
        <time>2020-08-25T13:57:09Z</time>
      </trkpt>
      <trkpt lat="43.53189" lon="2.47197">
        <ele>727.9</ele>
        <time>2020-08-25T13:57:19Z</time>
      </trkpt>
      <trkpt lat="43.53119" lon="2.47087">
        <ele>726.8</ele>
        <time>2020-08-25T13:57:29Z</time>
      </trkpt>
      <trkpt lat="43.53086" lon="2.46961">
        <ele>721.3</ele>
        <time>2020-08-25T13:57:39Z</time>
      </trkpt>
      <trkpt lat="43.52998" lon="2.4691">
        <ele>718</ele>
        <time>2020-08-25T13:57:49Z</time>
      </trkpt>
      <trkpt lat="43.52908" lon="2.46827">
        <ele>701.7</ele>
        <time>2020-08-25T13:57:59Z</time>
      </trkpt>
      <trkpt lat="43.52824" lon="2.46734">
        <ele>692.5</ele>
        <time>2020-08-25T13:58:09Z</time>
      </trkpt>
      <trkpt lat="43.52764" lon="2.46588">
        <ele>685.7</ele>
        <time>2020-08-25T13:58:24Z</time>
      </trkpt>
      <trkpt lat="43.52678" lon="2.46511">
        <ele>680.7</ele>
        <time>2020-08-25T13:58:59Z</time>
      </trkpt>
      <trkpt lat="43.52633" lon="2.46358">
        <ele>672.6</ele>
        <time>2020-08-25T13:59:14Z</time>
      </trkpt>
      <trkpt lat="43.52539" lon="2.46341">
        <ele>662.1</ele>
        <time>2020-08-25T13:59:24Z</time>
      </trkpt>
      <trkpt lat="43.52448" lon="2.46334">
        <ele>645.8</ele>
        <time>2020-08-25T14:00:36Z</time>
      </trkpt>
      <trkpt lat="43.5254" lon="2.46398">
        <ele>636.5</ele>
        <time>2020-08-25T14:01:20Z</time>
      </trkpt>
      <trkpt lat="43.52528" lon="2.46527">
        <ele>632.9</ele>
        <time>2020-08-25T14:01:35Z</time>
      </trkpt>
      <trkpt lat="43.5244" lon="2.46604">
        <ele>624.9</ele>
        <time>2020-08-25T14:02:05Z</time>
      </trkpt>
      <trkpt lat="43.52398" lon="2.46725">
        <ele>619.1</ele>
        <time>2020-08-25T14:02:20Z</time>
      </trkpt>
      <trkpt lat="43.52315" lon="2.46662">
        <ele>624.4</ele>
        <time>2020-08-25T14:03:00Z</time>
      </trkpt>
      <trkpt lat="43.52252" lon="2.46564">
        <ele>624.9</ele>
        <time>2020-08-25T14:03:25Z</time>
      </trkpt>
      <trkpt lat="43.52168" lon="2.46611">
        <ele>619.4</ele>
        <time>2020-08-25T14:03:45Z</time>
      </trkpt>
      <trkpt lat="43.52072" lon="2.46629">
        <ele>616.4</ele>
        <time>2020-08-25T14:04:05Z</time>
      </trkpt>
      <trkpt lat="43.52002" lon="2.46731">
        <ele>614.1</ele>
        <time>2020-08-25T14:05:46Z</time>
      </trkpt>
      <trkpt lat="43.51963" lon="2.46856">
        <ele>613.1</ele>
        <time>2020-08-25T14:06:42Z</time>
      </trkpt>
      <trkpt lat="43.51893" lon="2.46939">
        <ele>614</ele>
        <time>2020-08-25T14:07:30Z</time>
      </trkpt>
      <trkpt lat="43.5188" lon="2.47079">
        <ele>615.5</ele>
        <time>2020-08-25T14:08:15Z</time>
      </trkpt>
      <trkpt lat="43.51787" lon="2.47084">
        <ele>619.8</ele>
        <time>2020-08-25T14:09:22Z</time>
      </trkpt>
      <trkpt lat="43.51702" lon="2.47147">
        <ele>621.5</ele>
        <time>2020-08-25T14:10:10Z</time>
      </trkpt>
      <trkpt lat="43.51636" lon="2.47036">
        <ele>624.9</ele>
        <time>2020-08-25T14:10:58Z</time>
      </trkpt>
      <trkpt lat="43.51551" lon="2.47115">
        <ele>624.7</ele>
        <time>2020-08-25T14:11:18Z</time>
      </trkpt>
      <trkpt lat="43.51465" lon="2.47202">
        <ele>620.5</ele>
        <time>2020-08-25T14:11:33Z</time>
      </trkpt>
      <trkpt lat="43.51454" lon="2.47384">
        <ele>609.2</ele>
        <time>2020-08-25T14:11:48Z</time>
      </trkpt>
      <trkpt lat="43.51443" lon="2.47515">
        <ele>604.7</ele>
        <time>2020-08-25T14:11:58Z</time>
      </trkpt>
      <trkpt lat="43.51343" lon="2.47633">
        <ele>601.6</ele>
        <time>2020-08-25T14:12:13Z</time>
      </trkpt>
      <trkpt lat="43.5142" lon="2.4773">
        <ele>597.6</ele>
        <time>2020-08-25T14:12:38Z</time>
      </trkpt>
      <trkpt lat="43.51458" lon="2.47858">
        <ele>593.8</ele>
        <time>2020-08-25T14:12:48Z</time>
      </trkpt>
      <trkpt lat="43.51364" lon="2.47827">
        <ele>592.4</ele>
        <time>2020-08-25T14:13:36Z</time>
      </trkpt>
      <trkpt lat="43.5127" lon="2.47858">
        <ele>593.9</ele>
        <time>2020-08-25T14:14:44Z</time>
      </trkpt>
      <trkpt lat="43.51181" lon="2.47803">
        <ele>594.2</ele>
        <time>2020-08-25T14:15:42Z</time>
      </trkpt>
      <trkpt lat="43.51159" lon="2.47673">
        <ele>599.6</ele>
        <time>2020-08-25T14:16:53Z</time>
      </trkpt>
      <trkpt lat="43.51177" lon="2.47543">
        <ele>602.3</ele>
        <time>2020-08-25T14:17:53Z</time>
      </trkpt>
      <trkpt lat="43.51202" lon="2.47416">
        <ele>604.3</ele>
        <time>2020-08-25T14:18:43Z</time>
      </trkpt>
      <trkpt lat="43.51135" lon="2.4733">
        <ele>605.4</ele>
        <time>2020-08-25T14:19:23Z</time>
      </trkpt>
      <trkpt lat="43.51063" lon="2.47246">
        <ele>607.7</ele>
        <time>2020-08-25T14:19:58Z</time>
      </trkpt>
      <trkpt lat="43.50984" lon="2.4712">
        <ele>607.8</ele>
        <time>2020-08-25T14:20:13Z</time>
      </trkpt>
      <trkpt lat="43.50994" lon="2.46944">
        <ele>602.5</ele>
        <time>2020-08-25T14:20:28Z</time>
      </trkpt>
      <trkpt lat="43.50968" lon="2.468">
        <ele>599</ele>
        <time>2020-08-25T14:20:43Z</time>
      </trkpt>
      <trkpt lat="43.5097" lon="2.46673">
        <ele>594.3</ele>
        <time>2020-08-25T14:21:02Z</time>
      </trkpt>
      <trkpt lat="43.51021" lon="2.46551">
        <ele>589.5</ele>
        <time>2020-08-25T14:21:17Z</time>
      </trkpt>
      <trkpt lat="43.51052" lon="2.46429">
        <ele>587.7</ele>
        <time>2020-08-25T14:21:32Z</time>
      </trkpt>
      <trkpt lat="43.51006" lon="2.46302">
        <ele>586</ele>
        <time>2020-08-25T14:21:57Z</time>
      </trkpt>
      <trkpt lat="43.50991" lon="2.46174">
        <ele>584.6</ele>
        <time>2020-08-25T14:22:22Z</time>
      </trkpt>
      <trkpt lat="43.50983" lon="2.46027">
        <ele>582.7</ele>
        <time>2020-08-25T14:22:47Z</time>
      </trkpt>
      <trkpt lat="43.51042" lon="2.45872">
        <ele>578.9</ele>
        <time>2020-08-25T14:23:02Z</time>
      </trkpt>
      <trkpt lat="43.51054" lon="2.45747">
        <ele>575.9</ele>
        <time>2020-08-25T14:23:12Z</time>
      </trkpt>
      <trkpt lat="43.51044" lon="2.4557">
        <ele>571.8</ele>
        <time>2020-08-25T14:23:27Z</time>
      </trkpt>
      <trkpt lat="43.51046" lon="2.45393">
        <ele>566.3</ele>
        <time>2020-08-25T14:23:42Z</time>
      </trkpt>
      <trkpt lat="43.51054" lon="2.45266">
        <ele>561.9</ele>
        <time>2020-08-25T14:23:52Z</time>
      </trkpt>
      <trkpt lat="43.51044" lon="2.45128">
        <ele>556.4</ele>
        <time>2020-08-25T14:24:02Z</time>
      </trkpt>
      <trkpt lat="43.51059" lon="2.44982">
        <ele>552.3</ele>
        <time>2020-08-25T14:24:12Z</time>
      </trkpt>
      <trkpt lat="43.51045" lon="2.44841">
        <ele>547.9</ele>
        <time>2020-08-25T14:24:22Z</time>
      </trkpt>
      <trkpt lat="43.50998" lon="2.447">
        <ele>540.6</ele>
        <time>2020-08-25T14:24:37Z</time>
      </trkpt>
      <trkpt lat="43.50943" lon="2.44591">
        <ele>535.7</ele>
        <time>2020-08-25T14:24:57Z</time>
      </trkpt>
      <trkpt lat="43.50896" lon="2.44474">
        <ele>530.9</ele>
        <time>2020-08-25T14:25:22Z</time>
      </trkpt>
      <trkpt lat="43.50848" lon="2.44327">
        <ele>526.2</ele>
        <time>2020-08-25T14:25:42Z</time>
      </trkpt>
      <trkpt lat="43.50819" lon="2.44196">
        <ele>524.3</ele>
        <time>2020-08-25T14:26:07Z</time>
      </trkpt>
      <trkpt lat="43.50833" lon="2.44031">
        <ele>519.6</ele>
        <time>2020-08-25T14:26:27Z</time>
      </trkpt>
      <trkpt lat="43.50801" lon="2.43903">
        <ele>516.2</ele>
        <time>2020-08-25T14:26:42Z</time>
      </trkpt>
      <trkpt lat="43.50779" lon="2.43776">
        <ele>510.8</ele>
        <time>2020-08-25T14:27:26Z</time>
      </trkpt>
      <trkpt lat="43.50757" lon="2.43644">
        <ele>507.2</ele>
        <time>2020-08-25T14:27:46Z</time>
      </trkpt>
      <trkpt lat="43.50763" lon="2.435">
        <ele>501.6</ele>
        <time>2020-08-25T14:28:06Z</time>
      </trkpt>
      <trkpt lat="43.50778" lon="2.43309">
        <ele>495.6</ele>
        <time>2020-08-25T14:28:21Z</time>
      </trkpt>
      <trkpt lat="43.50774" lon="2.43164">
        <ele>491</ele>
        <time>2020-08-25T14:28:31Z</time>
      </trkpt>
      <trkpt lat="43.50775" lon="2.43005">
        <ele>485.5</ele>
        <time>2020-08-25T14:28:46Z</time>
      </trkpt>
      <trkpt lat="43.5077" lon="2.42867">
        <ele>479.6</ele>
        <time>2020-08-25T14:29:06Z</time>
      </trkpt>
      <trkpt lat="43.50754" lon="2.42727">
        <ele>475.1</ele>
        <time>2020-08-25T14:29:26Z</time>
      </trkpt>
      <trkpt lat="43.50751" lon="2.42573">
        <ele>470.4</ele>
        <time>2020-08-25T14:29:41Z</time>
      </trkpt>
      <trkpt lat="43.50724" lon="2.42422">
        <ele>464.2</ele>
        <time>2020-08-25T14:29:56Z</time>
      </trkpt>
      <trkpt lat="43.50614" lon="2.42356">
        <ele>457.3</ele>
        <time>2020-08-25T14:30:11Z</time>
      </trkpt>
      <trkpt lat="43.505" lon="2.42288">
        <ele>449</ele>
        <time>2020-08-25T14:30:53Z</time>
      </trkpt>
      <trkpt lat="43.50427" lon="2.42141">
        <ele>442.1</ele>
        <time>2020-08-25T14:31:08Z</time>
      </trkpt>
      <trkpt lat="43.50372" lon="2.41991">
        <ele>434.4</ele>
        <time>2020-08-25T14:31:23Z</time>
      </trkpt>
      <trkpt lat="43.50331" lon="2.41865">
        <ele>428.5</ele>
        <time>2020-08-25T14:31:33Z</time>
      </trkpt>
      <trkpt lat="43.50266" lon="2.41756">
        <ele>419.7</ele>
        <time>2020-08-25T14:31:43Z</time>
      </trkpt>
      <trkpt lat="43.50265" lon="2.4162">
        <ele>411.8</ele>
        <time>2020-08-25T14:31:53Z</time>
      </trkpt>
      <trkpt lat="43.50309" lon="2.41475">
        <ele>403.4</ele>
        <time>2020-08-25T14:32:03Z</time>
      </trkpt>
      <trkpt lat="43.50284" lon="2.41352">
        <ele>391.4</ele>
        <time>2020-08-25T14:32:13Z</time>
      </trkpt>
      <trkpt lat="43.5021" lon="2.41268">
        <ele>382.4</ele>
        <time>2020-08-25T14:32:23Z</time>
      </trkpt>
      <trkpt lat="43.50108" lon="2.41352">
        <ele>373.4</ele>
        <time>2020-08-25T14:32:38Z</time>
      </trkpt>
      <trkpt lat="43.5015" lon="2.41179">
        <ele>364</ele>
        <time>2020-08-25T14:32:53Z</time>
      </trkpt>
      <trkpt lat="43.50167" lon="2.41053">
        <ele>357.5</ele>
        <time>2020-08-25T14:33:03Z</time>
      </trkpt>
      <trkpt lat="43.50136" lon="2.40906">
        <ele>348.9</ele>
        <time>2020-08-25T14:33:18Z</time>
      </trkpt>
      <trkpt lat="43.50201" lon="2.40787">
        <ele>317.4</ele>
        <time>2020-08-25T14:35:38Z</time>
      </trkpt>
      <trkpt lat="43.50297" lon="2.4076">
        <ele>312.1</ele>
        <time>2020-08-25T14:35:53Z</time>
      </trkpt>
      <trkpt lat="43.50272" lon="2.40637">
        <ele>307.6</ele>
        <time>2020-08-25T14:36:38Z</time>
      </trkpt>
      <trkpt lat="43.5022" lon="2.40505">
        <ele>302.3</ele>
        <time>2020-08-25T14:37:03Z</time>
      </trkpt>
      <trkpt lat="43.50167" lon="2.4038">
        <ele>299.5</ele>
        <time>2020-08-25T14:37:28Z</time>
      </trkpt>
      <trkpt lat="43.50105" lon="2.40265">
        <ele>297.5</ele>
        <time>2020-08-25T14:37:53Z</time>
      </trkpt>
      <trkpt lat="43.50013" lon="2.40219">
        <ele>296.9</ele>
        <time>2020-08-25T14:38:18Z</time>
      </trkpt>
      <trkpt lat="43.49936" lon="2.40118">
        <ele>295.4</ele>
        <time>2020-08-25T14:38:48Z</time>
      </trkpt>
      <trkpt lat="43.49826" lon="2.40062">
        <ele>293.7</ele>
        <time>2020-08-25T14:39:03Z</time>
      </trkpt>
      <trkpt lat="43.49731" lon="2.40003">
        <ele>289.8</ele>
        <time>2020-08-25T14:39:23Z</time>
      </trkpt>
      <trkpt lat="43.49732" lon="2.39876">
        <ele>288.3</ele>
        <time>2020-08-25T14:39:43Z</time>
      </trkpt>
      <trkpt lat="43.49747" lon="2.39751">
        <ele>283.9</ele>
        <time>2020-08-25T14:40:03Z</time>
      </trkpt>
      <trkpt lat="43.49758" lon="2.39626">
        <ele>283.4</ele>
        <time>2020-08-25T14:40:23Z</time>
      </trkpt>
      <trkpt lat="43.49772" lon="2.39487">
        <ele>280.3</ele>
        <time>2020-08-25T14:40:48Z</time>
      </trkpt>
      <trkpt lat="43.49788" lon="2.39353">
        <ele>278.1</ele>
        <time>2020-08-25T14:42:20Z</time>
      </trkpt>
      <trkpt lat="43.49804" lon="2.392">
        <ele>273.1</ele>
        <time>2020-08-25T14:42:45Z</time>
      </trkpt>
      <trkpt lat="43.49817" lon="2.39075">
        <ele>272.6</ele>
        <time>2020-08-25T14:43:05Z</time>
      </trkpt>
      <trkpt lat="43.4983" lon="2.3895">
        <ele>271.6</ele>
        <time>2020-08-25T14:43:25Z</time>
      </trkpt>
      <trkpt lat="43.49844" lon="2.38825">
        <ele>271.1</ele>
        <time>2020-08-25T14:43:45Z</time>
      </trkpt>
      <trkpt lat="43.49897" lon="2.38699">
        <ele>270.3</ele>
        <time>2020-08-25T14:44:10Z</time>
      </trkpt>
      <trkpt lat="43.49974" lon="2.38615">
        <ele>269.8</ele>
        <time>2020-08-25T14:44:35Z</time>
      </trkpt>
      <trkpt lat="43.49895" lon="2.38534">
        <ele>270.9</ele>
        <time>2020-08-25T14:45:10Z</time>
      </trkpt>
      <trkpt lat="43.49826" lon="2.38436">
        <ele>273.3</ele>
        <time>2020-08-25T14:46:04Z</time>
      </trkpt>
      <trkpt lat="43.49762" lon="2.38346">
        <ele>276</ele>
        <time>2020-08-25T14:46:55Z</time>
      </trkpt>
      <trkpt lat="43.49697" lon="2.38257">
        <ele>282.8</ele>
        <time>2020-08-25T14:50:19Z</time>
      </trkpt>
      <trkpt lat="43.49624" lon="2.38155">
        <ele>285.3</ele>
        <time>2020-08-25T14:51:26Z</time>
      </trkpt>
      <trkpt lat="43.49557" lon="2.38059">
        <ele>286.5</ele>
        <time>2020-08-25T14:52:55Z</time>
      </trkpt>
      <trkpt lat="43.49489" lon="2.37972">
        <ele>286.9</ele>
        <time>2020-08-25T14:53:25Z</time>
      </trkpt>
      <trkpt lat="43.49525" lon="2.37839">
        <ele>287.4</ele>
        <time>2020-08-25T14:53:55Z</time>
      </trkpt>
      <trkpt lat="43.49564" lon="2.37725">
        <ele>287.3</ele>
        <time>2020-08-25T14:54:10Z</time>
      </trkpt>
      <trkpt lat="43.49641" lon="2.37635">
        <ele>286.9</ele>
        <time>2020-08-25T14:54:40Z</time>
      </trkpt>
      <trkpt lat="43.49708" lon="2.37533">
        <ele>285.8</ele>
        <time>2020-08-25T14:56:02Z</time>
      </trkpt>
      <trkpt lat="43.49768" lon="2.37433">
        <ele>283.2</ele>
        <time>2020-08-25T14:56:27Z</time>
      </trkpt>
      <trkpt lat="43.49825" lon="2.37335">
        <ele>282.6</ele>
        <time>2020-08-25T14:56:52Z</time>
      </trkpt>
      <trkpt lat="43.49894" lon="2.37221">
        <ele>282.4</ele>
        <time>2020-08-25T14:57:22Z</time>
      </trkpt>
      <trkpt lat="43.49957" lon="2.37119">
        <ele>282.2</ele>
        <time>2020-08-25T14:57:47Z</time>
      </trkpt>
      <trkpt lat="43.49997" lon="2.36994">
        <ele>282.4</ele>
        <time>2020-08-25T14:58:17Z</time>
      </trkpt>
      <trkpt lat="43.49937" lon="2.3689">
        <ele>283</ele>
        <time>2020-08-25T14:58:57Z</time>
      </trkpt>
      <trkpt lat="43.49841" lon="2.36847">
        <ele>284.6</ele>
        <time>2020-08-25T14:59:44Z</time>
      </trkpt>
      <trkpt lat="43.49859" lon="2.36722">
        <ele>286.6</ele>
        <time>2020-08-25T15:00:34Z</time>
      </trkpt>
      <trkpt lat="43.49929" lon="2.36645">
        <ele>287.2</ele>
        <time>2020-08-25T15:00:59Z</time>
      </trkpt>
      <trkpt lat="43.49912" lon="2.36513">
        <ele>287.7</ele>
        <time>2020-08-25T15:02:06Z</time>
      </trkpt>
      <trkpt lat="43.49841" lon="2.3642">
        <ele>289.3</ele>
        <time>2020-08-25T15:03:30Z</time>
      </trkpt>
    </trkseg>
  </trk>
  <trk>
    <name><![CDATA[route113]]></name>
    <trkseg>
      <trkpt lat="43.49746" lon="2.36413">
        <ele>305.3</ele>
        <time>2020-08-26T08:11:49Z</time>
      </trkpt>
      <trkpt lat="43.49646" lon="2.36431">
        <ele>304.9</ele>
        <time>2020-08-26T08:12:29Z</time>
      </trkpt>
      <trkpt lat="43.49555" lon="2.36458">
        <ele>305.6</ele>
        <time>2020-08-26T08:13:16Z</time>
      </trkpt>
      <trkpt lat="43.49466" lon="2.36511">
        <ele>307</ele>
        <time>2020-08-26T08:13:46Z</time>
      </trkpt>
      <trkpt lat="43.49381" lon="2.36589">
        <ele>307.6</ele>
        <time>2020-08-26T08:14:16Z</time>
      </trkpt>
      <trkpt lat="43.49322" lon="2.36689">
        <ele>308.2</ele>
        <time>2020-08-26T08:14:41Z</time>
      </trkpt>
      <trkpt lat="43.49248" lon="2.36762">
        <ele>308</ele>
        <time>2020-08-26T08:15:01Z</time>
      </trkpt>
      <trkpt lat="43.4919" lon="2.36888">
        <ele>306.5</ele>
        <time>2020-08-26T08:16:02Z</time>
      </trkpt>
      <trkpt lat="43.49188" lon="2.37017">
        <ele>305.6</ele>
        <time>2020-08-26T08:16:27Z</time>
      </trkpt>
      <trkpt lat="43.49182" lon="2.37152">
        <ele>305</ele>
        <time>2020-08-26T08:17:02Z</time>
      </trkpt>
      <trkpt lat="43.49172" lon="2.37288">
        <ele>304.2</ele>
        <time>2020-08-26T08:17:37Z</time>
      </trkpt>
      <trkpt lat="43.49171" lon="2.37427">
        <ele>302.7</ele>
        <time>2020-08-26T08:18:02Z</time>
      </trkpt>
      <trkpt lat="43.49086" lon="2.3751">
        <ele>302.4</ele>
        <time>2020-08-26T08:18:32Z</time>
      </trkpt>
      <trkpt lat="43.48991" lon="2.37524">
        <ele>302.4</ele>
        <time>2020-08-26T08:19:02Z</time>
      </trkpt>
      <trkpt lat="43.48897" lon="2.37509">
        <ele>302.5</ele>
        <time>2020-08-26T08:20:08Z</time>
      </trkpt>
      <trkpt lat="43.48807" lon="2.3745">
        <ele>302.7</ele>
        <time>2020-08-26T08:20:48Z</time>
      </trkpt>
      <trkpt lat="43.48716" lon="2.3739">
        <ele>303.4</ele>
        <time>2020-08-26T08:21:33Z</time>
      </trkpt>
      <trkpt lat="43.48654" lon="2.37296">
        <ele>304.4</ele>
        <time>2020-08-26T08:22:18Z</time>
      </trkpt>
      <trkpt lat="43.48555" lon="2.37304">
        <ele>305.6</ele>
        <time>2020-08-26T08:23:03Z</time>
      </trkpt>
      <trkpt lat="43.48466" lon="2.3734">
        <ele>306.4</ele>
        <time>2020-08-26T08:23:43Z</time>
      </trkpt>
      <trkpt lat="43.48375" lon="2.37376">
        <ele>307.2</ele>
        <time>2020-08-26T08:24:23Z</time>
      </trkpt>
      <trkpt lat="43.48314" lon="2.37483">
        <ele>307.9</ele>
        <time>2020-08-26T08:24:53Z</time>
      </trkpt>
      <trkpt lat="43.4825" lon="2.3759">
        <ele>309</ele>
        <time>2020-08-26T08:25:23Z</time>
      </trkpt>
      <trkpt lat="43.48159" lon="2.37585">
        <ele>310.1</ele>
        <time>2020-08-26T08:25:48Z</time>
      </trkpt>
      <trkpt lat="43.48069" lon="2.37567">
        <ele>311.8</ele>
        <time>2020-08-26T08:26:39Z</time>
      </trkpt>
      <trkpt lat="43.48083" lon="2.37442">
        <ele>314.4</ele>
        <time>2020-08-26T08:27:23Z</time>
      </trkpt>
      <trkpt lat="43.48046" lon="2.37326">
        <ele>317.6</ele>
        <time>2020-08-26T08:28:09Z</time>
      </trkpt>
      <trkpt lat="43.47952" lon="2.373">
        <ele>320.2</ele>
        <time>2020-08-26T08:29:03Z</time>
      </trkpt>
      <trkpt lat="43.47891" lon="2.37194">
        <ele>323.1</ele>
        <time>2020-08-26T08:29:58Z</time>
      </trkpt>
      <trkpt lat="43.47797" lon="2.37188">
        <ele>325.3</ele>
        <time>2020-08-26T08:30:38Z</time>
      </trkpt>
      <trkpt lat="43.47702" lon="2.37179">
        <ele>328.3</ele>
        <time>2020-08-26T08:31:31Z</time>
      </trkpt>
      <trkpt lat="43.47622" lon="2.3725">
        <ele>335</ele>
        <time>2020-08-26T08:32:36Z</time>
      </trkpt>
      <trkpt lat="43.47616" lon="2.37386">
        <ele>342.8</ele>
        <time>2020-08-26T08:33:48Z</time>
      </trkpt>
      <trkpt lat="43.47683" lon="2.37486">
        <ele>346.8</ele>
        <time>2020-08-26T08:34:34Z</time>
      </trkpt>
      <trkpt lat="43.47741" lon="2.37584">
        <ele>349.9</ele>
        <time>2020-08-26T08:35:14Z</time>
      </trkpt>
      <trkpt lat="43.47754" lon="2.37709">
        <ele>352.9</ele>
        <time>2020-08-26T08:36:02Z</time>
      </trkpt>
      <trkpt lat="43.47813" lon="2.37824">
        <ele>355.4</ele>
        <time>2020-08-26T08:36:53Z</time>
      </trkpt>
      <trkpt lat="43.47822" lon="2.37954">
        <ele>357.4</ele>
        <time>2020-08-26T08:37:39Z</time>
      </trkpt>
      <trkpt lat="43.47803" lon="2.38084">
        <ele>360.2</ele>
        <time>2020-08-26T08:38:35Z</time>
      </trkpt>
      <trkpt lat="43.47736" lon="2.38177">
        <ele>366.7</ele>
        <time>2020-08-26T08:39:51Z</time>
      </trkpt>
      <trkpt lat="43.47715" lon="2.38308">
        <ele>371.2</ele>
        <time>2020-08-26T08:40:45Z</time>
      </trkpt>
      <trkpt lat="43.47783" lon="2.38414">
        <ele>374.6</ele>
        <time>2020-08-26T08:41:41Z</time>
      </trkpt>
      <trkpt lat="43.47753" lon="2.38538">
        <ele>378.6</ele>
        <time>2020-08-26T08:42:21Z</time>
      </trkpt>
      <trkpt lat="43.47701" lon="2.3864">
        <ele>385.7</ele>
        <time>2020-08-26T08:43:10Z</time>
      </trkpt>
      <trkpt lat="43.47637" lon="2.38727">
        <ele>393.7</ele>
        <time>2020-08-26T08:44:03Z</time>
      </trkpt>
      <trkpt lat="43.47609" lon="2.38851">
        <ele>398.3</ele>
        <time>2020-08-26T08:44:48Z</time>
      </trkpt>
      <trkpt lat="43.47542" lon="2.38944">
        <ele>402.3</ele>
        <time>2020-08-26T08:45:39Z</time>
      </trkpt>
      <trkpt lat="43.47444" lon="2.38978">
        <ele>405.3</ele>
        <time>2020-08-26T08:46:24Z</time>
      </trkpt>
      <trkpt lat="43.47378" lon="2.39077">
        <ele>408.9</ele>
        <time>2020-08-26T08:47:17Z</time>
      </trkpt>
      <trkpt lat="43.47388" lon="2.39206">
        <ele>413.4</ele>
        <time>2020-08-26T08:48:21Z</time>
      </trkpt>
      <trkpt lat="43.47452" lon="2.393">
        <ele>417</ele>
        <time>2020-08-26T08:49:17Z</time>
      </trkpt>
      <trkpt lat="43.47396" lon="2.39415">
        <ele>419.8</ele>
        <time>2020-08-26T08:50:02Z</time>
      </trkpt>
      <trkpt lat="43.47354" lon="2.39524">
        <ele>424.1</ele>
        <time>2020-08-26T08:50:32Z</time>
      </trkpt>
      <trkpt lat="43.47265" lon="2.39548">
        <ele>430.7</ele>
        <time>2020-08-26T08:51:17Z</time>
      </trkpt>
      <trkpt lat="43.47194" lon="2.39454">
        <ele>436</ele>
        <time>2020-08-26T08:52:06Z</time>
      </trkpt>
      <trkpt lat="43.47113" lon="2.39382">
        <ele>440.8</ele>
        <time>2020-08-26T08:53:02Z</time>
      </trkpt>
      <trkpt lat="43.47064" lon="2.39267">
        <ele>445.1</ele>
        <time>2020-08-26T08:54:03Z</time>
      </trkpt>
      <trkpt lat="43.46986" lon="2.39199">
        <ele>447.6</ele>
        <time>2020-08-26T08:54:50Z</time>
      </trkpt>
      <trkpt lat="43.4689" lon="2.39157">
        <ele>449.6</ele>
        <time>2020-08-26T08:55:35Z</time>
      </trkpt>
      <trkpt lat="43.46802" lon="2.39123">
        <ele>452.5</ele>
        <time>2020-08-26T08:56:28Z</time>
      </trkpt>
      <trkpt lat="43.46702" lon="2.39132">
        <ele>455</ele>
        <time>2020-08-26T08:57:13Z</time>
      </trkpt>
      <trkpt lat="43.46613" lon="2.39065">
        <ele>457.2</ele>
        <time>2020-08-26T08:57:58Z</time>
      </trkpt>
      <trkpt lat="43.46531" lon="2.39009">
        <ele>458.9</ele>
        <time>2020-08-26T08:58:38Z</time>
      </trkpt>
      <trkpt lat="43.46439" lon="2.39029">
        <ele>460.9</ele>
        <time>2020-08-26T08:59:25Z</time>
      </trkpt>
      <trkpt lat="43.46346" lon="2.39005">
        <ele>463.2</ele>
        <time>2020-08-26T09:00:10Z</time>
      </trkpt>
      <trkpt lat="43.46269" lon="2.38906">
        <ele>470.7</ele>
        <time>2020-08-26T09:01:01Z</time>
      </trkpt>
      <trkpt lat="43.4621" lon="2.38803">
        <ele>478.7</ele>
        <time>2020-08-26T09:01:48Z</time>
      </trkpt>
      <trkpt lat="43.46116" lon="2.38825">
        <ele>484.1</ele>
        <time>2020-08-26T09:02:45Z</time>
      </trkpt>
      <trkpt lat="43.46022" lon="2.38782">
        <ele>488.2</ele>
        <time>2020-08-26T09:03:44Z</time>
      </trkpt>
      <trkpt lat="43.45928" lon="2.38758">
        <ele>491.6</ele>
        <time>2020-08-26T09:04:39Z</time>
      </trkpt>
      <trkpt lat="43.45834" lon="2.38725">
        <ele>495.1</ele>
        <time>2020-08-26T09:05:36Z</time>
      </trkpt>
      <trkpt lat="43.45745" lon="2.38668">
        <ele>498.4</ele>
        <time>2020-08-26T09:06:33Z</time>
      </trkpt>
      <trkpt lat="43.4565" lon="2.38655">
        <ele>504.8</ele>
        <time>2020-08-26T09:11:37Z</time>
      </trkpt>
      <trkpt lat="43.45604" lon="2.38544">
        <ele>513.2</ele>
        <time>2020-08-26T09:12:12Z</time>
      </trkpt>
      <trkpt lat="43.4556" lon="2.38432">
        <ele>520.5</ele>
        <time>2020-08-26T09:12:47Z</time>
      </trkpt>
      <trkpt lat="43.45468" lon="2.38381">
        <ele>523</ele>
        <time>2020-08-26T09:13:17Z</time>
      </trkpt>
      <trkpt lat="43.45391" lon="2.3831">
        <ele>524.8</ele>
        <time>2020-08-26T09:13:47Z</time>
      </trkpt>
      <trkpt lat="43.4536" lon="2.38187">
        <ele>526.5</ele>
        <time>2020-08-26T09:14:17Z</time>
      </trkpt>
      <trkpt lat="43.4544" lon="2.38104">
        <ele>528</ele>
        <time>2020-08-26T09:14:52Z</time>
      </trkpt>
      <trkpt lat="43.45517" lon="2.38035">
        <ele>530.4</ele>
        <time>2020-08-26T09:15:40Z</time>
      </trkpt>
      <trkpt lat="43.45548" lon="2.37912">
        <ele>533.6</ele>
        <time>2020-08-26T09:16:26Z</time>
      </trkpt>
      <trkpt lat="43.45452" lon="2.37875">
        <ele>535.6</ele>
        <time>2020-08-26T09:17:01Z</time>
      </trkpt>
      <trkpt lat="43.45361" lon="2.37819">
        <ele>538.3</ele>
        <time>2020-08-26T09:17:58Z</time>
      </trkpt>
      <trkpt lat="43.45282" lon="2.37884">
        <ele>540.6</ele>
        <time>2020-08-26T09:18:49Z</time>
      </trkpt>
      <trkpt lat="43.45233" lon="2.37994">
        <ele>542.8</ele>
        <time>2020-08-26T09:19:55Z</time>
      </trkpt>
      <trkpt lat="43.45156" lon="2.38073">
        <ele>545.2</ele>
        <time>2020-08-26T09:20:53Z</time>
      </trkpt>
      <trkpt lat="43.45103" lon="2.38186">
        <ele>548.8</ele>
        <time>2020-08-26T09:21:54Z</time>
      </trkpt>
      <trkpt lat="43.45026" lon="2.38256">
        <ele>554.3</ele>
        <time>2020-08-26T09:22:49Z</time>
      </trkpt>
      <trkpt lat="43.44947" lon="2.38316">
        <ele>558.9</ele>
        <time>2020-08-26T09:23:41Z</time>
      </trkpt>
      <trkpt lat="43.44885" lon="2.38419">
        <ele>566.7</ele>
        <time>2020-08-26T09:24:50Z</time>
      </trkpt>
      <trkpt lat="43.44816" lon="2.38506">
        <ele>574</ele>
        <time>2020-08-26T09:25:53Z</time>
      </trkpt>
      <trkpt lat="43.4473" lon="2.38551">
        <ele>580.7</ele>
        <time>2020-08-26T09:26:48Z</time>
      </trkpt>
      <trkpt lat="43.4466" lon="2.38646">
        <ele>586</ele>
        <time>2020-08-26T09:27:54Z</time>
      </trkpt>
      <trkpt lat="43.44621" lon="2.38764">
        <ele>589.5</ele>
        <time>2020-08-26T09:28:48Z</time>
      </trkpt>
      <trkpt lat="43.44709" lon="2.38821">
        <ele>592.5</ele>
        <time>2020-08-26T09:29:34Z</time>
      </trkpt>
      <trkpt lat="43.4472" lon="2.38954">
        <ele>596.3</ele>
        <time>2020-08-26T09:30:09Z</time>
      </trkpt>
      <trkpt lat="43.44776" lon="2.39057">
        <ele>600.7</ele>
        <time>2020-08-26T09:30:39Z</time>
      </trkpt>
      <trkpt lat="43.44795" lon="2.39195">
        <ele>604.2</ele>
        <time>2020-08-26T09:31:09Z</time>
      </trkpt>
      <trkpt lat="43.44792" lon="2.39342">
        <ele>606.8</ele>
        <time>2020-08-26T09:31:39Z</time>
      </trkpt>
      <trkpt lat="43.44843" lon="2.39466">
        <ele>608.9</ele>
        <time>2020-08-26T09:32:14Z</time>
      </trkpt>
      <trkpt lat="43.44899" lon="2.39573">
        <ele>610.2</ele>
        <time>2020-08-26T09:32:44Z</time>
      </trkpt>
      <trkpt lat="43.44911" lon="2.39703">
        <ele>611.8</ele>
        <time>2020-08-26T09:33:25Z</time>
      </trkpt>
      <trkpt lat="43.44881" lon="2.39834">
        <ele>615</ele>
        <time>2020-08-26T09:34:14Z</time>
      </trkpt>
      <trkpt lat="43.4479" lon="2.39883">
        <ele>616.9</ele>
        <time>2020-08-26T09:34:59Z</time>
      </trkpt>
      <trkpt lat="43.44701" lon="2.39852">
        <ele>617.9</ele>
        <time>2020-08-26T09:35:39Z</time>
      </trkpt>
      <trkpt lat="43.44614" lon="2.39805">
        <ele>618.4</ele>
        <time>2020-08-26T09:36:19Z</time>
      </trkpt>
      <trkpt lat="43.4453" lon="2.39862">
        <ele>618.7</ele>
        <time>2020-08-26T09:36:59Z</time>
      </trkpt>
      <trkpt lat="43.4445" lon="2.39794">
        <ele>619.7</ele>
        <time>2020-08-26T09:37:53Z</time>
      </trkpt>
      <trkpt lat="43.44363" lon="2.39736">
        <ele>621</ele>
        <time>2020-08-26T09:38:45Z</time>
      </trkpt>
      <trkpt lat="43.44277" lon="2.39675">
        <ele>622.8</ele>
        <time>2020-08-26T09:39:25Z</time>
      </trkpt>
      <trkpt lat="43.44195" lon="2.39604">
        <ele>626.1</ele>
        <time>2020-08-26T09:40:24Z</time>
      </trkpt>
      <trkpt lat="43.44112" lon="2.39529">
        <ele>629.3</ele>
        <time>2020-08-26T09:41:10Z</time>
      </trkpt>
      <trkpt lat="43.44035" lon="2.39596">
        <ele>631.7</ele>
        <time>2020-08-26T09:41:55Z</time>
      </trkpt>
      <trkpt lat="43.44003" lon="2.39712">
        <ele>633.7</ele>
        <time>2020-08-26T09:42:35Z</time>
      </trkpt>
      <trkpt lat="43.43918" lon="2.39769">
        <ele>636.3</ele>
        <time>2020-08-26T09:43:24Z</time>
      </trkpt>
      <trkpt lat="43.4383" lon="2.39836">
        <ele>638</ele>
        <time>2020-08-26T09:44:09Z</time>
      </trkpt>
      <trkpt lat="43.43738" lon="2.39847">
        <ele>639.5</ele>
        <time>2020-08-26T09:44:49Z</time>
      </trkpt>
      <trkpt lat="43.43634" lon="2.39823">
        <ele>644.3</ele>
        <time>2020-08-26T09:45:43Z</time>
      </trkpt>
      <trkpt lat="43.43547" lon="2.39763">
        <ele>649.3</ele>
        <time>2020-08-26T09:46:23Z</time>
      </trkpt>
      <trkpt lat="43.43467" lon="2.39692">
        <ele>654.5</ele>
        <time>2020-08-26T09:47:08Z</time>
      </trkpt>
      <trkpt lat="43.43384" lon="2.39748">
        <ele>658.9</ele>
        <time>2020-08-26T09:49:14Z</time>
      </trkpt>
      <trkpt lat="43.43321" lon="2.39844">
        <ele>660</ele>
        <time>2020-08-26T09:49:54Z</time>
      </trkpt>
      <trkpt lat="43.43266" lon="2.39955">
        <ele>661.4</ele>
        <time>2020-08-26T09:50:35Z</time>
      </trkpt>
      <trkpt lat="43.43177" lon="2.40018">
        <ele>662.8</ele>
        <time>2020-08-26T09:51:15Z</time>
      </trkpt>
      <trkpt lat="43.43095" lon="2.4008">
        <ele>664.6</ele>
        <time>2020-08-26T09:51:55Z</time>
      </trkpt>
      <trkpt lat="43.43039" lon="2.40183">
        <ele>667.9</ele>
        <time>2020-08-26T09:52:50Z</time>
      </trkpt>
      <trkpt lat="43.42948" lon="2.40163">
        <ele>670.5</ele>
        <time>2020-08-26T09:53:30Z</time>
      </trkpt>
      <trkpt lat="43.42865" lon="2.4021">
        <ele>672.2</ele>
        <time>2020-08-26T09:54:05Z</time>
      </trkpt>
      <trkpt lat="43.42786" lon="2.40277">
        <ele>673.8</ele>
        <time>2020-08-26T09:54:40Z</time>
      </trkpt>
      <trkpt lat="43.42696" lon="2.40342">
        <ele>675</ele>
        <time>2020-08-26T09:55:20Z</time>
      </trkpt>
      <trkpt lat="43.42616" lon="2.404">
        <ele>676.2</ele>
        <time>2020-08-26T09:56:03Z</time>
      </trkpt>
      <trkpt lat="43.42527" lon="2.40448">
        <ele>679.9</ele>
        <time>2020-08-26T09:56:43Z</time>
      </trkpt>
      <trkpt lat="43.4251" lon="2.40582">
        <ele>687.3</ele>
        <time>2020-08-26T09:57:13Z</time>
      </trkpt>
      <trkpt lat="43.42517" lon="2.40708">
        <ele>694</ele>
        <time>2020-08-26T09:57:38Z</time>
      </trkpt>
      <trkpt lat="43.42441" lon="2.40781">
        <ele>703</ele>
        <time>2020-08-26T09:58:33Z</time>
      </trkpt>
      <trkpt lat="43.42398" lon="2.40659">
        <ele>701.1</ele>
        <time>2020-08-26T09:59:18Z</time>
      </trkpt>
      <trkpt lat="43.42311" lon="2.40609">
        <ele>704.9</ele>
        <time>2020-08-26T10:00:34Z</time>
      </trkpt>
      <trkpt lat="43.42228" lon="2.40661">
        <ele>709.2</ele>
        <time>2020-08-26T10:01:15Z</time>
      </trkpt>
      <trkpt lat="43.4216" lon="2.40747">
        <ele>714</ele>
        <time>2020-08-26T10:01:55Z</time>
      </trkpt>
      <trkpt lat="43.42081" lon="2.40809">
        <ele>718</ele>
        <time>2020-08-26T10:02:35Z</time>
      </trkpt>
      <trkpt lat="43.41988" lon="2.40842">
        <ele>720.9</ele>
        <time>2020-08-26T10:03:20Z</time>
      </trkpt>
      <trkpt lat="43.41893" lon="2.40878">
        <ele>722.5</ele>
        <time>2020-08-26T10:04:05Z</time>
      </trkpt>
      <trkpt lat="43.41806" lon="2.40926">
        <ele>724.7</ele>
        <time>2020-08-26T10:04:53Z</time>
      </trkpt>
      <trkpt lat="43.41712" lon="2.40918">
        <ele>727.7</ele>
        <time>2020-08-26T10:05:41Z</time>
      </trkpt>
      <trkpt lat="43.41623" lon="2.40861">
        <ele>730.4</ele>
        <time>2020-08-26T10:06:28Z</time>
      </trkpt>
      <trkpt lat="43.41532" lon="2.40838">
        <ele>732.9</ele>
        <time>2020-08-26T10:07:08Z</time>
      </trkpt>
      <trkpt lat="43.41442" lon="2.40861">
        <ele>735.1</ele>
        <time>2020-08-26T10:07:54Z</time>
      </trkpt>
      <trkpt lat="43.41392" lon="2.40974">
        <ele>736.6</ele>
        <time>2020-08-26T10:08:40Z</time>
      </trkpt>
      <trkpt lat="43.41387" lon="2.41106">
        <ele>738.4</ele>
        <time>2020-08-26T10:09:25Z</time>
      </trkpt>
      <trkpt lat="43.41359" lon="2.41248">
        <ele>741.5</ele>
        <time>2020-08-26T10:09:55Z</time>
      </trkpt>
      <trkpt lat="43.41274" lon="2.41306">
        <ele>743</ele>
        <time>2020-08-26T10:12:24Z</time>
      </trkpt>
      <trkpt lat="43.41192" lon="2.41355">
        <ele>744.7</ele>
        <time>2020-08-26T10:13:09Z</time>
      </trkpt>
      <trkpt lat="43.41111" lon="2.41417">
        <ele>745.8</ele>
        <time>2020-08-26T10:13:55Z</time>
      </trkpt>
      <trkpt lat="43.41025" lon="2.41462">
        <ele>747.8</ele>
        <time>2020-08-26T10:14:42Z</time>
      </trkpt>
      <trkpt lat="43.40933" lon="2.41508">
        <ele>750.4</ele>
        <time>2020-08-26T10:15:29Z</time>
      </trkpt>
      <trkpt lat="43.40843" lon="2.4155">
        <ele>752.5</ele>
        <time>2020-08-26T10:16:10Z</time>
      </trkpt>
      <trkpt lat="43.40753" lon="2.41579">
        <ele>755</ele>
        <time>2020-08-26T10:16:50Z</time>
      </trkpt>
      <trkpt lat="43.40673" lon="2.41638">
        <ele>757.8</ele>
        <time>2020-08-26T10:17:31Z</time>
      </trkpt>
      <trkpt lat="43.40625" lon="2.41749">
        <ele>760.6</ele>
        <time>2020-08-26T10:18:19Z</time>
      </trkpt>
      <trkpt lat="43.40593" lon="2.41878">
        <ele>762.9</ele>
        <time>2020-08-26T10:19:09Z</time>
      </trkpt>
      <trkpt lat="43.40559" lon="2.41997">
        <ele>765</ele>
        <time>2020-08-26T10:19:54Z</time>
      </trkpt>
      <trkpt lat="43.40542" lon="2.42119">
        <ele>768.8</ele>
        <time>2020-08-26T10:20:40Z</time>
      </trkpt>
      <trkpt lat="43.40584" lon="2.42234">
        <ele>774.9</ele>
        <time>2020-08-26T10:21:26Z</time>
      </trkpt>
      <trkpt lat="43.40607" lon="2.42355">
        <ele>781.1</ele>
        <time>2020-08-26T10:22:11Z</time>
      </trkpt>
      <trkpt lat="43.40605" lon="2.42489">
        <ele>787.6</ele>
        <time>2020-08-26T10:23:05Z</time>
      </trkpt>
      <trkpt lat="43.40577" lon="2.42608">
        <ele>792.6</ele>
        <time>2020-08-26T10:23:53Z</time>
      </trkpt>
      <trkpt lat="43.40566" lon="2.42734">
        <ele>797.1</ele>
        <time>2020-08-26T10:24:39Z</time>
      </trkpt>
      <trkpt lat="43.40565" lon="2.42858">
        <ele>801.5</ele>
        <time>2020-08-26T10:25:29Z</time>
      </trkpt>
      <trkpt lat="43.40565" lon="2.42989">
        <ele>806.8</ele>
        <time>2020-08-26T10:26:17Z</time>
      </trkpt>
      <trkpt lat="43.40473" lon="2.42963">
        <ele>817.7</ele>
        <time>2020-08-26T10:27:28Z</time>
      </trkpt>
      <trkpt lat="43.40383" lon="2.42959">
        <ele>823.4</ele>
        <time>2020-08-26T10:28:15Z</time>
      </trkpt>
      <trkpt lat="43.40316" lon="2.43054">
        <ele>828.7</ele>
        <time>2020-08-26T10:29:08Z</time>
      </trkpt>
      <trkpt lat="43.40254" lon="2.43142">
        <ele>831.9</ele>
        <time>2020-08-26T10:29:57Z</time>
      </trkpt>
      <trkpt lat="43.40231" lon="2.43261">
        <ele>834.1</ele>
        <time>2020-08-26T10:30:37Z</time>
      </trkpt>
      <trkpt lat="43.40184" lon="2.4339">
        <ele>844.7</ele>
        <time>2020-08-26T10:33:37Z</time>
      </trkpt>
      <trkpt lat="43.40081" lon="2.4341">
        <ele>844.3</ele>
        <time>2020-08-26T10:33:57Z</time>
      </trkpt>
      <trkpt lat="43.39978" lon="2.43295">
        <ele>842.3</ele>
        <time>2020-08-26T10:34:12Z</time>
      </trkpt>
      <trkpt lat="43.39963" lon="2.43147">
        <ele>841.2</ele>
        <time>2020-08-26T10:34:22Z</time>
      </trkpt>
      <trkpt lat="43.3994" lon="2.43">
        <ele>838</ele>
        <time>2020-08-26T10:34:32Z</time>
      </trkpt>
      <trkpt lat="43.39953" lon="2.42861">
        <ele>835.3</ele>
        <time>2020-08-26T10:34:42Z</time>
      </trkpt>
      <trkpt lat="43.39904" lon="2.4273">
        <ele>828.7</ele>
        <time>2020-08-26T10:34:57Z</time>
      </trkpt>
      <trkpt lat="43.39825" lon="2.42611">
        <ele>823.3</ele>
        <time>2020-08-26T10:35:12Z</time>
      </trkpt>
      <trkpt lat="43.39744" lon="2.42538">
        <ele>820.3</ele>
        <time>2020-08-26T10:35:22Z</time>
      </trkpt>
      <trkpt lat="43.3965" lon="2.42507">
        <ele>817.5</ele>
        <time>2020-08-26T10:35:32Z</time>
      </trkpt>
      <trkpt lat="43.39557" lon="2.42525">
        <ele>812.4</ele>
        <time>2020-08-26T10:35:42Z</time>
      </trkpt>
      <trkpt lat="43.39444" lon="2.42463">
        <ele>804.7</ele>
        <time>2020-08-26T10:35:57Z</time>
      </trkpt>
      <trkpt lat="43.3937" lon="2.42358">
        <ele>801.1</ele>
        <time>2020-08-26T10:36:12Z</time>
      </trkpt>
      <trkpt lat="43.39274" lon="2.42323">
        <ele>796.8</ele>
        <time>2020-08-26T10:36:27Z</time>
      </trkpt>
      <trkpt lat="43.39181" lon="2.423">
        <ele>796.7</ele>
        <time>2020-08-26T10:36:57Z</time>
      </trkpt>
      <trkpt lat="43.3908" lon="2.42254">
        <ele>789.6</ele>
        <time>2020-08-26T10:37:40Z</time>
      </trkpt>
      <trkpt lat="43.39053" lon="2.42074">
        <ele>782.3</ele>
        <time>2020-08-26T10:37:55Z</time>
      </trkpt>
      <trkpt lat="43.39031" lon="2.41932">
        <ele>779</ele>
        <time>2020-08-26T10:38:05Z</time>
      </trkpt>
      <trkpt lat="43.38969" lon="2.41785">
        <ele>769.9</ele>
        <time>2020-08-26T10:38:20Z</time>
      </trkpt>
      <trkpt lat="43.38914" lon="2.41652">
        <ele>760.5</ele>
        <time>2020-08-26T10:38:35Z</time>
      </trkpt>
      <trkpt lat="43.38904" lon="2.41484">
        <ele>745.3</ele>
        <time>2020-08-26T10:38:50Z</time>
      </trkpt>
      <trkpt lat="43.38836" lon="2.41384">
        <ele>732.9</ele>
        <time>2020-08-26T10:39:05Z</time>
      </trkpt>
      <trkpt lat="43.38839" lon="2.41214">
        <ele>725.5</ele>
        <time>2020-08-26T10:39:20Z</time>
      </trkpt>
      <trkpt lat="43.38855" lon="2.41058">
        <ele>721.7</ele>
        <time>2020-08-26T10:39:35Z</time>
      </trkpt>
      <trkpt lat="43.38849" lon="2.40918">
        <ele>712</ele>
        <time>2020-08-26T10:39:50Z</time>
      </trkpt>
      <trkpt lat="43.38793" lon="2.40777">
        <ele>700.2</ele>
        <time>2020-08-26T10:40:05Z</time>
      </trkpt>
      <trkpt lat="43.38789" lon="2.40622">
        <ele>693.5</ele>
        <time>2020-08-26T10:40:20Z</time>
      </trkpt>
      <trkpt lat="43.38784" lon="2.40492">
        <ele>689</ele>
        <time>2020-08-26T10:40:30Z</time>
      </trkpt>
      <trkpt lat="43.38764" lon="2.40359">
        <ele>681.4</ele>
        <time>2020-08-26T10:40:40Z</time>
      </trkpt>
      <trkpt lat="43.38717" lon="2.40251">
        <ele>670.9</ele>
        <time>2020-08-26T10:40:50Z</time>
      </trkpt>
      <trkpt lat="43.38717" lon="2.40086">
        <ele>660</ele>
        <time>2020-08-26T10:41:05Z</time>
      </trkpt>
      <trkpt lat="43.38627" lon="2.40021">
        <ele>650.3</ele>
        <time>2020-08-26T10:41:15Z</time>
      </trkpt>
      <trkpt lat="43.38551" lon="2.39893">
        <ele>638</ele>
        <time>2020-08-26T10:41:30Z</time>
      </trkpt>
      <trkpt lat="43.38434" lon="2.39957">
        <ele>625.8</ele>
        <time>2020-08-26T10:41:45Z</time>
      </trkpt>
      <trkpt lat="43.38328" lon="2.39876">
        <ele>615.5</ele>
        <time>2020-08-26T10:42:00Z</time>
      </trkpt>
      <trkpt lat="43.38212" lon="2.39936">
        <ele>611.8</ele>
        <time>2020-08-26T10:42:15Z</time>
      </trkpt>
      <trkpt lat="43.3812" lon="2.3985">
        <ele>598.8</ele>
        <time>2020-08-26T10:42:30Z</time>
      </trkpt>
      <trkpt lat="43.38108" lon="2.39683">
        <ele>583.1</ele>
        <time>2020-08-26T10:42:45Z</time>
      </trkpt>
      <trkpt lat="43.38029" lon="2.39545">
        <ele>566</ele>
        <time>2020-08-26T10:43:00Z</time>
      </trkpt>
      <trkpt lat="43.3798" lon="2.39409">
        <ele>537.5</ele>
        <time>2020-08-26T10:43:15Z</time>
      </trkpt>
      <trkpt lat="43.37929" lon="2.39304">
        <ele>533.3</ele>
        <time>2020-08-26T10:43:25Z</time>
      </trkpt>
      <trkpt lat="43.3802" lon="2.39431">
        <ele>526.8</ele>
        <time>2020-08-26T10:43:45Z</time>
      </trkpt>
      <trkpt lat="43.37988" lon="2.39296">
        <ele>495.2</ele>
        <time>2020-08-26T11:18:42Z</time>
      </trkpt>
      <trkpt lat="43.37935" lon="2.39163">
        <ele>494.6</ele>
        <time>2020-08-26T11:19:07Z</time>
      </trkpt>
      <trkpt lat="43.37925" lon="2.39031">
        <ele>494.1</ele>
        <time>2020-08-26T11:19:17Z</time>
      </trkpt>
      <trkpt lat="43.37925" lon="2.38886">
        <ele>492</ele>
        <time>2020-08-26T11:19:27Z</time>
      </trkpt>
      <trkpt lat="43.37852" lon="2.3881">
        <ele>482.7</ele>
        <time>2020-08-26T11:19:37Z</time>
      </trkpt>
      <trkpt lat="43.37746" lon="2.38764">
        <ele>472.4</ele>
        <time>2020-08-26T11:19:47Z</time>
      </trkpt>
      <trkpt lat="43.37677" lon="2.3866">
        <ele>463.4</ele>
        <time>2020-08-26T11:19:57Z</time>
      </trkpt>
      <trkpt lat="43.3756" lon="2.38597">
        <ele>451.9</ele>
        <time>2020-08-26T11:20:12Z</time>
      </trkpt>
      <trkpt lat="43.37563" lon="2.38415">
        <ele>440.4</ele>
        <time>2020-08-26T11:20:27Z</time>
      </trkpt>
      <trkpt lat="43.37467" lon="2.38333">
        <ele>429.2</ele>
        <time>2020-08-26T11:20:42Z</time>
      </trkpt>
      <trkpt lat="43.3745" lon="2.38192">
        <ele>422.1</ele>
        <time>2020-08-26T11:20:52Z</time>
      </trkpt>
      <trkpt lat="43.37444" lon="2.38036">
        <ele>408.3</ele>
        <time>2020-08-26T11:21:07Z</time>
      </trkpt>
      <trkpt lat="43.3738" lon="2.37903">
        <ele>392</ele>
        <time>2020-08-26T11:21:22Z</time>
      </trkpt>
      <trkpt lat="43.37283" lon="2.37882">
        <ele>384.4</ele>
        <time>2020-08-26T11:22:19Z</time>
      </trkpt>
      <trkpt lat="43.37205" lon="2.37779">
        <ele>379.1</ele>
        <time>2020-08-26T11:22:54Z</time>
      </trkpt>
      <trkpt lat="43.37106" lon="2.37696">
        <ele>373.1</ele>
        <time>2020-08-26T11:23:13Z</time>
      </trkpt>
      <trkpt lat="43.36993" lon="2.37716">
        <ele>369.9</ele>
        <time>2020-08-26T11:23:28Z</time>
      </trkpt>
      <trkpt lat="43.36899" lon="2.37624">
        <ele>361.9</ele>
        <time>2020-08-26T11:23:58Z</time>
      </trkpt>
      <trkpt lat="43.36813" lon="2.3756">
        <ele>358.2</ele>
        <time>2020-08-26T11:24:13Z</time>
      </trkpt>
      <trkpt lat="43.36729" lon="2.37615">
        <ele>352.7</ele>
        <time>2020-08-26T11:24:38Z</time>
      </trkpt>
      <trkpt lat="43.3663" lon="2.37592">
        <ele>351.3</ele>
        <time>2020-08-26T11:25:03Z</time>
      </trkpt>
      <trkpt lat="43.36567" lon="2.37678">
        <ele>350.4</ele>
        <time>2020-08-26T11:25:23Z</time>
      </trkpt>
      <trkpt lat="43.36476" lon="2.37732">
        <ele>348.9</ele>
        <time>2020-08-26T11:25:43Z</time>
      </trkpt>
      <trkpt lat="43.36419" lon="2.37617">
        <ele>344.4</ele>
        <time>2020-08-26T11:26:03Z</time>
      </trkpt>
      <trkpt lat="43.36325" lon="2.37641">
        <ele>343.1</ele>
        <time>2020-08-26T11:26:23Z</time>
      </trkpt>
      <trkpt lat="43.3631" lon="2.37772">
        <ele>341.5</ele>
        <time>2020-08-26T11:26:43Z</time>
      </trkpt>
      <trkpt lat="43.36318" lon="2.37923">
        <ele>339.9</ele>
        <time>2020-08-26T11:27:03Z</time>
      </trkpt>
      <trkpt lat="43.3624" lon="2.38024">
        <ele>338.7</ele>
        <time>2020-08-26T11:27:23Z</time>
      </trkpt>
      <trkpt lat="43.3617" lon="2.38152">
        <ele>336.6</ele>
        <time>2020-08-26T11:27:53Z</time>
      </trkpt>
      <trkpt lat="43.3606" lon="2.38196">
        <ele>334.4</ele>
        <time>2020-08-26T11:28:13Z</time>
      </trkpt>
      <trkpt lat="43.35977" lon="2.38136">
        <ele>331.9</ele>
        <time>2020-08-26T11:28:28Z</time>
      </trkpt>
      <trkpt lat="43.35961" lon="2.37995">
        <ele>327.3</ele>
        <time>2020-08-26T11:28:53Z</time>
      </trkpt>
      <trkpt lat="43.35942" lon="2.37844">
        <ele>326.7</ele>
        <time>2020-08-26T11:29:13Z</time>
      </trkpt>
      <trkpt lat="43.35845" lon="2.37808">
        <ele>323.8</ele>
        <time>2020-08-26T11:29:33Z</time>
      </trkpt>
      <trkpt lat="43.35894" lon="2.37705">
        <ele>321.8</ele>
        <time>2020-08-26T11:29:48Z</time>
      </trkpt>
      <trkpt lat="43.35933" lon="2.37577">
        <ele>317.3</ele>
        <time>2020-08-26T11:30:08Z</time>
      </trkpt>
      <trkpt lat="43.35856" lon="2.375">
        <ele>316.4</ele>
        <time>2020-08-26T11:30:28Z</time>
      </trkpt>
      <trkpt lat="43.35761" lon="2.37588">
        <ele>316.1</ele>
        <time>2020-08-26T11:30:48Z</time>
      </trkpt>
      <trkpt lat="43.35668" lon="2.37676">
        <ele>315.3</ele>
        <time>2020-08-26T11:31:08Z</time>
      </trkpt>
      <trkpt lat="43.35579" lon="2.37618">
        <ele>314.5</ele>
        <time>2020-08-26T11:31:28Z</time>
      </trkpt>
      <trkpt lat="43.35561" lon="2.37456">
        <ele>313.4</ele>
        <time>2020-08-26T11:31:53Z</time>
      </trkpt>
      <trkpt lat="43.35472" lon="2.37372">
        <ele>311.2</ele>
        <time>2020-08-26T11:32:13Z</time>
      </trkpt>
      <trkpt lat="43.35389" lon="2.37437">
        <ele>309.1</ele>
        <time>2020-08-26T11:32:28Z</time>
      </trkpt>
      <trkpt lat="43.35283" lon="2.37411">
        <ele>306.5</ele>
        <time>2020-08-26T11:32:48Z</time>
      </trkpt>
      <trkpt lat="43.35226" lon="2.37512">
        <ele>299.3</ele>
        <time>2020-08-26T11:33:08Z</time>
      </trkpt>
      <trkpt lat="43.35183" lon="2.37662">
        <ele>296.6</ele>
        <time>2020-08-26T11:33:28Z</time>
      </trkpt>
      <trkpt lat="43.35113" lon="2.37745">
        <ele>294.6</ele>
        <time>2020-08-26T11:33:43Z</time>
      </trkpt>
      <trkpt lat="43.35012" lon="2.37818">
        <ele>291.1</ele>
        <time>2020-08-26T11:34:03Z</time>
      </trkpt>
      <trkpt lat="43.34905" lon="2.37838">
        <ele>291</ele>
        <time>2020-08-26T11:34:23Z</time>
      </trkpt>
      <trkpt lat="43.34789" lon="2.37852">
        <ele>290.3</ele>
        <time>2020-08-26T11:34:43Z</time>
      </trkpt>
      <trkpt lat="43.34692" lon="2.37844">
        <ele>290.1</ele>
        <time>2020-08-26T11:34:58Z</time>
      </trkpt>
      <trkpt lat="43.34603" lon="2.37758">
        <ele>287.3</ele>
        <time>2020-08-26T11:35:18Z</time>
      </trkpt>
      <trkpt lat="43.34526" lon="2.37829">
        <ele>284.6</ele>
        <time>2020-08-26T11:35:43Z</time>
      </trkpt>
      <trkpt lat="43.34433" lon="2.37834">
        <ele>284.3</ele>
        <time>2020-08-26T11:36:08Z</time>
      </trkpt>
      <trkpt lat="43.34343" lon="2.3783">
        <ele>282.6</ele>
        <time>2020-08-26T11:36:23Z</time>
      </trkpt>
      <trkpt lat="43.34287" lon="2.37687">
        <ele>280.8</ele>
        <time>2020-08-26T11:36:43Z</time>
      </trkpt>
      <trkpt lat="43.34187" lon="2.37723">
        <ele>276.9</ele>
        <time>2020-08-26T11:37:03Z</time>
      </trkpt>
      <trkpt lat="43.34088" lon="2.37791">
        <ele>274.6</ele>
        <time>2020-08-26T11:37:23Z</time>
      </trkpt>
      <trkpt lat="43.34009" lon="2.37723">
        <ele>273.5</ele>
        <time>2020-08-26T11:37:38Z</time>
      </trkpt>
      <trkpt lat="43.33921" lon="2.37773">
        <ele>271.6</ele>
        <time>2020-08-26T11:37:58Z</time>
      </trkpt>
      <trkpt lat="43.339" lon="2.37941">
        <ele>269.6</ele>
        <time>2020-08-26T11:38:18Z</time>
      </trkpt>
      <trkpt lat="43.33803" lon="2.37952">
        <ele>265.8</ele>
        <time>2020-08-26T11:38:33Z</time>
      </trkpt>
      <trkpt lat="43.33709" lon="2.37948">
        <ele>263.1</ele>
        <time>2020-08-26T11:38:48Z</time>
      </trkpt>
      <trkpt lat="43.33618" lon="2.38035">
        <ele>263.2</ele>
        <time>2020-08-26T11:39:08Z</time>
      </trkpt>
      <trkpt lat="43.33505" lon="2.37999">
        <ele>263.2</ele>
        <time>2020-08-26T11:39:28Z</time>
      </trkpt>
      <trkpt lat="43.33471" lon="2.37873">
        <ele>261.4</ele>
        <time>2020-08-26T11:39:43Z</time>
      </trkpt>
      <trkpt lat="43.33386" lon="2.37818">
        <ele>257.4</ele>
        <time>2020-08-26T11:40:03Z</time>
      </trkpt>
      <trkpt lat="43.33374" lon="2.37948">
        <ele>254.5</ele>
        <time>2020-08-26T11:44:55Z</time>
      </trkpt>
      <trkpt lat="43.33364" lon="2.38099">
        <ele>250.9</ele>
        <time>2020-08-26T11:59:02Z</time>
      </trkpt>
      <trkpt lat="43.33273" lon="2.38099">
        <ele>250.5</ele>
        <time>2020-08-26T11:59:27Z</time>
      </trkpt>
      <trkpt lat="43.33192" lon="2.38184">
        <ele>250</ele>
        <time>2020-08-26T11:59:48Z</time>
      </trkpt>
      <trkpt lat="43.33111" lon="2.3826">
        <ele>249.3</ele>
        <time>2020-08-26T12:00:03Z</time>
      </trkpt>
      <trkpt lat="43.33025" lon="2.3836">
        <ele>247.8</ele>
        <time>2020-08-26T12:00:23Z</time>
      </trkpt>
      <trkpt lat="43.32938" lon="2.38306">
        <ele>245.3</ele>
        <time>2020-08-26T12:00:38Z</time>
      </trkpt>
      <trkpt lat="43.32849" lon="2.38325">
        <ele>243.1</ele>
        <time>2020-08-26T12:00:53Z</time>
      </trkpt>
      <trkpt lat="43.32753" lon="2.3828">
        <ele>238.3</ele>
        <time>2020-08-26T12:01:13Z</time>
      </trkpt>
      <trkpt lat="43.32652" lon="2.38322">
        <ele>236.2</ele>
        <time>2020-08-26T12:01:33Z</time>
      </trkpt>
      <trkpt lat="43.32574" lon="2.38394">
        <ele>234.8</ele>
        <time>2020-08-26T12:01:48Z</time>
      </trkpt>
      <trkpt lat="43.32514" lon="2.38491">
        <ele>236.2</ele>
        <time>2020-08-26T12:02:03Z</time>
      </trkpt>
      <trkpt lat="43.32431" lon="2.38567">
        <ele>234.7</ele>
        <time>2020-08-26T12:02:18Z</time>
      </trkpt>
      <trkpt lat="43.32337" lon="2.38606">
        <ele>232.9</ele>
        <time>2020-08-26T12:02:33Z</time>
      </trkpt>
      <trkpt lat="43.32227" lon="2.38602">
        <ele>231.7</ele>
        <time>2020-08-26T12:02:53Z</time>
      </trkpt>
      <trkpt lat="43.3211" lon="2.38625">
        <ele>229.1</ele>
        <time>2020-08-26T12:03:13Z</time>
      </trkpt>
      <trkpt lat="43.31999" lon="2.38643">
        <ele>226.2</ele>
        <time>2020-08-26T12:03:33Z</time>
      </trkpt>
      <trkpt lat="43.31896" lon="2.38689">
        <ele>224.2</ele>
        <time>2020-08-26T12:03:53Z</time>
      </trkpt>
      <trkpt lat="43.31807" lon="2.38758">
        <ele>225.7</ele>
        <time>2020-08-26T12:04:13Z</time>
      </trkpt>
      <trkpt lat="43.31727" lon="2.38846">
        <ele>227.8</ele>
        <time>2020-08-26T12:04:38Z</time>
      </trkpt>
      <trkpt lat="43.3167" lon="2.38945">
        <ele>227.3</ele>
        <time>2020-08-26T12:05:03Z</time>
      </trkpt>
      <trkpt lat="43.3162" lon="2.39078">
        <ele>226.8</ele>
        <time>2020-08-26T12:05:28Z</time>
      </trkpt>
      <trkpt lat="43.31543" lon="2.39153">
        <ele>225.6</ele>
        <time>2020-08-26T12:05:43Z</time>
      </trkpt>
      <trkpt lat="43.31458" lon="2.3922">
        <ele>224.6</ele>
        <time>2020-08-26T12:05:58Z</time>
      </trkpt>
      <trkpt lat="43.31378" lon="2.39302">
        <ele>223</ele>
        <time>2020-08-26T12:06:13Z</time>
      </trkpt>
      <trkpt lat="43.31307" lon="2.39393">
        <ele>220.2</ele>
        <time>2020-08-26T12:06:28Z</time>
      </trkpt>
      <trkpt lat="43.31205" lon="2.39389">
        <ele>218.4</ele>
        <time>2020-08-26T12:06:43Z</time>
      </trkpt>
      <trkpt lat="43.31116" lon="2.39344">
        <ele>216.2</ele>
        <time>2020-08-26T12:06:58Z</time>
      </trkpt>
      <trkpt lat="43.31024" lon="2.3929">
        <ele>214.7</ele>
        <time>2020-08-26T12:07:13Z</time>
      </trkpt>
      <trkpt lat="43.30937" lon="2.39254">
        <ele>213.4</ele>
        <time>2020-08-26T12:07:28Z</time>
      </trkpt>
      <trkpt lat="43.30844" lon="2.39256">
        <ele>211.2</ele>
        <time>2020-08-26T12:07:43Z</time>
      </trkpt>
      <trkpt lat="43.30745" lon="2.39229">
        <ele>209.4</ele>
        <time>2020-08-26T12:08:03Z</time>
      </trkpt>
      <trkpt lat="43.30655" lon="2.3929">
        <ele>208.5</ele>
        <time>2020-08-26T12:08:23Z</time>
      </trkpt>
      <trkpt lat="43.30564" lon="2.39355">
        <ele>208.2</ele>
        <time>2020-08-26T12:08:43Z</time>
      </trkpt>
      <trkpt lat="43.30466" lon="2.39366">
        <ele>206.9</ele>
        <time>2020-08-26T12:09:03Z</time>
      </trkpt>
      <trkpt lat="43.30365" lon="2.39402">
        <ele>206.8</ele>
        <time>2020-08-26T12:09:23Z</time>
      </trkpt>
      <trkpt lat="43.30252" lon="2.39441">
        <ele>205</ele>
        <time>2020-08-26T12:09:43Z</time>
      </trkpt>
      <trkpt lat="43.30137" lon="2.39463">
        <ele>202.8</ele>
        <time>2020-08-26T12:10:03Z</time>
      </trkpt>
      <trkpt lat="43.30054" lon="2.3952">
        <ele>202.7</ele>
        <time>2020-08-26T12:10:23Z</time>
      </trkpt>
      <trkpt lat="43.2996" lon="2.39562">
        <ele>203</ele>
        <time>2020-08-26T12:10:53Z</time>
      </trkpt>
      <trkpt lat="43.29874" lon="2.39639">
        <ele>203.3</ele>
        <time>2020-08-26T12:11:28Z</time>
      </trkpt>
      <trkpt lat="43.29812" lon="2.39754">
        <ele>204.2</ele>
        <time>2020-08-26T12:11:58Z</time>
      </trkpt>
      <trkpt lat="43.29749" lon="2.39849">
        <ele>205.5</ele>
        <time>2020-08-26T12:12:22Z</time>
      </trkpt>
      <trkpt lat="43.29696" lon="2.39958">
        <ele>205.6</ele>
        <time>2020-08-26T12:12:42Z</time>
      </trkpt>
      <trkpt lat="43.29625" lon="2.40054">
        <ele>205.7</ele>
        <time>2020-08-26T12:13:02Z</time>
      </trkpt>
      <trkpt lat="43.29539" lon="2.40153">
        <ele>206</ele>
        <time>2020-08-26T12:13:22Z</time>
      </trkpt>
      <trkpt lat="43.29433" lon="2.40174">
        <ele>205.9</ele>
        <time>2020-08-26T12:13:42Z</time>
      </trkpt>
      <trkpt lat="43.29332" lon="2.4022">
        <ele>205.6</ele>
        <time>2020-08-26T12:14:02Z</time>
      </trkpt>
      <trkpt lat="43.29225" lon="2.40211">
        <ele>205.4</ele>
        <time>2020-08-26T12:14:22Z</time>
      </trkpt>
      <trkpt lat="43.29126" lon="2.40146">
        <ele>205.1</ele>
        <time>2020-08-26T12:14:42Z</time>
      </trkpt>
      <trkpt lat="43.29042" lon="2.40051">
        <ele>204.8</ele>
        <time>2020-08-26T12:15:02Z</time>
      </trkpt>
      <trkpt lat="43.28958" lon="2.39972">
        <ele>204.5</ele>
        <time>2020-08-26T12:15:22Z</time>
      </trkpt>
      <trkpt lat="43.28842" lon="2.3997">
        <ele>204</ele>
        <time>2020-08-26T12:15:42Z</time>
      </trkpt>
      <trkpt lat="43.28745" lon="2.39979">
        <ele>203.1</ele>
        <time>2020-08-26T12:15:57Z</time>
      </trkpt>
      <trkpt lat="43.28655" lon="2.4002">
        <ele>202.3</ele>
        <time>2020-08-26T12:16:12Z</time>
      </trkpt>
      <trkpt lat="43.28605" lon="2.40134">
        <ele>199.4</ele>
        <time>2020-08-26T12:16:27Z</time>
      </trkpt>
      <trkpt lat="43.28495" lon="2.40117">
        <ele>196.8</ele>
        <time>2020-08-26T12:16:42Z</time>
      </trkpt>
      <trkpt lat="43.28384" lon="2.40094">
        <ele>193.3</ele>
        <time>2020-08-26T12:16:57Z</time>
      </trkpt>
      <trkpt lat="43.28275" lon="2.40074">
        <ele>191.2</ele>
        <time>2020-08-26T12:17:12Z</time>
      </trkpt>
      <trkpt lat="43.28171" lon="2.40111">
        <ele>188.7</ele>
        <time>2020-08-26T12:17:27Z</time>
      </trkpt>
      <trkpt lat="43.28076" lon="2.40121">
        <ele>186.7</ele>
        <time>2020-08-26T12:17:42Z</time>
      </trkpt>
      <trkpt lat="43.27986" lon="2.40105">
        <ele>185.7</ele>
        <time>2020-08-26T12:17:57Z</time>
      </trkpt>
      <trkpt lat="43.27874" lon="2.40084">
        <ele>183.6</ele>
        <time>2020-08-26T12:18:17Z</time>
      </trkpt>
      <trkpt lat="43.27767" lon="2.40064">
        <ele>182.4</ele>
        <time>2020-08-26T12:18:37Z</time>
      </trkpt>
      <trkpt lat="43.27658" lon="2.40041">
        <ele>180.5</ele>
        <time>2020-08-26T12:18:57Z</time>
      </trkpt>
      <trkpt lat="43.27552" lon="2.40011">
        <ele>180.8</ele>
        <time>2020-08-26T12:19:17Z</time>
      </trkpt>
      <trkpt lat="43.27467" lon="2.3993">
        <ele>181.3</ele>
        <time>2020-08-26T12:19:37Z</time>
      </trkpt>
      <trkpt lat="43.27417" lon="2.39815">
        <ele>180.1</ele>
        <time>2020-08-26T12:19:57Z</time>
      </trkpt>
      <trkpt lat="43.27367" lon="2.397">
        <ele>178.9</ele>
        <time>2020-08-26T12:20:17Z</time>
      </trkpt>
      <trkpt lat="43.2729" lon="2.39615">
        <ele>177.7</ele>
        <time>2020-08-26T12:20:37Z</time>
      </trkpt>
      <trkpt lat="43.2719" lon="2.39577">
        <ele>177.2</ele>
        <time>2020-08-26T12:20:57Z</time>
      </trkpt>
      <trkpt lat="43.27088" lon="2.3955">
        <ele>177.2</ele>
        <time>2020-08-26T12:21:17Z</time>
      </trkpt>
      <trkpt lat="43.26997" lon="2.39562">
        <ele>177.1</ele>
        <time>2020-08-26T12:21:37Z</time>
      </trkpt>
      <trkpt lat="43.26909" lon="2.39631">
        <ele>177.3</ele>
        <time>2020-08-26T12:22:02Z</time>
      </trkpt>
      <trkpt lat="43.26829" lon="2.39707">
        <ele>176.9</ele>
        <time>2020-08-26T12:22:22Z</time>
      </trkpt>
      <trkpt lat="43.26737" lon="2.39757">
        <ele>176.3</ele>
        <time>2020-08-26T12:22:42Z</time>
      </trkpt>
      <trkpt lat="43.26647" lon="2.39774">
        <ele>175.2</ele>
        <time>2020-08-26T12:23:02Z</time>
      </trkpt>
      <trkpt lat="43.26556" lon="2.39747">
        <ele>174.8</ele>
        <time>2020-08-26T12:23:32Z</time>
      </trkpt>
      <trkpt lat="43.2646" lon="2.39715">
        <ele>175</ele>
        <time>2020-08-26T12:24:18Z</time>
      </trkpt>
      <trkpt lat="43.26367" lon="2.39686">
        <ele>175.6</ele>
        <time>2020-08-26T12:24:38Z</time>
      </trkpt>
      <trkpt lat="43.26354" lon="2.39558">
        <ele>175.8</ele>
        <time>2020-08-26T12:25:27Z</time>
      </trkpt>
      <trkpt lat="43.26331" lon="2.39424">
        <ele>175.8</ele>
        <time>2020-08-26T12:25:52Z</time>
      </trkpt>
      <trkpt lat="43.26336" lon="2.39281">
        <ele>175.8</ele>
        <time>2020-08-26T12:26:17Z</time>
      </trkpt>
      <trkpt lat="43.2628" lon="2.39153">
        <ele>175.5</ele>
        <time>2020-08-26T12:26:42Z</time>
      </trkpt>
      <trkpt lat="43.26217" lon="2.39032">
        <ele>175.4</ele>
        <time>2020-08-26T12:27:07Z</time>
      </trkpt>
      <trkpt lat="43.26161" lon="2.38911">
        <ele>175.3</ele>
        <time>2020-08-26T12:27:32Z</time>
      </trkpt>
      <trkpt lat="43.26099" lon="2.38801">
        <ele>176.3</ele>
        <time>2020-08-26T12:30:32Z</time>
      </trkpt>
      <trkpt lat="43.26055" lon="2.38684">
        <ele>176.6</ele>
        <time>2020-08-26T12:30:57Z</time>
      </trkpt>
      <trkpt lat="43.26023" lon="2.38536">
        <ele>176.3</ele>
        <time>2020-08-26T12:31:22Z</time>
      </trkpt>
      <trkpt lat="43.25969" lon="2.38403">
        <ele>175.9</ele>
        <time>2020-08-26T12:31:42Z</time>
      </trkpt>
      <trkpt lat="43.25912" lon="2.38275">
        <ele>175.5</ele>
        <time>2020-08-26T12:32:02Z</time>
      </trkpt>
      <trkpt lat="43.25897" lon="2.38118">
        <ele>174.2</ele>
        <time>2020-08-26T12:32:22Z</time>
      </trkpt>
      <trkpt lat="43.2589" lon="2.37989">
        <ele>173.6</ele>
        <time>2020-08-26T12:32:52Z</time>
      </trkpt>
      <trkpt lat="43.25886" lon="2.37853">
        <ele>173.6</ele>
        <time>2020-08-26T12:33:32Z</time>
      </trkpt>
      <trkpt lat="43.25871" lon="2.37717">
        <ele>173.2</ele>
        <time>2020-08-26T12:33:57Z</time>
      </trkpt>
      <trkpt lat="43.25788" lon="2.37631">
        <ele>171.1</ele>
        <time>2020-08-26T12:34:17Z</time>
      </trkpt>
      <trkpt lat="43.25784" lon="2.37476">
        <ele>168.1</ele>
        <time>2020-08-26T12:34:37Z</time>
      </trkpt>
      <trkpt lat="43.25746" lon="2.37361">
        <ele>165.3</ele>
        <time>2020-08-26T12:34:57Z</time>
      </trkpt>
      <trkpt lat="43.25652" lon="2.37273">
        <ele>162.9</ele>
        <time>2020-08-26T12:35:22Z</time>
      </trkpt>
      <trkpt lat="43.25565" lon="2.37207">
        <ele>161.5</ele>
        <time>2020-08-26T12:35:42Z</time>
      </trkpt>
      <trkpt lat="43.25496" lon="2.37113">
        <ele>160.7</ele>
        <time>2020-08-26T12:36:02Z</time>
      </trkpt>
      <trkpt lat="43.25435" lon="2.37018">
        <ele>160.3</ele>
        <time>2020-08-26T12:36:22Z</time>
      </trkpt>
      <trkpt lat="43.25366" lon="2.36918">
        <ele>159.9</ele>
        <time>2020-08-26T12:36:46Z</time>
      </trkpt>
      <trkpt lat="43.25323" lon="2.36791">
        <ele>159.8</ele>
        <time>2020-08-26T12:37:21Z</time>
      </trkpt>
      <trkpt lat="43.25299" lon="2.36664">
        <ele>159.9</ele>
        <time>2020-08-26T12:38:13Z</time>
      </trkpt>
      <trkpt lat="43.25322" lon="2.36532">
        <ele>160.3</ele>
        <time>2020-08-26T12:38:48Z</time>
      </trkpt>
      <trkpt lat="43.25253" lon="2.36442">
        <ele>159.7</ele>
        <time>2020-08-26T12:39:08Z</time>
      </trkpt>
      <trkpt lat="43.25159" lon="2.36457">
        <ele>157.8</ele>
        <time>2020-08-26T12:39:28Z</time>
      </trkpt>
      <trkpt lat="43.25073" lon="2.36393">
        <ele>158.7</ele>
        <time>2020-08-26T12:41:49Z</time>
      </trkpt>
      <trkpt lat="43.24977" lon="2.36381">
        <ele>158.5</ele>
        <time>2020-08-26T12:42:09Z</time>
      </trkpt>
      <trkpt lat="43.24869" lon="2.36436">
        <ele>158.3</ele>
        <time>2020-08-26T12:42:29Z</time>
      </trkpt>
      <trkpt lat="43.24769" lon="2.36489">
        <ele>158.1</ele>
        <time>2020-08-26T12:42:49Z</time>
      </trkpt>
      <trkpt lat="43.2468" lon="2.3655">
        <ele>158.1</ele>
        <time>2020-08-26T12:43:09Z</time>
      </trkpt>
      <trkpt lat="43.24579" lon="2.36553">
        <ele>158.1</ele>
        <time>2020-08-26T12:43:29Z</time>
      </trkpt>
      <trkpt lat="43.24496" lon="2.36499">
        <ele>158.4</ele>
        <time>2020-08-26T12:43:49Z</time>
      </trkpt>
      <trkpt lat="43.24392" lon="2.3646">
        <ele>157.2</ele>
        <time>2020-08-26T12:44:04Z</time>
      </trkpt>
      <trkpt lat="43.24286" lon="2.36414">
        <ele>155.4</ele>
        <time>2020-08-26T12:44:19Z</time>
      </trkpt>
      <trkpt lat="43.24181" lon="2.3637">
        <ele>152.7</ele>
        <time>2020-08-26T12:44:44Z</time>
      </trkpt>
      <trkpt lat="43.24078" lon="2.36335">
        <ele>151.1</ele>
        <time>2020-08-26T12:45:09Z</time>
      </trkpt>
      <trkpt lat="43.23985" lon="2.36344">
        <ele>148.8</ele>
        <time>2020-08-26T12:45:29Z</time>
      </trkpt>
      <trkpt lat="43.23868" lon="2.36369">
        <ele>147.6</ele>
        <time>2020-08-26T12:45:49Z</time>
      </trkpt>
      <trkpt lat="43.23775" lon="2.36372">
        <ele>146.8</ele>
        <time>2020-08-26T12:46:04Z</time>
      </trkpt>
      <trkpt lat="43.23663" lon="2.36357">
        <ele>147.5</ele>
        <time>2020-08-26T12:46:24Z</time>
      </trkpt>
      <trkpt lat="43.23562" lon="2.36328">
        <ele>148.2</ele>
        <time>2020-08-26T12:46:49Z</time>
      </trkpt>
      <trkpt lat="43.23459" lon="2.36292">
        <ele>147.7</ele>
        <time>2020-08-26T12:47:19Z</time>
      </trkpt>
      <trkpt lat="43.23371" lon="2.3625">
        <ele>147.6</ele>
        <time>2020-08-26T12:47:54Z</time>
      </trkpt>
      <trkpt lat="43.23279" lon="2.36207">
        <ele>150.4</ele>
        <time>2020-08-26T12:50:10Z</time>
      </trkpt>
      <trkpt lat="43.23187" lon="2.36151">
        <ele>154.8</ele>
        <time>2020-08-26T12:51:01Z</time>
      </trkpt>
      <trkpt lat="43.23107" lon="2.36086">
        <ele>157.8</ele>
        <time>2020-08-26T12:51:46Z</time>
      </trkpt>
      <trkpt lat="43.23016" lon="2.36034">
        <ele>160.3</ele>
        <time>2020-08-26T12:52:39Z</time>
      </trkpt>
      <trkpt lat="43.22919" lon="2.35984">
        <ele>161.8</ele>
        <time>2020-08-26T12:53:19Z</time>
      </trkpt>
      <trkpt lat="43.22832" lon="2.35941">
        <ele>163.2</ele>
        <time>2020-08-26T12:53:49Z</time>
      </trkpt>
      <trkpt lat="43.22739" lon="2.35899">
        <ele>164.8</ele>
        <time>2020-08-26T12:54:19Z</time>
      </trkpt>
      <trkpt lat="43.22646" lon="2.35855">
        <ele>167.2</ele>
        <time>2020-08-26T12:55:09Z</time>
      </trkpt>
      <trkpt lat="43.22568" lon="2.35768">
        <ele>169.5</ele>
        <time>2020-08-26T12:55:49Z</time>
      </trkpt>
      <trkpt lat="43.22492" lon="2.35682">
        <ele>171.6</ele>
        <time>2020-08-26T12:56:24Z</time>
      </trkpt>
      <trkpt lat="43.22417" lon="2.35593">
        <ele>173.1</ele>
        <time>2020-08-26T12:56:54Z</time>
      </trkpt>
      <trkpt lat="43.22344" lon="2.35511">
        <ele>174.4</ele>
        <time>2020-08-26T12:57:24Z</time>
      </trkpt>
      <trkpt lat="43.22263" lon="2.35435">
        <ele>177.1</ele>
        <time>2020-08-26T12:57:44Z</time>
      </trkpt>
      <trkpt lat="43.22174" lon="2.35354">
        <ele>176.8</ele>
        <time>2020-08-26T12:57:59Z</time>
      </trkpt>
      <trkpt lat="43.22095" lon="2.35231">
        <ele>176.2</ele>
        <time>2020-08-26T12:58:14Z</time>
      </trkpt>
      <trkpt lat="43.21979" lon="2.35172">
        <ele>174</ele>
        <time>2020-08-26T12:58:29Z</time>
      </trkpt>
      <trkpt lat="43.21887" lon="2.35175">
        <ele>171.4</ele>
        <time>2020-08-26T12:58:39Z</time>
      </trkpt>
      <trkpt lat="43.21852" lon="2.35311">
        <ele>165</ele>
        <time>2020-08-26T12:59:13Z</time>
      </trkpt>
      <trkpt lat="43.21773" lon="2.35224">
        <ele>165.8</ele>
        <time>2020-08-26T12:59:43Z</time>
      </trkpt>
      <trkpt lat="43.21757" lon="2.35353">
        <ele>159.7</ele>
        <time>2020-08-26T13:00:48Z</time>
      </trkpt>
      <trkpt lat="43.21652" lon="2.35379">
        <ele>158.5</ele>
        <time>2020-08-26T13:01:12Z</time>
      </trkpt>
      <trkpt lat="43.21626" lon="2.35502">
        <ele>155.5</ele>
        <time>2020-08-26T13:02:44Z</time>
      </trkpt>
      <trkpt lat="43.21623" lon="2.35647">
        <ele>154.6</ele>
        <time>2020-08-26T13:03:04Z</time>
      </trkpt>
      <trkpt lat="43.21621" lon="2.35796">
        <ele>153.2</ele>
        <time>2020-08-26T13:03:24Z</time>
      </trkpt>
      <trkpt lat="43.21622" lon="2.3592">
        <ele>151.6</ele>
        <time>2020-08-26T13:03:39Z</time>
      </trkpt>
      <trkpt lat="43.21618" lon="2.36055">
        <ele>150.9</ele>
        <time>2020-08-26T13:03:59Z</time>
      </trkpt>
      <trkpt lat="43.21618" lon="2.3618">
        <ele>150.7</ele>
        <time>2020-08-26T13:04:24Z</time>
      </trkpt>
      <trkpt lat="43.21625" lon="2.36057">
        <ele>150.6</ele>
        <time>2020-08-26T13:05:08Z</time>
      </trkpt>
      <trkpt lat="43.21612" lon="2.3618">
        <ele>152</ele>
        <time>2020-08-26T13:09:06Z</time>
      </trkpt>
      <trkpt lat="43.21612" lon="2.36304">
        <ele>152.1</ele>
        <time>2020-08-26T13:09:26Z</time>
      </trkpt>
      <trkpt lat="43.21608" lon="2.36442">
        <ele>152.3</ele>
        <time>2020-08-26T13:09:46Z</time>
      </trkpt>
      <trkpt lat="43.21586" lon="2.36579">
        <ele>152.2</ele>
        <time>2020-08-26T13:10:06Z</time>
      </trkpt>
      <trkpt lat="43.21519" lon="2.36679">
        <ele>152.2</ele>
        <time>2020-08-26T13:10:31Z</time>
      </trkpt>
      <trkpt lat="43.21622" lon="2.36702">
        <ele>152.7</ele>
        <time>2020-08-26T13:11:16Z</time>
      </trkpt>
      <trkpt lat="43.2153" lon="2.3667">
        <ele>155</ele>
        <time>2020-08-26T13:13:20Z</time>
      </trkpt>
      <trkpt lat="43.2144" lon="2.36648">
        <ele>154.9</ele>
        <time>2020-08-26T13:14:02Z</time>
      </trkpt>
    </trkseg>
  </trk>
  <trk>
    <name><![CDATA[route114]]></name>
    <trkseg>
      <trkpt lat="43.21735" lon="2.3695">
        <ele>126.3</ele>
        <time>2020-08-27T05:08:09Z</time>
      </trkpt>
      <trkpt lat="43.21704" lon="2.36823">
        <ele>115.7</ele>
        <time>2020-08-27T05:09:46Z</time>
      </trkpt>
      <trkpt lat="43.21642" lon="2.36731">
        <ele>111</ele>
        <time>2020-08-27T05:10:06Z</time>
      </trkpt>
      <trkpt lat="43.21544" lon="2.36715">
        <ele>108.1</ele>
        <time>2020-08-27T05:10:36Z</time>
      </trkpt>
      <trkpt lat="43.21593" lon="2.36583">
        <ele>104.4</ele>
        <time>2020-08-27T05:11:44Z</time>
      </trkpt>
      <trkpt lat="43.21615" lon="2.36438">
        <ele>102</ele>
        <time>2020-08-27T05:12:09Z</time>
      </trkpt>
      <trkpt lat="43.21621" lon="2.36298">
        <ele>100.9</ele>
        <time>2020-08-27T05:12:34Z</time>
      </trkpt>
      <trkpt lat="43.21539" lon="2.36208">
        <ele>100.2</ele>
        <time>2020-08-27T05:15:39Z</time>
      </trkpt>
      <trkpt lat="43.2143" lon="2.36185">
        <ele>99.8</ele>
        <time>2020-08-27T05:16:04Z</time>
      </trkpt>
      <trkpt lat="43.21329" lon="2.36158">
        <ele>99.3</ele>
        <time>2020-08-27T05:16:29Z</time>
      </trkpt>
      <trkpt lat="43.21236" lon="2.36136">
        <ele>99</ele>
        <time>2020-08-27T05:16:54Z</time>
      </trkpt>
      <trkpt lat="43.21132" lon="2.36103">
        <ele>98.9</ele>
        <time>2020-08-27T05:17:24Z</time>
      </trkpt>
      <trkpt lat="43.21035" lon="2.36069">
        <ele>99</ele>
        <time>2020-08-27T05:17:49Z</time>
      </trkpt>
      <trkpt lat="43.20937" lon="2.36016">
        <ele>98.9</ele>
        <time>2020-08-27T05:18:19Z</time>
      </trkpt>
      <trkpt lat="43.20846" lon="2.35946">
        <ele>98.4</ele>
        <time>2020-08-27T05:18:49Z</time>
      </trkpt>
      <trkpt lat="43.20752" lon="2.35931">
        <ele>98.5</ele>
        <time>2020-08-27T05:19:14Z</time>
      </trkpt>
      <trkpt lat="43.20652" lon="2.35942">
        <ele>98.1</ele>
        <time>2020-08-27T05:19:44Z</time>
      </trkpt>
      <trkpt lat="43.20547" lon="2.35947">
        <ele>98.4</ele>
        <time>2020-08-27T05:20:14Z</time>
      </trkpt>
      <trkpt lat="43.20454" lon="2.35958">
        <ele>98.5</ele>
        <time>2020-08-27T05:20:39Z</time>
      </trkpt>
      <trkpt lat="43.20366" lon="2.36011">
        <ele>99.1</ele>
        <time>2020-08-27T05:21:09Z</time>
      </trkpt>
      <trkpt lat="43.20272" lon="2.35964">
        <ele>99.7</ele>
        <time>2020-08-27T05:21:39Z</time>
      </trkpt>
      <trkpt lat="43.2017" lon="2.35987">
        <ele>100.2</ele>
        <time>2020-08-27T05:22:09Z</time>
      </trkpt>
      <trkpt lat="43.20102" lon="2.35902">
        <ele>100.8</ele>
        <time>2020-08-27T05:22:44Z</time>
      </trkpt>
      <trkpt lat="43.20018" lon="2.35841">
        <ele>102.1</ele>
        <time>2020-08-27T05:23:29Z</time>
      </trkpt>
      <trkpt lat="43.19926" lon="2.3581">
        <ele>103.9</ele>
        <time>2020-08-27T05:24:22Z</time>
      </trkpt>
      <trkpt lat="43.1983" lon="2.35783">
        <ele>105.5</ele>
        <time>2020-08-27T05:25:18Z</time>
      </trkpt>
      <trkpt lat="43.19741" lon="2.35756">
        <ele>106.6</ele>
        <time>2020-08-27T05:25:53Z</time>
      </trkpt>
      <trkpt lat="43.1969" lon="2.35878">
        <ele>108.5</ele>
        <time>2020-08-27T05:26:28Z</time>
      </trkpt>
      <trkpt lat="43.1963" lon="2.35981">
        <ele>109.4</ele>
        <time>2020-08-27T05:26:58Z</time>
      </trkpt>
      <trkpt lat="43.19563" lon="2.36074">
        <ele>110.4</ele>
        <time>2020-08-27T05:27:43Z</time>
      </trkpt>
      <trkpt lat="43.19499" lon="2.36164">
        <ele>111.8</ele>
        <time>2020-08-27T05:28:28Z</time>
      </trkpt>
      <trkpt lat="43.19411" lon="2.36195">
        <ele>113.6</ele>
        <time>2020-08-27T05:29:13Z</time>
      </trkpt>
      <trkpt lat="43.19321" lon="2.36201">
        <ele>115</ele>
        <time>2020-08-27T05:29:48Z</time>
      </trkpt>
      <trkpt lat="43.19231" lon="2.36201">
        <ele>116.5</ele>
        <time>2020-08-27T05:30:23Z</time>
      </trkpt>
      <trkpt lat="43.19133" lon="2.36197">
        <ele>118.3</ele>
        <time>2020-08-27T05:31:12Z</time>
      </trkpt>
      <trkpt lat="43.19044" lon="2.36216">
        <ele>120.2</ele>
        <time>2020-08-27T05:32:03Z</time>
      </trkpt>
      <trkpt lat="43.18952" lon="2.36207">
        <ele>122.2</ele>
        <time>2020-08-27T05:32:48Z</time>
      </trkpt>
      <trkpt lat="43.18851" lon="2.36197">
        <ele>125.5</ele>
        <time>2020-08-27T05:33:18Z</time>
      </trkpt>
      <trkpt lat="43.18754" lon="2.36187">
        <ele>126.1</ele>
        <time>2020-08-27T05:33:33Z</time>
      </trkpt>
      <trkpt lat="43.18644" lon="2.36173">
        <ele>126.3</ele>
        <time>2020-08-27T05:33:48Z</time>
      </trkpt>
      <trkpt lat="43.18547" lon="2.36165">
        <ele>127.4</ele>
        <time>2020-08-27T05:34:03Z</time>
      </trkpt>
      <trkpt lat="43.18448" lon="2.36156">
        <ele>127.4</ele>
        <time>2020-08-27T05:34:18Z</time>
      </trkpt>
      <trkpt lat="43.18341" lon="2.3614">
        <ele>129.2</ele>
        <time>2020-08-27T05:34:38Z</time>
      </trkpt>
      <trkpt lat="43.18247" lon="2.36131">
        <ele>131</ele>
        <time>2020-08-27T05:35:09Z</time>
      </trkpt>
      <trkpt lat="43.18144" lon="2.36127">
        <ele>135.7</ele>
        <time>2020-08-27T05:35:46Z</time>
      </trkpt>
      <trkpt lat="43.18048" lon="2.36088">
        <ele>134.1</ele>
        <time>2020-08-27T05:36:01Z</time>
      </trkpt>
      <trkpt lat="43.17962" lon="2.36046">
        <ele>135.7</ele>
        <time>2020-08-27T05:36:31Z</time>
      </trkpt>
      <trkpt lat="43.17877" lon="2.35958">
        <ele>131.3</ele>
        <time>2020-08-27T05:36:57Z</time>
      </trkpt>
      <trkpt lat="43.17801" lon="2.35861">
        <ele>129.3</ele>
        <time>2020-08-27T05:37:17Z</time>
      </trkpt>
      <trkpt lat="43.17724" lon="2.35764">
        <ele>130.7</ele>
        <time>2020-08-27T05:37:42Z</time>
      </trkpt>
      <trkpt lat="43.17632" lon="2.35706">
        <ele>131.4</ele>
        <time>2020-08-27T05:38:17Z</time>
      </trkpt>
      <trkpt lat="43.17581" lon="2.35596">
        <ele>131.7</ele>
        <time>2020-08-27T05:38:57Z</time>
      </trkpt>
      <trkpt lat="43.17523" lon="2.35489">
        <ele>135.3</ele>
        <time>2020-08-27T05:39:59Z</time>
      </trkpt>
      <trkpt lat="43.17469" lon="2.35377">
        <ele>139.4</ele>
        <time>2020-08-27T05:40:52Z</time>
      </trkpt>
      <trkpt lat="43.17411" lon="2.35279">
        <ele>142.7</ele>
        <time>2020-08-27T05:41:33Z</time>
      </trkpt>
      <trkpt lat="43.17379" lon="2.3515">
        <ele>145.4</ele>
        <time>2020-08-27T05:42:08Z</time>
      </trkpt>
      <trkpt lat="43.17361" lon="2.35016">
        <ele>147.8</ele>
        <time>2020-08-27T05:42:48Z</time>
      </trkpt>
      <trkpt lat="43.17315" lon="2.34901">
        <ele>149.5</ele>
        <time>2020-08-27T05:43:28Z</time>
      </trkpt>
      <trkpt lat="43.17257" lon="2.348">
        <ele>151.5</ele>
        <time>2020-08-27T05:44:04Z</time>
      </trkpt>
      <trkpt lat="43.17248" lon="2.34673">
        <ele>153.5</ele>
        <time>2020-08-27T05:44:50Z</time>
      </trkpt>
      <trkpt lat="43.17251" lon="2.34541">
        <ele>154.8</ele>
        <time>2020-08-27T05:45:30Z</time>
      </trkpt>
      <trkpt lat="43.17268" lon="2.344">
        <ele>155.5</ele>
        <time>2020-08-27T05:46:10Z</time>
      </trkpt>
      <trkpt lat="43.17273" lon="2.34264">
        <ele>156.2</ele>
        <time>2020-08-27T05:46:35Z</time>
      </trkpt>
      <trkpt lat="43.17229" lon="2.34146">
        <ele>156.3</ele>
        <time>2020-08-27T05:47:00Z</time>
      </trkpt>
      <trkpt lat="43.17143" lon="2.3403">
        <ele>155.5</ele>
        <time>2020-08-27T05:47:15Z</time>
      </trkpt>
      <trkpt lat="43.17068" lon="2.33937">
        <ele>154.5</ele>
        <time>2020-08-27T05:47:35Z</time>
      </trkpt>
      <trkpt lat="43.17031" lon="2.33801">
        <ele>151.4</ele>
        <time>2020-08-27T05:48:00Z</time>
      </trkpt>
      <trkpt lat="43.16972" lon="2.33688">
        <ele>150.2</ele>
        <time>2020-08-27T05:48:15Z</time>
      </trkpt>
      <trkpt lat="43.16932" lon="2.33575">
        <ele>148.8</ele>
        <time>2020-08-27T05:48:35Z</time>
      </trkpt>
      <trkpt lat="43.16869" lon="2.33484">
        <ele>148.2</ele>
        <time>2020-08-27T05:49:05Z</time>
      </trkpt>
      <trkpt lat="43.1682" lon="2.33355">
        <ele>145.6</ele>
        <time>2020-08-27T05:49:35Z</time>
      </trkpt>
      <trkpt lat="43.16786" lon="2.33236">
        <ele>146.7</ele>
        <time>2020-08-27T05:50:21Z</time>
      </trkpt>
      <trkpt lat="43.16788" lon="2.33099">
        <ele>147.1</ele>
        <time>2020-08-27T05:51:01Z</time>
      </trkpt>
      <trkpt lat="43.16796" lon="2.32972">
        <ele>147.6</ele>
        <time>2020-08-27T05:51:36Z</time>
      </trkpt>
      <trkpt lat="43.16737" lon="2.32874">
        <ele>150.2</ele>
        <time>2020-08-27T05:52:22Z</time>
      </trkpt>
      <trkpt lat="43.16772" lon="2.32746">
        <ele>151.3</ele>
        <time>2020-08-27T05:52:47Z</time>
      </trkpt>
      <trkpt lat="43.16829" lon="2.32649">
        <ele>151</ele>
        <time>2020-08-27T05:53:12Z</time>
      </trkpt>
      <trkpt lat="43.16888" lon="2.32551">
        <ele>150.8</ele>
        <time>2020-08-27T05:53:37Z</time>
      </trkpt>
      <trkpt lat="43.16937" lon="2.32443">
        <ele>147.1</ele>
        <time>2020-08-27T05:54:11Z</time>
      </trkpt>
      <trkpt lat="43.16997" lon="2.32306">
        <ele>143.6</ele>
        <time>2020-08-27T05:54:31Z</time>
      </trkpt>
      <trkpt lat="43.16918" lon="2.32233">
        <ele>144.2</ele>
        <time>2020-08-27T05:55:38Z</time>
      </trkpt>
      <trkpt lat="43.16827" lon="2.32219">
        <ele>148.5</ele>
        <time>2020-08-27T05:56:30Z</time>
      </trkpt>
      <trkpt lat="43.16729" lon="2.32206">
        <ele>152.3</ele>
        <time>2020-08-27T05:57:23Z</time>
      </trkpt>
      <trkpt lat="43.16632" lon="2.32192">
        <ele>156.6</ele>
        <time>2020-08-27T05:58:26Z</time>
      </trkpt>
      <trkpt lat="43.16533" lon="2.32167">
        <ele>162.6</ele>
        <time>2020-08-27T05:59:33Z</time>
      </trkpt>
      <trkpt lat="43.16449" lon="2.32077">
        <ele>168.3</ele>
        <time>2020-08-27T06:00:14Z</time>
      </trkpt>
      <trkpt lat="43.16392" lon="2.31951">
        <ele>169.1</ele>
        <time>2020-08-27T06:00:29Z</time>
      </trkpt>
      <trkpt lat="43.16281" lon="2.31894">
        <ele>169.4</ele>
        <time>2020-08-27T06:00:44Z</time>
      </trkpt>
      <trkpt lat="43.16175" lon="2.31871">
        <ele>169.5</ele>
        <time>2020-08-27T06:01:04Z</time>
      </trkpt>
      <trkpt lat="43.16085" lon="2.31861">
        <ele>166.8</ele>
        <time>2020-08-27T06:01:29Z</time>
      </trkpt>
      <trkpt lat="43.15974" lon="2.31864">
        <ele>164.2</ele>
        <time>2020-08-27T06:01:49Z</time>
      </trkpt>
      <trkpt lat="43.15875" lon="2.31869">
        <ele>162.2</ele>
        <time>2020-08-27T06:02:04Z</time>
      </trkpt>
      <trkpt lat="43.15753" lon="2.31843">
        <ele>161</ele>
        <time>2020-08-27T06:02:19Z</time>
      </trkpt>
      <trkpt lat="43.15685" lon="2.31751">
        <ele>160</ele>
        <time>2020-08-27T06:02:29Z</time>
      </trkpt>
      <trkpt lat="43.15594" lon="2.31759">
        <ele>159.2</ele>
        <time>2020-08-27T06:02:39Z</time>
      </trkpt>
      <trkpt lat="43.15521" lon="2.3185">
        <ele>154.3</ele>
        <time>2020-08-27T06:02:49Z</time>
      </trkpt>
      <trkpt lat="43.15412" lon="2.31909">
        <ele>151.2</ele>
        <time>2020-08-27T06:03:04Z</time>
      </trkpt>
      <trkpt lat="43.15323" lon="2.3198">
        <ele>147.5</ele>
        <time>2020-08-27T06:03:24Z</time>
      </trkpt>
      <trkpt lat="43.15227" lon="2.32024">
        <ele>143.4</ele>
        <time>2020-08-27T06:03:49Z</time>
      </trkpt>
      <trkpt lat="43.15131" lon="2.3204">
        <ele>140.8</ele>
        <time>2020-08-27T06:04:14Z</time>
      </trkpt>
      <trkpt lat="43.15041" lon="2.32027">
        <ele>140.4</ele>
        <time>2020-08-27T06:04:39Z</time>
      </trkpt>
      <trkpt lat="43.14932" lon="2.32026">
        <ele>137.8</ele>
        <time>2020-08-27T06:05:09Z</time>
      </trkpt>
      <trkpt lat="43.14874" lon="2.3214">
        <ele>135.8</ele>
        <time>2020-08-27T06:05:34Z</time>
      </trkpt>
      <trkpt lat="43.14801" lon="2.32228">
        <ele>135.2</ele>
        <time>2020-08-27T06:06:04Z</time>
      </trkpt>
      <trkpt lat="43.14703" lon="2.32242">
        <ele>134.4</ele>
        <time>2020-08-27T06:06:29Z</time>
      </trkpt>
      <trkpt lat="43.14619" lon="2.3231">
        <ele>134</ele>
        <time>2020-08-27T06:06:54Z</time>
      </trkpt>
      <trkpt lat="43.14545" lon="2.32384">
        <ele>133.7</ele>
        <time>2020-08-27T06:07:19Z</time>
      </trkpt>
      <trkpt lat="43.14447" lon="2.32425">
        <ele>133.3</ele>
        <time>2020-08-27T06:07:44Z</time>
      </trkpt>
      <trkpt lat="43.14343" lon="2.32437">
        <ele>133.1</ele>
        <time>2020-08-27T06:08:09Z</time>
      </trkpt>
      <trkpt lat="43.14246" lon="2.32397">
        <ele>132.9</ele>
        <time>2020-08-27T06:08:34Z</time>
      </trkpt>
      <trkpt lat="43.1415" lon="2.32414">
        <ele>133.2</ele>
        <time>2020-08-27T06:08:59Z</time>
      </trkpt>
      <trkpt lat="43.14046" lon="2.32432">
        <ele>133.1</ele>
        <time>2020-08-27T06:09:24Z</time>
      </trkpt>
      <trkpt lat="43.13946" lon="2.32402">
        <ele>132.9</ele>
        <time>2020-08-27T06:09:49Z</time>
      </trkpt>
      <trkpt lat="43.13856" lon="2.32369">
        <ele>132.9</ele>
        <time>2020-08-27T06:10:14Z</time>
      </trkpt>
      <trkpt lat="43.13763" lon="2.32334">
        <ele>132.9</ele>
        <time>2020-08-27T06:10:39Z</time>
      </trkpt>
      <trkpt lat="43.13681" lon="2.32276">
        <ele>132.9</ele>
        <time>2020-08-27T06:11:04Z</time>
      </trkpt>
      <trkpt lat="43.13577" lon="2.32241">
        <ele>133</ele>
        <time>2020-08-27T06:11:34Z</time>
      </trkpt>
      <trkpt lat="43.1347" lon="2.32251">
        <ele>133.4</ele>
        <time>2020-08-27T06:12:04Z</time>
      </trkpt>
      <trkpt lat="43.13379" lon="2.32268">
        <ele>133.5</ele>
        <time>2020-08-27T06:12:29Z</time>
      </trkpt>
      <trkpt lat="43.13286" lon="2.3233">
        <ele>133.6</ele>
        <time>2020-08-27T06:12:59Z</time>
      </trkpt>
      <trkpt lat="43.13201" lon="2.32408">
        <ele>133.8</ele>
        <time>2020-08-27T06:13:29Z</time>
      </trkpt>
      <trkpt lat="43.13103" lon="2.32454">
        <ele>134.2</ele>
        <time>2020-08-27T06:13:59Z</time>
      </trkpt>
      <trkpt lat="43.13013" lon="2.32487">
        <ele>134.7</ele>
        <time>2020-08-27T06:14:24Z</time>
      </trkpt>
      <trkpt lat="43.12918" lon="2.32518">
        <ele>135.2</ele>
        <time>2020-08-27T06:14:49Z</time>
      </trkpt>
      <trkpt lat="43.12821" lon="2.32491">
        <ele>135.6</ele>
        <time>2020-08-27T06:15:14Z</time>
      </trkpt>
      <trkpt lat="43.12721" lon="2.32457">
        <ele>135.8</ele>
        <time>2020-08-27T06:16:19Z</time>
      </trkpt>
      <trkpt lat="43.12627" lon="2.32456">
        <ele>136.1</ele>
        <time>2020-08-27T06:16:49Z</time>
      </trkpt>
      <trkpt lat="43.12529" lon="2.32488">
        <ele>136.3</ele>
        <time>2020-08-27T06:17:19Z</time>
      </trkpt>
      <trkpt lat="43.12521" lon="2.32364">
        <ele>138.3</ele>
        <time>2020-08-27T06:19:22Z</time>
      </trkpt>
      <trkpt lat="43.12527" lon="2.32238">
        <ele>139.7</ele>
        <time>2020-08-27T06:20:17Z</time>
      </trkpt>
      <trkpt lat="43.12431" lon="2.32161">
        <ele>141.6</ele>
        <time>2020-08-27T06:20:42Z</time>
      </trkpt>
      <trkpt lat="43.12343" lon="2.32089">
        <ele>141.6</ele>
        <time>2020-08-27T06:21:02Z</time>
      </trkpt>
      <trkpt lat="43.12265" lon="2.3202">
        <ele>141.8</ele>
        <time>2020-08-27T06:21:22Z</time>
      </trkpt>
      <trkpt lat="43.1222" lon="2.31884">
        <ele>142</ele>
        <time>2020-08-27T06:21:47Z</time>
      </trkpt>
      <trkpt lat="43.12188" lon="2.31741">
        <ele>142.3</ele>
        <time>2020-08-27T06:22:12Z</time>
      </trkpt>
      <trkpt lat="43.12125" lon="2.31637">
        <ele>142.4</ele>
        <time>2020-08-27T06:22:42Z</time>
      </trkpt>
      <trkpt lat="43.1203" lon="2.31592">
        <ele>143.1</ele>
        <time>2020-08-27T06:23:26Z</time>
      </trkpt>
      <trkpt lat="43.11942" lon="2.31628">
        <ele>144.8</ele>
        <time>2020-08-27T06:23:56Z</time>
      </trkpt>
      <trkpt lat="43.1185" lon="2.31716">
        <ele>145</ele>
        <time>2020-08-27T06:24:16Z</time>
      </trkpt>
      <trkpt lat="43.11743" lon="2.31734">
        <ele>145.1</ele>
        <time>2020-08-27T06:24:36Z</time>
      </trkpt>
      <trkpt lat="43.11638" lon="2.31693">
        <ele>145.6</ele>
        <time>2020-08-27T06:25:01Z</time>
      </trkpt>
      <trkpt lat="43.11542" lon="2.31664">
        <ele>145.9</ele>
        <time>2020-08-27T06:25:26Z</time>
      </trkpt>
      <trkpt lat="43.11446" lon="2.31648">
        <ele>146.2</ele>
        <time>2020-08-27T06:25:51Z</time>
      </trkpt>
      <trkpt lat="43.11351" lon="2.31635">
        <ele>146.8</ele>
        <time>2020-08-27T06:26:16Z</time>
      </trkpt>
      <trkpt lat="43.11248" lon="2.3161">
        <ele>147.3</ele>
        <time>2020-08-27T06:26:41Z</time>
      </trkpt>
      <trkpt lat="43.11145" lon="2.31592">
        <ele>147.8</ele>
        <time>2020-08-27T06:27:06Z</time>
      </trkpt>
      <trkpt lat="43.11036" lon="2.31607">
        <ele>148.2</ele>
        <time>2020-08-27T06:27:31Z</time>
      </trkpt>
      <trkpt lat="43.10931" lon="2.31642">
        <ele>148.4</ele>
        <time>2020-08-27T06:27:56Z</time>
      </trkpt>
      <trkpt lat="43.10837" lon="2.31684">
        <ele>148.1</ele>
        <time>2020-08-27T06:28:21Z</time>
      </trkpt>
      <trkpt lat="43.10741" lon="2.31729">
        <ele>148</ele>
        <time>2020-08-27T06:28:51Z</time>
      </trkpt>
      <trkpt lat="43.10646" lon="2.31752">
        <ele>148</ele>
        <time>2020-08-27T06:29:21Z</time>
      </trkpt>
      <trkpt lat="43.10555" lon="2.31773">
        <ele>148.2</ele>
        <time>2020-08-27T06:29:51Z</time>
      </trkpt>
      <trkpt lat="43.10465" lon="2.31756">
        <ele>149</ele>
        <time>2020-08-27T06:30:26Z</time>
      </trkpt>
      <trkpt lat="43.10384" lon="2.31686">
        <ele>149.8</ele>
        <time>2020-08-27T06:30:56Z</time>
      </trkpt>
      <trkpt lat="43.10312" lon="2.31586">
        <ele>151.4</ele>
        <time>2020-08-27T06:31:26Z</time>
      </trkpt>
      <trkpt lat="43.10238" lon="2.31466">
        <ele>152.6</ele>
        <time>2020-08-27T06:31:51Z</time>
      </trkpt>
      <trkpt lat="43.1017" lon="2.31353">
        <ele>153.3</ele>
        <time>2020-08-27T06:32:11Z</time>
      </trkpt>
      <trkpt lat="43.10113" lon="2.31228">
        <ele>154</ele>
        <time>2020-08-27T06:32:31Z</time>
      </trkpt>
      <trkpt lat="43.10066" lon="2.3112">
        <ele>154.7</ele>
        <time>2020-08-27T06:32:51Z</time>
      </trkpt>
      <trkpt lat="43.09983" lon="2.31033">
        <ele>155.6</ele>
        <time>2020-08-27T06:33:16Z</time>
      </trkpt>
      <trkpt lat="43.09892" lon="2.31031">
        <ele>155.9</ele>
        <time>2020-08-27T06:33:46Z</time>
      </trkpt>
      <trkpt lat="43.09791" lon="2.30998">
        <ele>156.8</ele>
        <time>2020-08-27T06:34:21Z</time>
      </trkpt>
      <trkpt lat="43.09691" lon="2.30958">
        <ele>158.2</ele>
        <time>2020-08-27T06:35:01Z</time>
      </trkpt>
      <trkpt lat="43.09576" lon="2.30952">
        <ele>161</ele>
        <time>2020-08-27T06:35:26Z</time>
      </trkpt>
      <trkpt lat="43.09518" lon="2.3105">
        <ele>161.5</ele>
        <time>2020-08-27T06:35:46Z</time>
      </trkpt>
      <trkpt lat="43.0946" lon="2.31167">
        <ele>161.9</ele>
        <time>2020-08-27T06:36:11Z</time>
      </trkpt>
      <trkpt lat="43.0938" lon="2.31259">
        <ele>162.2</ele>
        <time>2020-08-27T06:36:41Z</time>
      </trkpt>
      <trkpt lat="43.09286" lon="2.31324">
        <ele>162.3</ele>
        <time>2020-08-27T06:37:11Z</time>
      </trkpt>
      <trkpt lat="43.09193" lon="2.31382">
        <ele>162.6</ele>
        <time>2020-08-27T06:37:41Z</time>
      </trkpt>
      <trkpt lat="43.09112" lon="2.31435">
        <ele>162.8</ele>
        <time>2020-08-27T06:38:06Z</time>
      </trkpt>
      <trkpt lat="43.0903" lon="2.31488">
        <ele>163.1</ele>
        <time>2020-08-27T06:38:31Z</time>
      </trkpt>
      <trkpt lat="43.08995" lon="2.31612">
        <ele>163.6</ele>
        <time>2020-08-27T06:39:01Z</time>
      </trkpt>
      <trkpt lat="43.09009" lon="2.31747">
        <ele>164.2</ele>
        <time>2020-08-27T06:39:31Z</time>
      </trkpt>
      <trkpt lat="43.09023" lon="2.31871">
        <ele>164.8</ele>
        <time>2020-08-27T06:40:01Z</time>
      </trkpt>
      <trkpt lat="43.09037" lon="2.32002">
        <ele>165.6</ele>
        <time>2020-08-27T06:40:31Z</time>
      </trkpt>
      <trkpt lat="43.09053" lon="2.32139">
        <ele>166.3</ele>
        <time>2020-08-27T06:41:01Z</time>
      </trkpt>
      <trkpt lat="43.09067" lon="2.32272">
        <ele>167.1</ele>
        <time>2020-08-27T06:41:31Z</time>
      </trkpt>
      <trkpt lat="43.09082" lon="2.32405">
        <ele>167.9</ele>
        <time>2020-08-27T06:42:01Z</time>
      </trkpt>
      <trkpt lat="43.09096" lon="2.3254">
        <ele>168.6</ele>
        <time>2020-08-27T06:42:31Z</time>
      </trkpt>
      <trkpt lat="43.0911" lon="2.32672">
        <ele>169.4</ele>
        <time>2020-08-27T06:43:01Z</time>
      </trkpt>
      <trkpt lat="43.09125" lon="2.32806">
        <ele>170.2</ele>
        <time>2020-08-27T06:43:31Z</time>
      </trkpt>
      <trkpt lat="43.09139" lon="2.32938">
        <ele>171.1</ele>
        <time>2020-08-27T06:44:01Z</time>
      </trkpt>
      <trkpt lat="43.09159" lon="2.33071">
        <ele>171.9</ele>
        <time>2020-08-27T06:44:31Z</time>
      </trkpt>
      <trkpt lat="43.09212" lon="2.33175">
        <ele>173.4</ele>
        <time>2020-08-27T06:44:56Z</time>
      </trkpt>
      <trkpt lat="43.09271" lon="2.33276">
        <ele>173.7</ele>
        <time>2020-08-27T06:45:21Z</time>
      </trkpt>
      <trkpt lat="43.09343" lon="2.33376">
        <ele>174.2</ele>
        <time>2020-08-27T06:45:56Z</time>
      </trkpt>
      <trkpt lat="43.09388" lon="2.33493">
        <ele>174.9</ele>
        <time>2020-08-27T06:46:26Z</time>
      </trkpt>
      <trkpt lat="43.09441" lon="2.33596">
        <ele>175.5</ele>
        <time>2020-08-27T06:46:51Z</time>
      </trkpt>
      <trkpt lat="43.09536" lon="2.3363">
        <ele>177</ele>
        <time>2020-08-27T06:47:16Z</time>
      </trkpt>
      <trkpt lat="43.0964" lon="2.33647">
        <ele>178</ele>
        <time>2020-08-27T06:47:41Z</time>
      </trkpt>
      <trkpt lat="43.09735" lon="2.33646">
        <ele>178.7</ele>
        <time>2020-08-27T06:48:06Z</time>
      </trkpt>
      <trkpt lat="43.09808" lon="2.3374">
        <ele>179.6</ele>
        <time>2020-08-27T06:48:31Z</time>
      </trkpt>
      <trkpt lat="43.09847" lon="2.33853">
        <ele>180.2</ele>
        <time>2020-08-27T06:48:51Z</time>
      </trkpt>
      <trkpt lat="43.09906" lon="2.33962">
        <ele>180.5</ele>
        <time>2020-08-27T06:49:10Z</time>
      </trkpt>
      <trkpt lat="43.09996" lon="2.3405">
        <ele>181</ele>
        <time>2020-08-27T06:49:35Z</time>
      </trkpt>
      <trkpt lat="43.10105" lon="2.34088">
        <ele>181.3</ele>
        <time>2020-08-27T06:50:00Z</time>
      </trkpt>
      <trkpt lat="43.10215" lon="2.34129">
        <ele>181.6</ele>
        <time>2020-08-27T06:50:25Z</time>
      </trkpt>
      <trkpt lat="43.1031" lon="2.34204">
        <ele>182</ele>
        <time>2020-08-27T06:50:50Z</time>
      </trkpt>
      <trkpt lat="43.10407" lon="2.34248">
        <ele>182.4</ele>
        <time>2020-08-27T06:51:15Z</time>
      </trkpt>
      <trkpt lat="43.10444" lon="2.34363">
        <ele>182.9</ele>
        <time>2020-08-27T06:51:35Z</time>
      </trkpt>
      <trkpt lat="43.10502" lon="2.34494">
        <ele>183.4</ele>
        <time>2020-08-27T06:52:00Z</time>
      </trkpt>
      <trkpt lat="43.10569" lon="2.3458">
        <ele>183.7</ele>
        <time>2020-08-27T06:52:20Z</time>
      </trkpt>
      <trkpt lat="43.10511" lon="2.34674">
        <ele>184</ele>
        <time>2020-08-27T06:52:50Z</time>
      </trkpt>
      <trkpt lat="43.10421" lon="2.34714">
        <ele>184.8</ele>
        <time>2020-08-27T06:53:30Z</time>
      </trkpt>
      <trkpt lat="43.1039" lon="2.34835">
        <ele>186.1</ele>
        <time>2020-08-27T06:53:50Z</time>
      </trkpt>
      <trkpt lat="43.10406" lon="2.34967">
        <ele>186.5</ele>
        <time>2020-08-27T06:54:15Z</time>
      </trkpt>
      <trkpt lat="43.10437" lon="2.35091">
        <ele>186.9</ele>
        <time>2020-08-27T06:54:45Z</time>
      </trkpt>
      <trkpt lat="43.10461" lon="2.35226">
        <ele>187.4</ele>
        <time>2020-08-27T06:55:10Z</time>
      </trkpt>
      <trkpt lat="43.10486" lon="2.35364">
        <ele>187.2</ele>
        <time>2020-08-27T06:55:35Z</time>
      </trkpt>
      <trkpt lat="43.10489" lon="2.35496">
        <ele>187</ele>
        <time>2020-08-27T06:56:05Z</time>
      </trkpt>
      <trkpt lat="43.10474" lon="2.35624">
        <ele>186.2</ele>
        <time>2020-08-27T06:56:35Z</time>
      </trkpt>
      <trkpt lat="43.10447" lon="2.35757">
        <ele>186</ele>
        <time>2020-08-27T06:57:05Z</time>
      </trkpt>
      <trkpt lat="43.10344" lon="2.35782">
        <ele>188</ele>
        <time>2020-08-27T06:57:40Z</time>
      </trkpt>
      <trkpt lat="43.10272" lon="2.35868">
        <ele>196.1</ele>
        <time>2020-08-27T07:07:35Z</time>
      </trkpt>
      <trkpt lat="43.10276" lon="2.35993">
        <ele>196.6</ele>
        <time>2020-08-27T07:08:10Z</time>
      </trkpt>
      <trkpt lat="43.10298" lon="2.36115">
        <ele>196.9</ele>
        <time>2020-08-27T07:08:45Z</time>
      </trkpt>
      <trkpt lat="43.10272" lon="2.36238">
        <ele>197.2</ele>
        <time>2020-08-27T07:09:20Z</time>
      </trkpt>
      <trkpt lat="43.10246" lon="2.36359">
        <ele>197.5</ele>
        <time>2020-08-27T07:09:50Z</time>
      </trkpt>
      <trkpt lat="43.10208" lon="2.36478">
        <ele>197.8</ele>
        <time>2020-08-27T07:10:20Z</time>
      </trkpt>
      <trkpt lat="43.10149" lon="2.36585">
        <ele>198.1</ele>
        <time>2020-08-27T07:10:50Z</time>
      </trkpt>
      <trkpt lat="43.10133" lon="2.36706">
        <ele>198.6</ele>
        <time>2020-08-27T07:11:15Z</time>
      </trkpt>
      <trkpt lat="43.10101" lon="2.36841">
        <ele>198.9</ele>
        <time>2020-08-27T07:11:45Z</time>
      </trkpt>
      <trkpt lat="43.10094" lon="2.36981">
        <ele>199.3</ele>
        <time>2020-08-27T07:12:15Z</time>
      </trkpt>
      <trkpt lat="43.10088" lon="2.37119">
        <ele>199.8</ele>
        <time>2020-08-27T07:12:45Z</time>
      </trkpt>
      <trkpt lat="43.10049" lon="2.37255">
        <ele>200.3</ele>
        <time>2020-08-27T07:13:15Z</time>
      </trkpt>
      <trkpt lat="43.10105" lon="2.37358">
        <ele>201.2</ele>
        <time>2020-08-27T07:13:45Z</time>
      </trkpt>
      <trkpt lat="43.1017" lon="2.37472">
        <ele>202.3</ele>
        <time>2020-08-27T07:14:15Z</time>
      </trkpt>
      <trkpt lat="43.1023" lon="2.37571">
        <ele>203.4</ele>
        <time>2020-08-27T07:14:40Z</time>
      </trkpt>
      <trkpt lat="43.10258" lon="2.37716">
        <ele>204.4</ele>
        <time>2020-08-27T07:15:09Z</time>
      </trkpt>
      <trkpt lat="43.10259" lon="2.37842">
        <ele>204.9</ele>
        <time>2020-08-27T07:15:34Z</time>
      </trkpt>
      <trkpt lat="43.10194" lon="2.37925">
        <ele>205.5</ele>
        <time>2020-08-27T07:15:59Z</time>
      </trkpt>
      <trkpt lat="43.10089" lon="2.37945">
        <ele>205.9</ele>
        <time>2020-08-27T07:16:29Z</time>
      </trkpt>
      <trkpt lat="43.0998" lon="2.37959">
        <ele>207.1</ele>
        <time>2020-08-27T07:16:54Z</time>
      </trkpt>
      <trkpt lat="43.09906" lon="2.38038">
        <ele>208.2</ele>
        <time>2020-08-27T07:17:24Z</time>
      </trkpt>
      <trkpt lat="43.0986" lon="2.3816">
        <ele>209.8</ele>
        <time>2020-08-27T07:17:54Z</time>
      </trkpt>
      <trkpt lat="43.09796" lon="2.38262">
        <ele>212.1</ele>
        <time>2020-08-27T07:18:34Z</time>
      </trkpt>
      <trkpt lat="43.09691" lon="2.38244">
        <ele>215.7</ele>
        <time>2020-08-27T07:19:14Z</time>
      </trkpt>
      <trkpt lat="43.09605" lon="2.38198">
        <ele>219.3</ele>
        <time>2020-08-27T07:19:39Z</time>
      </trkpt>
      <trkpt lat="43.09511" lon="2.38162">
        <ele>219.7</ele>
        <time>2020-08-27T07:20:09Z</time>
      </trkpt>
      <trkpt lat="43.09448" lon="2.38054">
        <ele>220.2</ele>
        <time>2020-08-27T07:20:44Z</time>
      </trkpt>
      <trkpt lat="43.09433" lon="2.3791">
        <ele>219.2</ele>
        <time>2020-08-27T07:21:09Z</time>
      </trkpt>
      <trkpt lat="43.09342" lon="2.37873">
        <ele>219.2</ele>
        <time>2020-08-27T07:21:29Z</time>
      </trkpt>
      <trkpt lat="43.09258" lon="2.37937">
        <ele>219.4</ele>
        <time>2020-08-27T07:21:54Z</time>
      </trkpt>
      <trkpt lat="43.0917" lon="2.37976">
        <ele>221.7</ele>
        <time>2020-08-27T07:22:40Z</time>
      </trkpt>
      <trkpt lat="43.09089" lon="2.37919">
        <ele>224.5</ele>
        <time>2020-08-27T07:23:11Z</time>
      </trkpt>
      <trkpt lat="43.09034" lon="2.37811">
        <ele>226.7</ele>
        <time>2020-08-27T07:23:41Z</time>
      </trkpt>
      <trkpt lat="43.08942" lon="2.37775">
        <ele>227.7</ele>
        <time>2020-08-27T07:24:16Z</time>
      </trkpt>
      <trkpt lat="43.08845" lon="2.37798">
        <ele>228.6</ele>
        <time>2020-08-27T07:24:51Z</time>
      </trkpt>
      <trkpt lat="43.08756" lon="2.37824">
        <ele>229.8</ele>
        <time>2020-08-27T07:25:16Z</time>
      </trkpt>
      <trkpt lat="43.08684" lon="2.3773">
        <ele>230.1</ele>
        <time>2020-08-27T07:25:56Z</time>
      </trkpt>
      <trkpt lat="43.08598" lon="2.37663">
        <ele>231.1</ele>
        <time>2020-08-27T07:26:51Z</time>
      </trkpt>
      <trkpt lat="43.08506" lon="2.3764">
        <ele>232.5</ele>
        <time>2020-08-27T07:27:36Z</time>
      </trkpt>
      <trkpt lat="43.08409" lon="2.37615">
        <ele>233.9</ele>
        <time>2020-08-27T07:28:16Z</time>
      </trkpt>
      <trkpt lat="43.08322" lon="2.37647">
        <ele>235.1</ele>
        <time>2020-08-27T07:28:51Z</time>
      </trkpt>
      <trkpt lat="43.08235" lon="2.3759">
        <ele>236.2</ele>
        <time>2020-08-27T07:29:26Z</time>
      </trkpt>
      <trkpt lat="43.08138" lon="2.37543">
        <ele>237.4</ele>
        <time>2020-08-27T07:30:01Z</time>
      </trkpt>
      <trkpt lat="43.08048" lon="2.37585">
        <ele>238.7</ele>
        <time>2020-08-27T07:30:41Z</time>
      </trkpt>
      <trkpt lat="43.07963" lon="2.37649">
        <ele>240.2</ele>
        <time>2020-08-27T07:31:26Z</time>
      </trkpt>
      <trkpt lat="43.07864" lon="2.37648">
        <ele>241.9</ele>
        <time>2020-08-27T07:32:17Z</time>
      </trkpt>
      <trkpt lat="43.07797" lon="2.37741">
        <ele>243.8</ele>
        <time>2020-08-27T07:33:09Z</time>
      </trkpt>
      <trkpt lat="43.07743" lon="2.3785">
        <ele>246.1</ele>
        <time>2020-08-27T07:33:39Z</time>
      </trkpt>
      <trkpt lat="43.07657" lon="2.37802">
        <ele>247</ele>
        <time>2020-08-27T07:34:09Z</time>
      </trkpt>
      <trkpt lat="43.0763" lon="2.37679">
        <ele>248</ele>
        <time>2020-08-27T07:34:44Z</time>
      </trkpt>
      <trkpt lat="43.07531" lon="2.37632">
        <ele>249.1</ele>
        <time>2020-08-27T07:35:09Z</time>
      </trkpt>
      <trkpt lat="43.0744" lon="2.37648">
        <ele>249.6</ele>
        <time>2020-08-27T07:35:29Z</time>
      </trkpt>
      <trkpt lat="43.07351" lon="2.37601">
        <ele>249.9</ele>
        <time>2020-08-27T07:35:59Z</time>
      </trkpt>
      <trkpt lat="43.07259" lon="2.37584">
        <ele>250.4</ele>
        <time>2020-08-27T07:36:29Z</time>
      </trkpt>
      <trkpt lat="43.07161" lon="2.37558">
        <ele>251.1</ele>
        <time>2020-08-27T07:37:04Z</time>
      </trkpt>
      <trkpt lat="43.07066" lon="2.37516">
        <ele>252.7</ele>
        <time>2020-08-27T07:38:00Z</time>
      </trkpt>
      <trkpt lat="43.0697" lon="2.37512">
        <ele>254.6</ele>
        <time>2020-08-27T07:38:55Z</time>
      </trkpt>
      <trkpt lat="43.06875" lon="2.3751">
        <ele>256.7</ele>
        <time>2020-08-27T07:39:50Z</time>
      </trkpt>
      <trkpt lat="43.06782" lon="2.3754">
        <ele>259</ele>
        <time>2020-08-27T07:40:45Z</time>
      </trkpt>
      <trkpt lat="43.06707" lon="2.37623">
        <ele>261.9</ele>
        <time>2020-08-27T07:41:49Z</time>
      </trkpt>
      <trkpt lat="43.0667" lon="2.37746">
        <ele>265.1</ele>
        <time>2020-08-27T07:42:42Z</time>
      </trkpt>
      <trkpt lat="43.066" lon="2.37825">
        <ele>267.6</ele>
        <time>2020-08-27T07:43:22Z</time>
      </trkpt>
      <trkpt lat="43.0654" lon="2.3793">
        <ele>274.4</ele>
        <time>2020-08-27T07:44:12Z</time>
      </trkpt>
      <trkpt lat="43.06481" lon="2.38033">
        <ele>281</ele>
        <time>2020-08-27T07:45:00Z</time>
      </trkpt>
      <trkpt lat="43.0639" lon="2.38117">
        <ele>288</ele>
        <time>2020-08-27T07:45:30Z</time>
      </trkpt>
      <trkpt lat="43.06334" lon="2.38235">
        <ele>290.6</ele>
        <time>2020-08-27T07:45:50Z</time>
      </trkpt>
      <trkpt lat="43.06308" lon="2.38357">
        <ele>291</ele>
        <time>2020-08-27T07:46:32Z</time>
      </trkpt>
      <trkpt lat="43.06313" lon="2.38482">
        <ele>293.2</ele>
        <time>2020-08-27T07:47:19Z</time>
      </trkpt>
      <trkpt lat="43.06308" lon="2.38614">
        <ele>296.4</ele>
        <time>2020-08-27T07:48:09Z</time>
      </trkpt>
      <trkpt lat="43.06288" lon="2.38747">
        <ele>299.8</ele>
        <time>2020-08-27T07:49:04Z</time>
      </trkpt>
      <trkpt lat="43.06238" lon="2.38848">
        <ele>302.3</ele>
        <time>2020-08-27T07:49:46Z</time>
      </trkpt>
      <trkpt lat="43.06153" lon="2.38944">
        <ele>306.3</ele>
        <time>2020-08-27T07:50:16Z</time>
      </trkpt>
      <trkpt lat="43.06113" lon="2.39058">
        <ele>307</ele>
        <time>2020-08-27T07:50:31Z</time>
      </trkpt>
      <trkpt lat="43.06078" lon="2.39197">
        <ele>308.7</ele>
        <time>2020-08-27T07:50:51Z</time>
      </trkpt>
      <trkpt lat="43.06106" lon="2.39319">
        <ele>310.2</ele>
        <time>2020-08-27T07:51:21Z</time>
      </trkpt>
      <trkpt lat="43.06156" lon="2.3943">
        <ele>312</ele>
        <time>2020-08-27T07:52:10Z</time>
      </trkpt>
      <trkpt lat="43.06209" lon="2.3954">
        <ele>317.4</ele>
        <time>2020-08-27T07:53:08Z</time>
      </trkpt>
      <trkpt lat="43.06226" lon="2.39685">
        <ele>321.2</ele>
        <time>2020-08-27T07:53:43Z</time>
      </trkpt>
      <trkpt lat="43.06181" lon="2.39793">
        <ele>322.5</ele>
        <time>2020-08-27T07:54:08Z</time>
      </trkpt>
      <trkpt lat="43.06151" lon="2.39925">
        <ele>323.3</ele>
        <time>2020-08-27T07:54:38Z</time>
      </trkpt>
      <trkpt lat="43.06062" lon="2.39997">
        <ele>324.8</ele>
        <time>2020-08-27T07:55:08Z</time>
      </trkpt>
      <trkpt lat="43.0599" lon="2.40076">
        <ele>327.7</ele>
        <time>2020-08-27T07:55:43Z</time>
      </trkpt>
      <trkpt lat="43.05903" lon="2.4013">
        <ele>331.8</ele>
        <time>2020-08-27T07:56:23Z</time>
      </trkpt>
      <trkpt lat="43.05838" lon="2.40244">
        <ele>334.7</ele>
        <time>2020-08-27T07:56:58Z</time>
      </trkpt>
      <trkpt lat="43.05801" lon="2.40369">
        <ele>336</ele>
        <time>2020-08-27T07:57:18Z</time>
      </trkpt>
      <trkpt lat="43.05778" lon="2.40507">
        <ele>336</ele>
        <time>2020-08-27T07:57:38Z</time>
      </trkpt>
      <trkpt lat="43.05748" lon="2.40633">
        <ele>336</ele>
        <time>2020-08-27T07:58:03Z</time>
      </trkpt>
      <trkpt lat="43.05695" lon="2.40739">
        <ele>336.3</ele>
        <time>2020-08-27T07:58:33Z</time>
      </trkpt>
      <trkpt lat="43.05636" lon="2.40836">
        <ele>336.9</ele>
        <time>2020-08-27T07:59:03Z</time>
      </trkpt>
      <trkpt lat="43.05609" lon="2.40963">
        <ele>337.7</ele>
        <time>2020-08-27T07:59:43Z</time>
      </trkpt>
      <trkpt lat="43.0553" lon="2.41046">
        <ele>338.6</ele>
        <time>2020-08-27T08:00:23Z</time>
      </trkpt>
      <trkpt lat="43.05486" lon="2.41155">
        <ele>339.1</ele>
        <time>2020-08-27T08:00:53Z</time>
      </trkpt>
      <trkpt lat="43.05401" lon="2.41226">
        <ele>339.7</ele>
        <time>2020-08-27T08:01:23Z</time>
      </trkpt>
      <trkpt lat="43.05338" lon="2.4132">
        <ele>340.4</ele>
        <time>2020-08-27T08:01:53Z</time>
      </trkpt>
      <trkpt lat="43.05287" lon="2.41433">
        <ele>342</ele>
        <time>2020-08-27T08:02:18Z</time>
      </trkpt>
      <trkpt lat="43.05208" lon="2.41493">
        <ele>342.3</ele>
        <time>2020-08-27T08:02:48Z</time>
      </trkpt>
      <trkpt lat="43.05116" lon="2.41506">
        <ele>343</ele>
        <time>2020-08-27T08:03:23Z</time>
      </trkpt>
      <trkpt lat="43.0502" lon="2.41506">
        <ele>344.1</ele>
        <time>2020-08-27T08:03:58Z</time>
      </trkpt>
      <trkpt lat="43.04926" lon="2.41551">
        <ele>345.1</ele>
        <time>2020-08-27T08:04:32Z</time>
      </trkpt>
      <trkpt lat="43.04881" lon="2.41682">
        <ele>347.5</ele>
        <time>2020-08-27T08:05:02Z</time>
      </trkpt>
      <trkpt lat="43.0484" lon="2.41808">
        <ele>348.2</ele>
        <time>2020-08-27T08:05:32Z</time>
      </trkpt>
      <trkpt lat="43.04768" lon="2.41893">
        <ele>349.5</ele>
        <time>2020-08-27T08:06:12Z</time>
      </trkpt>
      <trkpt lat="43.04695" lon="2.41994">
        <ele>352.1</ele>
        <time>2020-08-27T08:06:47Z</time>
      </trkpt>
      <trkpt lat="43.04609" lon="2.42084">
        <ele>352.8</ele>
        <time>2020-08-27T08:07:07Z</time>
      </trkpt>
      <trkpt lat="43.04524" lon="2.42138">
        <ele>352.9</ele>
        <time>2020-08-27T08:07:27Z</time>
      </trkpt>
      <trkpt lat="43.04455" lon="2.42041">
        <ele>353.1</ele>
        <time>2020-08-27T08:07:57Z</time>
      </trkpt>
      <trkpt lat="43.04366" lon="2.42003">
        <ele>353.4</ele>
        <time>2020-08-27T08:08:27Z</time>
      </trkpt>
      <trkpt lat="43.04265" lon="2.42001">
        <ele>353.8</ele>
        <time>2020-08-27T08:09:07Z</time>
      </trkpt>
      <trkpt lat="43.04165" lon="2.42004">
        <ele>354.4</ele>
        <time>2020-08-27T08:09:47Z</time>
      </trkpt>
      <trkpt lat="43.04075" lon="2.42036">
        <ele>355</ele>
        <time>2020-08-27T08:10:22Z</time>
      </trkpt>
      <trkpt lat="43.03975" lon="2.42025">
        <ele>355.8</ele>
        <time>2020-08-27T08:10:57Z</time>
      </trkpt>
      <trkpt lat="43.03936" lon="2.41907">
        <ele>357.4</ele>
        <time>2020-08-27T08:11:47Z</time>
      </trkpt>
      <trkpt lat="43.03885" lon="2.4179">
        <ele>359.1</ele>
        <time>2020-08-27T08:12:27Z</time>
      </trkpt>
      <trkpt lat="43.0381" lon="2.41873">
        <ele>360.9</ele>
        <time>2020-08-27T08:13:17Z</time>
      </trkpt>
      <trkpt lat="43.0372" lon="2.4186">
        <ele>362.2</ele>
        <time>2020-08-27T08:13:57Z</time>
      </trkpt>
      <trkpt lat="43.0372" lon="2.41724">
        <ele>364</ele>
        <time>2020-08-27T08:14:42Z</time>
      </trkpt>
      <trkpt lat="43.03713" lon="2.41596">
        <ele>366.4</ele>
        <time>2020-08-27T08:15:22Z</time>
      </trkpt>
      <trkpt lat="43.03615" lon="2.41563">
        <ele>368.7</ele>
        <time>2020-08-27T08:16:02Z</time>
      </trkpt>
      <trkpt lat="43.0353" lon="2.41511">
        <ele>370.6</ele>
        <time>2020-08-27T08:16:42Z</time>
      </trkpt>
      <trkpt lat="43.0344" lon="2.41495">
        <ele>372.7</ele>
        <time>2020-08-27T08:17:29Z</time>
      </trkpt>
      <trkpt lat="43.03346" lon="2.41454">
        <ele>377.3</ele>
        <time>2020-08-27T08:18:26Z</time>
      </trkpt>
      <trkpt lat="43.03258" lon="2.41478">
        <ele>382.8</ele>
        <time>2020-08-27T08:19:17Z</time>
      </trkpt>
      <trkpt lat="43.03163" lon="2.41511">
        <ele>391.6</ele>
        <time>2020-08-27T08:20:11Z</time>
      </trkpt>
      <trkpt lat="43.03074" lon="2.41555">
        <ele>401.6</ele>
        <time>2020-08-27T08:21:07Z</time>
      </trkpt>
      <trkpt lat="43.0308" lon="2.41682">
        <ele>418</ele>
        <time>2020-08-27T08:30:07Z</time>
      </trkpt>
      <trkpt lat="43.03104" lon="2.4181">
        <ele>422.9</ele>
        <time>2020-08-27T08:31:06Z</time>
      </trkpt>
      <trkpt lat="43.03148" lon="2.41926">
        <ele>425.3</ele>
        <time>2020-08-27T08:31:59Z</time>
      </trkpt>
      <trkpt lat="43.03171" lon="2.42056">
        <ele>426.9</ele>
        <time>2020-08-27T08:33:00Z</time>
      </trkpt>
      <trkpt lat="43.03194" lon="2.42184">
        <ele>428.2</ele>
        <time>2020-08-27T08:34:06Z</time>
      </trkpt>
      <trkpt lat="43.03212" lon="2.42312">
        <ele>429.9</ele>
        <time>2020-08-27T08:35:11Z</time>
      </trkpt>
      <trkpt lat="43.03214" lon="2.42446">
        <ele>431.9</ele>
        <time>2020-08-27T08:36:17Z</time>
      </trkpt>
      <trkpt lat="43.03203" lon="2.42577">
        <ele>434.5</ele>
        <time>2020-08-27T08:37:21Z</time>
      </trkpt>
      <trkpt lat="43.03201" lon="2.4271">
        <ele>437.8</ele>
        <time>2020-08-27T08:38:26Z</time>
      </trkpt>
      <trkpt lat="43.03214" lon="2.42842">
        <ele>441.9</ele>
        <time>2020-08-27T08:39:34Z</time>
      </trkpt>
      <trkpt lat="43.03224" lon="2.42974">
        <ele>446.4</ele>
        <time>2020-08-27T08:40:40Z</time>
      </trkpt>
      <trkpt lat="43.03241" lon="2.43103">
        <ele>451.5</ele>
        <time>2020-08-27T08:41:46Z</time>
      </trkpt>
      <trkpt lat="43.03231" lon="2.43232">
        <ele>459.3</ele>
        <time>2020-08-27T08:42:56Z</time>
      </trkpt>
      <trkpt lat="43.03211" lon="2.43359">
        <ele>473.9</ele>
        <time>2020-08-27T08:44:05Z</time>
      </trkpt>
      <trkpt lat="43.03216" lon="2.43493">
        <ele>488.1</ele>
        <time>2020-08-27T08:45:15Z</time>
      </trkpt>
      <trkpt lat="43.032" lon="2.43625">
        <ele>496.8</ele>
        <time>2020-08-27T08:46:20Z</time>
      </trkpt>
      <trkpt lat="43.03182" lon="2.43753">
        <ele>504.8</ele>
        <time>2020-08-27T08:47:27Z</time>
      </trkpt>
      <trkpt lat="43.03115" lon="2.43844">
        <ele>510.8</ele>
        <time>2020-08-27T08:48:39Z</time>
      </trkpt>
      <trkpt lat="43.0306" lon="2.43941">
        <ele>514.9</ele>
        <time>2020-08-27T08:49:40Z</time>
      </trkpt>
      <trkpt lat="43.02992" lon="2.43856">
        <ele>522.3</ele>
        <time>2020-08-27T08:51:28Z</time>
      </trkpt>
      <trkpt lat="43.02936" lon="2.43961">
        <ele>525.9</ele>
        <time>2020-08-27T08:52:13Z</time>
      </trkpt>
      <trkpt lat="43.02902" lon="2.44103">
        <ele>533.2</ele>
        <time>2020-08-27T08:52:38Z</time>
      </trkpt>
      <trkpt lat="43.02856" lon="2.44235">
        <ele>535</ele>
        <time>2020-08-27T08:53:03Z</time>
      </trkpt>
      <trkpt lat="43.02821" lon="2.44357">
        <ele>536.7</ele>
        <time>2020-08-27T08:53:23Z</time>
      </trkpt>
      <trkpt lat="43.02766" lon="2.44461">
        <ele>537.7</ele>
        <time>2020-08-27T08:53:43Z</time>
      </trkpt>
      <trkpt lat="43.02722" lon="2.44597">
        <ele>539</ele>
        <time>2020-08-27T08:54:02Z</time>
      </trkpt>
      <trkpt lat="43.02712" lon="2.44726">
        <ele>540.2</ele>
        <time>2020-08-27T08:54:40Z</time>
      </trkpt>
      <trkpt lat="43.0269" lon="2.44854">
        <ele>541.9</ele>
        <time>2020-08-27T08:55:39Z</time>
      </trkpt>
      <trkpt lat="43.02672" lon="2.44981">
        <ele>544.6</ele>
        <time>2020-08-27T08:56:47Z</time>
      </trkpt>
      <trkpt lat="43.02621" lon="2.45092">
        <ele>547.7</ele>
        <time>2020-08-27T08:57:52Z</time>
      </trkpt>
      <trkpt lat="43.02584" lon="2.45205">
        <ele>551.2</ele>
        <time>2020-08-27T08:58:46Z</time>
      </trkpt>
      <trkpt lat="43.02536" lon="2.45317">
        <ele>555.8</ele>
        <time>2020-08-27T08:59:43Z</time>
      </trkpt>
      <trkpt lat="43.02487" lon="2.45419">
        <ele>560.7</ele>
        <time>2020-08-27T09:00:37Z</time>
      </trkpt>
      <trkpt lat="43.02417" lon="2.45496">
        <ele>567.1</ele>
        <time>2020-08-27T09:01:02Z</time>
      </trkpt>
      <trkpt lat="43.02398" lon="2.45617">
        <ele>568.2</ele>
        <time>2020-08-27T09:01:12Z</time>
      </trkpt>
      <trkpt lat="43.02347" lon="2.45741">
        <ele>566.4</ele>
        <time>2020-08-27T09:01:27Z</time>
      </trkpt>
      <trkpt lat="43.02272" lon="2.45896">
        <ele>563.4</ele>
        <time>2020-08-27T09:01:42Z</time>
      </trkpt>
      <trkpt lat="43.02233" lon="2.46054">
        <ele>562.9</ele>
        <time>2020-08-27T09:01:57Z</time>
      </trkpt>
      <trkpt lat="43.02244" lon="2.46184">
        <ele>559.4</ele>
        <time>2020-08-27T09:02:07Z</time>
      </trkpt>
      <trkpt lat="43.02232" lon="2.46336">
        <ele>556.9</ele>
        <time>2020-08-27T09:02:17Z</time>
      </trkpt>
      <trkpt lat="43.02245" lon="2.46484">
        <ele>550.5</ele>
        <time>2020-08-27T09:02:27Z</time>
      </trkpt>
      <trkpt lat="43.02263" lon="2.46636">
        <ele>546.5</ele>
        <time>2020-08-27T09:02:37Z</time>
      </trkpt>
      <trkpt lat="43.02241" lon="2.46795">
        <ele>545.7</ele>
        <time>2020-08-27T09:02:47Z</time>
      </trkpt>
      <trkpt lat="43.02207" lon="2.46956">
        <ele>543.5</ele>
        <time>2020-08-27T09:02:57Z</time>
      </trkpt>
      <trkpt lat="43.02158" lon="2.47103">
        <ele>539.1</ele>
        <time>2020-08-27T09:03:07Z</time>
      </trkpt>
      <trkpt lat="43.02114" lon="2.47232">
        <ele>528</ele>
        <time>2020-08-27T09:03:17Z</time>
      </trkpt>
      <trkpt lat="43.0202" lon="2.47274">
        <ele>510.3</ele>
        <time>2020-08-27T09:03:32Z</time>
      </trkpt>
      <trkpt lat="43.0197" lon="2.47377">
        <ele>503</ele>
        <time>2020-08-27T09:03:42Z</time>
      </trkpt>
      <trkpt lat="43.01942" lon="2.47493">
        <ele>497.8</ele>
        <time>2020-08-27T09:03:52Z</time>
      </trkpt>
      <trkpt lat="43.01889" lon="2.47605">
        <ele>494.4</ele>
        <time>2020-08-27T09:04:02Z</time>
      </trkpt>
      <trkpt lat="43.01824" lon="2.47708">
        <ele>491.8</ele>
        <time>2020-08-27T09:04:12Z</time>
      </trkpt>
      <trkpt lat="43.01932" lon="2.4763">
        <ele>477.4</ele>
        <time>2020-08-27T09:04:47Z</time>
      </trkpt>
      <trkpt lat="43.01899" lon="2.47764">
        <ele>463.4</ele>
        <time>2020-08-27T09:05:12Z</time>
      </trkpt>
      <trkpt lat="43.0184" lon="2.47902">
        <ele>452.6</ele>
        <time>2020-08-27T09:05:22Z</time>
      </trkpt>
      <trkpt lat="43.01784" lon="2.48023">
        <ele>449.3</ele>
        <time>2020-08-27T09:05:32Z</time>
      </trkpt>
      <trkpt lat="43.01675" lon="2.481">
        <ele>438.7</ele>
        <time>2020-08-27T09:05:47Z</time>
      </trkpt>
      <trkpt lat="43.01645" lon="2.48224">
        <ele>431.3</ele>
        <time>2020-08-27T09:05:57Z</time>
      </trkpt>
      <trkpt lat="43.01599" lon="2.48336">
        <ele>426.7</ele>
        <time>2020-08-27T09:06:07Z</time>
      </trkpt>
      <trkpt lat="43.01545" lon="2.48467">
        <ele>415.5</ele>
        <time>2020-08-27T09:06:22Z</time>
      </trkpt>
      <trkpt lat="43.01462" lon="2.48605">
        <ele>414</ele>
        <time>2020-08-27T09:06:37Z</time>
      </trkpt>
      <trkpt lat="43.01397" lon="2.48699">
        <ele>411.2</ele>
        <time>2020-08-27T09:06:47Z</time>
      </trkpt>
      <trkpt lat="43.01302" lon="2.48618">
        <ele>387.5</ele>
        <time>2020-08-27T09:07:17Z</time>
      </trkpt>
      <trkpt lat="43.01257" lon="2.48487">
        <ele>379.8</ele>
        <time>2020-08-27T09:07:32Z</time>
      </trkpt>
      <trkpt lat="43.01276" lon="2.48367">
        <ele>374</ele>
        <time>2020-08-27T09:07:42Z</time>
      </trkpt>
      <trkpt lat="43.01364" lon="2.48312">
        <ele>365.8</ele>
        <time>2020-08-27T09:07:57Z</time>
      </trkpt>
      <trkpt lat="43.0127" lon="2.48231">
        <ele>349.1</ele>
        <time>2020-08-27T09:08:12Z</time>
      </trkpt>
      <trkpt lat="43.01298" lon="2.4808">
        <ele>338.6</ele>
        <time>2020-08-27T09:08:27Z</time>
      </trkpt>
      <trkpt lat="43.01218" lon="2.48181">
        <ele>328.5</ele>
        <time>2020-08-27T09:08:57Z</time>
      </trkpt>
      <trkpt lat="43.01165" lon="2.48326">
        <ele>325.6</ele>
        <time>2020-08-27T09:09:12Z</time>
      </trkpt>
      <trkpt lat="43.01133" lon="2.4845">
        <ele>321.7</ele>
        <time>2020-08-27T09:09:22Z</time>
      </trkpt>
      <trkpt lat="43.0113" lon="2.48576">
        <ele>317.2</ele>
        <time>2020-08-27T09:09:32Z</time>
      </trkpt>
      <trkpt lat="43.01161" lon="2.48694">
        <ele>310</ele>
        <time>2020-08-27T09:09:42Z</time>
      </trkpt>
      <trkpt lat="43.01172" lon="2.48873">
        <ele>297.4</ele>
        <time>2020-08-27T09:09:57Z</time>
      </trkpt>
      <trkpt lat="43.01162" lon="2.4901">
        <ele>289</ele>
        <time>2020-08-27T09:10:07Z</time>
      </trkpt>
      <trkpt lat="43.01133" lon="2.4913">
        <ele>284.3</ele>
        <time>2020-08-27T09:10:17Z</time>
      </trkpt>
      <trkpt lat="43.01119" lon="2.49277">
        <ele>280.3</ele>
        <time>2020-08-27T09:10:32Z</time>
      </trkpt>
      <trkpt lat="43.01136" lon="2.49401">
        <ele>277.4</ele>
        <time>2020-08-27T09:10:52Z</time>
      </trkpt>
      <trkpt lat="43.01147" lon="2.49539">
        <ele>274.6</ele>
        <time>2020-08-27T09:11:12Z</time>
      </trkpt>
      <trkpt lat="43.01108" lon="2.49674">
        <ele>272.3</ele>
        <time>2020-08-27T09:11:27Z</time>
      </trkpt>
      <trkpt lat="43.01056" lon="2.49808">
        <ele>269.4</ele>
        <time>2020-08-27T09:11:42Z</time>
      </trkpt>
      <trkpt lat="43.0101" lon="2.49916">
        <ele>263.2</ele>
        <time>2020-08-27T09:11:57Z</time>
      </trkpt>
      <trkpt lat="43.00955" lon="2.50039">
        <ele>263.1</ele>
        <time>2020-08-27T09:12:32Z</time>
      </trkpt>
      <trkpt lat="43.00869" lon="2.50126">
        <ele>256.7</ele>
        <time>2020-08-27T09:12:52Z</time>
      </trkpt>
      <trkpt lat="43.00852" lon="2.49988">
        <ele>253.3</ele>
        <time>2020-08-27T09:13:22Z</time>
      </trkpt>
      <trkpt lat="43.0082" lon="2.4986">
        <ele>252.2</ele>
        <time>2020-08-27T09:13:52Z</time>
      </trkpt>
      <trkpt lat="43.00755" lon="2.49766">
        <ele>251.2</ele>
        <time>2020-08-27T09:14:34Z</time>
      </trkpt>
      <trkpt lat="43.00695" lon="2.49661">
        <ele>250.5</ele>
        <time>2020-08-27T09:15:32Z</time>
      </trkpt>
      <trkpt lat="43.00624" lon="2.49561">
        <ele>252.1</ele>
        <time>2020-08-27T09:16:31Z</time>
      </trkpt>
      <trkpt lat="43.00564" lon="2.49466">
        <ele>254.3</ele>
        <time>2020-08-27T09:17:18Z</time>
      </trkpt>
      <trkpt lat="43.00483" lon="2.49382">
        <ele>256.4</ele>
        <time>2020-08-27T09:17:53Z</time>
      </trkpt>
      <trkpt lat="43.00385" lon="2.49348">
        <ele>258.2</ele>
        <time>2020-08-27T09:18:28Z</time>
      </trkpt>
      <trkpt lat="43.00337" lon="2.49232">
        <ele>261.1</ele>
        <time>2020-08-27T09:19:03Z</time>
      </trkpt>
      <trkpt lat="43.0029" lon="2.49119">
        <ele>261.3</ele>
        <time>2020-08-27T09:19:18Z</time>
      </trkpt>
      <trkpt lat="43.00231" lon="2.49016">
        <ele>261.3</ele>
        <time>2020-08-27T09:19:38Z</time>
      </trkpt>
      <trkpt lat="43.00152" lon="2.48946">
        <ele>262</ele>
        <time>2020-08-27T09:20:24Z</time>
      </trkpt>
      <trkpt lat="43.00119" lon="2.48824">
        <ele>263.2</ele>
        <time>2020-08-27T09:21:17Z</time>
      </trkpt>
      <trkpt lat="43.00065" lon="2.48719">
        <ele>264.2</ele>
        <time>2020-08-27T09:22:02Z</time>
      </trkpt>
      <trkpt lat="42.99994" lon="2.48632">
        <ele>265.8</ele>
        <time>2020-08-27T09:22:57Z</time>
      </trkpt>
      <trkpt lat="42.99902" lon="2.48585">
        <ele>268.7</ele>
        <time>2020-08-27T09:23:55Z</time>
      </trkpt>
      <trkpt lat="42.99806" lon="2.48578">
        <ele>282.9</ele>
        <time>2020-08-27T09:37:07Z</time>
      </trkpt>
      <trkpt lat="42.99739" lon="2.48484">
        <ele>286.6</ele>
        <time>2020-08-27T09:38:11Z</time>
      </trkpt>
      <trkpt lat="42.99646" lon="2.4849">
        <ele>288.2</ele>
        <time>2020-08-27T09:39:10Z</time>
      </trkpt>
      <trkpt lat="42.99575" lon="2.484">
        <ele>289.7</ele>
        <time>2020-08-27T09:40:06Z</time>
      </trkpt>
      <trkpt lat="42.99493" lon="2.48325">
        <ele>292.6</ele>
        <time>2020-08-27T09:41:09Z</time>
      </trkpt>
      <trkpt lat="42.99408" lon="2.48279">
        <ele>295.6</ele>
        <time>2020-08-27T09:42:06Z</time>
      </trkpt>
      <trkpt lat="42.99315" lon="2.483">
        <ele>298.1</ele>
        <time>2020-08-27T09:42:57Z</time>
      </trkpt>
      <trkpt lat="42.99257" lon="2.48186">
        <ele>299.9</ele>
        <time>2020-08-27T09:43:39Z</time>
      </trkpt>
      <trkpt lat="42.99223" lon="2.48058">
        <ele>301.6</ele>
        <time>2020-08-27T09:44:19Z</time>
      </trkpt>
      <trkpt lat="42.99183" lon="2.4794">
        <ele>303.2</ele>
        <time>2020-08-27T09:44:59Z</time>
      </trkpt>
      <trkpt lat="42.99127" lon="2.47837">
        <ele>304.5</ele>
        <time>2020-08-27T09:45:34Z</time>
      </trkpt>
      <trkpt lat="42.9905" lon="2.47754">
        <ele>305.9</ele>
        <time>2020-08-27T09:46:09Z</time>
      </trkpt>
      <trkpt lat="42.98974" lon="2.47685">
        <ele>307.2</ele>
        <time>2020-08-27T09:46:44Z</time>
      </trkpt>
      <trkpt lat="42.98922" lon="2.47555">
        <ele>310.2</ele>
        <time>2020-08-27T09:47:19Z</time>
      </trkpt>
      <trkpt lat="42.98887" lon="2.47427">
        <ele>311.3</ele>
        <time>2020-08-27T09:47:44Z</time>
      </trkpt>
      <trkpt lat="42.98803" lon="2.47482">
        <ele>312</ele>
        <time>2020-08-27T09:48:04Z</time>
      </trkpt>
      <trkpt lat="42.98704" lon="2.47471">
        <ele>312.6</ele>
        <time>2020-08-27T09:48:24Z</time>
      </trkpt>
      <trkpt lat="42.98587" lon="2.47454">
        <ele>313.2</ele>
        <time>2020-08-27T09:48:44Z</time>
      </trkpt>
      <trkpt lat="42.98499" lon="2.47355">
        <ele>314</ele>
        <time>2020-08-27T09:49:04Z</time>
      </trkpt>
      <trkpt lat="42.98413" lon="2.47313">
        <ele>317.7</ele>
        <time>2020-08-27T09:51:51Z</time>
      </trkpt>
      <trkpt lat="42.98302" lon="2.47278">
        <ele>319.1</ele>
        <time>2020-08-27T09:52:16Z</time>
      </trkpt>
      <trkpt lat="42.98206" lon="2.47344">
        <ele>319</ele>
        <time>2020-08-27T09:52:41Z</time>
      </trkpt>
      <trkpt lat="42.98125" lon="2.47415">
        <ele>318.7</ele>
        <time>2020-08-27T09:53:16Z</time>
      </trkpt>
      <trkpt lat="42.98154" lon="2.47555">
        <ele>318.8</ele>
        <time>2020-08-27T09:53:51Z</time>
      </trkpt>
      <trkpt lat="42.98055" lon="2.47551">
        <ele>318.9</ele>
        <time>2020-08-27T09:54:31Z</time>
      </trkpt>
      <trkpt lat="42.97963" lon="2.47508">
        <ele>319.3</ele>
        <time>2020-08-27T09:55:01Z</time>
      </trkpt>
      <trkpt lat="42.97872" lon="2.47545">
        <ele>321.2</ele>
        <time>2020-08-27T10:07:40Z</time>
      </trkpt>
      <trkpt lat="42.97772" lon="2.47562">
        <ele>321.8</ele>
        <time>2020-08-27T10:10:55Z</time>
      </trkpt>
      <trkpt lat="42.97672" lon="2.47556">
        <ele>322.3</ele>
        <time>2020-08-27T10:11:25Z</time>
      </trkpt>
      <trkpt lat="42.97625" lon="2.47665">
        <ele>323.1</ele>
        <time>2020-08-27T10:12:00Z</time>
      </trkpt>
      <trkpt lat="42.97535" lon="2.47622">
        <ele>325.5</ele>
        <time>2020-08-27T10:12:45Z</time>
      </trkpt>
      <trkpt lat="42.97442" lon="2.47596">
        <ele>328</ele>
        <time>2020-08-27T10:13:15Z</time>
      </trkpt>
      <trkpt lat="42.97372" lon="2.47697">
        <ele>330</ele>
        <time>2020-08-27T10:13:45Z</time>
      </trkpt>
      <trkpt lat="42.97332" lon="2.47813">
        <ele>330</ele>
        <time>2020-08-27T10:14:15Z</time>
      </trkpt>
      <trkpt lat="42.9733" lon="2.47945">
        <ele>330.1</ele>
        <time>2020-08-27T10:14:45Z</time>
      </trkpt>
      <trkpt lat="42.97326" lon="2.4808">
        <ele>330.4</ele>
        <time>2020-08-27T10:15:15Z</time>
      </trkpt>
      <trkpt lat="42.9726" lon="2.47982">
        <ele>331.4</ele>
        <time>2020-08-27T10:15:45Z</time>
      </trkpt>
      <trkpt lat="42.97166" lon="2.48022">
        <ele>332.4</ele>
        <time>2020-08-27T10:16:15Z</time>
      </trkpt>
      <trkpt lat="42.9713" lon="2.48135">
        <ele>332.9</ele>
        <time>2020-08-27T10:16:40Z</time>
      </trkpt>
      <trkpt lat="42.97083" lon="2.48244">
        <ele>334.2</ele>
        <time>2020-08-27T10:17:15Z</time>
      </trkpt>
      <trkpt lat="42.96991" lon="2.48235">
        <ele>335.4</ele>
        <time>2020-08-27T10:17:40Z</time>
      </trkpt>
      <trkpt lat="42.96897" lon="2.48237">
        <ele>335.7</ele>
        <time>2020-08-27T10:18:05Z</time>
      </trkpt>
      <trkpt lat="42.96817" lon="2.48292">
        <ele>335.9</ele>
        <time>2020-08-27T10:18:30Z</time>
      </trkpt>
      <trkpt lat="42.96732" lon="2.48347">
        <ele>336.5</ele>
        <time>2020-08-27T10:18:55Z</time>
      </trkpt>
      <trkpt lat="42.96652" lon="2.48411">
        <ele>337.4</ele>
        <time>2020-08-27T10:19:20Z</time>
      </trkpt>
      <trkpt lat="42.96567" lon="2.4846">
        <ele>338.9</ele>
        <time>2020-08-27T10:19:45Z</time>
      </trkpt>
      <trkpt lat="42.96488" lon="2.4852">
        <ele>339.4</ele>
        <time>2020-08-27T10:20:10Z</time>
      </trkpt>
      <trkpt lat="42.96491" lon="2.48648">
        <ele>340.5</ele>
        <time>2020-08-27T10:20:40Z</time>
      </trkpt>
      <trkpt lat="42.96501" lon="2.48776">
        <ele>341.1</ele>
        <time>2020-08-27T10:21:05Z</time>
      </trkpt>
      <trkpt lat="42.96483" lon="2.48912">
        <ele>341.5</ele>
        <time>2020-08-27T10:21:35Z</time>
      </trkpt>
      <trkpt lat="42.96438" lon="2.49035">
        <ele>342</ele>
        <time>2020-08-27T10:22:05Z</time>
      </trkpt>
      <trkpt lat="42.96405" lon="2.4915">
        <ele>342.5</ele>
        <time>2020-08-27T10:22:30Z</time>
      </trkpt>
      <trkpt lat="42.96415" lon="2.49278">
        <ele>343.2</ele>
        <time>2020-08-27T10:23:00Z</time>
      </trkpt>
      <trkpt lat="42.96394" lon="2.49399">
        <ele>344.1</ele>
        <time>2020-08-27T10:23:35Z</time>
      </trkpt>
      <trkpt lat="42.96341" lon="2.49506">
        <ele>346</ele>
        <time>2020-08-27T10:24:30Z</time>
      </trkpt>
      <trkpt lat="42.96257" lon="2.49428">
        <ele>348.2</ele>
        <time>2020-08-27T10:25:25Z</time>
      </trkpt>
      <trkpt lat="42.96186" lon="2.49346">
        <ele>349.4</ele>
        <time>2020-08-27T10:26:00Z</time>
      </trkpt>
      <trkpt lat="42.96089" lon="2.49293">
        <ele>350.3</ele>
        <time>2020-08-27T10:26:30Z</time>
      </trkpt>
      <trkpt lat="42.95994" lon="2.49279">
        <ele>351.7</ele>
        <time>2020-08-27T10:26:55Z</time>
      </trkpt>
      <trkpt lat="42.95897" lon="2.4932">
        <ele>353.3</ele>
        <time>2020-08-27T10:27:20Z</time>
      </trkpt>
      <trkpt lat="42.95826" lon="2.49421">
        <ele>354.1</ele>
        <time>2020-08-27T10:27:45Z</time>
      </trkpt>
      <trkpt lat="42.95754" lon="2.49496">
        <ele>354.7</ele>
        <time>2020-08-27T10:28:25Z</time>
      </trkpt>
      <trkpt lat="42.95669" lon="2.49551">
        <ele>355.6</ele>
        <time>2020-08-27T10:29:05Z</time>
      </trkpt>
      <trkpt lat="42.95571" lon="2.49526">
        <ele>357</ele>
        <time>2020-08-27T10:29:50Z</time>
      </trkpt>
      <trkpt lat="42.95486" lon="2.49478">
        <ele>363.7</ele>
        <time>2020-08-27T10:41:13Z</time>
      </trkpt>
      <trkpt lat="42.95404" lon="2.4954">
        <ele>364.6</ele>
        <time>2020-08-27T10:41:54Z</time>
      </trkpt>
      <trkpt lat="42.95411" lon="2.49664">
        <ele>365.1</ele>
        <time>2020-08-27T10:42:29Z</time>
      </trkpt>
      <trkpt lat="42.95328" lon="2.49726">
        <ele>365.6</ele>
        <time>2020-08-27T10:43:34Z</time>
      </trkpt>
      <trkpt lat="42.95254" lon="2.49651">
        <ele>366</ele>
        <time>2020-08-27T10:44:09Z</time>
      </trkpt>
      <trkpt lat="42.95155" lon="2.49638">
        <ele>366.4</ele>
        <time>2020-08-27T10:44:44Z</time>
      </trkpt>
      <trkpt lat="42.95068" lon="2.49709">
        <ele>366.8</ele>
        <time>2020-08-27T10:45:19Z</time>
      </trkpt>
      <trkpt lat="42.94978" lon="2.49724">
        <ele>367.1</ele>
        <time>2020-08-27T10:45:49Z</time>
      </trkpt>
      <trkpt lat="42.94875" lon="2.49747">
        <ele>367.6</ele>
        <time>2020-08-27T10:46:24Z</time>
      </trkpt>
      <trkpt lat="42.94801" lon="2.49816">
        <ele>367.9</ele>
        <time>2020-08-27T10:46:54Z</time>
      </trkpt>
      <trkpt lat="42.94723" lon="2.49751">
        <ele>368.3</ele>
        <time>2020-08-27T10:47:24Z</time>
      </trkpt>
      <trkpt lat="42.94648" lon="2.49661">
        <ele>368.8</ele>
        <time>2020-08-27T10:48:09Z</time>
      </trkpt>
      <trkpt lat="42.94633" lon="2.49534">
        <ele>369.5</ele>
        <time>2020-08-27T10:48:34Z</time>
      </trkpt>
      <trkpt lat="42.94563" lon="2.49427">
        <ele>369.7</ele>
        <time>2020-08-27T10:49:04Z</time>
      </trkpt>
      <trkpt lat="42.94501" lon="2.49333">
        <ele>370</ele>
        <time>2020-08-27T10:49:35Z</time>
      </trkpt>
      <trkpt lat="42.9441" lon="2.49267">
        <ele>371.4</ele>
        <time>2020-08-27T10:50:05Z</time>
      </trkpt>
      <trkpt lat="42.94318" lon="2.49246">
        <ele>372.9</ele>
        <time>2020-08-27T10:50:35Z</time>
      </trkpt>
      <trkpt lat="42.9424" lon="2.49313">
        <ele>375.5</ele>
        <time>2020-08-27T10:51:00Z</time>
      </trkpt>
      <trkpt lat="42.94167" lon="2.49397">
        <ele>377.5</ele>
        <time>2020-08-27T10:51:30Z</time>
      </trkpt>
      <trkpt lat="42.94094" lon="2.49472">
        <ele>379.8</ele>
        <time>2020-08-27T10:52:00Z</time>
      </trkpt>
      <trkpt lat="42.94006" lon="2.49386">
        <ele>384</ele>
        <time>2020-08-27T10:52:30Z</time>
      </trkpt>
      <trkpt lat="42.93925" lon="2.49305">
        <ele>386.5</ele>
        <time>2020-08-27T10:52:55Z</time>
      </trkpt>
      <trkpt lat="42.93833" lon="2.49252">
        <ele>387.9</ele>
        <time>2020-08-27T10:53:20Z</time>
      </trkpt>
      <trkpt lat="42.93757" lon="2.49158">
        <ele>388.9</ele>
        <time>2020-08-27T10:53:45Z</time>
      </trkpt>
      <trkpt lat="42.93704" lon="2.49047">
        <ele>389.9</ele>
        <time>2020-08-27T10:54:10Z</time>
      </trkpt>
      <trkpt lat="42.93647" lon="2.48924">
        <ele>390.3</ele>
        <time>2020-08-27T10:54:40Z</time>
      </trkpt>
      <trkpt lat="42.93591" lon="2.4881">
        <ele>391.2</ele>
        <time>2020-08-27T10:55:10Z</time>
      </trkpt>
      <trkpt lat="42.93503" lon="2.48752">
        <ele>392.6</ele>
        <time>2020-08-27T10:55:40Z</time>
      </trkpt>
      <trkpt lat="42.93399" lon="2.48734">
        <ele>393.8</ele>
        <time>2020-08-27T10:56:09Z</time>
      </trkpt>
      <trkpt lat="42.93314" lon="2.48685">
        <ele>395.1</ele>
        <time>2020-08-27T10:56:39Z</time>
      </trkpt>
      <trkpt lat="42.93219" lon="2.48625">
        <ele>397.4</ele>
        <time>2020-08-27T10:57:09Z</time>
      </trkpt>
      <trkpt lat="42.93113" lon="2.48611">
        <ele>398.1</ele>
        <time>2020-08-27T10:57:39Z</time>
      </trkpt>
      <trkpt lat="42.93018" lon="2.48583">
        <ele>399.9</ele>
        <time>2020-08-27T10:58:04Z</time>
      </trkpt>
      <trkpt lat="42.92957" lon="2.48465">
        <ele>400.8</ele>
        <time>2020-08-27T10:58:34Z</time>
      </trkpt>
      <trkpt lat="42.9288" lon="2.48388">
        <ele>401.5</ele>
        <time>2020-08-27T10:59:04Z</time>
      </trkpt>
      <trkpt lat="42.92813" lon="2.48281">
        <ele>403</ele>
        <time>2020-08-27T10:59:44Z</time>
      </trkpt>
      <trkpt lat="42.92752" lon="2.48177">
        <ele>404.9</ele>
        <time>2020-08-27T11:00:24Z</time>
      </trkpt>
      <trkpt lat="42.92724" lon="2.48059">
        <ele>406.5</ele>
        <time>2020-08-27T11:00:59Z</time>
      </trkpt>
      <trkpt lat="42.92669" lon="2.47953">
        <ele>407.9</ele>
        <time>2020-08-27T11:01:29Z</time>
      </trkpt>
      <trkpt lat="42.9261" lon="2.4784">
        <ele>409.1</ele>
        <time>2020-08-27T11:01:59Z</time>
      </trkpt>
      <trkpt lat="42.92528" lon="2.47768">
        <ele>410.9</ele>
        <time>2020-08-27T11:02:34Z</time>
      </trkpt>
      <trkpt lat="42.9244" lon="2.47805">
        <ele>412.1</ele>
        <time>2020-08-27T11:03:09Z</time>
      </trkpt>
      <trkpt lat="42.92345" lon="2.47781">
        <ele>413.7</ele>
        <time>2020-08-27T11:04:01Z</time>
      </trkpt>
      <trkpt lat="42.92246" lon="2.47769">
        <ele>415.2</ele>
        <time>2020-08-27T11:04:54Z</time>
      </trkpt>
      <trkpt lat="42.92156" lon="2.47764">
        <ele>430.8</ele>
        <time>2020-08-27T11:36:18Z</time>
      </trkpt>
      <trkpt lat="42.92227" lon="2.47852">
        <ele>432.2</ele>
        <time>2020-08-27T11:39:20Z</time>
      </trkpt>
      <trkpt lat="42.92303" lon="2.47928">
        <ele>433.8</ele>
        <time>2020-08-27T11:40:28Z</time>
      </trkpt>
      <trkpt lat="42.92392" lon="2.4797">
        <ele>435.4</ele>
        <time>2020-08-27T11:41:30Z</time>
      </trkpt>
      <trkpt lat="42.92467" lon="2.48043">
        <ele>437.6</ele>
        <time>2020-08-27T11:42:45Z</time>
      </trkpt>
      <trkpt lat="42.92535" lon="2.48151">
        <ele>439.4</ele>
        <time>2020-08-27T11:43:51Z</time>
      </trkpt>
      <trkpt lat="42.92535" lon="2.48285">
        <ele>442.1</ele>
        <time>2020-08-27T11:44:57Z</time>
      </trkpt>
      <trkpt lat="42.92589" lon="2.48387">
        <ele>447.7</ele>
        <time>2020-08-27T11:46:01Z</time>
      </trkpt>
      <trkpt lat="42.92647" lon="2.48492">
        <ele>455.4</ele>
        <time>2020-08-27T11:46:59Z</time>
      </trkpt>
      <trkpt lat="42.92691" lon="2.48609">
        <ele>461.6</ele>
        <time>2020-08-27T11:47:48Z</time>
      </trkpt>
      <trkpt lat="42.9273" lon="2.48723">
        <ele>466.6</ele>
        <time>2020-08-27T11:48:36Z</time>
      </trkpt>
      <trkpt lat="42.92803" lon="2.48798">
        <ele>470.3</ele>
        <time>2020-08-27T11:49:23Z</time>
      </trkpt>
      <trkpt lat="42.92871" lon="2.48892">
        <ele>475</ele>
        <time>2020-08-27T11:50:13Z</time>
      </trkpt>
      <trkpt lat="42.92951" lon="2.48964">
        <ele>480.3</ele>
        <time>2020-08-27T11:51:03Z</time>
      </trkpt>
      <trkpt lat="42.93045" lon="2.49">
        <ele>485.4</ele>
        <time>2020-08-27T11:51:58Z</time>
      </trkpt>
      <trkpt lat="42.9314" lon="2.4899">
        <ele>489.7</ele>
        <time>2020-08-27T11:52:57Z</time>
      </trkpt>
      <trkpt lat="42.93232" lon="2.49024">
        <ele>493.5</ele>
        <time>2020-08-27T11:54:00Z</time>
      </trkpt>
      <trkpt lat="42.93212" lon="2.49145">
        <ele>501</ele>
        <time>2020-08-27T11:55:40Z</time>
      </trkpt>
      <trkpt lat="42.93161" lon="2.49248">
        <ele>505.9</ele>
        <time>2020-08-27T11:57:47Z</time>
      </trkpt>
      <trkpt lat="42.93064" lon="2.49267">
        <ele>531</ele>
        <time>2020-08-27T12:22:19Z</time>
      </trkpt>
      <trkpt lat="42.9299" lon="2.49404">
        <ele>529.9</ele>
        <time>2020-08-27T12:22:34Z</time>
      </trkpt>
      <trkpt lat="42.92908" lon="2.49507">
        <ele>527.9</ele>
        <time>2020-08-27T12:22:49Z</time>
      </trkpt>
      <trkpt lat="42.92817" lon="2.49474">
        <ele>525.3</ele>
        <time>2020-08-27T12:22:59Z</time>
      </trkpt>
      <trkpt lat="42.92731" lon="2.49343">
        <ele>520.8</ele>
        <time>2020-08-27T12:23:14Z</time>
      </trkpt>
      <trkpt lat="42.92631" lon="2.49265">
        <ele>517.8</ele>
        <time>2020-08-27T12:23:29Z</time>
      </trkpt>
      <trkpt lat="42.92537" lon="2.49257">
        <ele>516.2</ele>
        <time>2020-08-27T12:23:49Z</time>
      </trkpt>
      <trkpt lat="42.92444" lon="2.49234">
        <ele>515.7</ele>
        <time>2020-08-27T12:24:19Z</time>
      </trkpt>
      <trkpt lat="42.92468" lon="2.49355">
        <ele>512.9</ele>
        <time>2020-08-27T12:25:58Z</time>
      </trkpt>
      <trkpt lat="42.92472" lon="2.49488">
        <ele>513.8</ele>
        <time>2020-08-27T12:27:10Z</time>
      </trkpt>
      <trkpt lat="42.92475" lon="2.49618">
        <ele>517.7</ele>
        <time>2020-08-27T12:28:12Z</time>
      </trkpt>
      <trkpt lat="42.92453" lon="2.49737">
        <ele>521.9</ele>
        <time>2020-08-27T12:29:17Z</time>
      </trkpt>
      <trkpt lat="42.92367" lon="2.49788">
        <ele>523.3</ele>
        <time>2020-08-27T12:30:18Z</time>
      </trkpt>
      <trkpt lat="42.92307" lon="2.49883">
        <ele>525</ele>
        <time>2020-08-27T12:31:24Z</time>
      </trkpt>
      <trkpt lat="42.92288" lon="2.50005">
        <ele>526.7</ele>
        <time>2020-08-27T12:32:27Z</time>
      </trkpt>
      <trkpt lat="42.92209" lon="2.50068">
        <ele>528.5</ele>
        <time>2020-08-27T12:33:28Z</time>
      </trkpt>
      <trkpt lat="42.92219" lon="2.50197">
        <ele>530.5</ele>
        <time>2020-08-27T12:34:30Z</time>
      </trkpt>
      <trkpt lat="42.92209" lon="2.50329">
        <ele>532.4</ele>
        <time>2020-08-27T12:35:31Z</time>
      </trkpt>
      <trkpt lat="42.92152" lon="2.50432">
        <ele>534.4</ele>
        <time>2020-08-27T12:36:32Z</time>
      </trkpt>
      <trkpt lat="42.92083" lon="2.5052">
        <ele>537.1</ele>
        <time>2020-08-27T12:37:40Z</time>
      </trkpt>
      <trkpt lat="42.91985" lon="2.50532">
        <ele>540.9</ele>
        <time>2020-08-27T12:38:38Z</time>
      </trkpt>
      <trkpt lat="42.91893" lon="2.50482">
        <ele>547.6</ele>
        <time>2020-08-27T12:39:40Z</time>
      </trkpt>
      <trkpt lat="42.91802" lon="2.50429">
        <ele>553.2</ele>
        <time>2020-08-27T12:40:40Z</time>
      </trkpt>
      <trkpt lat="42.91717" lon="2.5037">
        <ele>558.2</ele>
        <time>2020-08-27T12:41:40Z</time>
      </trkpt>
      <trkpt lat="42.91644" lon="2.50451">
        <ele>575.4</ele>
        <time>2020-08-27T12:43:41Z</time>
      </trkpt>
      <trkpt lat="42.91599" lon="2.5056">
        <ele>590</ele>
        <time>2020-08-27T12:44:48Z</time>
      </trkpt>
      <trkpt lat="42.91508" lon="2.50608">
        <ele>599.5</ele>
        <time>2020-08-27T12:45:52Z</time>
      </trkpt>
      <trkpt lat="42.9142" lon="2.50646">
        <ele>607.4</ele>
        <time>2020-08-27T12:47:06Z</time>
      </trkpt>
      <trkpt lat="42.91327" lon="2.50684">
        <ele>618.5</ele>
        <time>2020-08-27T12:48:33Z</time>
      </trkpt>
      <trkpt lat="42.91232" lon="2.50659">
        <ele>625</ele>
        <time>2020-08-27T12:49:39Z</time>
      </trkpt>
      <trkpt lat="42.91151" lon="2.50728">
        <ele>636</ele>
        <time>2020-08-27T12:52:57Z</time>
      </trkpt>
      <trkpt lat="42.91097" lon="2.50827">
        <ele>644</ele>
        <time>2020-08-27T12:54:16Z</time>
      </trkpt>
      <trkpt lat="42.91014" lon="2.50897">
        <ele>648.1</ele>
        <time>2020-08-27T12:55:21Z</time>
      </trkpt>
      <trkpt lat="42.90934" lon="2.50951">
        <ele>654.8</ele>
        <time>2020-08-27T12:56:23Z</time>
      </trkpt>
      <trkpt lat="42.90897" lon="2.50825">
        <ele>670.3</ele>
        <time>2020-08-27T12:57:49Z</time>
      </trkpt>
      <trkpt lat="42.90809" lon="2.50778">
        <ele>677</ele>
        <time>2020-08-27T12:58:50Z</time>
      </trkpt>
      <trkpt lat="42.90758" lon="2.50882">
        <ele>685.3</ele>
        <time>2020-08-27T13:10:44Z</time>
      </trkpt>
      <trkpt lat="42.90691" lon="2.50732">
        <ele>683.9</ele>
        <time>2020-08-27T13:11:14Z</time>
      </trkpt>
      <trkpt lat="42.9061" lon="2.50584">
        <ele>682.5</ele>
        <time>2020-08-27T13:11:29Z</time>
      </trkpt>
      <trkpt lat="42.90518" lon="2.50596">
        <ele>680.8</ele>
        <time>2020-08-27T13:11:39Z</time>
      </trkpt>
      <trkpt lat="42.90444" lon="2.50692">
        <ele>679</ele>
        <time>2020-08-27T13:11:49Z</time>
      </trkpt>
      <trkpt lat="42.90371" lon="2.50793">
        <ele>675.6</ele>
        <time>2020-08-27T13:11:59Z</time>
      </trkpt>
      <trkpt lat="42.90277" lon="2.50839">
        <ele>669.6</ele>
        <time>2020-08-27T13:12:09Z</time>
      </trkpt>
      <trkpt lat="42.90221" lon="2.5101">
        <ele>655.6</ele>
        <time>2020-08-27T13:12:24Z</time>
      </trkpt>
      <trkpt lat="42.90111" lon="2.51078">
        <ele>649.1</ele>
        <time>2020-08-27T13:12:34Z</time>
      </trkpt>
      <trkpt lat="42.8998" lon="2.51131">
        <ele>632.1</ele>
        <time>2020-08-27T13:12:44Z</time>
      </trkpt>
      <trkpt lat="42.8987" lon="2.51174">
        <ele>622</ele>
        <time>2020-08-27T13:12:54Z</time>
      </trkpt>
      <trkpt lat="42.89751" lon="2.51258">
        <ele>609.6</ele>
        <time>2020-08-27T13:13:09Z</time>
      </trkpt>
      <trkpt lat="42.89642" lon="2.513">
        <ele>597.8</ele>
        <time>2020-08-27T13:13:19Z</time>
      </trkpt>
      <trkpt lat="42.89529" lon="2.51325">
        <ele>590.9</ele>
        <time>2020-08-27T13:13:29Z</time>
      </trkpt>
      <trkpt lat="42.89436" lon="2.51414">
        <ele>576.1</ele>
        <time>2020-08-27T13:13:39Z</time>
      </trkpt>
      <trkpt lat="42.89348" lon="2.51303">
        <ele>561.2</ele>
        <time>2020-08-27T13:13:54Z</time>
      </trkpt>
      <trkpt lat="42.89375" lon="2.51172">
        <ele>559.8</ele>
        <time>2020-08-27T13:14:04Z</time>
      </trkpt>
      <trkpt lat="42.89354" lon="2.51009">
        <ele>551.5</ele>
        <time>2020-08-27T13:14:24Z</time>
      </trkpt>
      <trkpt lat="42.89327" lon="2.5113">
        <ele>526.8</ele>
        <time>2020-08-27T13:14:54Z</time>
      </trkpt>
      <trkpt lat="42.89239" lon="2.5126">
        <ele>520.3</ele>
        <time>2020-08-27T13:15:09Z</time>
      </trkpt>
      <trkpt lat="42.89172" lon="2.51365">
        <ele>514.8</ele>
        <time>2020-08-27T13:15:19Z</time>
      </trkpt>
      <trkpt lat="42.89125" lon="2.51487">
        <ele>508.7</ele>
        <time>2020-08-27T13:15:29Z</time>
      </trkpt>
      <trkpt lat="42.89042" lon="2.51563">
        <ele>502.9</ele>
        <time>2020-08-27T13:15:39Z</time>
      </trkpt>
      <trkpt lat="42.88922" lon="2.51549">
        <ele>490.1</ele>
        <time>2020-08-27T13:15:54Z</time>
      </trkpt>
      <trkpt lat="42.88815" lon="2.51648">
        <ele>481.4</ele>
        <time>2020-08-27T13:16:09Z</time>
      </trkpt>
      <trkpt lat="42.8874" lon="2.51714">
        <ele>477.3</ele>
        <time>2020-08-27T13:16:47Z</time>
      </trkpt>
      <trkpt lat="42.88652" lon="2.51769">
        <ele>459.6</ele>
        <time>2020-08-27T13:17:17Z</time>
      </trkpt>
      <trkpt lat="42.88563" lon="2.51802">
        <ele>454.3</ele>
        <time>2020-08-27T13:17:37Z</time>
      </trkpt>
      <trkpt lat="42.88473" lon="2.51843">
        <ele>451.4</ele>
        <time>2020-08-27T13:17:57Z</time>
      </trkpt>
      <trkpt lat="42.88372" lon="2.51889">
        <ele>448.8</ele>
        <time>2020-08-27T13:18:17Z</time>
      </trkpt>
      <trkpt lat="42.88278" lon="2.51796">
        <ele>444.1</ele>
        <time>2020-08-27T13:18:37Z</time>
      </trkpt>
      <trkpt lat="42.88213" lon="2.51673">
        <ele>439.4</ele>
        <time>2020-08-27T13:18:57Z</time>
      </trkpt>
      <trkpt lat="42.8816" lon="2.51564">
        <ele>436.5</ele>
        <time>2020-08-27T13:19:17Z</time>
      </trkpt>
      <trkpt lat="42.88126" lon="2.51436">
        <ele>435.5</ele>
        <time>2020-08-27T13:19:37Z</time>
      </trkpt>
      <trkpt lat="42.88074" lon="2.51323">
        <ele>433.1</ele>
        <time>2020-08-27T13:19:57Z</time>
      </trkpt>
      <trkpt lat="42.8803" lon="2.51212">
        <ele>431.9</ele>
        <time>2020-08-27T13:20:22Z</time>
      </trkpt>
      <trkpt lat="42.88017" lon="2.51086">
        <ele>426.1</ele>
        <time>2020-08-27T13:20:42Z</time>
      </trkpt>
      <trkpt lat="42.88092" lon="2.5101">
        <ele>419.5</ele>
        <time>2020-08-27T13:21:02Z</time>
      </trkpt>
      <trkpt lat="42.88101" lon="2.50868">
        <ele>415.5</ele>
        <time>2020-08-27T13:21:32Z</time>
      </trkpt>
      <trkpt lat="42.88043" lon="2.5077">
        <ele>413.2</ele>
        <time>2020-08-27T13:21:47Z</time>
      </trkpt>
      <trkpt lat="42.87955" lon="2.50657">
        <ele>410.2</ele>
        <time>2020-08-27T13:22:06Z</time>
      </trkpt>
      <trkpt lat="42.87918" lon="2.50535">
        <ele>408</ele>
        <time>2020-08-27T13:22:36Z</time>
      </trkpt>
      <trkpt lat="42.87858" lon="2.5044">
        <ele>401.2</ele>
        <time>2020-08-27T13:23:18Z</time>
      </trkpt>
      <trkpt lat="42.87864" lon="2.50307">
        <ele>401.4</ele>
        <time>2020-08-27T13:24:14Z</time>
      </trkpt>
      <trkpt lat="42.87875" lon="2.50435">
        <ele>400.8</ele>
        <time>2020-08-27T13:25:01Z</time>
      </trkpt>
      <trkpt lat="42.87864" lon="2.50297">
        <ele>395.2</ele>
        <time>2020-08-27T13:45:05Z</time>
      </trkpt>
      <trkpt lat="42.87845" lon="2.50175">
        <ele>395.6</ele>
        <time>2020-08-27T13:45:45Z</time>
      </trkpt>
      <trkpt lat="42.87827" lon="2.50046">
        <ele>396.2</ele>
        <time>2020-08-27T13:46:29Z</time>
      </trkpt>
      <trkpt lat="42.87818" lon="2.4991">
        <ele>396.8</ele>
        <time>2020-08-27T13:47:14Z</time>
      </trkpt>
      <trkpt lat="42.87755" lon="2.49799">
        <ele>397.6</ele>
        <time>2020-08-27T13:47:59Z</time>
      </trkpt>
      <trkpt lat="42.87701" lon="2.4968">
        <ele>398.4</ele>
        <time>2020-08-27T13:48:39Z</time>
      </trkpt>
      <trkpt lat="42.87624" lon="2.49597">
        <ele>399.2</ele>
        <time>2020-08-27T13:49:19Z</time>
      </trkpt>
      <trkpt lat="42.87543" lon="2.4954">
        <ele>400.1</ele>
        <time>2020-08-27T13:49:59Z</time>
      </trkpt>
      <trkpt lat="42.87553" lon="2.49412">
        <ele>401</ele>
        <time>2020-08-27T13:50:34Z</time>
      </trkpt>
      <trkpt lat="42.8755" lon="2.49276">
        <ele>401.9</ele>
        <time>2020-08-27T13:51:09Z</time>
      </trkpt>
      <trkpt lat="42.87468" lon="2.49199">
        <ele>403.6</ele>
        <time>2020-08-27T13:51:39Z</time>
      </trkpt>
      <trkpt lat="42.87432" lon="2.49082">
        <ele>404.9</ele>
        <time>2020-08-27T13:52:04Z</time>
      </trkpt>
      <trkpt lat="42.87374" lon="2.48963">
        <ele>405.7</ele>
        <time>2020-08-27T13:52:29Z</time>
      </trkpt>
      <trkpt lat="42.87326" lon="2.48824">
        <ele>406.6</ele>
        <time>2020-08-27T13:52:54Z</time>
      </trkpt>
      <trkpt lat="42.87312" lon="2.48685">
        <ele>407.4</ele>
        <time>2020-08-27T13:53:14Z</time>
      </trkpt>
      <trkpt lat="42.8723" lon="2.48586">
        <ele>407.9</ele>
        <time>2020-08-27T13:53:34Z</time>
      </trkpt>
      <trkpt lat="42.87131" lon="2.48624">
        <ele>408.3</ele>
        <time>2020-08-27T13:53:54Z</time>
      </trkpt>
      <trkpt lat="42.87039" lon="2.4854">
        <ele>408.8</ele>
        <time>2020-08-27T13:54:19Z</time>
      </trkpt>
      <trkpt lat="42.86949" lon="2.48476">
        <ele>409.5</ele>
        <time>2020-08-27T13:54:49Z</time>
      </trkpt>
      <trkpt lat="42.86854" lon="2.48459">
        <ele>410.9</ele>
        <time>2020-08-27T13:57:15Z</time>
      </trkpt>
      <trkpt lat="42.86813" lon="2.48338">
        <ele>412.5</ele>
        <time>2020-08-27T13:57:50Z</time>
      </trkpt>
      <trkpt lat="42.86823" lon="2.482">
        <ele>414.2</ele>
        <time>2020-08-27T13:58:30Z</time>
      </trkpt>
      <trkpt lat="42.86776" lon="2.48093">
        <ele>415.4</ele>
        <time>2020-08-27T13:59:05Z</time>
      </trkpt>
      <trkpt lat="42.86814" lon="2.47973">
        <ele>417.1</ele>
        <time>2020-08-27T13:59:45Z</time>
      </trkpt>
      <trkpt lat="42.86885" lon="2.47893">
        <ele>418.5</ele>
        <time>2020-08-27T14:00:20Z</time>
      </trkpt>
      <trkpt lat="42.86972" lon="2.47831">
        <ele>420.3</ele>
        <time>2020-08-27T14:01:00Z</time>
      </trkpt>
      <trkpt lat="42.86974" lon="2.47707">
        <ele>423</ele>
        <time>2020-08-27T14:01:55Z</time>
      </trkpt>
      <trkpt lat="42.86973" lon="2.47576">
        <ele>424.9</ele>
        <time>2020-08-27T14:02:35Z</time>
      </trkpt>
      <trkpt lat="42.86924" lon="2.47465">
        <ele>426.8</ele>
        <time>2020-08-27T14:03:15Z</time>
      </trkpt>
      <trkpt lat="42.86869" lon="2.4736">
        <ele>428.8</ele>
        <time>2020-08-27T14:03:55Z</time>
      </trkpt>
      <trkpt lat="42.86813" lon="2.47245">
        <ele>431</ele>
        <time>2020-08-27T14:04:40Z</time>
      </trkpt>
      <trkpt lat="42.8678" lon="2.47123">
        <ele>433.2</ele>
        <time>2020-08-27T14:05:25Z</time>
      </trkpt>
      <trkpt lat="42.86738" lon="2.4699">
        <ele>435.5</ele>
        <time>2020-08-27T14:06:10Z</time>
      </trkpt>
      <trkpt lat="42.86713" lon="2.46866">
        <ele>437.8</ele>
        <time>2020-08-27T14:06:55Z</time>
      </trkpt>
      <trkpt lat="42.86754" lon="2.46745">
        <ele>440.6</ele>
        <time>2020-08-27T14:07:49Z</time>
      </trkpt>
      <trkpt lat="42.86785" lon="2.46627">
        <ele>443.9</ele>
        <time>2020-08-27T14:08:38Z</time>
      </trkpt>
      <trkpt lat="42.86754" lon="2.46507">
        <ele>452.4</ele>
        <time>2020-08-27T14:09:33Z</time>
      </trkpt>
      <trkpt lat="42.86705" lon="2.46401">
        <ele>460.3</ele>
        <time>2020-08-27T14:10:19Z</time>
      </trkpt>
      <trkpt lat="42.86649" lon="2.46291">
        <ele>467.6</ele>
        <time>2020-08-27T14:11:09Z</time>
      </trkpt>
      <trkpt lat="42.86684" lon="2.46167">
        <ele>475.1</ele>
        <time>2020-08-27T14:11:56Z</time>
      </trkpt>
      <trkpt lat="42.86638" lon="2.46056">
        <ele>478.8</ele>
        <time>2020-08-27T14:12:11Z</time>
      </trkpt>
      <trkpt lat="42.86516" lon="2.46027">
        <ele>477.9</ele>
        <time>2020-08-27T14:12:26Z</time>
      </trkpt>
      <trkpt lat="42.86423" lon="2.46063">
        <ele>477.1</ele>
        <time>2020-08-27T14:12:36Z</time>
      </trkpt>
      <trkpt lat="42.86325" lon="2.46175">
        <ele>475.1</ele>
        <time>2020-08-27T14:12:51Z</time>
      </trkpt>
      <trkpt lat="42.86226" lon="2.46194">
        <ele>471.3</ele>
        <time>2020-08-27T14:13:06Z</time>
      </trkpt>
      <trkpt lat="42.86202" lon="2.46029">
        <ele>469</ele>
        <time>2020-08-27T14:13:21Z</time>
      </trkpt>
      <trkpt lat="42.86084" lon="2.46014">
        <ele>459.4</ele>
        <time>2020-08-27T14:14:01Z</time>
      </trkpt>
      <trkpt lat="42.85985" lon="2.46061">
        <ele>454.6</ele>
        <time>2020-08-27T14:14:21Z</time>
      </trkpt>
      <trkpt lat="42.85878" lon="2.46131">
        <ele>450.9</ele>
        <time>2020-08-27T14:14:41Z</time>
      </trkpt>
      <trkpt lat="42.85791" lon="2.46188">
        <ele>448.1</ele>
        <time>2020-08-27T14:14:56Z</time>
      </trkpt>
      <trkpt lat="42.85699" lon="2.46244">
        <ele>443.5</ele>
        <time>2020-08-27T14:15:11Z</time>
      </trkpt>
      <trkpt lat="42.85641" lon="2.46356">
        <ele>441.8</ele>
        <time>2020-08-27T14:15:26Z</time>
      </trkpt>
      <trkpt lat="42.85582" lon="2.46456">
        <ele>439.2</ele>
        <time>2020-08-27T14:15:41Z</time>
      </trkpt>
      <trkpt lat="42.8549" lon="2.46506">
        <ele>435.9</ele>
        <time>2020-08-27T14:15:56Z</time>
      </trkpt>
      <trkpt lat="42.85417" lon="2.46597">
        <ele>432.2</ele>
        <time>2020-08-27T14:16:11Z</time>
      </trkpt>
      <trkpt lat="42.85335" lon="2.46646">
        <ele>430.5</ele>
        <time>2020-08-27T14:16:26Z</time>
      </trkpt>
      <trkpt lat="42.8529" lon="2.46751">
        <ele>428.1</ele>
        <time>2020-08-27T14:16:41Z</time>
      </trkpt>
      <trkpt lat="42.85264" lon="2.46877">
        <ele>425.2</ele>
        <time>2020-08-27T14:16:56Z</time>
      </trkpt>
      <trkpt lat="42.85243" lon="2.47006">
        <ele>423.5</ele>
        <time>2020-08-27T14:17:11Z</time>
      </trkpt>
      <trkpt lat="42.85142" lon="2.47042">
        <ele>418.7</ele>
        <time>2020-08-27T14:17:31Z</time>
      </trkpt>
      <trkpt lat="42.85045" lon="2.47022">
        <ele>415.4</ele>
        <time>2020-08-27T14:17:51Z</time>
      </trkpt>
      <trkpt lat="42.84967" lon="2.47086">
        <ele>411.7</ele>
        <time>2020-08-27T14:18:06Z</time>
      </trkpt>
      <trkpt lat="42.84858" lon="2.47111">
        <ele>411</ele>
        <time>2020-08-27T14:18:26Z</time>
      </trkpt>
      <trkpt lat="42.84803" lon="2.46983">
        <ele>411.9</ele>
        <time>2020-08-27T14:18:46Z</time>
      </trkpt>
      <trkpt lat="42.84788" lon="2.46855">
        <ele>410.6</ele>
        <time>2020-08-27T14:19:01Z</time>
      </trkpt>
      <trkpt lat="42.84699" lon="2.46914">
        <ele>403.9</ele>
        <time>2020-08-27T14:19:26Z</time>
      </trkpt>
      <trkpt lat="42.84616" lon="2.47027">
        <ele>396</ele>
        <time>2020-08-27T14:19:46Z</time>
      </trkpt>
      <trkpt lat="42.84621" lon="2.47158">
        <ele>395.8</ele>
        <time>2020-08-27T14:20:01Z</time>
      </trkpt>
      <trkpt lat="42.84671" lon="2.47266">
        <ele>396.6</ele>
        <time>2020-08-27T14:20:16Z</time>
      </trkpt>
      <trkpt lat="42.84681" lon="2.47402">
        <ele>393.9</ele>
        <time>2020-08-27T14:20:36Z</time>
      </trkpt>
      <trkpt lat="42.84648" lon="2.47527">
        <ele>386.8</ele>
        <time>2020-08-27T14:26:14Z</time>
      </trkpt>
      <trkpt lat="42.84628" lon="2.47665">
        <ele>385.7</ele>
        <time>2020-08-27T14:28:22Z</time>
      </trkpt>
      <trkpt lat="42.84578" lon="2.47784">
        <ele>385.8</ele>
        <time>2020-08-27T14:28:42Z</time>
      </trkpt>
      <trkpt lat="42.84499" lon="2.47854">
        <ele>385.6</ele>
        <time>2020-08-27T14:29:12Z</time>
      </trkpt>
      <trkpt lat="42.84397" lon="2.47893">
        <ele>385.1</ele>
        <time>2020-08-27T14:29:47Z</time>
      </trkpt>
      <trkpt lat="42.84333" lon="2.47989">
        <ele>384.7</ele>
        <time>2020-08-27T14:30:23Z</time>
      </trkpt>
      <trkpt lat="42.84236" lon="2.47988">
        <ele>385.2</ele>
        <time>2020-08-27T14:32:59Z</time>
      </trkpt>
      <trkpt lat="42.84143" lon="2.47975">
        <ele>385.4</ele>
        <time>2020-08-27T14:33:39Z</time>
      </trkpt>
      <trkpt lat="42.84059" lon="2.47913">
        <ele>388.7</ele>
        <time>2020-08-27T14:34:21Z</time>
      </trkpt>
      <trkpt lat="42.83961" lon="2.47963">
        <ele>395.6</ele>
        <time>2020-08-27T14:34:56Z</time>
      </trkpt>
      <trkpt lat="42.8386" lon="2.47975">
        <ele>393.8</ele>
        <time>2020-08-27T14:35:30Z</time>
      </trkpt>
      <trkpt lat="42.83841" lon="2.48105">
        <ele>393.8</ele>
        <time>2020-08-27T14:36:42Z</time>
      </trkpt>
      <trkpt lat="42.83746" lon="2.48197">
        <ele>397.6</ele>
        <time>2020-08-27T14:38:12Z</time>
      </trkpt>
      <trkpt lat="42.83654" lon="2.48172">
        <ele>394.6</ele>
        <time>2020-08-27T14:41:54Z</time>
      </trkpt>
      <trkpt lat="42.83581" lon="2.48065">
        <ele>392.9</ele>
        <time>2020-08-27T14:42:24Z</time>
      </trkpt>
      <trkpt lat="42.83485" lon="2.481">
        <ele>392.4</ele>
        <time>2020-08-27T14:42:54Z</time>
      </trkpt>
      <trkpt lat="42.83394" lon="2.48139">
        <ele>392.2</ele>
        <time>2020-08-27T14:43:24Z</time>
      </trkpt>
      <trkpt lat="42.83391" lon="2.48272">
        <ele>392.1</ele>
        <time>2020-08-27T14:43:44Z</time>
      </trkpt>
      <trkpt lat="42.83444" lon="2.48387">
        <ele>392.1</ele>
        <time>2020-08-27T14:44:04Z</time>
      </trkpt>
      <trkpt lat="42.83518" lon="2.4848">
        <ele>391.9</ele>
        <time>2020-08-27T14:44:24Z</time>
      </trkpt>
      <trkpt lat="42.8352" lon="2.4862">
        <ele>391.5</ele>
        <time>2020-08-27T14:44:44Z</time>
      </trkpt>
      <trkpt lat="42.83581" lon="2.48744">
        <ele>391</ele>
        <time>2020-08-27T14:45:04Z</time>
      </trkpt>
      <trkpt lat="42.83613" lon="2.48877">
        <ele>390.3</ele>
        <time>2020-08-27T14:45:24Z</time>
      </trkpt>
      <trkpt lat="42.83599" lon="2.4901">
        <ele>389.4</ele>
        <time>2020-08-27T14:45:44Z</time>
      </trkpt>
      <trkpt lat="42.83595" lon="2.49133">
        <ele>388.1</ele>
        <time>2020-08-27T14:46:19Z</time>
      </trkpt>
      <trkpt lat="42.83513" lon="2.49197">
        <ele>385</ele>
        <time>2020-08-27T14:46:39Z</time>
      </trkpt>
      <trkpt lat="42.83424" lon="2.49226">
        <ele>382.8</ele>
        <time>2020-08-27T14:46:49Z</time>
      </trkpt>
      <trkpt lat="42.83374" lon="2.49339">
        <ele>379.8</ele>
        <time>2020-08-27T14:46:59Z</time>
      </trkpt>
      <trkpt lat="42.83323" lon="2.49445">
        <ele>375.4</ele>
        <time>2020-08-27T14:47:09Z</time>
      </trkpt>
      <trkpt lat="42.83244" lon="2.49561">
        <ele>371.4</ele>
        <time>2020-08-27T14:47:19Z</time>
      </trkpt>
      <trkpt lat="42.83182" lon="2.49654">
        <ele>367.1</ele>
        <time>2020-08-27T14:47:29Z</time>
      </trkpt>
      <trkpt lat="42.83073" lon="2.49752">
        <ele>351.6</ele>
        <time>2020-08-27T14:47:49Z</time>
      </trkpt>
      <trkpt lat="42.8298" lon="2.49729">
        <ele>344.8</ele>
        <time>2020-08-27T14:47:59Z</time>
      </trkpt>
      <trkpt lat="42.82884" lon="2.49699">
        <ele>338.1</ele>
        <time>2020-08-27T14:48:09Z</time>
      </trkpt>
      <trkpt lat="42.82791" lon="2.4959">
        <ele>330.8</ele>
        <time>2020-08-27T14:48:24Z</time>
      </trkpt>
      <trkpt lat="42.82676" lon="2.49634">
        <ele>322.8</ele>
        <time>2020-08-27T14:48:39Z</time>
      </trkpt>
      <trkpt lat="42.82593" lon="2.49679">
        <ele>317.1</ele>
        <time>2020-08-27T14:48:49Z</time>
      </trkpt>
      <trkpt lat="42.82474" lon="2.49751">
        <ele>312.4</ele>
        <time>2020-08-27T14:49:04Z</time>
      </trkpt>
      <trkpt lat="42.8237" lon="2.4977">
        <ele>295.5</ele>
        <time>2020-08-27T14:52:14Z</time>
      </trkpt>
      <trkpt lat="42.8226" lon="2.49807">
        <ele>293.9</ele>
        <time>2020-08-27T14:52:34Z</time>
      </trkpt>
      <trkpt lat="42.82149" lon="2.49804">
        <ele>293.4</ele>
        <time>2020-08-27T14:52:54Z</time>
      </trkpt>
      <trkpt lat="42.82033" lon="2.49763">
        <ele>292.3</ele>
        <time>2020-08-27T14:53:14Z</time>
      </trkpt>
      <trkpt lat="42.81925" lon="2.4979">
        <ele>291.5</ele>
        <time>2020-08-27T14:53:29Z</time>
      </trkpt>
      <trkpt lat="42.81832" lon="2.4984">
        <ele>290.8</ele>
        <time>2020-08-27T14:53:39Z</time>
      </trkpt>
      <trkpt lat="42.81748" lon="2.49924">
        <ele>290.5</ele>
        <time>2020-08-27T14:53:49Z</time>
      </trkpt>
      <trkpt lat="42.81673" lon="2.49992">
        <ele>289.1</ele>
        <time>2020-08-27T14:53:59Z</time>
      </trkpt>
      <trkpt lat="42.81575" lon="2.50047">
        <ele>287.3</ele>
        <time>2020-08-27T14:54:14Z</time>
      </trkpt>
      <trkpt lat="42.81486" lon="2.50106">
        <ele>279.2</ele>
        <time>2020-08-27T14:54:34Z</time>
      </trkpt>
      <trkpt lat="42.81399" lon="2.50172">
        <ele>276.4</ele>
        <time>2020-08-27T14:54:59Z</time>
      </trkpt>
      <trkpt lat="42.81309" lon="2.50238">
        <ele>274.1</ele>
        <time>2020-08-27T14:55:29Z</time>
      </trkpt>
    </trkseg>
  </trk>
  <trk>
    <name><![CDATA[route115]]></name>
    <trkseg>
      <trkpt lat="42.81226" lon="2.50317">
        <ele>259.7</ele>
        <time>2020-08-28T06:16:40Z</time>
      </trkpt>
      <trkpt lat="42.81136" lon="2.50349">
        <ele>257.6</ele>
        <time>2020-08-28T06:17:15Z</time>
      </trkpt>
      <trkpt lat="42.81053" lon="2.50298">
        <ele>256.4</ele>
        <time>2020-08-28T06:17:50Z</time>
      </trkpt>
      <trkpt lat="42.80949" lon="2.50321">
        <ele>254.4</ele>
        <time>2020-08-28T06:18:25Z</time>
      </trkpt>
      <trkpt lat="42.80927" lon="2.50198">
        <ele>252.2</ele>
        <time>2020-08-28T06:19:29Z</time>
      </trkpt>
      <trkpt lat="42.80923" lon="2.50059">
        <ele>251.1</ele>
        <time>2020-08-28T06:20:04Z</time>
      </trkpt>
      <trkpt lat="42.80902" lon="2.49934">
        <ele>250.4</ele>
        <time>2020-08-28T06:20:34Z</time>
      </trkpt>
      <trkpt lat="42.8089" lon="2.49811">
        <ele>250.1</ele>
        <time>2020-08-28T06:21:03Z</time>
      </trkpt>
      <trkpt lat="42.80864" lon="2.49685">
        <ele>250.3</ele>
        <time>2020-08-28T06:21:33Z</time>
      </trkpt>
      <trkpt lat="42.80849" lon="2.4955">
        <ele>250.4</ele>
        <time>2020-08-28T06:22:03Z</time>
      </trkpt>
      <trkpt lat="42.8083" lon="2.49416">
        <ele>251.5</ele>
        <time>2020-08-28T06:22:48Z</time>
      </trkpt>
      <trkpt lat="42.80809" lon="2.49284">
        <ele>252.3</ele>
        <time>2020-08-28T06:23:23Z</time>
      </trkpt>
      <trkpt lat="42.8079" lon="2.49162">
        <ele>253</ele>
        <time>2020-08-28T06:23:53Z</time>
      </trkpt>
      <trkpt lat="42.80769" lon="2.49022">
        <ele>253.6</ele>
        <time>2020-08-28T06:24:28Z</time>
      </trkpt>
      <trkpt lat="42.80749" lon="2.48898">
        <ele>254.5</ele>
        <time>2020-08-28T06:24:48Z</time>
      </trkpt>
      <trkpt lat="42.80728" lon="2.48769">
        <ele>254.5</ele>
        <time>2020-08-28T06:25:08Z</time>
      </trkpt>
      <trkpt lat="42.80707" lon="2.48639">
        <ele>254.4</ele>
        <time>2020-08-28T06:25:33Z</time>
      </trkpt>
      <trkpt lat="42.80684" lon="2.48501">
        <ele>254.3</ele>
        <time>2020-08-28T06:25:58Z</time>
      </trkpt>
      <trkpt lat="42.80663" lon="2.48375">
        <ele>254.2</ele>
        <time>2020-08-28T06:26:28Z</time>
      </trkpt>
      <trkpt lat="42.80641" lon="2.48242">
        <ele>254.4</ele>
        <time>2020-08-28T06:27:08Z</time>
      </trkpt>
      <trkpt lat="42.80667" lon="2.48111">
        <ele>255.2</ele>
        <time>2020-08-28T06:27:53Z</time>
      </trkpt>
      <trkpt lat="42.80675" lon="2.47989">
        <ele>256.1</ele>
        <time>2020-08-28T06:28:33Z</time>
      </trkpt>
      <trkpt lat="42.80701" lon="2.47862">
        <ele>257</ele>
        <time>2020-08-28T06:29:18Z</time>
      </trkpt>
      <trkpt lat="42.80694" lon="2.47737">
        <ele>257.5</ele>
        <time>2020-08-28T06:29:53Z</time>
      </trkpt>
      <trkpt lat="42.80708" lon="2.47604">
        <ele>258</ele>
        <time>2020-08-28T06:30:33Z</time>
      </trkpt>
      <trkpt lat="42.80733" lon="2.47481">
        <ele>258.4</ele>
        <time>2020-08-28T06:31:03Z</time>
      </trkpt>
      <trkpt lat="42.80746" lon="2.47344">
        <ele>259.2</ele>
        <time>2020-08-28T06:31:33Z</time>
      </trkpt>
      <trkpt lat="42.80749" lon="2.47204">
        <ele>260.1</ele>
        <time>2020-08-28T06:32:03Z</time>
      </trkpt>
      <trkpt lat="42.80752" lon="2.47071">
        <ele>261.5</ele>
        <time>2020-08-28T06:32:33Z</time>
      </trkpt>
      <trkpt lat="42.80763" lon="2.46943">
        <ele>263.1</ele>
        <time>2020-08-28T06:32:58Z</time>
      </trkpt>
      <trkpt lat="42.80788" lon="2.46821">
        <ele>263.6</ele>
        <time>2020-08-28T06:33:46Z</time>
      </trkpt>
      <trkpt lat="42.80799" lon="2.46685">
        <ele>264.5</ele>
        <time>2020-08-28T06:34:47Z</time>
      </trkpt>
      <trkpt lat="42.80815" lon="2.46558">
        <ele>265.6</ele>
        <time>2020-08-28T06:35:07Z</time>
      </trkpt>
      <trkpt lat="42.80809" lon="2.46411">
        <ele>265.9</ele>
        <time>2020-08-28T06:35:27Z</time>
      </trkpt>
      <trkpt lat="42.80866" lon="2.46301">
        <ele>266.4</ele>
        <time>2020-08-28T06:36:02Z</time>
      </trkpt>
      <trkpt lat="42.80935" lon="2.46204">
        <ele>267.2</ele>
        <time>2020-08-28T06:36:27Z</time>
      </trkpt>
      <trkpt lat="42.80986" lon="2.46073">
        <ele>267.8</ele>
        <time>2020-08-28T06:36:52Z</time>
      </trkpt>
      <trkpt lat="42.81051" lon="2.45971">
        <ele>268</ele>
        <time>2020-08-28T06:37:22Z</time>
      </trkpt>
      <trkpt lat="42.81131" lon="2.45897">
        <ele>268.3</ele>
        <time>2020-08-28T06:37:57Z</time>
      </trkpt>
      <trkpt lat="42.81173" lon="2.45782">
        <ele>268.7</ele>
        <time>2020-08-28T06:38:32Z</time>
      </trkpt>
      <trkpt lat="42.81192" lon="2.45648">
        <ele>269.2</ele>
        <time>2020-08-28T06:39:07Z</time>
      </trkpt>
      <trkpt lat="42.81214" lon="2.45522">
        <ele>269.9</ele>
        <time>2020-08-28T06:39:42Z</time>
      </trkpt>
      <trkpt lat="42.81278" lon="2.4542">
        <ele>270.6</ele>
        <time>2020-08-28T06:40:17Z</time>
      </trkpt>
      <trkpt lat="42.81317" lon="2.45293">
        <ele>271.9</ele>
        <time>2020-08-28T06:42:11Z</time>
      </trkpt>
      <trkpt lat="42.81349" lon="2.45167">
        <ele>272.4</ele>
        <time>2020-08-28T06:42:46Z</time>
      </trkpt>
      <trkpt lat="42.81364" lon="2.45045">
        <ele>272.7</ele>
        <time>2020-08-28T06:43:21Z</time>
      </trkpt>
      <trkpt lat="42.81385" lon="2.44925">
        <ele>273.4</ele>
        <time>2020-08-28T06:44:07Z</time>
      </trkpt>
      <trkpt lat="42.81408" lon="2.44807">
        <ele>274.8</ele>
        <time>2020-08-28T06:44:48Z</time>
      </trkpt>
      <trkpt lat="42.81433" lon="2.44678">
        <ele>275.6</ele>
        <time>2020-08-28T06:45:18Z</time>
      </trkpt>
      <trkpt lat="42.81449" lon="2.44548">
        <ele>276.7</ele>
        <time>2020-08-28T06:45:57Z</time>
      </trkpt>
      <trkpt lat="42.8145" lon="2.44414">
        <ele>278.5</ele>
        <time>2020-08-28T06:46:54Z</time>
      </trkpt>
      <trkpt lat="42.81501" lon="2.44308">
        <ele>280</ele>
        <time>2020-08-28T06:47:34Z</time>
      </trkpt>
      <trkpt lat="42.81569" lon="2.4423">
        <ele>281.2</ele>
        <time>2020-08-28T06:48:09Z</time>
      </trkpt>
      <trkpt lat="42.81648" lon="2.44169">
        <ele>282</ele>
        <time>2020-08-28T06:48:44Z</time>
      </trkpt>
      <trkpt lat="42.8172" lon="2.44078">
        <ele>283</ele>
        <time>2020-08-28T06:49:29Z</time>
      </trkpt>
      <trkpt lat="42.81771" lon="2.43978">
        <ele>284.4</ele>
        <time>2020-08-28T06:50:14Z</time>
      </trkpt>
      <trkpt lat="42.81855" lon="2.43933">
        <ele>286.1</ele>
        <time>2020-08-28T06:51:01Z</time>
      </trkpt>
      <trkpt lat="42.81925" lon="2.43856">
        <ele>287.9</ele>
        <time>2020-08-28T06:51:48Z</time>
      </trkpt>
      <trkpt lat="42.82003" lon="2.43787">
        <ele>289.7</ele>
        <time>2020-08-28T06:52:34Z</time>
      </trkpt>
      <trkpt lat="42.82075" lon="2.43707">
        <ele>291.6</ele>
        <time>2020-08-28T06:53:24Z</time>
      </trkpt>
      <trkpt lat="42.82148" lon="2.43628">
        <ele>293.3</ele>
        <time>2020-08-28T06:54:09Z</time>
      </trkpt>
      <trkpt lat="42.82237" lon="2.43597">
        <ele>295.3</ele>
        <time>2020-08-28T06:55:07Z</time>
      </trkpt>
      <trkpt lat="42.82292" lon="2.43502">
        <ele>297.9</ele>
        <time>2020-08-28T06:56:41Z</time>
      </trkpt>
      <trkpt lat="42.82349" lon="2.43404">
        <ele>300.2</ele>
        <time>2020-08-28T06:57:34Z</time>
      </trkpt>
      <trkpt lat="42.82429" lon="2.43332">
        <ele>302.3</ele>
        <time>2020-08-28T06:58:29Z</time>
      </trkpt>
      <trkpt lat="42.82434" lon="2.43201">
        <ele>304.5</ele>
        <time>2020-08-28T06:58:56Z</time>
      </trkpt>
      <trkpt lat="42.8247" lon="2.43081">
        <ele>310.6</ele>
        <time>2020-08-28T06:59:49Z</time>
      </trkpt>
      <trkpt lat="42.82469" lon="2.42948">
        <ele>326.9</ele>
        <time>2020-08-28T07:00:57Z</time>
      </trkpt>
      <trkpt lat="42.825" lon="2.42825">
        <ele>337.6</ele>
        <time>2020-08-28T07:02:03Z</time>
      </trkpt>
      <trkpt lat="42.82528" lon="2.42699">
        <ele>344.6</ele>
        <time>2020-08-28T07:03:09Z</time>
      </trkpt>
      <trkpt lat="42.82559" lon="2.42578">
        <ele>350.1</ele>
        <time>2020-08-28T07:04:14Z</time>
      </trkpt>
      <trkpt lat="42.82622" lon="2.42478">
        <ele>357</ele>
        <time>2020-08-28T07:05:18Z</time>
      </trkpt>
      <trkpt lat="42.82665" lon="2.42369">
        <ele>361.3</ele>
        <time>2020-08-28T07:06:12Z</time>
      </trkpt>
      <trkpt lat="42.82703" lon="2.42259">
        <ele>363.9</ele>
        <time>2020-08-28T07:06:54Z</time>
      </trkpt>
      <trkpt lat="42.82769" lon="2.42163">
        <ele>366.9</ele>
        <time>2020-08-28T07:07:52Z</time>
      </trkpt>
      <trkpt lat="42.82692" lon="2.42065">
        <ele>368.8</ele>
        <time>2020-08-28T07:08:33Z</time>
      </trkpt>
      <trkpt lat="42.82653" lon="2.41945">
        <ele>370.4</ele>
        <time>2020-08-28T07:09:20Z</time>
      </trkpt>
      <trkpt lat="42.82613" lon="2.4182">
        <ele>372.3</ele>
        <time>2020-08-28T07:10:23Z</time>
      </trkpt>
      <trkpt lat="42.82566" lon="2.417">
        <ele>374.2</ele>
        <time>2020-08-28T07:11:28Z</time>
      </trkpt>
      <trkpt lat="42.82523" lon="2.41582">
        <ele>376</ele>
        <time>2020-08-28T07:12:32Z</time>
      </trkpt>
      <trkpt lat="42.82514" lon="2.41457">
        <ele>378</ele>
        <time>2020-08-28T07:13:35Z</time>
      </trkpt>
      <trkpt lat="42.82488" lon="2.41332">
        <ele>379.8</ele>
        <time>2020-08-28T07:14:37Z</time>
      </trkpt>
      <trkpt lat="42.82441" lon="2.41221">
        <ele>381.7</ele>
        <time>2020-08-28T07:15:36Z</time>
      </trkpt>
      <trkpt lat="42.82452" lon="2.41092">
        <ele>384.6</ele>
        <time>2020-08-28T07:17:07Z</time>
      </trkpt>
      <trkpt lat="42.82453" lon="2.40964">
        <ele>385.5</ele>
        <time>2020-08-28T07:17:22Z</time>
      </trkpt>
      <trkpt lat="42.82439" lon="2.40809">
        <ele>385</ele>
        <time>2020-08-28T07:17:37Z</time>
      </trkpt>
      <trkpt lat="42.82417" lon="2.4064">
        <ele>385.4</ele>
        <time>2020-08-28T07:17:52Z</time>
      </trkpt>
      <trkpt lat="42.82343" lon="2.40546">
        <ele>384.4</ele>
        <time>2020-08-28T07:18:07Z</time>
      </trkpt>
      <trkpt lat="42.82272" lon="2.40418">
        <ele>382.5</ele>
        <time>2020-08-28T07:18:27Z</time>
      </trkpt>
      <trkpt lat="42.82217" lon="2.40294">
        <ele>380.2</ele>
        <time>2020-08-28T07:18:42Z</time>
      </trkpt>
      <trkpt lat="42.82194" lon="2.40162">
        <ele>378</ele>
        <time>2020-08-28T07:18:57Z</time>
      </trkpt>
      <trkpt lat="42.8222" lon="2.40033">
        <ele>372.9</ele>
        <time>2020-08-28T07:19:12Z</time>
      </trkpt>
      <trkpt lat="42.8212" lon="2.39933">
        <ele>368.6</ele>
        <time>2020-08-28T07:19:27Z</time>
      </trkpt>
      <trkpt lat="42.82022" lon="2.39953">
        <ele>365.6</ele>
        <time>2020-08-28T07:19:42Z</time>
      </trkpt>
      <trkpt lat="42.81925" lon="2.39938">
        <ele>361.1</ele>
        <time>2020-08-28T07:19:57Z</time>
      </trkpt>
      <trkpt lat="42.81834" lon="2.39987">
        <ele>353.7</ele>
        <time>2020-08-28T07:20:12Z</time>
      </trkpt>
      <trkpt lat="42.81744" lon="2.40065">
        <ele>348.4</ele>
        <time>2020-08-28T07:20:27Z</time>
      </trkpt>
      <trkpt lat="42.81634" lon="2.40043">
        <ele>348.4</ele>
        <time>2020-08-28T07:20:47Z</time>
      </trkpt>
      <trkpt lat="42.81548" lon="2.40087">
        <ele>344</ele>
        <time>2020-08-28T07:21:07Z</time>
      </trkpt>
      <trkpt lat="42.81467" lon="2.40021">
        <ele>342.6</ele>
        <time>2020-08-28T07:21:32Z</time>
      </trkpt>
      <trkpt lat="42.81404" lon="2.39917">
        <ele>341.9</ele>
        <time>2020-08-28T07:22:02Z</time>
      </trkpt>
      <trkpt lat="42.81433" lon="2.39778">
        <ele>337</ele>
        <time>2020-08-28T07:22:32Z</time>
      </trkpt>
      <trkpt lat="42.81377" lon="2.3965">
        <ele>334.9</ele>
        <time>2020-08-28T07:22:57Z</time>
      </trkpt>
      <trkpt lat="42.81377" lon="2.39524">
        <ele>334.4</ele>
        <time>2020-08-28T07:23:39Z</time>
      </trkpt>
      <trkpt lat="42.81409" lon="2.39397">
        <ele>334.9</ele>
        <time>2020-08-28T07:24:43Z</time>
      </trkpt>
      <trkpt lat="42.81446" lon="2.39276">
        <ele>337</ele>
        <time>2020-08-28T07:25:41Z</time>
      </trkpt>
      <trkpt lat="42.81524" lon="2.39192">
        <ele>339.3</ele>
        <time>2020-08-28T07:26:32Z</time>
      </trkpt>
      <trkpt lat="42.81571" lon="2.3907">
        <ele>340.9</ele>
        <time>2020-08-28T07:27:12Z</time>
      </trkpt>
      <trkpt lat="42.81615" lon="2.38943">
        <ele>342.1</ele>
        <time>2020-08-28T07:27:42Z</time>
      </trkpt>
      <trkpt lat="42.81656" lon="2.38825">
        <ele>343.6</ele>
        <time>2020-08-28T07:28:07Z</time>
      </trkpt>
      <trkpt lat="42.8161" lon="2.38691">
        <ele>344.3</ele>
        <time>2020-08-28T07:28:37Z</time>
      </trkpt>
      <trkpt lat="42.81574" lon="2.38565">
        <ele>344.2</ele>
        <time>2020-08-28T07:29:02Z</time>
      </trkpt>
      <trkpt lat="42.81524" lon="2.38459">
        <ele>344.2</ele>
        <time>2020-08-28T07:29:22Z</time>
      </trkpt>
      <trkpt lat="42.81542" lon="2.38323">
        <ele>343.8</ele>
        <time>2020-08-28T07:29:42Z</time>
      </trkpt>
      <trkpt lat="42.81579" lon="2.38187">
        <ele>343.7</ele>
        <time>2020-08-28T07:30:07Z</time>
      </trkpt>
      <trkpt lat="42.8162" lon="2.38066">
        <ele>343.6</ele>
        <time>2020-08-28T07:30:42Z</time>
      </trkpt>
      <trkpt lat="42.81671" lon="2.37964">
        <ele>343.6</ele>
        <time>2020-08-28T07:31:17Z</time>
      </trkpt>
      <trkpt lat="42.81618" lon="2.37829">
        <ele>343.8</ele>
        <time>2020-08-28T07:31:42Z</time>
      </trkpt>
      <trkpt lat="42.81526" lon="2.37804">
        <ele>343.8</ele>
        <time>2020-08-28T07:32:02Z</time>
      </trkpt>
      <trkpt lat="42.81422" lon="2.37769">
        <ele>343.8</ele>
        <time>2020-08-28T07:32:27Z</time>
      </trkpt>
      <trkpt lat="42.81376" lon="2.37654">
        <ele>343.6</ele>
        <time>2020-08-28T07:34:04Z</time>
      </trkpt>
      <trkpt lat="42.81281" lon="2.37649">
        <ele>343.5</ele>
        <time>2020-08-28T07:35:04Z</time>
      </trkpt>
      <trkpt lat="42.81206" lon="2.37575">
        <ele>343.6</ele>
        <time>2020-08-28T07:35:51Z</time>
      </trkpt>
      <trkpt lat="42.81238" lon="2.37442">
        <ele>345.4</ele>
        <time>2020-08-28T07:40:44Z</time>
      </trkpt>
      <trkpt lat="42.81258" lon="2.37316">
        <ele>345.8</ele>
        <time>2020-08-28T07:41:40Z</time>
      </trkpt>
      <trkpt lat="42.81193" lon="2.37222">
        <ele>346.1</ele>
        <time>2020-08-28T07:42:15Z</time>
      </trkpt>
      <trkpt lat="42.81196" lon="2.37088">
        <ele>346.3</ele>
        <time>2020-08-28T07:42:45Z</time>
      </trkpt>
      <trkpt lat="42.81201" lon="2.36953">
        <ele>346.6</ele>
        <time>2020-08-28T07:43:25Z</time>
      </trkpt>
      <trkpt lat="42.81205" lon="2.36829">
        <ele>347</ele>
        <time>2020-08-28T07:44:13Z</time>
      </trkpt>
      <trkpt lat="42.81209" lon="2.36694">
        <ele>347.6</ele>
        <time>2020-08-28T07:45:11Z</time>
      </trkpt>
      <trkpt lat="42.81218" lon="2.36569">
        <ele>348.1</ele>
        <time>2020-08-28T07:46:05Z</time>
      </trkpt>
      <trkpt lat="42.81249" lon="2.36453">
        <ele>348.9</ele>
        <time>2020-08-28T07:46:58Z</time>
      </trkpt>
      <trkpt lat="42.81264" lon="2.36319">
        <ele>349.6</ele>
        <time>2020-08-28T07:47:49Z</time>
      </trkpt>
      <trkpt lat="42.81274" lon="2.36189">
        <ele>350.3</ele>
        <time>2020-08-28T07:48:41Z</time>
      </trkpt>
      <trkpt lat="42.81286" lon="2.36058">
        <ele>350.9</ele>
        <time>2020-08-28T07:49:32Z</time>
      </trkpt>
      <trkpt lat="42.81296" lon="2.35926">
        <ele>351.4</ele>
        <time>2020-08-28T07:50:22Z</time>
      </trkpt>
      <trkpt lat="42.81295" lon="2.35786">
        <ele>352</ele>
        <time>2020-08-28T07:50:52Z</time>
      </trkpt>
      <trkpt lat="42.81278" lon="2.3566">
        <ele>351.9</ele>
        <time>2020-08-28T07:51:07Z</time>
      </trkpt>
      <trkpt lat="42.81276" lon="2.35513">
        <ele>352.1</ele>
        <time>2020-08-28T07:51:22Z</time>
      </trkpt>
      <trkpt lat="42.81243" lon="2.35373">
        <ele>352.1</ele>
        <time>2020-08-28T07:51:42Z</time>
      </trkpt>
      <trkpt lat="42.8124" lon="2.35246">
        <ele>351.2</ele>
        <time>2020-08-28T07:52:02Z</time>
      </trkpt>
      <trkpt lat="42.81274" lon="2.35107">
        <ele>352.4</ele>
        <time>2020-08-28T07:52:27Z</time>
      </trkpt>
      <trkpt lat="42.81284" lon="2.34984">
        <ele>352.9</ele>
        <time>2020-08-28T07:52:52Z</time>
      </trkpt>
      <trkpt lat="42.81287" lon="2.34851">
        <ele>353.4</ele>
        <time>2020-08-28T07:53:27Z</time>
      </trkpt>
      <trkpt lat="42.8129" lon="2.34716">
        <ele>352.8</ele>
        <time>2020-08-28T07:54:07Z</time>
      </trkpt>
      <trkpt lat="42.8129" lon="2.34581">
        <ele>354.1</ele>
        <time>2020-08-28T07:54:47Z</time>
      </trkpt>
      <trkpt lat="42.81287" lon="2.34456">
        <ele>354.5</ele>
        <time>2020-08-28T07:55:22Z</time>
      </trkpt>
      <trkpt lat="42.81283" lon="2.34332">
        <ele>354.6</ele>
        <time>2020-08-28T07:55:57Z</time>
      </trkpt>
      <trkpt lat="42.81281" lon="2.34198">
        <ele>354.7</ele>
        <time>2020-08-28T07:56:37Z</time>
      </trkpt>
      <trkpt lat="42.81281" lon="2.34075">
        <ele>358.5</ele>
        <time>2020-08-28T07:58:32Z</time>
      </trkpt>
      <trkpt lat="42.81257" lon="2.3395">
        <ele>362.9</ele>
        <time>2020-08-28T07:59:17Z</time>
      </trkpt>
      <trkpt lat="42.81245" lon="2.33816">
        <ele>365.7</ele>
        <time>2020-08-28T08:00:07Z</time>
      </trkpt>
      <trkpt lat="42.81257" lon="2.33686">
        <ele>367.5</ele>
        <time>2020-08-28T08:00:42Z</time>
      </trkpt>
      <trkpt lat="42.81302" lon="2.33562">
        <ele>368.9</ele>
        <time>2020-08-28T08:01:12Z</time>
      </trkpt>
      <trkpt lat="42.81327" lon="2.3343">
        <ele>370</ele>
        <time>2020-08-28T08:01:42Z</time>
      </trkpt>
      <trkpt lat="42.81349" lon="2.33307">
        <ele>371.1</ele>
        <time>2020-08-28T08:02:12Z</time>
      </trkpt>
      <trkpt lat="42.81373" lon="2.3318">
        <ele>372.8</ele>
        <time>2020-08-28T08:02:52Z</time>
      </trkpt>
      <trkpt lat="42.81367" lon="2.33045">
        <ele>389.1</ele>
        <time>2020-08-28T08:11:12Z</time>
      </trkpt>
      <trkpt lat="42.81345" lon="2.32912">
        <ele>391</ele>
        <time>2020-08-28T08:11:57Z</time>
      </trkpt>
      <trkpt lat="42.81339" lon="2.32788">
        <ele>391.9</ele>
        <time>2020-08-28T08:12:38Z</time>
      </trkpt>
      <trkpt lat="42.81347" lon="2.32665">
        <ele>392.5</ele>
        <time>2020-08-28T08:13:18Z</time>
      </trkpt>
      <trkpt lat="42.81357" lon="2.32541">
        <ele>392.9</ele>
        <time>2020-08-28T08:13:58Z</time>
      </trkpt>
      <trkpt lat="42.81348" lon="2.32409">
        <ele>393.2</ele>
        <time>2020-08-28T08:14:38Z</time>
      </trkpt>
      <trkpt lat="42.81333" lon="2.32278">
        <ele>393.6</ele>
        <time>2020-08-28T08:15:18Z</time>
      </trkpt>
      <trkpt lat="42.81347" lon="2.32137">
        <ele>394.2</ele>
        <time>2020-08-28T08:15:58Z</time>
      </trkpt>
      <trkpt lat="42.81308" lon="2.32018">
        <ele>394.8</ele>
        <time>2020-08-28T08:16:28Z</time>
      </trkpt>
      <trkpt lat="42.81276" lon="2.31887">
        <ele>395.2</ele>
        <time>2020-08-28T08:16:58Z</time>
      </trkpt>
      <trkpt lat="42.8128" lon="2.31751">
        <ele>395.7</ele>
        <time>2020-08-28T08:17:33Z</time>
      </trkpt>
      <trkpt lat="42.81251" lon="2.31622">
        <ele>396.5</ele>
        <time>2020-08-28T08:18:08Z</time>
      </trkpt>
      <trkpt lat="42.81218" lon="2.31489">
        <ele>397.3</ele>
        <time>2020-08-28T08:18:43Z</time>
      </trkpt>
      <trkpt lat="42.81186" lon="2.31365">
        <ele>398.4</ele>
        <time>2020-08-28T08:19:18Z</time>
      </trkpt>
      <trkpt lat="42.81143" lon="2.31239">
        <ele>399.7</ele>
        <time>2020-08-28T08:19:53Z</time>
      </trkpt>
      <trkpt lat="42.81101" lon="2.31123">
        <ele>401.2</ele>
        <time>2020-08-28T08:20:28Z</time>
      </trkpt>
      <trkpt lat="42.81057" lon="2.30998">
        <ele>402.8</ele>
        <time>2020-08-28T08:21:03Z</time>
      </trkpt>
      <trkpt lat="42.81046" lon="2.30858">
        <ele>404.5</ele>
        <time>2020-08-28T08:21:38Z</time>
      </trkpt>
      <trkpt lat="42.80997" lon="2.30739">
        <ele>406.1</ele>
        <time>2020-08-28T08:22:13Z</time>
      </trkpt>
      <trkpt lat="42.80992" lon="2.30608">
        <ele>407.6</ele>
        <time>2020-08-28T08:22:48Z</time>
      </trkpt>
      <trkpt lat="42.81025" lon="2.30486">
        <ele>417.3</ele>
        <time>2020-08-28T08:26:34Z</time>
      </trkpt>
      <trkpt lat="42.81066" lon="2.30373">
        <ele>419.9</ele>
        <time>2020-08-28T08:27:19Z</time>
      </trkpt>
      <trkpt lat="42.81122" lon="2.30278">
        <ele>421.6</ele>
        <time>2020-08-28T08:27:59Z</time>
      </trkpt>
      <trkpt lat="42.81163" lon="2.3017">
        <ele>423.4</ele>
        <time>2020-08-28T08:28:47Z</time>
      </trkpt>
      <trkpt lat="42.81172" lon="2.30046">
        <ele>425.3</ele>
        <time>2020-08-28T08:29:37Z</time>
      </trkpt>
      <trkpt lat="42.81203" lon="2.29928">
        <ele>427.2</ele>
        <time>2020-08-28T08:30:27Z</time>
      </trkpt>
      <trkpt lat="42.81209" lon="2.29802">
        <ele>428.7</ele>
        <time>2020-08-28T08:31:07Z</time>
      </trkpt>
      <trkpt lat="42.81229" lon="2.29678">
        <ele>430.5</ele>
        <time>2020-08-28T08:31:53Z</time>
      </trkpt>
      <trkpt lat="42.81234" lon="2.29549">
        <ele>432.3</ele>
        <time>2020-08-28T08:32:34Z</time>
      </trkpt>
      <trkpt lat="42.81238" lon="2.2942">
        <ele>435.2</ele>
        <time>2020-08-28T08:33:23Z</time>
      </trkpt>
      <trkpt lat="42.8124" lon="2.29296">
        <ele>438.7</ele>
        <time>2020-08-28T08:34:13Z</time>
      </trkpt>
      <trkpt lat="42.81233" lon="2.29169">
        <ele>442.2</ele>
        <time>2020-08-28T08:35:04Z</time>
      </trkpt>
      <trkpt lat="42.81221" lon="2.29042">
        <ele>445.5</ele>
        <time>2020-08-28T08:35:58Z</time>
      </trkpt>
      <trkpt lat="42.81201" lon="2.28919">
        <ele>447.8</ele>
        <time>2020-08-28T08:36:39Z</time>
      </trkpt>
      <trkpt lat="42.81156" lon="2.28801">
        <ele>450</ele>
        <time>2020-08-28T08:37:25Z</time>
      </trkpt>
      <trkpt lat="42.81119" lon="2.28675">
        <ele>451.8</ele>
        <time>2020-08-28T08:38:16Z</time>
      </trkpt>
      <trkpt lat="42.81152" lon="2.28548">
        <ele>453.6</ele>
        <time>2020-08-28T08:39:07Z</time>
      </trkpt>
      <trkpt lat="42.81174" lon="2.28418">
        <ele>456</ele>
        <time>2020-08-28T08:39:59Z</time>
      </trkpt>
      <trkpt lat="42.81148" lon="2.28295">
        <ele>458.5</ele>
        <time>2020-08-28T08:40:49Z</time>
      </trkpt>
      <trkpt lat="42.81113" lon="2.28168">
        <ele>462.2</ele>
        <time>2020-08-28T08:41:50Z</time>
      </trkpt>
      <trkpt lat="42.81107" lon="2.28035">
        <ele>469.6</ele>
        <time>2020-08-28T08:42:54Z</time>
      </trkpt>
      <trkpt lat="42.81097" lon="2.27907">
        <ele>475.9</ele>
        <time>2020-08-28T08:43:45Z</time>
      </trkpt>
      <trkpt lat="42.81078" lon="2.27774">
        <ele>480.6</ele>
        <time>2020-08-28T08:44:25Z</time>
      </trkpt>
      <trkpt lat="42.81056" lon="2.27653">
        <ele>485.6</ele>
        <time>2020-08-28T08:44:55Z</time>
      </trkpt>
      <trkpt lat="42.8104" lon="2.27527">
        <ele>495.6</ele>
        <time>2020-08-28T08:45:15Z</time>
      </trkpt>
      <trkpt lat="42.81037" lon="2.2739">
        <ele>498.3</ele>
        <time>2020-08-28T08:45:30Z</time>
      </trkpt>
      <trkpt lat="42.81024" lon="2.27214">
        <ele>499.9</ele>
        <time>2020-08-28T08:45:45Z</time>
      </trkpt>
      <trkpt lat="42.81019" lon="2.27087">
        <ele>498.9</ele>
        <time>2020-08-28T08:45:55Z</time>
      </trkpt>
      <trkpt lat="42.81014" lon="2.26906">
        <ele>497.2</ele>
        <time>2020-08-28T08:46:10Z</time>
      </trkpt>
      <trkpt lat="42.81002" lon="2.26733">
        <ele>494.6</ele>
        <time>2020-08-28T08:46:25Z</time>
      </trkpt>
      <trkpt lat="42.80982" lon="2.26564">
        <ele>491.3</ele>
        <time>2020-08-28T08:46:40Z</time>
      </trkpt>
      <trkpt lat="42.80961" lon="2.26416">
        <ele>488.6</ele>
        <time>2020-08-28T08:46:55Z</time>
      </trkpt>
      <trkpt lat="42.80972" lon="2.26263">
        <ele>485.2</ele>
        <time>2020-08-28T08:47:10Z</time>
      </trkpt>
      <trkpt lat="42.81008" lon="2.2609">
        <ele>481.4</ele>
        <time>2020-08-28T08:47:25Z</time>
      </trkpt>
      <trkpt lat="42.81043" lon="2.25965">
        <ele>478.4</ele>
        <time>2020-08-28T08:47:35Z</time>
      </trkpt>
      <trkpt lat="42.81103" lon="2.25857">
        <ele>475.5</ele>
        <time>2020-08-28T08:47:45Z</time>
      </trkpt>
      <trkpt lat="42.81129" lon="2.2574">
        <ele>472.8</ele>
        <time>2020-08-28T08:47:55Z</time>
      </trkpt>
      <trkpt lat="42.81124" lon="2.2561">
        <ele>469.8</ele>
        <time>2020-08-28T08:48:05Z</time>
      </trkpt>
      <trkpt lat="42.81112" lon="2.25471">
        <ele>464.5</ele>
        <time>2020-08-28T08:48:15Z</time>
      </trkpt>
      <trkpt lat="42.81104" lon="2.25347">
        <ele>460.6</ele>
        <time>2020-08-28T08:48:25Z</time>
      </trkpt>
      <trkpt lat="42.81082" lon="2.25192">
        <ele>455.1</ele>
        <time>2020-08-28T08:48:40Z</time>
      </trkpt>
      <trkpt lat="42.81036" lon="2.25016">
        <ele>451.4</ele>
        <time>2020-08-28T08:48:55Z</time>
      </trkpt>
      <trkpt lat="42.81038" lon="2.24879">
        <ele>447.1</ele>
        <time>2020-08-28T08:49:05Z</time>
      </trkpt>
      <trkpt lat="42.81054" lon="2.24741">
        <ele>442</ele>
        <time>2020-08-28T08:49:15Z</time>
      </trkpt>
      <trkpt lat="42.81066" lon="2.24597">
        <ele>436.5</ele>
        <time>2020-08-28T08:49:25Z</time>
      </trkpt>
      <trkpt lat="42.81113" lon="2.2447">
        <ele>430.9</ele>
        <time>2020-08-28T08:49:34Z</time>
      </trkpt>
      <trkpt lat="42.81137" lon="2.24329">
        <ele>426</ele>
        <time>2020-08-28T08:49:44Z</time>
      </trkpt>
      <trkpt lat="42.8115" lon="2.24184">
        <ele>420.1</ele>
        <time>2020-08-28T08:49:54Z</time>
      </trkpt>
      <trkpt lat="42.81172" lon="2.24052">
        <ele>415.7</ele>
        <time>2020-08-28T08:50:04Z</time>
      </trkpt>
      <trkpt lat="42.81172" lon="2.23914">
        <ele>408.9</ele>
        <time>2020-08-28T08:50:19Z</time>
      </trkpt>
      <trkpt lat="42.81143" lon="2.23794">
        <ele>403.9</ele>
        <time>2020-08-28T08:52:52Z</time>
      </trkpt>
      <trkpt lat="42.81075" lon="2.23696">
        <ele>402.2</ele>
        <time>2020-08-28T08:53:22Z</time>
      </trkpt>
      <trkpt lat="42.81" lon="2.23609">
        <ele>400.7</ele>
        <time>2020-08-28T08:53:52Z</time>
      </trkpt>
      <trkpt lat="42.80902" lon="2.23568">
        <ele>400.4</ele>
        <time>2020-08-28T08:54:27Z</time>
      </trkpt>
      <trkpt lat="42.80816" lon="2.23617">
        <ele>400.1</ele>
        <time>2020-08-28T08:54:57Z</time>
      </trkpt>
      <trkpt lat="42.80728" lon="2.23672">
        <ele>399.6</ele>
        <time>2020-08-28T08:55:27Z</time>
      </trkpt>
      <trkpt lat="42.80632" lon="2.23677">
        <ele>400.8</ele>
        <time>2020-08-28T08:55:57Z</time>
      </trkpt>
      <trkpt lat="42.80552" lon="2.2359">
        <ele>404.2</ele>
        <time>2020-08-28T08:56:37Z</time>
      </trkpt>
      <trkpt lat="42.8049" lon="2.23481">
        <ele>406.2</ele>
        <time>2020-08-28T08:57:21Z</time>
      </trkpt>
      <trkpt lat="42.80446" lon="2.23362">
        <ele>408.1</ele>
        <time>2020-08-28T08:58:43Z</time>
      </trkpt>
      <trkpt lat="42.80422" lon="2.23238">
        <ele>407.7</ele>
        <time>2020-08-28T08:59:41Z</time>
      </trkpt>
    </trkseg>
  </trk>
  <trk>
    <name><![CDATA[route116]]></name>
    <trkseg>
      <trkpt lat="42.80457" lon="2.2354">
        <ele>404.6</ele>
        <time>2020-08-29T06:05:59Z</time>
      </trkpt>
      <trkpt lat="42.80552" lon="2.23595">
        <ele>402.2</ele>
        <time>2020-08-29T06:07:29Z</time>
      </trkpt>
      <trkpt lat="42.80629" lon="2.23677">
        <ele>400.6</ele>
        <time>2020-08-29T06:07:54Z</time>
      </trkpt>
      <trkpt lat="42.80728" lon="2.23676">
        <ele>400.1</ele>
        <time>2020-08-29T06:08:19Z</time>
      </trkpt>
      <trkpt lat="42.80819" lon="2.23622">
        <ele>399.7</ele>
        <time>2020-08-29T06:08:39Z</time>
      </trkpt>
      <trkpt lat="42.80919" lon="2.23572">
        <ele>399.6</ele>
        <time>2020-08-29T06:09:04Z</time>
      </trkpt>
      <trkpt lat="42.81011" lon="2.2362">
        <ele>399.6</ele>
        <time>2020-08-29T06:09:24Z</time>
      </trkpt>
      <trkpt lat="42.81083" lon="2.23706">
        <ele>399.4</ele>
        <time>2020-08-29T06:09:44Z</time>
      </trkpt>
      <trkpt lat="42.81146" lon="2.23798">
        <ele>399.1</ele>
        <time>2020-08-29T06:10:04Z</time>
      </trkpt>
      <trkpt lat="42.81229" lon="2.2385">
        <ele>398.3</ele>
        <time>2020-08-29T06:10:24Z</time>
      </trkpt>
      <trkpt lat="42.81258" lon="2.23729">
        <ele>397.2</ele>
        <time>2020-08-29T06:10:44Z</time>
      </trkpt>
      <trkpt lat="42.81264" lon="2.23581">
        <ele>396.6</ele>
        <time>2020-08-29T06:11:04Z</time>
      </trkpt>
      <trkpt lat="42.81302" lon="2.23449">
        <ele>396.3</ele>
        <time>2020-08-29T06:11:24Z</time>
      </trkpt>
      <trkpt lat="42.81376" lon="2.23346">
        <ele>396</ele>
        <time>2020-08-29T06:11:44Z</time>
      </trkpt>
      <trkpt lat="42.81435" lon="2.23247">
        <ele>394.1</ele>
        <time>2020-08-29T06:11:59Z</time>
      </trkpt>
      <trkpt lat="42.8144" lon="2.2311">
        <ele>391.8</ele>
        <time>2020-08-29T06:12:19Z</time>
      </trkpt>
      <trkpt lat="42.81431" lon="2.2297">
        <ele>388.5</ele>
        <time>2020-08-29T06:12:44Z</time>
      </trkpt>
      <trkpt lat="42.81462" lon="2.22823">
        <ele>389.5</ele>
        <time>2020-08-29T06:13:09Z</time>
      </trkpt>
      <trkpt lat="42.81543" lon="2.22771">
        <ele>392.1</ele>
        <time>2020-08-29T06:13:29Z</time>
      </trkpt>
      <trkpt lat="42.81454" lon="2.22687">
        <ele>386.6</ele>
        <time>2020-08-29T06:14:51Z</time>
      </trkpt>
      <trkpt lat="42.81439" lon="2.22554">
        <ele>386.6</ele>
        <time>2020-08-29T06:15:21Z</time>
      </trkpt>
      <trkpt lat="42.81497" lon="2.22449">
        <ele>387.9</ele>
        <time>2020-08-29T06:15:46Z</time>
      </trkpt>
      <trkpt lat="42.81524" lon="2.22327">
        <ele>388.7</ele>
        <time>2020-08-29T06:16:11Z</time>
      </trkpt>
      <trkpt lat="42.81556" lon="2.22213">
        <ele>391.9</ele>
        <time>2020-08-29T06:16:36Z</time>
      </trkpt>
      <trkpt lat="42.81467" lon="2.22165">
        <ele>394.4</ele>
        <time>2020-08-29T06:17:06Z</time>
      </trkpt>
      <trkpt lat="42.81446" lon="2.22038">
        <ele>400.1</ele>
        <time>2020-08-29T06:17:52Z</time>
      </trkpt>
      <trkpt lat="42.8153" lon="2.21978">
        <ele>404.6</ele>
        <time>2020-08-29T06:18:32Z</time>
      </trkpt>
      <trkpt lat="42.81526" lon="2.21838">
        <ele>405.9</ele>
        <time>2020-08-29T06:19:12Z</time>
      </trkpt>
      <trkpt lat="42.81565" lon="2.21713">
        <ele>406.8</ele>
        <time>2020-08-29T06:19:52Z</time>
      </trkpt>
      <trkpt lat="42.81614" lon="2.21609">
        <ele>407.7</ele>
        <time>2020-08-29T06:20:27Z</time>
      </trkpt>
      <trkpt lat="42.816" lon="2.21472">
        <ele>408.1</ele>
        <time>2020-08-29T06:21:02Z</time>
      </trkpt>
      <trkpt lat="42.81612" lon="2.21332">
        <ele>408.5</ele>
        <time>2020-08-29T06:21:42Z</time>
      </trkpt>
      <trkpt lat="42.81624" lon="2.212">
        <ele>409</ele>
        <time>2020-08-29T06:22:17Z</time>
      </trkpt>
      <trkpt lat="42.81592" lon="2.21079">
        <ele>409.4</ele>
        <time>2020-08-29T06:22:52Z</time>
      </trkpt>
      <trkpt lat="42.8163" lon="2.20953">
        <ele>410.2</ele>
        <time>2020-08-29T06:23:37Z</time>
      </trkpt>
      <trkpt lat="42.81693" lon="2.20861">
        <ele>411.5</ele>
        <time>2020-08-29T06:24:16Z</time>
      </trkpt>
      <trkpt lat="42.81703" lon="2.20733">
        <ele>411.6</ele>
        <time>2020-08-29T06:24:51Z</time>
      </trkpt>
      <trkpt lat="42.81724" lon="2.20608">
        <ele>412.5</ele>
        <time>2020-08-29T06:25:26Z</time>
      </trkpt>
      <trkpt lat="42.81749" lon="2.20484">
        <ele>411.5</ele>
        <time>2020-08-29T06:26:01Z</time>
      </trkpt>
      <trkpt lat="42.81665" lon="2.20424">
        <ele>410.6</ele>
        <time>2020-08-29T06:26:36Z</time>
      </trkpt>
      <trkpt lat="42.81674" lon="2.20299">
        <ele>411.9</ele>
        <time>2020-08-29T06:27:11Z</time>
      </trkpt>
      <trkpt lat="42.81622" lon="2.20187">
        <ele>413</ele>
        <time>2020-08-29T06:27:52Z</time>
      </trkpt>
      <trkpt lat="42.8163" lon="2.2006">
        <ele>415.3</ele>
        <time>2020-08-29T06:28:32Z</time>
      </trkpt>
      <trkpt lat="42.81721" lon="2.20019">
        <ele>418.2</ele>
        <time>2020-08-29T06:29:17Z</time>
      </trkpt>
      <trkpt lat="42.81795" lon="2.19946">
        <ele>420.5</ele>
        <time>2020-08-29T06:30:07Z</time>
      </trkpt>
      <trkpt lat="42.81865" lon="2.19858">
        <ele>422</ele>
        <time>2020-08-29T06:30:47Z</time>
      </trkpt>
      <trkpt lat="42.81871" lon="2.19727">
        <ele>424.5</ele>
        <time>2020-08-29T06:31:37Z</time>
      </trkpt>
      <trkpt lat="42.81901" lon="2.19602">
        <ele>428.4</ele>
        <time>2020-08-29T06:32:17Z</time>
      </trkpt>
      <trkpt lat="42.81974" lon="2.19525">
        <ele>432.7</ele>
        <time>2020-08-29T06:32:52Z</time>
      </trkpt>
      <trkpt lat="42.81992" lon="2.19397">
        <ele>435.9</ele>
        <time>2020-08-29T06:33:27Z</time>
      </trkpt>
      <trkpt lat="42.82079" lon="2.19345">
        <ele>436.8</ele>
        <time>2020-08-29T06:34:07Z</time>
      </trkpt>
      <trkpt lat="42.82171" lon="2.19327">
        <ele>437.9</ele>
        <time>2020-08-29T06:34:47Z</time>
      </trkpt>
      <trkpt lat="42.82132" lon="2.192">
        <ele>439.1</ele>
        <time>2020-08-29T06:35:32Z</time>
      </trkpt>
      <trkpt lat="42.82066" lon="2.19112">
        <ele>439.9</ele>
        <time>2020-08-29T06:36:12Z</time>
      </trkpt>
      <trkpt lat="42.82147" lon="2.19045">
        <ele>443.9</ele>
        <time>2020-08-29T06:36:57Z</time>
      </trkpt>
      <trkpt lat="42.82133" lon="2.18918">
        <ele>448.6</ele>
        <time>2020-08-29T06:37:57Z</time>
      </trkpt>
      <trkpt lat="42.82142" lon="2.18791">
        <ele>450.5</ele>
        <time>2020-08-29T06:38:37Z</time>
      </trkpt>
      <trkpt lat="42.822" lon="2.18683">
        <ele>452.8</ele>
        <time>2020-08-29T06:39:12Z</time>
      </trkpt>
      <trkpt lat="42.82169" lon="2.18558">
        <ele>454</ele>
        <time>2020-08-29T06:39:47Z</time>
      </trkpt>
      <trkpt lat="42.82189" lon="2.18425">
        <ele>454.4</ele>
        <time>2020-08-29T06:40:22Z</time>
      </trkpt>
      <trkpt lat="42.8226" lon="2.18339">
        <ele>455.7</ele>
        <time>2020-08-29T06:40:52Z</time>
      </trkpt>
      <trkpt lat="42.82293" lon="2.18215">
        <ele>456.6</ele>
        <time>2020-08-29T06:41:22Z</time>
      </trkpt>
      <trkpt lat="42.82308" lon="2.18093">
        <ele>456.1</ele>
        <time>2020-08-29T06:41:52Z</time>
      </trkpt>
      <trkpt lat="42.82315" lon="2.17953">
        <ele>456.1</ele>
        <time>2020-08-29T06:42:27Z</time>
      </trkpt>
      <trkpt lat="42.82358" lon="2.17839">
        <ele>458.1</ele>
        <time>2020-08-29T06:43:02Z</time>
      </trkpt>
      <trkpt lat="42.82378" lon="2.17706">
        <ele>460.7</ele>
        <time>2020-08-29T06:43:42Z</time>
      </trkpt>
      <trkpt lat="42.82402" lon="2.17587">
        <ele>462</ele>
        <time>2020-08-29T06:44:17Z</time>
      </trkpt>
      <trkpt lat="42.82345" lon="2.17475">
        <ele>463.9</ele>
        <time>2020-08-29T06:44:57Z</time>
      </trkpt>
      <trkpt lat="42.8237" lon="2.17353">
        <ele>465.4</ele>
        <time>2020-08-29T06:45:32Z</time>
      </trkpt>
      <trkpt lat="42.82389" lon="2.17225">
        <ele>467.1</ele>
        <time>2020-08-29T06:46:12Z</time>
      </trkpt>
      <trkpt lat="42.82376" lon="2.17086">
        <ele>468.9</ele>
        <time>2020-08-29T06:46:52Z</time>
      </trkpt>
      <trkpt lat="42.82401" lon="2.16957">
        <ele>470.3</ele>
        <time>2020-08-29T06:47:27Z</time>
      </trkpt>
      <trkpt lat="42.82401" lon="2.16829">
        <ele>471.6</ele>
        <time>2020-08-29T06:47:57Z</time>
      </trkpt>
      <trkpt lat="42.82386" lon="2.16706">
        <ele>472.7</ele>
        <time>2020-08-29T06:48:27Z</time>
      </trkpt>
      <trkpt lat="42.82374" lon="2.16574">
        <ele>474.4</ele>
        <time>2020-08-29T06:49:07Z</time>
      </trkpt>
      <trkpt lat="42.82359" lon="2.16445">
        <ele>475.4</ele>
        <time>2020-08-29T06:49:42Z</time>
      </trkpt>
      <trkpt lat="42.82322" lon="2.16322">
        <ele>476.5</ele>
        <time>2020-08-29T06:50:22Z</time>
      </trkpt>
      <trkpt lat="42.82316" lon="2.16195">
        <ele>478.1</ele>
        <time>2020-08-29T06:51:07Z</time>
      </trkpt>
      <trkpt lat="42.82334" lon="2.16062">
        <ele>479.8</ele>
        <time>2020-08-29T06:52:03Z</time>
      </trkpt>
      <trkpt lat="42.82368" lon="2.15943">
        <ele>481</ele>
        <time>2020-08-29T06:52:43Z</time>
      </trkpt>
      <trkpt lat="42.82354" lon="2.1581">
        <ele>482.1</ele>
        <time>2020-08-29T06:53:23Z</time>
      </trkpt>
      <trkpt lat="42.82311" lon="2.15684">
        <ele>483.2</ele>
        <time>2020-08-29T06:54:03Z</time>
      </trkpt>
      <trkpt lat="42.82306" lon="2.15534">
        <ele>485</ele>
        <time>2020-08-29T06:54:33Z</time>
      </trkpt>
      <trkpt lat="42.82261" lon="2.15407">
        <ele>485.4</ele>
        <time>2020-08-29T06:54:58Z</time>
      </trkpt>
      <trkpt lat="42.82268" lon="2.15283">
        <ele>485.6</ele>
        <time>2020-08-29T06:55:28Z</time>
      </trkpt>
      <trkpt lat="42.82276" lon="2.15157">
        <ele>486.2</ele>
        <time>2020-08-29T06:56:03Z</time>
      </trkpt>
      <trkpt lat="42.8228" lon="2.15025">
        <ele>486.9</ele>
        <time>2020-08-29T06:56:38Z</time>
      </trkpt>
      <trkpt lat="42.82327" lon="2.14917">
        <ele>487.5</ele>
        <time>2020-08-29T06:57:08Z</time>
      </trkpt>
      <trkpt lat="42.82348" lon="2.14786">
        <ele>488.2</ele>
        <time>2020-08-29T06:57:43Z</time>
      </trkpt>
      <trkpt lat="42.82337" lon="2.14662">
        <ele>489</ele>
        <time>2020-08-29T06:58:13Z</time>
      </trkpt>
      <trkpt lat="42.82334" lon="2.14538">
        <ele>489.8</ele>
        <time>2020-08-29T06:58:43Z</time>
      </trkpt>
      <trkpt lat="42.82389" lon="2.1442">
        <ele>490.8</ele>
        <time>2020-08-29T06:59:18Z</time>
      </trkpt>
      <trkpt lat="42.82487" lon="2.14384">
        <ele>492</ele>
        <time>2020-08-29T06:59:53Z</time>
      </trkpt>
      <trkpt lat="42.82571" lon="2.14324">
        <ele>497.6</ele>
        <time>2020-08-29T07:00:23Z</time>
      </trkpt>
      <trkpt lat="42.82659" lon="2.14289">
        <ele>503.7</ele>
        <time>2020-08-29T07:00:53Z</time>
      </trkpt>
      <trkpt lat="42.8275" lon="2.14263">
        <ele>508.1</ele>
        <time>2020-08-29T07:01:23Z</time>
      </trkpt>
      <trkpt lat="42.82805" lon="2.14159">
        <ele>512.4</ele>
        <time>2020-08-29T07:01:53Z</time>
      </trkpt>
      <trkpt lat="42.82783" lon="2.14027">
        <ele>514.8</ele>
        <time>2020-08-29T07:02:23Z</time>
      </trkpt>
      <trkpt lat="42.82781" lon="2.13893">
        <ele>516.6</ele>
        <time>2020-08-29T07:02:53Z</time>
      </trkpt>
      <trkpt lat="42.8282" lon="2.13772">
        <ele>517.4</ele>
        <time>2020-08-29T07:03:23Z</time>
      </trkpt>
      <trkpt lat="42.82838" lon="2.13644">
        <ele>517.5</ele>
        <time>2020-08-29T07:03:53Z</time>
      </trkpt>
      <trkpt lat="42.82811" lon="2.13512">
        <ele>517.8</ele>
        <time>2020-08-29T07:04:28Z</time>
      </trkpt>
      <trkpt lat="42.8281" lon="2.1337">
        <ele>518.4</ele>
        <time>2020-08-29T07:05:04Z</time>
      </trkpt>
      <trkpt lat="42.82851" lon="2.13255">
        <ele>518.7</ele>
        <time>2020-08-29T07:05:34Z</time>
      </trkpt>
      <trkpt lat="42.82871" lon="2.13121">
        <ele>519</ele>
        <time>2020-08-29T07:06:09Z</time>
      </trkpt>
      <trkpt lat="42.82885" lon="2.1299">
        <ele>519.5</ele>
        <time>2020-08-29T07:06:39Z</time>
      </trkpt>
      <trkpt lat="42.82869" lon="2.12857">
        <ele>520.1</ele>
        <time>2020-08-29T07:07:09Z</time>
      </trkpt>
      <trkpt lat="42.82863" lon="2.12734">
        <ele>520.8</ele>
        <time>2020-08-29T07:07:39Z</time>
      </trkpt>
      <trkpt lat="42.8287" lon="2.12605">
        <ele>521.2</ele>
        <time>2020-08-29T07:08:09Z</time>
      </trkpt>
      <trkpt lat="42.82914" lon="2.12494">
        <ele>521.6</ele>
        <time>2020-08-29T07:08:39Z</time>
      </trkpt>
      <trkpt lat="42.82949" lon="2.12377">
        <ele>522</ele>
        <time>2020-08-29T07:09:09Z</time>
      </trkpt>
      <trkpt lat="42.82984" lon="2.12261">
        <ele>522.5</ele>
        <time>2020-08-29T07:09:39Z</time>
      </trkpt>
      <trkpt lat="42.82995" lon="2.12125">
        <ele>523.1</ele>
        <time>2020-08-29T07:10:09Z</time>
      </trkpt>
      <trkpt lat="42.83048" lon="2.1202">
        <ele>523.8</ele>
        <time>2020-08-29T07:10:39Z</time>
      </trkpt>
      <trkpt lat="42.83074" lon="2.119">
        <ele>524.5</ele>
        <time>2020-08-29T07:11:09Z</time>
      </trkpt>
      <trkpt lat="42.83053" lon="2.11778">
        <ele>525.2</ele>
        <time>2020-08-29T07:11:39Z</time>
      </trkpt>
      <trkpt lat="42.83069" lon="2.11638">
        <ele>526.2</ele>
        <time>2020-08-29T07:12:14Z</time>
      </trkpt>
      <trkpt lat="42.83107" lon="2.11523">
        <ele>527</ele>
        <time>2020-08-29T07:12:44Z</time>
      </trkpt>
      <trkpt lat="42.83125" lon="2.11383">
        <ele>528</ele>
        <time>2020-08-29T07:13:19Z</time>
      </trkpt>
      <trkpt lat="42.83146" lon="2.11241">
        <ele>528.9</ele>
        <time>2020-08-29T07:13:54Z</time>
      </trkpt>
      <trkpt lat="42.8316" lon="2.1112">
        <ele>529.7</ele>
        <time>2020-08-29T07:14:24Z</time>
      </trkpt>
      <trkpt lat="42.83183" lon="2.10995">
        <ele>530.6</ele>
        <time>2020-08-29T07:14:54Z</time>
      </trkpt>
      <trkpt lat="42.83249" lon="2.10887">
        <ele>531.5</ele>
        <time>2020-08-29T07:15:29Z</time>
      </trkpt>
      <trkpt lat="42.8327" lon="2.10756">
        <ele>532.4</ele>
        <time>2020-08-29T07:15:59Z</time>
      </trkpt>
      <trkpt lat="42.83261" lon="2.10615">
        <ele>533.6</ele>
        <time>2020-08-29T07:16:34Z</time>
      </trkpt>
      <trkpt lat="42.83205" lon="2.10498">
        <ele>534.8</ele>
        <time>2020-08-29T07:17:04Z</time>
      </trkpt>
      <trkpt lat="42.83168" lon="2.10377">
        <ele>535.7</ele>
        <time>2020-08-29T07:17:34Z</time>
      </trkpt>
      <trkpt lat="42.83101" lon="2.10288">
        <ele>536.7</ele>
        <time>2020-08-29T07:18:09Z</time>
      </trkpt>
      <trkpt lat="42.83032" lon="2.10196">
        <ele>538.3</ele>
        <time>2020-08-29T07:18:48Z</time>
      </trkpt>
      <trkpt lat="42.83017" lon="2.10064">
        <ele>541</ele>
        <time>2020-08-29T07:19:28Z</time>
      </trkpt>
      <trkpt lat="42.82967" lon="2.09942">
        <ele>544.5</ele>
        <time>2020-08-29T07:20:08Z</time>
      </trkpt>
      <trkpt lat="42.82908" lon="2.09845">
        <ele>547.5</ele>
        <time>2020-08-29T07:20:43Z</time>
      </trkpt>
      <trkpt lat="42.8284" lon="2.09741">
        <ele>550.4</ele>
        <time>2020-08-29T07:21:23Z</time>
      </trkpt>
      <trkpt lat="42.82771" lon="2.09643">
        <ele>552.8</ele>
        <time>2020-08-29T07:22:03Z</time>
      </trkpt>
      <trkpt lat="42.82706" lon="2.09541">
        <ele>555</ele>
        <time>2020-08-29T07:22:43Z</time>
      </trkpt>
      <trkpt lat="42.82715" lon="2.09418">
        <ele>557</ele>
        <time>2020-08-29T07:23:23Z</time>
      </trkpt>
      <trkpt lat="42.82725" lon="2.09293">
        <ele>558.7</ele>
        <time>2020-08-29T07:24:03Z</time>
      </trkpt>
      <trkpt lat="42.82709" lon="2.09159">
        <ele>560.2</ele>
        <time>2020-08-29T07:24:43Z</time>
      </trkpt>
      <trkpt lat="42.82711" lon="2.09034">
        <ele>561.5</ele>
        <time>2020-08-29T07:25:18Z</time>
      </trkpt>
      <trkpt lat="42.82743" lon="2.08909">
        <ele>563.3</ele>
        <time>2020-08-29T07:25:58Z</time>
      </trkpt>
      <trkpt lat="42.82716" lon="2.08784">
        <ele>565.4</ele>
        <time>2020-08-29T07:26:51Z</time>
      </trkpt>
      <trkpt lat="42.82728" lon="2.08652">
        <ele>567.5</ele>
        <time>2020-08-29T07:27:31Z</time>
      </trkpt>
      <trkpt lat="42.82801" lon="2.08565">
        <ele>569.8</ele>
        <time>2020-08-29T07:28:16Z</time>
      </trkpt>
      <trkpt lat="42.82849" lon="2.08449">
        <ele>572.8</ele>
        <time>2020-08-29T07:29:02Z</time>
      </trkpt>
      <trkpt lat="42.82848" lon="2.08324">
        <ele>575.3</ele>
        <time>2020-08-29T07:29:42Z</time>
      </trkpt>
      <trkpt lat="42.82881" lon="2.082">
        <ele>577.8</ele>
        <time>2020-08-29T07:30:28Z</time>
      </trkpt>
      <trkpt lat="42.82942" lon="2.08108">
        <ele>581</ele>
        <time>2020-08-29T07:31:15Z</time>
      </trkpt>
      <trkpt lat="42.8297" lon="2.07987">
        <ele>584.1</ele>
        <time>2020-08-29T07:32:01Z</time>
      </trkpt>
      <trkpt lat="42.82992" lon="2.07865">
        <ele>587.5</ele>
        <time>2020-08-29T07:32:48Z</time>
      </trkpt>
      <trkpt lat="42.83049" lon="2.07768">
        <ele>591.2</ele>
        <time>2020-08-29T07:33:34Z</time>
      </trkpt>
      <trkpt lat="42.83084" lon="2.07654">
        <ele>594.9</ele>
        <time>2020-08-29T07:34:19Z</time>
      </trkpt>
      <trkpt lat="42.83123" lon="2.07541">
        <ele>598.2</ele>
        <time>2020-08-29T07:35:04Z</time>
      </trkpt>
      <trkpt lat="42.83164" lon="2.07431">
        <ele>601.6</ele>
        <time>2020-08-29T07:35:49Z</time>
      </trkpt>
      <trkpt lat="42.83211" lon="2.07327">
        <ele>605.3</ele>
        <time>2020-08-29T07:36:34Z</time>
      </trkpt>
      <trkpt lat="42.83259" lon="2.07208">
        <ele>610.6</ele>
        <time>2020-08-29T07:37:25Z</time>
      </trkpt>
      <trkpt lat="42.83309" lon="2.07103">
        <ele>616.2</ele>
        <time>2020-08-29T07:38:13Z</time>
      </trkpt>
      <trkpt lat="42.83387" lon="2.07025">
        <ele>622.8</ele>
        <time>2020-08-29T07:39:01Z</time>
      </trkpt>
      <trkpt lat="42.83456" lon="2.06935">
        <ele>632.2</ele>
        <time>2020-08-29T07:39:53Z</time>
      </trkpt>
      <trkpt lat="42.83479" lon="2.06803">
        <ele>638.7</ele>
        <time>2020-08-29T07:40:33Z</time>
      </trkpt>
      <trkpt lat="42.835" lon="2.0668">
        <ele>657.6</ele>
        <time>2020-08-29T07:41:26Z</time>
      </trkpt>
      <trkpt lat="42.83537" lon="2.06554">
        <ele>666</ele>
        <time>2020-08-29T07:42:16Z</time>
      </trkpt>
      <trkpt lat="42.83603" lon="2.06458">
        <ele>669.7</ele>
        <time>2020-08-29T07:42:56Z</time>
      </trkpt>
      <trkpt lat="42.83697" lon="2.06445">
        <ele>670.7</ele>
        <time>2020-08-29T07:43:36Z</time>
      </trkpt>
      <trkpt lat="42.83692" lon="2.06321">
        <ele>673.8</ele>
        <time>2020-08-29T07:44:16Z</time>
      </trkpt>
      <trkpt lat="42.83625" lon="2.06187">
        <ele>679</ele>
        <time>2020-08-29T07:44:58Z</time>
      </trkpt>
      <trkpt lat="42.83589" lon="2.0606">
        <ele>683.2</ele>
        <time>2020-08-29T07:45:39Z</time>
      </trkpt>
      <trkpt lat="42.8352" lon="2.05974">
        <ele>685.8</ele>
        <time>2020-08-29T07:46:13Z</time>
      </trkpt>
      <trkpt lat="42.83471" lon="2.05851">
        <ele>688.6</ele>
        <time>2020-08-29T07:46:53Z</time>
      </trkpt>
      <trkpt lat="42.83467" lon="2.05711">
        <ele>690.7</ele>
        <time>2020-08-29T07:47:23Z</time>
      </trkpt>
      <trkpt lat="42.83401" lon="2.0562">
        <ele>691.1</ele>
        <time>2020-08-29T07:47:53Z</time>
      </trkpt>
      <trkpt lat="42.83302" lon="2.05658">
        <ele>689.4</ele>
        <time>2020-08-29T07:48:32Z</time>
      </trkpt>
      <trkpt lat="42.83202" lon="2.05618">
        <ele>686.1</ele>
        <time>2020-08-29T07:48:57Z</time>
      </trkpt>
      <trkpt lat="42.8311" lon="2.0566">
        <ele>684.2</ele>
        <time>2020-08-29T07:49:27Z</time>
      </trkpt>
      <trkpt lat="42.83034" lon="2.0556">
        <ele>683.4</ele>
        <time>2020-08-29T07:50:07Z</time>
      </trkpt>
      <trkpt lat="42.82944" lon="2.0549">
        <ele>684.1</ele>
        <time>2020-08-29T07:50:37Z</time>
      </trkpt>
      <trkpt lat="42.82844" lon="2.0549">
        <ele>687.8</ele>
        <time>2020-08-29T07:51:17Z</time>
      </trkpt>
      <trkpt lat="42.82752" lon="2.05442">
        <ele>690</ele>
        <time>2020-08-29T07:52:02Z</time>
      </trkpt>
      <trkpt lat="42.82661" lon="2.05392">
        <ele>693.3</ele>
        <time>2020-08-29T07:52:32Z</time>
      </trkpt>
      <trkpt lat="42.82625" lon="2.05259">
        <ele>694.9</ele>
        <time>2020-08-29T07:53:07Z</time>
      </trkpt>
      <trkpt lat="42.82609" lon="2.05121">
        <ele>695.8</ele>
        <time>2020-08-29T07:53:37Z</time>
      </trkpt>
      <trkpt lat="42.8259" lon="2.04965">
        <ele>698.9</ele>
        <time>2020-08-29T07:54:42Z</time>
      </trkpt>
      <trkpt lat="42.82576" lon="2.04842">
        <ele>705</ele>
        <time>2020-08-29T07:57:07Z</time>
      </trkpt>
      <trkpt lat="42.82522" lon="2.04727">
        <ele>705.8</ele>
        <time>2020-08-29T07:57:47Z</time>
      </trkpt>
      <trkpt lat="42.82517" lon="2.04604">
        <ele>706</ele>
        <time>2020-08-29T07:58:22Z</time>
      </trkpt>
      <trkpt lat="42.82512" lon="2.04472">
        <ele>707</ele>
        <time>2020-08-29T07:59:08Z</time>
      </trkpt>
      <trkpt lat="42.82478" lon="2.04352">
        <ele>708.6</ele>
        <time>2020-08-29T07:59:48Z</time>
      </trkpt>
      <trkpt lat="42.82418" lon="2.0425">
        <ele>711.1</ele>
        <time>2020-08-29T08:00:18Z</time>
      </trkpt>
      <trkpt lat="42.82353" lon="2.04159">
        <ele>713.5</ele>
        <time>2020-08-29T08:00:48Z</time>
      </trkpt>
      <trkpt lat="42.8229" lon="2.04043">
        <ele>717.5</ele>
        <time>2020-08-29T08:01:18Z</time>
      </trkpt>
      <trkpt lat="42.82218" lon="2.03941">
        <ele>721.1</ele>
        <time>2020-08-29T08:01:48Z</time>
      </trkpt>
      <trkpt lat="42.82136" lon="2.03859">
        <ele>723.8</ele>
        <time>2020-08-29T08:02:33Z</time>
      </trkpt>
      <trkpt lat="42.82065" lon="2.0378">
        <ele>725.1</ele>
        <time>2020-08-29T08:03:13Z</time>
      </trkpt>
      <trkpt lat="42.82013" lon="2.03677">
        <ele>726</ele>
        <time>2020-08-29T08:03:53Z</time>
      </trkpt>
      <trkpt lat="42.8191" lon="2.0367">
        <ele>726.6</ele>
        <time>2020-08-29T08:04:28Z</time>
      </trkpt>
      <trkpt lat="42.81812" lon="2.03706">
        <ele>727.9</ele>
        <time>2020-08-29T08:05:03Z</time>
      </trkpt>
      <trkpt lat="42.81732" lon="2.03799">
        <ele>728.6</ele>
        <time>2020-08-29T08:05:38Z</time>
      </trkpt>
      <trkpt lat="42.81631" lon="2.03794">
        <ele>728.9</ele>
        <time>2020-08-29T08:06:08Z</time>
      </trkpt>
      <trkpt lat="42.81539" lon="2.03751">
        <ele>729.2</ele>
        <time>2020-08-29T08:06:33Z</time>
      </trkpt>
      <trkpt lat="42.81441" lon="2.03693">
        <ele>729.6</ele>
        <time>2020-08-29T08:07:03Z</time>
      </trkpt>
      <trkpt lat="42.81359" lon="2.03627">
        <ele>730</ele>
        <time>2020-08-29T08:07:33Z</time>
      </trkpt>
      <trkpt lat="42.81284" lon="2.03552">
        <ele>731</ele>
        <time>2020-08-29T08:08:03Z</time>
      </trkpt>
      <trkpt lat="42.81188" lon="2.03498">
        <ele>731.9</ele>
        <time>2020-08-29T08:08:33Z</time>
      </trkpt>
      <trkpt lat="42.8109" lon="2.03456">
        <ele>732.6</ele>
        <time>2020-08-29T08:09:03Z</time>
      </trkpt>
      <trkpt lat="42.80997" lon="2.03414">
        <ele>733.8</ele>
        <time>2020-08-29T08:09:48Z</time>
      </trkpt>
      <trkpt lat="42.80958" lon="2.03302">
        <ele>735.1</ele>
        <time>2020-08-29T08:10:23Z</time>
      </trkpt>
      <trkpt lat="42.809" lon="2.03206">
        <ele>736.9</ele>
        <time>2020-08-29T08:11:03Z</time>
      </trkpt>
      <trkpt lat="42.80932" lon="2.03078">
        <ele>738.6</ele>
        <time>2020-08-29T08:11:49Z</time>
      </trkpt>
      <trkpt lat="42.8094" lon="2.02948">
        <ele>740</ele>
        <time>2020-08-29T08:12:29Z</time>
      </trkpt>
      <trkpt lat="42.80908" lon="2.02828">
        <ele>742.5</ele>
        <time>2020-08-29T08:13:16Z</time>
      </trkpt>
      <trkpt lat="42.80859" lon="2.0272">
        <ele>748.5</ele>
        <time>2020-08-29T08:14:02Z</time>
      </trkpt>
      <trkpt lat="42.80823" lon="2.0259">
        <ele>756.8</ele>
        <time>2020-08-29T08:14:48Z</time>
      </trkpt>
      <trkpt lat="42.8081" lon="2.02453">
        <ele>763.1</ele>
        <time>2020-08-29T08:15:33Z</time>
      </trkpt>
      <trkpt lat="42.80805" lon="2.02313">
        <ele>767</ele>
        <time>2020-08-29T08:16:08Z</time>
      </trkpt>
      <trkpt lat="42.80769" lon="2.02189">
        <ele>768.9</ele>
        <time>2020-08-29T08:16:43Z</time>
      </trkpt>
      <trkpt lat="42.80752" lon="2.02067">
        <ele>770.5</ele>
        <time>2020-08-29T08:17:18Z</time>
      </trkpt>
      <trkpt lat="42.8074" lon="2.01938">
        <ele>771.5</ele>
        <time>2020-08-29T08:17:53Z</time>
      </trkpt>
      <trkpt lat="42.8072" lon="2.01806">
        <ele>772.6</ele>
        <time>2020-08-29T08:18:33Z</time>
      </trkpt>
      <trkpt lat="42.80695" lon="2.01678">
        <ele>773.7</ele>
        <time>2020-08-29T08:19:13Z</time>
      </trkpt>
      <trkpt lat="42.80628" lon="2.01569">
        <ele>774.7</ele>
        <time>2020-08-29T08:19:48Z</time>
      </trkpt>
      <trkpt lat="42.80568" lon="2.01462">
        <ele>775.5</ele>
        <time>2020-08-29T08:20:23Z</time>
      </trkpt>
      <trkpt lat="42.80579" lon="2.01325">
        <ele>776.1</ele>
        <time>2020-08-29T08:20:58Z</time>
      </trkpt>
      <trkpt lat="42.80531" lon="2.01208">
        <ele>779.2</ele>
        <time>2020-08-29T08:21:49Z</time>
      </trkpt>
      <trkpt lat="42.80488" lon="2.01097">
        <ele>781.3</ele>
        <time>2020-08-29T08:22:38Z</time>
      </trkpt>
      <trkpt lat="42.80496" lon="2.00965">
        <ele>789.9</ele>
        <time>2020-08-29T08:23:41Z</time>
      </trkpt>
      <trkpt lat="42.8053" lon="2.0084">
        <ele>799</ele>
        <time>2020-08-29T08:24:53Z</time>
      </trkpt>
      <trkpt lat="42.80486" lon="2.00725">
        <ele>814.8</ele>
        <time>2020-08-29T08:25:59Z</time>
      </trkpt>
      <trkpt lat="42.80433" lon="2.0062">
        <ele>822.4</ele>
        <time>2020-08-29T08:27:02Z</time>
      </trkpt>
      <trkpt lat="42.80374" lon="2.00513">
        <ele>824.9</ele>
        <time>2020-08-29T08:28:01Z</time>
      </trkpt>
      <trkpt lat="42.80284" lon="2.00494">
        <ele>827.2</ele>
        <time>2020-08-29T08:28:52Z</time>
      </trkpt>
      <trkpt lat="42.80215" lon="2.00385">
        <ele>826.3</ele>
        <time>2020-08-29T08:29:32Z</time>
      </trkpt>
      <trkpt lat="42.80209" lon="2.00252">
        <ele>827.3</ele>
        <time>2020-08-29T08:30:12Z</time>
      </trkpt>
      <trkpt lat="42.80135" lon="2.00158">
        <ele>829.1</ele>
        <time>2020-08-29T08:30:52Z</time>
      </trkpt>
      <trkpt lat="42.80125" lon="2.00035">
        <ele>830.8</ele>
        <time>2020-08-29T08:31:27Z</time>
      </trkpt>
      <trkpt lat="42.80097" lon="1.99914">
        <ele>833</ele>
        <time>2020-08-29T08:32:07Z</time>
      </trkpt>
      <trkpt lat="42.80022" lon="1.99824">
        <ele>836</ele>
        <time>2020-08-29T08:33:07Z</time>
      </trkpt>
      <trkpt lat="42.79938" lon="1.9976">
        <ele>841</ele>
        <time>2020-08-29T08:33:59Z</time>
      </trkpt>
      <trkpt lat="42.79892" lon="1.99648">
        <ele>850.3</ele>
        <time>2020-08-29T08:34:40Z</time>
      </trkpt>
      <trkpt lat="42.79848" lon="1.99531">
        <ele>855.9</ele>
        <time>2020-08-29T08:35:20Z</time>
      </trkpt>
      <trkpt lat="42.79781" lon="1.99436">
        <ele>859.4</ele>
        <time>2020-08-29T08:36:05Z</time>
      </trkpt>
      <trkpt lat="42.79687" lon="1.99396">
        <ele>861.6</ele>
        <time>2020-08-29T08:36:51Z</time>
      </trkpt>
      <trkpt lat="42.79598" lon="1.99369">
        <ele>862.8</ele>
        <time>2020-08-29T08:37:31Z</time>
      </trkpt>
      <trkpt lat="42.79534" lon="1.99269">
        <ele>863.5</ele>
        <time>2020-08-29T08:38:16Z</time>
      </trkpt>
      <trkpt lat="42.79507" lon="1.9914">
        <ele>864.9</ele>
        <time>2020-08-29T08:39:07Z</time>
      </trkpt>
      <trkpt lat="42.79446" lon="1.99045">
        <ele>866.4</ele>
        <time>2020-08-29T08:39:47Z</time>
      </trkpt>
      <trkpt lat="42.79394" lon="1.98941">
        <ele>866.7</ele>
        <time>2020-08-29T08:40:27Z</time>
      </trkpt>
      <trkpt lat="42.79322" lon="1.98852">
        <ele>868.9</ele>
        <time>2020-08-29T08:41:06Z</time>
      </trkpt>
      <trkpt lat="42.7925" lon="1.98765">
        <ele>878</ele>
        <time>2020-08-29T08:41:52Z</time>
      </trkpt>
      <trkpt lat="42.79183" lon="1.9868">
        <ele>883.9</ele>
        <time>2020-08-29T08:42:38Z</time>
      </trkpt>
      <trkpt lat="42.79133" lon="1.98562">
        <ele>888.9</ele>
        <time>2020-08-29T08:43:33Z</time>
      </trkpt>
      <trkpt lat="42.79073" lon="1.98456">
        <ele>891.6</ele>
        <time>2020-08-29T08:44:21Z</time>
      </trkpt>
      <trkpt lat="42.79008" lon="1.98368">
        <ele>894.8</ele>
        <time>2020-08-29T08:45:11Z</time>
      </trkpt>
      <trkpt lat="42.7898" lon="1.98246">
        <ele>899.2</ele>
        <time>2020-08-29T08:46:12Z</time>
      </trkpt>
      <trkpt lat="42.78945" lon="1.98126">
        <ele>902.1</ele>
        <time>2020-08-29T08:47:11Z</time>
      </trkpt>
      <trkpt lat="42.78864" lon="1.98051">
        <ele>903.6</ele>
        <time>2020-08-29T08:47:56Z</time>
      </trkpt>
      <trkpt lat="42.78808" lon="1.97944">
        <ele>905.2</ele>
        <time>2020-08-29T08:48:47Z</time>
      </trkpt>
      <trkpt lat="42.78724" lon="1.97864">
        <ele>906.8</ele>
        <time>2020-08-29T08:49:32Z</time>
      </trkpt>
      <trkpt lat="42.78645" lon="1.97787">
        <ele>910.7</ele>
        <time>2020-08-29T08:50:18Z</time>
      </trkpt>
      <trkpt lat="42.78582" lon="1.97685">
        <ele>916.5</ele>
        <time>2020-08-29T08:51:14Z</time>
      </trkpt>
      <trkpt lat="42.78524" lon="1.97585">
        <ele>921.9</ele>
        <time>2020-08-29T08:52:11Z</time>
      </trkpt>
      <trkpt lat="42.78456" lon="1.97491">
        <ele>924.8</ele>
        <time>2020-08-29T08:53:18Z</time>
      </trkpt>
      <trkpt lat="42.78399" lon="1.97392">
        <ele>928.8</ele>
        <time>2020-08-29T08:54:25Z</time>
      </trkpt>
      <trkpt lat="42.78322" lon="1.97314">
        <ele>945.9</ele>
        <time>2020-08-29T08:55:44Z</time>
      </trkpt>
      <trkpt lat="42.78275" lon="1.97202">
        <ele>961.4</ele>
        <time>2020-08-29T08:56:52Z</time>
      </trkpt>
      <trkpt lat="42.78186" lon="1.97146">
        <ele>969.2</ele>
        <time>2020-08-29T08:57:55Z</time>
      </trkpt>
      <trkpt lat="42.78113" lon="1.97068">
        <ele>973.6</ele>
        <time>2020-08-29T08:58:55Z</time>
      </trkpt>
      <trkpt lat="42.78063" lon="1.96963">
        <ele>978.4</ele>
        <time>2020-08-29T08:59:47Z</time>
      </trkpt>
      <trkpt lat="42.77997" lon="1.96866">
        <ele>985</ele>
        <time>2020-08-29T09:00:50Z</time>
      </trkpt>
      <trkpt lat="42.77916" lon="1.96788">
        <ele>988.1</ele>
        <time>2020-08-29T09:01:52Z</time>
      </trkpt>
      <trkpt lat="42.77854" lon="1.96685">
        <ele>997.3</ele>
        <time>2020-08-29T09:03:10Z</time>
      </trkpt>
      <trkpt lat="42.77769" lon="1.96616">
        <ele>1004.1</ele>
        <time>2020-08-29T09:04:38Z</time>
      </trkpt>
      <trkpt lat="42.77679" lon="1.96582">
        <ele>1027.9</ele>
        <time>2020-08-29T09:11:18Z</time>
      </trkpt>
      <trkpt lat="42.77604" lon="1.96511">
        <ele>1041.8</ele>
        <time>2020-08-29T09:13:39Z</time>
      </trkpt>
      <trkpt lat="42.77516" lon="1.96468">
        <ele>1045.6</ele>
        <time>2020-08-29T09:14:53Z</time>
      </trkpt>
      <trkpt lat="42.77427" lon="1.96429">
        <ele>1050.4</ele>
        <time>2020-08-29T09:15:53Z</time>
      </trkpt>
      <trkpt lat="42.77333" lon="1.96418">
        <ele>1059.4</ele>
        <time>2020-08-29T09:16:51Z</time>
      </trkpt>
      <trkpt lat="42.7724" lon="1.96393">
        <ele>1067.1</ele>
        <time>2020-08-29T09:17:40Z</time>
      </trkpt>
      <trkpt lat="42.77142" lon="1.96405">
        <ele>1074</ele>
        <time>2020-08-29T09:18:25Z</time>
      </trkpt>
      <trkpt lat="42.77064" lon="1.96465">
        <ele>1079.5</ele>
        <time>2020-08-29T09:19:12Z</time>
      </trkpt>
      <trkpt lat="42.76966" lon="1.96485">
        <ele>1084</ele>
        <time>2020-08-29T09:19:57Z</time>
      </trkpt>
      <trkpt lat="42.76869" lon="1.96484">
        <ele>1090.5</ele>
        <time>2020-08-29T09:20:53Z</time>
      </trkpt>
      <trkpt lat="42.76775" lon="1.96494">
        <ele>1097.3</ele>
        <time>2020-08-29T09:22:03Z</time>
      </trkpt>
      <trkpt lat="42.76688" lon="1.96539">
        <ele>1103</ele>
        <time>2020-08-29T09:23:13Z</time>
      </trkpt>
      <trkpt lat="42.76599" lon="1.9659">
        <ele>1108</ele>
        <time>2020-08-29T09:24:26Z</time>
      </trkpt>
      <trkpt lat="42.76507" lon="1.96628">
        <ele>1116.8</ele>
        <time>2020-08-29T09:25:34Z</time>
      </trkpt>
      <trkpt lat="42.76412" lon="1.96631">
        <ele>1131.5</ele>
        <time>2020-08-29T09:26:42Z</time>
      </trkpt>
      <trkpt lat="42.76349" lon="1.96731">
        <ele>1148.1</ele>
        <time>2020-08-29T09:27:57Z</time>
      </trkpt>
      <trkpt lat="42.76311" lon="1.96848">
        <ele>1157.5</ele>
        <time>2020-08-29T09:29:09Z</time>
      </trkpt>
      <trkpt lat="42.76262" lon="1.9673">
        <ele>1168</ele>
        <time>2020-08-29T09:30:55Z</time>
      </trkpt>
      <trkpt lat="42.76198" lon="1.96633">
        <ele>1175.5</ele>
        <time>2020-08-29T09:32:16Z</time>
      </trkpt>
      <trkpt lat="42.76119" lon="1.96555">
        <ele>1184.8</ele>
        <time>2020-08-29T09:33:34Z</time>
      </trkpt>
      <trkpt lat="42.76042" lon="1.96477">
        <ele>1193.7</ele>
        <time>2020-08-29T09:34:52Z</time>
      </trkpt>
      <trkpt lat="42.75964" lon="1.96403">
        <ele>1202.2</ele>
        <time>2020-08-29T09:36:04Z</time>
      </trkpt>
      <trkpt lat="42.75907" lon="1.96298">
        <ele>1219.1</ele>
        <time>2020-08-29T09:37:19Z</time>
      </trkpt>
      <trkpt lat="42.75833" lon="1.96219">
        <ele>1229.5</ele>
        <time>2020-08-29T09:38:37Z</time>
      </trkpt>
      <trkpt lat="42.75752" lon="1.96148">
        <ele>1235.1</ele>
        <time>2020-08-29T09:39:50Z</time>
      </trkpt>
      <trkpt lat="42.75673" lon="1.96075">
        <ele>1241.2</ele>
        <time>2020-08-29T09:41:12Z</time>
      </trkpt>
      <trkpt lat="42.75589" lon="1.96014">
        <ele>1246.7</ele>
        <time>2020-08-29T09:42:32Z</time>
      </trkpt>
      <trkpt lat="42.75506" lon="1.9594">
        <ele>1253.7</ele>
        <time>2020-08-29T09:43:51Z</time>
      </trkpt>
      <trkpt lat="42.75422" lon="1.95877">
        <ele>1262.9</ele>
        <time>2020-08-29T09:45:13Z</time>
      </trkpt>
      <trkpt lat="42.75344" lon="1.95795">
        <ele>1279.5</ele>
        <time>2020-08-29T09:46:40Z</time>
      </trkpt>
      <trkpt lat="42.75252" lon="1.95841">
        <ele>1294</ele>
        <time>2020-08-29T09:48:23Z</time>
      </trkpt>
      <trkpt lat="42.75164" lon="1.95868">
        <ele>1311</ele>
        <time>2020-08-29T09:52:19Z</time>
      </trkpt>
      <trkpt lat="42.75073" lon="1.95861">
        <ele>1316.2</ele>
        <time>2020-08-29T09:53:29Z</time>
      </trkpt>
      <trkpt lat="42.75162" lon="1.95909">
        <ele>1337</ele>
        <time>2020-08-29T09:55:07Z</time>
      </trkpt>
      <trkpt lat="42.75256" lon="1.95901">
        <ele>1345.6</ele>
        <time>2020-08-29T09:56:02Z</time>
      </trkpt>
      <trkpt lat="42.75173" lon="1.95948">
        <ele>1353.2</ele>
        <time>2020-08-29T09:58:21Z</time>
      </trkpt>
      <trkpt lat="42.75084" lon="1.95987">
        <ele>1356.4</ele>
        <time>2020-08-29T09:59:31Z</time>
      </trkpt>
      <trkpt lat="42.74988" lon="1.96003">
        <ele>1361.8</ele>
        <time>2020-08-29T10:00:56Z</time>
      </trkpt>
      <trkpt lat="42.74894" lon="1.96023">
        <ele>1368.5</ele>
        <time>2020-08-29T10:02:14Z</time>
      </trkpt>
      <trkpt lat="42.74799" lon="1.96015">
        <ele>1376.5</ele>
        <time>2020-08-29T10:03:29Z</time>
      </trkpt>
      <trkpt lat="42.74715" lon="1.95959">
        <ele>1385.9</ele>
        <time>2020-08-29T10:04:42Z</time>
      </trkpt>
      <trkpt lat="42.74628" lon="1.95906">
        <ele>1394.1</ele>
        <time>2020-08-29T10:05:57Z</time>
      </trkpt>
      <trkpt lat="42.74534" lon="1.95933">
        <ele>1404.4</ele>
        <time>2020-08-29T10:07:10Z</time>
      </trkpt>
      <trkpt lat="42.74439" lon="1.95916">
        <ele>1415.9</ele>
        <time>2020-08-29T10:08:38Z</time>
      </trkpt>
      <trkpt lat="42.74403" lon="1.958">
        <ele>1424.9</ele>
        <time>2020-08-29T10:09:58Z</time>
      </trkpt>
      <trkpt lat="42.74342" lon="1.95702">
        <ele>1433.2</ele>
        <time>2020-08-29T10:11:17Z</time>
      </trkpt>
      <trkpt lat="42.74304" lon="1.95576">
        <ele>1441.2</ele>
        <time>2020-08-29T10:12:43Z</time>
      </trkpt>
      <trkpt lat="42.74399" lon="1.95557">
        <ele>1449.5</ele>
        <time>2020-08-29T10:14:42Z</time>
      </trkpt>
      <trkpt lat="42.74479" lon="1.9562">
        <ele>1454.8</ele>
        <time>2020-08-29T10:15:56Z</time>
      </trkpt>
      <trkpt lat="42.74563" lon="1.9568">
        <ele>1467.8</ele>
        <time>2020-08-29T10:17:05Z</time>
      </trkpt>
      <trkpt lat="42.74658" lon="1.957">
        <ele>1481.4</ele>
        <time>2020-08-29T10:18:23Z</time>
      </trkpt>
      <trkpt lat="42.74755" lon="1.95683">
        <ele>1491.6</ele>
        <time>2020-08-29T10:19:45Z</time>
      </trkpt>
      <trkpt lat="42.74842" lon="1.95634">
        <ele>1499.1</ele>
        <time>2020-08-29T10:21:01Z</time>
      </trkpt>
      <trkpt lat="42.74898" lon="1.95525">
        <ele>1504.5</ele>
        <time>2020-08-29T10:22:12Z</time>
      </trkpt>
      <trkpt lat="42.74966" lon="1.95427">
        <ele>1509.8</ele>
        <time>2020-08-29T10:23:23Z</time>
      </trkpt>
      <trkpt lat="42.75028" lon="1.95329">
        <ele>1514.5</ele>
        <time>2020-08-29T10:24:36Z</time>
      </trkpt>
      <trkpt lat="42.75064" lon="1.95209">
        <ele>1520.6</ele>
        <time>2020-08-29T10:26:10Z</time>
      </trkpt>
      <trkpt lat="42.75083" lon="1.95086">
        <ele>1524.2</ele>
        <time>2020-08-29T10:27:09Z</time>
      </trkpt>
      <trkpt lat="42.75111" lon="1.94959">
        <ele>1528.7</ele>
        <time>2020-08-29T10:28:20Z</time>
      </trkpt>
      <trkpt lat="42.75106" lon="1.9483">
        <ele>1533.3</ele>
        <time>2020-08-29T10:29:39Z</time>
      </trkpt>
      <trkpt lat="42.75047" lon="1.94731">
        <ele>1540.9</ele>
        <time>2020-08-29T10:30:49Z</time>
      </trkpt>
      <trkpt lat="42.75062" lon="1.94857">
        <ele>1562.4</ele>
        <time>2020-08-29T10:33:43Z</time>
      </trkpt>
      <trkpt lat="42.74995" lon="1.94759">
        <ele>1577.8</ele>
        <time>2020-08-29T10:37:06Z</time>
      </trkpt>
      <trkpt lat="42.74966" lon="1.94635">
        <ele>1596</ele>
        <time>2020-08-29T10:38:39Z</time>
      </trkpt>
      <trkpt lat="42.7498" lon="1.94511">
        <ele>1612.6</ele>
        <time>2020-08-29T10:40:03Z</time>
      </trkpt>
      <trkpt lat="42.74893" lon="1.94455">
        <ele>1621.3</ele>
        <time>2020-08-29T10:41:10Z</time>
      </trkpt>
      <trkpt lat="42.74839" lon="1.9435">
        <ele>1628.4</ele>
        <time>2020-08-29T10:42:17Z</time>
      </trkpt>
      <trkpt lat="42.74843" lon="1.94216">
        <ele>1634.3</ele>
        <time>2020-08-29T10:43:24Z</time>
      </trkpt>
      <trkpt lat="42.74836" lon="1.94089">
        <ele>1640.1</ele>
        <time>2020-08-29T10:44:39Z</time>
      </trkpt>
      <trkpt lat="42.7477" lon="1.93993">
        <ele>1643.4</ele>
        <time>2020-08-29T10:45:41Z</time>
      </trkpt>
      <trkpt lat="42.74755" lon="1.93857">
        <ele>1646.4</ele>
        <time>2020-08-29T10:52:29Z</time>
      </trkpt>
      <trkpt lat="42.74708" lon="1.9374">
        <ele>1647.1</ele>
        <time>2020-08-29T10:52:54Z</time>
      </trkpt>
      <trkpt lat="42.74624" lon="1.93664">
        <ele>1649.2</ele>
        <time>2020-08-29T10:54:51Z</time>
      </trkpt>
      <trkpt lat="42.74512" lon="1.93686">
        <ele>1647.6</ele>
        <time>2020-08-29T10:55:11Z</time>
      </trkpt>
      <trkpt lat="42.74483" lon="1.93536">
        <ele>1645.5</ele>
        <time>2020-08-29T10:55:31Z</time>
      </trkpt>
      <trkpt lat="42.74521" lon="1.93406">
        <ele>1644.3</ele>
        <time>2020-08-29T10:55:46Z</time>
      </trkpt>
      <trkpt lat="42.74495" lon="1.93276">
        <ele>1641.8</ele>
        <time>2020-08-29T10:56:01Z</time>
      </trkpt>
      <trkpt lat="42.74405" lon="1.93217">
        <ele>1638.5</ele>
        <time>2020-08-29T10:56:21Z</time>
      </trkpt>
      <trkpt lat="42.74305" lon="1.93155">
        <ele>1633.4</ele>
        <time>2020-08-29T10:56:41Z</time>
      </trkpt>
      <trkpt lat="42.74253" lon="1.93267">
        <ele>1628.8</ele>
        <time>2020-08-29T10:56:56Z</time>
      </trkpt>
      <trkpt lat="42.74159" lon="1.93297">
        <ele>1619.6</ele>
        <time>2020-08-29T10:57:16Z</time>
      </trkpt>
      <trkpt lat="42.74082" lon="1.93207">
        <ele>1613.7</ele>
        <time>2020-08-29T10:57:31Z</time>
      </trkpt>
      <trkpt lat="42.74136" lon="1.931">
        <ele>1607.9</ele>
        <time>2020-08-29T10:57:46Z</time>
      </trkpt>
      <trkpt lat="42.74137" lon="1.92943">
        <ele>1598.6</ele>
        <time>2020-08-29T10:58:01Z</time>
      </trkpt>
      <trkpt lat="42.7411" lon="1.92768">
        <ele>1588.1</ele>
        <time>2020-08-29T10:58:16Z</time>
      </trkpt>
      <trkpt lat="42.74056" lon="1.92604">
        <ele>1579.2</ele>
        <time>2020-08-29T10:58:31Z</time>
      </trkpt>
      <trkpt lat="42.74046" lon="1.92459">
        <ele>1561.3</ele>
        <time>2020-08-29T10:58:46Z</time>
      </trkpt>
      <trkpt lat="42.73983" lon="1.92344">
        <ele>1541.8</ele>
        <time>2020-08-29T10:59:01Z</time>
      </trkpt>
      <trkpt lat="42.73873" lon="1.92309">
        <ele>1527.5</ele>
        <time>2020-08-29T10:59:20Z</time>
      </trkpt>
      <trkpt lat="42.73752" lon="1.92282">
        <ele>1503.4</ele>
        <time>2020-08-29T10:59:40Z</time>
      </trkpt>
      <trkpt lat="42.7381" lon="1.92409">
        <ele>1489</ele>
        <time>2020-08-29T11:00:15Z</time>
      </trkpt>
      <trkpt lat="42.73863" lon="1.92526">
        <ele>1471.5</ele>
        <time>2020-08-29T11:00:40Z</time>
      </trkpt>
      <trkpt lat="42.73761" lon="1.92552">
        <ele>1453.4</ele>
        <time>2020-08-29T11:01:05Z</time>
      </trkpt>
      <trkpt lat="42.73655" lon="1.92531">
        <ele>1440.3</ele>
        <time>2020-08-29T11:01:20Z</time>
      </trkpt>
      <trkpt lat="42.73611" lon="1.92661">
        <ele>1432.5</ele>
        <time>2020-08-29T11:01:40Z</time>
      </trkpt>
      <trkpt lat="42.73625" lon="1.92801">
        <ele>1428</ele>
        <time>2020-08-29T11:01:55Z</time>
      </trkpt>
      <trkpt lat="42.73525" lon="1.92702">
        <ele>1404.3</ele>
        <time>2020-08-29T11:02:40Z</time>
      </trkpt>
      <trkpt lat="42.7344" lon="1.92624">
        <ele>1381.9</ele>
        <time>2020-08-29T11:03:17Z</time>
      </trkpt>
      <trkpt lat="42.73357" lon="1.92497">
        <ele>1365.3</ele>
        <time>2020-08-29T11:03:32Z</time>
      </trkpt>
      <trkpt lat="42.73323" lon="1.92379">
        <ele>1354.3</ele>
        <time>2020-08-29T11:03:42Z</time>
      </trkpt>
      <trkpt lat="42.7324" lon="1.92277">
        <ele>1335.1</ele>
        <time>2020-08-29T11:03:57Z</time>
      </trkpt>
      <trkpt lat="42.73156" lon="1.92131">
        <ele>1322</ele>
        <time>2020-08-29T11:04:12Z</time>
      </trkpt>
      <trkpt lat="42.7309" lon="1.91982">
        <ele>1310.8</ele>
        <time>2020-08-29T11:04:27Z</time>
      </trkpt>
      <trkpt lat="42.73003" lon="1.91849">
        <ele>1291.2</ele>
        <time>2020-08-29T11:05:43Z</time>
      </trkpt>
      <trkpt lat="42.72904" lon="1.91716">
        <ele>1284.7</ele>
        <time>2020-08-29T11:05:58Z</time>
      </trkpt>
      <trkpt lat="42.72812" lon="1.91648">
        <ele>1278.4</ele>
        <time>2020-08-29T11:06:13Z</time>
      </trkpt>
      <trkpt lat="42.72758" lon="1.91543">
        <ele>1274.4</ele>
        <time>2020-08-29T11:06:28Z</time>
      </trkpt>
      <trkpt lat="42.72693" lon="1.91421">
        <ele>1268.2</ele>
        <time>2020-08-29T11:06:43Z</time>
      </trkpt>
      <trkpt lat="42.72631" lon="1.91321">
        <ele>1262.7</ele>
        <time>2020-08-29T11:06:58Z</time>
      </trkpt>
      <trkpt lat="42.72542" lon="1.91244">
        <ele>1255.8</ele>
        <time>2020-08-29T11:07:13Z</time>
      </trkpt>
      <trkpt lat="42.72456" lon="1.91123">
        <ele>1244.4</ele>
        <time>2020-08-29T11:07:28Z</time>
      </trkpt>
      <trkpt lat="42.72407" lon="1.90999">
        <ele>1233.7</ele>
        <time>2020-08-29T11:07:38Z</time>
      </trkpt>
      <trkpt lat="42.72377" lon="1.90856">
        <ele>1228.5</ele>
        <time>2020-08-29T11:07:48Z</time>
      </trkpt>
      <trkpt lat="42.7237" lon="1.90722">
        <ele>1220</ele>
        <time>2020-08-29T11:07:58Z</time>
      </trkpt>
      <trkpt lat="42.72393" lon="1.90574">
        <ele>1209.3</ele>
        <time>2020-08-29T11:08:13Z</time>
      </trkpt>
      <trkpt lat="42.72418" lon="1.90411">
        <ele>1202</ele>
        <time>2020-08-29T11:08:28Z</time>
      </trkpt>
      <trkpt lat="42.72449" lon="1.90235">
        <ele>1192.8</ele>
        <time>2020-08-29T11:08:43Z</time>
      </trkpt>
      <trkpt lat="42.72454" lon="1.90108">
        <ele>1187.2</ele>
        <time>2020-08-29T11:08:53Z</time>
      </trkpt>
      <trkpt lat="42.72456" lon="1.89985">
        <ele>1181.9</ele>
        <time>2020-08-29T11:09:03Z</time>
      </trkpt>
      <trkpt lat="42.72393" lon="1.89889">
        <ele>1159.3</ele>
        <time>2020-08-29T11:11:47Z</time>
      </trkpt>
      <trkpt lat="42.72393" lon="1.89734">
        <ele>1152.4</ele>
        <time>2020-08-29T11:12:02Z</time>
      </trkpt>
      <trkpt lat="42.72375" lon="1.89595">
        <ele>1145.2</ele>
        <time>2020-08-29T11:12:17Z</time>
      </trkpt>
      <trkpt lat="42.72383" lon="1.89453">
        <ele>1130.5</ele>
        <time>2020-08-29T11:12:32Z</time>
      </trkpt>
      <trkpt lat="42.72429" lon="1.8934">
        <ele>1122.3</ele>
        <time>2020-08-29T11:12:52Z</time>
      </trkpt>
    </trkseg>
  </trk>
  <trk>
    <name><![CDATA[route117]]></name>
    <trkseg>
      <trkpt lat="42.72436" lon="1.89195">
        <ele>1104.4</ele>
        <time>2020-08-30T06:56:00Z</time>
      </trkpt>
      <trkpt lat="42.72445" lon="1.89071">
        <ele>1102</ele>
        <time>2020-08-30T06:56:54Z</time>
      </trkpt>
      <trkpt lat="42.72523" lon="1.88952">
        <ele>1097.1</ele>
        <time>2020-08-30T06:57:19Z</time>
      </trkpt>
      <trkpt lat="42.72494" lon="1.88821">
        <ele>1093.1</ele>
        <time>2020-08-30T06:58:04Z</time>
      </trkpt>
      <trkpt lat="42.72459" lon="1.88706">
        <ele>1092.9</ele>
        <time>2020-08-30T06:58:34Z</time>
      </trkpt>
      <trkpt lat="42.72414" lon="1.88569">
        <ele>1091.9</ele>
        <time>2020-08-30T06:58:59Z</time>
      </trkpt>
      <trkpt lat="42.72318" lon="1.88469">
        <ele>1089</ele>
        <time>2020-08-30T06:59:19Z</time>
      </trkpt>
      <trkpt lat="42.72291" lon="1.88343">
        <ele>1086.3</ele>
        <time>2020-08-30T06:59:34Z</time>
      </trkpt>
      <trkpt lat="42.72198" lon="1.88253">
        <ele>1085.7</ele>
        <time>2020-08-30T06:59:49Z</time>
      </trkpt>
      <trkpt lat="42.72154" lon="1.88144">
        <ele>1082.2</ele>
        <time>2020-08-30T06:59:59Z</time>
      </trkpt>
      <trkpt lat="42.72108" lon="1.88013">
        <ele>1074.2</ele>
        <time>2020-08-30T07:00:14Z</time>
      </trkpt>
      <trkpt lat="42.72025" lon="1.87904">
        <ele>1068.1</ele>
        <time>2020-08-30T07:00:29Z</time>
      </trkpt>
      <trkpt lat="42.71962" lon="1.87779">
        <ele>1059.6</ele>
        <time>2020-08-30T07:00:44Z</time>
      </trkpt>
      <trkpt lat="42.71946" lon="1.87651">
        <ele>1052.2</ele>
        <time>2020-08-30T07:00:54Z</time>
      </trkpt>
      <trkpt lat="42.71951" lon="1.87523">
        <ele>1046.4</ele>
        <time>2020-08-30T07:01:04Z</time>
      </trkpt>
      <trkpt lat="42.71973" lon="1.87401">
        <ele>1042.8</ele>
        <time>2020-08-30T07:01:14Z</time>
      </trkpt>
      <trkpt lat="42.71958" lon="1.87233">
        <ele>1035.4</ele>
        <time>2020-08-30T07:01:29Z</time>
      </trkpt>
      <trkpt lat="42.71956" lon="1.87051">
        <ele>1027.9</ele>
        <time>2020-08-30T07:01:44Z</time>
      </trkpt>
      <trkpt lat="42.7198" lon="1.86926">
        <ele>1021.6</ele>
        <time>2020-08-30T07:01:59Z</time>
      </trkpt>
      <trkpt lat="42.72016" lon="1.86784">
        <ele>1012.2</ele>
        <time>2020-08-30T07:02:54Z</time>
      </trkpt>
      <trkpt lat="42.72034" lon="1.86664">
        <ele>1009.3</ele>
        <time>2020-08-30T07:03:09Z</time>
      </trkpt>
      <trkpt lat="42.7202" lon="1.86508">
        <ele>1005</ele>
        <time>2020-08-30T07:03:24Z</time>
      </trkpt>
      <trkpt lat="42.72056" lon="1.86348">
        <ele>999.6</ele>
        <time>2020-08-30T07:03:39Z</time>
      </trkpt>
      <trkpt lat="42.7204" lon="1.86201">
        <ele>993.7</ele>
        <time>2020-08-30T07:03:54Z</time>
      </trkpt>
      <trkpt lat="42.72066" lon="1.86031">
        <ele>985.4</ele>
        <time>2020-08-30T07:04:09Z</time>
      </trkpt>
      <trkpt lat="42.72133" lon="1.85922">
        <ele>978.4</ele>
        <time>2020-08-30T07:04:19Z</time>
      </trkpt>
      <trkpt lat="42.72226" lon="1.85852">
        <ele>972</ele>
        <time>2020-08-30T07:04:29Z</time>
      </trkpt>
      <trkpt lat="42.72281" lon="1.85735">
        <ele>967.2</ele>
        <time>2020-08-30T07:04:49Z</time>
      </trkpt>
      <trkpt lat="42.72336" lon="1.85629">
        <ele>965.4</ele>
        <time>2020-08-30T07:05:59Z</time>
      </trkpt>
      <trkpt lat="42.7237" lon="1.85509">
        <ele>969.4</ele>
        <time>2020-08-30T07:07:07Z</time>
      </trkpt>
      <trkpt lat="42.72431" lon="1.85403">
        <ele>973.7</ele>
        <time>2020-08-30T07:08:14Z</time>
      </trkpt>
      <trkpt lat="42.725" lon="1.85315">
        <ele>980.7</ele>
        <time>2020-08-30T07:09:19Z</time>
      </trkpt>
      <trkpt lat="42.72566" lon="1.85223">
        <ele>988.6</ele>
        <time>2020-08-30T07:10:26Z</time>
      </trkpt>
      <trkpt lat="42.72645" lon="1.85152">
        <ele>992.2</ele>
        <time>2020-08-30T07:11:31Z</time>
      </trkpt>
      <trkpt lat="42.72705" lon="1.85047">
        <ele>997.5</ele>
        <time>2020-08-30T07:12:38Z</time>
      </trkpt>
      <trkpt lat="42.72779" lon="1.84965">
        <ele>1003</ele>
        <time>2020-08-30T07:13:45Z</time>
      </trkpt>
      <trkpt lat="42.72847" lon="1.84871">
        <ele>1010.4</ele>
        <time>2020-08-30T07:14:51Z</time>
      </trkpt>
      <trkpt lat="42.72924" lon="1.84802">
        <ele>1017</ele>
        <time>2020-08-30T07:15:56Z</time>
      </trkpt>
      <trkpt lat="42.73014" lon="1.8478">
        <ele>1023.9</ele>
        <time>2020-08-30T07:20:09Z</time>
      </trkpt>
      <trkpt lat="42.73075" lon="1.84688">
        <ele>1026.2</ele>
        <time>2020-08-30T07:20:59Z</time>
      </trkpt>
      <trkpt lat="42.73158" lon="1.8462">
        <ele>1028.6</ele>
        <time>2020-08-30T07:22:11Z</time>
      </trkpt>
      <trkpt lat="42.73243" lon="1.84562">
        <ele>1030.8</ele>
        <time>2020-08-30T07:23:14Z</time>
      </trkpt>
      <trkpt lat="42.73314" lon="1.84475">
        <ele>1033.7</ele>
        <time>2020-08-30T07:24:22Z</time>
      </trkpt>
      <trkpt lat="42.73367" lon="1.84363">
        <ele>1036.7</ele>
        <time>2020-08-30T07:25:30Z</time>
      </trkpt>
      <trkpt lat="42.73434" lon="1.84269">
        <ele>1039.9</ele>
        <time>2020-08-30T07:26:42Z</time>
      </trkpt>
      <trkpt lat="42.7349" lon="1.84161">
        <ele>1047.6</ele>
        <time>2020-08-30T07:27:56Z</time>
      </trkpt>
      <trkpt lat="42.73529" lon="1.84044">
        <ele>1059.3</ele>
        <time>2020-08-30T07:29:06Z</time>
      </trkpt>
      <trkpt lat="42.73555" lon="1.83916">
        <ele>1068.8</ele>
        <time>2020-08-30T07:30:18Z</time>
      </trkpt>
      <trkpt lat="42.73602" lon="1.838">
        <ele>1076.4</ele>
        <time>2020-08-30T07:31:30Z</time>
      </trkpt>
      <trkpt lat="42.73638" lon="1.83677">
        <ele>1082.3</ele>
        <time>2020-08-30T07:32:40Z</time>
      </trkpt>
      <trkpt lat="42.73652" lon="1.83547">
        <ele>1087</ele>
        <time>2020-08-30T07:33:51Z</time>
      </trkpt>
      <trkpt lat="42.73677" lon="1.83429">
        <ele>1091.6</ele>
        <time>2020-08-30T07:35:00Z</time>
      </trkpt>
      <trkpt lat="42.7377" lon="1.83389">
        <ele>1097.9</ele>
        <time>2020-08-30T07:36:15Z</time>
      </trkpt>
      <trkpt lat="42.7386" lon="1.83352">
        <ele>1112.2</ele>
        <time>2020-08-30T07:37:28Z</time>
      </trkpt>
      <trkpt lat="42.73955" lon="1.83367">
        <ele>1126.1</ele>
        <time>2020-08-30T07:38:39Z</time>
      </trkpt>
      <trkpt lat="42.74053" lon="1.8338">
        <ele>1138.2</ele>
        <time>2020-08-30T07:39:57Z</time>
      </trkpt>
      <trkpt lat="42.74139" lon="1.8343">
        <ele>1146.9</ele>
        <time>2020-08-30T07:41:10Z</time>
      </trkpt>
      <trkpt lat="42.74218" lon="1.83502">
        <ele>1153.7</ele>
        <time>2020-08-30T07:42:22Z</time>
      </trkpt>
      <trkpt lat="42.74286" lon="1.83591">
        <ele>1160.4</ele>
        <time>2020-08-30T07:43:35Z</time>
      </trkpt>
      <trkpt lat="42.74364" lon="1.83664">
        <ele>1166.5</ele>
        <time>2020-08-30T07:44:47Z</time>
      </trkpt>
      <trkpt lat="42.74452" lon="1.83713">
        <ele>1172.6</ele>
        <time>2020-08-30T07:45:54Z</time>
      </trkpt>
      <trkpt lat="42.74526" lon="1.83798">
        <ele>1179.5</ele>
        <time>2020-08-30T07:47:04Z</time>
      </trkpt>
      <trkpt lat="42.74582" lon="1.83904">
        <ele>1186.5</ele>
        <time>2020-08-30T07:48:15Z</time>
      </trkpt>
      <trkpt lat="42.74619" lon="1.84019">
        <ele>1192.8</ele>
        <time>2020-08-30T07:49:26Z</time>
      </trkpt>
      <trkpt lat="42.74653" lon="1.84144">
        <ele>1198.5</ele>
        <time>2020-08-30T07:50:33Z</time>
      </trkpt>
      <trkpt lat="42.74717" lon="1.84237">
        <ele>1205</ele>
        <time>2020-08-30T07:51:42Z</time>
      </trkpt>
      <trkpt lat="42.74791" lon="1.84321">
        <ele>1214.1</ele>
        <time>2020-08-30T07:53:16Z</time>
      </trkpt>
      <trkpt lat="42.74877" lon="1.84371">
        <ele>1226.3</ele>
        <time>2020-08-30T07:54:36Z</time>
      </trkpt>
      <trkpt lat="42.74972" lon="1.84383">
        <ele>1258.7</ele>
        <time>2020-08-30T07:56:01Z</time>
      </trkpt>
      <trkpt lat="42.75043" lon="1.84464">
        <ele>1284</ele>
        <time>2020-08-30T07:58:35Z</time>
      </trkpt>
      <trkpt lat="42.75091" lon="1.84353">
        <ele>1292.7</ele>
        <time>2020-08-30T08:00:46Z</time>
      </trkpt>
      <trkpt lat="42.75102" lon="1.84482">
        <ele>1299.5</ele>
        <time>2020-08-30T08:02:34Z</time>
      </trkpt>
      <trkpt lat="42.75113" lon="1.84612">
        <ele>1303.1</ele>
        <time>2020-08-30T08:03:48Z</time>
      </trkpt>
      <trkpt lat="42.75115" lon="1.84739">
        <ele>1306.8</ele>
        <time>2020-08-30T08:04:58Z</time>
      </trkpt>
      <trkpt lat="42.75146" lon="1.84624">
        <ele>1312.5</ele>
        <time>2020-08-30T08:06:05Z</time>
      </trkpt>
      <trkpt lat="42.7517" lon="1.84501">
        <ele>1319.5</ele>
        <time>2020-08-30T08:07:20Z</time>
      </trkpt>
      <trkpt lat="42.75241" lon="1.84417">
        <ele>1332</ele>
        <time>2020-08-30T08:08:42Z</time>
      </trkpt>
      <trkpt lat="42.75234" lon="1.8429">
        <ele>1351.9</ele>
        <time>2020-08-30T08:10:03Z</time>
      </trkpt>
      <trkpt lat="42.75264" lon="1.84167">
        <ele>1364.1</ele>
        <time>2020-08-30T08:11:23Z</time>
      </trkpt>
      <trkpt lat="42.75322" lon="1.84063">
        <ele>1372.8</ele>
        <time>2020-08-30T08:12:43Z</time>
      </trkpt>
      <trkpt lat="42.75369" lon="1.83953">
        <ele>1379.8</ele>
        <time>2020-08-30T08:14:01Z</time>
      </trkpt>
      <trkpt lat="42.75361" lon="1.83828">
        <ele>1386.3</ele>
        <time>2020-08-30T08:15:24Z</time>
      </trkpt>
      <trkpt lat="42.75441" lon="1.83765">
        <ele>1392</ele>
        <time>2020-08-30T08:16:34Z</time>
      </trkpt>
      <trkpt lat="42.75524" lon="1.83835">
        <ele>1398.2</ele>
        <time>2020-08-30T08:17:49Z</time>
      </trkpt>
      <trkpt lat="42.75571" lon="1.83953">
        <ele>1401.9</ele>
        <time>2020-08-30T08:18:54Z</time>
      </trkpt>
      <trkpt lat="42.75618" lon="1.84065">
        <ele>1405.2</ele>
        <time>2020-08-30T08:20:06Z</time>
      </trkpt>
      <trkpt lat="42.75631" lon="1.84192">
        <ele>1411.1</ele>
        <time>2020-08-30T08:23:53Z</time>
      </trkpt>
      <trkpt lat="42.75628" lon="1.84315">
        <ele>1413.3</ele>
        <time>2020-08-30T08:24:18Z</time>
      </trkpt>
      <trkpt lat="42.75633" lon="1.84467">
        <ele>1415.5</ele>
        <time>2020-08-30T08:24:43Z</time>
      </trkpt>
      <trkpt lat="42.75648" lon="1.84608">
        <ele>1416.2</ele>
        <time>2020-08-30T08:25:03Z</time>
      </trkpt>
      <trkpt lat="42.75671" lon="1.84764">
        <ele>1416.6</ele>
        <time>2020-08-30T08:25:23Z</time>
      </trkpt>
      <trkpt lat="42.7572" lon="1.84903">
        <ele>1417.3</ele>
        <time>2020-08-30T08:25:43Z</time>
      </trkpt>
      <trkpt lat="42.75804" lon="1.85">
        <ele>1417.6</ele>
        <time>2020-08-30T08:26:03Z</time>
      </trkpt>
      <trkpt lat="42.75915" lon="1.85023">
        <ele>1419.2</ele>
        <time>2020-08-30T08:26:23Z</time>
      </trkpt>
      <trkpt lat="42.76006" lon="1.85075">
        <ele>1420.9</ele>
        <time>2020-08-30T08:26:43Z</time>
      </trkpt>
      <trkpt lat="42.76114" lon="1.85159">
        <ele>1420.5</ele>
        <time>2020-08-30T08:27:03Z</time>
      </trkpt>
      <trkpt lat="42.7621" lon="1.85259">
        <ele>1419.2</ele>
        <time>2020-08-30T08:28:30Z</time>
      </trkpt>
      <trkpt lat="42.76302" lon="1.85192">
        <ele>1417.1</ele>
        <time>2020-08-30T08:28:44Z</time>
      </trkpt>
      <trkpt lat="42.76401" lon="1.85149">
        <ele>1413.4</ele>
        <time>2020-08-30T08:28:59Z</time>
      </trkpt>
      <trkpt lat="42.76508" lon="1.85256">
        <ele>1397.1</ele>
        <time>2020-08-30T08:29:14Z</time>
      </trkpt>
      <trkpt lat="42.76582" lon="1.85185">
        <ele>1391.1</ele>
        <time>2020-08-30T08:29:29Z</time>
      </trkpt>
      <trkpt lat="42.76617" lon="1.85067">
        <ele>1388.6</ele>
        <time>2020-08-30T08:30:02Z</time>
      </trkpt>
      <trkpt lat="42.76549" lon="1.84953">
        <ele>1373.5</ele>
        <time>2020-08-30T08:30:22Z</time>
      </trkpt>
      <trkpt lat="42.76455" lon="1.84914">
        <ele>1368.6</ele>
        <time>2020-08-30T08:30:37Z</time>
      </trkpt>
      <trkpt lat="42.76359" lon="1.84858">
        <ele>1361.6</ele>
        <time>2020-08-30T08:33:04Z</time>
      </trkpt>
      <trkpt lat="42.76263" lon="1.84862">
        <ele>1357.4</ele>
        <time>2020-08-30T08:33:24Z</time>
      </trkpt>
      <trkpt lat="42.76176" lon="1.8491">
        <ele>1354</ele>
        <time>2020-08-30T08:33:39Z</time>
      </trkpt>
      <trkpt lat="42.76059" lon="1.84874">
        <ele>1352.9</ele>
        <time>2020-08-30T08:33:59Z</time>
      </trkpt>
      <trkpt lat="42.75972" lon="1.84779">
        <ele>1350.9</ele>
        <time>2020-08-30T08:34:14Z</time>
      </trkpt>
      <trkpt lat="42.75895" lon="1.84679">
        <ele>1349.1</ele>
        <time>2020-08-30T08:34:29Z</time>
      </trkpt>
      <trkpt lat="42.75865" lon="1.84561">
        <ele>1344.3</ele>
        <time>2020-08-30T08:34:44Z</time>
      </trkpt>
      <trkpt lat="42.75915" lon="1.84431">
        <ele>1336.3</ele>
        <time>2020-08-30T08:35:04Z</time>
      </trkpt>
      <trkpt lat="42.75954" lon="1.84314">
        <ele>1331</ele>
        <time>2020-08-30T08:35:19Z</time>
      </trkpt>
      <trkpt lat="42.75966" lon="1.84172">
        <ele>1322.1</ele>
        <time>2020-08-30T08:35:34Z</time>
      </trkpt>
      <trkpt lat="42.75968" lon="1.84046">
        <ele>1314.3</ele>
        <time>2020-08-30T08:35:49Z</time>
      </trkpt>
      <trkpt lat="42.75953" lon="1.83902">
        <ele>1307.8</ele>
        <time>2020-08-30T08:36:04Z</time>
      </trkpt>
      <trkpt lat="42.75929" lon="1.83777">
        <ele>1295.1</ele>
        <time>2020-08-30T08:36:19Z</time>
      </trkpt>
      <trkpt lat="42.7588" lon="1.83622">
        <ele>1283.7</ele>
        <time>2020-08-30T08:36:34Z</time>
      </trkpt>
      <trkpt lat="42.75794" lon="1.83509">
        <ele>1285.2</ele>
        <time>2020-08-30T08:36:49Z</time>
      </trkpt>
      <trkpt lat="42.75739" lon="1.83358">
        <ele>1285.8</ele>
        <time>2020-08-30T08:37:04Z</time>
      </trkpt>
      <trkpt lat="42.75707" lon="1.83209">
        <ele>1283.2</ele>
        <time>2020-08-30T08:37:19Z</time>
      </trkpt>
      <trkpt lat="42.7565" lon="1.83073">
        <ele>1273.3</ele>
        <time>2020-08-30T08:37:34Z</time>
      </trkpt>
      <trkpt lat="42.75633" lon="1.82898">
        <ele>1263.4</ele>
        <time>2020-08-30T08:37:49Z</time>
      </trkpt>
      <trkpt lat="42.75596" lon="1.82785">
        <ele>1260.9</ele>
        <time>2020-08-30T08:37:59Z</time>
      </trkpt>
      <trkpt lat="42.75628" lon="1.82642">
        <ele>1261.8</ele>
        <time>2020-08-30T08:38:19Z</time>
      </trkpt>
      <trkpt lat="42.7571" lon="1.82591">
        <ele>1256.1</ele>
        <time>2020-08-30T08:38:34Z</time>
      </trkpt>
      <trkpt lat="42.75813" lon="1.82539">
        <ele>1249.9</ele>
        <time>2020-08-30T08:38:49Z</time>
      </trkpt>
      <trkpt lat="42.75893" lon="1.82428">
        <ele>1249.5</ele>
        <time>2020-08-30T08:39:04Z</time>
      </trkpt>
      <trkpt lat="42.7592" lon="1.82248">
        <ele>1246.6</ele>
        <time>2020-08-30T08:39:19Z</time>
      </trkpt>
      <trkpt lat="42.75931" lon="1.82122">
        <ele>1235.9</ele>
        <time>2020-08-30T08:39:29Z</time>
      </trkpt>
      <trkpt lat="42.75914" lon="1.81999">
        <ele>1231.3</ele>
        <time>2020-08-30T08:39:39Z</time>
      </trkpt>
      <trkpt lat="42.75844" lon="1.81858">
        <ele>1221.1</ele>
        <time>2020-08-30T08:39:54Z</time>
      </trkpt>
      <trkpt lat="42.7575" lon="1.81775">
        <ele>1212.2</ele>
        <time>2020-08-30T08:40:09Z</time>
      </trkpt>
      <trkpt lat="42.75735" lon="1.81646">
        <ele>1210.1</ele>
        <time>2020-08-30T08:40:24Z</time>
      </trkpt>
      <trkpt lat="42.75765" lon="1.81513">
        <ele>1204.9</ele>
        <time>2020-08-30T08:40:39Z</time>
      </trkpt>
      <trkpt lat="42.75692" lon="1.81423">
        <ele>1198.3</ele>
        <time>2020-08-30T08:40:54Z</time>
      </trkpt>
      <trkpt lat="42.7565" lon="1.8131">
        <ele>1194.1</ele>
        <time>2020-08-30T08:41:14Z</time>
      </trkpt>
      <trkpt lat="42.75668" lon="1.81173">
        <ele>1182.6</ele>
        <time>2020-08-30T08:41:29Z</time>
      </trkpt>
      <trkpt lat="42.75775" lon="1.81064">
        <ele>1180.6</ele>
        <time>2020-08-30T08:41:54Z</time>
      </trkpt>
      <trkpt lat="42.75875" lon="1.81015">
        <ele>1176.9</ele>
        <time>2020-08-30T08:42:09Z</time>
      </trkpt>
      <trkpt lat="42.7598" lon="1.80955">
        <ele>1171.9</ele>
        <time>2020-08-30T08:42:24Z</time>
      </trkpt>
      <trkpt lat="42.76022" lon="1.80801">
        <ele>1170.1</ele>
        <time>2020-08-30T08:42:39Z</time>
      </trkpt>
      <trkpt lat="42.75935" lon="1.8071">
        <ele>1158.2</ele>
        <time>2020-08-30T08:42:54Z</time>
      </trkpt>
      <trkpt lat="42.75941" lon="1.80549">
        <ele>1147.2</ele>
        <time>2020-08-30T08:43:14Z</time>
      </trkpt>
      <trkpt lat="42.75987" lon="1.80403">
        <ele>1143.6</ele>
        <time>2020-08-30T08:43:29Z</time>
      </trkpt>
      <trkpt lat="42.76059" lon="1.80287">
        <ele>1130.7</ele>
        <time>2020-08-30T08:43:44Z</time>
      </trkpt>
      <trkpt lat="42.76142" lon="1.80157">
        <ele>1119.2</ele>
        <time>2020-08-30T08:43:59Z</time>
      </trkpt>
      <trkpt lat="42.76236" lon="1.80047">
        <ele>1105.8</ele>
        <time>2020-08-30T08:44:14Z</time>
      </trkpt>
      <trkpt lat="42.76231" lon="1.79918">
        <ele>1099.5</ele>
        <time>2020-08-30T08:44:29Z</time>
      </trkpt>
      <trkpt lat="42.76157" lon="1.79809">
        <ele>1094.2</ele>
        <time>2020-08-30T08:44:44Z</time>
      </trkpt>
      <trkpt lat="42.76092" lon="1.79682">
        <ele>1088.8</ele>
        <time>2020-08-30T08:44:59Z</time>
      </trkpt>
      <trkpt lat="42.76082" lon="1.7954">
        <ele>1085.4</ele>
        <time>2020-08-30T08:45:14Z</time>
      </trkpt>
      <trkpt lat="42.75971" lon="1.79467">
        <ele>1080.7</ele>
        <time>2020-08-30T08:45:29Z</time>
      </trkpt>
      <trkpt lat="42.75873" lon="1.79451">
        <ele>1085.1</ele>
        <time>2020-08-30T08:45:44Z</time>
      </trkpt>
      <trkpt lat="42.75976" lon="1.79448">
        <ele>1076.1</ele>
        <time>2020-08-30T08:49:58Z</time>
      </trkpt>
      <trkpt lat="42.76085" lon="1.79492">
        <ele>1073</ele>
        <time>2020-08-30T08:50:18Z</time>
      </trkpt>
      <trkpt lat="42.76127" lon="1.79646">
        <ele>1060.1</ele>
        <time>2020-08-30T08:53:25Z</time>
      </trkpt>
      <trkpt lat="42.76208" lon="1.79742">
        <ele>1057.8</ele>
        <time>2020-08-30T08:53:40Z</time>
      </trkpt>
      <trkpt lat="42.76313" lon="1.79839">
        <ele>1054.3</ele>
        <time>2020-08-30T08:53:55Z</time>
      </trkpt>
      <trkpt lat="42.76362" lon="1.79989">
        <ele>1047.9</ele>
        <time>2020-08-30T08:54:10Z</time>
      </trkpt>
      <trkpt lat="42.76355" lon="1.80156">
        <ele>1039.1</ele>
        <time>2020-08-30T08:54:25Z</time>
      </trkpt>
      <trkpt lat="42.76267" lon="1.80285">
        <ele>1030.6</ele>
        <time>2020-08-30T08:54:40Z</time>
      </trkpt>
      <trkpt lat="42.76204" lon="1.80438">
        <ele>1023.1</ele>
        <time>2020-08-30T08:54:55Z</time>
      </trkpt>
      <trkpt lat="42.76244" lon="1.8055">
        <ele>1018.8</ele>
        <time>2020-08-30T08:55:15Z</time>
      </trkpt>
      <trkpt lat="42.76331" lon="1.80661">
        <ele>1008</ele>
        <time>2020-08-30T08:55:30Z</time>
      </trkpt>
      <trkpt lat="42.76348" lon="1.80835">
        <ele>1003.3</ele>
        <time>2020-08-30T08:55:45Z</time>
      </trkpt>
      <trkpt lat="42.76362" lon="1.81011">
        <ele>997</ele>
        <time>2020-08-30T08:56:00Z</time>
      </trkpt>
      <trkpt lat="42.76357" lon="1.81166">
        <ele>994.8</ele>
        <time>2020-08-30T08:56:15Z</time>
      </trkpt>
      <trkpt lat="42.76421" lon="1.81036">
        <ele>981.1</ele>
        <time>2020-08-30T08:56:49Z</time>
      </trkpt>
      <trkpt lat="42.76422" lon="1.80862">
        <ele>978</ele>
        <time>2020-08-30T08:57:04Z</time>
      </trkpt>
      <trkpt lat="42.76423" lon="1.80709">
        <ele>971.7</ele>
        <time>2020-08-30T08:57:19Z</time>
      </trkpt>
      <trkpt lat="42.76447" lon="1.80844">
        <ele>962</ele>
        <time>2020-08-30T08:57:44Z</time>
      </trkpt>
      <trkpt lat="42.76486" lon="1.80983">
        <ele>956.3</ele>
        <time>2020-08-30T08:57:59Z</time>
      </trkpt>
      <trkpt lat="42.76551" lon="1.81077">
        <ele>949.7</ele>
        <time>2020-08-30T08:58:45Z</time>
      </trkpt>
      <trkpt lat="42.7662" lon="1.81208">
        <ele>941.8</ele>
        <time>2020-08-30T08:59:05Z</time>
      </trkpt>
      <trkpt lat="42.76646" lon="1.8134">
        <ele>935.1</ele>
        <time>2020-08-30T08:59:20Z</time>
      </trkpt>
      <trkpt lat="42.76654" lon="1.8148">
        <ele>924.9</ele>
        <time>2020-08-30T08:59:40Z</time>
      </trkpt>
      <trkpt lat="42.76705" lon="1.816">
        <ele>921.3</ele>
        <time>2020-08-30T08:59:55Z</time>
      </trkpt>
      <trkpt lat="42.76726" lon="1.81474">
        <ele>914.3</ele>
        <time>2020-08-30T09:00:15Z</time>
      </trkpt>
      <trkpt lat="42.76752" lon="1.81303">
        <ele>907.6</ele>
        <time>2020-08-30T09:00:30Z</time>
      </trkpt>
      <trkpt lat="42.76753" lon="1.81136">
        <ele>900.5</ele>
        <time>2020-08-30T09:00:45Z</time>
      </trkpt>
      <trkpt lat="42.76757" lon="1.8096">
        <ele>898.8</ele>
        <time>2020-08-30T09:01:00Z</time>
      </trkpt>
      <trkpt lat="42.76822" lon="1.80805">
        <ele>896</ele>
        <time>2020-08-30T09:01:15Z</time>
      </trkpt>
      <trkpt lat="42.76844" lon="1.80683">
        <ele>888.8</ele>
        <time>2020-08-30T09:01:30Z</time>
      </trkpt>
      <trkpt lat="42.76898" lon="1.80578">
        <ele>882.3</ele>
        <time>2020-08-30T09:01:45Z</time>
      </trkpt>
      <trkpt lat="42.76884" lon="1.80437">
        <ele>867.9</ele>
        <time>2020-08-30T09:02:10Z</time>
      </trkpt>
      <trkpt lat="42.76905" lon="1.80268">
        <ele>865.7</ele>
        <time>2020-08-30T09:02:30Z</time>
      </trkpt>
      <trkpt lat="42.76929" lon="1.80104">
        <ele>864.4</ele>
        <time>2020-08-30T09:02:45Z</time>
      </trkpt>
      <trkpt lat="42.76932" lon="1.7998">
        <ele>861.9</ele>
        <time>2020-08-30T09:02:55Z</time>
      </trkpt>
      <trkpt lat="42.76923" lon="1.79856">
        <ele>860.5</ele>
        <time>2020-08-30T09:03:05Z</time>
      </trkpt>
      <trkpt lat="42.76882" lon="1.79717">
        <ele>855.7</ele>
        <time>2020-08-30T09:03:20Z</time>
      </trkpt>
      <trkpt lat="42.76865" lon="1.79591">
        <ele>860</ele>
        <time>2020-08-30T09:03:50Z</time>
      </trkpt>
      <trkpt lat="42.76869" lon="1.79466">
        <ele>860.4</ele>
        <time>2020-08-30T09:04:30Z</time>
      </trkpt>
      <trkpt lat="42.76866" lon="1.79338">
        <ele>858.8</ele>
        <time>2020-08-30T09:05:05Z</time>
      </trkpt>
      <trkpt lat="42.76819" lon="1.79222">
        <ele>855.5</ele>
        <time>2020-08-30T09:06:08Z</time>
      </trkpt>
      <trkpt lat="42.76817" lon="1.79092">
        <ele>854.3</ele>
        <time>2020-08-30T09:07:21Z</time>
      </trkpt>
      <trkpt lat="42.76833" lon="1.78968">
        <ele>853.9</ele>
        <time>2020-08-30T09:08:08Z</time>
      </trkpt>
      <trkpt lat="42.76848" lon="1.78843">
        <ele>852.1</ele>
        <time>2020-08-30T09:08:28Z</time>
      </trkpt>
      <trkpt lat="42.7681" lon="1.78715">
        <ele>851.6</ele>
        <time>2020-08-30T09:08:53Z</time>
      </trkpt>
      <trkpt lat="42.76721" lon="1.78662">
        <ele>851.6</ele>
        <time>2020-08-30T09:09:13Z</time>
      </trkpt>
      <trkpt lat="42.76657" lon="1.78547">
        <ele>851.5</ele>
        <time>2020-08-30T09:29:59Z</time>
      </trkpt>
      <trkpt lat="42.76697" lon="1.78396">
        <ele>850.8</ele>
        <time>2020-08-30T09:30:19Z</time>
      </trkpt>
      <trkpt lat="42.76713" lon="1.7827">
        <ele>849.8</ele>
        <time>2020-08-30T09:30:39Z</time>
      </trkpt>
      <trkpt lat="42.76622" lon="1.78217">
        <ele>849.7</ele>
        <time>2020-08-30T09:31:28Z</time>
      </trkpt>
      <trkpt lat="42.76527" lon="1.78175">
        <ele>849.1</ele>
        <time>2020-08-30T09:32:28Z</time>
      </trkpt>
      <trkpt lat="42.76532" lon="1.78039">
        <ele>849.4</ele>
        <time>2020-08-30T09:33:13Z</time>
      </trkpt>
      <trkpt lat="42.76583" lon="1.77931">
        <ele>850.2</ele>
        <time>2020-08-30T09:33:43Z</time>
      </trkpt>
      <trkpt lat="42.76642" lon="1.77811">
        <ele>851.2</ele>
        <time>2020-08-30T09:34:13Z</time>
      </trkpt>
      <trkpt lat="42.76698" lon="1.7769">
        <ele>851.6</ele>
        <time>2020-08-30T09:34:43Z</time>
      </trkpt>
      <trkpt lat="42.76736" lon="1.77575">
        <ele>851.3</ele>
        <time>2020-08-30T09:35:08Z</time>
      </trkpt>
      <trkpt lat="42.76776" lon="1.77466">
        <ele>851.1</ele>
        <time>2020-08-30T09:35:33Z</time>
      </trkpt>
      <trkpt lat="42.76821" lon="1.77334">
        <ele>850.1</ele>
        <time>2020-08-30T09:36:03Z</time>
      </trkpt>
      <trkpt lat="42.76913" lon="1.77308">
        <ele>849.8</ele>
        <time>2020-08-30T09:36:33Z</time>
      </trkpt>
      <trkpt lat="42.76971" lon="1.77209">
        <ele>851.2</ele>
        <time>2020-08-30T09:37:03Z</time>
      </trkpt>
      <trkpt lat="42.76979" lon="1.77081">
        <ele>850.8</ele>
        <time>2020-08-30T09:37:28Z</time>
      </trkpt>
      <trkpt lat="42.77008" lon="1.76955">
        <ele>850.4</ele>
        <time>2020-08-30T09:37:53Z</time>
      </trkpt>
      <trkpt lat="42.77051" lon="1.7684">
        <ele>850.3</ele>
        <time>2020-08-30T09:38:18Z</time>
      </trkpt>
      <trkpt lat="42.77104" lon="1.76737">
        <ele>850.1</ele>
        <time>2020-08-30T09:38:44Z</time>
      </trkpt>
      <trkpt lat="42.77168" lon="1.76647">
        <ele>849.9</ele>
        <time>2020-08-30T09:39:09Z</time>
      </trkpt>
      <trkpt lat="42.77219" lon="1.76532">
        <ele>849.5</ele>
        <time>2020-08-30T09:39:34Z</time>
      </trkpt>
      <trkpt lat="42.77272" lon="1.76427">
        <ele>849.2</ele>
        <time>2020-08-30T09:39:59Z</time>
      </trkpt>
      <trkpt lat="42.7731" lon="1.76309">
        <ele>849</ele>
        <time>2020-08-30T09:40:24Z</time>
      </trkpt>
      <trkpt lat="42.77344" lon="1.76196">
        <ele>849</ele>
        <time>2020-08-30T09:40:59Z</time>
      </trkpt>
      <trkpt lat="42.77396" lon="1.76083">
        <ele>849.4</ele>
        <time>2020-08-30T09:42:05Z</time>
      </trkpt>
      <trkpt lat="42.77434" lon="1.7596">
        <ele>850.4</ele>
        <time>2020-08-30T09:43:07Z</time>
      </trkpt>
      <trkpt lat="42.77495" lon="1.75858">
        <ele>851.8</ele>
        <time>2020-08-30T09:44:13Z</time>
      </trkpt>
      <trkpt lat="42.77548" lon="1.75752">
        <ele>854.3</ele>
        <time>2020-08-30T09:45:20Z</time>
      </trkpt>
      <trkpt lat="42.77593" lon="1.75636">
        <ele>857</ele>
        <time>2020-08-30T09:46:28Z</time>
      </trkpt>
      <trkpt lat="42.77651" lon="1.75537">
        <ele>859.8</ele>
        <time>2020-08-30T09:47:33Z</time>
      </trkpt>
      <trkpt lat="42.77744" lon="1.75497">
        <ele>871.5</ele>
        <time>2020-08-30T09:50:42Z</time>
      </trkpt>
      <trkpt lat="42.77844" lon="1.75604">
        <ele>884.6</ele>
        <time>2020-08-30T09:56:46Z</time>
      </trkpt>
      <trkpt lat="42.77924" lon="1.7571">
        <ele>883.5</ele>
        <time>2020-08-30T09:57:01Z</time>
      </trkpt>
      <trkpt lat="42.7795" lon="1.75873">
        <ele>880.8</ele>
        <time>2020-08-30T09:57:16Z</time>
      </trkpt>
      <trkpt lat="42.77967" lon="1.76001">
        <ele>877</ele>
        <time>2020-08-30T09:57:26Z</time>
      </trkpt>
      <trkpt lat="42.78059" lon="1.75986">
        <ele>879.1</ele>
        <time>2020-08-30T09:58:01Z</time>
      </trkpt>
      <trkpt lat="42.78114" lon="1.75881">
        <ele>879.1</ele>
        <time>2020-08-30T09:58:36Z</time>
      </trkpt>
      <trkpt lat="42.78186" lon="1.75795">
        <ele>878.8</ele>
        <time>2020-08-30T09:59:22Z</time>
      </trkpt>
      <trkpt lat="42.7828" lon="1.75745">
        <ele>882.6</ele>
        <time>2020-08-30T10:00:07Z</time>
      </trkpt>
      <trkpt lat="42.78359" lon="1.75642">
        <ele>887.7</ele>
        <time>2020-08-30T10:00:42Z</time>
      </trkpt>
      <trkpt lat="42.78404" lon="1.7549">
        <ele>887.3</ele>
        <time>2020-08-30T10:01:02Z</time>
      </trkpt>
      <trkpt lat="42.78431" lon="1.75365">
        <ele>881.6</ele>
        <time>2020-08-30T10:01:22Z</time>
      </trkpt>
      <trkpt lat="42.78407" lon="1.75236">
        <ele>880.5</ele>
        <time>2020-08-30T10:01:47Z</time>
      </trkpt>
      <trkpt lat="42.78419" lon="1.7509">
        <ele>884.9</ele>
        <time>2020-08-30T10:02:17Z</time>
      </trkpt>
      <trkpt lat="42.78452" lon="1.74958">
        <ele>888.4</ele>
        <time>2020-08-30T10:02:42Z</time>
      </trkpt>
      <trkpt lat="42.78465" lon="1.74837">
        <ele>889</ele>
        <time>2020-08-30T10:03:17Z</time>
      </trkpt>
      <trkpt lat="42.78478" lon="1.74714">
        <ele>889.6</ele>
        <time>2020-08-30T10:03:52Z</time>
      </trkpt>
      <trkpt lat="42.7852" lon="1.74606">
        <ele>889.3</ele>
        <time>2020-08-30T10:04:27Z</time>
      </trkpt>
      <trkpt lat="42.78565" lon="1.74496">
        <ele>889.8</ele>
        <time>2020-08-30T10:05:02Z</time>
      </trkpt>
      <trkpt lat="42.78648" lon="1.74438">
        <ele>891.4</ele>
        <time>2020-08-30T10:05:49Z</time>
      </trkpt>
      <trkpt lat="42.78735" lon="1.74402">
        <ele>892.7</ele>
        <time>2020-08-30T10:06:46Z</time>
      </trkpt>
      <trkpt lat="42.78835" lon="1.74433">
        <ele>894.3</ele>
        <time>2020-08-30T10:07:49Z</time>
      </trkpt>
      <trkpt lat="42.78928" lon="1.74402">
        <ele>896.8</ele>
        <time>2020-08-30T10:08:45Z</time>
      </trkpt>
      <trkpt lat="42.78868" lon="1.74296">
        <ele>899.3</ele>
        <time>2020-08-30T10:09:39Z</time>
      </trkpt>
      <trkpt lat="42.78831" lon="1.74173">
        <ele>901</ele>
        <time>2020-08-30T10:10:29Z</time>
      </trkpt>
      <trkpt lat="42.78884" lon="1.74066">
        <ele>901.8</ele>
        <time>2020-08-30T10:11:14Z</time>
      </trkpt>
      <trkpt lat="42.78947" lon="1.73971">
        <ele>902.4</ele>
        <time>2020-08-30T10:11:59Z</time>
      </trkpt>
      <trkpt lat="42.79001" lon="1.73863">
        <ele>903.1</ele>
        <time>2020-08-30T10:12:44Z</time>
      </trkpt>
      <trkpt lat="42.79048" lon="1.73748">
        <ele>903.9</ele>
        <time>2020-08-30T10:13:29Z</time>
      </trkpt>
      <trkpt lat="42.79081" lon="1.73633">
        <ele>905</ele>
        <time>2020-08-30T10:14:14Z</time>
      </trkpt>
      <trkpt lat="42.7903" lon="1.73529">
        <ele>907</ele>
        <time>2020-08-30T10:15:17Z</time>
      </trkpt>
      <trkpt lat="42.78991" lon="1.73416">
        <ele>909.1</ele>
        <time>2020-08-30T10:16:12Z</time>
      </trkpt>
      <trkpt lat="42.79014" lon="1.73286">
        <ele>911.6</ele>
        <time>2020-08-30T10:17:12Z</time>
      </trkpt>
      <trkpt lat="42.79023" lon="1.73163">
        <ele>913.6</ele>
        <time>2020-08-30T10:18:01Z</time>
      </trkpt>
      <trkpt lat="42.78942" lon="1.73089">
        <ele>916.1</ele>
        <time>2020-08-30T10:18:58Z</time>
      </trkpt>
      <trkpt lat="42.78915" lon="1.7295">
        <ele>920</ele>
        <time>2020-08-30T10:20:04Z</time>
      </trkpt>
      <trkpt lat="42.78938" lon="1.72801">
        <ele>922.1</ele>
        <time>2020-08-30T10:20:29Z</time>
      </trkpt>
      <trkpt lat="42.78968" lon="1.72674">
        <ele>922.9</ele>
        <time>2020-08-30T10:20:49Z</time>
      </trkpt>
      <trkpt lat="42.78997" lon="1.72553">
        <ele>923.4</ele>
        <time>2020-08-30T10:21:04Z</time>
      </trkpt>
      <trkpt lat="42.79063" lon="1.72451">
        <ele>923.3</ele>
        <time>2020-08-30T10:21:19Z</time>
      </trkpt>
      <trkpt lat="42.79126" lon="1.72329">
        <ele>921.5</ele>
        <time>2020-08-30T10:21:34Z</time>
      </trkpt>
      <trkpt lat="42.79172" lon="1.72207">
        <ele>921.3</ele>
        <time>2020-08-30T10:21:49Z</time>
      </trkpt>
      <trkpt lat="42.7925" lon="1.72148">
        <ele>919.4</ele>
        <time>2020-08-30T10:22:04Z</time>
      </trkpt>
      <trkpt lat="42.79275" lon="1.71993">
        <ele>917.1</ele>
        <time>2020-08-30T10:22:19Z</time>
      </trkpt>
      <trkpt lat="42.79296" lon="1.71832">
        <ele>914.8</ele>
        <time>2020-08-30T10:22:34Z</time>
      </trkpt>
      <trkpt lat="42.79365" lon="1.71734">
        <ele>914.6</ele>
        <time>2020-08-30T10:22:59Z</time>
      </trkpt>
      <trkpt lat="42.79448" lon="1.71685">
        <ele>914.5</ele>
        <time>2020-08-30T10:24:08Z</time>
      </trkpt>
      <trkpt lat="42.7954" lon="1.71618">
        <ele>913.5</ele>
        <time>2020-08-30T10:24:38Z</time>
      </trkpt>
      <trkpt lat="42.79627" lon="1.71578">
        <ele>911.1</ele>
        <time>2020-08-30T10:24:53Z</time>
      </trkpt>
      <trkpt lat="42.79713" lon="1.71512">
        <ele>908.8</ele>
        <time>2020-08-30T10:25:08Z</time>
      </trkpt>
      <trkpt lat="42.79829" lon="1.71579">
        <ele>899.6</ele>
        <time>2020-08-30T10:25:28Z</time>
      </trkpt>
      <trkpt lat="42.79909" lon="1.7152">
        <ele>902.7</ele>
        <time>2020-08-30T10:25:58Z</time>
      </trkpt>
      <trkpt lat="42.79891" lon="1.71395">
        <ele>906.8</ele>
        <time>2020-08-30T10:26:46Z</time>
      </trkpt>
      <trkpt lat="42.79847" lon="1.71274">
        <ele>904.8</ele>
        <time>2020-08-30T10:29:23Z</time>
      </trkpt>
      <trkpt lat="42.79823" lon="1.71141">
        <ele>908.1</ele>
        <time>2020-08-30T10:30:32Z</time>
      </trkpt>
      <trkpt lat="42.79812" lon="1.71007">
        <ele>911.1</ele>
        <time>2020-08-30T10:31:31Z</time>
      </trkpt>
      <trkpt lat="42.79846" lon="1.70887">
        <ele>913.4</ele>
        <time>2020-08-30T10:32:20Z</time>
      </trkpt>
      <trkpt lat="42.79899" lon="1.70764">
        <ele>915.4</ele>
        <time>2020-08-30T10:32:40Z</time>
      </trkpt>
      <trkpt lat="42.79976" lon="1.70646">
        <ele>913.7</ele>
        <time>2020-08-30T10:32:55Z</time>
      </trkpt>
      <trkpt lat="42.80066" lon="1.70522">
        <ele>910.1</ele>
        <time>2020-08-30T10:33:10Z</time>
      </trkpt>
      <trkpt lat="42.80119" lon="1.70418">
        <ele>907.1</ele>
        <time>2020-08-30T10:33:20Z</time>
      </trkpt>
      <trkpt lat="42.80186" lon="1.70332">
        <ele>904.7</ele>
        <time>2020-08-30T10:33:40Z</time>
      </trkpt>
      <trkpt lat="42.8025" lon="1.70241">
        <ele>901.5</ele>
        <time>2020-08-30T10:34:28Z</time>
      </trkpt>
      <trkpt lat="42.80336" lon="1.70179">
        <ele>898.5</ele>
        <time>2020-08-30T10:35:14Z</time>
      </trkpt>
      <trkpt lat="42.80426" lon="1.70133">
        <ele>897.6</ele>
        <time>2020-08-30T11:07:12Z</time>
      </trkpt>
      <trkpt lat="42.80522" lon="1.70118">
        <ele>897.5</ele>
        <time>2020-08-30T11:07:32Z</time>
      </trkpt>
      <trkpt lat="42.80615" lon="1.70099">
        <ele>897.5</ele>
        <time>2020-08-30T11:07:57Z</time>
      </trkpt>
      <trkpt lat="42.80712" lon="1.70098">
        <ele>897.4</ele>
        <time>2020-08-30T11:08:37Z</time>
      </trkpt>
      <trkpt lat="42.80801" lon="1.70124">
        <ele>897.3</ele>
        <time>2020-08-30T11:09:21Z</time>
      </trkpt>
      <trkpt lat="42.80896" lon="1.70206">
        <ele>897.1</ele>
        <time>2020-08-30T11:09:36Z</time>
      </trkpt>
      <trkpt lat="42.81005" lon="1.70229">
        <ele>897.6</ele>
        <time>2020-08-30T11:09:51Z</time>
      </trkpt>
      <trkpt lat="42.81026" lon="1.70099">
        <ele>893.4</ele>
        <time>2020-08-30T11:10:20Z</time>
      </trkpt>
      <trkpt lat="42.81012" lon="1.69967">
        <ele>890.8</ele>
        <time>2020-08-30T11:11:20Z</time>
      </trkpt>
      <trkpt lat="42.81032" lon="1.69826">
        <ele>894.9</ele>
        <time>2020-08-30T11:12:47Z</time>
      </trkpt>
      <trkpt lat="42.81087" lon="1.69703">
        <ele>890.2</ele>
        <time>2020-08-30T11:13:07Z</time>
      </trkpt>
      <trkpt lat="42.81168" lon="1.69638">
        <ele>887</ele>
        <time>2020-08-30T11:13:27Z</time>
      </trkpt>
      <trkpt lat="42.81252" lon="1.69571">
        <ele>886.6</ele>
        <time>2020-08-30T11:13:57Z</time>
      </trkpt>
      <trkpt lat="42.81352" lon="1.69505">
        <ele>887.6</ele>
        <time>2020-08-30T11:14:27Z</time>
      </trkpt>
      <trkpt lat="42.81431" lon="1.69431">
        <ele>885.8</ele>
        <time>2020-08-30T11:14:47Z</time>
      </trkpt>
      <trkpt lat="42.81494" lon="1.69335">
        <ele>886</ele>
        <time>2020-08-30T11:15:12Z</time>
      </trkpt>
      <trkpt lat="42.81565" lon="1.69261">
        <ele>886.3</ele>
        <time>2020-08-30T11:15:37Z</time>
      </trkpt>
      <trkpt lat="42.81622" lon="1.69159">
        <ele>886.5</ele>
        <time>2020-08-30T11:16:02Z</time>
      </trkpt>
      <trkpt lat="42.81681" lon="1.69041">
        <ele>886</ele>
        <time>2020-08-30T11:16:27Z</time>
      </trkpt>
      <trkpt lat="42.81751" lon="1.68961">
        <ele>885.9</ele>
        <time>2020-08-30T11:16:57Z</time>
      </trkpt>
      <trkpt lat="42.81833" lon="1.68883">
        <ele>885.9</ele>
        <time>2020-08-30T11:17:42Z</time>
      </trkpt>
      <trkpt lat="42.81901" lon="1.68804">
        <ele>886.4</ele>
        <time>2020-08-30T11:18:22Z</time>
      </trkpt>
      <trkpt lat="42.81954" lon="1.68697">
        <ele>886.7</ele>
        <time>2020-08-30T11:19:07Z</time>
      </trkpt>
      <trkpt lat="42.82018" lon="1.68609">
        <ele>887</ele>
        <time>2020-08-30T11:19:52Z</time>
      </trkpt>
      <trkpt lat="42.8208" lon="1.6852">
        <ele>887.8</ele>
        <time>2020-08-30T11:20:39Z</time>
      </trkpt>
      <trkpt lat="42.82137" lon="1.68421">
        <ele>888.8</ele>
        <time>2020-08-30T11:21:24Z</time>
      </trkpt>
      <trkpt lat="42.82211" lon="1.68345">
        <ele>890.2</ele>
        <time>2020-08-30T11:22:10Z</time>
      </trkpt>
      <trkpt lat="42.823" lon="1.68277">
        <ele>893</ele>
        <time>2020-08-30T11:22:45Z</time>
      </trkpt>
      <trkpt lat="42.82381" lon="1.68212">
        <ele>893.8</ele>
        <time>2020-08-30T11:23:05Z</time>
      </trkpt>
      <trkpt lat="42.8246" lon="1.6814">
        <ele>894.2</ele>
        <time>2020-08-30T11:23:25Z</time>
      </trkpt>
      <trkpt lat="42.82557" lon="1.68051">
        <ele>894.6</ele>
        <time>2020-08-30T11:23:45Z</time>
      </trkpt>
      <trkpt lat="42.8266" lon="1.67955">
        <ele>893.3</ele>
        <time>2020-08-30T11:24:00Z</time>
      </trkpt>
      <trkpt lat="42.82761" lon="1.67874">
        <ele>891.6</ele>
        <time>2020-08-30T11:24:15Z</time>
      </trkpt>
      <trkpt lat="42.82848" lon="1.67789">
        <ele>889.2</ele>
        <time>2020-08-30T11:24:30Z</time>
      </trkpt>
      <trkpt lat="42.82946" lon="1.67693">
        <ele>881</ele>
        <time>2020-08-30T11:24:45Z</time>
      </trkpt>
      <trkpt lat="42.83046" lon="1.67604">
        <ele>876.9</ele>
        <time>2020-08-30T11:25:00Z</time>
      </trkpt>
      <trkpt lat="42.83138" lon="1.67559">
        <ele>873.1</ele>
        <time>2020-08-30T11:25:15Z</time>
      </trkpt>
      <trkpt lat="42.83229" lon="1.67517">
        <ele>867.8</ele>
        <time>2020-08-30T11:25:35Z</time>
      </trkpt>
      <trkpt lat="42.83332" lon="1.67459">
        <ele>865.8</ele>
        <time>2020-08-30T11:25:50Z</time>
      </trkpt>
      <trkpt lat="42.83433" lon="1.67395">
        <ele>865.7</ele>
        <time>2020-08-30T11:26:05Z</time>
      </trkpt>
      <trkpt lat="42.83527" lon="1.67327">
        <ele>867.2</ele>
        <time>2020-08-30T11:26:30Z</time>
      </trkpt>
      <trkpt lat="42.83624" lon="1.67275">
        <ele>861.6</ele>
        <time>2020-08-30T11:26:55Z</time>
      </trkpt>
      <trkpt lat="42.837" lon="1.6721">
        <ele>859.7</ele>
        <time>2020-08-30T11:27:20Z</time>
      </trkpt>
      <trkpt lat="42.83799" lon="1.67205">
        <ele>859.2</ele>
        <time>2020-08-30T11:28:20Z</time>
      </trkpt>
      <trkpt lat="42.83894" lon="1.67218">
        <ele>860.7</ele>
        <time>2020-08-30T11:28:50Z</time>
      </trkpt>
      <trkpt lat="42.83985" lon="1.67203">
        <ele>859.6</ele>
        <time>2020-08-30T11:29:10Z</time>
      </trkpt>
      <trkpt lat="42.84044" lon="1.67094">
        <ele>861.6</ele>
        <time>2020-08-30T11:30:10Z</time>
      </trkpt>
      <trkpt lat="42.84098" lon="1.66985">
        <ele>861.1</ele>
        <time>2020-08-30T11:30:30Z</time>
      </trkpt>
      <trkpt lat="42.84192" lon="1.66915">
        <ele>856.6</ele>
        <time>2020-08-30T11:30:40Z</time>
      </trkpt>
      <trkpt lat="42.84279" lon="1.6683">
        <ele>851.1</ele>
        <time>2020-08-30T11:30:50Z</time>
      </trkpt>
      <trkpt lat="42.84371" lon="1.6676">
        <ele>846</ele>
        <time>2020-08-30T11:31:00Z</time>
      </trkpt>
      <trkpt lat="42.8448" lon="1.66688">
        <ele>837.5</ele>
        <time>2020-08-30T11:31:10Z</time>
      </trkpt>
      <trkpt lat="42.84365" lon="1.66659">
        <ele>814.3</ele>
        <time>2020-08-30T11:31:40Z</time>
      </trkpt>
      <trkpt lat="42.84269" lon="1.6663">
        <ele>796.7</ele>
        <time>2020-08-30T11:31:50Z</time>
      </trkpt>
      <trkpt lat="42.84324" lon="1.66482">
        <ele>781.1</ele>
        <time>2020-08-30T11:32:05Z</time>
      </trkpt>
      <trkpt lat="42.84362" lon="1.66366">
        <ele>772.7</ele>
        <time>2020-08-30T11:32:15Z</time>
      </trkpt>
      <trkpt lat="42.84366" lon="1.66231">
        <ele>753.4</ele>
        <time>2020-08-30T11:32:40Z</time>
      </trkpt>
      <trkpt lat="42.84445" lon="1.66146">
        <ele>742.4</ele>
        <time>2020-08-30T11:32:50Z</time>
      </trkpt>
      <trkpt lat="42.84548" lon="1.66104">
        <ele>735.3</ele>
        <time>2020-08-30T11:33:00Z</time>
      </trkpt>
      <trkpt lat="42.8467" lon="1.6604">
        <ele>728</ele>
        <time>2020-08-30T11:33:15Z</time>
      </trkpt>
      <trkpt lat="42.8477" lon="1.6594">
        <ele>715.2</ele>
        <time>2020-08-30T11:33:30Z</time>
      </trkpt>
      <trkpt lat="42.84856" lon="1.65818">
        <ele>705.4</ele>
        <time>2020-08-30T11:33:45Z</time>
      </trkpt>
      <trkpt lat="42.84924" lon="1.65726">
        <ele>696.3</ele>
        <time>2020-08-30T11:33:55Z</time>
      </trkpt>
      <trkpt lat="42.84963" lon="1.65563">
        <ele>685.5</ele>
        <time>2020-08-30T11:34:10Z</time>
      </trkpt>
      <trkpt lat="42.84939" lon="1.65376">
        <ele>673.3</ele>
        <time>2020-08-30T11:34:25Z</time>
      </trkpt>
      <trkpt lat="42.84873" lon="1.65257">
        <ele>664.3</ele>
        <time>2020-08-30T11:34:35Z</time>
      </trkpt>
      <trkpt lat="42.84777" lon="1.65172">
        <ele>656.1</ele>
        <time>2020-08-30T11:34:45Z</time>
      </trkpt>
      <trkpt lat="42.84673" lon="1.65118">
        <ele>644.9</ele>
        <time>2020-08-30T11:34:55Z</time>
      </trkpt>
      <trkpt lat="42.84752" lon="1.64988">
        <ele>631.2</ele>
        <time>2020-08-30T11:35:15Z</time>
      </trkpt>
      <trkpt lat="42.84857" lon="1.64924">
        <ele>625.9</ele>
        <time>2020-08-30T11:35:25Z</time>
      </trkpt>
      <trkpt lat="42.84966" lon="1.6487">
        <ele>612.4</ele>
        <time>2020-08-30T11:35:35Z</time>
      </trkpt>
      <trkpt lat="42.8508" lon="1.64838">
        <ele>602.3</ele>
        <time>2020-08-30T11:35:45Z</time>
      </trkpt>
      <trkpt lat="42.8518" lon="1.64811">
        <ele>594.9</ele>
        <time>2020-08-30T11:35:55Z</time>
      </trkpt>
      <trkpt lat="42.85292" lon="1.64785">
        <ele>580.1</ele>
        <time>2020-08-30T11:36:10Z</time>
      </trkpt>
      <trkpt lat="42.85374" lon="1.64691">
        <ele>568</ele>
        <time>2020-08-30T11:36:45Z</time>
      </trkpt>
      <trkpt lat="42.85386" lon="1.64546">
        <ele>562.9</ele>
        <time>2020-08-30T11:36:59Z</time>
      </trkpt>
      <trkpt lat="42.85439" lon="1.6439">
        <ele>559.4</ele>
        <time>2020-08-30T11:37:14Z</time>
      </trkpt>
      <trkpt lat="42.85492" lon="1.64289">
        <ele>556.5</ele>
        <time>2020-08-30T11:37:24Z</time>
      </trkpt>
      <trkpt lat="42.8552" lon="1.64129">
        <ele>552.8</ele>
        <time>2020-08-30T11:37:39Z</time>
      </trkpt>
      <trkpt lat="42.85581" lon="1.64019">
        <ele>547.5</ele>
        <time>2020-08-30T11:37:54Z</time>
      </trkpt>
      <trkpt lat="42.85666" lon="1.63961">
        <ele>544.3</ele>
        <time>2020-08-30T11:38:09Z</time>
      </trkpt>
      <trkpt lat="42.85705" lon="1.63849">
        <ele>541.6</ele>
        <time>2020-08-30T11:38:24Z</time>
      </trkpt>
      <trkpt lat="42.8576" lon="1.63726">
        <ele>537.6</ele>
        <time>2020-08-30T11:38:44Z</time>
      </trkpt>
      <trkpt lat="42.85798" lon="1.63613">
        <ele>535.1</ele>
        <time>2020-08-30T11:38:59Z</time>
      </trkpt>
      <trkpt lat="42.85847" lon="1.63503">
        <ele>532.1</ele>
        <time>2020-08-30T11:39:14Z</time>
      </trkpt>
      <trkpt lat="42.85891" lon="1.63391">
        <ele>529.6</ele>
        <time>2020-08-30T11:39:29Z</time>
      </trkpt>
      <trkpt lat="42.85953" lon="1.63303">
        <ele>526.1</ele>
        <time>2020-08-30T11:39:44Z</time>
      </trkpt>
      <trkpt lat="42.85998" lon="1.63175">
        <ele>525.1</ele>
        <time>2020-08-30T11:40:04Z</time>
      </trkpt>
      <trkpt lat="42.86028" lon="1.63055">
        <ele>522.5</ele>
        <time>2020-08-30T11:40:19Z</time>
      </trkpt>
      <trkpt lat="42.86077" lon="1.6294">
        <ele>519.6</ele>
        <time>2020-08-30T11:40:34Z</time>
      </trkpt>
      <trkpt lat="42.86106" lon="1.62816">
        <ele>517.7</ele>
        <time>2020-08-30T11:40:49Z</time>
      </trkpt>
      <trkpt lat="42.86161" lon="1.62718">
        <ele>514.8</ele>
        <time>2020-08-30T11:41:04Z</time>
      </trkpt>
      <trkpt lat="42.86227" lon="1.62608">
        <ele>511.1</ele>
        <time>2020-08-30T11:41:24Z</time>
      </trkpt>
      <trkpt lat="42.86284" lon="1.62485">
        <ele>508.2</ele>
        <time>2020-08-30T11:41:44Z</time>
      </trkpt>
      <trkpt lat="42.86336" lon="1.62364">
        <ele>505.5</ele>
        <time>2020-08-30T11:42:04Z</time>
      </trkpt>
      <trkpt lat="42.8639" lon="1.62222">
        <ele>503.5</ele>
        <time>2020-08-30T11:42:24Z</time>
      </trkpt>
      <trkpt lat="42.86462" lon="1.62122">
        <ele>501.7</ele>
        <time>2020-08-30T11:42:39Z</time>
      </trkpt>
      <trkpt lat="42.86508" lon="1.62002">
        <ele>500.4</ele>
        <time>2020-08-30T11:42:54Z</time>
      </trkpt>
      <trkpt lat="42.86564" lon="1.61907">
        <ele>499.4</ele>
        <time>2020-08-30T11:43:09Z</time>
      </trkpt>
      <trkpt lat="42.86636" lon="1.61792">
        <ele>497.6</ele>
        <time>2020-08-30T11:43:29Z</time>
      </trkpt>
      <trkpt lat="42.86683" lon="1.61683">
        <ele>493.8</ele>
        <time>2020-08-30T11:43:49Z</time>
      </trkpt>
      <trkpt lat="42.86775" lon="1.61764">
        <ele>487.2</ele>
        <time>2020-08-30T11:44:14Z</time>
      </trkpt>
      <trkpt lat="42.86731" lon="1.61612">
        <ele>481.1</ele>
        <time>2020-08-30T11:44:49Z</time>
      </trkpt>
      <trkpt lat="42.86648" lon="1.6152">
        <ele>478.1</ele>
        <time>2020-08-30T11:45:04Z</time>
      </trkpt>
      <trkpt lat="42.86588" lon="1.61389">
        <ele>475</ele>
        <time>2020-08-30T11:45:19Z</time>
      </trkpt>
      <trkpt lat="42.86536" lon="1.61255">
        <ele>473.8</ele>
        <time>2020-08-30T11:45:34Z</time>
      </trkpt>
      <trkpt lat="42.86507" lon="1.61138">
        <ele>473.2</ele>
        <time>2020-08-30T11:45:49Z</time>
      </trkpt>
      <trkpt lat="42.86477" lon="1.61012">
        <ele>471.7</ele>
        <time>2020-08-30T11:46:09Z</time>
      </trkpt>
      <trkpt lat="42.86448" lon="1.60884">
        <ele>470</ele>
        <time>2020-08-30T11:46:34Z</time>
      </trkpt>
      <trkpt lat="42.86417" lon="1.60753">
        <ele>469.3</ele>
        <time>2020-08-30T11:47:09Z</time>
      </trkpt>
      <trkpt lat="42.86365" lon="1.60645">
        <ele>468.2</ele>
        <time>2020-08-30T11:47:49Z</time>
      </trkpt>
      <trkpt lat="42.86306" lon="1.60549">
        <ele>467.6</ele>
        <time>2020-08-30T11:48:24Z</time>
      </trkpt>
      <trkpt lat="42.86222" lon="1.60476">
        <ele>468.1</ele>
        <time>2020-08-30T11:48:59Z</time>
      </trkpt>
      <trkpt lat="42.86127" lon="1.60415">
        <ele>469.1</ele>
        <time>2020-08-30T11:49:24Z</time>
      </trkpt>
      <trkpt lat="42.86034" lon="1.60319">
        <ele>468.9</ele>
        <time>2020-08-30T11:49:45Z</time>
      </trkpt>
      <trkpt lat="42.85946" lon="1.60237">
        <ele>467.8</ele>
        <time>2020-08-30T11:50:00Z</time>
      </trkpt>
      <trkpt lat="42.85854" lon="1.60187">
        <ele>465.7</ele>
        <time>2020-08-30T11:52:12Z</time>
      </trkpt>
      <trkpt lat="42.85753" lon="1.60153">
        <ele>463.4</ele>
        <time>2020-08-30T11:52:42Z</time>
      </trkpt>
      <trkpt lat="42.8566" lon="1.60117">
        <ele>460.6</ele>
        <time>2020-08-30T11:53:07Z</time>
      </trkpt>
      <trkpt lat="42.85569" lon="1.60142">
        <ele>460</ele>
        <time>2020-08-30T11:53:32Z</time>
      </trkpt>
      <trkpt lat="42.85472" lon="1.60195">
        <ele>459.5</ele>
        <time>2020-08-30T11:54:02Z</time>
      </trkpt>
      <trkpt lat="42.85388" lon="1.60246">
        <ele>459.6</ele>
        <time>2020-08-30T11:54:27Z</time>
      </trkpt>
      <trkpt lat="42.85289" lon="1.60298">
        <ele>460</ele>
        <time>2020-08-30T11:54:57Z</time>
      </trkpt>
      <trkpt lat="42.85192" lon="1.60347">
        <ele>460.9</ele>
        <time>2020-08-30T11:55:27Z</time>
      </trkpt>
      <trkpt lat="42.85105" lon="1.60393">
        <ele>461.8</ele>
        <time>2020-08-30T11:55:57Z</time>
      </trkpt>
      <trkpt lat="42.85008" lon="1.6044">
        <ele>462.9</ele>
        <time>2020-08-30T11:56:32Z</time>
      </trkpt>
      <trkpt lat="42.84924" lon="1.60482">
        <ele>463.6</ele>
        <time>2020-08-30T11:57:02Z</time>
      </trkpt>
      <trkpt lat="42.84834" lon="1.60526">
        <ele>464.3</ele>
        <time>2020-08-30T11:57:37Z</time>
      </trkpt>
    </trkseg>
  </trk>
  <trk>
    <name><![CDATA[route118]]></name>
    <trkseg>
      <trkpt lat="42.84749" lon="1.60575">
        <ele>491.7</ele>
        <time>2020-08-31T06:03:36Z</time>
      </trkpt>
      <trkpt lat="42.84722" lon="1.60452">
        <ele>482.6</ele>
        <time>2020-08-31T06:04:16Z</time>
      </trkpt>
      <trkpt lat="42.84768" lon="1.60339">
        <ele>477.8</ele>
        <time>2020-08-31T06:04:36Z</time>
      </trkpt>
      <trkpt lat="42.8468" lon="1.60285">
        <ele>475.8</ele>
        <time>2020-08-31T06:05:06Z</time>
      </trkpt>
      <trkpt lat="42.84591" lon="1.60253">
        <ele>475.1</ele>
        <time>2020-08-31T06:05:41Z</time>
      </trkpt>
      <trkpt lat="42.84542" lon="1.60136">
        <ele>477.1</ele>
        <time>2020-08-31T06:06:37Z</time>
      </trkpt>
      <trkpt lat="42.84609" lon="1.60049">
        <ele>478.6</ele>
        <time>2020-08-31T06:08:04Z</time>
      </trkpt>
      <trkpt lat="42.84718" lon="1.59991">
        <ele>478.6</ele>
        <time>2020-08-31T06:09:21Z</time>
      </trkpt>
      <trkpt lat="42.84827" lon="1.59973">
        <ele>478.2</ele>
        <time>2020-08-31T06:09:41Z</time>
      </trkpt>
      <trkpt lat="42.84922" lon="1.59959">
        <ele>475.7</ele>
        <time>2020-08-31T06:10:01Z</time>
      </trkpt>
      <trkpt lat="42.85015" lon="1.59931">
        <ele>475</ele>
        <time>2020-08-31T06:10:21Z</time>
      </trkpt>
      <trkpt lat="42.85043" lon="1.59812">
        <ele>474.5</ele>
        <time>2020-08-31T06:10:51Z</time>
      </trkpt>
      <trkpt lat="42.85085" lon="1.5969">
        <ele>474.6</ele>
        <time>2020-08-31T06:11:31Z</time>
      </trkpt>
      <trkpt lat="42.85122" lon="1.59579">
        <ele>475.6</ele>
        <time>2020-08-31T06:12:06Z</time>
      </trkpt>
      <trkpt lat="42.85166" lon="1.59459">
        <ele>477.5</ele>
        <time>2020-08-31T06:12:46Z</time>
      </trkpt>
      <trkpt lat="42.85207" lon="1.59349">
        <ele>480.2</ele>
        <time>2020-08-31T06:13:35Z</time>
      </trkpt>
      <trkpt lat="42.85247" lon="1.59236">
        <ele>483.1</ele>
        <time>2020-08-31T06:14:22Z</time>
      </trkpt>
      <trkpt lat="42.85324" lon="1.59143">
        <ele>487.2</ele>
        <time>2020-08-31T06:14:57Z</time>
      </trkpt>
      <trkpt lat="42.85315" lon="1.59005">
        <ele>487.8</ele>
        <time>2020-08-31T06:15:27Z</time>
      </trkpt>
      <trkpt lat="42.85364" lon="1.58891">
        <ele>488.5</ele>
        <time>2020-08-31T06:16:02Z</time>
      </trkpt>
      <trkpt lat="42.85406" lon="1.58768">
        <ele>489.4</ele>
        <time>2020-08-31T06:16:47Z</time>
      </trkpt>
      <trkpt lat="42.85453" lon="1.58639">
        <ele>490.5</ele>
        <time>2020-08-31T06:17:17Z</time>
      </trkpt>
      <trkpt lat="42.85519" lon="1.58532">
        <ele>490.6</ele>
        <time>2020-08-31T06:17:47Z</time>
      </trkpt>
      <trkpt lat="42.85592" lon="1.58438">
        <ele>490.8</ele>
        <time>2020-08-31T06:18:17Z</time>
      </trkpt>
      <trkpt lat="42.85665" lon="1.58366">
        <ele>491.1</ele>
        <time>2020-08-31T06:18:57Z</time>
      </trkpt>
      <trkpt lat="42.85754" lon="1.58314">
        <ele>492.7</ele>
        <time>2020-08-31T06:20:02Z</time>
      </trkpt>
      <trkpt lat="42.85803" lon="1.582">
        <ele>495.1</ele>
        <time>2020-08-31T06:21:02Z</time>
      </trkpt>
      <trkpt lat="42.85851" lon="1.58086">
        <ele>498.1</ele>
        <time>2020-08-31T06:22:05Z</time>
      </trkpt>
      <trkpt lat="42.85866" lon="1.57958">
        <ele>501.1</ele>
        <time>2020-08-31T06:23:05Z</time>
      </trkpt>
      <trkpt lat="42.85879" lon="1.57829">
        <ele>503.7</ele>
        <time>2020-08-31T06:24:06Z</time>
      </trkpt>
      <trkpt lat="42.8588" lon="1.57702">
        <ele>507.4</ele>
        <time>2020-08-31T06:25:11Z</time>
      </trkpt>
      <trkpt lat="42.85958" lon="1.5763">
        <ele>511.5</ele>
        <time>2020-08-31T06:26:12Z</time>
      </trkpt>
      <trkpt lat="42.86044" lon="1.57581">
        <ele>515.8</ele>
        <time>2020-08-31T06:27:12Z</time>
      </trkpt>
      <trkpt lat="42.86112" lon="1.57493">
        <ele>520.8</ele>
        <time>2020-08-31T06:28:13Z</time>
      </trkpt>
      <trkpt lat="42.86171" lon="1.57391">
        <ele>526.5</ele>
        <time>2020-08-31T06:29:13Z</time>
      </trkpt>
      <trkpt lat="42.8622" lon="1.5728">
        <ele>532.6</ele>
        <time>2020-08-31T06:30:14Z</time>
      </trkpt>
      <trkpt lat="42.86296" lon="1.57197">
        <ele>542.2</ele>
        <time>2020-08-31T06:31:15Z</time>
      </trkpt>
      <trkpt lat="42.86363" lon="1.57099">
        <ele>555.9</ele>
        <time>2020-08-31T06:32:16Z</time>
      </trkpt>
      <trkpt lat="42.86446" lon="1.57032">
        <ele>566.4</ele>
        <time>2020-08-31T06:33:19Z</time>
      </trkpt>
      <trkpt lat="42.86537" lon="1.56986">
        <ele>573.2</ele>
        <time>2020-08-31T06:34:19Z</time>
      </trkpt>
      <trkpt lat="42.86627" lon="1.56938">
        <ele>578.1</ele>
        <time>2020-08-31T06:35:19Z</time>
      </trkpt>
      <trkpt lat="42.86714" lon="1.56876">
        <ele>582.1</ele>
        <time>2020-08-31T06:36:19Z</time>
      </trkpt>
      <trkpt lat="42.86806" lon="1.56835">
        <ele>585.5</ele>
        <time>2020-08-31T06:37:20Z</time>
      </trkpt>
      <trkpt lat="42.86896" lon="1.56831">
        <ele>588.4</ele>
        <time>2020-08-31T06:38:17Z</time>
      </trkpt>
      <trkpt lat="42.86994" lon="1.56814">
        <ele>591.2</ele>
        <time>2020-08-31T06:39:17Z</time>
      </trkpt>
      <trkpt lat="42.87085" lon="1.56769">
        <ele>594</ele>
        <time>2020-08-31T06:40:20Z</time>
      </trkpt>
      <trkpt lat="42.87132" lon="1.56658">
        <ele>598.4</ele>
        <time>2020-08-31T06:41:25Z</time>
      </trkpt>
      <trkpt lat="42.87161" lon="1.56536">
        <ele>602.8</ele>
        <time>2020-08-31T06:42:25Z</time>
      </trkpt>
      <trkpt lat="42.87238" lon="1.56471">
        <ele>606.4</ele>
        <time>2020-08-31T06:43:14Z</time>
      </trkpt>
      <trkpt lat="42.87321" lon="1.56409">
        <ele>609.3</ele>
        <time>2020-08-31T06:43:54Z</time>
      </trkpt>
      <trkpt lat="42.87373" lon="1.56296">
        <ele>614</ele>
        <time>2020-08-31T06:44:52Z</time>
      </trkpt>
      <trkpt lat="42.87419" lon="1.56182">
        <ele>618.5</ele>
        <time>2020-08-31T06:45:27Z</time>
      </trkpt>
      <trkpt lat="42.87474" lon="1.56071">
        <ele>626.5</ele>
        <time>2020-08-31T06:46:29Z</time>
      </trkpt>
      <trkpt lat="42.87504" lon="1.55945">
        <ele>632.2</ele>
        <time>2020-08-31T06:47:21Z</time>
      </trkpt>
      <trkpt lat="42.87501" lon="1.55809">
        <ele>637.8</ele>
        <time>2020-08-31T06:47:41Z</time>
      </trkpt>
      <trkpt lat="42.87502" lon="1.5564">
        <ele>636.4</ele>
        <time>2020-08-31T06:47:56Z</time>
      </trkpt>
      <trkpt lat="42.87525" lon="1.55484">
        <ele>634.1</ele>
        <time>2020-08-31T06:48:11Z</time>
      </trkpt>
      <trkpt lat="42.87525" lon="1.5531">
        <ele>631.5</ele>
        <time>2020-08-31T06:48:26Z</time>
      </trkpt>
      <trkpt lat="42.87546" lon="1.55134">
        <ele>629</ele>
        <time>2020-08-31T06:48:41Z</time>
      </trkpt>
      <trkpt lat="42.87591" lon="1.55016">
        <ele>631.3</ele>
        <time>2020-08-31T06:48:51Z</time>
      </trkpt>
      <trkpt lat="42.87686" lon="1.54956">
        <ele>632</ele>
        <time>2020-08-31T06:49:06Z</time>
      </trkpt>
      <trkpt lat="42.8776" lon="1.5488">
        <ele>631.1</ele>
        <time>2020-08-31T06:49:57Z</time>
      </trkpt>
      <trkpt lat="42.87822" lon="1.54778">
        <ele>631.2</ele>
        <time>2020-08-31T06:51:00Z</time>
      </trkpt>
      <trkpt lat="42.87895" lon="1.5469">
        <ele>634</ele>
        <time>2020-08-31T06:52:08Z</time>
      </trkpt>
      <trkpt lat="42.87981" lon="1.54625">
        <ele>639.9</ele>
        <time>2020-08-31T06:53:18Z</time>
      </trkpt>
      <trkpt lat="42.88009" lon="1.545">
        <ele>644.7</ele>
        <time>2020-08-31T06:54:18Z</time>
      </trkpt>
      <trkpt lat="42.87994" lon="1.54369">
        <ele>650.4</ele>
        <time>2020-08-31T06:55:22Z</time>
      </trkpt>
      <trkpt lat="42.87932" lon="1.54264">
        <ele>655.9</ele>
        <time>2020-08-31T06:56:21Z</time>
      </trkpt>
      <trkpt lat="42.87883" lon="1.54139">
        <ele>658.1</ele>
        <time>2020-08-31T06:56:56Z</time>
      </trkpt>
      <trkpt lat="42.87859" lon="1.53999">
        <ele>659.1</ele>
        <time>2020-08-31T06:57:31Z</time>
      </trkpt>
      <trkpt lat="42.87837" lon="1.53878">
        <ele>661.2</ele>
        <time>2020-08-31T06:57:56Z</time>
      </trkpt>
      <trkpt lat="42.87829" lon="1.53735">
        <ele>662.5</ele>
        <time>2020-08-31T06:58:21Z</time>
      </trkpt>
      <trkpt lat="42.8783" lon="1.53607">
        <ele>663.6</ele>
        <time>2020-08-31T06:58:46Z</time>
      </trkpt>
      <trkpt lat="42.87832" lon="1.53479">
        <ele>664.9</ele>
        <time>2020-08-31T06:59:16Z</time>
      </trkpt>
      <trkpt lat="42.87849" lon="1.53351">
        <ele>666.9</ele>
        <time>2020-08-31T06:59:51Z</time>
      </trkpt>
      <trkpt lat="42.87865" lon="1.53218">
        <ele>668.9</ele>
        <time>2020-08-31T07:00:26Z</time>
      </trkpt>
      <trkpt lat="42.87843" lon="1.53074">
        <ele>670.6</ele>
        <time>2020-08-31T07:01:01Z</time>
      </trkpt>
      <trkpt lat="42.87815" lon="1.5294">
        <ele>671.9</ele>
        <time>2020-08-31T07:01:31Z</time>
      </trkpt>
      <trkpt lat="42.87814" lon="1.52808">
        <ele>673</ele>
        <time>2020-08-31T07:02:01Z</time>
      </trkpt>
      <trkpt lat="42.87838" lon="1.52679">
        <ele>674.5</ele>
        <time>2020-08-31T07:02:36Z</time>
      </trkpt>
      <trkpt lat="42.8786" lon="1.52558">
        <ele>676</ele>
        <time>2020-08-31T07:03:11Z</time>
      </trkpt>
      <trkpt lat="42.87885" lon="1.52438">
        <ele>677.4</ele>
        <time>2020-08-31T07:03:46Z</time>
      </trkpt>
      <trkpt lat="42.87911" lon="1.52308">
        <ele>679</ele>
        <time>2020-08-31T07:04:26Z</time>
      </trkpt>
      <trkpt lat="42.87938" lon="1.52179">
        <ele>681.4</ele>
        <time>2020-08-31T07:05:22Z</time>
      </trkpt>
      <trkpt lat="42.87965" lon="1.52049">
        <ele>684.1</ele>
        <time>2020-08-31T07:08:12Z</time>
      </trkpt>
      <trkpt lat="42.87983" lon="1.51926">
        <ele>685.6</ele>
        <time>2020-08-31T07:09:02Z</time>
      </trkpt>
      <trkpt lat="42.88013" lon="1.51804">
        <ele>687.8</ele>
        <time>2020-08-31T07:10:01Z</time>
      </trkpt>
      <trkpt lat="42.88039" lon="1.51685">
        <ele>690.6</ele>
        <time>2020-08-31T07:11:09Z</time>
      </trkpt>
      <trkpt lat="42.88019" lon="1.5156">
        <ele>693.5</ele>
        <time>2020-08-31T07:12:21Z</time>
      </trkpt>
      <trkpt lat="42.88034" lon="1.51433">
        <ele>696.9</ele>
        <time>2020-08-31T07:13:26Z</time>
      </trkpt>
      <trkpt lat="42.88073" lon="1.51312">
        <ele>703.9</ele>
        <time>2020-08-31T07:14:30Z</time>
      </trkpt>
      <trkpt lat="42.88084" lon="1.51179">
        <ele>716.2</ele>
        <time>2020-08-31T07:15:38Z</time>
      </trkpt>
      <trkpt lat="42.88084" lon="1.51048">
        <ele>726.5</ele>
        <time>2020-08-31T07:16:45Z</time>
      </trkpt>
      <trkpt lat="42.88101" lon="1.50919">
        <ele>734.6</ele>
        <time>2020-08-31T07:17:51Z</time>
      </trkpt>
      <trkpt lat="42.88077" lon="1.50791">
        <ele>740.8</ele>
        <time>2020-08-31T07:18:52Z</time>
      </trkpt>
      <trkpt lat="42.88065" lon="1.50659">
        <ele>748.2</ele>
        <time>2020-08-31T07:19:56Z</time>
      </trkpt>
      <trkpt lat="42.8805" lon="1.50535">
        <ele>757.1</ele>
        <time>2020-08-31T07:20:59Z</time>
      </trkpt>
      <trkpt lat="42.88074" lon="1.50414">
        <ele>763.9</ele>
        <time>2020-08-31T07:22:02Z</time>
      </trkpt>
      <trkpt lat="42.88154" lon="1.50342">
        <ele>770.1</ele>
        <time>2020-08-31T07:23:12Z</time>
      </trkpt>
      <trkpt lat="42.88231" lon="1.50267">
        <ele>776.4</ele>
        <time>2020-08-31T07:24:15Z</time>
      </trkpt>
      <trkpt lat="42.88166" lon="1.50175">
        <ele>784.6</ele>
        <time>2020-08-31T07:25:49Z</time>
      </trkpt>
      <trkpt lat="42.88076" lon="1.50116">
        <ele>791.8</ele>
        <time>2020-08-31T07:27:01Z</time>
      </trkpt>
      <trkpt lat="42.88003" lon="1.50038">
        <ele>798.4</ele>
        <time>2020-08-31T07:28:07Z</time>
      </trkpt>
      <trkpt lat="42.88092" lon="1.50059">
        <ele>815.8</ele>
        <time>2020-08-31T07:33:43Z</time>
      </trkpt>
      <trkpt lat="42.88177" lon="1.50001">
        <ele>823.6</ele>
        <time>2020-08-31T07:34:56Z</time>
      </trkpt>
      <trkpt lat="42.8827" lon="1.49967">
        <ele>828.8</ele>
        <time>2020-08-31T07:36:04Z</time>
      </trkpt>
      <trkpt lat="42.88345" lon="1.49888">
        <ele>834.8</ele>
        <time>2020-08-31T07:37:08Z</time>
      </trkpt>
      <trkpt lat="42.88394" lon="1.49774">
        <ele>842.6</ele>
        <time>2020-08-31T07:38:17Z</time>
      </trkpt>
      <trkpt lat="42.88394" lon="1.49648">
        <ele>850.6</ele>
        <time>2020-08-31T07:39:28Z</time>
      </trkpt>
      <trkpt lat="42.88459" lon="1.49554">
        <ele>869.2</ele>
        <time>2020-08-31T07:41:20Z</time>
      </trkpt>
      <trkpt lat="42.8855" lon="1.49576">
        <ele>879.2</ele>
        <time>2020-08-31T07:42:30Z</time>
      </trkpt>
      <trkpt lat="42.8863" lon="1.49501">
        <ele>894</ele>
        <time>2020-08-31T07:43:50Z</time>
      </trkpt>
      <trkpt lat="42.88697" lon="1.49407">
        <ele>907</ele>
        <time>2020-08-31T07:44:59Z</time>
      </trkpt>
      <trkpt lat="42.8873" lon="1.49286">
        <ele>917.3</ele>
        <time>2020-08-31T07:46:02Z</time>
      </trkpt>
      <trkpt lat="42.88747" lon="1.49162">
        <ele>924.2</ele>
        <time>2020-08-31T07:47:07Z</time>
      </trkpt>
      <trkpt lat="42.88745" lon="1.49033">
        <ele>930.7</ele>
        <time>2020-08-31T07:48:18Z</time>
      </trkpt>
      <trkpt lat="42.8877" lon="1.48907">
        <ele>937.1</ele>
        <time>2020-08-31T07:49:23Z</time>
      </trkpt>
      <trkpt lat="42.88836" lon="1.48816">
        <ele>944.1</ele>
        <time>2020-08-31T07:50:32Z</time>
      </trkpt>
      <trkpt lat="42.88905" lon="1.48722">
        <ele>950.6</ele>
        <time>2020-08-31T07:51:44Z</time>
      </trkpt>
      <trkpt lat="42.88936" lon="1.48604">
        <ele>957.9</ele>
        <time>2020-08-31T07:52:49Z</time>
      </trkpt>
      <trkpt lat="42.89001" lon="1.48504">
        <ele>965</ele>
        <time>2020-08-31T07:54:01Z</time>
      </trkpt>
      <trkpt lat="42.89063" lon="1.48403">
        <ele>974.8</ele>
        <time>2020-08-31T07:55:24Z</time>
      </trkpt>
      <trkpt lat="42.89076" lon="1.48271">
        <ele>988.1</ele>
        <time>2020-08-31T07:56:39Z</time>
      </trkpt>
      <trkpt lat="42.89135" lon="1.48171">
        <ele>1001.8</ele>
        <time>2020-08-31T07:57:47Z</time>
      </trkpt>
      <trkpt lat="42.89218" lon="1.48105">
        <ele>1010.8</ele>
        <time>2020-08-31T07:59:05Z</time>
      </trkpt>
      <trkpt lat="42.89287" lon="1.48015">
        <ele>1017.7</ele>
        <time>2020-08-31T08:00:15Z</time>
      </trkpt>
      <trkpt lat="42.89362" lon="1.47936">
        <ele>1026.6</ele>
        <time>2020-08-31T08:01:29Z</time>
      </trkpt>
      <trkpt lat="42.89364" lon="1.47805">
        <ele>1031.9</ele>
        <time>2020-08-31T08:02:37Z</time>
      </trkpt>
      <trkpt lat="42.8938" lon="1.47672">
        <ele>1037.9</ele>
        <time>2020-08-31T08:03:56Z</time>
      </trkpt>
      <trkpt lat="42.89429" lon="1.47568">
        <ele>1044.2</ele>
        <time>2020-08-31T08:05:03Z</time>
      </trkpt>
      <trkpt lat="42.89493" lon="1.47482">
        <ele>1054.9</ele>
        <time>2020-08-31T08:06:13Z</time>
      </trkpt>
      <trkpt lat="42.895" lon="1.47349">
        <ele>1066.6</ele>
        <time>2020-08-31T08:07:30Z</time>
      </trkpt>
      <trkpt lat="42.89528" lon="1.47224">
        <ele>1074.9</ele>
        <time>2020-08-31T08:08:38Z</time>
      </trkpt>
      <trkpt lat="42.89573" lon="1.47118">
        <ele>1081.8</ele>
        <time>2020-08-31T08:09:34Z</time>
      </trkpt>
      <trkpt lat="42.89568" lon="1.46995">
        <ele>1087.7</ele>
        <time>2020-08-31T08:10:24Z</time>
      </trkpt>
      <trkpt lat="42.89564" lon="1.46862">
        <ele>1094.4</ele>
        <time>2020-08-31T08:11:23Z</time>
      </trkpt>
      <trkpt lat="42.89602" lon="1.46738">
        <ele>1100.4</ele>
        <time>2020-08-31T08:12:26Z</time>
      </trkpt>
      <trkpt lat="42.89617" lon="1.46608">
        <ele>1105.5</ele>
        <time>2020-08-31T08:13:26Z</time>
      </trkpt>
      <trkpt lat="42.89647" lon="1.4648">
        <ele>1109.7</ele>
        <time>2020-08-31T08:14:25Z</time>
      </trkpt>
      <trkpt lat="42.89698" lon="1.46367">
        <ele>1113.8</ele>
        <time>2020-08-31T08:15:25Z</time>
      </trkpt>
      <trkpt lat="42.89705" lon="1.4623">
        <ele>1117.5</ele>
        <time>2020-08-31T08:16:21Z</time>
      </trkpt>
      <trkpt lat="42.89727" lon="1.46361">
        <ele>1122.9</ele>
        <time>2020-08-31T08:17:56Z</time>
      </trkpt>
      <trkpt lat="42.8969" lon="1.46478">
        <ele>1125.1</ele>
        <time>2020-08-31T08:18:41Z</time>
      </trkpt>
      <trkpt lat="42.89688" lon="1.46614">
        <ele>1127.4</ele>
        <time>2020-08-31T08:19:36Z</time>
      </trkpt>
      <trkpt lat="42.89674" lon="1.46746">
        <ele>1132.2</ele>
        <time>2020-08-31T08:20:30Z</time>
      </trkpt>
      <trkpt lat="42.89689" lon="1.46877">
        <ele>1143.7</ele>
        <time>2020-08-31T08:21:34Z</time>
      </trkpt>
      <trkpt lat="42.897" lon="1.46746">
        <ele>1157.2</ele>
        <time>2020-08-31T08:23:32Z</time>
      </trkpt>
      <trkpt lat="42.89738" lon="1.46622">
        <ele>1162</ele>
        <time>2020-08-31T08:24:28Z</time>
      </trkpt>
      <trkpt lat="42.89787" lon="1.46511">
        <ele>1166.6</ele>
        <time>2020-08-31T08:25:28Z</time>
      </trkpt>
      <trkpt lat="42.89842" lon="1.46399">
        <ele>1171.1</ele>
        <time>2020-08-31T08:26:29Z</time>
      </trkpt>
      <trkpt lat="42.89859" lon="1.46277">
        <ele>1174.8</ele>
        <time>2020-08-31T08:27:26Z</time>
      </trkpt>
      <trkpt lat="42.89821" lon="1.46156">
        <ele>1178.3</ele>
        <time>2020-08-31T08:28:25Z</time>
      </trkpt>
      <trkpt lat="42.89848" lon="1.46039">
        <ele>1182.7</ele>
        <time>2020-08-31T08:29:41Z</time>
      </trkpt>
      <trkpt lat="42.89863" lon="1.45918">
        <ele>1187.7</ele>
        <time>2020-08-31T08:31:02Z</time>
      </trkpt>
      <trkpt lat="42.89869" lon="1.45791">
        <ele>1194.7</ele>
        <time>2020-08-31T08:32:35Z</time>
      </trkpt>
      <trkpt lat="42.89902" lon="1.4567">
        <ele>1199.6</ele>
        <time>2020-08-31T08:33:39Z</time>
      </trkpt>
      <trkpt lat="42.89929" lon="1.45545">
        <ele>1204.1</ele>
        <time>2020-08-31T08:34:42Z</time>
      </trkpt>
      <trkpt lat="42.8993" lon="1.45422">
        <ele>1207.6</ele>
        <time>2020-08-31T08:35:37Z</time>
      </trkpt>
      <trkpt lat="42.89913" lon="1.45288">
        <ele>1213.3</ele>
        <time>2020-08-31T08:36:42Z</time>
      </trkpt>
      <trkpt lat="42.89979" lon="1.4519">
        <ele>1222.9</ele>
        <time>2020-08-31T08:39:59Z</time>
      </trkpt>
      <trkpt lat="42.90007" lon="1.45064">
        <ele>1229</ele>
        <time>2020-08-31T08:40:24Z</time>
      </trkpt>
      <trkpt lat="42.90052" lon="1.44944">
        <ele>1243.7</ele>
        <time>2020-08-31T08:48:58Z</time>
      </trkpt>
      <trkpt lat="42.90067" lon="1.44779">
        <ele>1243.9</ele>
        <time>2020-08-31T08:49:18Z</time>
      </trkpt>
      <trkpt lat="42.90121" lon="1.44643">
        <ele>1243</ele>
        <time>2020-08-31T08:49:33Z</time>
      </trkpt>
      <trkpt lat="42.90198" lon="1.44528">
        <ele>1242.2</ele>
        <time>2020-08-31T08:49:48Z</time>
      </trkpt>
      <trkpt lat="42.90322" lon="1.44532">
        <ele>1240.3</ele>
        <time>2020-08-31T08:50:03Z</time>
      </trkpt>
      <trkpt lat="42.90319" lon="1.44401">
        <ele>1226.2</ele>
        <time>2020-08-31T08:51:40Z</time>
      </trkpt>
      <trkpt lat="42.9028" lon="1.44285">
        <ele>1220.8</ele>
        <time>2020-08-31T08:51:55Z</time>
      </trkpt>
      <trkpt lat="42.90281" lon="1.44127">
        <ele>1217.8</ele>
        <time>2020-08-31T08:52:10Z</time>
      </trkpt>
      <trkpt lat="42.90348" lon="1.44034">
        <ele>1212</ele>
        <time>2020-08-31T08:52:25Z</time>
      </trkpt>
      <trkpt lat="42.90393" lon="1.43903">
        <ele>1206.1</ele>
        <time>2020-08-31T08:52:50Z</time>
      </trkpt>
      <trkpt lat="42.90473" lon="1.4381">
        <ele>1196.3</ele>
        <time>2020-08-31T08:53:10Z</time>
      </trkpt>
      <trkpt lat="42.90519" lon="1.43691">
        <ele>1188.9</ele>
        <time>2020-08-31T08:53:25Z</time>
      </trkpt>
      <trkpt lat="42.90468" lon="1.43576">
        <ele>1175.3</ele>
        <time>2020-08-31T08:53:40Z</time>
      </trkpt>
      <trkpt lat="42.9043" lon="1.43426">
        <ele>1180.5</ele>
        <time>2020-08-31T08:54:00Z</time>
      </trkpt>
      <trkpt lat="42.90506" lon="1.43303">
        <ele>1175</ele>
        <time>2020-08-31T08:54:20Z</time>
      </trkpt>
      <trkpt lat="42.90506" lon="1.43153">
        <ele>1159.6</ele>
        <time>2020-08-31T08:54:45Z</time>
      </trkpt>
      <trkpt lat="42.90473" lon="1.43032">
        <ele>1147.3</ele>
        <time>2020-08-31T08:55:05Z</time>
      </trkpt>
      <trkpt lat="42.90557" lon="1.42952">
        <ele>1142.5</ele>
        <time>2020-08-31T08:55:25Z</time>
      </trkpt>
      <trkpt lat="42.90642" lon="1.42901">
        <ele>1139.9</ele>
        <time>2020-08-31T08:55:40Z</time>
      </trkpt>
      <trkpt lat="42.90613" lon="1.42769">
        <ele>1139.8</ele>
        <time>2020-08-31T08:55:55Z</time>
      </trkpt>
      <trkpt lat="42.90635" lon="1.42613">
        <ele>1138.7</ele>
        <time>2020-08-31T08:56:10Z</time>
      </trkpt>
      <trkpt lat="42.90709" lon="1.42537">
        <ele>1138.3</ele>
        <time>2020-08-31T08:56:20Z</time>
      </trkpt>
      <trkpt lat="42.90775" lon="1.4244">
        <ele>1129.3</ele>
        <time>2020-08-31T08:56:35Z</time>
      </trkpt>
      <trkpt lat="42.90691" lon="1.42317">
        <ele>1119.2</ele>
        <time>2020-08-31T08:56:50Z</time>
      </trkpt>
      <trkpt lat="42.90629" lon="1.42209">
        <ele>1112.2</ele>
        <time>2020-08-31T08:57:05Z</time>
      </trkpt>
      <trkpt lat="42.90672" lon="1.42078">
        <ele>1104.8</ele>
        <time>2020-08-31T08:57:20Z</time>
      </trkpt>
      <trkpt lat="42.90689" lon="1.41932">
        <ele>1100</ele>
        <time>2020-08-31T08:57:35Z</time>
      </trkpt>
      <trkpt lat="42.90679" lon="1.41785">
        <ele>1090.4</ele>
        <time>2020-08-31T08:57:50Z</time>
      </trkpt>
      <trkpt lat="42.90755" lon="1.41655">
        <ele>1083.3</ele>
        <time>2020-08-31T08:58:05Z</time>
      </trkpt>
      <trkpt lat="42.90714" lon="1.41533">
        <ele>1072.3</ele>
        <time>2020-08-31T08:58:25Z</time>
      </trkpt>
      <trkpt lat="42.90633" lon="1.41409">
        <ele>1060.8</ele>
        <time>2020-08-31T08:58:40Z</time>
      </trkpt>
      <trkpt lat="42.90638" lon="1.41254">
        <ele>1055.8</ele>
        <time>2020-08-31T08:58:55Z</time>
      </trkpt>
      <trkpt lat="42.90684" lon="1.41101">
        <ele>1050.7</ele>
        <time>2020-08-31T08:59:10Z</time>
      </trkpt>
      <trkpt lat="42.90692" lon="1.40931">
        <ele>1048</ele>
        <time>2020-08-31T08:59:25Z</time>
      </trkpt>
      <trkpt lat="42.90668" lon="1.40767">
        <ele>1040.5</ele>
        <time>2020-08-31T08:59:40Z</time>
      </trkpt>
      <trkpt lat="42.90693" lon="1.4059">
        <ele>1033.3</ele>
        <time>2020-08-31T08:59:55Z</time>
      </trkpt>
      <trkpt lat="42.90732" lon="1.40425">
        <ele>1022.9</ele>
        <time>2020-08-31T09:00:10Z</time>
      </trkpt>
      <trkpt lat="42.90741" lon="1.40248">
        <ele>1018.2</ele>
        <time>2020-08-31T09:00:25Z</time>
      </trkpt>
      <trkpt lat="42.90691" lon="1.40082">
        <ele>1015</ele>
        <time>2020-08-31T09:00:40Z</time>
      </trkpt>
      <trkpt lat="42.90673" lon="1.39908">
        <ele>1006.2</ele>
        <time>2020-08-31T09:00:55Z</time>
      </trkpt>
      <trkpt lat="42.90702" lon="1.39789">
        <ele>1000.6</ele>
        <time>2020-08-31T09:01:05Z</time>
      </trkpt>
      <trkpt lat="42.90713" lon="1.39617">
        <ele>994.1</ele>
        <time>2020-08-31T09:01:20Z</time>
      </trkpt>
      <trkpt lat="42.90726" lon="1.39475">
        <ele>989.6</ele>
        <time>2020-08-31T09:01:35Z</time>
      </trkpt>
      <trkpt lat="42.90703" lon="1.39304">
        <ele>982.7</ele>
        <time>2020-08-31T09:01:50Z</time>
      </trkpt>
      <trkpt lat="42.90647" lon="1.39167">
        <ele>974.7</ele>
        <time>2020-08-31T09:02:05Z</time>
      </trkpt>
      <trkpt lat="42.90642" lon="1.39006">
        <ele>965.9</ele>
        <time>2020-08-31T09:02:20Z</time>
      </trkpt>
      <trkpt lat="42.907" lon="1.38844">
        <ele>955.9</ele>
        <time>2020-08-31T09:02:35Z</time>
      </trkpt>
      <trkpt lat="42.90753" lon="1.38743">
        <ele>953.6</ele>
        <time>2020-08-31T09:02:45Z</time>
      </trkpt>
      <trkpt lat="42.90853" lon="1.38719">
        <ele>949</ele>
        <time>2020-08-31T09:03:00Z</time>
      </trkpt>
      <trkpt lat="42.90877" lon="1.38594">
        <ele>946.5</ele>
        <time>2020-08-31T09:03:15Z</time>
      </trkpt>
      <trkpt lat="42.9085" lon="1.38449">
        <ele>928.2</ele>
        <time>2020-08-31T09:03:35Z</time>
      </trkpt>
      <trkpt lat="42.90914" lon="1.38357">
        <ele>918.9</ele>
        <time>2020-08-31T09:03:45Z</time>
      </trkpt>
      <trkpt lat="42.90929" lon="1.38195">
        <ele>911.7</ele>
        <time>2020-08-31T09:04:00Z</time>
      </trkpt>
      <trkpt lat="42.90831" lon="1.38085">
        <ele>897.5</ele>
        <time>2020-08-31T09:04:20Z</time>
      </trkpt>
      <trkpt lat="42.90716" lon="1.38016">
        <ele>886.3</ele>
        <time>2020-08-31T09:04:35Z</time>
      </trkpt>
      <trkpt lat="42.90747" lon="1.37841">
        <ele>877.5</ele>
        <time>2020-08-31T09:04:50Z</time>
      </trkpt>
      <trkpt lat="42.90705" lon="1.37693">
        <ele>869.3</ele>
        <time>2020-08-31T09:05:10Z</time>
      </trkpt>
      <trkpt lat="42.90732" lon="1.37517">
        <ele>858.9</ele>
        <time>2020-08-31T09:05:25Z</time>
      </trkpt>
      <trkpt lat="42.90651" lon="1.37457">
        <ele>849.3</ele>
        <time>2020-08-31T09:05:40Z</time>
      </trkpt>
      <trkpt lat="42.90598" lon="1.37324">
        <ele>841.9</ele>
        <time>2020-08-31T09:05:55Z</time>
      </trkpt>
      <trkpt lat="42.90682" lon="1.37202">
        <ele>831.4</ele>
        <time>2020-08-31T09:06:10Z</time>
      </trkpt>
      <trkpt lat="42.90741" lon="1.37081">
        <ele>829.9</ele>
        <time>2020-08-31T09:06:25Z</time>
      </trkpt>
      <trkpt lat="42.90639" lon="1.37017">
        <ele>817.8</ele>
        <time>2020-08-31T09:06:55Z</time>
      </trkpt>
      <trkpt lat="42.90553" lon="1.36957">
        <ele>816.2</ele>
        <time>2020-08-31T09:07:15Z</time>
      </trkpt>
      <trkpt lat="42.90475" lon="1.36884">
        <ele>813.6</ele>
        <time>2020-08-31T09:07:40Z</time>
      </trkpt>
      <trkpt lat="42.90376" lon="1.36865">
        <ele>807.1</ele>
        <time>2020-08-31T09:08:00Z</time>
      </trkpt>
      <trkpt lat="42.90344" lon="1.36742">
        <ele>805.5</ele>
        <time>2020-08-31T09:08:15Z</time>
      </trkpt>
      <trkpt lat="42.90344" lon="1.36584">
        <ele>803.4</ele>
        <time>2020-08-31T09:08:30Z</time>
      </trkpt>
      <trkpt lat="42.90269" lon="1.36464">
        <ele>790.8</ele>
        <time>2020-08-31T09:08:50Z</time>
      </trkpt>
      <trkpt lat="42.90177" lon="1.36383">
        <ele>780.7</ele>
        <time>2020-08-31T09:09:04Z</time>
      </trkpt>
      <trkpt lat="42.9011" lon="1.36298">
        <ele>768.4</ele>
        <time>2020-08-31T09:09:24Z</time>
      </trkpt>
      <trkpt lat="42.89987" lon="1.36259">
        <ele>765.6</ele>
        <time>2020-08-31T09:09:39Z</time>
      </trkpt>
      <trkpt lat="42.89913" lon="1.36165">
        <ele>756.4</ele>
        <time>2020-08-31T09:09:54Z</time>
      </trkpt>
      <trkpt lat="42.89801" lon="1.36129">
        <ele>735.9</ele>
        <time>2020-08-31T09:10:29Z</time>
      </trkpt>
      <trkpt lat="42.89691" lon="1.36028">
        <ele>731</ele>
        <time>2020-08-31T09:10:44Z</time>
      </trkpt>
      <trkpt lat="42.89596" lon="1.36025">
        <ele>724.5</ele>
        <time>2020-08-31T09:10:54Z</time>
      </trkpt>
      <trkpt lat="42.89554" lon="1.35863">
        <ele>712</ele>
        <time>2020-08-31T09:11:14Z</time>
      </trkpt>
      <trkpt lat="42.89555" lon="1.35735">
        <ele>711.6</ele>
        <time>2020-08-31T09:11:24Z</time>
      </trkpt>
      <trkpt lat="42.89554" lon="1.35599">
        <ele>705.3</ele>
        <time>2020-08-31T09:11:34Z</time>
      </trkpt>
      <trkpt lat="42.89527" lon="1.35467">
        <ele>697.5</ele>
        <time>2020-08-31T09:11:44Z</time>
      </trkpt>
      <trkpt lat="42.89477" lon="1.35345">
        <ele>691.3</ele>
        <time>2020-08-31T09:11:54Z</time>
      </trkpt>
      <trkpt lat="42.89419" lon="1.35228">
        <ele>685.8</ele>
        <time>2020-08-31T09:12:04Z</time>
      </trkpt>
      <trkpt lat="42.8937" lon="1.35112">
        <ele>659.7</ele>
        <time>2020-08-31T09:12:44Z</time>
      </trkpt>
      <trkpt lat="42.893" lon="1.34981">
        <ele>651.3</ele>
        <time>2020-08-31T09:12:59Z</time>
      </trkpt>
      <trkpt lat="42.89197" lon="1.3491">
        <ele>646.7</ele>
        <time>2020-08-31T09:13:14Z</time>
      </trkpt>
      <trkpt lat="42.89108" lon="1.34854">
        <ele>638.1</ele>
        <time>2020-08-31T09:17:09Z</time>
      </trkpt>
      <trkpt lat="42.89024" lon="1.34802">
        <ele>636</ele>
        <time>2020-08-31T09:18:03Z</time>
      </trkpt>
      <trkpt lat="42.8894" lon="1.34737">
        <ele>639.2</ele>
        <time>2020-08-31T09:19:08Z</time>
      </trkpt>
      <trkpt lat="42.8896" lon="1.34592">
        <ele>650.4</ele>
        <time>2020-08-31T09:34:06Z</time>
      </trkpt>
      <trkpt lat="42.89003" lon="1.34466">
        <ele>650.3</ele>
        <time>2020-08-31T09:34:26Z</time>
      </trkpt>
      <trkpt lat="42.89061" lon="1.34349">
        <ele>649.6</ele>
        <time>2020-08-31T09:34:46Z</time>
      </trkpt>
      <trkpt lat="42.8911" lon="1.34247">
        <ele>649.3</ele>
        <time>2020-08-31T09:35:06Z</time>
      </trkpt>
      <trkpt lat="42.89173" lon="1.34125">
        <ele>648.3</ele>
        <time>2020-08-31T09:35:25Z</time>
      </trkpt>
      <trkpt lat="42.89231" lon="1.34009">
        <ele>645.8</ele>
        <time>2020-08-31T09:35:40Z</time>
      </trkpt>
      <trkpt lat="42.89297" lon="1.33887">
        <ele>642.4</ele>
        <time>2020-08-31T09:35:55Z</time>
      </trkpt>
      <trkpt lat="42.89368" lon="1.33755">
        <ele>637.3</ele>
        <time>2020-08-31T09:36:10Z</time>
      </trkpt>
      <trkpt lat="42.8935" lon="1.33587">
        <ele>630.6</ele>
        <time>2020-08-31T09:36:25Z</time>
      </trkpt>
      <trkpt lat="42.8937" lon="1.33463">
        <ele>626.2</ele>
        <time>2020-08-31T09:36:35Z</time>
      </trkpt>
      <trkpt lat="42.89403" lon="1.33345">
        <ele>620.8</ele>
        <time>2020-08-31T09:36:45Z</time>
      </trkpt>
      <trkpt lat="42.89449" lon="1.33213">
        <ele>614.8</ele>
        <time>2020-08-31T09:37:00Z</time>
      </trkpt>
      <trkpt lat="42.89528" lon="1.3313">
        <ele>612.8</ele>
        <time>2020-08-31T09:37:15Z</time>
      </trkpt>
      <trkpt lat="42.89606" lon="1.33049">
        <ele>609.9</ele>
        <time>2020-08-31T09:37:30Z</time>
      </trkpt>
      <trkpt lat="42.89656" lon="1.3294">
        <ele>608</ele>
        <time>2020-08-31T09:37:45Z</time>
      </trkpt>
      <trkpt lat="42.89681" lon="1.32815">
        <ele>606.5</ele>
        <time>2020-08-31T09:38:00Z</time>
      </trkpt>
      <trkpt lat="42.89711" lon="1.32697">
        <ele>604</ele>
        <time>2020-08-31T09:38:15Z</time>
      </trkpt>
      <trkpt lat="42.89753" lon="1.32544">
        <ele>602.4</ele>
        <time>2020-08-31T09:38:35Z</time>
      </trkpt>
      <trkpt lat="42.89788" lon="1.3242">
        <ele>602.1</ele>
        <time>2020-08-31T09:38:50Z</time>
      </trkpt>
      <trkpt lat="42.89785" lon="1.32294">
        <ele>601.3</ele>
        <time>2020-08-31T09:39:05Z</time>
      </trkpt>
      <trkpt lat="42.89739" lon="1.32185">
        <ele>599.3</ele>
        <time>2020-08-31T09:39:20Z</time>
      </trkpt>
      <trkpt lat="42.89689" lon="1.32046">
        <ele>594</ele>
        <time>2020-08-31T09:39:40Z</time>
      </trkpt>
      <trkpt lat="42.89689" lon="1.31922">
        <ele>592.1</ele>
        <time>2020-08-31T09:39:55Z</time>
      </trkpt>
      <trkpt lat="42.89753" lon="1.31783">
        <ele>590.4</ele>
        <time>2020-08-31T09:40:15Z</time>
      </trkpt>
      <trkpt lat="42.89784" lon="1.31659">
        <ele>589.9</ele>
        <time>2020-08-31T09:40:30Z</time>
      </trkpt>
      <trkpt lat="42.89799" lon="1.31527">
        <ele>588.8</ele>
        <time>2020-08-31T09:40:45Z</time>
      </trkpt>
      <trkpt lat="42.89809" lon="1.31401">
        <ele>587.4</ele>
        <time>2020-08-31T09:41:00Z</time>
      </trkpt>
      <trkpt lat="42.89834" lon="1.31248">
        <ele>585.8</ele>
        <time>2020-08-31T09:41:20Z</time>
      </trkpt>
      <trkpt lat="42.89868" lon="1.31096">
        <ele>583.1</ele>
        <time>2020-08-31T09:41:40Z</time>
      </trkpt>
      <trkpt lat="42.89902" lon="1.30942">
        <ele>582.2</ele>
        <time>2020-08-31T09:42:00Z</time>
      </trkpt>
      <trkpt lat="42.8997" lon="1.30825">
        <ele>581.7</ele>
        <time>2020-08-31T09:42:20Z</time>
      </trkpt>
      <trkpt lat="42.89986" lon="1.30686">
        <ele>581.5</ele>
        <time>2020-08-31T09:42:40Z</time>
      </trkpt>
      <trkpt lat="42.90019" lon="1.30548">
        <ele>581.1</ele>
        <time>2020-08-31T09:43:00Z</time>
      </trkpt>
      <trkpt lat="42.90009" lon="1.30411">
        <ele>578.9</ele>
        <time>2020-08-31T09:43:20Z</time>
      </trkpt>
      <trkpt lat="42.90043" lon="1.30276">
        <ele>578.7</ele>
        <time>2020-08-31T09:43:40Z</time>
      </trkpt>
      <trkpt lat="42.90101" lon="1.30156">
        <ele>580.2</ele>
        <time>2020-08-31T09:44:00Z</time>
      </trkpt>
      <trkpt lat="42.90138" lon="1.30001">
        <ele>578.9</ele>
        <time>2020-08-31T09:44:20Z</time>
      </trkpt>
      <trkpt lat="42.90164" lon="1.29877">
        <ele>576.7</ele>
        <time>2020-08-31T09:44:35Z</time>
      </trkpt>
      <trkpt lat="42.902" lon="1.29749">
        <ele>572.5</ele>
        <time>2020-08-31T09:44:50Z</time>
      </trkpt>
      <trkpt lat="42.90267" lon="1.29644">
        <ele>572.3</ele>
        <time>2020-08-31T09:45:10Z</time>
      </trkpt>
      <trkpt lat="42.90327" lon="1.29547">
        <ele>573.6</ele>
        <time>2020-08-31T09:45:30Z</time>
      </trkpt>
      <trkpt lat="42.90367" lon="1.29399">
        <ele>571.2</ele>
        <time>2020-08-31T09:45:50Z</time>
      </trkpt>
      <trkpt lat="42.90334" lon="1.29274">
        <ele>569.4</ele>
        <time>2020-08-31T09:46:05Z</time>
      </trkpt>
      <trkpt lat="42.90378" lon="1.29165">
        <ele>571.6</ele>
        <time>2020-08-31T09:46:25Z</time>
      </trkpt>
      <trkpt lat="42.90488" lon="1.29209">
        <ele>569.4</ele>
        <time>2020-08-31T09:46:45Z</time>
      </trkpt>
      <trkpt lat="42.90594" lon="1.2922">
        <ele>570.1</ele>
        <time>2020-08-31T09:47:05Z</time>
      </trkpt>
      <trkpt lat="42.90695" lon="1.29243">
        <ele>571.2</ele>
        <time>2020-08-31T09:47:25Z</time>
      </trkpt>
      <trkpt lat="42.90796" lon="1.29194">
        <ele>572.1</ele>
        <time>2020-08-31T09:47:45Z</time>
      </trkpt>
      <trkpt lat="42.9086" lon="1.29091">
        <ele>567.5</ele>
        <time>2020-08-31T09:48:00Z</time>
      </trkpt>
      <trkpt lat="42.9089" lon="1.28963">
        <ele>566.1</ele>
        <time>2020-08-31T09:48:15Z</time>
      </trkpt>
      <trkpt lat="42.90938" lon="1.28815">
        <ele>562.2</ele>
        <time>2020-08-31T09:48:35Z</time>
      </trkpt>
      <trkpt lat="42.90985" lon="1.28672">
        <ele>559.5</ele>
        <time>2020-08-31T09:48:55Z</time>
      </trkpt>
      <trkpt lat="42.91028" lon="1.28525">
        <ele>558.2</ele>
        <time>2020-08-31T09:49:15Z</time>
      </trkpt>
      <trkpt lat="42.91044" lon="1.2838">
        <ele>557.4</ele>
        <time>2020-08-31T09:49:35Z</time>
      </trkpt>
      <trkpt lat="42.9106" lon="1.28242">
        <ele>559.1</ele>
        <time>2020-08-31T09:49:55Z</time>
      </trkpt>
      <trkpt lat="42.91029" lon="1.28126">
        <ele>559.9</ele>
        <time>2020-08-31T09:50:15Z</time>
      </trkpt>
      <trkpt lat="42.90925" lon="1.28103">
        <ele>556.8</ele>
        <time>2020-08-31T09:50:35Z</time>
      </trkpt>
      <trkpt lat="42.90805" lon="1.28079">
        <ele>549.9</ele>
        <time>2020-08-31T09:50:55Z</time>
      </trkpt>
      <trkpt lat="42.9078" lon="1.27957">
        <ele>552.1</ele>
        <time>2020-08-31T09:51:15Z</time>
      </trkpt>
      <trkpt lat="42.90844" lon="1.27819">
        <ele>554.2</ele>
        <time>2020-08-31T09:51:35Z</time>
      </trkpt>
      <trkpt lat="42.90895" lon="1.27688">
        <ele>554.8</ele>
        <time>2020-08-31T09:51:50Z</time>
      </trkpt>
      <trkpt lat="42.90862" lon="1.27561">
        <ele>549.4</ele>
        <time>2020-08-31T09:52:10Z</time>
      </trkpt>
      <trkpt lat="42.90789" lon="1.27474">
        <ele>550.8</ele>
        <time>2020-08-31T09:52:30Z</time>
      </trkpt>
      <trkpt lat="42.90847" lon="1.27359">
        <ele>555.2</ele>
        <time>2020-08-31T09:52:50Z</time>
      </trkpt>
      <trkpt lat="42.90843" lon="1.27234">
        <ele>551.8</ele>
        <time>2020-08-31T09:53:05Z</time>
      </trkpt>
      <trkpt lat="42.90927" lon="1.27185">
        <ele>549.4</ele>
        <time>2020-08-31T09:53:20Z</time>
      </trkpt>
      <trkpt lat="42.91023" lon="1.27181">
        <ele>546.9</ele>
        <time>2020-08-31T09:53:35Z</time>
      </trkpt>
      <trkpt lat="42.9108" lon="1.27045">
        <ele>542.7</ele>
        <time>2020-08-31T09:53:55Z</time>
      </trkpt>
      <trkpt lat="42.91132" lon="1.26924">
        <ele>541.5</ele>
        <time>2020-08-31T09:54:15Z</time>
      </trkpt>
      <trkpt lat="42.91226" lon="1.26837">
        <ele>537.2</ele>
        <time>2020-08-31T09:54:35Z</time>
      </trkpt>
      <trkpt lat="42.9129" lon="1.26745">
        <ele>536.6</ele>
        <time>2020-08-31T09:54:50Z</time>
      </trkpt>
      <trkpt lat="42.91384" lon="1.26658">
        <ele>537.5</ele>
        <time>2020-08-31T09:55:10Z</time>
      </trkpt>
      <trkpt lat="42.91475" lon="1.26569">
        <ele>537.2</ele>
        <time>2020-08-31T09:55:30Z</time>
      </trkpt>
      <trkpt lat="42.91533" lon="1.26452">
        <ele>536</ele>
        <time>2020-08-31T09:55:50Z</time>
      </trkpt>
      <trkpt lat="42.91427" lon="1.26418">
        <ele>530.8</ele>
        <time>2020-08-31T09:56:15Z</time>
      </trkpt>
      <trkpt lat="42.91339" lon="1.26342">
        <ele>526</ele>
        <time>2020-08-31T09:56:35Z</time>
      </trkpt>
      <trkpt lat="42.91382" lon="1.26201">
        <ele>528.7</ele>
        <time>2020-08-31T09:56:55Z</time>
      </trkpt>
      <trkpt lat="42.91382" lon="1.26057">
        <ele>528.4</ele>
        <time>2020-08-31T09:57:15Z</time>
      </trkpt>
      <trkpt lat="42.91401" lon="1.25926">
        <ele>527.1</ele>
        <time>2020-08-31T09:57:35Z</time>
      </trkpt>
      <trkpt lat="42.91398" lon="1.2579">
        <ele>523</ele>
        <time>2020-08-31T09:57:55Z</time>
      </trkpt>
      <trkpt lat="42.91366" lon="1.25653">
        <ele>523.5</ele>
        <time>2020-08-31T09:58:15Z</time>
      </trkpt>
      <trkpt lat="42.91352" lon="1.2553">
        <ele>523.4</ele>
        <time>2020-08-31T09:58:40Z</time>
      </trkpt>
      <trkpt lat="42.91283" lon="1.25445">
        <ele>518.4</ele>
        <time>2020-08-31T09:59:05Z</time>
      </trkpt>
      <trkpt lat="42.91182" lon="1.25472">
        <ele>520.5</ele>
        <time>2020-08-31T09:59:30Z</time>
      </trkpt>
      <trkpt lat="42.91145" lon="1.25325">
        <ele>520.7</ele>
        <time>2020-08-31T09:59:50Z</time>
      </trkpt>
      <trkpt lat="42.91075" lon="1.25239">
        <ele>518.9</ele>
        <time>2020-08-31T10:00:05Z</time>
      </trkpt>
      <trkpt lat="42.91007" lon="1.25142">
        <ele>519.1</ele>
        <time>2020-08-31T10:00:20Z</time>
      </trkpt>
      <trkpt lat="42.90913" lon="1.25057">
        <ele>516.3</ele>
        <time>2020-08-31T10:00:35Z</time>
      </trkpt>
      <trkpt lat="42.90828" lon="1.24969">
        <ele>515.3</ele>
        <time>2020-08-31T10:00:50Z</time>
      </trkpt>
      <trkpt lat="42.90731" lon="1.24916">
        <ele>510.7</ele>
        <time>2020-08-31T10:01:05Z</time>
      </trkpt>
      <trkpt lat="42.9064" lon="1.24924">
        <ele>506.8</ele>
        <time>2020-08-31T10:01:20Z</time>
      </trkpt>
      <trkpt lat="42.90564" lon="1.24851">
        <ele>505.1</ele>
        <time>2020-08-31T10:01:45Z</time>
      </trkpt>
      <trkpt lat="42.90518" lon="1.24696">
        <ele>498.8</ele>
        <time>2020-08-31T10:02:04Z</time>
      </trkpt>
      <trkpt lat="42.90485" lon="1.2457">
        <ele>500.8</ele>
        <time>2020-08-31T10:02:24Z</time>
      </trkpt>
      <trkpt lat="42.90456" lon="1.24452">
        <ele>500.3</ele>
        <time>2020-08-31T10:02:54Z</time>
      </trkpt>
      <trkpt lat="42.90418" lon="1.24338">
        <ele>498.8</ele>
        <time>2020-08-31T10:03:24Z</time>
      </trkpt>
      <trkpt lat="42.90349" lon="1.24257">
        <ele>493.8</ele>
        <time>2020-08-31T10:03:49Z</time>
      </trkpt>
      <trkpt lat="42.90261" lon="1.24218">
        <ele>492.1</ele>
        <time>2020-08-31T10:04:04Z</time>
      </trkpt>
      <trkpt lat="42.90177" lon="1.24145">
        <ele>492.3</ele>
        <time>2020-08-31T10:04:19Z</time>
      </trkpt>
      <trkpt lat="42.90142" lon="1.2401">
        <ele>494.2</ele>
        <time>2020-08-31T10:04:39Z</time>
      </trkpt>
      <trkpt lat="42.90206" lon="1.23891">
        <ele>492.2</ele>
        <time>2020-08-31T10:05:04Z</time>
      </trkpt>
      <trkpt lat="42.90235" lon="1.23768">
        <ele>492.5</ele>
        <time>2020-08-31T10:05:19Z</time>
      </trkpt>
      <trkpt lat="42.9017" lon="1.23656">
        <ele>490</ele>
        <time>2020-08-31T10:05:34Z</time>
      </trkpt>
      <trkpt lat="42.90089" lon="1.2356">
        <ele>491</ele>
        <time>2020-08-31T10:05:49Z</time>
      </trkpt>
      <trkpt lat="42.90027" lon="1.23464">
        <ele>493.9</ele>
        <time>2020-08-31T10:06:04Z</time>
      </trkpt>
      <trkpt lat="42.89966" lon="1.23328">
        <ele>490.8</ele>
        <time>2020-08-31T10:06:24Z</time>
      </trkpt>
      <trkpt lat="42.89916" lon="1.23193">
        <ele>485.9</ele>
        <time>2020-08-31T10:06:44Z</time>
      </trkpt>
      <trkpt lat="42.89937" lon="1.23053">
        <ele>482.6</ele>
        <time>2020-08-31T10:07:04Z</time>
      </trkpt>
      <trkpt lat="42.9003" lon="1.22961">
        <ele>483.5</ele>
        <time>2020-08-31T10:07:24Z</time>
      </trkpt>
      <trkpt lat="42.90123" lon="1.22946">
        <ele>485.2</ele>
        <time>2020-08-31T10:07:39Z</time>
      </trkpt>
      <trkpt lat="42.90134" lon="1.22807">
        <ele>484.9</ele>
        <time>2020-08-31T10:07:59Z</time>
      </trkpt>
      <trkpt lat="42.90093" lon="1.22654">
        <ele>482.4</ele>
        <time>2020-08-31T10:08:19Z</time>
      </trkpt>
      <trkpt lat="42.90092" lon="1.22528">
        <ele>481.1</ele>
        <time>2020-08-31T10:08:34Z</time>
      </trkpt>
      <trkpt lat="42.90166" lon="1.22406">
        <ele>481.1</ele>
        <time>2020-08-31T10:08:54Z</time>
      </trkpt>
      <trkpt lat="42.90243" lon="1.22288">
        <ele>479.7</ele>
        <time>2020-08-31T10:09:14Z</time>
      </trkpt>
      <trkpt lat="42.90325" lon="1.22181">
        <ele>478.3</ele>
        <time>2020-08-31T10:09:34Z</time>
      </trkpt>
      <trkpt lat="42.90406" lon="1.22083">
        <ele>475.4</ele>
        <time>2020-08-31T10:09:54Z</time>
      </trkpt>
      <trkpt lat="42.9049" lon="1.21994">
        <ele>472.6</ele>
        <time>2020-08-31T10:10:14Z</time>
      </trkpt>
      <trkpt lat="42.90594" lon="1.21913">
        <ele>472.4</ele>
        <time>2020-08-31T10:10:34Z</time>
      </trkpt>
      <trkpt lat="42.90691" lon="1.21844">
        <ele>474</ele>
        <time>2020-08-31T10:10:54Z</time>
      </trkpt>
      <trkpt lat="42.9077" lon="1.2175">
        <ele>470.6</ele>
        <time>2020-08-31T10:11:14Z</time>
      </trkpt>
      <trkpt lat="42.90832" lon="1.21648">
        <ele>468.9</ele>
        <time>2020-08-31T10:11:34Z</time>
      </trkpt>
      <trkpt lat="42.90881" lon="1.21539">
        <ele>469.7</ele>
        <time>2020-08-31T10:12:13Z</time>
      </trkpt>
      <trkpt lat="42.90927" lon="1.21432">
        <ele>470.9</ele>
        <time>2020-08-31T10:12:38Z</time>
      </trkpt>
      <trkpt lat="42.9099" lon="1.21345">
        <ele>471.3</ele>
        <time>2020-08-31T10:12:58Z</time>
      </trkpt>
      <trkpt lat="42.91029" lon="1.21214">
        <ele>470.7</ele>
        <time>2020-08-31T10:13:13Z</time>
      </trkpt>
      <trkpt lat="42.91043" lon="1.21075">
        <ele>468.9</ele>
        <time>2020-08-31T10:13:28Z</time>
      </trkpt>
      <trkpt lat="42.91076" lon="1.2094">
        <ele>464.5</ele>
        <time>2020-08-31T10:13:48Z</time>
      </trkpt>
      <trkpt lat="42.91144" lon="1.20815">
        <ele>468.9</ele>
        <time>2020-08-31T10:14:08Z</time>
      </trkpt>
      <trkpt lat="42.91189" lon="1.20705">
        <ele>467.2</ele>
        <time>2020-08-31T10:14:23Z</time>
      </trkpt>
      <trkpt lat="42.91241" lon="1.20583">
        <ele>466.1</ele>
        <time>2020-08-31T10:14:43Z</time>
      </trkpt>
      <trkpt lat="42.91318" lon="1.20485">
        <ele>466.2</ele>
        <time>2020-08-31T10:15:03Z</time>
      </trkpt>
      <trkpt lat="42.91407" lon="1.20433">
        <ele>462.6</ele>
        <time>2020-08-31T10:15:23Z</time>
      </trkpt>
      <trkpt lat="42.91498" lon="1.20345">
        <ele>464.6</ele>
        <time>2020-08-31T10:15:48Z</time>
      </trkpt>
      <trkpt lat="42.91527" lon="1.20212">
        <ele>463.9</ele>
        <time>2020-08-31T10:16:08Z</time>
      </trkpt>
      <trkpt lat="42.91483" lon="1.20074">
        <ele>460.9</ele>
        <time>2020-08-31T10:16:28Z</time>
      </trkpt>
      <trkpt lat="42.91413" lon="1.19954">
        <ele>459.1</ele>
        <time>2020-08-31T10:16:48Z</time>
      </trkpt>
      <trkpt lat="42.91357" lon="1.19816">
        <ele>459.1</ele>
        <time>2020-08-31T10:17:08Z</time>
      </trkpt>
      <trkpt lat="42.91329" lon="1.19676">
        <ele>460.7</ele>
        <time>2020-08-31T10:17:28Z</time>
      </trkpt>
      <trkpt lat="42.91325" lon="1.19522">
        <ele>456.8</ele>
        <time>2020-08-31T10:17:48Z</time>
      </trkpt>
      <trkpt lat="42.91336" lon="1.19361">
        <ele>449.1</ele>
        <time>2020-08-31T10:18:08Z</time>
      </trkpt>
      <trkpt lat="42.91382" lon="1.19233">
        <ele>445.4</ele>
        <time>2020-08-31T10:18:28Z</time>
      </trkpt>
      <trkpt lat="42.91447" lon="1.19142">
        <ele>446</ele>
        <time>2020-08-31T10:18:48Z</time>
      </trkpt>
      <trkpt lat="42.91556" lon="1.19135">
        <ele>447.5</ele>
        <time>2020-08-31T10:19:08Z</time>
      </trkpt>
      <trkpt lat="42.91642" lon="1.19181">
        <ele>447.3</ele>
        <time>2020-08-31T10:19:23Z</time>
      </trkpt>
      <trkpt lat="42.9174" lon="1.19226">
        <ele>448.1</ele>
        <time>2020-08-31T10:19:43Z</time>
      </trkpt>
      <trkpt lat="42.91808" lon="1.19114">
        <ele>448.7</ele>
        <time>2020-08-31T10:20:03Z</time>
      </trkpt>
      <trkpt lat="42.91846" lon="1.18981">
        <ele>448.2</ele>
        <time>2020-08-31T10:20:23Z</time>
      </trkpt>
      <trkpt lat="42.91924" lon="1.18884">
        <ele>448.1</ele>
        <time>2020-08-31T10:20:43Z</time>
      </trkpt>
      <trkpt lat="42.92022" lon="1.18859">
        <ele>449.9</ele>
        <time>2020-08-31T10:21:03Z</time>
      </trkpt>
      <trkpt lat="42.92122" lon="1.18804">
        <ele>448.9</ele>
        <time>2020-08-31T10:21:23Z</time>
      </trkpt>
      <trkpt lat="42.92226" lon="1.18734">
        <ele>445.9</ele>
        <time>2020-08-31T10:21:43Z</time>
      </trkpt>
      <trkpt lat="42.92316" lon="1.18645">
        <ele>445.6</ele>
        <time>2020-08-31T10:22:03Z</time>
      </trkpt>
      <trkpt lat="42.92356" lon="1.18518">
        <ele>445.6</ele>
        <time>2020-08-31T10:22:23Z</time>
      </trkpt>
      <trkpt lat="42.92378" lon="1.1838">
        <ele>451.5</ele>
        <time>2020-08-31T10:22:43Z</time>
      </trkpt>
      <trkpt lat="42.92459" lon="1.18313">
        <ele>452.6</ele>
        <time>2020-08-31T10:23:03Z</time>
      </trkpt>
      <trkpt lat="42.92569" lon="1.18356">
        <ele>450.5</ele>
        <time>2020-08-31T10:23:23Z</time>
      </trkpt>
      <trkpt lat="42.92664" lon="1.18405">
        <ele>446.5</ele>
        <time>2020-08-31T10:23:43Z</time>
      </trkpt>
      <trkpt lat="42.92761" lon="1.18394">
        <ele>446.1</ele>
        <time>2020-08-31T10:24:03Z</time>
      </trkpt>
      <trkpt lat="42.92861" lon="1.1835">
        <ele>443.8</ele>
        <time>2020-08-31T10:24:23Z</time>
      </trkpt>
      <trkpt lat="42.92949" lon="1.18278">
        <ele>442.6</ele>
        <time>2020-08-31T10:24:43Z</time>
      </trkpt>
      <trkpt lat="42.92987" lon="1.18165">
        <ele>442.9</ele>
        <time>2020-08-31T10:25:03Z</time>
      </trkpt>
      <trkpt lat="42.9303" lon="1.18036">
        <ele>443.7</ele>
        <time>2020-08-31T10:25:23Z</time>
      </trkpt>
      <trkpt lat="42.93107" lon="1.17953">
        <ele>444.5</ele>
        <time>2020-08-31T10:25:48Z</time>
      </trkpt>
      <trkpt lat="42.93174" lon="1.17843">
        <ele>445.4</ele>
        <time>2020-08-31T10:26:13Z</time>
      </trkpt>
      <trkpt lat="42.93257" lon="1.17739">
        <ele>445.3</ele>
        <time>2020-08-31T10:26:33Z</time>
      </trkpt>
      <trkpt lat="42.93369" lon="1.17715">
        <ele>444.1</ele>
        <time>2020-08-31T10:26:48Z</time>
      </trkpt>
      <trkpt lat="42.93462" lon="1.17713">
        <ele>443.7</ele>
        <time>2020-08-31T10:27:03Z</time>
      </trkpt>
      <trkpt lat="42.93555" lon="1.1772">
        <ele>442.8</ele>
        <time>2020-08-31T10:27:23Z</time>
      </trkpt>
      <trkpt lat="42.93663" lon="1.17686">
        <ele>444</ele>
        <time>2020-08-31T10:27:53Z</time>
      </trkpt>
      <trkpt lat="42.93766" lon="1.1762">
        <ele>446.9</ele>
        <time>2020-08-31T10:28:13Z</time>
      </trkpt>
      <trkpt lat="42.93855" lon="1.17559">
        <ele>444.7</ele>
        <time>2020-08-31T10:28:28Z</time>
      </trkpt>
      <trkpt lat="42.93945" lon="1.17609">
        <ele>441.7</ele>
        <time>2020-08-31T10:28:43Z</time>
      </trkpt>
      <trkpt lat="42.94036" lon="1.17684">
        <ele>437.2</ele>
        <time>2020-08-31T10:29:02Z</time>
      </trkpt>
      <trkpt lat="42.94129" lon="1.17645">
        <ele>436.4</ele>
        <time>2020-08-31T10:29:27Z</time>
      </trkpt>
      <trkpt lat="42.94201" lon="1.1755">
        <ele>429.7</ele>
        <time>2020-08-31T10:29:47Z</time>
      </trkpt>
      <trkpt lat="42.9428" lon="1.1745">
        <ele>428.2</ele>
        <time>2020-08-31T10:30:07Z</time>
      </trkpt>
      <trkpt lat="42.94336" lon="1.17329">
        <ele>427.7</ele>
        <time>2020-08-31T10:30:27Z</time>
      </trkpt>
      <trkpt lat="42.94282" lon="1.17451">
        <ele>426.9</ele>
        <time>2020-08-31T10:31:33Z</time>
      </trkpt>
      <trkpt lat="42.94378" lon="1.17436">
        <ele>426.9</ele>
        <time>2020-08-31T10:32:08Z</time>
      </trkpt>
      <trkpt lat="42.94452" lon="1.17356">
        <ele>426.8</ele>
        <time>2020-08-31T10:32:28Z</time>
      </trkpt>
      <trkpt lat="42.94555" lon="1.17321">
        <ele>426.9</ele>
        <time>2020-08-31T10:32:48Z</time>
      </trkpt>
      <trkpt lat="42.94648" lon="1.17328">
        <ele>426.4</ele>
        <time>2020-08-31T10:33:08Z</time>
      </trkpt>
      <trkpt lat="42.94756" lon="1.17361">
        <ele>425.9</ele>
        <time>2020-08-31T10:33:50Z</time>
      </trkpt>
      <trkpt lat="42.94854" lon="1.17432">
        <ele>425.6</ele>
        <time>2020-08-31T10:34:15Z</time>
      </trkpt>
      <trkpt lat="42.9496" lon="1.17501">
        <ele>425.4</ele>
        <time>2020-08-31T10:34:35Z</time>
      </trkpt>
      <trkpt lat="42.9506" lon="1.17545">
        <ele>423.6</ele>
        <time>2020-08-31T10:34:50Z</time>
      </trkpt>
      <trkpt lat="42.95129" lon="1.17646">
        <ele>423.1</ele>
        <time>2020-08-31T10:35:05Z</time>
      </trkpt>
      <trkpt lat="42.95228" lon="1.17695">
        <ele>423.7</ele>
        <time>2020-08-31T10:35:25Z</time>
      </trkpt>
      <trkpt lat="42.95335" lon="1.17693">
        <ele>436.3</ele>
        <time>2020-08-31T10:35:45Z</time>
      </trkpt>
      <trkpt lat="42.95428" lon="1.17705">
        <ele>429.5</ele>
        <time>2020-08-31T10:36:00Z</time>
      </trkpt>
      <trkpt lat="42.95519" lon="1.17707">
        <ele>419.4</ele>
        <time>2020-08-31T10:36:20Z</time>
      </trkpt>
      <trkpt lat="42.95617" lon="1.17691">
        <ele>417</ele>
        <time>2020-08-31T10:36:40Z</time>
      </trkpt>
      <trkpt lat="42.95719" lon="1.17642">
        <ele>414.8</ele>
        <time>2020-08-31T10:37:05Z</time>
      </trkpt>
      <trkpt lat="42.95807" lon="1.17609">
        <ele>414.6</ele>
        <time>2020-08-31T10:37:20Z</time>
      </trkpt>
      <trkpt lat="42.95918" lon="1.17569">
        <ele>414.9</ele>
        <time>2020-08-31T10:37:40Z</time>
      </trkpt>
      <trkpt lat="42.96008" lon="1.17538">
        <ele>415</ele>
        <time>2020-08-31T10:38:00Z</time>
      </trkpt>
      <trkpt lat="42.96102" lon="1.17524">
        <ele>414.7</ele>
        <time>2020-08-31T10:38:20Z</time>
      </trkpt>
      <trkpt lat="42.96189" lon="1.1747">
        <ele>414.2</ele>
        <time>2020-08-31T10:38:40Z</time>
      </trkpt>
      <trkpt lat="42.96271" lon="1.17401">
        <ele>414.1</ele>
        <time>2020-08-31T10:39:00Z</time>
      </trkpt>
      <trkpt lat="42.96346" lon="1.173">
        <ele>413.8</ele>
        <time>2020-08-31T10:39:20Z</time>
      </trkpt>
      <trkpt lat="42.96418" lon="1.172">
        <ele>413.5</ele>
        <time>2020-08-31T10:39:40Z</time>
      </trkpt>
      <trkpt lat="42.96491" lon="1.17124">
        <ele>413.1</ele>
        <time>2020-08-31T10:40:00Z</time>
      </trkpt>
      <trkpt lat="42.96582" lon="1.17054">
        <ele>412.8</ele>
        <time>2020-08-31T10:40:25Z</time>
      </trkpt>
      <trkpt lat="42.96662" lon="1.16996">
        <ele>412.6</ele>
        <time>2020-08-31T10:40:45Z</time>
      </trkpt>
      <trkpt lat="42.96754" lon="1.1693">
        <ele>412.3</ele>
        <time>2020-08-31T10:41:05Z</time>
      </trkpt>
      <trkpt lat="42.96841" lon="1.16838">
        <ele>411.7</ele>
        <time>2020-08-31T10:41:25Z</time>
      </trkpt>
      <trkpt lat="42.96925" lon="1.16742">
        <ele>411.2</ele>
        <time>2020-08-31T10:41:45Z</time>
      </trkpt>
      <trkpt lat="42.97002" lon="1.16653">
        <ele>410.8</ele>
        <time>2020-08-31T10:42:05Z</time>
      </trkpt>
      <trkpt lat="42.97079" lon="1.16563">
        <ele>410.4</ele>
        <time>2020-08-31T10:42:25Z</time>
      </trkpt>
      <trkpt lat="42.97161" lon="1.1648">
        <ele>409.8</ele>
        <time>2020-08-31T10:42:45Z</time>
      </trkpt>
      <trkpt lat="42.9725" lon="1.16406">
        <ele>409.3</ele>
        <time>2020-08-31T10:43:05Z</time>
      </trkpt>
      <trkpt lat="42.97334" lon="1.16335">
        <ele>409.1</ele>
        <time>2020-08-31T10:43:25Z</time>
      </trkpt>
      <trkpt lat="42.9741" lon="1.16253">
        <ele>408.8</ele>
        <time>2020-08-31T10:43:45Z</time>
      </trkpt>
      <trkpt lat="42.9749" lon="1.16162">
        <ele>408.4</ele>
        <time>2020-08-31T10:44:05Z</time>
      </trkpt>
      <trkpt lat="42.97565" lon="1.16056">
        <ele>408</ele>
        <time>2020-08-31T10:44:25Z</time>
      </trkpt>
      <trkpt lat="42.97605" lon="1.15918">
        <ele>407.4</ele>
        <time>2020-08-31T10:44:45Z</time>
      </trkpt>
      <trkpt lat="42.97633" lon="1.15776">
        <ele>407</ele>
        <time>2020-08-31T10:45:05Z</time>
      </trkpt>
      <trkpt lat="42.97654" lon="1.15635">
        <ele>406.6</ele>
        <time>2020-08-31T10:45:25Z</time>
      </trkpt>
      <trkpt lat="42.97695" lon="1.15517">
        <ele>406.4</ele>
        <time>2020-08-31T10:45:45Z</time>
      </trkpt>
      <trkpt lat="42.9777" lon="1.15423">
        <ele>406</ele>
        <time>2020-08-31T10:46:05Z</time>
      </trkpt>
      <trkpt lat="42.9785" lon="1.1534">
        <ele>405.5</ele>
        <time>2020-08-31T10:46:25Z</time>
      </trkpt>
      <trkpt lat="42.97928" lon="1.15258">
        <ele>405.2</ele>
        <time>2020-08-31T10:46:45Z</time>
      </trkpt>
      <trkpt lat="42.98006" lon="1.1518">
        <ele>404.7</ele>
        <time>2020-08-31T10:47:05Z</time>
      </trkpt>
      <trkpt lat="42.98079" lon="1.15099">
        <ele>404.2</ele>
        <time>2020-08-31T10:47:25Z</time>
      </trkpt>
      <trkpt lat="42.9815" lon="1.15016">
        <ele>403.5</ele>
        <time>2020-08-31T10:48:02Z</time>
      </trkpt>
      <trkpt lat="42.98219" lon="1.1493">
        <ele>402.9</ele>
        <time>2020-08-31T10:48:22Z</time>
      </trkpt>
      <trkpt lat="42.98298" lon="1.14846">
        <ele>402.5</ele>
        <time>2020-08-31T10:48:42Z</time>
      </trkpt>
      <trkpt lat="42.98387" lon="1.14802">
        <ele>402.1</ele>
        <time>2020-08-31T10:49:02Z</time>
      </trkpt>
      <trkpt lat="42.98472" lon="1.14751">
        <ele>401.7</ele>
        <time>2020-08-31T10:49:22Z</time>
      </trkpt>
      <trkpt lat="42.98563" lon="1.14669">
        <ele>400.9</ele>
        <time>2020-08-31T10:49:47Z</time>
      </trkpt>
      <trkpt lat="42.986" lon="1.14525">
        <ele>400.3</ele>
        <time>2020-08-31T10:50:12Z</time>
      </trkpt>
      <trkpt lat="42.98639" lon="1.144">
        <ele>399.7</ele>
        <time>2020-08-31T10:50:47Z</time>
      </trkpt>
      <trkpt lat="42.98603" lon="1.14283">
        <ele>396.7</ele>
        <time>2020-08-31T11:58:45Z</time>
      </trkpt>
      <trkpt lat="42.98559" lon="1.14157">
        <ele>397.8</ele>
        <time>2020-08-31T11:59:10Z</time>
      </trkpt>
      <trkpt lat="42.98612" lon="1.1405">
        <ele>397.5</ele>
        <time>2020-08-31T11:59:40Z</time>
      </trkpt>
      <trkpt lat="42.98707" lon="1.14014">
        <ele>397.2</ele>
        <time>2020-08-31T12:00:05Z</time>
      </trkpt>
      <trkpt lat="42.98805" lon="1.13974">
        <ele>397</ele>
        <time>2020-08-31T12:00:25Z</time>
      </trkpt>
      <trkpt lat="42.98899" lon="1.1394">
        <ele>396.8</ele>
        <time>2020-08-31T12:00:45Z</time>
      </trkpt>
      <trkpt lat="42.99002" lon="1.13899">
        <ele>396.6</ele>
        <time>2020-08-31T12:01:05Z</time>
      </trkpt>
      <trkpt lat="42.99101" lon="1.1384">
        <ele>396.5</ele>
        <time>2020-08-31T12:01:25Z</time>
      </trkpt>
      <trkpt lat="42.99193" lon="1.13782">
        <ele>396.2</ele>
        <time>2020-08-31T12:01:45Z</time>
      </trkpt>
      <trkpt lat="42.99282" lon="1.13739">
        <ele>395.9</ele>
        <time>2020-08-31T12:02:05Z</time>
      </trkpt>
      <trkpt lat="42.99376" lon="1.13694">
        <ele>395.5</ele>
        <time>2020-08-31T12:02:30Z</time>
      </trkpt>
      <trkpt lat="42.99466" lon="1.13663">
        <ele>392.5</ele>
        <time>2020-08-31T12:07:32Z</time>
      </trkpt>
      <trkpt lat="42.99578" lon="1.13634">
        <ele>388.9</ele>
        <time>2020-08-31T12:08:05Z</time>
      </trkpt>
      <trkpt lat="42.99678" lon="1.13605">
        <ele>388.8</ele>
        <time>2020-08-31T12:08:24Z</time>
      </trkpt>
      <trkpt lat="42.99779" lon="1.13556">
        <ele>388.7</ele>
        <time>2020-08-31T12:08:44Z</time>
      </trkpt>
      <trkpt lat="42.99883" lon="1.13509">
        <ele>388.6</ele>
        <time>2020-08-31T12:09:04Z</time>
      </trkpt>
      <trkpt lat="42.99984" lon="1.1347">
        <ele>388.4</ele>
        <time>2020-08-31T12:09:24Z</time>
      </trkpt>
      <trkpt lat="43.00081" lon="1.13424">
        <ele>388.2</ele>
        <time>2020-08-31T12:09:49Z</time>
      </trkpt>
      <trkpt lat="43.00154" lon="1.13353">
        <ele>388.1</ele>
        <time>2020-08-31T12:10:14Z</time>
      </trkpt>
      <trkpt lat="43.0022" lon="1.1327">
        <ele>387.7</ele>
        <time>2020-08-31T12:11:29Z</time>
      </trkpt>
      <trkpt lat="43.00305" lon="1.13196">
        <ele>386.9</ele>
        <time>2020-08-31T12:11:49Z</time>
      </trkpt>
      <trkpt lat="43.00381" lon="1.13106">
        <ele>386.1</ele>
        <time>2020-08-31T12:12:14Z</time>
      </trkpt>
      <trkpt lat="43.00466" lon="1.13032">
        <ele>384</ele>
        <time>2020-08-31T12:12:39Z</time>
      </trkpt>
      <trkpt lat="43.00558" lon="1.12948">
        <ele>382.6</ele>
        <time>2020-08-31T12:13:04Z</time>
      </trkpt>
      <trkpt lat="43.00637" lon="1.12873">
        <ele>381.9</ele>
        <time>2020-08-31T12:13:30Z</time>
      </trkpt>
      <trkpt lat="43.00722" lon="1.12793">
        <ele>381.2</ele>
        <time>2020-08-31T12:14:25Z</time>
      </trkpt>
      <trkpt lat="43.00802" lon="1.12684">
        <ele>380.3</ele>
        <time>2020-08-31T12:14:50Z</time>
      </trkpt>
      <trkpt lat="43.00858" lon="1.12584">
        <ele>379.5</ele>
        <time>2020-08-31T12:15:10Z</time>
      </trkpt>
      <trkpt lat="43.00904" lon="1.12475">
        <ele>379</ele>
        <time>2020-08-31T12:15:30Z</time>
      </trkpt>
      <trkpt lat="43.00953" lon="1.12355">
        <ele>377.8</ele>
        <time>2020-08-31T12:15:50Z</time>
      </trkpt>
      <trkpt lat="43.01" lon="1.12235">
        <ele>377.3</ele>
        <time>2020-08-31T12:16:10Z</time>
      </trkpt>
      <trkpt lat="43.01045" lon="1.12126">
        <ele>377.5</ele>
        <time>2020-08-31T12:16:30Z</time>
      </trkpt>
      <trkpt lat="43.01096" lon="1.12004">
        <ele>376.3</ele>
        <time>2020-08-31T12:16:55Z</time>
      </trkpt>
      <trkpt lat="43.01155" lon="1.11885">
        <ele>375.3</ele>
        <time>2020-08-31T12:17:20Z</time>
      </trkpt>
      <trkpt lat="43.01224" lon="1.11766">
        <ele>374.8</ele>
        <time>2020-08-31T12:17:45Z</time>
      </trkpt>
      <trkpt lat="43.01295" lon="1.11649">
        <ele>374.2</ele>
        <time>2020-08-31T12:18:10Z</time>
      </trkpt>
      <trkpt lat="43.01358" lon="1.11562">
        <ele>373.4</ele>
        <time>2020-08-31T12:18:30Z</time>
      </trkpt>
      <trkpt lat="43.01426" lon="1.1148">
        <ele>372.7</ele>
        <time>2020-08-31T12:18:50Z</time>
      </trkpt>
      <trkpt lat="43.01513" lon="1.11387">
        <ele>372.2</ele>
        <time>2020-08-31T12:19:15Z</time>
      </trkpt>
      <trkpt lat="43.01587" lon="1.11302">
        <ele>372</ele>
        <time>2020-08-31T12:19:40Z</time>
      </trkpt>
      <trkpt lat="43.01664" lon="1.11218">
        <ele>372.1</ele>
        <time>2020-08-31T12:20:05Z</time>
      </trkpt>
      <trkpt lat="43.01746" lon="1.1113">
        <ele>371.7</ele>
        <time>2020-08-31T12:20:30Z</time>
      </trkpt>
      <trkpt lat="43.01829" lon="1.11037">
        <ele>371.3</ele>
        <time>2020-08-31T12:20:55Z</time>
      </trkpt>
      <trkpt lat="43.01918" lon="1.10944">
        <ele>370.9</ele>
        <time>2020-08-31T12:21:20Z</time>
      </trkpt>
      <trkpt lat="43.01988" lon="1.10867">
        <ele>370.6</ele>
        <time>2020-08-31T12:21:40Z</time>
      </trkpt>
      <trkpt lat="43.0206" lon="1.10787">
        <ele>370.3</ele>
        <time>2020-08-31T12:22:00Z</time>
      </trkpt>
      <trkpt lat="43.02144" lon="1.10697">
        <ele>370.2</ele>
        <time>2020-08-31T12:22:25Z</time>
      </trkpt>
      <trkpt lat="43.02215" lon="1.10612">
        <ele>370.3</ele>
        <time>2020-08-31T12:22:45Z</time>
      </trkpt>
      <trkpt lat="43.0229" lon="1.10502">
        <ele>370.1</ele>
        <time>2020-08-31T12:23:10Z</time>
      </trkpt>
      <trkpt lat="43.02356" lon="1.10375">
        <ele>369.9</ele>
        <time>2020-08-31T12:23:35Z</time>
      </trkpt>
      <trkpt lat="43.02406" lon="1.10266">
        <ele>369.5</ele>
        <time>2020-08-31T12:23:55Z</time>
      </trkpt>
      <trkpt lat="43.02448" lon="1.10124">
        <ele>369.1</ele>
        <time>2020-08-31T12:24:20Z</time>
      </trkpt>
      <trkpt lat="43.02478" lon="1.1">
        <ele>368.8</ele>
        <time>2020-08-31T12:24:40Z</time>
      </trkpt>
      <trkpt lat="43.02498" lon="1.0988">
        <ele>368.5</ele>
        <time>2020-08-31T12:25:00Z</time>
      </trkpt>
      <trkpt lat="43.02519" lon="1.09754">
        <ele>368.5</ele>
        <time>2020-08-31T12:25:20Z</time>
      </trkpt>
      <trkpt lat="43.02546" lon="1.09618">
        <ele>368.4</ele>
        <time>2020-08-31T12:25:40Z</time>
      </trkpt>
      <trkpt lat="43.02572" lon="1.09486">
        <ele>368.3</ele>
        <time>2020-08-31T12:26:00Z</time>
      </trkpt>
      <trkpt lat="43.0261" lon="1.09363">
        <ele>368.3</ele>
        <time>2020-08-31T12:26:20Z</time>
      </trkpt>
      <trkpt lat="43.02648" lon="1.09249">
        <ele>367.9</ele>
        <time>2020-08-31T12:26:40Z</time>
      </trkpt>
      <trkpt lat="43.02694" lon="1.09139">
        <ele>367.2</ele>
        <time>2020-08-31T12:27:00Z</time>
      </trkpt>
      <trkpt lat="43.02754" lon="1.09029">
        <ele>366.9</ele>
        <time>2020-08-31T12:27:20Z</time>
      </trkpt>
      <trkpt lat="43.02818" lon="1.08928">
        <ele>367</ele>
        <time>2020-08-31T12:27:40Z</time>
      </trkpt>
      <trkpt lat="43.02878" lon="1.08829">
        <ele>367</ele>
        <time>2020-08-31T12:28:00Z</time>
      </trkpt>
      <trkpt lat="43.02937" lon="1.08736">
        <ele>367.1</ele>
        <time>2020-08-31T12:28:20Z</time>
      </trkpt>
      <trkpt lat="43.02996" lon="1.08637">
        <ele>367.1</ele>
        <time>2020-08-31T12:28:40Z</time>
      </trkpt>
      <trkpt lat="43.03062" lon="1.0852">
        <ele>367.1</ele>
        <time>2020-08-31T12:29:05Z</time>
      </trkpt>
      <trkpt lat="43.0313" lon="1.08406">
        <ele>367.1</ele>
        <time>2020-08-31T12:29:30Z</time>
      </trkpt>
      <trkpt lat="43.0319" lon="1.08299">
        <ele>367.1</ele>
        <time>2020-08-31T12:29:55Z</time>
      </trkpt>
      <trkpt lat="43.03243" lon="1.08193">
        <ele>367.2</ele>
        <time>2020-08-31T12:30:15Z</time>
      </trkpt>
      <trkpt lat="43.03291" lon="1.08056">
        <ele>366.9</ele>
        <time>2020-08-31T12:30:40Z</time>
      </trkpt>
      <trkpt lat="43.03325" lon="1.0792">
        <ele>366.2</ele>
        <time>2020-08-31T12:31:05Z</time>
      </trkpt>
      <trkpt lat="43.03355" lon="1.07795">
        <ele>364.9</ele>
        <time>2020-08-31T12:31:25Z</time>
      </trkpt>
      <trkpt lat="43.03388" lon="1.0767">
        <ele>364</ele>
        <time>2020-08-31T12:31:45Z</time>
      </trkpt>
      <trkpt lat="43.03421" lon="1.07539">
        <ele>363.6</ele>
        <time>2020-08-31T12:32:05Z</time>
      </trkpt>
      <trkpt lat="43.03451" lon="1.07416">
        <ele>362.9</ele>
        <time>2020-08-31T12:32:25Z</time>
      </trkpt>
      <trkpt lat="43.03481" lon="1.0729">
        <ele>362</ele>
        <time>2020-08-31T12:32:44Z</time>
      </trkpt>
      <trkpt lat="43.0351" lon="1.0716">
        <ele>361.4</ele>
        <time>2020-08-31T12:33:04Z</time>
      </trkpt>
      <trkpt lat="43.0355" lon="1.07038">
        <ele>361</ele>
        <time>2020-08-31T12:33:24Z</time>
      </trkpt>
      <trkpt lat="43.03591" lon="1.06923">
        <ele>360.4</ele>
        <time>2020-08-31T12:33:44Z</time>
      </trkpt>
      <trkpt lat="43.03638" lon="1.06807">
        <ele>359.6</ele>
        <time>2020-08-31T12:34:04Z</time>
      </trkpt>
      <trkpt lat="43.03688" lon="1.06694">
        <ele>359</ele>
        <time>2020-08-31T12:34:24Z</time>
      </trkpt>
      <trkpt lat="43.03737" lon="1.06581">
        <ele>358.1</ele>
        <time>2020-08-31T12:34:44Z</time>
      </trkpt>
      <trkpt lat="43.03794" lon="1.0648">
        <ele>357.2</ele>
        <time>2020-08-31T12:35:04Z</time>
      </trkpt>
      <trkpt lat="43.03859" lon="1.06376">
        <ele>356.2</ele>
        <time>2020-08-31T12:35:29Z</time>
      </trkpt>
      <trkpt lat="43.03885" lon="1.06237">
        <ele>355.2</ele>
        <time>2020-08-31T12:35:49Z</time>
      </trkpt>
      <trkpt lat="43.0389" lon="1.06112">
        <ele>350.5</ele>
        <time>2020-08-31T12:43:01Z</time>
      </trkpt>
      <trkpt lat="43.03874" lon="1.05961">
        <ele>349</ele>
        <time>2020-08-31T12:43:26Z</time>
      </trkpt>
      <trkpt lat="43.03789" lon="1.05894">
        <ele>348.4</ele>
        <time>2020-08-31T12:43:51Z</time>
      </trkpt>
      <trkpt lat="43.03705" lon="1.05812">
        <ele>348.2</ele>
        <time>2020-08-31T12:44:32Z</time>
      </trkpt>
      <trkpt lat="43.03632" lon="1.05714">
        <ele>347.7</ele>
        <time>2020-08-31T12:44:57Z</time>
      </trkpt>
      <trkpt lat="43.0357" lon="1.05591">
        <ele>347.3</ele>
        <time>2020-08-31T12:45:17Z</time>
      </trkpt>
      <trkpt lat="43.03546" lon="1.0544">
        <ele>346.9</ele>
        <time>2020-08-31T12:45:37Z</time>
      </trkpt>
      <trkpt lat="43.03527" lon="1.05306">
        <ele>346.4</ele>
        <time>2020-08-31T12:45:57Z</time>
      </trkpt>
      <trkpt lat="43.03509" lon="1.05169">
        <ele>346</ele>
        <time>2020-08-31T12:46:17Z</time>
      </trkpt>
      <trkpt lat="43.03492" lon="1.05015">
        <ele>345.5</ele>
        <time>2020-08-31T12:46:37Z</time>
      </trkpt>
      <trkpt lat="43.03474" lon="1.04862">
        <ele>345</ele>
        <time>2020-08-31T12:46:57Z</time>
      </trkpt>
      <trkpt lat="43.03456" lon="1.04716">
        <ele>344.5</ele>
        <time>2020-08-31T12:47:17Z</time>
      </trkpt>
      <trkpt lat="43.0344" lon="1.0459">
        <ele>343.8</ele>
        <time>2020-08-31T12:47:37Z</time>
      </trkpt>
      <trkpt lat="43.03423" lon="1.0445">
        <ele>343</ele>
        <time>2020-08-31T12:48:02Z</time>
      </trkpt>
      <trkpt lat="43.03407" lon="1.04309">
        <ele>342.3</ele>
        <time>2020-08-31T12:48:27Z</time>
      </trkpt>
      <trkpt lat="43.03391" lon="1.04183">
        <ele>341.7</ele>
        <time>2020-08-31T12:48:47Z</time>
      </trkpt>
      <trkpt lat="43.03374" lon="1.04046">
        <ele>341.1</ele>
        <time>2020-08-31T12:49:07Z</time>
      </trkpt>
      <trkpt lat="43.03357" lon="1.03911">
        <ele>340.4</ele>
        <time>2020-08-31T12:49:27Z</time>
      </trkpt>
      <trkpt lat="43.03343" lon="1.03779">
        <ele>339.7</ele>
        <time>2020-08-31T12:49:47Z</time>
      </trkpt>
      <trkpt lat="43.03326" lon="1.03643">
        <ele>339.1</ele>
        <time>2020-08-31T12:50:07Z</time>
      </trkpt>
      <trkpt lat="43.0331" lon="1.03506">
        <ele>338.6</ele>
        <time>2020-08-31T12:50:32Z</time>
      </trkpt>
      <trkpt lat="43.03294" lon="1.03382">
        <ele>337.9</ele>
        <time>2020-08-31T12:50:52Z</time>
      </trkpt>
      <trkpt lat="43.03277" lon="1.03242">
        <ele>337.3</ele>
        <time>2020-08-31T12:51:12Z</time>
      </trkpt>
      <trkpt lat="43.03261" lon="1.03105">
        <ele>336.8</ele>
        <time>2020-08-31T12:51:32Z</time>
      </trkpt>
      <trkpt lat="43.03253" lon="1.02965">
        <ele>336.3</ele>
        <time>2020-08-31T12:51:57Z</time>
      </trkpt>
      <trkpt lat="43.0322" lon="1.02829">
        <ele>335.9</ele>
        <time>2020-08-31T12:52:22Z</time>
      </trkpt>
      <trkpt lat="43.03253" lon="1.02694">
        <ele>335.4</ele>
        <time>2020-08-31T12:52:57Z</time>
      </trkpt>
      <trkpt lat="43.03236" lon="1.02546">
        <ele>335.1</ele>
        <time>2020-08-31T12:53:22Z</time>
      </trkpt>
      <trkpt lat="43.03219" lon="1.02397">
        <ele>334.8</ele>
        <time>2020-08-31T12:53:47Z</time>
      </trkpt>
      <trkpt lat="43.032" lon="1.02247">
        <ele>334.6</ele>
        <time>2020-08-31T12:54:12Z</time>
      </trkpt>
      <trkpt lat="43.03184" lon="1.02102">
        <ele>334.3</ele>
        <time>2020-08-31T12:54:44Z</time>
      </trkpt>
      <trkpt lat="43.0317" lon="1.01967">
        <ele>334</ele>
        <time>2020-08-31T12:55:04Z</time>
      </trkpt>
      <trkpt lat="43.03159" lon="1.01826">
        <ele>333.7</ele>
        <time>2020-08-31T12:55:29Z</time>
      </trkpt>
      <trkpt lat="43.03164" lon="1.01687">
        <ele>333.2</ele>
        <time>2020-08-31T12:55:54Z</time>
      </trkpt>
      <trkpt lat="43.03116" lon="1.01575">
        <ele>332.9</ele>
        <time>2020-08-31T12:56:34Z</time>
      </trkpt>
      <trkpt lat="43.03153" lon="1.01452">
        <ele>332.1</ele>
        <time>2020-08-31T12:56:59Z</time>
      </trkpt>
      <trkpt lat="43.03169" lon="1.01312">
        <ele>331.7</ele>
        <time>2020-08-31T12:57:23Z</time>
      </trkpt>
      <trkpt lat="43.03191" lon="1.01171">
        <ele>331.4</ele>
        <time>2020-08-31T12:57:48Z</time>
      </trkpt>
      <trkpt lat="43.03209" lon="1.01022">
        <ele>331.2</ele>
        <time>2020-08-31T12:58:13Z</time>
      </trkpt>
      <trkpt lat="43.03227" lon="1.00888">
        <ele>330.8</ele>
        <time>2020-08-31T12:58:33Z</time>
      </trkpt>
      <trkpt lat="43.03247" lon="1.00748">
        <ele>330.4</ele>
        <time>2020-08-31T12:58:53Z</time>
      </trkpt>
      <trkpt lat="43.03266" lon="1.00608">
        <ele>330.1</ele>
        <time>2020-08-31T12:59:13Z</time>
      </trkpt>
      <trkpt lat="43.03282" lon="1.0048">
        <ele>329.8</ele>
        <time>2020-08-31T12:59:33Z</time>
      </trkpt>
      <trkpt lat="43.03264" lon="1.00334">
        <ele>329.6</ele>
        <time>2020-08-31T12:59:58Z</time>
      </trkpt>
      <trkpt lat="43.03211" lon="1.0021">
        <ele>329.4</ele>
        <time>2020-08-31T13:00:23Z</time>
      </trkpt>
      <trkpt lat="43.03226" lon="1.00074">
        <ele>329.3</ele>
        <time>2020-08-31T13:00:53Z</time>
      </trkpt>
      <trkpt lat="43.03275" lon="0.99967">
        <ele>329</ele>
        <time>2020-08-31T13:01:13Z</time>
      </trkpt>
      <trkpt lat="43.03332" lon="0.99865">
        <ele>328.2</ele>
        <time>2020-08-31T13:01:28Z</time>
      </trkpt>
      <trkpt lat="43.03397" lon="0.99773">
        <ele>327.1</ele>
        <time>2020-08-31T13:01:43Z</time>
      </trkpt>
      <trkpt lat="43.03462" lon="0.99688">
        <ele>325.9</ele>
        <time>2020-08-31T13:01:58Z</time>
      </trkpt>
      <trkpt lat="43.03543" lon="0.99589">
        <ele>323.5</ele>
        <time>2020-08-31T13:02:18Z</time>
      </trkpt>
      <trkpt lat="43.0362" lon="0.99501">
        <ele>323</ele>
        <time>2020-08-31T13:02:38Z</time>
      </trkpt>
      <trkpt lat="43.03709" lon="0.99415">
        <ele>325.2</ele>
        <time>2020-08-31T13:03:03Z</time>
      </trkpt>
      <trkpt lat="43.03814" lon="0.99424">
        <ele>325.3</ele>
        <time>2020-08-31T13:03:33Z</time>
      </trkpt>
      <trkpt lat="43.03906" lon="0.9945">
        <ele>326.2</ele>
        <time>2020-08-31T13:04:44Z</time>
      </trkpt>
      <trkpt lat="43.03997" lon="0.99406">
        <ele>324.8</ele>
        <time>2020-08-31T13:05:14Z</time>
      </trkpt>
      <trkpt lat="43.04087" lon="0.99346">
        <ele>322.5</ele>
        <time>2020-08-31T13:05:34Z</time>
      </trkpt>
      <trkpt lat="43.04176" lon="0.99263">
        <ele>320.8</ele>
        <time>2020-08-31T13:05:54Z</time>
      </trkpt>
      <trkpt lat="43.04255" lon="0.99181">
        <ele>320.4</ele>
        <time>2020-08-31T13:06:14Z</time>
      </trkpt>
      <trkpt lat="43.04344" lon="0.99098">
        <ele>318.9</ele>
        <time>2020-08-31T13:06:39Z</time>
      </trkpt>
      <trkpt lat="43.04417" lon="0.99026">
        <ele>317.8</ele>
        <time>2020-08-31T13:06:59Z</time>
      </trkpt>
      <trkpt lat="43.04498" lon="0.98945">
        <ele>316.9</ele>
        <time>2020-08-31T13:07:24Z</time>
      </trkpt>
      <trkpt lat="43.04581" lon="0.98866">
        <ele>315.8</ele>
        <time>2020-08-31T13:07:49Z</time>
      </trkpt>
      <trkpt lat="43.04654" lon="0.98794">
        <ele>315.6</ele>
        <time>2020-08-31T13:08:09Z</time>
      </trkpt>
      <trkpt lat="43.04726" lon="0.98716">
        <ele>315.3</ele>
        <time>2020-08-31T13:08:29Z</time>
      </trkpt>
      <trkpt lat="43.04799" lon="0.98644">
        <ele>315.1</ele>
        <time>2020-08-31T13:08:49Z</time>
      </trkpt>
      <trkpt lat="43.04884" lon="0.98563">
        <ele>315.1</ele>
        <time>2020-08-31T13:09:14Z</time>
      </trkpt>
      <trkpt lat="43.04972" lon="0.98475">
        <ele>315.1</ele>
        <time>2020-08-31T13:09:39Z</time>
      </trkpt>
      <trkpt lat="43.05058" lon="0.98409">
        <ele>314.7</ele>
        <time>2020-08-31T13:09:59Z</time>
      </trkpt>
      <trkpt lat="43.05148" lon="0.98354">
        <ele>314.4</ele>
        <time>2020-08-31T13:10:19Z</time>
      </trkpt>
      <trkpt lat="43.05238" lon="0.98305">
        <ele>314</ele>
        <time>2020-08-31T13:10:39Z</time>
      </trkpt>
      <trkpt lat="43.05334" lon="0.98265">
        <ele>313.6</ele>
        <time>2020-08-31T13:10:59Z</time>
      </trkpt>
      <trkpt lat="43.0543" lon="0.98223">
        <ele>313.2</ele>
        <time>2020-08-31T13:11:19Z</time>
      </trkpt>
      <trkpt lat="43.05517" lon="0.98184">
        <ele>313.1</ele>
        <time>2020-08-31T13:11:39Z</time>
      </trkpt>
      <trkpt lat="43.05601" lon="0.98136">
        <ele>312.2</ele>
        <time>2020-08-31T13:14:06Z</time>
      </trkpt>
      <trkpt lat="43.05698" lon="0.98094">
        <ele>311.7</ele>
        <time>2020-08-31T13:14:31Z</time>
      </trkpt>
      <trkpt lat="43.05794" lon="0.98052">
        <ele>311.5</ele>
        <time>2020-08-31T13:14:56Z</time>
      </trkpt>
      <trkpt lat="43.0589" lon="0.98011">
        <ele>311.1</ele>
        <time>2020-08-31T13:15:21Z</time>
      </trkpt>
      <trkpt lat="43.05986" lon="0.97961">
        <ele>310.9</ele>
        <time>2020-08-31T13:15:46Z</time>
      </trkpt>
      <trkpt lat="43.06091" lon="0.97902">
        <ele>310.8</ele>
        <time>2020-08-31T13:16:11Z</time>
      </trkpt>
      <trkpt lat="43.06177" lon="0.97843">
        <ele>310.6</ele>
        <time>2020-08-31T13:16:31Z</time>
      </trkpt>
      <trkpt lat="43.06264" lon="0.97775">
        <ele>310.3</ele>
        <time>2020-08-31T13:16:51Z</time>
      </trkpt>
      <trkpt lat="43.06347" lon="0.97699">
        <ele>309.4</ele>
        <time>2020-08-31T13:17:11Z</time>
      </trkpt>
      <trkpt lat="43.06431" lon="0.97621">
        <ele>309.2</ele>
        <time>2020-08-31T13:17:31Z</time>
      </trkpt>
      <trkpt lat="43.06504" lon="0.97536">
        <ele>308.8</ele>
        <time>2020-08-31T13:17:56Z</time>
      </trkpt>
      <trkpt lat="43.06586" lon="0.97436">
        <ele>307.9</ele>
        <time>2020-08-31T13:18:26Z</time>
      </trkpt>
      <trkpt lat="43.06657" lon="0.97347">
        <ele>307.5</ele>
        <time>2020-08-31T13:18:46Z</time>
      </trkpt>
      <trkpt lat="43.06726" lon="0.97258">
        <ele>307.1</ele>
        <time>2020-08-31T13:19:06Z</time>
      </trkpt>
      <trkpt lat="43.06798" lon="0.97161">
        <ele>306.6</ele>
        <time>2020-08-31T13:19:31Z</time>
      </trkpt>
      <trkpt lat="43.06872" lon="0.97066">
        <ele>306.1</ele>
        <time>2020-08-31T13:19:51Z</time>
      </trkpt>
      <trkpt lat="43.0695" lon="0.96965">
        <ele>305.8</ele>
        <time>2020-08-31T13:20:11Z</time>
      </trkpt>
      <trkpt lat="43.07026" lon="0.96867">
        <ele>305.5</ele>
        <time>2020-08-31T13:20:31Z</time>
      </trkpt>
      <trkpt lat="43.07102" lon="0.96766">
        <ele>304.9</ele>
        <time>2020-08-31T13:20:51Z</time>
      </trkpt>
      <trkpt lat="43.07176" lon="0.96674">
        <ele>304.4</ele>
        <time>2020-08-31T13:21:11Z</time>
      </trkpt>
      <trkpt lat="43.07245" lon="0.96583">
        <ele>303.8</ele>
        <time>2020-08-31T13:21:31Z</time>
      </trkpt>
      <trkpt lat="43.0732" lon="0.96483">
        <ele>303.5</ele>
        <time>2020-08-31T13:21:50Z</time>
      </trkpt>
      <trkpt lat="43.07394" lon="0.96389">
        <ele>303</ele>
        <time>2020-08-31T13:22:10Z</time>
      </trkpt>
      <trkpt lat="43.07449" lon="0.96262">
        <ele>302.7</ele>
        <time>2020-08-31T13:22:35Z</time>
      </trkpt>
      <trkpt lat="43.07516" lon="0.96179">
        <ele>302.4</ele>
        <time>2020-08-31T13:22:55Z</time>
      </trkpt>
      <trkpt lat="43.07594" lon="0.96081">
        <ele>301.9</ele>
        <time>2020-08-31T13:23:20Z</time>
      </trkpt>
      <trkpt lat="43.07668" lon="0.95987">
        <ele>301.6</ele>
        <time>2020-08-31T13:23:45Z</time>
      </trkpt>
      <trkpt lat="43.07753" lon="0.95915">
        <ele>300.7</ele>
        <time>2020-08-31T13:25:41Z</time>
      </trkpt>
      <trkpt lat="43.07793" lon="0.95801">
        <ele>299.8</ele>
        <time>2020-08-31T13:26:11Z</time>
      </trkpt>
      <trkpt lat="43.07862" lon="0.95721">
        <ele>299.8</ele>
        <time>2020-08-31T13:26:46Z</time>
      </trkpt>
      <trkpt lat="43.07915" lon="0.95611">
        <ele>299.8</ele>
        <time>2020-08-31T13:27:21Z</time>
      </trkpt>
      <trkpt lat="43.0796" lon="0.95464">
        <ele>300.1</ele>
        <time>2020-08-31T13:27:41Z</time>
      </trkpt>
      <trkpt lat="43.08038" lon="0.95361">
        <ele>299.7</ele>
        <time>2020-08-31T13:27:56Z</time>
      </trkpt>
      <trkpt lat="43.08118" lon="0.95268">
        <ele>299.6</ele>
        <time>2020-08-31T13:28:11Z</time>
      </trkpt>
      <trkpt lat="43.08187" lon="0.95182">
        <ele>300.3</ele>
        <time>2020-08-31T13:28:26Z</time>
      </trkpt>
      <trkpt lat="43.08275" lon="0.95148">
        <ele>298.8</ele>
        <time>2020-08-31T13:28:46Z</time>
      </trkpt>
      <trkpt lat="43.08308" lon="0.95025">
        <ele>299.2</ele>
        <time>2020-08-31T13:29:11Z</time>
      </trkpt>
      <trkpt lat="43.08347" lon="0.94911">
        <ele>300.7</ele>
        <time>2020-08-31T13:29:56Z</time>
      </trkpt>
      <trkpt lat="43.08391" lon="0.94788">
        <ele>302.3</ele>
        <time>2020-08-31T13:30:36Z</time>
      </trkpt>
      <trkpt lat="43.08421" lon="0.94661">
        <ele>304.4</ele>
        <time>2020-08-31T13:31:21Z</time>
      </trkpt>
      <trkpt lat="43.08423" lon="0.94525">
        <ele>309.3</ele>
        <time>2020-08-31T13:32:29Z</time>
      </trkpt>
      <trkpt lat="43.08434" lon="0.94397">
        <ele>314.5</ele>
        <time>2020-08-31T13:33:17Z</time>
      </trkpt>
      <trkpt lat="43.08425" lon="0.94264">
        <ele>319.6</ele>
        <time>2020-08-31T13:34:12Z</time>
      </trkpt>
      <trkpt lat="43.08379" lon="0.94147">
        <ele>323.2</ele>
        <time>2020-08-31T13:35:09Z</time>
      </trkpt>
      <trkpt lat="43.08355" lon="0.94022">
        <ele>326.7</ele>
        <time>2020-08-31T13:36:09Z</time>
      </trkpt>
      <trkpt lat="43.08408" lon="0.93911">
        <ele>331.3</ele>
        <time>2020-08-31T13:37:10Z</time>
      </trkpt>
      <trkpt lat="43.08479" lon="0.93818">
        <ele>336.1</ele>
        <time>2020-08-31T13:38:09Z</time>
      </trkpt>
      <trkpt lat="43.08539" lon="0.93726">
        <ele>340.3</ele>
        <time>2020-08-31T13:38:59Z</time>
      </trkpt>
      <trkpt lat="43.0859" lon="0.93614">
        <ele>343.5</ele>
        <time>2020-08-31T13:39:39Z</time>
      </trkpt>
      <trkpt lat="43.08637" lon="0.93503">
        <ele>346.3</ele>
        <time>2020-08-31T13:40:14Z</time>
      </trkpt>
      <trkpt lat="43.08662" lon="0.93378">
        <ele>349.3</ele>
        <time>2020-08-31T13:40:54Z</time>
      </trkpt>
      <trkpt lat="43.08697" lon="0.93252">
        <ele>353.6</ele>
        <time>2020-08-31T13:41:49Z</time>
      </trkpt>
      <trkpt lat="43.08739" lon="0.93133">
        <ele>360.2</ele>
        <time>2020-08-31T13:42:51Z</time>
      </trkpt>
      <trkpt lat="43.08781" lon="0.93021">
        <ele>369.1</ele>
        <time>2020-08-31T13:43:41Z</time>
      </trkpt>
      <trkpt lat="43.08812" lon="0.92897">
        <ele>379.4</ele>
        <time>2020-08-31T13:44:11Z</time>
      </trkpt>
      <trkpt lat="43.0881" lon="0.92749">
        <ele>382.6</ele>
        <time>2020-08-31T13:44:31Z</time>
      </trkpt>
      <trkpt lat="43.08799" lon="0.92624">
        <ele>383.6</ele>
        <time>2020-08-31T13:44:56Z</time>
      </trkpt>
      <trkpt lat="43.08786" lon="0.92501">
        <ele>385</ele>
        <time>2020-08-31T13:45:26Z</time>
      </trkpt>
      <trkpt lat="43.08763" lon="0.92374">
        <ele>389.2</ele>
        <time>2020-08-31T13:45:46Z</time>
      </trkpt>
      <trkpt lat="43.08724" lon="0.92229">
        <ele>390.5</ele>
        <time>2020-08-31T13:46:01Z</time>
      </trkpt>
      <trkpt lat="43.08686" lon="0.92108">
        <ele>392.4</ele>
        <time>2020-08-31T13:46:15Z</time>
      </trkpt>
      <trkpt lat="43.08646" lon="0.91989">
        <ele>394.5</ele>
        <time>2020-08-31T13:46:40Z</time>
      </trkpt>
      <trkpt lat="43.08616" lon="0.91867">
        <ele>398.8</ele>
        <time>2020-08-31T13:47:29Z</time>
      </trkpt>
      <trkpt lat="43.08553" lon="0.91743">
        <ele>405.6</ele>
        <time>2020-08-31T13:47:54Z</time>
      </trkpt>
      <trkpt lat="43.0849" lon="0.91639">
        <ele>407.1</ele>
        <time>2020-08-31T13:48:14Z</time>
      </trkpt>
      <trkpt lat="43.08487" lon="0.91501">
        <ele>408.1</ele>
        <time>2020-08-31T13:48:49Z</time>
      </trkpt>
      <trkpt lat="43.08533" lon="0.91386">
        <ele>409.6</ele>
        <time>2020-08-31T13:49:19Z</time>
      </trkpt>
      <trkpt lat="43.08583" lon="0.91273">
        <ele>412.7</ele>
        <time>2020-08-31T13:49:44Z</time>
      </trkpt>
      <trkpt lat="43.08649" lon="0.91188">
        <ele>414.1</ele>
        <time>2020-08-31T13:50:04Z</time>
      </trkpt>
      <trkpt lat="43.08682" lon="0.91048">
        <ele>414.3</ele>
        <time>2020-08-31T13:50:29Z</time>
      </trkpt>
      <trkpt lat="43.08682" lon="0.90891">
        <ele>413.6</ele>
        <time>2020-08-31T13:50:44Z</time>
      </trkpt>
      <trkpt lat="43.08652" lon="0.90753">
        <ele>412.3</ele>
        <time>2020-08-31T13:50:54Z</time>
      </trkpt>
      <trkpt lat="43.08632" lon="0.90602">
        <ele>412.1</ele>
        <time>2020-08-31T13:51:04Z</time>
      </trkpt>
      <trkpt lat="43.08618" lon="0.90467">
        <ele>410.6</ele>
        <time>2020-08-31T13:51:14Z</time>
      </trkpt>
      <trkpt lat="43.08621" lon="0.90331">
        <ele>409.5</ele>
        <time>2020-08-31T13:51:48Z</time>
      </trkpt>
      <trkpt lat="43.08579" lon="0.90198">
        <ele>408.3</ele>
        <time>2020-08-31T13:52:08Z</time>
      </trkpt>
      <trkpt lat="43.08541" lon="0.90085">
        <ele>407.5</ele>
        <time>2020-08-31T13:52:28Z</time>
      </trkpt>
      <trkpt lat="43.08507" lon="0.89943">
        <ele>405.9</ele>
        <time>2020-08-31T13:52:53Z</time>
      </trkpt>
      <trkpt lat="43.08468" lon="0.89819">
        <ele>403.2</ele>
        <time>2020-08-31T13:53:13Z</time>
      </trkpt>
      <trkpt lat="43.08427" lon="0.89703">
        <ele>402</ele>
        <time>2020-08-31T13:53:33Z</time>
      </trkpt>
      <trkpt lat="43.08347" lon="0.89637">
        <ele>401.8</ele>
        <time>2020-08-31T13:53:58Z</time>
      </trkpt>
      <trkpt lat="43.08253" lon="0.89597">
        <ele>402.3</ele>
        <time>2020-08-31T13:54:38Z</time>
      </trkpt>
      <trkpt lat="43.08152" lon="0.8957">
        <ele>403.1</ele>
        <time>2020-08-31T13:55:18Z</time>
      </trkpt>
      <trkpt lat="43.08056" lon="0.89561">
        <ele>403.7</ele>
        <time>2020-08-31T13:55:48Z</time>
      </trkpt>
      <trkpt lat="43.07974" lon="0.89482">
        <ele>405.2</ele>
        <time>2020-08-31T13:56:33Z</time>
      </trkpt>
      <trkpt lat="43.0793" lon="0.89354">
        <ele>408.4</ele>
        <time>2020-08-31T13:57:03Z</time>
      </trkpt>
      <trkpt lat="43.07885" lon="0.89207">
        <ele>408.8</ele>
        <time>2020-08-31T13:57:23Z</time>
      </trkpt>
      <trkpt lat="43.07832" lon="0.89106">
        <ele>410.3</ele>
        <time>2020-08-31T13:57:43Z</time>
      </trkpt>
      <trkpt lat="43.07775" lon="0.88998">
        <ele>410.9</ele>
        <time>2020-08-31T13:58:13Z</time>
      </trkpt>
      <trkpt lat="43.07706" lon="0.88908">
        <ele>412.6</ele>
        <time>2020-08-31T13:58:54Z</time>
      </trkpt>
      <trkpt lat="43.0763" lon="0.88826">
        <ele>413.7</ele>
        <time>2020-08-31T14:00:14Z</time>
      </trkpt>
      <trkpt lat="43.07564" lon="0.88707">
        <ele>414.8</ele>
        <time>2020-08-31T14:00:34Z</time>
      </trkpt>
      <trkpt lat="43.07523" lon="0.88583">
        <ele>416</ele>
        <time>2020-08-31T14:01:04Z</time>
      </trkpt>
      <trkpt lat="43.07522" lon="0.88449">
        <ele>419</ele>
        <time>2020-08-31T14:01:57Z</time>
      </trkpt>
      <trkpt lat="43.07539" lon="0.88323">
        <ele>420.7</ele>
        <time>2020-08-31T14:02:32Z</time>
      </trkpt>
      <trkpt lat="43.07541" lon="0.88192">
        <ele>422.2</ele>
        <time>2020-08-31T14:03:02Z</time>
      </trkpt>
      <trkpt lat="43.07547" lon="0.8806">
        <ele>424.4</ele>
        <time>2020-08-31T14:03:37Z</time>
      </trkpt>
      <trkpt lat="43.07485" lon="0.87931">
        <ele>425.2</ele>
        <time>2020-08-31T14:03:57Z</time>
      </trkpt>
      <trkpt lat="43.07391" lon="0.87833">
        <ele>424.7</ele>
        <time>2020-08-31T14:04:12Z</time>
      </trkpt>
      <trkpt lat="43.07362" lon="0.87685">
        <ele>425.6</ele>
        <time>2020-08-31T14:04:27Z</time>
      </trkpt>
      <trkpt lat="43.07397" lon="0.87536">
        <ele>426</ele>
        <time>2020-08-31T14:04:52Z</time>
      </trkpt>
      <trkpt lat="43.07481" lon="0.87411">
        <ele>422.1</ele>
        <time>2020-08-31T14:05:07Z</time>
      </trkpt>
      <trkpt lat="43.07561" lon="0.87277">
        <ele>419.5</ele>
        <time>2020-08-31T14:05:22Z</time>
      </trkpt>
      <trkpt lat="43.07609" lon="0.87155">
        <ele>415.9</ele>
        <time>2020-08-31T14:05:37Z</time>
      </trkpt>
      <trkpt lat="43.07644" lon="0.87011">
        <ele>413.7</ele>
        <time>2020-08-31T14:05:52Z</time>
      </trkpt>
      <trkpt lat="43.07676" lon="0.86895">
        <ele>411.8</ele>
        <time>2020-08-31T14:06:02Z</time>
      </trkpt>
      <trkpt lat="43.07748" lon="0.86813">
        <ele>409</ele>
        <time>2020-08-31T14:06:12Z</time>
      </trkpt>
      <trkpt lat="43.07865" lon="0.86763">
        <ele>404.2</ele>
        <time>2020-08-31T14:06:27Z</time>
      </trkpt>
      <trkpt lat="43.07951" lon="0.86712">
        <ele>401</ele>
        <time>2020-08-31T14:06:42Z</time>
      </trkpt>
      <trkpt lat="43.08028" lon="0.86597">
        <ele>396.4</ele>
        <time>2020-08-31T14:07:02Z</time>
      </trkpt>
      <trkpt lat="43.08077" lon="0.86491">
        <ele>394.7</ele>
        <time>2020-08-31T14:07:17Z</time>
      </trkpt>
      <trkpt lat="43.08124" lon="0.86379">
        <ele>391.9</ele>
        <time>2020-08-31T14:07:32Z</time>
      </trkpt>
      <trkpt lat="43.08134" lon="0.86252">
        <ele>389.5</ele>
        <time>2020-08-31T14:07:47Z</time>
      </trkpt>
      <trkpt lat="43.08158" lon="0.861">
        <ele>384.2</ele>
        <time>2020-08-31T14:08:07Z</time>
      </trkpt>
      <trkpt lat="43.08187" lon="0.85965">
        <ele>381.4</ele>
        <time>2020-08-31T14:08:27Z</time>
      </trkpt>
      <trkpt lat="43.08202" lon="0.85837">
        <ele>378.3</ele>
        <time>2020-08-31T14:08:47Z</time>
      </trkpt>
      <trkpt lat="43.08235" lon="0.8572">
        <ele>377.4</ele>
        <time>2020-08-31T14:09:12Z</time>
      </trkpt>
      <trkpt lat="43.08288" lon="0.8562">
        <ele>377</ele>
        <time>2020-08-31T14:09:59Z</time>
      </trkpt>
      <trkpt lat="43.08349" lon="0.85514">
        <ele>378.3</ele>
        <time>2020-08-31T14:10:50Z</time>
      </trkpt>
      <trkpt lat="43.08361" lon="0.8537">
        <ele>381.8</ele>
        <time>2020-08-31T14:11:44Z</time>
      </trkpt>
      <trkpt lat="43.08346" lon="0.85233">
        <ele>381.7</ele>
        <time>2020-08-31T14:11:59Z</time>
      </trkpt>
      <trkpt lat="43.08336" lon="0.85075">
        <ele>380.7</ele>
        <time>2020-08-31T14:12:14Z</time>
      </trkpt>
      <trkpt lat="43.08342" lon="0.84941">
        <ele>379.6</ele>
        <time>2020-08-31T14:12:29Z</time>
      </trkpt>
      <trkpt lat="43.08342" lon="0.84805">
        <ele>376.5</ele>
        <time>2020-08-31T14:12:44Z</time>
      </trkpt>
      <trkpt lat="43.08376" lon="0.84658">
        <ele>373.2</ele>
        <time>2020-08-31T14:13:04Z</time>
      </trkpt>
      <trkpt lat="43.08359" lon="0.84533">
        <ele>373.8</ele>
        <time>2020-08-31T14:13:43Z</time>
      </trkpt>
      <trkpt lat="43.08368" lon="0.84402">
        <ele>375</ele>
        <time>2020-08-31T14:14:35Z</time>
      </trkpt>
      <trkpt lat="43.08366" lon="0.84266">
        <ele>374.7</ele>
        <time>2020-08-31T14:15:10Z</time>
      </trkpt>
      <trkpt lat="43.08373" lon="0.8413">
        <ele>374.7</ele>
        <time>2020-08-31T14:15:45Z</time>
      </trkpt>
      <trkpt lat="43.08383" lon="0.83984">
        <ele>374.8</ele>
        <time>2020-08-31T14:16:15Z</time>
      </trkpt>
      <trkpt lat="43.08401" lon="0.83844">
        <ele>373.1</ele>
        <time>2020-08-31T14:16:35Z</time>
      </trkpt>
      <trkpt lat="43.08452" lon="0.83733">
        <ele>371.3</ele>
        <time>2020-08-31T14:16:50Z</time>
      </trkpt>
      <trkpt lat="43.08505" lon="0.83574">
        <ele>368.8</ele>
        <time>2020-08-31T14:17:05Z</time>
      </trkpt>
      <trkpt lat="43.0852" lon="0.83436">
        <ele>367.9</ele>
        <time>2020-08-31T14:17:20Z</time>
      </trkpt>
      <trkpt lat="43.08529" lon="0.83307">
        <ele>366.8</ele>
        <time>2020-08-31T14:17:50Z</time>
      </trkpt>
      <trkpt lat="43.08531" lon="0.83181">
        <ele>365.6</ele>
        <time>2020-08-31T14:18:25Z</time>
      </trkpt>
      <trkpt lat="43.08532" lon="0.8304">
        <ele>365.2</ele>
        <time>2020-08-31T14:19:00Z</time>
      </trkpt>
      <trkpt lat="43.08541" lon="0.82903">
        <ele>365.6</ele>
        <time>2020-08-31T14:19:30Z</time>
      </trkpt>
      <trkpt lat="43.08559" lon="0.82766">
        <ele>366.3</ele>
        <time>2020-08-31T14:20:00Z</time>
      </trkpt>
      <trkpt lat="43.08574" lon="0.82642">
        <ele>371.5</ele>
        <time>2020-08-31T14:25:19Z</time>
      </trkpt>
      <trkpt lat="43.08601" lon="0.82492">
        <ele>376.2</ele>
        <time>2020-08-31T14:25:49Z</time>
      </trkpt>
      <trkpt lat="43.08613" lon="0.82368">
        <ele>376.1</ele>
        <time>2020-08-31T14:26:04Z</time>
      </trkpt>
      <trkpt lat="43.08607" lon="0.82236">
        <ele>374.6</ele>
        <time>2020-08-31T14:26:14Z</time>
      </trkpt>
      <trkpt lat="43.08621" lon="0.82082">
        <ele>370.2</ele>
        <time>2020-08-31T14:26:24Z</time>
      </trkpt>
      <trkpt lat="43.08618" lon="0.81934">
        <ele>368</ele>
        <time>2020-08-31T14:26:56Z</time>
      </trkpt>
      <trkpt lat="43.08563" lon="0.81788">
        <ele>354.6</ele>
        <time>2020-08-31T14:27:16Z</time>
      </trkpt>
      <trkpt lat="43.08514" lon="0.81657">
        <ele>353.6</ele>
        <time>2020-08-31T14:27:36Z</time>
      </trkpt>
      <trkpt lat="43.08471" lon="0.8154">
        <ele>349</ele>
        <time>2020-08-31T14:27:56Z</time>
      </trkpt>
      <trkpt lat="43.0851" lon="0.81425">
        <ele>344.2</ele>
        <time>2020-08-31T14:28:26Z</time>
      </trkpt>
      <trkpt lat="43.08553" lon="0.81288">
        <ele>340.8</ele>
        <time>2020-08-31T14:28:46Z</time>
      </trkpt>
      <trkpt lat="43.08636" lon="0.81212">
        <ele>341</ele>
        <time>2020-08-31T14:29:21Z</time>
      </trkpt>
      <trkpt lat="43.08697" lon="0.81103">
        <ele>342.1</ele>
        <time>2020-08-31T14:30:05Z</time>
      </trkpt>
      <trkpt lat="43.08737" lon="0.80989">
        <ele>342.5</ele>
        <time>2020-08-31T14:30:30Z</time>
      </trkpt>
      <trkpt lat="43.08759" lon="0.80845">
        <ele>342.5</ele>
        <time>2020-08-31T14:31:00Z</time>
      </trkpt>
      <trkpt lat="43.08802" lon="0.8073">
        <ele>342.8</ele>
        <time>2020-08-31T14:31:25Z</time>
      </trkpt>
      <trkpt lat="43.08852" lon="0.80604">
        <ele>342.9</ele>
        <time>2020-08-31T14:31:55Z</time>
      </trkpt>
      <trkpt lat="43.08905" lon="0.80477">
        <ele>342.7</ele>
        <time>2020-08-31T14:32:25Z</time>
      </trkpt>
      <trkpt lat="43.08958" lon="0.80351">
        <ele>342.5</ele>
        <time>2020-08-31T14:32:55Z</time>
      </trkpt>
      <trkpt lat="43.09002" lon="0.80243">
        <ele>342.2</ele>
        <time>2020-08-31T14:33:20Z</time>
      </trkpt>
      <trkpt lat="43.09048" lon="0.8013">
        <ele>341.9</ele>
        <time>2020-08-31T14:33:45Z</time>
      </trkpt>
      <trkpt lat="43.09106" lon="0.80018">
        <ele>341.9</ele>
        <time>2020-08-31T14:34:10Z</time>
      </trkpt>
      <trkpt lat="43.09174" lon="0.79924">
        <ele>341.8</ele>
        <time>2020-08-31T14:34:35Z</time>
      </trkpt>
      <trkpt lat="43.09246" lon="0.79815">
        <ele>341.6</ele>
        <time>2020-08-31T14:35:00Z</time>
      </trkpt>
      <trkpt lat="43.09302" lon="0.79717">
        <ele>341.6</ele>
        <time>2020-08-31T14:35:19Z</time>
      </trkpt>
      <trkpt lat="43.09345" lon="0.79582">
        <ele>341.5</ele>
        <time>2020-08-31T14:35:44Z</time>
      </trkpt>
      <trkpt lat="43.09385" lon="0.79458">
        <ele>341.4</ele>
        <time>2020-08-31T14:36:09Z</time>
      </trkpt>
      <trkpt lat="43.09421" lon="0.79322">
        <ele>341.5</ele>
        <time>2020-08-31T14:36:34Z</time>
      </trkpt>
      <trkpt lat="43.09449" lon="0.79197">
        <ele>341.5</ele>
        <time>2020-08-31T14:36:54Z</time>
      </trkpt>
      <trkpt lat="43.09476" lon="0.79075">
        <ele>341.5</ele>
        <time>2020-08-31T14:37:14Z</time>
      </trkpt>
      <trkpt lat="43.09509" lon="0.78934">
        <ele>341.4</ele>
        <time>2020-08-31T14:37:39Z</time>
      </trkpt>
      <trkpt lat="43.09543" lon="0.78817">
        <ele>341.5</ele>
        <time>2020-08-31T14:38:04Z</time>
      </trkpt>
      <trkpt lat="43.09604" lon="0.78697">
        <ele>341.5</ele>
        <time>2020-08-31T14:38:34Z</time>
      </trkpt>
      <trkpt lat="43.09645" lon="0.78582">
        <ele>341.5</ele>
        <time>2020-08-31T14:38:59Z</time>
      </trkpt>
      <trkpt lat="43.09676" lon="0.78445">
        <ele>341.6</ele>
        <time>2020-08-31T14:39:24Z</time>
      </trkpt>
      <trkpt lat="43.09696" lon="0.78296">
        <ele>341.6</ele>
        <time>2020-08-31T14:39:49Z</time>
      </trkpt>
      <trkpt lat="43.09701" lon="0.78173">
        <ele>341.7</ele>
        <time>2020-08-31T14:40:09Z</time>
      </trkpt>
      <trkpt lat="43.09706" lon="0.78028">
        <ele>341.7</ele>
        <time>2020-08-31T14:40:34Z</time>
      </trkpt>
      <trkpt lat="43.09712" lon="0.7789">
        <ele>341.7</ele>
        <time>2020-08-31T14:40:59Z</time>
      </trkpt>
      <trkpt lat="43.09727" lon="0.77752">
        <ele>341.8</ele>
        <time>2020-08-31T14:41:24Z</time>
      </trkpt>
      <trkpt lat="43.09727" lon="0.77616">
        <ele>341.9</ele>
        <time>2020-08-31T14:41:49Z</time>
      </trkpt>
      <trkpt lat="43.09724" lon="0.77478">
        <ele>341.9</ele>
        <time>2020-08-31T14:42:14Z</time>
      </trkpt>
      <trkpt lat="43.09721" lon="0.77342">
        <ele>342</ele>
        <time>2020-08-31T14:42:39Z</time>
      </trkpt>
      <trkpt lat="43.09723" lon="0.772">
        <ele>342</ele>
        <time>2020-08-31T14:43:04Z</time>
      </trkpt>
      <trkpt lat="43.09728" lon="0.7707">
        <ele>342</ele>
        <time>2020-08-31T14:43:24Z</time>
      </trkpt>
      <trkpt lat="43.09733" lon="0.76917">
        <ele>341.9</ele>
        <time>2020-08-31T14:43:49Z</time>
      </trkpt>
      <trkpt lat="43.09738" lon="0.76767">
        <ele>341.9</ele>
        <time>2020-08-31T14:44:14Z</time>
      </trkpt>
      <trkpt lat="43.09744" lon="0.76622">
        <ele>341.9</ele>
        <time>2020-08-31T14:44:39Z</time>
      </trkpt>
      <trkpt lat="43.09749" lon="0.76471">
        <ele>341.9</ele>
        <time>2020-08-31T14:45:04Z</time>
      </trkpt>
      <trkpt lat="43.09753" lon="0.76327">
        <ele>341.9</ele>
        <time>2020-08-31T14:45:29Z</time>
      </trkpt>
      <trkpt lat="43.09744" lon="0.76188">
        <ele>342.1</ele>
        <time>2020-08-31T14:45:54Z</time>
      </trkpt>
      <trkpt lat="43.0972" lon="0.76054">
        <ele>342.2</ele>
        <time>2020-08-31T14:46:19Z</time>
      </trkpt>
      <trkpt lat="43.09691" lon="0.75923">
        <ele>342.3</ele>
        <time>2020-08-31T14:46:44Z</time>
      </trkpt>
      <trkpt lat="43.09664" lon="0.75786">
        <ele>342.6</ele>
        <time>2020-08-31T14:47:09Z</time>
      </trkpt>
      <trkpt lat="43.09649" lon="0.75648">
        <ele>343</ele>
        <time>2020-08-31T14:47:34Z</time>
      </trkpt>
      <trkpt lat="43.09634" lon="0.7551">
        <ele>343.4</ele>
        <time>2020-08-31T14:47:59Z</time>
      </trkpt>
      <trkpt lat="43.09618" lon="0.75371">
        <ele>343.7</ele>
        <time>2020-08-31T14:48:24Z</time>
      </trkpt>
      <trkpt lat="43.09603" lon="0.75226">
        <ele>344.1</ele>
        <time>2020-08-31T14:48:49Z</time>
      </trkpt>
      <trkpt lat="43.09594" lon="0.75094">
        <ele>344.8</ele>
        <time>2020-08-31T14:49:14Z</time>
      </trkpt>
      <trkpt lat="43.09572" lon="0.74965">
        <ele>345.5</ele>
        <time>2020-08-31T14:49:39Z</time>
      </trkpt>
      <trkpt lat="43.09524" lon="0.74849">
        <ele>346.6</ele>
        <time>2020-08-31T14:50:04Z</time>
      </trkpt>
      <trkpt lat="43.09461" lon="0.74734">
        <ele>347.2</ele>
        <time>2020-08-31T14:50:34Z</time>
      </trkpt>
      <trkpt lat="43.0942" lon="0.74601">
        <ele>348.4</ele>
        <time>2020-08-31T14:51:22Z</time>
      </trkpt>
      <trkpt lat="43.09371" lon="0.7446">
        <ele>348.9</ele>
        <time>2020-08-31T14:51:42Z</time>
      </trkpt>
      <trkpt lat="43.09321" lon="0.74336">
        <ele>349.3</ele>
        <time>2020-08-31T14:52:07Z</time>
      </trkpt>
      <trkpt lat="43.0929" lon="0.74219">
        <ele>349.6</ele>
        <time>2020-08-31T14:52:49Z</time>
      </trkpt>
      <trkpt lat="43.09247" lon="0.74096">
        <ele>351.1</ele>
        <time>2020-08-31T14:56:03Z</time>
      </trkpt>
      <trkpt lat="43.09188" lon="0.7399">
        <ele>351.8</ele>
        <time>2020-08-31T14:56:38Z</time>
      </trkpt>
      <trkpt lat="43.09134" lon="0.73881">
        <ele>353.4</ele>
        <time>2020-08-31T14:57:24Z</time>
      </trkpt>
      <trkpt lat="43.09097" lon="0.73745">
        <ele>353.6</ele>
        <time>2020-08-31T14:57:49Z</time>
      </trkpt>
      <trkpt lat="43.0908" lon="0.73604">
        <ele>353.7</ele>
        <time>2020-08-31T14:58:19Z</time>
      </trkpt>
      <trkpt lat="43.09057" lon="0.73471">
        <ele>354.4</ele>
        <time>2020-08-31T14:58:44Z</time>
      </trkpt>
      <trkpt lat="43.09004" lon="0.73364">
        <ele>354.7</ele>
        <time>2020-08-31T14:59:19Z</time>
      </trkpt>
      <trkpt lat="43.08956" lon="0.73259">
        <ele>355.1</ele>
        <time>2020-08-31T14:59:43Z</time>
      </trkpt>
      <trkpt lat="43.08969" lon="0.73122">
        <ele>355.7</ele>
        <time>2020-08-31T15:00:23Z</time>
      </trkpt>
      <trkpt lat="43.09001" lon="0.72993">
        <ele>356.2</ele>
        <time>2020-08-31T15:00:53Z</time>
      </trkpt>
      <trkpt lat="43.0904" lon="0.72876">
        <ele>357.2</ele>
        <time>2020-08-31T15:01:18Z</time>
      </trkpt>
      <trkpt lat="43.09076" lon="0.7276">
        <ele>357.6</ele>
        <time>2020-08-31T15:01:43Z</time>
      </trkpt>
      <trkpt lat="43.09098" lon="0.72614">
        <ele>357.9</ele>
        <time>2020-08-31T15:02:08Z</time>
      </trkpt>
      <trkpt lat="43.09123" lon="0.72492">
        <ele>358.3</ele>
        <time>2020-08-31T15:02:33Z</time>
      </trkpt>
      <trkpt lat="43.09163" lon="0.72371">
        <ele>358.5</ele>
        <time>2020-08-31T15:02:53Z</time>
      </trkpt>
      <trkpt lat="43.09176" lon="0.72224">
        <ele>358.6</ele>
        <time>2020-08-31T15:03:13Z</time>
      </trkpt>
      <trkpt lat="43.09195" lon="0.72093">
        <ele>358.7</ele>
        <time>2020-08-31T15:03:38Z</time>
      </trkpt>
      <trkpt lat="43.09206" lon="0.71943">
        <ele>358.9</ele>
        <time>2020-08-31T15:04:03Z</time>
      </trkpt>
      <trkpt lat="43.09217" lon="0.71806">
        <ele>359.3</ele>
        <time>2020-08-31T15:04:28Z</time>
      </trkpt>
      <trkpt lat="43.09238" lon="0.71677">
        <ele>359.5</ele>
        <time>2020-08-31T15:04:53Z</time>
      </trkpt>
      <trkpt lat="43.09306" lon="0.7159">
        <ele>359.4</ele>
        <time>2020-08-31T15:05:18Z</time>
      </trkpt>
      <trkpt lat="43.09334" lon="0.71466">
        <ele>359.6</ele>
        <time>2020-08-31T15:05:43Z</time>
      </trkpt>
      <trkpt lat="43.09363" lon="0.71327">
        <ele>359.7</ele>
        <time>2020-08-31T15:06:13Z</time>
      </trkpt>
      <trkpt lat="43.09384" lon="0.71196">
        <ele>360</ele>
        <time>2020-08-31T15:06:48Z</time>
      </trkpt>
      <trkpt lat="43.09403" lon="0.71073">
        <ele>360.3</ele>
        <time>2020-08-31T15:07:18Z</time>
      </trkpt>
      <trkpt lat="43.09425" lon="0.70941">
        <ele>360.7</ele>
        <time>2020-08-31T15:07:58Z</time>
      </trkpt>
      <trkpt lat="43.09467" lon="0.70819">
        <ele>361.6</ele>
        <time>2020-08-31T15:10:26Z</time>
      </trkpt>
      <trkpt lat="43.09498" lon="0.70703">
        <ele>362.4</ele>
        <time>2020-08-31T15:11:01Z</time>
      </trkpt>
      <trkpt lat="43.09453" lon="0.70587">
        <ele>363.8</ele>
        <time>2020-08-31T15:12:01Z</time>
      </trkpt>
      <trkpt lat="43.09459" lon="0.70444">
        <ele>364.3</ele>
        <time>2020-08-31T15:12:41Z</time>
      </trkpt>
      <trkpt lat="43.09451" lon="0.70309">
        <ele>365</ele>
        <time>2020-08-31T15:13:27Z</time>
      </trkpt>
    </trkseg>
  </trk>
  <trk>
    <name><![CDATA[route119]]></name>
    <trkseg>
      <trkpt lat="43.09451" lon="0.70178">
        <ele>371.2</ele>
        <time>2020-09-01T06:08:59Z</time>
      </trkpt>
      <trkpt lat="43.09436" lon="0.70048">
        <ele>369</ele>
        <time>2020-09-01T06:09:29Z</time>
      </trkpt>
      <trkpt lat="43.09428" lon="0.6991">
        <ele>368.6</ele>
        <time>2020-09-01T06:09:59Z</time>
      </trkpt>
      <trkpt lat="43.09432" lon="0.6978">
        <ele>368.4</ele>
        <time>2020-09-01T06:10:29Z</time>
      </trkpt>
      <trkpt lat="43.09432" lon="0.69654">
        <ele>368.2</ele>
        <time>2020-09-01T06:11:32Z</time>
      </trkpt>
      <trkpt lat="43.09435" lon="0.69521">
        <ele>368.1</ele>
        <time>2020-09-01T06:12:07Z</time>
      </trkpt>
      <trkpt lat="43.09436" lon="0.69378">
        <ele>368.5</ele>
        <time>2020-09-01T06:12:42Z</time>
      </trkpt>
      <trkpt lat="43.09439" lon="0.69234">
        <ele>368.9</ele>
        <time>2020-09-01T06:13:17Z</time>
      </trkpt>
      <trkpt lat="43.09454" lon="0.691">
        <ele>369.5</ele>
        <time>2020-09-01T06:13:57Z</time>
      </trkpt>
      <trkpt lat="43.09442" lon="0.6897">
        <ele>370</ele>
        <time>2020-09-01T06:14:27Z</time>
      </trkpt>
      <trkpt lat="43.09444" lon="0.68841">
        <ele>370.6</ele>
        <time>2020-09-01T06:14:57Z</time>
      </trkpt>
      <trkpt lat="43.09444" lon="0.68706">
        <ele>371</ele>
        <time>2020-09-01T06:15:27Z</time>
      </trkpt>
      <trkpt lat="43.09441" lon="0.68561">
        <ele>371.6</ele>
        <time>2020-09-01T06:16:02Z</time>
      </trkpt>
      <trkpt lat="43.09411" lon="0.68442">
        <ele>372</ele>
        <time>2020-09-01T06:16:27Z</time>
      </trkpt>
      <trkpt lat="43.09371" lon="0.68319">
        <ele>372.7</ele>
        <time>2020-09-01T06:16:57Z</time>
      </trkpt>
      <trkpt lat="43.09331" lon="0.68204">
        <ele>373.2</ele>
        <time>2020-09-01T06:17:22Z</time>
      </trkpt>
      <trkpt lat="43.09285" lon="0.68077">
        <ele>373.7</ele>
        <time>2020-09-01T06:17:52Z</time>
      </trkpt>
      <trkpt lat="43.09243" lon="0.67949">
        <ele>374.2</ele>
        <time>2020-09-01T06:18:23Z</time>
      </trkpt>
      <trkpt lat="43.09197" lon="0.67819">
        <ele>374.8</ele>
        <time>2020-09-01T06:18:53Z</time>
      </trkpt>
      <trkpt lat="43.09151" lon="0.67685">
        <ele>375.7</ele>
        <time>2020-09-01T06:19:23Z</time>
      </trkpt>
      <trkpt lat="43.09112" lon="0.67569">
        <ele>377.8</ele>
        <time>2020-09-01T06:19:48Z</time>
      </trkpt>
      <trkpt lat="43.09068" lon="0.67443">
        <ele>378.5</ele>
        <time>2020-09-01T06:20:18Z</time>
      </trkpt>
      <trkpt lat="43.09022" lon="0.67314">
        <ele>379.6</ele>
        <time>2020-09-01T06:20:48Z</time>
      </trkpt>
      <trkpt lat="43.08977" lon="0.67187">
        <ele>380.6</ele>
        <time>2020-09-01T06:21:18Z</time>
      </trkpt>
      <trkpt lat="43.08931" lon="0.67056">
        <ele>381.7</ele>
        <time>2020-09-01T06:21:48Z</time>
      </trkpt>
      <trkpt lat="43.08887" lon="0.66935">
        <ele>382.2</ele>
        <time>2020-09-01T06:22:18Z</time>
      </trkpt>
      <trkpt lat="43.08849" lon="0.66818">
        <ele>382.6</ele>
        <time>2020-09-01T06:22:43Z</time>
      </trkpt>
      <trkpt lat="43.08801" lon="0.66691">
        <ele>383.5</ele>
        <time>2020-09-01T06:23:13Z</time>
      </trkpt>
      <trkpt lat="43.08758" lon="0.66562">
        <ele>384.3</ele>
        <time>2020-09-01T06:23:43Z</time>
      </trkpt>
      <trkpt lat="43.08712" lon="0.66436">
        <ele>384.8</ele>
        <time>2020-09-01T06:24:13Z</time>
      </trkpt>
      <trkpt lat="43.08671" lon="0.66314">
        <ele>385.4</ele>
        <time>2020-09-01T06:24:43Z</time>
      </trkpt>
      <trkpt lat="43.08629" lon="0.66193">
        <ele>385.7</ele>
        <time>2020-09-01T06:25:13Z</time>
      </trkpt>
      <trkpt lat="43.08586" lon="0.66069">
        <ele>386</ele>
        <time>2020-09-01T06:25:43Z</time>
      </trkpt>
      <trkpt lat="43.08545" lon="0.6595">
        <ele>386.4</ele>
        <time>2020-09-01T06:26:13Z</time>
      </trkpt>
      <trkpt lat="43.08501" lon="0.65824">
        <ele>386.9</ele>
        <time>2020-09-01T06:26:43Z</time>
      </trkpt>
      <trkpt lat="43.08458" lon="0.65701">
        <ele>387.6</ele>
        <time>2020-09-01T06:27:13Z</time>
      </trkpt>
      <trkpt lat="43.08415" lon="0.65579">
        <ele>388.3</ele>
        <time>2020-09-01T06:27:43Z</time>
      </trkpt>
      <trkpt lat="43.08372" lon="0.65454">
        <ele>389</ele>
        <time>2020-09-01T06:28:13Z</time>
      </trkpt>
      <trkpt lat="43.08326" lon="0.65326">
        <ele>389.7</ele>
        <time>2020-09-01T06:28:43Z</time>
      </trkpt>
      <trkpt lat="43.08298" lon="0.65193">
        <ele>390.3</ele>
        <time>2020-09-01T06:29:13Z</time>
      </trkpt>
      <trkpt lat="43.08281" lon="0.65055">
        <ele>391</ele>
        <time>2020-09-01T06:29:43Z</time>
      </trkpt>
      <trkpt lat="43.08232" lon="0.64928">
        <ele>392.2</ele>
        <time>2020-09-01T06:30:13Z</time>
      </trkpt>
      <trkpt lat="43.08214" lon="0.64784">
        <ele>392.8</ele>
        <time>2020-09-01T06:30:43Z</time>
      </trkpt>
      <trkpt lat="43.08196" lon="0.64646">
        <ele>393.4</ele>
        <time>2020-09-01T06:31:13Z</time>
      </trkpt>
      <trkpt lat="43.08178" lon="0.64504">
        <ele>393.9</ele>
        <time>2020-09-01T06:31:43Z</time>
      </trkpt>
      <trkpt lat="43.08159" lon="0.64363">
        <ele>394.4</ele>
        <time>2020-09-01T06:32:12Z</time>
      </trkpt>
      <trkpt lat="43.08141" lon="0.64222">
        <ele>394.9</ele>
        <time>2020-09-01T06:32:42Z</time>
      </trkpt>
      <trkpt lat="43.08123" lon="0.64076">
        <ele>395.9</ele>
        <time>2020-09-01T06:33:12Z</time>
      </trkpt>
      <trkpt lat="43.08106" lon="0.63944">
        <ele>396.1</ele>
        <time>2020-09-01T06:33:42Z</time>
      </trkpt>
      <trkpt lat="43.08088" lon="0.63806">
        <ele>396.3</ele>
        <time>2020-09-01T06:34:12Z</time>
      </trkpt>
      <trkpt lat="43.08071" lon="0.63668">
        <ele>396.9</ele>
        <time>2020-09-01T06:34:42Z</time>
      </trkpt>
      <trkpt lat="43.08057" lon="0.63537">
        <ele>397.8</ele>
        <time>2020-09-01T06:35:12Z</time>
      </trkpt>
      <trkpt lat="43.08039" lon="0.63406">
        <ele>398.7</ele>
        <time>2020-09-01T06:35:42Z</time>
      </trkpt>
      <trkpt lat="43.08022" lon="0.63272">
        <ele>399.6</ele>
        <time>2020-09-01T06:36:12Z</time>
      </trkpt>
      <trkpt lat="43.0801" lon="0.6314">
        <ele>400.6</ele>
        <time>2020-09-01T06:36:42Z</time>
      </trkpt>
      <trkpt lat="43.08086" lon="0.63034">
        <ele>402.4</ele>
        <time>2020-09-01T06:37:12Z</time>
      </trkpt>
      <trkpt lat="43.08175" lon="0.62961">
        <ele>402.5</ele>
        <time>2020-09-01T06:37:37Z</time>
      </trkpt>
      <trkpt lat="43.0826" lon="0.62892">
        <ele>402.6</ele>
        <time>2020-09-01T06:38:02Z</time>
      </trkpt>
      <trkpt lat="43.08346" lon="0.62822">
        <ele>402.7</ele>
        <time>2020-09-01T06:38:27Z</time>
      </trkpt>
      <trkpt lat="43.08436" lon="0.62744">
        <ele>402.9</ele>
        <time>2020-09-01T06:38:52Z</time>
      </trkpt>
      <trkpt lat="43.08505" lon="0.62639">
        <ele>403.1</ele>
        <time>2020-09-01T06:39:17Z</time>
      </trkpt>
      <trkpt lat="43.0855" lon="0.62525">
        <ele>403.3</ele>
        <time>2020-09-01T06:39:42Z</time>
      </trkpt>
      <trkpt lat="43.0859" lon="0.62407">
        <ele>403.9</ele>
        <time>2020-09-01T06:40:07Z</time>
      </trkpt>
      <trkpt lat="43.0863" lon="0.62286">
        <ele>404.3</ele>
        <time>2020-09-01T06:40:32Z</time>
      </trkpt>
      <trkpt lat="43.08666" lon="0.62169">
        <ele>404.5</ele>
        <time>2020-09-01T06:40:57Z</time>
      </trkpt>
      <trkpt lat="43.08691" lon="0.62049">
        <ele>404.8</ele>
        <time>2020-09-01T06:41:22Z</time>
      </trkpt>
      <trkpt lat="43.0874" lon="0.61923">
        <ele>405.1</ele>
        <time>2020-09-01T06:41:52Z</time>
      </trkpt>
      <trkpt lat="43.08749" lon="0.61793">
        <ele>405.6</ele>
        <time>2020-09-01T06:42:27Z</time>
      </trkpt>
      <trkpt lat="43.08708" lon="0.61664">
        <ele>406.3</ele>
        <time>2020-09-01T06:42:57Z</time>
      </trkpt>
      <trkpt lat="43.08663" lon="0.61548">
        <ele>406.9</ele>
        <time>2020-09-01T06:43:27Z</time>
      </trkpt>
      <trkpt lat="43.0863" lon="0.61433">
        <ele>407.5</ele>
        <time>2020-09-01T06:43:57Z</time>
      </trkpt>
      <trkpt lat="43.08592" lon="0.61311">
        <ele>408</ele>
        <time>2020-09-01T06:44:27Z</time>
      </trkpt>
      <trkpt lat="43.08546" lon="0.61193">
        <ele>408.5</ele>
        <time>2020-09-01T06:44:57Z</time>
      </trkpt>
      <trkpt lat="43.08497" lon="0.61084">
        <ele>409</ele>
        <time>2020-09-01T06:45:27Z</time>
      </trkpt>
      <trkpt lat="43.08429" lon="0.60991">
        <ele>409.4</ele>
        <time>2020-09-01T06:45:57Z</time>
      </trkpt>
      <trkpt lat="43.08377" lon="0.60878">
        <ele>410</ele>
        <time>2020-09-01T06:46:27Z</time>
      </trkpt>
      <trkpt lat="43.0833" lon="0.6076">
        <ele>410.9</ele>
        <time>2020-09-01T06:46:57Z</time>
      </trkpt>
      <trkpt lat="43.08283" lon="0.60637">
        <ele>411.8</ele>
        <time>2020-09-01T06:47:27Z</time>
      </trkpt>
      <trkpt lat="43.08237" lon="0.60513">
        <ele>412.7</ele>
        <time>2020-09-01T06:47:57Z</time>
      </trkpt>
      <trkpt lat="43.08184" lon="0.6039">
        <ele>414.1</ele>
        <time>2020-09-01T06:48:27Z</time>
      </trkpt>
      <trkpt lat="43.08115" lon="0.60281">
        <ele>415.5</ele>
        <time>2020-09-01T06:48:52Z</time>
      </trkpt>
      <trkpt lat="43.08043" lon="0.6017">
        <ele>415.9</ele>
        <time>2020-09-01T06:49:17Z</time>
      </trkpt>
      <trkpt lat="43.07985" lon="0.6007">
        <ele>416.1</ele>
        <time>2020-09-01T06:49:42Z</time>
      </trkpt>
      <trkpt lat="43.07959" lon="0.5995">
        <ele>416.2</ele>
        <time>2020-09-01T06:50:12Z</time>
      </trkpt>
      <trkpt lat="43.07932" lon="0.59824">
        <ele>416.7</ele>
        <time>2020-09-01T06:50:37Z</time>
      </trkpt>
      <trkpt lat="43.07917" lon="0.59683">
        <ele>416.9</ele>
        <time>2020-09-01T06:51:07Z</time>
      </trkpt>
      <trkpt lat="43.07901" lon="0.59561">
        <ele>417</ele>
        <time>2020-09-01T06:51:37Z</time>
      </trkpt>
      <trkpt lat="43.07894" lon="0.59437">
        <ele>417.7</ele>
        <time>2020-09-01T06:52:17Z</time>
      </trkpt>
      <trkpt lat="43.07865" lon="0.59315">
        <ele>418.9</ele>
        <time>2020-09-01T06:52:42Z</time>
      </trkpt>
      <trkpt lat="43.07821" lon="0.59191">
        <ele>419.3</ele>
        <time>2020-09-01T06:53:07Z</time>
      </trkpt>
      <trkpt lat="43.07771" lon="0.59082">
        <ele>420</ele>
        <time>2020-09-01T06:53:32Z</time>
      </trkpt>
      <trkpt lat="43.07742" lon="0.58957">
        <ele>420.1</ele>
        <time>2020-09-01T06:54:02Z</time>
      </trkpt>
      <trkpt lat="43.07727" lon="0.58831">
        <ele>420.3</ele>
        <time>2020-09-01T06:54:27Z</time>
      </trkpt>
      <trkpt lat="43.07732" lon="0.58696">
        <ele>420.3</ele>
        <time>2020-09-01T06:54:52Z</time>
      </trkpt>
      <trkpt lat="43.07765" lon="0.58568">
        <ele>420.3</ele>
        <time>2020-09-01T06:55:17Z</time>
      </trkpt>
      <trkpt lat="43.07769" lon="0.58434">
        <ele>420.4</ele>
        <time>2020-09-01T06:55:47Z</time>
      </trkpt>
      <trkpt lat="43.07755" lon="0.58296">
        <ele>421</ele>
        <time>2020-09-01T06:56:12Z</time>
      </trkpt>
      <trkpt lat="43.07821" lon="0.58182">
        <ele>420.4</ele>
        <time>2020-09-01T06:56:27Z</time>
      </trkpt>
      <trkpt lat="43.07879" lon="0.58082">
        <ele>420.3</ele>
        <time>2020-09-01T06:56:42Z</time>
      </trkpt>
      <trkpt lat="43.07946" lon="0.5797">
        <ele>419.3</ele>
        <time>2020-09-01T06:57:02Z</time>
      </trkpt>
      <trkpt lat="43.08012" lon="0.57861">
        <ele>416.6</ele>
        <time>2020-09-01T06:57:22Z</time>
      </trkpt>
      <trkpt lat="43.08076" lon="0.57758">
        <ele>414.4</ele>
        <time>2020-09-01T06:57:42Z</time>
      </trkpt>
      <trkpt lat="43.08137" lon="0.57659">
        <ele>414.2</ele>
        <time>2020-09-01T06:58:02Z</time>
      </trkpt>
      <trkpt lat="43.08207" lon="0.57557">
        <ele>414.3</ele>
        <time>2020-09-01T06:58:27Z</time>
      </trkpt>
      <trkpt lat="43.08304" lon="0.57526">
        <ele>415.2</ele>
        <time>2020-09-01T06:59:07Z</time>
      </trkpt>
      <trkpt lat="43.08401" lon="0.57464">
        <ele>418.1</ele>
        <time>2020-09-01T06:59:31Z</time>
      </trkpt>
      <trkpt lat="43.08469" lon="0.57375">
        <ele>418.7</ele>
        <time>2020-09-01T07:00:09Z</time>
      </trkpt>
      <trkpt lat="43.08529" lon="0.5727">
        <ele>422.9</ele>
        <time>2020-09-01T07:01:12Z</time>
      </trkpt>
      <trkpt lat="43.0844" lon="0.57212">
        <ele>432.3</ele>
        <time>2020-09-01T07:05:32Z</time>
      </trkpt>
      <trkpt lat="43.08449" lon="0.57082">
        <ele>442.5</ele>
        <time>2020-09-01T07:08:26Z</time>
      </trkpt>
      <trkpt lat="43.0849" lon="0.56957">
        <ele>445.7</ele>
        <time>2020-09-01T07:09:07Z</time>
      </trkpt>
      <trkpt lat="43.08551" lon="0.56852">
        <ele>447.6</ele>
        <time>2020-09-01T07:09:42Z</time>
      </trkpt>
      <trkpt lat="43.08578" lon="0.56708">
        <ele>449.6</ele>
        <time>2020-09-01T07:10:17Z</time>
      </trkpt>
      <trkpt lat="43.08589" lon="0.56581">
        <ele>452</ele>
        <time>2020-09-01T07:10:42Z</time>
      </trkpt>
      <trkpt lat="43.08576" lon="0.56436">
        <ele>453.7</ele>
        <time>2020-09-01T07:11:07Z</time>
      </trkpt>
      <trkpt lat="43.08552" lon="0.56305">
        <ele>455</ele>
        <time>2020-09-01T07:11:38Z</time>
      </trkpt>
      <trkpt lat="43.08523" lon="0.56176">
        <ele>456.7</ele>
        <time>2020-09-01T07:12:08Z</time>
      </trkpt>
      <trkpt lat="43.08532" lon="0.56034">
        <ele>459.2</ele>
        <time>2020-09-01T07:12:38Z</time>
      </trkpt>
      <trkpt lat="43.08549" lon="0.55913">
        <ele>462.5</ele>
        <time>2020-09-01T07:13:03Z</time>
      </trkpt>
      <trkpt lat="43.0857" lon="0.55771">
        <ele>463.4</ele>
        <time>2020-09-01T07:13:38Z</time>
      </trkpt>
      <trkpt lat="43.08584" lon="0.55632">
        <ele>464.6</ele>
        <time>2020-09-01T07:14:08Z</time>
      </trkpt>
      <trkpt lat="43.08603" lon="0.55494">
        <ele>466</ele>
        <time>2020-09-01T07:14:43Z</time>
      </trkpt>
      <trkpt lat="43.08625" lon="0.55363">
        <ele>467.4</ele>
        <time>2020-09-01T07:15:18Z</time>
      </trkpt>
      <trkpt lat="43.08645" lon="0.5524">
        <ele>469.2</ele>
        <time>2020-09-01T07:15:58Z</time>
      </trkpt>
      <trkpt lat="43.08667" lon="0.55105">
        <ele>471.1</ele>
        <time>2020-09-01T07:16:38Z</time>
      </trkpt>
      <trkpt lat="43.08681" lon="0.54979">
        <ele>472.9</ele>
        <time>2020-09-01T07:17:18Z</time>
      </trkpt>
      <trkpt lat="43.08706" lon="0.54856">
        <ele>474.7</ele>
        <time>2020-09-01T07:17:58Z</time>
      </trkpt>
      <trkpt lat="43.08722" lon="0.54723">
        <ele>477</ele>
        <time>2020-09-01T07:18:46Z</time>
      </trkpt>
      <trkpt lat="43.08738" lon="0.54595">
        <ele>478.8</ele>
        <time>2020-09-01T07:19:27Z</time>
      </trkpt>
      <trkpt lat="43.08754" lon="0.54471">
        <ele>480.8</ele>
        <time>2020-09-01T07:20:07Z</time>
      </trkpt>
      <trkpt lat="43.08781" lon="0.54331">
        <ele>482.7</ele>
        <time>2020-09-01T07:20:42Z</time>
      </trkpt>
      <trkpt lat="43.08805" lon="0.54198">
        <ele>484.2</ele>
        <time>2020-09-01T07:21:12Z</time>
      </trkpt>
      <trkpt lat="43.08822" lon="0.54063">
        <ele>485.7</ele>
        <time>2020-09-01T07:21:42Z</time>
      </trkpt>
      <trkpt lat="43.08838" lon="0.53929">
        <ele>487.8</ele>
        <time>2020-09-01T07:22:23Z</time>
      </trkpt>
      <trkpt lat="43.08859" lon="0.53798">
        <ele>490.6</ele>
        <time>2020-09-01T07:23:17Z</time>
      </trkpt>
      <trkpt lat="43.08878" lon="0.53667">
        <ele>494</ele>
        <time>2020-09-01T07:24:17Z</time>
      </trkpt>
      <trkpt lat="43.08897" lon="0.53536">
        <ele>497.8</ele>
        <time>2020-09-01T07:25:17Z</time>
      </trkpt>
      <trkpt lat="43.08915" lon="0.53404">
        <ele>501</ele>
        <time>2020-09-01T07:26:09Z</time>
      </trkpt>
      <trkpt lat="43.08932" lon="0.53274">
        <ele>504.1</ele>
        <time>2020-09-01T07:26:58Z</time>
      </trkpt>
      <trkpt lat="43.08952" lon="0.53141">
        <ele>507.1</ele>
        <time>2020-09-01T07:27:49Z</time>
      </trkpt>
      <trkpt lat="43.08972" lon="0.53015">
        <ele>509.7</ele>
        <time>2020-09-01T07:28:34Z</time>
      </trkpt>
      <trkpt lat="43.08991" lon="0.52885">
        <ele>511.9</ele>
        <time>2020-09-01T07:29:14Z</time>
      </trkpt>
      <trkpt lat="43.09011" lon="0.5275">
        <ele>514.3</ele>
        <time>2020-09-01T07:29:44Z</time>
      </trkpt>
      <trkpt lat="43.09027" lon="0.52627">
        <ele>516.9</ele>
        <time>2020-09-01T07:30:04Z</time>
      </trkpt>
      <trkpt lat="43.09048" lon="0.52504">
        <ele>517.7</ele>
        <time>2020-09-01T07:30:39Z</time>
      </trkpt>
      <trkpt lat="43.09055" lon="0.52381">
        <ele>519.5</ele>
        <time>2020-09-01T07:31:25Z</time>
      </trkpt>
      <trkpt lat="43.09052" lon="0.52255">
        <ele>521.6</ele>
        <time>2020-09-01T07:32:05Z</time>
      </trkpt>
      <trkpt lat="43.09056" lon="0.52121">
        <ele>523.9</ele>
        <time>2020-09-01T07:32:51Z</time>
      </trkpt>
      <trkpt lat="43.0906" lon="0.51993">
        <ele>526</ele>
        <time>2020-09-01T07:33:31Z</time>
      </trkpt>
      <trkpt lat="43.09069" lon="0.51861">
        <ele>528.2</ele>
        <time>2020-09-01T07:34:11Z</time>
      </trkpt>
      <trkpt lat="43.09082" lon="0.5173">
        <ele>530.2</ele>
        <time>2020-09-01T07:34:51Z</time>
      </trkpt>
      <trkpt lat="43.09094" lon="0.51594">
        <ele>532.3</ele>
        <time>2020-09-01T07:35:31Z</time>
      </trkpt>
      <trkpt lat="43.09105" lon="0.51463">
        <ele>533.9</ele>
        <time>2020-09-01T07:36:01Z</time>
      </trkpt>
      <trkpt lat="43.09122" lon="0.51322">
        <ele>537.5</ele>
        <time>2020-09-01T07:36:26Z</time>
      </trkpt>
      <trkpt lat="43.09132" lon="0.51162">
        <ele>538.5</ele>
        <time>2020-09-01T07:36:46Z</time>
      </trkpt>
      <trkpt lat="43.09138" lon="0.51008">
        <ele>538.9</ele>
        <time>2020-09-01T07:37:06Z</time>
      </trkpt>
      <trkpt lat="43.09148" lon="0.50875">
        <ele>544.8</ele>
        <time>2020-09-01T07:37:46Z</time>
      </trkpt>
      <trkpt lat="43.09157" lon="0.50752">
        <ele>550.4</ele>
        <time>2020-09-01T07:38:31Z</time>
      </trkpt>
      <trkpt lat="43.09167" lon="0.50629">
        <ele>552.8</ele>
        <time>2020-09-01T07:39:06Z</time>
      </trkpt>
      <trkpt lat="43.09193" lon="0.50488">
        <ele>554.5</ele>
        <time>2020-09-01T07:39:36Z</time>
      </trkpt>
      <trkpt lat="43.09232" lon="0.50348">
        <ele>556.6</ele>
        <time>2020-09-01T07:40:01Z</time>
      </trkpt>
      <trkpt lat="43.09271" lon="0.50216">
        <ele>556.8</ele>
        <time>2020-09-01T07:40:21Z</time>
      </trkpt>
      <trkpt lat="43.09307" lon="0.50091">
        <ele>556.2</ele>
        <time>2020-09-01T07:40:41Z</time>
      </trkpt>
      <trkpt lat="43.09344" lon="0.49969">
        <ele>557.5</ele>
        <time>2020-09-01T07:41:06Z</time>
      </trkpt>
      <trkpt lat="43.0938" lon="0.49839">
        <ele>558</ele>
        <time>2020-09-01T07:41:41Z</time>
      </trkpt>
      <trkpt lat="43.09417" lon="0.49709">
        <ele>559.8</ele>
        <time>2020-09-01T07:42:21Z</time>
      </trkpt>
      <trkpt lat="43.09454" lon="0.49582">
        <ele>561.6</ele>
        <time>2020-09-01T07:42:51Z</time>
      </trkpt>
      <trkpt lat="43.09489" lon="0.49462">
        <ele>564.8</ele>
        <time>2020-09-01T07:43:16Z</time>
      </trkpt>
      <trkpt lat="43.09528" lon="0.49334">
        <ele>565.4</ele>
        <time>2020-09-01T07:43:41Z</time>
      </trkpt>
      <trkpt lat="43.09564" lon="0.49207">
        <ele>565.7</ele>
        <time>2020-09-01T07:44:06Z</time>
      </trkpt>
      <trkpt lat="43.09602" lon="0.4908">
        <ele>565.9</ele>
        <time>2020-09-01T07:44:36Z</time>
      </trkpt>
      <trkpt lat="43.09636" lon="0.4896">
        <ele>566.3</ele>
        <time>2020-09-01T07:45:06Z</time>
      </trkpt>
      <trkpt lat="43.0967" lon="0.48843">
        <ele>567.1</ele>
        <time>2020-09-01T07:45:41Z</time>
      </trkpt>
      <trkpt lat="43.0971" lon="0.48712">
        <ele>568</ele>
        <time>2020-09-01T07:46:16Z</time>
      </trkpt>
      <trkpt lat="43.09749" lon="0.48579">
        <ele>569.1</ele>
        <time>2020-09-01T07:46:41Z</time>
      </trkpt>
      <trkpt lat="43.09744" lon="0.48453">
        <ele>569.4</ele>
        <time>2020-09-01T07:47:11Z</time>
      </trkpt>
      <trkpt lat="43.09653" lon="0.4844">
        <ele>569.6</ele>
        <time>2020-09-01T07:48:14Z</time>
      </trkpt>
      <trkpt lat="43.0967" lon="0.48301">
        <ele>570.3</ele>
        <time>2020-09-01T07:49:06Z</time>
      </trkpt>
      <trkpt lat="43.09703" lon="0.48159">
        <ele>571</ele>
        <time>2020-09-01T07:49:31Z</time>
      </trkpt>
      <trkpt lat="43.09731" lon="0.48013">
        <ele>571.1</ele>
        <time>2020-09-01T07:49:56Z</time>
      </trkpt>
      <trkpt lat="43.09757" lon="0.47875">
        <ele>571.2</ele>
        <time>2020-09-01T07:50:21Z</time>
      </trkpt>
      <trkpt lat="43.09782" lon="0.47737">
        <ele>571.5</ele>
        <time>2020-09-01T07:50:46Z</time>
      </trkpt>
      <trkpt lat="43.09803" lon="0.47599">
        <ele>571.2</ele>
        <time>2020-09-01T07:51:11Z</time>
      </trkpt>
      <trkpt lat="43.09823" lon="0.47473">
        <ele>571</ele>
        <time>2020-09-01T07:51:36Z</time>
      </trkpt>
      <trkpt lat="43.09839" lon="0.47341">
        <ele>571.1</ele>
        <time>2020-09-01T07:52:06Z</time>
      </trkpt>
      <trkpt lat="43.09859" lon="0.47215">
        <ele>571.3</ele>
        <time>2020-09-01T07:52:36Z</time>
      </trkpt>
      <trkpt lat="43.0988" lon="0.47083">
        <ele>571.6</ele>
        <time>2020-09-01T07:53:06Z</time>
      </trkpt>
      <trkpt lat="43.09892" lon="0.46956">
        <ele>572.1</ele>
        <time>2020-09-01T07:53:31Z</time>
      </trkpt>
      <trkpt lat="43.09908" lon="0.46832">
        <ele>572.4</ele>
        <time>2020-09-01T07:53:56Z</time>
      </trkpt>
      <trkpt lat="43.09921" lon="0.46703">
        <ele>572.5</ele>
        <time>2020-09-01T07:54:20Z</time>
      </trkpt>
      <trkpt lat="43.0994" lon="0.46557">
        <ele>572.4</ele>
        <time>2020-09-01T07:54:50Z</time>
      </trkpt>
      <trkpt lat="43.09951" lon="0.46412">
        <ele>572.5</ele>
        <time>2020-09-01T07:55:20Z</time>
      </trkpt>
      <trkpt lat="43.09962" lon="0.46286">
        <ele>572.7</ele>
        <time>2020-09-01T07:55:45Z</time>
      </trkpt>
      <trkpt lat="43.09981" lon="0.46147">
        <ele>572.9</ele>
        <time>2020-09-01T07:56:10Z</time>
      </trkpt>
      <trkpt lat="43.10004" lon="0.46001">
        <ele>572.9</ele>
        <time>2020-09-01T07:56:35Z</time>
      </trkpt>
      <trkpt lat="43.10021" lon="0.45877">
        <ele>572.9</ele>
        <time>2020-09-01T07:57:00Z</time>
      </trkpt>
      <trkpt lat="43.1005" lon="0.45751">
        <ele>572.9</ele>
        <time>2020-09-01T07:57:30Z</time>
      </trkpt>
      <trkpt lat="43.10079" lon="0.45633">
        <ele>573</ele>
        <time>2020-09-01T07:57:55Z</time>
      </trkpt>
      <trkpt lat="43.10111" lon="0.45494">
        <ele>573.1</ele>
        <time>2020-09-01T07:58:25Z</time>
      </trkpt>
      <trkpt lat="43.1013" lon="0.45357">
        <ele>573.1</ele>
        <time>2020-09-01T07:58:55Z</time>
      </trkpt>
      <trkpt lat="43.10135" lon="0.45217">
        <ele>573.1</ele>
        <time>2020-09-01T07:59:25Z</time>
      </trkpt>
      <trkpt lat="43.10145" lon="0.45069">
        <ele>573</ele>
        <time>2020-09-01T07:59:55Z</time>
      </trkpt>
      <trkpt lat="43.10154" lon="0.44928">
        <ele>573</ele>
        <time>2020-09-01T08:00:25Z</time>
      </trkpt>
      <trkpt lat="43.10161" lon="0.44786">
        <ele>573</ele>
        <time>2020-09-01T08:00:55Z</time>
      </trkpt>
      <trkpt lat="43.10169" lon="0.44646">
        <ele>573.1</ele>
        <time>2020-09-01T08:01:25Z</time>
      </trkpt>
      <trkpt lat="43.10172" lon="0.44511">
        <ele>573.3</ele>
        <time>2020-09-01T08:01:55Z</time>
      </trkpt>
      <trkpt lat="43.10174" lon="0.44384">
        <ele>573.6</ele>
        <time>2020-09-01T08:02:25Z</time>
      </trkpt>
      <trkpt lat="43.10175" lon="0.44247">
        <ele>574.1</ele>
        <time>2020-09-01T08:02:55Z</time>
      </trkpt>
      <trkpt lat="43.10187" lon="0.44106">
        <ele>574.9</ele>
        <time>2020-09-01T08:03:30Z</time>
      </trkpt>
      <trkpt lat="43.10212" lon="0.43974">
        <ele>575.5</ele>
        <time>2020-09-01T08:04:05Z</time>
      </trkpt>
      <trkpt lat="43.10237" lon="0.43849">
        <ele>576.2</ele>
        <time>2020-09-01T08:04:40Z</time>
      </trkpt>
      <trkpt lat="43.10263" lon="0.43718">
        <ele>577.4</ele>
        <time>2020-09-01T08:05:20Z</time>
      </trkpt>
      <trkpt lat="43.10273" lon="0.43587">
        <ele>578.8</ele>
        <time>2020-09-01T08:06:06Z</time>
      </trkpt>
      <trkpt lat="43.10281" lon="0.43462">
        <ele>580.1</ele>
        <time>2020-09-01T08:06:47Z</time>
      </trkpt>
      <trkpt lat="43.10289" lon="0.43336">
        <ele>581.7</ele>
        <time>2020-09-01T08:07:27Z</time>
      </trkpt>
      <trkpt lat="43.10287" lon="0.43197">
        <ele>583.5</ele>
        <time>2020-09-01T08:08:13Z</time>
      </trkpt>
      <trkpt lat="43.10283" lon="0.43062">
        <ele>591</ele>
        <time>2020-09-01T08:16:25Z</time>
      </trkpt>
      <trkpt lat="43.10279" lon="0.42927">
        <ele>592.5</ele>
        <time>2020-09-01T08:16:55Z</time>
      </trkpt>
      <trkpt lat="43.1027" lon="0.42785">
        <ele>593.5</ele>
        <time>2020-09-01T08:17:25Z</time>
      </trkpt>
      <trkpt lat="43.10253" lon="0.42663">
        <ele>594.6</ele>
        <time>2020-09-01T08:17:50Z</time>
      </trkpt>
      <trkpt lat="43.10234" lon="0.42534">
        <ele>595.7</ele>
        <time>2020-09-01T08:18:15Z</time>
      </trkpt>
      <trkpt lat="43.10219" lon="0.424">
        <ele>596.1</ele>
        <time>2020-09-01T08:18:45Z</time>
      </trkpt>
      <trkpt lat="43.10199" lon="0.42268">
        <ele>596.4</ele>
        <time>2020-09-01T08:19:15Z</time>
      </trkpt>
      <trkpt lat="43.10177" lon="0.42127">
        <ele>597.2</ele>
        <time>2020-09-01T08:19:50Z</time>
      </trkpt>
      <trkpt lat="43.10163" lon="0.42005">
        <ele>597.9</ele>
        <time>2020-09-01T08:20:15Z</time>
      </trkpt>
      <trkpt lat="43.10137" lon="0.41872">
        <ele>598.6</ele>
        <time>2020-09-01T08:20:45Z</time>
      </trkpt>
      <trkpt lat="43.10092" lon="0.4175">
        <ele>599.2</ele>
        <time>2020-09-01T08:21:14Z</time>
      </trkpt>
      <trkpt lat="43.10038" lon="0.41625">
        <ele>601.4</ele>
        <time>2020-09-01T08:21:44Z</time>
      </trkpt>
      <trkpt lat="43.09997" lon="0.41499">
        <ele>602.6</ele>
        <time>2020-09-01T08:22:09Z</time>
      </trkpt>
      <trkpt lat="43.09964" lon="0.41379">
        <ele>603.4</ele>
        <time>2020-09-01T08:22:34Z</time>
      </trkpt>
      <trkpt lat="43.09924" lon="0.41265">
        <ele>604.3</ele>
        <time>2020-09-01T08:22:59Z</time>
      </trkpt>
      <trkpt lat="43.09889" lon="0.41147">
        <ele>605.7</ele>
        <time>2020-09-01T08:23:24Z</time>
      </trkpt>
      <trkpt lat="43.09853" lon="0.41028">
        <ele>606.9</ele>
        <time>2020-09-01T08:23:49Z</time>
      </trkpt>
      <trkpt lat="43.09816" lon="0.40914">
        <ele>607.4</ele>
        <time>2020-09-01T08:24:14Z</time>
      </trkpt>
      <trkpt lat="43.09781" lon="0.40788">
        <ele>608</ele>
        <time>2020-09-01T08:24:44Z</time>
      </trkpt>
      <trkpt lat="43.09739" lon="0.40658">
        <ele>608.7</ele>
        <time>2020-09-01T08:25:14Z</time>
      </trkpt>
      <trkpt lat="43.09701" lon="0.40526">
        <ele>609.2</ele>
        <time>2020-09-01T08:25:44Z</time>
      </trkpt>
      <trkpt lat="43.0966" lon="0.40396">
        <ele>609.7</ele>
        <time>2020-09-01T08:26:14Z</time>
      </trkpt>
      <trkpt lat="43.09622" lon="0.40273">
        <ele>610.3</ele>
        <time>2020-09-01T08:26:44Z</time>
      </trkpt>
      <trkpt lat="43.0958" lon="0.40141">
        <ele>611</ele>
        <time>2020-09-01T08:27:14Z</time>
      </trkpt>
      <trkpt lat="43.09542" lon="0.40024">
        <ele>611.9</ele>
        <time>2020-09-01T08:27:39Z</time>
      </trkpt>
      <trkpt lat="43.09497" lon="0.39894">
        <ele>613.8</ele>
        <time>2020-09-01T08:28:09Z</time>
      </trkpt>
      <trkpt lat="43.09433" lon="0.39782">
        <ele>615.8</ele>
        <time>2020-09-01T08:28:34Z</time>
      </trkpt>
      <trkpt lat="43.09391" lon="0.3967">
        <ele>617.2</ele>
        <time>2020-09-01T08:28:59Z</time>
      </trkpt>
      <trkpt lat="43.09347" lon="0.39545">
        <ele>617.9</ele>
        <time>2020-09-01T08:29:29Z</time>
      </trkpt>
      <trkpt lat="43.09302" lon="0.39427">
        <ele>618.6</ele>
        <time>2020-09-01T08:29:54Z</time>
      </trkpt>
      <trkpt lat="43.09266" lon="0.39294">
        <ele>619.9</ele>
        <time>2020-09-01T08:30:24Z</time>
      </trkpt>
      <trkpt lat="43.09228" lon="0.39159">
        <ele>620.8</ele>
        <time>2020-09-01T08:30:54Z</time>
      </trkpt>
      <trkpt lat="43.09226" lon="0.39028">
        <ele>623.3</ele>
        <time>2020-09-01T08:31:36Z</time>
      </trkpt>
      <trkpt lat="43.09169" lon="0.38921">
        <ele>623.6</ele>
        <time>2020-09-01T08:32:01Z</time>
      </trkpt>
      <trkpt lat="43.09143" lon="0.388">
        <ele>623.6</ele>
        <time>2020-09-01T08:32:26Z</time>
      </trkpt>
      <trkpt lat="43.09114" lon="0.38674">
        <ele>623.7</ele>
        <time>2020-09-01T08:32:56Z</time>
      </trkpt>
      <trkpt lat="43.09086" lon="0.3855">
        <ele>623.9</ele>
        <time>2020-09-01T08:33:26Z</time>
      </trkpt>
      <trkpt lat="43.09057" lon="0.38426">
        <ele>624.2</ele>
        <time>2020-09-01T08:33:56Z</time>
      </trkpt>
      <trkpt lat="43.09027" lon="0.38299">
        <ele>624.6</ele>
        <time>2020-09-01T08:34:26Z</time>
      </trkpt>
      <trkpt lat="43.08997" lon="0.38168">
        <ele>625.1</ele>
        <time>2020-09-01T08:34:56Z</time>
      </trkpt>
      <trkpt lat="43.08968" lon="0.38044">
        <ele>625.8</ele>
        <time>2020-09-01T08:35:26Z</time>
      </trkpt>
      <trkpt lat="43.08939" lon="0.37917">
        <ele>626.6</ele>
        <time>2020-09-01T08:35:56Z</time>
      </trkpt>
      <trkpt lat="43.0891" lon="0.37789">
        <ele>628.3</ele>
        <time>2020-09-01T08:36:21Z</time>
      </trkpt>
      <trkpt lat="43.08876" lon="0.37663">
        <ele>628.7</ele>
        <time>2020-09-01T08:36:46Z</time>
      </trkpt>
      <trkpt lat="43.08829" lon="0.37521">
        <ele>628.7</ele>
        <time>2020-09-01T08:37:11Z</time>
      </trkpt>
      <trkpt lat="43.08787" lon="0.37387">
        <ele>629.5</ele>
        <time>2020-09-01T08:37:36Z</time>
      </trkpt>
      <trkpt lat="43.08728" lon="0.37259">
        <ele>630.2</ele>
        <time>2020-09-01T08:38:01Z</time>
      </trkpt>
      <trkpt lat="43.08679" lon="0.37141">
        <ele>631.1</ele>
        <time>2020-09-01T08:38:26Z</time>
      </trkpt>
      <trkpt lat="43.08621" lon="0.37016">
        <ele>631.7</ele>
        <time>2020-09-01T08:38:56Z</time>
      </trkpt>
      <trkpt lat="43.08571" lon="0.36911">
        <ele>632.8</ele>
        <time>2020-09-01T08:39:21Z</time>
      </trkpt>
      <trkpt lat="43.0852" lon="0.36803">
        <ele>634.2</ele>
        <time>2020-09-01T08:39:46Z</time>
      </trkpt>
      <trkpt lat="43.08467" lon="0.36688">
        <ele>635.3</ele>
        <time>2020-09-01T08:40:11Z</time>
      </trkpt>
      <trkpt lat="43.08406" lon="0.36558">
        <ele>636.1</ele>
        <time>2020-09-01T08:40:36Z</time>
      </trkpt>
      <trkpt lat="43.08344" lon="0.3643">
        <ele>636.8</ele>
        <time>2020-09-01T08:41:01Z</time>
      </trkpt>
      <trkpt lat="43.08293" lon="0.36324">
        <ele>637</ele>
        <time>2020-09-01T08:41:21Z</time>
      </trkpt>
      <trkpt lat="43.08216" lon="0.36216">
        <ele>637.4</ele>
        <time>2020-09-01T08:41:46Z</time>
      </trkpt>
      <trkpt lat="43.08146" lon="0.36137">
        <ele>637.7</ele>
        <time>2020-09-01T08:42:06Z</time>
      </trkpt>
      <trkpt lat="43.08063" lon="0.36066">
        <ele>638.5</ele>
        <time>2020-09-01T08:42:26Z</time>
      </trkpt>
      <trkpt lat="43.08065" lon="0.35927">
        <ele>638.9</ele>
        <time>2020-09-01T08:42:56Z</time>
      </trkpt>
      <trkpt lat="43.08022" lon="0.3581">
        <ele>639.5</ele>
        <time>2020-09-01T08:43:31Z</time>
      </trkpt>
      <trkpt lat="43.08026" lon="0.35675">
        <ele>640.4</ele>
        <time>2020-09-01T08:44:11Z</time>
      </trkpt>
      <trkpt lat="43.08028" lon="0.35541">
        <ele>641.6</ele>
        <time>2020-09-01T08:44:51Z</time>
      </trkpt>
      <trkpt lat="43.08047" lon="0.35405">
        <ele>642.8</ele>
        <time>2020-09-01T08:45:26Z</time>
      </trkpt>
      <trkpt lat="43.08093" lon="0.3529">
        <ele>645.5</ele>
        <time>2020-09-01T08:45:51Z</time>
      </trkpt>
      <trkpt lat="43.08149" lon="0.35159">
        <ele>646.3</ele>
        <time>2020-09-01T08:46:11Z</time>
      </trkpt>
      <trkpt lat="43.08204" lon="0.35045">
        <ele>646.3</ele>
        <time>2020-09-01T08:46:26Z</time>
      </trkpt>
      <trkpt lat="43.08258" lon="0.34923">
        <ele>646.2</ele>
        <time>2020-09-01T08:46:41Z</time>
      </trkpt>
      <trkpt lat="43.08305" lon="0.34817">
        <ele>645.6</ele>
        <time>2020-09-01T08:46:56Z</time>
      </trkpt>
      <trkpt lat="43.08366" lon="0.34681">
        <ele>647.7</ele>
        <time>2020-09-01T08:47:15Z</time>
      </trkpt>
      <trkpt lat="43.08417" lon="0.34565">
        <ele>646.9</ele>
        <time>2020-09-01T08:47:30Z</time>
      </trkpt>
      <trkpt lat="43.08468" lon="0.34452">
        <ele>646.8</ele>
        <time>2020-09-01T08:47:45Z</time>
      </trkpt>
      <trkpt lat="43.08517" lon="0.34346">
        <ele>645.9</ele>
        <time>2020-09-01T08:48:00Z</time>
      </trkpt>
      <trkpt lat="43.08564" lon="0.34238">
        <ele>645.2</ele>
        <time>2020-09-01T08:48:15Z</time>
      </trkpt>
      <trkpt lat="43.08612" lon="0.3413">
        <ele>644.5</ele>
        <time>2020-09-01T08:48:30Z</time>
      </trkpt>
      <trkpt lat="43.0866" lon="0.34021">
        <ele>644</ele>
        <time>2020-09-01T08:48:45Z</time>
      </trkpt>
      <trkpt lat="43.08711" lon="0.33914">
        <ele>643.1</ele>
        <time>2020-09-01T08:49:00Z</time>
      </trkpt>
      <trkpt lat="43.08773" lon="0.3381">
        <ele>641.5</ele>
        <time>2020-09-01T08:49:15Z</time>
      </trkpt>
      <trkpt lat="43.08853" lon="0.33724">
        <ele>640.2</ele>
        <time>2020-09-01T08:49:30Z</time>
      </trkpt>
      <trkpt lat="43.08934" lon="0.33657">
        <ele>639.4</ele>
        <time>2020-09-01T08:49:45Z</time>
      </trkpt>
      <trkpt lat="43.09015" lon="0.33592">
        <ele>638.6</ele>
        <time>2020-09-01T08:50:00Z</time>
      </trkpt>
      <trkpt lat="43.09104" lon="0.33523">
        <ele>637.9</ele>
        <time>2020-09-01T08:50:15Z</time>
      </trkpt>
      <trkpt lat="43.09194" lon="0.33456">
        <ele>636</ele>
        <time>2020-09-01T08:50:30Z</time>
      </trkpt>
      <trkpt lat="43.0928" lon="0.33381">
        <ele>633.9</ele>
        <time>2020-09-01T08:50:45Z</time>
      </trkpt>
      <trkpt lat="43.09364" lon="0.33312">
        <ele>632.3</ele>
        <time>2020-09-01T08:51:00Z</time>
      </trkpt>
      <trkpt lat="43.09449" lon="0.33247">
        <ele>630</ele>
        <time>2020-09-01T08:51:15Z</time>
      </trkpt>
      <trkpt lat="43.09534" lon="0.33178">
        <ele>627</ele>
        <time>2020-09-01T08:51:30Z</time>
      </trkpt>
      <trkpt lat="43.09625" lon="0.33105">
        <ele>624</ele>
        <time>2020-09-01T08:51:45Z</time>
      </trkpt>
      <trkpt lat="43.09714" lon="0.33034">
        <ele>621.4</ele>
        <time>2020-09-01T08:52:00Z</time>
      </trkpt>
      <trkpt lat="43.09798" lon="0.32966">
        <ele>619</ele>
        <time>2020-09-01T08:52:15Z</time>
      </trkpt>
      <trkpt lat="43.09887" lon="0.32895">
        <ele>616.9</ele>
        <time>2020-09-01T08:52:30Z</time>
      </trkpt>
      <trkpt lat="43.09977" lon="0.32821">
        <ele>614.6</ele>
        <time>2020-09-01T08:52:45Z</time>
      </trkpt>
      <trkpt lat="43.10074" lon="0.32748">
        <ele>612.4</ele>
        <time>2020-09-01T08:53:00Z</time>
      </trkpt>
      <trkpt lat="43.10187" lon="0.32746">
        <ele>609.8</ele>
        <time>2020-09-01T08:53:15Z</time>
      </trkpt>
      <trkpt lat="43.10303" lon="0.32768">
        <ele>606.8</ele>
        <time>2020-09-01T08:53:30Z</time>
      </trkpt>
      <trkpt lat="43.10413" lon="0.32792">
        <ele>603.3</ele>
        <time>2020-09-01T08:53:45Z</time>
      </trkpt>
      <trkpt lat="43.10487" lon="0.3267">
        <ele>600.4</ele>
        <time>2020-09-01T08:54:05Z</time>
      </trkpt>
      <trkpt lat="43.10535" lon="0.32528">
        <ele>597.1</ele>
        <time>2020-09-01T08:54:25Z</time>
      </trkpt>
      <trkpt lat="43.10572" lon="0.32407">
        <ele>595</ele>
        <time>2020-09-01T08:54:45Z</time>
      </trkpt>
      <trkpt lat="43.10632" lon="0.32312">
        <ele>593</ele>
        <time>2020-09-01T08:55:00Z</time>
      </trkpt>
      <trkpt lat="43.10647" lon="0.32165">
        <ele>590.9</ele>
        <time>2020-09-01T08:55:15Z</time>
      </trkpt>
      <trkpt lat="43.10633" lon="0.32016">
        <ele>589.8</ele>
        <time>2020-09-01T08:55:30Z</time>
      </trkpt>
      <trkpt lat="43.10736" lon="0.31964">
        <ele>584.4</ele>
        <time>2020-09-01T08:55:45Z</time>
      </trkpt>
      <trkpt lat="43.10844" lon="0.31991">
        <ele>578.6</ele>
        <time>2020-09-01T08:56:00Z</time>
      </trkpt>
      <trkpt lat="43.10949" lon="0.32019">
        <ele>573.3</ele>
        <time>2020-09-01T08:56:15Z</time>
      </trkpt>
      <trkpt lat="43.11061" lon="0.32003">
        <ele>567.8</ele>
        <time>2020-09-01T08:56:30Z</time>
      </trkpt>
      <trkpt lat="43.11166" lon="0.32086">
        <ele>564.6</ele>
        <time>2020-09-01T08:56:45Z</time>
      </trkpt>
      <trkpt lat="43.11259" lon="0.32131">
        <ele>560.2</ele>
        <time>2020-09-01T08:57:00Z</time>
      </trkpt>
      <trkpt lat="43.11367" lon="0.3209">
        <ele>556</ele>
        <time>2020-09-01T08:57:15Z</time>
      </trkpt>
      <trkpt lat="43.11474" lon="0.32043">
        <ele>549.2</ele>
        <time>2020-09-01T08:57:30Z</time>
      </trkpt>
      <trkpt lat="43.11592" lon="0.31984">
        <ele>539.3</ele>
        <time>2020-09-01T08:57:45Z</time>
      </trkpt>
      <trkpt lat="43.11722" lon="0.31977">
        <ele>532.4</ele>
        <time>2020-09-01T08:58:00Z</time>
      </trkpt>
      <trkpt lat="43.11844" lon="0.31984">
        <ele>526.1</ele>
        <time>2020-09-01T08:58:15Z</time>
      </trkpt>
      <trkpt lat="43.11966" lon="0.3195">
        <ele>522.8</ele>
        <time>2020-09-01T08:58:30Z</time>
      </trkpt>
      <trkpt lat="43.12088" lon="0.31904">
        <ele>517.2</ele>
        <time>2020-09-01T08:58:45Z</time>
      </trkpt>
      <trkpt lat="43.12202" lon="0.31848">
        <ele>519.7</ele>
        <time>2020-09-01T08:59:00Z</time>
      </trkpt>
      <trkpt lat="43.12325" lon="0.3182">
        <ele>512.4</ele>
        <time>2020-09-01T08:59:15Z</time>
      </trkpt>
      <trkpt lat="43.12439" lon="0.31778">
        <ele>512</ele>
        <time>2020-09-01T08:59:30Z</time>
      </trkpt>
      <trkpt lat="43.12546" lon="0.31736">
        <ele>507.4</ele>
        <time>2020-09-01T08:59:45Z</time>
      </trkpt>
      <trkpt lat="43.12633" lon="0.31642">
        <ele>503.2</ele>
        <time>2020-09-01T09:00:00Z</time>
      </trkpt>
      <trkpt lat="43.12717" lon="0.31578">
        <ele>498</ele>
        <time>2020-09-01T09:00:16Z</time>
      </trkpt>
      <trkpt lat="43.12818" lon="0.31534">
        <ele>495.7</ele>
        <time>2020-09-01T09:00:31Z</time>
      </trkpt>
      <trkpt lat="43.12927" lon="0.31481">
        <ele>494.6</ele>
        <time>2020-09-01T09:00:46Z</time>
      </trkpt>
      <trkpt lat="43.13043" lon="0.31439">
        <ele>491.5</ele>
        <time>2020-09-01T09:01:01Z</time>
      </trkpt>
      <trkpt lat="43.13159" lon="0.31403">
        <ele>489.1</ele>
        <time>2020-09-01T09:01:16Z</time>
      </trkpt>
      <trkpt lat="43.13265" lon="0.3134">
        <ele>484.7</ele>
        <time>2020-09-01T09:01:31Z</time>
      </trkpt>
      <trkpt lat="43.13383" lon="0.31298">
        <ele>478.5</ele>
        <time>2020-09-01T09:01:46Z</time>
      </trkpt>
      <trkpt lat="43.13506" lon="0.31271">
        <ele>474.6</ele>
        <time>2020-09-01T09:02:01Z</time>
      </trkpt>
      <trkpt lat="43.13619" lon="0.31208">
        <ele>468.6</ele>
        <time>2020-09-01T09:02:16Z</time>
      </trkpt>
      <trkpt lat="43.13702" lon="0.31127">
        <ele>464.3</ele>
        <time>2020-09-01T09:02:31Z</time>
      </trkpt>
      <trkpt lat="43.13796" lon="0.31057">
        <ele>459.8</ele>
        <time>2020-09-01T09:02:46Z</time>
      </trkpt>
      <trkpt lat="43.13892" lon="0.30966">
        <ele>455.4</ele>
        <time>2020-09-01T09:03:01Z</time>
      </trkpt>
      <trkpt lat="43.13993" lon="0.30871">
        <ele>452</ele>
        <time>2020-09-01T09:03:16Z</time>
      </trkpt>
      <trkpt lat="43.14112" lon="0.30799">
        <ele>449.3</ele>
        <time>2020-09-01T09:03:31Z</time>
      </trkpt>
      <trkpt lat="43.14223" lon="0.30737">
        <ele>442.2</ele>
        <time>2020-09-01T09:03:46Z</time>
      </trkpt>
      <trkpt lat="43.14291" lon="0.30582">
        <ele>437.1</ele>
        <time>2020-09-01T09:04:01Z</time>
      </trkpt>
      <trkpt lat="43.14352" lon="0.30483">
        <ele>433.6</ele>
        <time>2020-09-01T09:04:11Z</time>
      </trkpt>
      <trkpt lat="43.14409" lon="0.3038">
        <ele>429.4</ele>
        <time>2020-09-01T09:04:21Z</time>
      </trkpt>
      <trkpt lat="43.14468" lon="0.30279">
        <ele>425.6</ele>
        <time>2020-09-01T09:04:31Z</time>
      </trkpt>
      <trkpt lat="43.14571" lon="0.30168">
        <ele>420</ele>
        <time>2020-09-01T09:04:46Z</time>
      </trkpt>
      <trkpt lat="43.1464" lon="0.30083">
        <ele>416.7</ele>
        <time>2020-09-01T09:04:56Z</time>
      </trkpt>
      <trkpt lat="43.14706" lon="0.29921">
        <ele>409</ele>
        <time>2020-09-01T09:05:11Z</time>
      </trkpt>
      <trkpt lat="43.14759" lon="0.29818">
        <ele>404.8</ele>
        <time>2020-09-01T09:05:21Z</time>
      </trkpt>
      <trkpt lat="43.14855" lon="0.29696">
        <ele>398.5</ele>
        <time>2020-09-01T09:05:36Z</time>
      </trkpt>
      <trkpt lat="43.14932" lon="0.29576">
        <ele>393.1</ele>
        <time>2020-09-01T09:05:51Z</time>
      </trkpt>
      <trkpt lat="43.15008" lon="0.29475">
        <ele>388.3</ele>
        <time>2020-09-01T09:06:06Z</time>
      </trkpt>
      <trkpt lat="43.15085" lon="0.29389">
        <ele>382</ele>
        <time>2020-09-01T09:06:21Z</time>
      </trkpt>
      <trkpt lat="43.15174" lon="0.29294">
        <ele>377.2</ele>
        <time>2020-09-01T09:06:36Z</time>
      </trkpt>
      <trkpt lat="43.15267" lon="0.29194">
        <ele>375.2</ele>
        <time>2020-09-01T09:06:51Z</time>
      </trkpt>
      <trkpt lat="43.15357" lon="0.29106">
        <ele>368.2</ele>
        <time>2020-09-01T09:07:06Z</time>
      </trkpt>
      <trkpt lat="43.15437" lon="0.29019">
        <ele>364.8</ele>
        <time>2020-09-01T09:07:21Z</time>
      </trkpt>
      <trkpt lat="43.15514" lon="0.28951">
        <ele>359.4</ele>
        <time>2020-09-01T09:07:36Z</time>
      </trkpt>
      <trkpt lat="43.15594" lon="0.2887">
        <ele>356.7</ele>
        <time>2020-09-01T09:07:56Z</time>
      </trkpt>
      <trkpt lat="43.15686" lon="0.28787">
        <ele>357.9</ele>
        <time>2020-09-01T09:08:16Z</time>
      </trkpt>
      <trkpt lat="43.15764" lon="0.28662">
        <ele>355.2</ele>
        <time>2020-09-01T09:08:36Z</time>
      </trkpt>
      <trkpt lat="43.15824" lon="0.28548">
        <ele>352.7</ele>
        <time>2020-09-01T09:08:51Z</time>
      </trkpt>
      <trkpt lat="43.15891" lon="0.28438">
        <ele>350.7</ele>
        <time>2020-09-01T09:09:06Z</time>
      </trkpt>
      <trkpt lat="43.15952" lon="0.28335">
        <ele>347.3</ele>
        <time>2020-09-01T09:09:21Z</time>
      </trkpt>
      <trkpt lat="43.16029" lon="0.28198">
        <ele>344.6</ele>
        <time>2020-09-01T09:09:36Z</time>
      </trkpt>
      <trkpt lat="43.16071" lon="0.28037">
        <ele>339.5</ele>
        <time>2020-09-01T09:09:51Z</time>
      </trkpt>
      <trkpt lat="43.1612" lon="0.27915">
        <ele>339.3</ele>
        <time>2020-09-01T09:10:06Z</time>
      </trkpt>
      <trkpt lat="43.16189" lon="0.27792">
        <ele>333.6</ele>
        <time>2020-09-01T09:10:26Z</time>
      </trkpt>
      <trkpt lat="43.16263" lon="0.27674">
        <ele>329.7</ele>
        <time>2020-09-01T09:10:41Z</time>
      </trkpt>
      <trkpt lat="43.16313" lon="0.27571">
        <ele>328.9</ele>
        <time>2020-09-01T09:10:56Z</time>
      </trkpt>
      <trkpt lat="43.16368" lon="0.27454">
        <ele>328</ele>
        <time>2020-09-01T09:11:26Z</time>
      </trkpt>
      <trkpt lat="43.16422" lon="0.27336">
        <ele>326.7</ele>
        <time>2020-09-01T09:11:56Z</time>
      </trkpt>
      <trkpt lat="43.16476" lon="0.27221">
        <ele>323.4</ele>
        <time>2020-09-01T09:12:21Z</time>
      </trkpt>
      <trkpt lat="43.16541" lon="0.27132">
        <ele>322.6</ele>
        <time>2020-09-01T09:12:46Z</time>
      </trkpt>
      <trkpt lat="43.16595" lon="0.27025">
        <ele>321.5</ele>
        <time>2020-09-01T09:13:06Z</time>
      </trkpt>
      <trkpt lat="43.16636" lon="0.26892">
        <ele>319.4</ele>
        <time>2020-09-01T09:13:20Z</time>
      </trkpt>
      <trkpt lat="43.1668" lon="0.26768">
        <ele>319</ele>
        <time>2020-09-01T09:13:35Z</time>
      </trkpt>
      <trkpt lat="43.1672" lon="0.2664">
        <ele>318</ele>
        <time>2020-09-01T09:13:55Z</time>
      </trkpt>
      <trkpt lat="43.16769" lon="0.26506">
        <ele>316.7</ele>
        <time>2020-09-01T09:14:15Z</time>
      </trkpt>
      <trkpt lat="43.16818" lon="0.26361">
        <ele>312.9</ele>
        <time>2020-09-01T09:14:35Z</time>
      </trkpt>
      <trkpt lat="43.16858" lon="0.26245">
        <ele>313.1</ele>
        <time>2020-09-01T09:14:55Z</time>
      </trkpt>
      <trkpt lat="43.16898" lon="0.2612">
        <ele>313.3</ele>
        <time>2020-09-01T09:15:30Z</time>
      </trkpt>
      <trkpt lat="43.16938" lon="0.25995">
        <ele>312.5</ele>
        <time>2020-09-01T09:16:00Z</time>
      </trkpt>
      <trkpt lat="43.16979" lon="0.25874">
        <ele>310.9</ele>
        <time>2020-09-01T09:16:25Z</time>
      </trkpt>
      <trkpt lat="43.17029" lon="0.2573">
        <ele>309.2</ele>
        <time>2020-09-01T09:16:45Z</time>
      </trkpt>
      <trkpt lat="43.17079" lon="0.25605">
        <ele>307.9</ele>
        <time>2020-09-01T09:17:10Z</time>
      </trkpt>
      <trkpt lat="43.17156" lon="0.25506">
        <ele>304.3</ele>
        <time>2020-09-01T09:17:25Z</time>
      </trkpt>
      <trkpt lat="43.17246" lon="0.25434">
        <ele>301.7</ele>
        <time>2020-09-01T09:17:35Z</time>
      </trkpt>
      <trkpt lat="43.17339" lon="0.25372">
        <ele>299.2</ele>
        <time>2020-09-01T09:17:45Z</time>
      </trkpt>
      <trkpt lat="43.17418" lon="0.25313">
        <ele>297.4</ele>
        <time>2020-09-01T09:17:55Z</time>
      </trkpt>
      <trkpt lat="43.17518" lon="0.25234">
        <ele>293.6</ele>
        <time>2020-09-01T09:18:10Z</time>
      </trkpt>
      <trkpt lat="43.17625" lon="0.25152">
        <ele>289.4</ele>
        <time>2020-09-01T09:18:25Z</time>
      </trkpt>
      <trkpt lat="43.1771" lon="0.2509">
        <ele>285.9</ele>
        <time>2020-09-01T09:18:35Z</time>
      </trkpt>
      <trkpt lat="43.17821" lon="0.25019">
        <ele>281.2</ele>
        <time>2020-09-01T09:18:50Z</time>
      </trkpt>
      <trkpt lat="43.17909" lon="0.24956">
        <ele>278.1</ele>
        <time>2020-09-01T09:19:05Z</time>
      </trkpt>
      <trkpt lat="43.17992" lon="0.24897">
        <ele>274.7</ele>
        <time>2020-09-01T09:19:25Z</time>
      </trkpt>
      <trkpt lat="43.18091" lon="0.24825">
        <ele>272.1</ele>
        <time>2020-09-01T09:19:50Z</time>
      </trkpt>
      <trkpt lat="43.1818" lon="0.24761">
        <ele>270.9</ele>
        <time>2020-09-01T09:20:10Z</time>
      </trkpt>
      <trkpt lat="43.18265" lon="0.24697">
        <ele>269.6</ele>
        <time>2020-09-01T09:20:30Z</time>
      </trkpt>
      <trkpt lat="43.1835" lon="0.24636">
        <ele>269.3</ele>
        <time>2020-09-01T09:20:50Z</time>
      </trkpt>
      <trkpt lat="43.18436" lon="0.24573">
        <ele>268.9</ele>
        <time>2020-09-01T09:21:10Z</time>
      </trkpt>
      <trkpt lat="43.18487" lon="0.24451">
        <ele>268.3</ele>
        <time>2020-09-01T09:21:35Z</time>
      </trkpt>
      <trkpt lat="43.18457" lon="0.24334">
        <ele>267.4</ele>
        <time>2020-09-01T09:21:55Z</time>
      </trkpt>
      <trkpt lat="43.18428" lon="0.24197">
        <ele>266.3</ele>
        <time>2020-09-01T09:22:20Z</time>
      </trkpt>
      <trkpt lat="43.1841" lon="0.24056">
        <ele>265.3</ele>
        <time>2020-09-01T09:22:50Z</time>
      </trkpt>
      <trkpt lat="43.18481" lon="0.23965">
        <ele>264.5</ele>
        <time>2020-09-01T09:23:10Z</time>
      </trkpt>
      <trkpt lat="43.18548" lon="0.23874">
        <ele>264.2</ele>
        <time>2020-09-01T09:23:30Z</time>
      </trkpt>
      <trkpt lat="43.18628" lon="0.23769">
        <ele>263.8</ele>
        <time>2020-09-01T09:23:55Z</time>
      </trkpt>
      <trkpt lat="43.18694" lon="0.23685">
        <ele>263.2</ele>
        <time>2020-09-01T09:24:15Z</time>
      </trkpt>
      <trkpt lat="43.18771" lon="0.23582">
        <ele>262.4</ele>
        <time>2020-09-01T09:24:40Z</time>
      </trkpt>
      <trkpt lat="43.18847" lon="0.23482">
        <ele>261.8</ele>
        <time>2020-09-01T09:25:05Z</time>
      </trkpt>
      <trkpt lat="43.18914" lon="0.23396">
        <ele>261.5</ele>
        <time>2020-09-01T09:25:30Z</time>
      </trkpt>
      <trkpt lat="43.18988" lon="0.233">
        <ele>261.2</ele>
        <time>2020-09-01T09:26:00Z</time>
      </trkpt>
      <trkpt lat="43.19055" lon="0.23208">
        <ele>260.3</ele>
        <time>2020-09-01T09:26:25Z</time>
      </trkpt>
      <trkpt lat="43.19126" lon="0.23118">
        <ele>260.1</ele>
        <time>2020-09-01T09:26:50Z</time>
      </trkpt>
      <trkpt lat="43.19201" lon="0.23018">
        <ele>259.8</ele>
        <time>2020-09-01T09:27:20Z</time>
      </trkpt>
      <trkpt lat="43.19271" lon="0.22923">
        <ele>259</ele>
        <time>2020-09-01T09:27:45Z</time>
      </trkpt>
      <trkpt lat="43.19347" lon="0.22824">
        <ele>258.6</ele>
        <time>2020-09-01T09:28:10Z</time>
      </trkpt>
      <trkpt lat="43.19416" lon="0.22734">
        <ele>258.3</ele>
        <time>2020-09-01T09:28:35Z</time>
      </trkpt>
      <trkpt lat="43.1949" lon="0.22636">
        <ele>258.1</ele>
        <time>2020-09-01T09:29:05Z</time>
      </trkpt>
      <trkpt lat="43.19559" lon="0.22547">
        <ele>257.7</ele>
        <time>2020-09-01T09:29:45Z</time>
      </trkpt>
      <trkpt lat="43.19626" lon="0.2246">
        <ele>257.5</ele>
        <time>2020-09-01T09:30:30Z</time>
      </trkpt>
      <trkpt lat="43.197" lon="0.22363">
        <ele>257.4</ele>
        <time>2020-09-01T09:31:10Z</time>
      </trkpt>
      <trkpt lat="43.19781" lon="0.22296">
        <ele>257.6</ele>
        <time>2020-09-01T09:31:45Z</time>
      </trkpt>
      <trkpt lat="43.19865" lon="0.22241">
        <ele>258.1</ele>
        <time>2020-09-01T09:32:20Z</time>
      </trkpt>
      <trkpt lat="43.19955" lon="0.22186">
        <ele>258.5</ele>
        <time>2020-09-01T09:32:55Z</time>
      </trkpt>
      <trkpt lat="43.20047" lon="0.22123">
        <ele>259</ele>
        <time>2020-09-01T09:33:30Z</time>
      </trkpt>
      <trkpt lat="43.20138" lon="0.22064">
        <ele>259.6</ele>
        <time>2020-09-01T09:34:05Z</time>
      </trkpt>
      <trkpt lat="43.20228" lon="0.22014">
        <ele>260.6</ele>
        <time>2020-09-01T09:34:35Z</time>
      </trkpt>
      <trkpt lat="43.20322" lon="0.21973">
        <ele>261.1</ele>
        <time>2020-09-01T09:35:00Z</time>
      </trkpt>
      <trkpt lat="43.20411" lon="0.21931">
        <ele>261.1</ele>
        <time>2020-09-01T09:35:25Z</time>
      </trkpt>
      <trkpt lat="43.20492" lon="0.21877">
        <ele>261.3</ele>
        <time>2020-09-01T09:35:55Z</time>
      </trkpt>
      <trkpt lat="43.20575" lon="0.2181">
        <ele>262.1</ele>
        <time>2020-09-01T09:36:35Z</time>
      </trkpt>
      <trkpt lat="43.2066" lon="0.2173">
        <ele>267.4</ele>
        <time>2020-09-01T09:41:39Z</time>
      </trkpt>
      <trkpt lat="43.20737" lon="0.21634">
        <ele>271.2</ele>
        <time>2020-09-01T09:42:04Z</time>
      </trkpt>
      <trkpt lat="43.20789" lon="0.21527">
        <ele>271.2</ele>
        <time>2020-09-01T09:42:24Z</time>
      </trkpt>
      <trkpt lat="43.20819" lon="0.21397">
        <ele>271.2</ele>
        <time>2020-09-01T09:42:59Z</time>
      </trkpt>
      <trkpt lat="43.20827" lon="0.21273">
        <ele>271.3</ele>
        <time>2020-09-01T09:43:39Z</time>
      </trkpt>
      <trkpt lat="43.20826" lon="0.21141">
        <ele>271.5</ele>
        <time>2020-09-01T09:44:19Z</time>
      </trkpt>
      <trkpt lat="43.20824" lon="0.21016">
        <ele>271.9</ele>
        <time>2020-09-01T09:44:59Z</time>
      </trkpt>
      <trkpt lat="43.20823" lon="0.20889">
        <ele>272.5</ele>
        <time>2020-09-01T09:45:39Z</time>
      </trkpt>
      <trkpt lat="43.20815" lon="0.20761">
        <ele>273.2</ele>
        <time>2020-09-01T09:46:19Z</time>
      </trkpt>
      <trkpt lat="43.20812" lon="0.20634">
        <ele>274.5</ele>
        <time>2020-09-01T09:47:05Z</time>
      </trkpt>
      <trkpt lat="43.20813" lon="0.20503">
        <ele>276.2</ele>
        <time>2020-09-01T09:47:59Z</time>
      </trkpt>
      <trkpt lat="43.20807" lon="0.2037">
        <ele>277.7</ele>
        <time>2020-09-01T09:48:51Z</time>
      </trkpt>
      <trkpt lat="43.20758" lon="0.20266">
        <ele>279</ele>
        <time>2020-09-01T09:49:32Z</time>
      </trkpt>
      <trkpt lat="43.20678" lon="0.2019">
        <ele>280.4</ele>
        <time>2020-09-01T09:50:09Z</time>
      </trkpt>
      <trkpt lat="43.20616" lon="0.20099">
        <ele>282.8</ele>
        <time>2020-09-01T09:50:54Z</time>
      </trkpt>
      <trkpt lat="43.20551" lon="0.19999">
        <ele>285.8</ele>
        <time>2020-09-01T09:51:47Z</time>
      </trkpt>
      <trkpt lat="43.2047" lon="0.19936">
        <ele>289.2</ele>
        <time>2020-09-01T09:52:41Z</time>
      </trkpt>
      <trkpt lat="43.2039" lon="0.19871">
        <ele>293.2</ele>
        <time>2020-09-01T09:53:30Z</time>
      </trkpt>
      <trkpt lat="43.20307" lon="0.19821">
        <ele>297.2</ele>
        <time>2020-09-01T09:54:17Z</time>
      </trkpt>
      <trkpt lat="43.20221" lon="0.19758">
        <ele>301</ele>
        <time>2020-09-01T09:55:06Z</time>
      </trkpt>
      <trkpt lat="43.20134" lon="0.19702">
        <ele>304.7</ele>
        <time>2020-09-01T09:55:59Z</time>
      </trkpt>
      <trkpt lat="43.20063" lon="0.19611">
        <ele>307.9</ele>
        <time>2020-09-01T09:56:44Z</time>
      </trkpt>
      <trkpt lat="43.19996" lon="0.19498">
        <ele>314.6</ele>
        <time>2020-09-01T09:57:46Z</time>
      </trkpt>
      <trkpt lat="43.19888" lon="0.19406">
        <ele>315.1</ele>
        <time>2020-09-01T09:58:01Z</time>
      </trkpt>
      <trkpt lat="43.19807" lon="0.19339">
        <ele>315.4</ele>
        <time>2020-09-01T09:58:11Z</time>
      </trkpt>
      <trkpt lat="43.19717" lon="0.19287">
        <ele>313.4</ele>
        <time>2020-09-01T09:58:21Z</time>
      </trkpt>
      <trkpt lat="43.19643" lon="0.19208">
        <ele>314.3</ele>
        <time>2020-09-01T09:58:31Z</time>
      </trkpt>
      <trkpt lat="43.19527" lon="0.19115">
        <ele>306.7</ele>
        <time>2020-09-01T09:58:46Z</time>
      </trkpt>
      <trkpt lat="43.19464" lon="0.19004">
        <ele>303.2</ele>
        <time>2020-09-01T09:58:56Z</time>
      </trkpt>
      <trkpt lat="43.19432" lon="0.1886">
        <ele>302.8</ele>
        <time>2020-09-01T09:59:06Z</time>
      </trkpt>
      <trkpt lat="43.19404" lon="0.18728">
        <ele>303.8</ele>
        <time>2020-09-01T09:59:21Z</time>
      </trkpt>
      <trkpt lat="43.19393" lon="0.18598">
        <ele>303</ele>
        <time>2020-09-01T10:00:11Z</time>
      </trkpt>
      <trkpt lat="43.19424" lon="0.18482">
        <ele>301.6</ele>
        <time>2020-09-01T10:01:08Z</time>
      </trkpt>
      <trkpt lat="43.19449" lon="0.1835">
        <ele>304.3</ele>
        <time>2020-09-01T10:02:07Z</time>
      </trkpt>
      <trkpt lat="43.19458" lon="0.18216">
        <ele>308.1</ele>
        <time>2020-09-01T10:03:04Z</time>
      </trkpt>
      <trkpt lat="43.19476" lon="0.18095">
        <ele>314</ele>
        <time>2020-09-01T10:03:52Z</time>
      </trkpt>
      <trkpt lat="43.19484" lon="0.17967">
        <ele>317.6</ele>
        <time>2020-09-01T10:04:38Z</time>
      </trkpt>
      <trkpt lat="43.19498" lon="0.17845">
        <ele>320.1</ele>
        <time>2020-09-01T10:05:18Z</time>
      </trkpt>
      <trkpt lat="43.1951" lon="0.17719">
        <ele>321.9</ele>
        <time>2020-09-01T10:05:58Z</time>
      </trkpt>
      <trkpt lat="43.19522" lon="0.17596">
        <ele>323.8</ele>
        <time>2020-09-01T10:06:38Z</time>
      </trkpt>
      <trkpt lat="43.19534" lon="0.17466">
        <ele>325.6</ele>
        <time>2020-09-01T10:07:18Z</time>
      </trkpt>
      <trkpt lat="43.19545" lon="0.17338">
        <ele>327.2</ele>
        <time>2020-09-01T10:07:53Z</time>
      </trkpt>
      <trkpt lat="43.19557" lon="0.17213">
        <ele>328.9</ele>
        <time>2020-09-01T10:08:28Z</time>
      </trkpt>
      <trkpt lat="43.1957" lon="0.17078">
        <ele>330.5</ele>
        <time>2020-09-01T10:09:08Z</time>
      </trkpt>
      <trkpt lat="43.19583" lon="0.16948">
        <ele>331.8</ele>
        <time>2020-09-01T10:09:48Z</time>
      </trkpt>
      <trkpt lat="43.19615" lon="0.16812">
        <ele>333</ele>
        <time>2020-09-01T10:10:28Z</time>
      </trkpt>
      <trkpt lat="43.19648" lon="0.16676">
        <ele>334.4</ele>
        <time>2020-09-01T10:11:03Z</time>
      </trkpt>
      <trkpt lat="43.19662" lon="0.16548">
        <ele>336.6</ele>
        <time>2020-09-01T10:11:23Z</time>
      </trkpt>
      <trkpt lat="43.19648" lon="0.1638">
        <ele>337</ele>
        <time>2020-09-01T10:11:38Z</time>
      </trkpt>
      <trkpt lat="43.19653" lon="0.16226">
        <ele>338.8</ele>
        <time>2020-09-01T10:11:53Z</time>
      </trkpt>
      <trkpt lat="43.19668" lon="0.16089">
        <ele>340.6</ele>
        <time>2020-09-01T10:12:23Z</time>
      </trkpt>
      <trkpt lat="43.19681" lon="0.15961">
        <ele>340.8</ele>
        <time>2020-09-01T10:13:03Z</time>
      </trkpt>
      <trkpt lat="43.19694" lon="0.15831">
        <ele>341.4</ele>
        <time>2020-09-01T10:13:43Z</time>
      </trkpt>
      <trkpt lat="43.19706" lon="0.15703">
        <ele>343.3</ele>
        <time>2020-09-01T10:14:29Z</time>
      </trkpt>
      <trkpt lat="43.19638" lon="0.1561">
        <ele>349.9</ele>
        <time>2020-09-01T10:48:25Z</time>
      </trkpt>
      <trkpt lat="43.19719" lon="0.15541">
        <ele>355.5</ele>
        <time>2020-09-01T11:25:08Z</time>
      </trkpt>
      <trkpt lat="43.19732" lon="0.15405">
        <ele>356.3</ele>
        <time>2020-09-01T11:26:02Z</time>
      </trkpt>
      <trkpt lat="43.19745" lon="0.15273">
        <ele>357.6</ele>
        <time>2020-09-01T11:27:01Z</time>
      </trkpt>
      <trkpt lat="43.19759" lon="0.1514">
        <ele>359.4</ele>
        <time>2020-09-01T11:27:59Z</time>
      </trkpt>
      <trkpt lat="43.19774" lon="0.1501">
        <ele>361.6</ele>
        <time>2020-09-01T11:28:52Z</time>
      </trkpt>
      <trkpt lat="43.1979" lon="0.14877">
        <ele>364</ele>
        <time>2020-09-01T11:29:51Z</time>
      </trkpt>
      <trkpt lat="43.19804" lon="0.14755">
        <ele>366.4</ele>
        <time>2020-09-01T11:30:46Z</time>
      </trkpt>
      <trkpt lat="43.19817" lon="0.14632">
        <ele>369</ele>
        <time>2020-09-01T11:31:43Z</time>
      </trkpt>
      <trkpt lat="43.19833" lon="0.14477">
        <ele>373.4</ele>
        <time>2020-09-01T11:32:28Z</time>
      </trkpt>
      <trkpt lat="43.19849" lon="0.14345">
        <ele>374.7</ele>
        <time>2020-09-01T11:32:43Z</time>
      </trkpt>
      <trkpt lat="43.19881" lon="0.14188">
        <ele>375.9</ele>
        <time>2020-09-01T11:32:58Z</time>
      </trkpt>
      <trkpt lat="43.19907" lon="0.14057">
        <ele>379.2</ele>
        <time>2020-09-01T11:33:18Z</time>
      </trkpt>
      <trkpt lat="43.19931" lon="0.13933">
        <ele>382.4</ele>
        <time>2020-09-01T11:34:00Z</time>
      </trkpt>
      <trkpt lat="43.19958" lon="0.13803">
        <ele>389.7</ele>
        <time>2020-09-01T11:35:00Z</time>
      </trkpt>
      <trkpt lat="43.19983" lon="0.13672">
        <ele>398</ele>
        <time>2020-09-01T11:36:00Z</time>
      </trkpt>
      <trkpt lat="43.20007" lon="0.1354">
        <ele>405.2</ele>
        <time>2020-09-01T11:36:59Z</time>
      </trkpt>
      <trkpt lat="43.20029" lon="0.13415">
        <ele>407.9</ele>
        <time>2020-09-01T11:37:39Z</time>
      </trkpt>
      <trkpt lat="43.20057" lon="0.1328">
        <ele>409.4</ele>
        <time>2020-09-01T11:38:14Z</time>
      </trkpt>
      <trkpt lat="43.20074" lon="0.13149">
        <ele>411.4</ele>
        <time>2020-09-01T11:38:54Z</time>
      </trkpt>
      <trkpt lat="43.20051" lon="0.12987">
        <ele>415.7</ele>
        <time>2020-09-01T11:39:29Z</time>
      </trkpt>
      <trkpt lat="43.20021" lon="0.12834">
        <ele>415.5</ele>
        <time>2020-09-01T11:39:44Z</time>
      </trkpt>
      <trkpt lat="43.19978" lon="0.12725">
        <ele>414.5</ele>
        <time>2020-09-01T11:39:54Z</time>
      </trkpt>
      <trkpt lat="43.20064" lon="0.12602">
        <ele>413.5</ele>
        <time>2020-09-01T11:40:09Z</time>
      </trkpt>
      <trkpt lat="43.20137" lon="0.12712">
        <ele>410.7</ele>
        <time>2020-09-01T11:40:24Z</time>
      </trkpt>
      <trkpt lat="43.20119" lon="0.1287">
        <ele>405.3</ele>
        <time>2020-09-01T11:40:39Z</time>
      </trkpt>
      <trkpt lat="43.20224" lon="0.12777">
        <ele>397</ele>
        <time>2020-09-01T11:40:54Z</time>
      </trkpt>
      <trkpt lat="43.20352" lon="0.12794">
        <ele>388.9</ele>
        <time>2020-09-01T11:41:09Z</time>
      </trkpt>
      <trkpt lat="43.20365" lon="0.12671">
        <ele>386.3</ele>
        <time>2020-09-01T11:41:19Z</time>
      </trkpt>
      <trkpt lat="43.20378" lon="0.1254">
        <ele>386.3</ele>
        <time>2020-09-01T11:41:29Z</time>
      </trkpt>
      <trkpt lat="43.204" lon="0.1241">
        <ele>381.9</ele>
        <time>2020-09-01T11:41:39Z</time>
      </trkpt>
      <trkpt lat="43.20459" lon="0.12294">
        <ele>371.3</ele>
        <time>2020-09-01T11:41:54Z</time>
      </trkpt>
      <trkpt lat="43.20478" lon="0.12156">
        <ele>368.6</ele>
        <time>2020-09-01T11:42:29Z</time>
      </trkpt>
      <trkpt lat="43.20511" lon="0.12027">
        <ele>366.1</ele>
        <time>2020-09-01T11:42:44Z</time>
      </trkpt>
      <trkpt lat="43.20541" lon="0.11905">
        <ele>364.8</ele>
        <time>2020-09-01T11:42:59Z</time>
      </trkpt>
      <trkpt lat="43.20571" lon="0.11788">
        <ele>362.7</ele>
        <time>2020-09-01T11:43:13Z</time>
      </trkpt>
      <trkpt lat="43.2056" lon="0.1165">
        <ele>360.9</ele>
        <time>2020-09-01T11:43:33Z</time>
      </trkpt>
      <trkpt lat="43.2051" lon="0.11546">
        <ele>362.1</ele>
        <time>2020-09-01T11:43:53Z</time>
      </trkpt>
      <trkpt lat="43.20483" lon="0.11408">
        <ele>359.9</ele>
        <time>2020-09-01T11:44:18Z</time>
      </trkpt>
      <trkpt lat="43.20464" lon="0.11277">
        <ele>356.7</ele>
        <time>2020-09-01T11:44:43Z</time>
      </trkpt>
      <trkpt lat="43.20445" lon="0.11144">
        <ele>356</ele>
        <time>2020-09-01T11:45:08Z</time>
      </trkpt>
      <trkpt lat="43.20429" lon="0.11006">
        <ele>355.8</ele>
        <time>2020-09-01T11:45:33Z</time>
      </trkpt>
      <trkpt lat="43.20415" lon="0.10866">
        <ele>356.4</ele>
        <time>2020-09-01T11:45:58Z</time>
      </trkpt>
      <trkpt lat="43.20398" lon="0.10714">
        <ele>354.8</ele>
        <time>2020-09-01T11:46:23Z</time>
      </trkpt>
      <trkpt lat="43.20383" lon="0.10592">
        <ele>351.4</ele>
        <time>2020-09-01T11:46:43Z</time>
      </trkpt>
      <trkpt lat="43.20368" lon="0.1045">
        <ele>350.9</ele>
        <time>2020-09-01T11:47:08Z</time>
      </trkpt>
      <trkpt lat="43.20363" lon="0.10311">
        <ele>350.8</ele>
        <time>2020-09-01T11:47:33Z</time>
      </trkpt>
      <trkpt lat="43.2036" lon="0.10166">
        <ele>349.4</ele>
        <time>2020-09-01T11:47:58Z</time>
      </trkpt>
      <trkpt lat="43.20351" lon="0.10031">
        <ele>348.2</ele>
        <time>2020-09-01T11:48:23Z</time>
      </trkpt>
      <trkpt lat="43.20397" lon="0.09903">
        <ele>346.4</ele>
        <time>2020-09-01T11:48:53Z</time>
      </trkpt>
      <trkpt lat="43.20409" lon="0.09761">
        <ele>345.1</ele>
        <time>2020-09-01T11:49:13Z</time>
      </trkpt>
      <trkpt lat="43.20435" lon="0.09614">
        <ele>344.6</ele>
        <time>2020-09-01T11:49:33Z</time>
      </trkpt>
      <trkpt lat="43.20404" lon="0.09495">
        <ele>343.2</ele>
        <time>2020-09-01T11:49:53Z</time>
      </trkpt>
      <trkpt lat="43.20365" lon="0.0938">
        <ele>343</ele>
        <time>2020-09-01T11:50:18Z</time>
      </trkpt>
      <trkpt lat="43.20349" lon="0.09237">
        <ele>342.8</ele>
        <time>2020-09-01T11:50:53Z</time>
      </trkpt>
      <trkpt lat="43.20354" lon="0.0909">
        <ele>341</ele>
        <time>2020-09-01T11:51:18Z</time>
      </trkpt>
      <trkpt lat="43.20354" lon="0.08942">
        <ele>341.2</ele>
        <time>2020-09-01T11:51:43Z</time>
      </trkpt>
      <trkpt lat="43.2036" lon="0.08798">
        <ele>341</ele>
        <time>2020-09-01T11:52:08Z</time>
      </trkpt>
      <trkpt lat="43.20337" lon="0.08658">
        <ele>340.1</ele>
        <time>2020-09-01T11:52:33Z</time>
      </trkpt>
      <trkpt lat="43.20317" lon="0.08516">
        <ele>339.4</ele>
        <time>2020-09-01T11:52:58Z</time>
      </trkpt>
      <trkpt lat="43.2032" lon="0.08369">
        <ele>338.9</ele>
        <time>2020-09-01T11:53:23Z</time>
      </trkpt>
      <trkpt lat="43.20309" lon="0.08234">
        <ele>339.1</ele>
        <time>2020-09-01T11:53:48Z</time>
      </trkpt>
      <trkpt lat="43.20289" lon="0.08096">
        <ele>339</ele>
        <time>2020-09-01T11:54:13Z</time>
      </trkpt>
      <trkpt lat="43.20268" lon="0.07945">
        <ele>339</ele>
        <time>2020-09-01T11:54:38Z</time>
      </trkpt>
      <trkpt lat="43.20251" lon="0.07818">
        <ele>338.9</ele>
        <time>2020-09-01T11:54:58Z</time>
      </trkpt>
      <trkpt lat="43.20219" lon="0.07702">
        <ele>339</ele>
        <time>2020-09-01T11:55:18Z</time>
      </trkpt>
      <trkpt lat="43.20197" lon="0.07579">
        <ele>338.9</ele>
        <time>2020-09-01T11:55:43Z</time>
      </trkpt>
      <trkpt lat="43.20283" lon="0.07531">
        <ele>338.6</ele>
        <time>2020-09-01T11:56:03Z</time>
      </trkpt>
      <trkpt lat="43.20374" lon="0.07481">
        <ele>338.3</ele>
        <time>2020-09-01T11:56:23Z</time>
      </trkpt>
      <trkpt lat="43.20464" lon="0.07419">
        <ele>337.9</ele>
        <time>2020-09-01T11:56:43Z</time>
      </trkpt>
      <trkpt lat="43.20434" lon="0.07277">
        <ele>337.5</ele>
        <time>2020-09-01T11:57:08Z</time>
      </trkpt>
      <trkpt lat="43.20393" lon="0.07159">
        <ele>337.3</ele>
        <time>2020-09-01T11:57:28Z</time>
      </trkpt>
      <trkpt lat="43.20451" lon="0.0704">
        <ele>337.1</ele>
        <time>2020-09-01T11:58:08Z</time>
      </trkpt>
      <trkpt lat="43.20545" lon="0.06984">
        <ele>336.9</ele>
        <time>2020-09-01T11:58:33Z</time>
      </trkpt>
      <trkpt lat="43.20544" lon="0.06859">
        <ele>336.8</ele>
        <time>2020-09-01T11:59:03Z</time>
      </trkpt>
      <trkpt lat="43.20516" lon="0.06715">
        <ele>336.3</ele>
        <time>2020-09-01T11:59:33Z</time>
      </trkpt>
      <trkpt lat="43.20485" lon="0.06576">
        <ele>335.9</ele>
        <time>2020-09-01T11:59:58Z</time>
      </trkpt>
      <trkpt lat="43.20435" lon="0.06439">
        <ele>335.7</ele>
        <time>2020-09-01T12:00:23Z</time>
      </trkpt>
      <trkpt lat="43.20364" lon="0.06341">
        <ele>335.4</ele>
        <time>2020-09-01T12:00:43Z</time>
      </trkpt>
      <trkpt lat="43.20289" lon="0.06253">
        <ele>335.3</ele>
        <time>2020-09-01T12:01:03Z</time>
      </trkpt>
      <trkpt lat="43.20216" lon="0.0617">
        <ele>335.3</ele>
        <time>2020-09-01T12:01:23Z</time>
      </trkpt>
      <trkpt lat="43.2011" lon="0.06137">
        <ele>335.3</ele>
        <time>2020-09-01T12:01:48Z</time>
      </trkpt>
      <trkpt lat="43.20132" lon="0.06017">
        <ele>335.2</ele>
        <time>2020-09-01T12:02:13Z</time>
      </trkpt>
      <trkpt lat="43.20195" lon="0.05912">
        <ele>335.1</ele>
        <time>2020-09-01T12:02:33Z</time>
      </trkpt>
      <trkpt lat="43.20237" lon="0.05798">
        <ele>335</ele>
        <time>2020-09-01T12:02:53Z</time>
      </trkpt>
      <trkpt lat="43.20228" lon="0.0566">
        <ele>334.9</ele>
        <time>2020-09-01T12:03:13Z</time>
      </trkpt>
      <trkpt lat="43.20195" lon="0.05524">
        <ele>334.8</ele>
        <time>2020-09-01T12:03:33Z</time>
      </trkpt>
      <trkpt lat="43.20154" lon="0.05395">
        <ele>334.5</ele>
        <time>2020-09-01T12:03:53Z</time>
      </trkpt>
      <trkpt lat="43.20114" lon="0.05271">
        <ele>334.2</ele>
        <time>2020-09-01T12:04:13Z</time>
      </trkpt>
      <trkpt lat="43.20078" lon="0.0515">
        <ele>334</ele>
        <time>2020-09-01T12:04:33Z</time>
      </trkpt>
      <trkpt lat="43.20076" lon="0.04997">
        <ele>333.7</ele>
        <time>2020-09-01T12:04:58Z</time>
      </trkpt>
      <trkpt lat="43.20084" lon="0.04871">
        <ele>333.5</ele>
        <time>2020-09-01T12:05:18Z</time>
      </trkpt>
      <trkpt lat="43.20123" lon="0.04752">
        <ele>333.3</ele>
        <time>2020-09-01T12:05:43Z</time>
      </trkpt>
      <trkpt lat="43.20172" lon="0.0464">
        <ele>333.2</ele>
        <time>2020-09-01T12:06:08Z</time>
      </trkpt>
      <trkpt lat="43.20192" lon="0.04519">
        <ele>333.2</ele>
        <time>2020-09-01T12:06:33Z</time>
      </trkpt>
      <trkpt lat="43.20207" lon="0.04381">
        <ele>333.1</ele>
        <time>2020-09-01T12:07:03Z</time>
      </trkpt>
      <trkpt lat="43.20186" lon="0.04247">
        <ele>333.1</ele>
        <time>2020-09-01T12:07:33Z</time>
      </trkpt>
      <trkpt lat="43.20161" lon="0.04108">
        <ele>333</ele>
        <time>2020-09-01T12:08:02Z</time>
      </trkpt>
      <trkpt lat="43.20153" lon="0.03969">
        <ele>332.8</ele>
        <time>2020-09-01T12:08:27Z</time>
      </trkpt>
      <trkpt lat="43.20098" lon="0.03833">
        <ele>332.4</ele>
        <time>2020-09-01T12:08:47Z</time>
      </trkpt>
      <trkpt lat="43.20024" lon="0.03715">
        <ele>330.8</ele>
        <time>2020-09-01T12:09:02Z</time>
      </trkpt>
      <trkpt lat="43.19993" lon="0.03576">
        <ele>329.5</ele>
        <time>2020-09-01T12:09:17Z</time>
      </trkpt>
      <trkpt lat="43.19966" lon="0.03431">
        <ele>327.2</ele>
        <time>2020-09-01T12:09:47Z</time>
      </trkpt>
      <trkpt lat="43.19921" lon="0.03324">
        <ele>325.5</ele>
        <time>2020-09-01T12:10:31Z</time>
      </trkpt>
      <trkpt lat="43.19897" lon="0.03203">
        <ele>323.7</ele>
        <time>2020-09-01T12:11:23Z</time>
      </trkpt>
      <trkpt lat="43.19964" lon="0.03087">
        <ele>323.4</ele>
        <time>2020-09-01T12:11:48Z</time>
      </trkpt>
      <trkpt lat="43.20002" lon="0.02972">
        <ele>323.1</ele>
        <time>2020-09-01T12:12:08Z</time>
      </trkpt>
      <trkpt lat="43.20043" lon="0.02841">
        <ele>323.2</ele>
        <time>2020-09-01T12:12:33Z</time>
      </trkpt>
      <trkpt lat="43.20088" lon="0.02727">
        <ele>323.1</ele>
        <time>2020-09-01T12:12:58Z</time>
      </trkpt>
      <trkpt lat="43.20107" lon="0.02603">
        <ele>325.3</ele>
        <time>2020-09-01T12:14:37Z</time>
      </trkpt>
      <trkpt lat="43.20091" lon="0.02465">
        <ele>329.6</ele>
        <time>2020-09-01T12:15:12Z</time>
      </trkpt>
      <trkpt lat="43.20079" lon="0.02318">
        <ele>329.3</ele>
        <time>2020-09-01T12:15:42Z</time>
      </trkpt>
      <trkpt lat="43.20107" lon="0.02189">
        <ele>327.9</ele>
        <time>2020-09-01T12:16:07Z</time>
      </trkpt>
      <trkpt lat="43.20121" lon="0.02066">
        <ele>328</ele>
        <time>2020-09-01T12:16:32Z</time>
      </trkpt>
      <trkpt lat="43.20097" lon="0.01934">
        <ele>327.2</ele>
        <time>2020-09-01T12:17:02Z</time>
      </trkpt>
      <trkpt lat="43.20074" lon="0.01812">
        <ele>327.4</ele>
        <time>2020-09-01T12:17:27Z</time>
      </trkpt>
      <trkpt lat="43.20043" lon="0.01671">
        <ele>326.9</ele>
        <time>2020-09-01T12:17:52Z</time>
      </trkpt>
      <trkpt lat="43.19977" lon="0.0155">
        <ele>326.7</ele>
        <time>2020-09-01T12:18:17Z</time>
      </trkpt>
      <trkpt lat="43.19988" lon="0.01411">
        <ele>325.9</ele>
        <time>2020-09-01T12:18:47Z</time>
      </trkpt>
      <trkpt lat="43.1996" lon="0.01263">
        <ele>326.1</ele>
        <time>2020-09-01T12:19:12Z</time>
      </trkpt>
      <trkpt lat="43.19934" lon="0.01126">
        <ele>327</ele>
        <time>2020-09-01T12:19:37Z</time>
      </trkpt>
      <trkpt lat="43.19908" lon="0.01004">
        <ele>327.3</ele>
        <time>2020-09-01T12:20:03Z</time>
      </trkpt>
      <trkpt lat="43.19825" lon="0.00933">
        <ele>328.5</ele>
        <time>2020-09-01T12:20:57Z</time>
      </trkpt>
      <trkpt lat="43.19753" lon="0.00846">
        <ele>330.3</ele>
        <time>2020-09-01T12:21:56Z</time>
      </trkpt>
      <trkpt lat="43.19706" lon="0.00727">
        <ele>331.3</ele>
        <time>2020-09-01T12:22:36Z</time>
      </trkpt>
      <trkpt lat="43.19684" lon="0.00596">
        <ele>332.4</ele>
        <time>2020-09-01T12:23:22Z</time>
      </trkpt>
      <trkpt lat="43.19664" lon="0.00475">
        <ele>333.7</ele>
        <time>2020-09-01T12:23:57Z</time>
      </trkpt>
      <trkpt lat="43.19633" lon="0.00347">
        <ele>334.8</ele>
        <time>2020-09-01T12:24:22Z</time>
      </trkpt>
      <trkpt lat="43.19603" lon="0.00204">
        <ele>335.3</ele>
        <time>2020-09-01T12:24:47Z</time>
      </trkpt>
      <trkpt lat="43.19574" lon="0.00069">
        <ele>335.7</ele>
        <time>2020-09-01T12:25:12Z</time>
      </trkpt>
      <trkpt lat="43.19546" lon="-0.00058">
        <ele>334.5</ele>
        <time>2020-09-01T12:25:37Z</time>
      </trkpt>
      <trkpt lat="43.19515" lon="-0.00197">
        <ele>334.8</ele>
        <time>2020-09-01T12:26:07Z</time>
      </trkpt>
      <trkpt lat="43.19485" lon="-0.00336">
        <ele>335.6</ele>
        <time>2020-09-01T12:26:32Z</time>
      </trkpt>
      <trkpt lat="43.19455" lon="-0.00472">
        <ele>336</ele>
        <time>2020-09-01T12:26:57Z</time>
      </trkpt>
      <trkpt lat="43.19425" lon="-0.00609">
        <ele>336.4</ele>
        <time>2020-09-01T12:27:22Z</time>
      </trkpt>
      <trkpt lat="43.19393" lon="-0.00754">
        <ele>336.7</ele>
        <time>2020-09-01T12:27:47Z</time>
      </trkpt>
      <trkpt lat="43.19367" lon="-0.00875">
        <ele>337</ele>
        <time>2020-09-01T12:28:07Z</time>
      </trkpt>
      <trkpt lat="43.19341" lon="-0.00998">
        <ele>337.3</ele>
        <time>2020-09-01T12:28:27Z</time>
      </trkpt>
      <trkpt lat="43.19316" lon="-0.0112">
        <ele>337.6</ele>
        <time>2020-09-01T12:28:47Z</time>
      </trkpt>
      <trkpt lat="43.19281" lon="-0.01267">
        <ele>337.9</ele>
        <time>2020-09-01T12:29:12Z</time>
      </trkpt>
      <trkpt lat="43.19251" lon="-0.01408">
        <ele>338.2</ele>
        <time>2020-09-01T12:29:37Z</time>
      </trkpt>
      <trkpt lat="43.1922" lon="-0.01551">
        <ele>338.5</ele>
        <time>2020-09-01T12:30:02Z</time>
      </trkpt>
      <trkpt lat="43.19194" lon="-0.0167">
        <ele>338.7</ele>
        <time>2020-09-01T12:30:22Z</time>
      </trkpt>
      <trkpt lat="43.19161" lon="-0.01816">
        <ele>339.1</ele>
        <time>2020-09-01T12:30:47Z</time>
      </trkpt>
      <trkpt lat="43.19129" lon="-0.01959">
        <ele>339.8</ele>
        <time>2020-09-01T12:31:12Z</time>
      </trkpt>
      <trkpt lat="43.19102" lon="-0.02096">
        <ele>340.1</ele>
        <time>2020-09-01T12:31:37Z</time>
      </trkpt>
      <trkpt lat="43.19058" lon="-0.02204">
        <ele>340.5</ele>
        <time>2020-09-01T12:31:57Z</time>
      </trkpt>
      <trkpt lat="43.18975" lon="-0.02261">
        <ele>340.7</ele>
        <time>2020-09-01T12:32:16Z</time>
      </trkpt>
      <trkpt lat="43.18876" lon="-0.02311">
        <ele>341.1</ele>
        <time>2020-09-01T12:32:41Z</time>
      </trkpt>
      <trkpt lat="43.18781" lon="-0.02358">
        <ele>341.5</ele>
        <time>2020-09-01T12:33:06Z</time>
      </trkpt>
      <trkpt lat="43.18701" lon="-0.02421">
        <ele>341.7</ele>
        <time>2020-09-01T12:33:31Z</time>
      </trkpt>
      <trkpt lat="43.18625" lon="-0.02495">
        <ele>341.9</ele>
        <time>2020-09-01T12:33:56Z</time>
      </trkpt>
      <trkpt lat="43.18541" lon="-0.02581">
        <ele>342.2</ele>
        <time>2020-09-01T12:34:26Z</time>
      </trkpt>
      <trkpt lat="43.18524" lon="-0.0272">
        <ele>344.7</ele>
        <time>2020-09-01T12:35:19Z</time>
      </trkpt>
      <trkpt lat="43.1846" lon="-0.02816">
        <ele>345.2</ele>
        <time>2020-09-01T12:35:44Z</time>
      </trkpt>
      <trkpt lat="43.18412" lon="-0.02939">
        <ele>347.1</ele>
        <time>2020-09-01T12:36:14Z</time>
      </trkpt>
      <trkpt lat="43.18469" lon="-0.03049">
        <ele>348.9</ele>
        <time>2020-09-01T12:36:39Z</time>
      </trkpt>
      <trkpt lat="43.18526" lon="-0.03158">
        <ele>349.7</ele>
        <time>2020-09-01T12:37:09Z</time>
      </trkpt>
      <trkpt lat="43.18582" lon="-0.03269">
        <ele>351.3</ele>
        <time>2020-09-01T12:37:44Z</time>
      </trkpt>
      <trkpt lat="43.18643" lon="-0.0337">
        <ele>353.4</ele>
        <time>2020-09-01T12:38:30Z</time>
      </trkpt>
      <trkpt lat="43.187" lon="-0.03475">
        <ele>355.9</ele>
        <time>2020-09-01T12:39:00Z</time>
      </trkpt>
      <trkpt lat="43.18735" lon="-0.0359">
        <ele>356.6</ele>
        <time>2020-09-01T12:39:35Z</time>
      </trkpt>
      <trkpt lat="43.18764" lon="-0.03715">
        <ele>358.1</ele>
        <time>2020-09-01T12:40:16Z</time>
      </trkpt>
      <trkpt lat="43.18765" lon="-0.03864">
        <ele>359.6</ele>
        <time>2020-09-01T12:40:36Z</time>
      </trkpt>
      <trkpt lat="43.18761" lon="-0.03994">
        <ele>360.2</ele>
        <time>2020-09-01T12:40:51Z</time>
      </trkpt>
      <trkpt lat="43.18762" lon="-0.04125">
        <ele>362</ele>
        <time>2020-09-01T12:41:06Z</time>
      </trkpt>
      <trkpt lat="43.1876" lon="-0.04269">
        <ele>361.3</ele>
        <time>2020-09-01T12:41:26Z</time>
      </trkpt>
      <trkpt lat="43.18762" lon="-0.04403">
        <ele>361.8</ele>
        <time>2020-09-01T12:41:51Z</time>
      </trkpt>
      <trkpt lat="43.18761" lon="-0.0453">
        <ele>364.7</ele>
        <time>2020-09-01T12:42:43Z</time>
      </trkpt>
      <trkpt lat="43.18762" lon="-0.04661">
        <ele>367.4</ele>
        <time>2020-09-01T12:43:23Z</time>
      </trkpt>
      <trkpt lat="43.18761" lon="-0.04786">
        <ele>373.7</ele>
        <time>2020-09-01T12:53:04Z</time>
      </trkpt>
      <trkpt lat="43.18752" lon="-0.04915">
        <ele>374.5</ele>
        <time>2020-09-01T12:54:07Z</time>
      </trkpt>
      <trkpt lat="43.18724" lon="-0.05042">
        <ele>375.9</ele>
        <time>2020-09-01T12:55:13Z</time>
      </trkpt>
      <trkpt lat="43.18657" lon="-0.05138">
        <ele>377.9</ele>
        <time>2020-09-01T12:56:14Z</time>
      </trkpt>
      <trkpt lat="43.18638" lon="-0.0527">
        <ele>380.8</ele>
        <time>2020-09-01T12:57:18Z</time>
      </trkpt>
      <trkpt lat="43.18684" lon="-0.05388">
        <ele>387</ele>
        <time>2020-09-01T12:58:22Z</time>
      </trkpt>
      <trkpt lat="43.18665" lon="-0.05509">
        <ele>396.4</ele>
        <time>2020-09-01T12:59:12Z</time>
      </trkpt>
      <trkpt lat="43.18649" lon="-0.05637">
        <ele>408</ele>
        <time>2020-09-01T13:00:13Z</time>
      </trkpt>
      <trkpt lat="43.18623" lon="-0.05756">
        <ele>424.9</ele>
        <time>2020-09-01T13:01:20Z</time>
      </trkpt>
      <trkpt lat="43.18601" lon="-0.05881">
        <ele>433.8</ele>
        <time>2020-09-01T13:02:24Z</time>
      </trkpt>
      <trkpt lat="43.18547" lon="-0.05993">
        <ele>441.3</ele>
        <time>2020-09-01T13:03:18Z</time>
      </trkpt>
      <trkpt lat="43.18527" lon="-0.06115">
        <ele>447</ele>
        <time>2020-09-01T13:04:04Z</time>
      </trkpt>
      <trkpt lat="43.18488" lon="-0.06252">
        <ele>453.8</ele>
        <time>2020-09-01T13:04:34Z</time>
      </trkpt>
      <trkpt lat="43.18454" lon="-0.06367">
        <ele>454.8</ele>
        <time>2020-09-01T13:04:54Z</time>
      </trkpt>
      <trkpt lat="43.18416" lon="-0.06492">
        <ele>455.9</ele>
        <time>2020-09-01T13:05:14Z</time>
      </trkpt>
      <trkpt lat="43.18377" lon="-0.06627">
        <ele>457.3</ele>
        <time>2020-09-01T13:05:39Z</time>
      </trkpt>
      <trkpt lat="43.18334" lon="-0.06771">
        <ele>457.9</ele>
        <time>2020-09-01T13:05:59Z</time>
      </trkpt>
      <trkpt lat="43.18291" lon="-0.06917">
        <ele>458.8</ele>
        <time>2020-09-01T13:06:19Z</time>
      </trkpt>
      <trkpt lat="43.18258" lon="-0.07032">
        <ele>460.1</ele>
        <time>2020-09-01T13:06:49Z</time>
      </trkpt>
      <trkpt lat="43.18218" lon="-0.07166">
        <ele>461.1</ele>
        <time>2020-09-01T13:07:24Z</time>
      </trkpt>
      <trkpt lat="43.18179" lon="-0.07299">
        <ele>461.6</ele>
        <time>2020-09-01T13:09:08Z</time>
      </trkpt>
      <trkpt lat="43.18146" lon="-0.07416">
        <ele>462.6</ele>
        <time>2020-09-01T13:09:38Z</time>
      </trkpt>
      <trkpt lat="43.18109" lon="-0.07542">
        <ele>464.5</ele>
        <time>2020-09-01T13:10:18Z</time>
      </trkpt>
      <trkpt lat="43.18067" lon="-0.07682">
        <ele>466.6</ele>
        <time>2020-09-01T13:10:53Z</time>
      </trkpt>
      <trkpt lat="43.18029" lon="-0.07811">
        <ele>466.6</ele>
        <time>2020-09-01T13:11:13Z</time>
      </trkpt>
      <trkpt lat="43.17995" lon="-0.07928">
        <ele>467.3</ele>
        <time>2020-09-01T13:11:33Z</time>
      </trkpt>
      <trkpt lat="43.17957" lon="-0.08058">
        <ele>467.8</ele>
        <time>2020-09-01T13:12:03Z</time>
      </trkpt>
      <trkpt lat="43.17922" lon="-0.0818">
        <ele>469.4</ele>
        <time>2020-09-01T13:12:28Z</time>
      </trkpt>
      <trkpt lat="43.17878" lon="-0.08335">
        <ele>469.9</ele>
        <time>2020-09-01T13:12:48Z</time>
      </trkpt>
      <trkpt lat="43.17842" lon="-0.08453">
        <ele>469.8</ele>
        <time>2020-09-01T13:13:03Z</time>
      </trkpt>
      <trkpt lat="43.17804" lon="-0.08573">
        <ele>469.8</ele>
        <time>2020-09-01T13:13:18Z</time>
      </trkpt>
      <trkpt lat="43.17736" lon="-0.08689">
        <ele>462.4</ele>
        <time>2020-09-01T13:13:28Z</time>
      </trkpt>
      <trkpt lat="43.17682" lon="-0.08815">
        <ele>459.2</ele>
        <time>2020-09-01T13:13:38Z</time>
      </trkpt>
      <trkpt lat="43.17717" lon="-0.08954">
        <ele>457</ele>
        <time>2020-09-01T13:13:48Z</time>
      </trkpt>
      <trkpt lat="43.17778" lon="-0.09086">
        <ele>452.9</ele>
        <time>2020-09-01T13:13:58Z</time>
      </trkpt>
      <trkpt lat="43.17863" lon="-0.09194">
        <ele>446</ele>
        <time>2020-09-01T13:14:08Z</time>
      </trkpt>
      <trkpt lat="43.17938" lon="-0.09319">
        <ele>439.8</ele>
        <time>2020-09-01T13:14:18Z</time>
      </trkpt>
      <trkpt lat="43.17991" lon="-0.09426">
        <ele>434.4</ele>
        <time>2020-09-01T13:14:28Z</time>
      </trkpt>
      <trkpt lat="43.1807" lon="-0.09562">
        <ele>428.1</ele>
        <time>2020-09-01T13:14:43Z</time>
      </trkpt>
      <trkpt lat="43.18118" lon="-0.09707">
        <ele>422.4</ele>
        <time>2020-09-01T13:14:58Z</time>
      </trkpt>
      <trkpt lat="43.18153" lon="-0.0985">
        <ele>416.8</ele>
        <time>2020-09-01T13:15:13Z</time>
      </trkpt>
      <trkpt lat="43.18192" lon="-0.09986">
        <ele>411.5</ele>
        <time>2020-09-01T13:15:28Z</time>
      </trkpt>
      <trkpt lat="43.18245" lon="-0.10126">
        <ele>407.1</ele>
        <time>2020-09-01T13:15:43Z</time>
      </trkpt>
      <trkpt lat="43.18292" lon="-0.10277">
        <ele>402.5</ele>
        <time>2020-09-01T13:15:58Z</time>
      </trkpt>
      <trkpt lat="43.18336" lon="-0.10443">
        <ele>396.9</ele>
        <time>2020-09-01T13:16:13Z</time>
      </trkpt>
      <trkpt lat="43.18372" lon="-0.10604">
        <ele>391.2</ele>
        <time>2020-09-01T13:16:28Z</time>
      </trkpt>
      <trkpt lat="43.18398" lon="-0.10736">
        <ele>384.2</ele>
        <time>2020-09-01T13:16:43Z</time>
      </trkpt>
      <trkpt lat="43.18413" lon="-0.1088">
        <ele>378.4</ele>
        <time>2020-09-01T13:17:03Z</time>
      </trkpt>
      <trkpt lat="43.18396" lon="-0.11029">
        <ele>372.9</ele>
        <time>2020-09-01T13:17:28Z</time>
      </trkpt>
      <trkpt lat="43.18386" lon="-0.11176">
        <ele>370.1</ele>
        <time>2020-09-01T13:17:53Z</time>
      </trkpt>
      <trkpt lat="43.18413" lon="-0.11311">
        <ele>369.1</ele>
        <time>2020-09-01T13:18:18Z</time>
      </trkpt>
      <trkpt lat="43.18487" lon="-0.1139">
        <ele>366.8</ele>
        <time>2020-09-01T13:18:48Z</time>
      </trkpt>
      <trkpt lat="43.18565" lon="-0.11486">
        <ele>366.8</ele>
        <time>2020-09-01T13:19:18Z</time>
      </trkpt>
      <trkpt lat="43.18647" lon="-0.11563">
        <ele>367</ele>
        <time>2020-09-01T13:19:48Z</time>
      </trkpt>
      <trkpt lat="43.1862" lon="-0.11685">
        <ele>367.6</ele>
        <time>2020-09-01T13:20:54Z</time>
      </trkpt>
      <trkpt lat="43.1865" lon="-0.11808">
        <ele>367.5</ele>
        <time>2020-09-01T13:21:33Z</time>
      </trkpt>
      <trkpt lat="43.18667" lon="-0.11938">
        <ele>367.2</ele>
        <time>2020-09-01T13:22:03Z</time>
      </trkpt>
      <trkpt lat="43.18668" lon="-0.12069">
        <ele>366.8</ele>
        <time>2020-09-01T13:22:33Z</time>
      </trkpt>
      <trkpt lat="43.18674" lon="-0.12199">
        <ele>366.7</ele>
        <time>2020-09-01T13:23:03Z</time>
      </trkpt>
      <trkpt lat="43.18687" lon="-0.12332">
        <ele>367.3</ele>
        <time>2020-09-01T13:23:28Z</time>
      </trkpt>
      <trkpt lat="43.18669" lon="-0.12474">
        <ele>368.1</ele>
        <time>2020-09-01T13:23:53Z</time>
      </trkpt>
      <trkpt lat="43.1865" lon="-0.12625">
        <ele>367.9</ele>
        <time>2020-09-01T13:24:18Z</time>
      </trkpt>
      <trkpt lat="43.18628" lon="-0.12764">
        <ele>368.5</ele>
        <time>2020-09-01T13:24:48Z</time>
      </trkpt>
      <trkpt lat="43.18611" lon="-0.12905">
        <ele>370</ele>
        <time>2020-09-01T13:25:18Z</time>
      </trkpt>
      <trkpt lat="43.18599" lon="-0.13042">
        <ele>369</ele>
        <time>2020-09-01T13:25:43Z</time>
      </trkpt>
      <trkpt lat="43.18575" lon="-0.13164">
        <ele>368.3</ele>
        <time>2020-09-01T13:26:03Z</time>
      </trkpt>
      <trkpt lat="43.18555" lon="-0.13289">
        <ele>368.6</ele>
        <time>2020-09-01T13:26:23Z</time>
      </trkpt>
      <trkpt lat="43.18535" lon="-0.13418">
        <ele>368.9</ele>
        <time>2020-09-01T13:26:48Z</time>
      </trkpt>
      <trkpt lat="43.18534" lon="-0.1356">
        <ele>369.3</ele>
        <time>2020-09-01T13:27:23Z</time>
      </trkpt>
      <trkpt lat="43.18551" lon="-0.13705">
        <ele>370.4</ele>
        <time>2020-09-01T13:27:48Z</time>
      </trkpt>
      <trkpt lat="43.18569" lon="-0.13852">
        <ele>370.6</ele>
        <time>2020-09-01T13:28:13Z</time>
      </trkpt>
      <trkpt lat="43.18588" lon="-0.14003">
        <ele>370.7</ele>
        <time>2020-09-01T13:28:38Z</time>
      </trkpt>
      <trkpt lat="43.18604" lon="-0.14131">
        <ele>370.6</ele>
        <time>2020-09-01T13:28:58Z</time>
      </trkpt>
      <trkpt lat="43.18594" lon="-0.1428">
        <ele>370.5</ele>
        <time>2020-09-01T13:29:18Z</time>
      </trkpt>
      <trkpt lat="43.18561" lon="-0.14407">
        <ele>370.3</ele>
        <time>2020-09-01T13:29:38Z</time>
      </trkpt>
      <trkpt lat="43.1853" lon="-0.14528">
        <ele>370.2</ele>
        <time>2020-09-01T13:30:03Z</time>
      </trkpt>
      <trkpt lat="43.18487" lon="-0.14648">
        <ele>370.3</ele>
        <time>2020-09-01T13:30:33Z</time>
      </trkpt>
      <trkpt lat="43.18438" lon="-0.14753">
        <ele>370.4</ele>
        <time>2020-09-01T13:31:03Z</time>
      </trkpt>
      <trkpt lat="43.18402" lon="-0.14882">
        <ele>370.6</ele>
        <time>2020-09-01T13:31:38Z</time>
      </trkpt>
      <trkpt lat="43.18369" lon="-0.15012">
        <ele>370.9</ele>
        <time>2020-09-01T13:32:18Z</time>
      </trkpt>
      <trkpt lat="43.18328" lon="-0.15125">
        <ele>371.4</ele>
        <time>2020-09-01T13:33:06Z</time>
      </trkpt>
      <trkpt lat="43.18276" lon="-0.15235">
        <ele>373.1</ele>
        <time>2020-09-01T13:36:53Z</time>
      </trkpt>
      <trkpt lat="43.18244" lon="-0.15357">
        <ele>374.7</ele>
        <time>2020-09-01T13:37:58Z</time>
      </trkpt>
      <trkpt lat="43.18282" lon="-0.15475">
        <ele>377.2</ele>
        <time>2020-09-01T13:39:25Z</time>
      </trkpt>
      <trkpt lat="43.1837" lon="-0.15517">
        <ele>381.1</ele>
        <time>2020-09-01T13:41:03Z</time>
      </trkpt>
      <trkpt lat="43.18336" lon="-0.1564">
        <ele>388.2</ele>
        <time>2020-09-01T13:42:48Z</time>
      </trkpt>
      <trkpt lat="43.18251" lon="-0.15708">
        <ele>397.2</ele>
        <time>2020-09-01T13:43:42Z</time>
      </trkpt>
      <trkpt lat="43.18174" lon="-0.15774">
        <ele>405</ele>
        <time>2020-09-01T13:44:31Z</time>
      </trkpt>
      <trkpt lat="43.18131" lon="-0.15894">
        <ele>412.1</ele>
        <time>2020-09-01T13:45:30Z</time>
      </trkpt>
      <trkpt lat="43.18127" lon="-0.16023">
        <ele>416.6</ele>
        <time>2020-09-01T13:46:18Z</time>
      </trkpt>
      <trkpt lat="43.18122" lon="-0.16151">
        <ele>421.2</ele>
        <time>2020-09-01T13:47:05Z</time>
      </trkpt>
      <trkpt lat="43.18139" lon="-0.16283">
        <ele>427</ele>
        <time>2020-09-01T13:48:05Z</time>
      </trkpt>
      <trkpt lat="43.18181" lon="-0.16398">
        <ele>432.3</ele>
        <time>2020-09-01T13:49:03Z</time>
      </trkpt>
      <trkpt lat="43.18179" lon="-0.16531">
        <ele>438.2</ele>
        <time>2020-09-01T13:49:47Z</time>
      </trkpt>
      <trkpt lat="43.1816" lon="-0.16673">
        <ele>442.8</ele>
        <time>2020-09-01T13:50:07Z</time>
      </trkpt>
      <trkpt lat="43.18157" lon="-0.16829">
        <ele>442.7</ele>
        <time>2020-09-01T13:50:22Z</time>
      </trkpt>
      <trkpt lat="43.1817" lon="-0.16962">
        <ele>442.6</ele>
        <time>2020-09-01T13:50:32Z</time>
      </trkpt>
      <trkpt lat="43.18198" lon="-0.171">
        <ele>442.7</ele>
        <time>2020-09-01T13:50:42Z</time>
      </trkpt>
      <trkpt lat="43.18213" lon="-0.1725">
        <ele>442.7</ele>
        <time>2020-09-01T13:50:52Z</time>
      </trkpt>
      <trkpt lat="43.18214" lon="-0.17402">
        <ele>441.3</ele>
        <time>2020-09-01T13:51:02Z</time>
      </trkpt>
      <trkpt lat="43.1823" lon="-0.17551">
        <ele>439.4</ele>
        <time>2020-09-01T13:51:12Z</time>
      </trkpt>
      <trkpt lat="43.18264" lon="-0.17697">
        <ele>436.7</ele>
        <time>2020-09-01T13:51:22Z</time>
      </trkpt>
      <trkpt lat="43.18315" lon="-0.17854">
        <ele>430.7</ele>
        <time>2020-09-01T13:51:32Z</time>
      </trkpt>
      <trkpt lat="43.18365" lon="-0.18032">
        <ele>422</ele>
        <time>2020-09-01T13:51:42Z</time>
      </trkpt>
      <trkpt lat="43.18392" lon="-0.18202">
        <ele>412.9</ele>
        <time>2020-09-01T13:51:52Z</time>
      </trkpt>
      <trkpt lat="43.18386" lon="-0.18361">
        <ele>405.4</ele>
        <time>2020-09-01T13:52:02Z</time>
      </trkpt>
      <trkpt lat="43.18305" lon="-0.18481">
        <ele>398</ele>
        <time>2020-09-01T13:52:12Z</time>
      </trkpt>
      <trkpt lat="43.18307" lon="-0.18631">
        <ele>390.3</ele>
        <time>2020-09-01T13:52:22Z</time>
      </trkpt>
      <trkpt lat="43.18388" lon="-0.18737">
        <ele>381.2</ele>
        <time>2020-09-01T13:52:32Z</time>
      </trkpt>
      <trkpt lat="43.18355" lon="-0.1886">
        <ele>363.2</ele>
        <time>2020-09-01T13:52:47Z</time>
      </trkpt>
      <trkpt lat="43.18407" lon="-0.18996">
        <ele>354.6</ele>
        <time>2020-09-01T13:52:57Z</time>
      </trkpt>
      <trkpt lat="43.18491" lon="-0.19109">
        <ele>344.6</ele>
        <time>2020-09-01T13:53:07Z</time>
      </trkpt>
      <trkpt lat="43.18405" lon="-0.19174">
        <ele>340.1</ele>
        <time>2020-09-01T13:53:17Z</time>
      </trkpt>
      <trkpt lat="43.18336" lon="-0.19317">
        <ele>329.4</ele>
        <time>2020-09-01T13:53:27Z</time>
      </trkpt>
      <trkpt lat="43.18342" lon="-0.19445">
        <ele>324.7</ele>
        <time>2020-09-01T13:53:37Z</time>
      </trkpt>
      <trkpt lat="43.18375" lon="-0.19596">
        <ele>313</ele>
        <time>2020-09-01T13:53:52Z</time>
      </trkpt>
      <trkpt lat="43.18402" lon="-0.19729">
        <ele>306.8</ele>
        <time>2020-09-01T13:54:12Z</time>
      </trkpt>
      <trkpt lat="43.18433" lon="-0.19879">
        <ele>303.7</ele>
        <time>2020-09-01T13:54:42Z</time>
      </trkpt>
      <trkpt lat="43.18472" lon="-0.20019">
        <ele>300.1</ele>
        <time>2020-09-01T13:55:17Z</time>
      </trkpt>
      <trkpt lat="43.18517" lon="-0.20132">
        <ele>296.9</ele>
        <time>2020-09-01T13:55:37Z</time>
      </trkpt>
      <trkpt lat="43.18564" lon="-0.20244">
        <ele>296.7</ele>
        <time>2020-09-01T13:55:57Z</time>
      </trkpt>
      <trkpt lat="43.18618" lon="-0.20375">
        <ele>295.1</ele>
        <time>2020-09-01T13:56:17Z</time>
      </trkpt>
      <trkpt lat="43.18665" lon="-0.20481">
        <ele>292.9</ele>
        <time>2020-09-01T13:56:32Z</time>
      </trkpt>
      <trkpt lat="43.18709" lon="-0.20594">
        <ele>289.9</ele>
        <time>2020-09-01T13:56:47Z</time>
      </trkpt>
      <trkpt lat="43.18747" lon="-0.20756">
        <ele>286</ele>
        <time>2020-09-01T13:57:07Z</time>
      </trkpt>
      <trkpt lat="43.18819" lon="-0.2089">
        <ele>282.6</ele>
        <time>2020-09-01T13:57:22Z</time>
      </trkpt>
      <trkpt lat="43.1892" lon="-0.20968">
        <ele>278.9</ele>
        <time>2020-09-01T13:57:42Z</time>
      </trkpt>
      <trkpt lat="43.19016" lon="-0.21043">
        <ele>275.6</ele>
        <time>2020-09-01T13:58:02Z</time>
      </trkpt>
      <trkpt lat="43.19114" lon="-0.21118">
        <ele>271.8</ele>
        <time>2020-09-01T13:58:27Z</time>
      </trkpt>
      <trkpt lat="43.1918" lon="-0.21211">
        <ele>269.3</ele>
        <time>2020-09-01T13:58:47Z</time>
      </trkpt>
      <trkpt lat="43.19189" lon="-0.21339">
        <ele>267.8</ele>
        <time>2020-09-01T13:59:21Z</time>
      </trkpt>
      <trkpt lat="43.19212" lon="-0.21465">
        <ele>267.7</ele>
        <time>2020-09-01T13:59:51Z</time>
      </trkpt>
      <trkpt lat="43.19301" lon="-0.21527">
        <ele>266.8</ele>
        <time>2020-09-01T14:00:21Z</time>
      </trkpt>
      <trkpt lat="43.19387" lon="-0.21614">
        <ele>265.6</ele>
        <time>2020-09-01T14:00:51Z</time>
      </trkpt>
      <trkpt lat="43.19471" lon="-0.21693">
        <ele>264.7</ele>
        <time>2020-09-01T14:01:21Z</time>
      </trkpt>
      <trkpt lat="43.1953" lon="-0.21799">
        <ele>263</ele>
        <time>2020-09-01T14:01:46Z</time>
      </trkpt>
      <trkpt lat="43.19595" lon="-0.219">
        <ele>262.2</ele>
        <time>2020-09-01T14:02:11Z</time>
      </trkpt>
      <trkpt lat="43.19677" lon="-0.21981">
        <ele>262.3</ele>
        <time>2020-09-01T14:02:36Z</time>
      </trkpt>
      <trkpt lat="43.19783" lon="-0.22021">
        <ele>262.4</ele>
        <time>2020-09-01T14:03:01Z</time>
      </trkpt>
      <trkpt lat="43.19869" lon="-0.22067">
        <ele>262.6</ele>
        <time>2020-09-01T14:03:21Z</time>
      </trkpt>
      <trkpt lat="43.1997" lon="-0.22111">
        <ele>262.3</ele>
        <time>2020-09-01T14:03:46Z</time>
      </trkpt>
      <trkpt lat="43.20071" lon="-0.22169">
        <ele>262.1</ele>
        <time>2020-09-01T14:04:11Z</time>
      </trkpt>
      <trkpt lat="43.20176" lon="-0.2222">
        <ele>261.6</ele>
        <time>2020-09-01T14:04:36Z</time>
      </trkpt>
      <trkpt lat="43.20267" lon="-0.22257">
        <ele>261.6</ele>
        <time>2020-09-01T14:05:01Z</time>
      </trkpt>
      <trkpt lat="43.20359" lon="-0.22297">
        <ele>261.2</ele>
        <time>2020-09-01T14:05:26Z</time>
      </trkpt>
      <trkpt lat="43.2045" lon="-0.22342">
        <ele>261.1</ele>
        <time>2020-09-01T14:05:51Z</time>
      </trkpt>
      <trkpt lat="43.20544" lon="-0.22391">
        <ele>260.9</ele>
        <time>2020-09-01T14:06:16Z</time>
      </trkpt>
      <trkpt lat="43.20629" lon="-0.22462">
        <ele>261</ele>
        <time>2020-09-01T14:06:41Z</time>
      </trkpt>
      <trkpt lat="43.20707" lon="-0.22537">
        <ele>261.1</ele>
        <time>2020-09-01T14:07:06Z</time>
      </trkpt>
      <trkpt lat="43.20797" lon="-0.2262">
        <ele>261.3</ele>
        <time>2020-09-01T14:07:31Z</time>
      </trkpt>
      <trkpt lat="43.20897" lon="-0.22661">
        <ele>261.2</ele>
        <time>2020-09-01T14:07:56Z</time>
      </trkpt>
      <trkpt lat="43.20994" lon="-0.22725">
        <ele>261</ele>
        <time>2020-09-01T14:08:21Z</time>
      </trkpt>
      <trkpt lat="43.21091" lon="-0.22781">
        <ele>261.2</ele>
        <time>2020-09-01T14:08:46Z</time>
      </trkpt>
      <trkpt lat="43.21193" lon="-0.22819">
        <ele>261.2</ele>
        <time>2020-09-01T14:09:11Z</time>
      </trkpt>
      <trkpt lat="43.21296" lon="-0.22854">
        <ele>261.4</ele>
        <time>2020-09-01T14:09:36Z</time>
      </trkpt>
      <trkpt lat="43.21398" lon="-0.22884">
        <ele>261.6</ele>
        <time>2020-09-01T14:10:00Z</time>
      </trkpt>
      <trkpt lat="43.21502" lon="-0.22912">
        <ele>261.5</ele>
        <time>2020-09-01T14:10:25Z</time>
      </trkpt>
      <trkpt lat="43.21601" lon="-0.22955">
        <ele>261.4</ele>
        <time>2020-09-01T14:10:50Z</time>
      </trkpt>
      <trkpt lat="43.21698" lon="-0.23024">
        <ele>261.2</ele>
        <time>2020-09-01T14:11:15Z</time>
      </trkpt>
      <trkpt lat="43.218" lon="-0.23086">
        <ele>260.9</ele>
        <time>2020-09-01T14:11:40Z</time>
      </trkpt>
      <trkpt lat="43.21888" lon="-0.23167">
        <ele>260.6</ele>
        <time>2020-09-01T14:12:05Z</time>
      </trkpt>
      <trkpt lat="43.2197" lon="-0.23252">
        <ele>260.1</ele>
        <time>2020-09-01T14:12:30Z</time>
      </trkpt>
      <trkpt lat="43.22055" lon="-0.2333">
        <ele>259.4</ele>
        <time>2020-09-01T14:12:55Z</time>
      </trkpt>
      <trkpt lat="43.22156" lon="-0.23368">
        <ele>258.9</ele>
        <time>2020-09-01T14:13:20Z</time>
      </trkpt>
      <trkpt lat="43.22259" lon="-0.23418">
        <ele>258.5</ele>
        <time>2020-09-01T14:13:45Z</time>
      </trkpt>
      <trkpt lat="43.2236" lon="-0.23461">
        <ele>258.6</ele>
        <time>2020-09-01T14:14:10Z</time>
      </trkpt>
      <trkpt lat="43.22452" lon="-0.23527">
        <ele>258.6</ele>
        <time>2020-09-01T14:14:35Z</time>
      </trkpt>
      <trkpt lat="43.22538" lon="-0.23612">
        <ele>258.6</ele>
        <time>2020-09-01T14:15:00Z</time>
      </trkpt>
      <trkpt lat="43.22612" lon="-0.2369">
        <ele>258.7</ele>
        <time>2020-09-01T14:15:20Z</time>
      </trkpt>
      <trkpt lat="43.22703" lon="-0.23779">
        <ele>258.8</ele>
        <time>2020-09-01T14:15:45Z</time>
      </trkpt>
      <trkpt lat="43.22788" lon="-0.23868">
        <ele>258.8</ele>
        <time>2020-09-01T14:16:10Z</time>
      </trkpt>
      <trkpt lat="43.22873" lon="-0.23962">
        <ele>258.8</ele>
        <time>2020-09-01T14:16:35Z</time>
      </trkpt>
      <trkpt lat="43.22958" lon="-0.24046">
        <ele>258.8</ele>
        <time>2020-09-01T14:17:00Z</time>
      </trkpt>
      <trkpt lat="43.23046" lon="-0.24131">
        <ele>258.7</ele>
        <time>2020-09-01T14:17:25Z</time>
      </trkpt>
      <trkpt lat="43.23123" lon="-0.24227">
        <ele>258.6</ele>
        <time>2020-09-01T14:17:50Z</time>
      </trkpt>
      <trkpt lat="43.23195" lon="-0.24331">
        <ele>258.2</ele>
        <time>2020-09-01T14:18:15Z</time>
      </trkpt>
      <trkpt lat="43.2327" lon="-0.24438">
        <ele>257.7</ele>
        <time>2020-09-01T14:18:40Z</time>
      </trkpt>
      <trkpt lat="43.23342" lon="-0.24541">
        <ele>257.4</ele>
        <time>2020-09-01T14:19:05Z</time>
      </trkpt>
      <trkpt lat="43.23414" lon="-0.2464">
        <ele>257.2</ele>
        <time>2020-09-01T14:19:30Z</time>
      </trkpt>
      <trkpt lat="43.23485" lon="-0.24741">
        <ele>256.8</ele>
        <time>2020-09-01T14:19:55Z</time>
      </trkpt>
      <trkpt lat="43.23569" lon="-0.24839">
        <ele>255.9</ele>
        <time>2020-09-01T14:20:20Z</time>
      </trkpt>
      <trkpt lat="43.23636" lon="-0.24929">
        <ele>255.3</ele>
        <time>2020-09-01T14:20:40Z</time>
      </trkpt>
      <trkpt lat="43.23731" lon="-0.24996">
        <ele>254.8</ele>
        <time>2020-09-01T14:21:05Z</time>
      </trkpt>
      <trkpt lat="43.23776" lon="-0.25111">
        <ele>253.8</ele>
        <time>2020-09-01T14:21:30Z</time>
      </trkpt>
      <trkpt lat="43.2379" lon="-0.25245">
        <ele>252.5</ele>
        <time>2020-09-01T14:21:55Z</time>
      </trkpt>
      <trkpt lat="43.23842" lon="-0.25377">
        <ele>251.2</ele>
        <time>2020-09-01T14:22:25Z</time>
      </trkpt>
      <trkpt lat="43.23915" lon="-0.25481">
        <ele>250.7</ele>
        <time>2020-09-01T14:22:50Z</time>
      </trkpt>
      <trkpt lat="43.23993" lon="-0.25583">
        <ele>250.9</ele>
        <time>2020-09-01T14:24:07Z</time>
      </trkpt>
      <trkpt lat="43.24049" lon="-0.25704">
        <ele>252.5</ele>
        <time>2020-09-01T14:24:32Z</time>
      </trkpt>
      <trkpt lat="43.24118" lon="-0.25819">
        <ele>252.4</ele>
        <time>2020-09-01T14:24:57Z</time>
      </trkpt>
      <trkpt lat="43.24171" lon="-0.25932">
        <ele>252.2</ele>
        <time>2020-09-01T14:25:22Z</time>
      </trkpt>
      <trkpt lat="43.24216" lon="-0.26053">
        <ele>252</ele>
        <time>2020-09-01T14:25:47Z</time>
      </trkpt>
      <trkpt lat="43.24256" lon="-0.26175">
        <ele>251.7</ele>
        <time>2020-09-01T14:26:12Z</time>
      </trkpt>
      <trkpt lat="43.2428" lon="-0.26309">
        <ele>251.3</ele>
        <time>2020-09-01T14:26:37Z</time>
      </trkpt>
      <trkpt lat="43.2432" lon="-0.26435">
        <ele>250.9</ele>
        <time>2020-09-01T14:27:02Z</time>
      </trkpt>
      <trkpt lat="43.24343" lon="-0.26566">
        <ele>250.5</ele>
        <time>2020-09-01T14:27:27Z</time>
      </trkpt>
      <trkpt lat="43.24358" lon="-0.26695">
        <ele>250.2</ele>
        <time>2020-09-01T14:27:52Z</time>
      </trkpt>
      <trkpt lat="43.24391" lon="-0.26827">
        <ele>249.8</ele>
        <time>2020-09-01T14:28:17Z</time>
      </trkpt>
      <trkpt lat="43.2443" lon="-0.26971">
        <ele>248.4</ele>
        <time>2020-09-01T14:28:42Z</time>
      </trkpt>
      <trkpt lat="43.24462" lon="-0.27093">
        <ele>247.7</ele>
        <time>2020-09-01T14:29:02Z</time>
      </trkpt>
      <trkpt lat="43.24495" lon="-0.27213">
        <ele>247.2</ele>
        <time>2020-09-01T14:29:22Z</time>
      </trkpt>
      <trkpt lat="43.24534" lon="-0.2735">
        <ele>246.8</ele>
        <time>2020-09-01T14:29:47Z</time>
      </trkpt>
      <trkpt lat="43.24575" lon="-0.27488">
        <ele>246.1</ele>
        <time>2020-09-01T14:30:12Z</time>
      </trkpt>
      <trkpt lat="43.24611" lon="-0.27623">
        <ele>245.3</ele>
        <time>2020-09-01T14:30:37Z</time>
      </trkpt>
      <trkpt lat="43.24643" lon="-0.27741">
        <ele>244.8</ele>
        <time>2020-09-01T14:30:57Z</time>
      </trkpt>
      <trkpt lat="43.24676" lon="-0.27861">
        <ele>244.1</ele>
        <time>2020-09-01T14:31:17Z</time>
      </trkpt>
      <trkpt lat="43.24712" lon="-0.28006">
        <ele>243.3</ele>
        <time>2020-09-01T14:31:42Z</time>
      </trkpt>
      <trkpt lat="43.24743" lon="-0.28136">
        <ele>242.7</ele>
        <time>2020-09-01T14:32:07Z</time>
      </trkpt>
      <trkpt lat="43.24723" lon="-0.28269">
        <ele>240.2</ele>
        <time>2020-09-01T14:33:03Z</time>
      </trkpt>
      <trkpt lat="43.24685" lon="-0.28391">
        <ele>238.5</ele>
        <time>2020-09-01T14:33:23Z</time>
      </trkpt>
      <trkpt lat="43.24647" lon="-0.28516">
        <ele>238</ele>
        <time>2020-09-01T14:33:58Z</time>
      </trkpt>
      <trkpt lat="43.24593" lon="-0.28636">
        <ele>237.8</ele>
        <time>2020-09-01T14:34:42Z</time>
      </trkpt>
      <trkpt lat="43.24514" lon="-0.28746">
        <ele>237.4</ele>
        <time>2020-09-01T14:35:02Z</time>
      </trkpt>
      <trkpt lat="43.24436" lon="-0.28838">
        <ele>237.1</ele>
        <time>2020-09-01T14:35:17Z</time>
      </trkpt>
      <trkpt lat="43.24357" lon="-0.28934">
        <ele>236.6</ele>
        <time>2020-09-01T14:35:37Z</time>
      </trkpt>
      <trkpt lat="43.2427" lon="-0.29028">
        <ele>236.3</ele>
        <time>2020-09-01T14:35:57Z</time>
      </trkpt>
      <trkpt lat="43.24182" lon="-0.29127">
        <ele>236</ele>
        <time>2020-09-01T14:36:17Z</time>
      </trkpt>
      <trkpt lat="43.24097" lon="-0.29235">
        <ele>235.9</ele>
        <time>2020-09-01T14:36:37Z</time>
      </trkpt>
      <trkpt lat="43.24022" lon="-0.29342">
        <ele>235.8</ele>
        <time>2020-09-01T14:36:57Z</time>
      </trkpt>
      <trkpt lat="43.23966" lon="-0.29475">
        <ele>235.7</ele>
        <time>2020-09-01T14:37:22Z</time>
      </trkpt>
      <trkpt lat="43.23957" lon="-0.29616">
        <ele>235.5</ele>
        <time>2020-09-01T14:37:42Z</time>
      </trkpt>
      <trkpt lat="43.23985" lon="-0.29745">
        <ele>235.4</ele>
        <time>2020-09-01T14:38:02Z</time>
      </trkpt>
      <trkpt lat="43.24042" lon="-0.29848">
        <ele>234.9</ele>
        <time>2020-09-01T14:38:22Z</time>
      </trkpt>
      <trkpt lat="43.2412" lon="-0.2992">
        <ele>234</ele>
        <time>2020-09-01T14:38:42Z</time>
      </trkpt>
      <trkpt lat="43.24199" lon="-0.29983">
        <ele>233.6</ele>
        <time>2020-09-01T14:39:02Z</time>
      </trkpt>
      <trkpt lat="43.24266" lon="-0.30071">
        <ele>233.4</ele>
        <time>2020-09-01T14:39:22Z</time>
      </trkpt>
      <trkpt lat="43.24335" lon="-0.30183">
        <ele>233.1</ele>
        <time>2020-09-01T14:39:47Z</time>
      </trkpt>
      <trkpt lat="43.24402" lon="-0.30288">
        <ele>232.8</ele>
        <time>2020-09-01T14:40:12Z</time>
      </trkpt>
      <trkpt lat="43.24478" lon="-0.30385">
        <ele>232.2</ele>
        <time>2020-09-01T14:40:37Z</time>
      </trkpt>
      <trkpt lat="43.2448" lon="-0.30528">
        <ele>231.8</ele>
        <time>2020-09-01T14:41:07Z</time>
      </trkpt>
      <trkpt lat="43.24458" lon="-0.30669">
        <ele>231.5</ele>
        <time>2020-09-01T14:41:32Z</time>
      </trkpt>
      <trkpt lat="43.24441" lon="-0.30807">
        <ele>231.4</ele>
        <time>2020-09-01T14:42:02Z</time>
      </trkpt>
      <trkpt lat="43.24418" lon="-0.3096">
        <ele>230.7</ele>
        <time>2020-09-01T14:42:27Z</time>
      </trkpt>
      <trkpt lat="43.24409" lon="-0.31102">
        <ele>229.8</ele>
        <time>2020-09-01T14:42:47Z</time>
      </trkpt>
      <trkpt lat="43.245" lon="-0.31171">
        <ele>229.4</ele>
        <time>2020-09-01T14:43:07Z</time>
      </trkpt>
      <trkpt lat="43.24571" lon="-0.31279">
        <ele>228.3</ele>
        <time>2020-09-01T14:43:27Z</time>
      </trkpt>
      <trkpt lat="43.24634" lon="-0.31386">
        <ele>227.4</ele>
        <time>2020-09-01T14:43:47Z</time>
      </trkpt>
      <trkpt lat="43.24711" lon="-0.31464">
        <ele>224.6</ele>
        <time>2020-09-01T14:44:07Z</time>
      </trkpt>
      <trkpt lat="43.24808" lon="-0.31514">
        <ele>222.6</ele>
        <time>2020-09-01T14:44:27Z</time>
      </trkpt>
      <trkpt lat="43.24878" lon="-0.31617">
        <ele>222.3</ele>
        <time>2020-09-01T14:44:52Z</time>
      </trkpt>
      <trkpt lat="43.24951" lon="-0.31712">
        <ele>221.4</ele>
        <time>2020-09-01T14:45:12Z</time>
      </trkpt>
      <trkpt lat="43.25014" lon="-0.31804">
        <ele>219.5</ele>
        <time>2020-09-01T14:45:32Z</time>
      </trkpt>
      <trkpt lat="43.25076" lon="-0.31927">
        <ele>218.1</ele>
        <time>2020-09-01T14:45:57Z</time>
      </trkpt>
      <trkpt lat="43.25146" lon="-0.32005">
        <ele>218.3</ele>
        <time>2020-09-01T14:46:17Z</time>
      </trkpt>
      <trkpt lat="43.2522" lon="-0.32106">
        <ele>215.2</ele>
        <time>2020-09-01T14:46:38Z</time>
      </trkpt>
      <trkpt lat="43.25289" lon="-0.32211">
        <ele>213.9</ele>
        <time>2020-09-01T14:46:58Z</time>
      </trkpt>
      <trkpt lat="43.25367" lon="-0.32285">
        <ele>213.5</ele>
        <time>2020-09-01T14:47:18Z</time>
      </trkpt>
      <trkpt lat="43.25431" lon="-0.3238">
        <ele>213</ele>
        <time>2020-09-01T14:47:38Z</time>
      </trkpt>
      <trkpt lat="43.25512" lon="-0.32452">
        <ele>212</ele>
        <time>2020-09-01T14:47:58Z</time>
      </trkpt>
      <trkpt lat="43.25595" lon="-0.32395">
        <ele>211.8</ele>
        <time>2020-09-01T14:48:23Z</time>
      </trkpt>
      <trkpt lat="43.25654" lon="-0.32301">
        <ele>211.6</ele>
        <time>2020-09-01T14:49:26Z</time>
      </trkpt>
    </trkseg>
  </trk>
</gpx>